<?xml version='1.0' encoding='UTF-8'?><gpx version="1.1" creator="JPX - https://github.com/jenetics/jpx" xmlns="http://www.topografix.com/GPX/1/1"><trk><trkseg><trkpt lat="42.5222689" lon="14.1523927"><ele>2.0</ele><time>2026-05-02T06:05:47.693Z</time></trkpt><trkpt lat="42.5222008" lon="14.1524336"><ele>1.9999999999999998</ele><time>2026-05-02T06:05:54.701Z</time></trkpt><trkpt lat="42.5221407" lon="14.1524706"><ele>2.0</ele><time>2026-05-02T06:06:01.696Z</time></trkpt><trkpt lat="42.5220816" lon="14.1525124"><ele>2.0</ele><time>2026-05-02T06:06:10.689Z</time></trkpt><trkpt lat="42.5220314" lon="14.152585"><ele>1.9999999999999998</ele><time>2026-05-02T06:06:19.735Z</time></trkpt><trkpt lat="42.522093" lon="14.1525261"><ele>2.0</ele><time>2026-05-02T06:06:59.732Z</time></trkpt><trkpt lat="42.5221505" lon="14.1524686"><ele>2.0</ele><time>2026-05-02T06:07:04.718Z</time></trkpt><trkpt lat="42.5222023" lon="14.1524174"><ele>2.0</ele><time>2026-05-02T06:07:09.642Z</time></trkpt><trkpt lat="42.5222685" lon="14.1523904"><ele>1.9999999999999998</ele><time>2026-05-02T06:07:14.738Z</time></trkpt><trkpt lat="42.5223098" lon="14.1523256"><ele>2.0</ele><time>2026-05-02T06:07:20.736Z</time></trkpt><trkpt lat="42.5223697" lon="14.15229"><ele>2.0</ele><time>2026-05-02T06:07:27.034Z</time></trkpt><trkpt lat="42.5224313" lon="14.1522507"><ele>1.9999999999999998</ele><time>2026-05-02T06:07:32.456Z</time></trkpt><trkpt lat="42.5224891" lon="14.1522047"><ele>2.0</ele><time>2026-05-02T06:07:44.416Z</time></trkpt><trkpt lat="42.5225396" lon="14.1522627"><ele>2.0</ele><time>2026-05-02T06:09:02.128Z</time></trkpt><trkpt lat="42.5224334" lon="14.1523053"><ele>2.0</ele><time>2026-05-02T06:09:04.719Z</time></trkpt><trkpt lat="42.5223633" lon="14.152335"><ele>1.9999999999999998</ele><time>2026-05-02T06:09:07.722Z</time></trkpt><trkpt lat="42.5223347" lon="14.1522434"><ele>2.0</ele><time>2026-05-02T06:14:15.666Z</time></trkpt><trkpt lat="42.5223786" lon="14.1521685"><ele>2.0</ele><time>2026-05-02T06:14:20.721Z</time></trkpt><trkpt lat="42.5224253" lon="14.1521022"><ele>1.9999999999999998</ele><time>2026-05-02T06:14:27.71Z</time></trkpt><trkpt lat="42.5224842" lon="14.1520611"><ele>2.0</ele><time>2026-05-02T06:15:08.708Z</time></trkpt><trkpt lat="42.5225189" lon="14.151972"><ele>2.0</ele><time>2026-05-02T06:15:14.215Z</time></trkpt><trkpt lat="42.522548" lon="14.151878"><ele>2.0</ele><time>2026-05-02T06:15:20.096Z</time></trkpt><trkpt lat="42.5225816" lon="14.1520061"><ele>2.0</ele><time>2026-05-02T06:15:30.903Z</time></trkpt><trkpt lat="42.5225489" lon="14.1522402"><ele>2.0</ele><time>2026-05-02T06:15:33.455Z</time></trkpt><trkpt lat="42.5225927" lon="14.1520798"><ele>2.0</ele><time>2026-05-02T06:16:54.813Z</time></trkpt><trkpt lat="42.5223607" lon="14.1520965"><ele>2.0</ele><time>2026-05-02T06:16:58.663Z</time></trkpt><trkpt lat="42.5222994" lon="14.1521354"><ele>1.9999999999999998</ele><time>2026-05-02T06:17:01.662Z</time></trkpt><trkpt lat="42.5223244" lon="14.152236"><ele>2.0</ele><time>2026-05-02T06:17:08.716Z</time></trkpt><trkpt lat="42.5223611" lon="14.152311"><ele>2.0</ele><time>2026-05-02T06:17:13.663Z</time></trkpt><trkpt lat="42.5222886" lon="14.15236"><ele>1.9999999999999998</ele><time>2026-05-02T06:21:18.705Z</time></trkpt><trkpt lat="42.5222235" lon="14.1524157"><ele>2.0</ele><time>2026-05-02T06:21:20.697Z</time></trkpt><trkpt lat="42.5221534" lon="14.1524544"><ele>2.0</ele><time>2026-05-02T06:21:23.695Z</time></trkpt><trkpt lat="42.5221065" lon="14.1523444"><ele>1.6666666666666665</ele><time>2026-05-02T06:21:26.692Z</time></trkpt><trkpt lat="42.5220422" lon="14.1522218"><ele>1.3333333333333333</ele><time>2026-05-02T06:21:28.692Z</time></trkpt><trkpt lat="42.5220039" lon="14.152146"><ele>1.0</ele><time>2026-05-02T06:21:29.695Z</time></trkpt><trkpt lat="42.5219622" lon="14.152072"><ele>0.6666666666666666</ele><time>2026-05-02T06:21:30.705Z</time></trkpt><trkpt lat="42.521916" lon="14.1520118"><ele>0.3333333333333333</ele><time>2026-05-02T06:21:31.713Z</time></trkpt><trkpt lat="42.5218167" lon="14.1519973"><ele>0.0</ele><time>2026-05-02T06:21:33.7Z</time></trkpt><trkpt lat="42.5217739" lon="14.1521011"><ele>0.0</ele><time>2026-05-02T06:21:35.701Z</time></trkpt><trkpt lat="42.5217948" lon="14.1522052"><ele>0.0</ele><time>2026-05-02T06:21:37.701Z</time></trkpt><trkpt lat="42.5218739" lon="14.1523491"><ele>0.0</ele><time>2026-05-02T06:21:39.697Z</time></trkpt><trkpt lat="42.5219148" lon="14.1524261"><ele>0.0</ele><time>2026-05-02T06:21:40.722Z</time></trkpt><trkpt lat="42.5219583" lon="14.1525192"><ele>0.0</ele><time>2026-05-02T06:21:42.713Z</time></trkpt><trkpt lat="42.5219933" lon="14.1525997"><ele>0.0</ele><time>2026-05-02T06:21:46.704Z</time></trkpt><trkpt lat="42.5220319" lon="14.1526931"><ele>0.4</ele><time>2026-05-02T06:22:02.707Z</time></trkpt><trkpt lat="42.5220776" lon="14.1527866"><ele>0.8</ele><time>2026-05-02T06:22:04.713Z</time></trkpt><trkpt lat="42.5221223" lon="14.152923"><ele>1.2000000000000002</ele><time>2026-05-02T06:22:06.709Z</time></trkpt><trkpt lat="42.5221982" lon="14.1530599"><ele>1.6</ele><time>2026-05-02T06:22:08.692Z</time></trkpt><trkpt lat="42.5222484" lon="14.1531779"><ele>2.0</ele><time>2026-05-02T06:22:10.706Z</time></trkpt><trkpt lat="42.5222851" lon="14.1532473"><ele>1.9999999999999998</ele><time>2026-05-02T06:22:12.712Z</time></trkpt><trkpt lat="42.5223163" lon="14.153334"><ele>2.0</ele><time>2026-05-02T06:22:30.685Z</time></trkpt><trkpt lat="42.5223806" lon="14.1533356"><ele>2.0</ele><time>2026-05-02T06:22:32.697Z</time></trkpt><trkpt lat="42.5224732" lon="14.1532432"><ele>2.0</ele><time>2026-05-02T06:22:34.694Z</time></trkpt><trkpt lat="42.5225292" lon="14.1531842"><ele>1.9999999999999998</ele><time>2026-05-02T06:22:35.708Z</time></trkpt><trkpt lat="42.522602" lon="14.1531291"><ele>2.0</ele><time>2026-05-02T06:22:36.707Z</time></trkpt><trkpt lat="42.5226698" lon="14.1530873"><ele>1.9999999999999998</ele><time>2026-05-02T06:22:37.705Z</time></trkpt><trkpt lat="42.5227357" lon="14.1530393"><ele>2.0</ele><time>2026-05-02T06:22:38.708Z</time></trkpt><trkpt lat="42.5227851" lon="14.1529844"><ele>2.0</ele><time>2026-05-02T06:22:39.698Z</time></trkpt><trkpt lat="42.5228429" lon="14.1529314"><ele>2.0</ele><time>2026-05-02T06:22:40.707Z</time></trkpt><trkpt lat="42.5229096" lon="14.1528759"><ele>1.9999999999999998</ele><time>2026-05-02T06:22:41.707Z</time></trkpt><trkpt lat="42.5229814" lon="14.1528127"><ele>2.0</ele><time>2026-05-02T06:22:42.717Z</time></trkpt><trkpt lat="42.5230516" lon="14.1527375"><ele>1.8333333333333333</ele><time>2026-05-02T06:22:43.724Z</time></trkpt><trkpt lat="42.5231216" lon="14.1526736"><ele>1.6666666666666665</ele><time>2026-05-02T06:22:44.704Z</time></trkpt><trkpt lat="42.5231837" lon="14.1526232"><ele>1.5</ele><time>2026-05-02T06:22:45.714Z</time></trkpt><trkpt lat="42.5232849" lon="14.1525452"><ele>1.3333333333333333</ele><time>2026-05-02T06:22:47.7Z</time></trkpt><trkpt lat="42.5233687" lon="14.1524883"><ele>1.1666666666666665</ele><time>2026-05-02T06:22:49.701Z</time></trkpt><trkpt lat="42.523441" lon="14.1524542"><ele>1.0</ele><time>2026-05-02T06:22:51.691Z</time></trkpt><trkpt lat="42.5235037" lon="14.1523979"><ele>0.9999999999999999</ele><time>2026-05-02T06:22:53.705Z</time></trkpt><trkpt lat="42.5235681" lon="14.1523173"><ele>1.0</ele><time>2026-05-02T06:22:56.699Z</time></trkpt><trkpt lat="42.5236165" lon="14.152255"><ele>1.0</ele><time>2026-05-02T06:22:59.688Z</time></trkpt><trkpt lat="42.523674" lon="14.1523332"><ele>1.0</ele><time>2026-05-02T06:23:02.706Z</time></trkpt><trkpt lat="42.523657" lon="14.1524203"><ele>0.9999999999999999</ele><time>2026-05-02T06:23:05.699Z</time></trkpt><trkpt lat="42.5235789" lon="14.1524615"><ele>1.0</ele><time>2026-05-02T06:23:08.709Z</time></trkpt><trkpt lat="42.5235367" lon="14.1525378"><ele>0.9999999999999999</ele><time>2026-05-02T06:23:10.709Z</time></trkpt><trkpt lat="42.5235536" lon="14.1526501"><ele>1.0</ele><time>2026-05-02T06:23:13.684Z</time></trkpt><trkpt lat="42.5236232" lon="14.1527426"><ele>1.0</ele><time>2026-05-02T06:23:15.702Z</time></trkpt><trkpt lat="42.5236949" lon="14.1528561"><ele>1.0</ele><time>2026-05-02T06:23:17.7Z</time></trkpt><trkpt lat="42.5237229" lon="14.1529348"><ele>0.9999999999999999</ele><time>2026-05-02T06:23:18.707Z</time></trkpt><trkpt lat="42.5237621" lon="14.1530083"><ele>1.0</ele><time>2026-05-02T06:23:19.692Z</time></trkpt><trkpt lat="42.5238274" lon="14.1531174"><ele>1.3333333333333333</ele><time>2026-05-02T06:23:21.704Z</time></trkpt><trkpt lat="42.5238598" lon="14.153199"><ele>1.6666666666666665</ele><time>2026-05-02T06:23:23.692Z</time></trkpt><trkpt lat="42.5239049" lon="14.1532712"><ele>2.0</ele><time>2026-05-02T06:23:29.705Z</time></trkpt><trkpt lat="42.5239721" lon="14.1533861"><ele>2.3333333333333335</ele><time>2026-05-02T06:23:31.704Z</time></trkpt><trkpt lat="42.5240493" lon="14.1535141"><ele>2.6666666666666665</ele><time>2026-05-02T06:23:33.718Z</time></trkpt><trkpt lat="42.5240876" lon="14.1535965"><ele>3.0</ele><time>2026-05-02T06:23:34.703Z</time></trkpt><trkpt lat="42.5241322" lon="14.1536666"><ele>3.0</ele><time>2026-05-02T06:23:35.694Z</time></trkpt><trkpt lat="42.5241967" lon="14.1537976"><ele>3.0</ele><time>2026-05-02T06:23:37.707Z</time></trkpt><trkpt lat="42.524248" lon="14.15393"><ele>3.0</ele><time>2026-05-02T06:23:39.705Z</time></trkpt><trkpt lat="42.5243188" lon="14.1540476"><ele>3.0</ele><time>2026-05-02T06:23:41.742Z</time></trkpt><trkpt lat="42.5243754" lon="14.1541594"><ele>3.0</ele><time>2026-05-02T06:23:43.708Z</time></trkpt><trkpt lat="42.5244248" lon="14.154226"><ele>3.0</ele><time>2026-05-02T06:23:45.704Z</time></trkpt><trkpt lat="42.5243745" lon="14.1541373"><ele>3.0</ele><time>2026-05-02T06:24:37.697Z</time></trkpt><trkpt lat="42.524342" lon="14.1540601"><ele>3.0</ele><time>2026-05-02T06:24:38.673Z</time></trkpt><trkpt lat="42.5242964" lon="14.1539606"><ele>3.0</ele><time>2026-05-02T06:24:39.682Z</time></trkpt><trkpt lat="42.5242501" lon="14.1538603"><ele>3.0</ele><time>2026-05-02T06:24:40.702Z</time></trkpt><trkpt lat="42.5241981" lon="14.153772"><ele>3.0</ele><time>2026-05-02T06:24:41.681Z</time></trkpt><trkpt lat="42.5241539" lon="14.1536703"><ele>3.0</ele><time>2026-05-02T06:24:42.685Z</time></trkpt><trkpt lat="42.5240992" lon="14.1535759"><ele>3.0</ele><time>2026-05-02T06:24:43.691Z</time></trkpt><trkpt lat="42.5240578" lon="14.1534986"><ele>3.0</ele><time>2026-05-02T06:24:44.679Z</time></trkpt><trkpt lat="42.5239935" lon="14.1533692"><ele>3.0</ele><time>2026-05-02T06:24:46.681Z</time></trkpt><trkpt lat="42.5239449" lon="14.1533116"><ele>3.0</ele><time>2026-05-02T06:24:48.686Z</time></trkpt><trkpt lat="42.5238798" lon="14.1532839"><ele>3.0</ele><time>2026-05-02T06:25:03.683Z</time></trkpt><trkpt lat="42.523821" lon="14.1533402"><ele>3.0</ele><time>2026-05-02T06:25:06.68Z</time></trkpt><trkpt lat="42.5237491" lon="14.1534052"><ele>3.0</ele><time>2026-05-02T06:25:09.688Z</time></trkpt><trkpt lat="42.5236534" lon="14.1534731"><ele>3.0</ele><time>2026-05-02T06:25:11.673Z</time></trkpt><trkpt lat="42.5235965" lon="14.153514"><ele>3.0</ele><time>2026-05-02T06:25:12.678Z</time></trkpt><trkpt lat="42.52354" lon="14.1535659"><ele>3.0</ele><time>2026-05-02T06:25:13.692Z</time></trkpt><trkpt lat="42.5234728" lon="14.1536194"><ele>3.0</ele><time>2026-05-02T06:25:14.694Z</time></trkpt><trkpt lat="42.5234062" lon="14.1536835"><ele>3.3333333333333335</ele><time>2026-05-02T06:25:15.68Z</time></trkpt><trkpt lat="42.5233411" lon="14.1537533"><ele>3.666666666666667</ele><time>2026-05-02T06:25:16.681Z</time></trkpt><trkpt lat="42.5232698" lon="14.1538124"><ele>4.0</ele><time>2026-05-02T06:25:17.678Z</time></trkpt><trkpt lat="42.5232035" lon="14.1538607"><ele>4.333333333333334</ele><time>2026-05-02T06:25:18.683Z</time></trkpt><trkpt lat="42.5231482" lon="14.1539249"><ele>4.666666666666667</ele><time>2026-05-02T06:25:19.679Z</time></trkpt><trkpt lat="42.5230931" lon="14.1539933"><ele>5.0</ele><time>2026-05-02T06:25:20.673Z</time></trkpt><trkpt lat="42.5230101" lon="14.1540804"><ele>5.6</ele><time>2026-05-02T06:25:21.678Z</time></trkpt><trkpt lat="42.5229213" lon="14.1541699"><ele>6.2</ele><time>2026-05-02T06:25:22.687Z</time></trkpt><trkpt lat="42.5228291" lon="14.1542519"><ele>6.800000000000001</ele><time>2026-05-02T06:25:23.677Z</time></trkpt><trkpt lat="42.5227394" lon="14.1543354"><ele>7.4</ele><time>2026-05-02T06:25:24.677Z</time></trkpt><trkpt lat="42.5226562" lon="14.1544041"><ele>8.0</ele><time>2026-05-02T06:25:25.691Z</time></trkpt><trkpt lat="42.5225876" lon="14.1544618"><ele>7.999999999999999</ele><time>2026-05-02T06:25:26.684Z</time></trkpt><trkpt lat="42.5225302" lon="14.1545224"><ele>8.0</ele><time>2026-05-02T06:25:27.68Z</time></trkpt><trkpt lat="42.5224797" lon="14.154575"><ele>8.0</ele><time>2026-05-02T06:25:28.68Z</time></trkpt><trkpt lat="42.5224156" lon="14.15462"><ele>8.0</ele><time>2026-05-02T06:25:29.68Z</time></trkpt><trkpt lat="42.5223243" lon="14.1546405"><ele>7.999999999999999</ele><time>2026-05-02T06:25:31.68Z</time></trkpt><trkpt lat="42.5222474" lon="14.1545874"><ele>8.0</ele><time>2026-05-02T06:25:33.676Z</time></trkpt><trkpt lat="42.5221846" lon="14.1544845"><ele>8.0</ele><time>2026-05-02T06:25:35.68Z</time></trkpt><trkpt lat="42.5221453" lon="14.1544046"><ele>8.0</ele><time>2026-05-02T06:25:37.683Z</time></trkpt><trkpt lat="42.5221198" lon="14.1543243"><ele>8.0</ele><time>2026-05-02T06:25:38.683Z</time></trkpt><trkpt lat="42.5220835" lon="14.154185"><ele>8.0</ele><time>2026-05-02T06:25:39.684Z</time></trkpt><trkpt lat="42.5220337" lon="14.1540375"><ele>8.0</ele><time>2026-05-02T06:25:40.672Z</time></trkpt><trkpt lat="42.5219894" lon="14.1539006"><ele>6.4</ele><time>2026-05-02T06:25:41.676Z</time></trkpt><trkpt lat="42.5219324" lon="14.15377"><ele>4.800000000000001</ele><time>2026-05-02T06:25:42.669Z</time></trkpt><trkpt lat="42.5218982" lon="14.1536328"><ele>3.2</ele><time>2026-05-02T06:25:43.683Z</time></trkpt><trkpt lat="42.5218537" lon="14.1534991"><ele>1.6</ele><time>2026-05-02T06:25:44.675Z</time></trkpt><trkpt lat="42.5218081" lon="14.1533674"><ele>0.0</ele><time>2026-05-02T06:25:45.684Z</time></trkpt><trkpt lat="42.5217636" lon="14.1532361"><ele>-0.2</ele><time>2026-05-02T06:25:46.688Z</time></trkpt><trkpt lat="42.5217182" lon="14.1531028"><ele>-0.4</ele><time>2026-05-02T06:25:47.679Z</time></trkpt><trkpt lat="42.5216766" lon="14.1529762"><ele>-0.6000000000000001</ele><time>2026-05-02T06:25:48.676Z</time></trkpt><trkpt lat="42.5216341" lon="14.1528542"><ele>-0.8</ele><time>2026-05-02T06:25:49.685Z</time></trkpt><trkpt lat="42.5215909" lon="14.1527304"><ele>-1.0</ele><time>2026-05-02T06:25:50.689Z</time></trkpt><trkpt lat="42.5215498" lon="14.1526092"><ele>-1.0</ele><time>2026-05-02T06:25:51.688Z</time></trkpt><trkpt lat="42.5215117" lon="14.1524838"><ele>-1.0</ele><time>2026-05-02T06:25:52.679Z</time></trkpt><trkpt lat="42.5214737" lon="14.1523658"><ele>-1.0</ele><time>2026-05-02T06:25:53.673Z</time></trkpt><trkpt lat="42.521427" lon="14.1522463"><ele>-1.0</ele><time>2026-05-02T06:25:54.685Z</time></trkpt><trkpt lat="42.5213841" lon="14.1521311"><ele>-1.0</ele><time>2026-05-02T06:25:55.686Z</time></trkpt><trkpt lat="42.5213493" lon="14.1520137"><ele>-0.8</ele><time>2026-05-02T06:25:56.692Z</time></trkpt><trkpt lat="42.5213108" lon="14.1518988"><ele>-0.6000000000000001</ele><time>2026-05-02T06:25:57.685Z</time></trkpt><trkpt lat="42.5212721" lon="14.1517919"><ele>-0.4</ele><time>2026-05-02T06:25:58.683Z</time></trkpt><trkpt lat="42.5212316" lon="14.151674"><ele>-0.2</ele><time>2026-05-02T06:25:59.683Z</time></trkpt><trkpt lat="42.521194" lon="14.1515559"><ele>0.0</ele><time>2026-05-02T06:26:00.698Z</time></trkpt><trkpt lat="42.5211556" lon="14.1514261"><ele>0.5</ele><time>2026-05-02T06:26:01.674Z</time></trkpt><trkpt lat="42.5211091" lon="14.1512921"><ele>1.0</ele><time>2026-05-02T06:26:02.684Z</time></trkpt><trkpt lat="42.5210617" lon="14.1511513"><ele>1.5</ele><time>2026-05-02T06:26:03.69Z</time></trkpt><trkpt lat="42.5210121" lon="14.151011"><ele>2.0</ele><time>2026-05-02T06:26:04.701Z</time></trkpt><trkpt lat="42.5209617" lon="14.1508681"><ele>2.0</ele><time>2026-05-02T06:26:05.682Z</time></trkpt><trkpt lat="42.5209164" lon="14.1507275"><ele>2.0</ele><time>2026-05-02T06:26:06.694Z</time></trkpt><trkpt lat="42.5208653" lon="14.1505801"><ele>2.0</ele><time>2026-05-02T06:26:07.69Z</time></trkpt><trkpt lat="42.5208141" lon="14.1504332"><ele>2.0</ele><time>2026-05-02T06:26:08.692Z</time></trkpt><trkpt lat="42.5207632" lon="14.1502889"><ele>2.0</ele><time>2026-05-02T06:26:09.688Z</time></trkpt><trkpt lat="42.5207106" lon="14.1501522"><ele>2.0</ele><time>2026-05-02T06:26:10.681Z</time></trkpt><trkpt lat="42.5206602" lon="14.1500004"><ele>2.0</ele><time>2026-05-02T06:26:11.678Z</time></trkpt><trkpt lat="42.5206112" lon="14.1498436"><ele>2.0</ele><time>2026-05-02T06:26:12.681Z</time></trkpt><trkpt lat="42.5205524" lon="14.1496791"><ele>2.0</ele><time>2026-05-02T06:26:13.712Z</time></trkpt><trkpt lat="42.520489" lon="14.1495028"><ele>2.0</ele><time>2026-05-02T06:26:14.68Z</time></trkpt><trkpt lat="42.5204254" lon="14.1493249"><ele>2.0</ele><time>2026-05-02T06:26:15.676Z</time></trkpt><trkpt lat="42.5203623" lon="14.1491573"><ele>2.0</ele><time>2026-05-02T06:26:16.676Z</time></trkpt><trkpt lat="42.5202994" lon="14.1489816"><ele>2.0</ele><time>2026-05-02T06:26:17.679Z</time></trkpt><trkpt lat="42.520243" lon="14.1488074"><ele>2.0</ele><time>2026-05-02T06:26:18.683Z</time></trkpt><trkpt lat="42.5201836" lon="14.148639"><ele>2.0</ele><time>2026-05-02T06:26:19.676Z</time></trkpt><trkpt lat="42.5201305" lon="14.1484801"><ele>2.0</ele><time>2026-05-02T06:26:20.683Z</time></trkpt><trkpt lat="42.5200774" lon="14.1483458"><ele>1.5</ele><time>2026-05-02T06:26:21.683Z</time></trkpt><trkpt lat="42.5200237" lon="14.1482058"><ele>1.0</ele><time>2026-05-02T06:26:22.699Z</time></trkpt><trkpt lat="42.5199632" lon="14.1480679"><ele>0.5</ele><time>2026-05-02T06:26:23.684Z</time></trkpt><trkpt lat="42.5198951" lon="14.1479393"><ele>0.0</ele><time>2026-05-02T06:26:24.687Z</time></trkpt><trkpt lat="42.5198197" lon="14.1478128"><ele>0.0</ele><time>2026-05-02T06:26:25.686Z</time></trkpt><trkpt lat="42.5197407" lon="14.1476919"><ele>0.0</ele><time>2026-05-02T06:26:26.683Z</time></trkpt><trkpt lat="42.5196643" lon="14.1475846"><ele>0.0</ele><time>2026-05-02T06:26:27.683Z</time></trkpt><trkpt lat="42.519596" lon="14.1474726"><ele>0.0</ele><time>2026-05-02T06:26:28.686Z</time></trkpt><trkpt lat="42.5195423" lon="14.1473587"><ele>0.0</ele><time>2026-05-02T06:26:29.69Z</time></trkpt><trkpt lat="42.5195105" lon="14.1472437"><ele>0.6</ele><time>2026-05-02T06:26:30.688Z</time></trkpt><trkpt lat="42.5194879" lon="14.1471274"><ele>1.2</ele><time>2026-05-02T06:26:31.689Z</time></trkpt><trkpt lat="42.5194736" lon="14.1470054"><ele>1.7999999999999998</ele><time>2026-05-02T06:26:32.684Z</time></trkpt><trkpt lat="42.5194654" lon="14.1468754"><ele>2.4</ele><time>2026-05-02T06:26:33.689Z</time></trkpt><trkpt lat="42.5194603" lon="14.1467426"><ele>3.0</ele><time>2026-05-02T06:26:34.689Z</time></trkpt><trkpt lat="42.5194769" lon="14.1466321"><ele>3.0</ele><time>2026-05-02T06:26:35.686Z</time></trkpt><trkpt lat="42.5195044" lon="14.1465477"><ele>3.0</ele><time>2026-05-02T06:26:36.688Z</time></trkpt><trkpt lat="42.5195273" lon="14.1464669"><ele>3.0</ele><time>2026-05-02T06:26:37.686Z</time></trkpt><trkpt lat="42.5195569" lon="14.1463353"><ele>3.0</ele><time>2026-05-02T06:26:39.685Z</time></trkpt><trkpt lat="42.5196208" lon="14.1462152"><ele>3.0</ele><time>2026-05-02T06:26:41.696Z</time></trkpt><trkpt lat="42.5196673" lon="14.14613"><ele>3.0</ele><time>2026-05-02T06:26:43.687Z</time></trkpt><trkpt lat="42.5196961" lon="14.145989"><ele>3.0</ele><time>2026-05-02T06:26:45.689Z</time></trkpt><trkpt lat="42.5196317" lon="14.1458791"><ele>3.0</ele><time>2026-05-02T06:26:47.686Z</time></trkpt><trkpt lat="42.5195561" lon="14.1458298"><ele>3.0</ele><time>2026-05-02T06:26:48.699Z</time></trkpt><trkpt lat="42.5194569" lon="14.1457616"><ele>3.0</ele><time>2026-05-02T06:26:49.685Z</time></trkpt><trkpt lat="42.5193517" lon="14.1456878"><ele>3.0</ele><time>2026-05-02T06:26:50.685Z</time></trkpt><trkpt lat="42.5192336" lon="14.145618"><ele>3.0</ele><time>2026-05-02T06:26:51.688Z</time></trkpt><trkpt lat="42.5191146" lon="14.1455364"><ele>3.0</ele><time>2026-05-02T06:26:52.697Z</time></trkpt><trkpt lat="42.5189949" lon="14.1454584"><ele>3.0</ele><time>2026-05-02T06:26:53.687Z</time></trkpt><trkpt lat="42.5188737" lon="14.1453669"><ele>3.0</ele><time>2026-05-02T06:26:54.691Z</time></trkpt><trkpt lat="42.5187412" lon="14.1452712"><ele>3.0</ele><time>2026-05-02T06:26:55.683Z</time></trkpt><trkpt lat="42.518599" lon="14.1451711"><ele>3.0</ele><time>2026-05-02T06:26:56.688Z</time></trkpt><trkpt lat="42.5184473" lon="14.1450776"><ele>3.0</ele><time>2026-05-02T06:26:57.692Z</time></trkpt><trkpt lat="42.518294" lon="14.1449684"><ele>3.0</ele><time>2026-05-02T06:26:58.687Z</time></trkpt><trkpt lat="42.5181339" lon="14.1448543"><ele>3.0</ele><time>2026-05-02T06:26:59.691Z</time></trkpt><trkpt lat="42.5179788" lon="14.1447385"><ele>3.0</ele><time>2026-05-02T06:27:00.685Z</time></trkpt><trkpt lat="42.5178292" lon="14.1446188"><ele>3.0</ele><time>2026-05-02T06:27:01.695Z</time></trkpt><trkpt lat="42.5176723" lon="14.1445016"><ele>3.0</ele><time>2026-05-02T06:27:02.692Z</time></trkpt><trkpt lat="42.5175173" lon="14.1443828"><ele>3.0</ele><time>2026-05-02T06:27:03.7Z</time></trkpt><trkpt lat="42.5173612" lon="14.1442769"><ele>3.0</ele><time>2026-05-02T06:27:04.687Z</time></trkpt><trkpt lat="42.5172074" lon="14.144166"><ele>3.0</ele><time>2026-05-02T06:27:05.683Z</time></trkpt><trkpt lat="42.5170595" lon="14.1440685"><ele>3.0</ele><time>2026-05-02T06:27:06.69Z</time></trkpt><trkpt lat="42.516924" lon="14.1439708"><ele>3.75</ele><time>2026-05-02T06:27:07.684Z</time></trkpt><trkpt lat="42.5167937" lon="14.1438724"><ele>4.5</ele><time>2026-05-02T06:27:08.682Z</time></trkpt><trkpt lat="42.5166654" lon="14.14377"><ele>5.25</ele><time>2026-05-02T06:27:09.689Z</time></trkpt><trkpt lat="42.5165431" lon="14.1436797"><ele>6.0</ele><time>2026-05-02T06:27:10.69Z</time></trkpt><trkpt lat="42.5164169" lon="14.1435892"><ele>6.0</ele><time>2026-05-02T06:27:11.695Z</time></trkpt><trkpt lat="42.5162941" lon="14.1435045"><ele>6.0</ele><time>2026-05-02T06:27:12.698Z</time></trkpt><trkpt lat="42.5161718" lon="14.1434251"><ele>6.0</ele><time>2026-05-02T06:27:13.683Z</time></trkpt><trkpt lat="42.5160606" lon="14.1433443"><ele>6.0</ele><time>2026-05-02T06:27:14.695Z</time></trkpt><trkpt lat="42.5159531" lon="14.14326"><ele>5.25</ele><time>2026-05-02T06:27:15.691Z</time></trkpt><trkpt lat="42.5158428" lon="14.143176"><ele>4.5</ele><time>2026-05-02T06:27:16.683Z</time></trkpt><trkpt lat="42.5157401" lon="14.1430985"><ele>3.75</ele><time>2026-05-02T06:27:17.682Z</time></trkpt><trkpt lat="42.5156362" lon="14.1430197"><ele>3.0</ele><time>2026-05-02T06:27:18.69Z</time></trkpt><trkpt lat="42.5155234" lon="14.1429418"><ele>3.0</ele><time>2026-05-02T06:27:19.69Z</time></trkpt><trkpt lat="42.5154166" lon="14.1428689"><ele>3.0</ele><time>2026-05-02T06:27:20.689Z</time></trkpt><trkpt lat="42.5153185" lon="14.1427978"><ele>3.0</ele><time>2026-05-02T06:27:21.677Z</time></trkpt><trkpt lat="42.5152194" lon="14.1427256"><ele>3.0</ele><time>2026-05-02T06:27:22.691Z</time></trkpt><trkpt lat="42.5151181" lon="14.1426438"><ele>2.8</ele><time>2026-05-02T06:27:23.685Z</time></trkpt><trkpt lat="42.515015" lon="14.1425692"><ele>2.5999999999999996</ele><time>2026-05-02T06:27:24.684Z</time></trkpt><trkpt lat="42.5149071" lon="14.1424911"><ele>2.4000000000000004</ele><time>2026-05-02T06:27:25.69Z</time></trkpt><trkpt lat="42.5148105" lon="14.1424208"><ele>2.2</ele><time>2026-05-02T06:27:26.68Z</time></trkpt><trkpt lat="42.5147244" lon="14.1423632"><ele>2.0</ele><time>2026-05-02T06:27:27.702Z</time></trkpt><trkpt lat="42.5146428" lon="14.1423013"><ele>2.2</ele><time>2026-05-02T06:27:28.691Z</time></trkpt><trkpt lat="42.514561" lon="14.1422412"><ele>2.4000000000000004</ele><time>2026-05-02T06:27:29.686Z</time></trkpt><trkpt lat="42.514466" lon="14.1421697"><ele>2.5999999999999996</ele><time>2026-05-02T06:27:30.685Z</time></trkpt><trkpt lat="42.5143715" lon="14.1420872"><ele>2.8</ele><time>2026-05-02T06:27:31.691Z</time></trkpt><trkpt lat="42.5142734" lon="14.14202"><ele>3.0</ele><time>2026-05-02T06:27:32.685Z</time></trkpt><trkpt lat="42.5141767" lon="14.1419558"><ele>3.0</ele><time>2026-05-02T06:27:33.693Z</time></trkpt><trkpt lat="42.5140727" lon="14.1418855"><ele>3.0</ele><time>2026-05-02T06:27:34.69Z</time></trkpt><trkpt lat="42.51396" lon="14.141804"><ele>3.0</ele><time>2026-05-02T06:27:35.685Z</time></trkpt><trkpt lat="42.5138436" lon="14.1417127"><ele>3.0</ele><time>2026-05-02T06:27:36.685Z</time></trkpt><trkpt lat="42.513725" lon="14.1416154"><ele>3.75</ele><time>2026-05-02T06:27:37.699Z</time></trkpt><trkpt lat="42.5136021" lon="14.1415328"><ele>4.5</ele><time>2026-05-02T06:27:38.678Z</time></trkpt><trkpt lat="42.5134933" lon="14.1414585"><ele>5.25</ele><time>2026-05-02T06:27:39.685Z</time></trkpt><trkpt lat="42.5133907" lon="14.1413921"><ele>6.0</ele><time>2026-05-02T06:27:40.677Z</time></trkpt><trkpt lat="42.5132987" lon="14.1413269"><ele>6.0</ele><time>2026-05-02T06:27:41.696Z</time></trkpt><trkpt lat="42.5132101" lon="14.1412615"><ele>6.0</ele><time>2026-05-02T06:27:42.682Z</time></trkpt><trkpt lat="42.513129" lon="14.1411869"><ele>6.0</ele><time>2026-05-02T06:27:43.683Z</time></trkpt><trkpt lat="42.5130497" lon="14.1410947"><ele>6.0</ele><time>2026-05-02T06:27:44.689Z</time></trkpt><trkpt lat="42.5129745" lon="14.140985"><ele>6.0</ele><time>2026-05-02T06:27:45.683Z</time></trkpt><trkpt lat="42.5129215" lon="14.1408492"><ele>6.0</ele><time>2026-05-02T06:27:46.688Z</time></trkpt><trkpt lat="42.5128862" lon="14.1407032"><ele>6.0</ele><time>2026-05-02T06:27:47.689Z</time></trkpt><trkpt lat="42.5128701" lon="14.1405608"><ele>6.0</ele><time>2026-05-02T06:27:48.692Z</time></trkpt><trkpt lat="42.512867" lon="14.1404293"><ele>6.0</ele><time>2026-05-02T06:27:49.682Z</time></trkpt><trkpt lat="42.5128824" lon="14.1402971"><ele>6.0</ele><time>2026-05-02T06:27:50.683Z</time></trkpt><trkpt lat="42.5128972" lon="14.1401781"><ele>6.0</ele><time>2026-05-02T06:27:51.677Z</time></trkpt><trkpt lat="42.5129248" lon="14.1400658"><ele>6.0</ele><time>2026-05-02T06:27:52.695Z</time></trkpt><trkpt lat="42.5129592" lon="14.1399573"><ele>6.0</ele><time>2026-05-02T06:27:53.687Z</time></trkpt><trkpt lat="42.5130094" lon="14.139832"><ele>6.0</ele><time>2026-05-02T06:27:54.687Z</time></trkpt><trkpt lat="42.5130603" lon="14.1397016"><ele>6.0</ele><time>2026-05-02T06:27:55.694Z</time></trkpt><trkpt lat="42.5131125" lon="14.1395598"><ele>6.25</ele><time>2026-05-02T06:27:56.685Z</time></trkpt><trkpt lat="42.5131717" lon="14.1394088"><ele>6.5</ele><time>2026-05-02T06:27:57.686Z</time></trkpt><trkpt lat="42.5132316" lon="14.1392477"><ele>6.75</ele><time>2026-05-02T06:27:58.697Z</time></trkpt><trkpt lat="42.5132996" lon="14.1390852"><ele>7.0</ele><time>2026-05-02T06:27:59.688Z</time></trkpt><trkpt lat="42.5133578" lon="14.1389316"><ele>6.5</ele><time>2026-05-02T06:28:00.688Z</time></trkpt><trkpt lat="42.5134208" lon="14.1387724"><ele>6.0</ele><time>2026-05-02T06:28:01.692Z</time></trkpt><trkpt lat="42.5134793" lon="14.1386122"><ele>5.5</ele><time>2026-05-02T06:28:02.689Z</time></trkpt><trkpt lat="42.513539" lon="14.1384385"><ele>5.0</ele><time>2026-05-02T06:28:03.691Z</time></trkpt><trkpt lat="42.5136017" lon="14.138275"><ele>5.2</ele><time>2026-05-02T06:28:04.69Z</time></trkpt><trkpt lat="42.5136615" lon="14.1381194"><ele>5.4</ele><time>2026-05-02T06:28:05.683Z</time></trkpt><trkpt lat="42.5137153" lon="14.1379882"><ele>5.6</ele><time>2026-05-02T06:28:06.68Z</time></trkpt><trkpt lat="42.5137728" lon="14.1378675"><ele>5.8</ele><time>2026-05-02T06:28:07.693Z</time></trkpt><trkpt lat="42.513818" lon="14.1377624"><ele>6.0</ele><time>2026-05-02T06:28:08.685Z</time></trkpt><trkpt lat="42.5138648" lon="14.1376674"><ele>6.0</ele><time>2026-05-02T06:28:09.685Z</time></trkpt><trkpt lat="42.5138981" lon="14.137583"><ele>6.0</ele><time>2026-05-02T06:28:10.685Z</time></trkpt><trkpt lat="42.5139008" lon="14.1374426"><ele>6.0</ele><time>2026-05-02T06:28:12.689Z</time></trkpt><trkpt lat="42.5138011" lon="14.1373261"><ele>6.0</ele><time>2026-05-02T06:28:14.685Z</time></trkpt><trkpt lat="42.5137223" lon="14.1372719"><ele>6.0</ele><time>2026-05-02T06:28:15.679Z</time></trkpt><trkpt lat="42.5136462" lon="14.1371759"><ele>5.5</ele><time>2026-05-02T06:28:16.678Z</time></trkpt><trkpt lat="42.5135845" lon="14.1370239"><ele>5.0</ele><time>2026-05-02T06:28:17.681Z</time></trkpt><trkpt lat="42.5135349" lon="14.1368564"><ele>4.5</ele><time>2026-05-02T06:28:18.701Z</time></trkpt><trkpt lat="42.513485" lon="14.1366727"><ele>4.0</ele><time>2026-05-02T06:28:19.688Z</time></trkpt><trkpt lat="42.5134408" lon="14.1364721"><ele>3.75</ele><time>2026-05-02T06:28:20.69Z</time></trkpt><trkpt lat="42.5133962" lon="14.1362711"><ele>3.5</ele><time>2026-05-02T06:28:21.676Z</time></trkpt><trkpt lat="42.5133537" lon="14.1360725"><ele>3.25</ele><time>2026-05-02T06:28:22.678Z</time></trkpt><trkpt lat="42.5133011" lon="14.1358933"><ele>3.0</ele><time>2026-05-02T06:28:23.686Z</time></trkpt><trkpt lat="42.513243" lon="14.1357304"><ele>3.0</ele><time>2026-05-02T06:28:24.687Z</time></trkpt><trkpt lat="42.5131633" lon="14.1355831"><ele>3.0</ele><time>2026-05-02T06:28:25.69Z</time></trkpt><trkpt lat="42.5130816" lon="14.1354433"><ele>3.0</ele><time>2026-05-02T06:28:26.69Z</time></trkpt><trkpt lat="42.5129848" lon="14.1353169"><ele>3.0</ele><time>2026-05-02T06:28:27.683Z</time></trkpt><trkpt lat="42.5128809" lon="14.1351867"><ele>3.0</ele><time>2026-05-02T06:28:28.681Z</time></trkpt><trkpt lat="42.5127719" lon="14.1350811"><ele>3.0</ele><time>2026-05-02T06:28:29.692Z</time></trkpt><trkpt lat="42.5126575" lon="14.1349741"><ele>3.0</ele><time>2026-05-02T06:28:30.685Z</time></trkpt><trkpt lat="42.512552" lon="14.1348922"><ele>3.0</ele><time>2026-05-02T06:28:31.686Z</time></trkpt><trkpt lat="42.5124585" lon="14.134825"><ele>2.6666666666666665</ele><time>2026-05-02T06:28:32.684Z</time></trkpt><trkpt lat="42.5123951" lon="14.1347704"><ele>2.3333333333333335</ele><time>2026-05-02T06:28:33.68Z</time></trkpt><trkpt lat="42.5123354" lon="14.1347284"><ele>2.0</ele><time>2026-05-02T06:28:34.713Z</time></trkpt><trkpt lat="42.5122532" lon="14.1346836"><ele>1.6666666666666665</ele><time>2026-05-02T06:28:35.688Z</time></trkpt><trkpt lat="42.5121602" lon="14.1346271"><ele>1.3333333333333333</ele><time>2026-05-02T06:28:36.678Z</time></trkpt><trkpt lat="42.5120598" lon="14.1345551"><ele>1.0</ele><time>2026-05-02T06:28:37.681Z</time></trkpt><trkpt lat="42.5119524" lon="14.1344752"><ele>2.0</ele><time>2026-05-02T06:28:38.688Z</time></trkpt><trkpt lat="42.5118422" lon="14.1343827"><ele>3.0</ele><time>2026-05-02T06:28:39.681Z</time></trkpt><trkpt lat="42.5117382" lon="14.1342628"><ele>4.0</ele><time>2026-05-02T06:28:40.678Z</time></trkpt><trkpt lat="42.5116504" lon="14.1341278"><ele>5.0</ele><time>2026-05-02T06:28:41.705Z</time></trkpt><trkpt lat="42.5115673" lon="14.1339573"><ele>5.0</ele><time>2026-05-02T06:28:42.684Z</time></trkpt><trkpt lat="42.5114794" lon="14.1337706"><ele>5.0</ele><time>2026-05-02T06:28:43.69Z</time></trkpt><trkpt lat="42.5113743" lon="14.1335847"><ele>5.0</ele><time>2026-05-02T06:28:44.678Z</time></trkpt><trkpt lat="42.5112606" lon="14.1334056"><ele>5.333333333333334</ele><time>2026-05-02T06:28:45.69Z</time></trkpt><trkpt lat="42.5111456" lon="14.1332233"><ele>5.666666666666667</ele><time>2026-05-02T06:28:46.693Z</time></trkpt><trkpt lat="42.5110353" lon="14.1330293"><ele>6.0</ele><time>2026-05-02T06:28:47.682Z</time></trkpt><trkpt lat="42.5109321" lon="14.1328369"><ele>6.0</ele><time>2026-05-02T06:28:48.691Z</time></trkpt><trkpt lat="42.510834" lon="14.132643"><ele>6.0</ele><time>2026-05-02T06:28:49.694Z</time></trkpt><trkpt lat="42.5107413" lon="14.1324632"><ele>6.0</ele><time>2026-05-02T06:28:50.68Z</time></trkpt><trkpt lat="42.5106509" lon="14.1322891"><ele>6.0</ele><time>2026-05-02T06:28:51.684Z</time></trkpt><trkpt lat="42.5105707" lon="14.1321337"><ele>6.0</ele><time>2026-05-02T06:28:52.679Z</time></trkpt><trkpt lat="42.5104893" lon="14.1319897"><ele>6.0</ele><time>2026-05-02T06:28:53.684Z</time></trkpt><trkpt lat="42.5104082" lon="14.1318463"><ele>6.0</ele><time>2026-05-02T06:28:54.69Z</time></trkpt><trkpt lat="42.5103234" lon="14.1317067"><ele>6.0</ele><time>2026-05-02T06:28:55.688Z</time></trkpt><trkpt lat="42.5102397" lon="14.1315682"><ele>6.0</ele><time>2026-05-02T06:28:56.687Z</time></trkpt><trkpt lat="42.5101484" lon="14.1314251"><ele>6.0</ele><time>2026-05-02T06:28:57.7Z</time></trkpt><trkpt lat="42.5100633" lon="14.1312742"><ele>6.0</ele><time>2026-05-02T06:28:58.682Z</time></trkpt><trkpt lat="42.5099702" lon="14.1311333"><ele>5.75</ele><time>2026-05-02T06:28:59.686Z</time></trkpt><trkpt lat="42.5098789" lon="14.130991"><ele>5.5</ele><time>2026-05-02T06:29:00.689Z</time></trkpt><trkpt lat="42.5097874" lon="14.1308532"><ele>5.25</ele><time>2026-05-02T06:29:01.694Z</time></trkpt><trkpt lat="42.5096924" lon="14.1307106"><ele>5.0</ele><time>2026-05-02T06:29:02.696Z</time></trkpt><trkpt lat="42.509601" lon="14.130576"><ele>5.5</ele><time>2026-05-02T06:29:03.687Z</time></trkpt><trkpt lat="42.5095156" lon="14.1304382"><ele>6.0</ele><time>2026-05-02T06:29:04.687Z</time></trkpt><trkpt lat="42.5094296" lon="14.1303044"><ele>6.5</ele><time>2026-05-02T06:29:05.686Z</time></trkpt><trkpt lat="42.5093574" lon="14.130189"><ele>7.0</ele><time>2026-05-02T06:29:06.699Z</time></trkpt><trkpt lat="42.5092818" lon="14.1300818"><ele>7.0</ele><time>2026-05-02T06:29:07.686Z</time></trkpt><trkpt lat="42.5092167" lon="14.1299868"><ele>6.999999999999999</ele><time>2026-05-02T06:29:08.687Z</time></trkpt><trkpt lat="42.509162" lon="14.1299054"><ele>6.999999999999999</ele><time>2026-05-02T06:29:09.685Z</time></trkpt><trkpt lat="42.5091006" lon="14.129783"><ele>7.0</ele><time>2026-05-02T06:29:11.699Z</time></trkpt><trkpt lat="42.5090773" lon="14.1296914"><ele>7.0</ele><time>2026-05-02T06:29:13.689Z</time></trkpt><trkpt lat="42.5090732" lon="14.1295635"><ele>6.8</ele><time>2026-05-02T06:29:20.69Z</time></trkpt><trkpt lat="42.5090142" lon="14.1294296"><ele>6.6</ele><time>2026-05-02T06:29:22.688Z</time></trkpt><trkpt lat="42.5089514" lon="14.1293701"><ele>6.3999999999999995</ele><time>2026-05-02T06:29:23.7Z</time></trkpt><trkpt lat="42.5088707" lon="14.1293111"><ele>6.199999999999999</ele><time>2026-05-02T06:29:24.699Z</time></trkpt><trkpt lat="42.5087918" lon="14.1292419"><ele>6.0</ele><time>2026-05-02T06:29:25.692Z</time></trkpt><trkpt lat="42.5087146" lon="14.1291521"><ele>6.0</ele><time>2026-05-02T06:29:26.685Z</time></trkpt><trkpt lat="42.5086449" lon="14.1290428"><ele>6.0</ele><time>2026-05-02T06:29:27.693Z</time></trkpt><trkpt lat="42.5085792" lon="14.1289326"><ele>6.0</ele><time>2026-05-02T06:29:28.686Z</time></trkpt><trkpt lat="42.5085106" lon="14.1288169"><ele>6.0</ele><time>2026-05-02T06:29:29.682Z</time></trkpt><trkpt lat="42.5084295" lon="14.1286943"><ele>6.0</ele><time>2026-05-02T06:29:30.705Z</time></trkpt><trkpt lat="42.5083406" lon="14.1285464"><ele>6.0</ele><time>2026-05-02T06:29:31.7Z</time></trkpt><trkpt lat="42.5082491" lon="14.1283787"><ele>6.0</ele><time>2026-05-02T06:29:32.683Z</time></trkpt><trkpt lat="42.5081571" lon="14.1282104"><ele>6.0</ele><time>2026-05-02T06:29:33.699Z</time></trkpt><trkpt lat="42.5080587" lon="14.1280339"><ele>5.666666666666667</ele><time>2026-05-02T06:29:34.703Z</time></trkpt><trkpt lat="42.5079642" lon="14.1278449"><ele>5.333333333333334</ele><time>2026-05-02T06:29:35.7Z</time></trkpt><trkpt lat="42.507864" lon="14.1276524"><ele>5.0</ele><time>2026-05-02T06:29:36.704Z</time></trkpt><trkpt lat="42.5077615" lon="14.127455"><ele>6.0</ele><time>2026-05-02T06:29:37.687Z</time></trkpt><trkpt lat="42.5076525" lon="14.1272596"><ele>7.0</ele><time>2026-05-02T06:29:38.688Z</time></trkpt><trkpt lat="42.507539" lon="14.1270625"><ele>8.0</ele><time>2026-05-02T06:29:39.702Z</time></trkpt><trkpt lat="42.5074318" lon="14.1268689"><ele>8.0</ele><time>2026-05-02T06:29:40.695Z</time></trkpt><trkpt lat="42.5073292" lon="14.1266846"><ele>8.0</ele><time>2026-05-02T06:29:41.695Z</time></trkpt><trkpt lat="42.5072329" lon="14.1265111"><ele>8.0</ele><time>2026-05-02T06:29:42.696Z</time></trkpt><trkpt lat="42.5071335" lon="14.1263423"><ele>7.75</ele><time>2026-05-02T06:29:43.7Z</time></trkpt><trkpt lat="42.5070345" lon="14.126181"><ele>7.5</ele><time>2026-05-02T06:29:44.708Z</time></trkpt><trkpt lat="42.5069417" lon="14.1260313"><ele>7.25</ele><time>2026-05-02T06:29:45.695Z</time></trkpt><trkpt lat="42.5068454" lon="14.1258808"><ele>7.0</ele><time>2026-05-02T06:29:46.703Z</time></trkpt><trkpt lat="42.5067539" lon="14.1257362"><ele>7.25</ele><time>2026-05-02T06:29:47.693Z</time></trkpt><trkpt lat="42.5066642" lon="14.1255862"><ele>7.5</ele><time>2026-05-02T06:29:48.697Z</time></trkpt><trkpt lat="42.5065683" lon="14.125447"><ele>7.75</ele><time>2026-05-02T06:29:49.694Z</time></trkpt><trkpt lat="42.5064737" lon="14.1253157"><ele>8.0</ele><time>2026-05-02T06:29:50.711Z</time></trkpt><trkpt lat="42.5063807" lon="14.1251899"><ele>8.0</ele><time>2026-05-02T06:29:51.696Z</time></trkpt><trkpt lat="42.5062789" lon="14.1250629"><ele>8.0</ele><time>2026-05-02T06:29:52.696Z</time></trkpt><trkpt lat="42.5061791" lon="14.1249372"><ele>8.0</ele><time>2026-05-02T06:29:53.707Z</time></trkpt><trkpt lat="42.5060776" lon="14.1248128"><ele>8.0</ele><time>2026-05-02T06:29:54.687Z</time></trkpt><trkpt lat="42.5059756" lon="14.1247003"><ele>8.25</ele><time>2026-05-02T06:29:55.701Z</time></trkpt><trkpt lat="42.5058775" lon="14.124587"><ele>8.5</ele><time>2026-05-02T06:29:56.701Z</time></trkpt><trkpt lat="42.5057853" lon="14.1244746"><ele>8.75</ele><time>2026-05-02T06:29:57.704Z</time></trkpt><trkpt lat="42.5056917" lon="14.1243662"><ele>9.0</ele><time>2026-05-02T06:29:58.702Z</time></trkpt><trkpt lat="42.5055966" lon="14.1242597"><ele>9.0</ele><time>2026-05-02T06:29:59.691Z</time></trkpt><trkpt lat="42.5055015" lon="14.1241581"><ele>9.0</ele><time>2026-05-02T06:30:00.706Z</time></trkpt><trkpt lat="42.5054046" lon="14.1240547"><ele>9.0</ele><time>2026-05-02T06:30:01.706Z</time></trkpt><trkpt lat="42.5053096" lon="14.1239629"><ele>9.0</ele><time>2026-05-02T06:30:02.7Z</time></trkpt><trkpt lat="42.5052128" lon="14.1238673"><ele>8.5</ele><time>2026-05-02T06:30:03.706Z</time></trkpt><trkpt lat="42.5051178" lon="14.1237729"><ele>8.0</ele><time>2026-05-02T06:30:04.688Z</time></trkpt><trkpt lat="42.5050263" lon="14.1236834"><ele>7.5</ele><time>2026-05-02T06:30:05.687Z</time></trkpt><trkpt lat="42.5049367" lon="14.1235938"><ele>7.0</ele><time>2026-05-02T06:30:06.707Z</time></trkpt><trkpt lat="42.5048461" lon="14.1235138"><ele>7.0</ele><time>2026-05-02T06:30:07.686Z</time></trkpt><trkpt lat="42.5047555" lon="14.1234314"><ele>6.999999999999999</ele><time>2026-05-02T06:30:08.681Z</time></trkpt><trkpt lat="42.5046749" lon="14.1233561"><ele>6.999999999999999</ele><time>2026-05-02T06:30:09.687Z</time></trkpt><trkpt lat="42.5045999" lon="14.1232893"><ele>7.0</ele><time>2026-05-02T06:30:10.695Z</time></trkpt><trkpt lat="42.504521" lon="14.1232266"><ele>7.0</ele><time>2026-05-02T06:30:11.679Z</time></trkpt><trkpt lat="42.5044451" lon="14.1231569"><ele>7.6</ele><time>2026-05-02T06:30:12.687Z</time></trkpt><trkpt lat="42.5043759" lon="14.1230913"><ele>8.2</ele><time>2026-05-02T06:30:13.684Z</time></trkpt><trkpt lat="42.5043114" lon="14.1230233"><ele>8.8</ele><time>2026-05-02T06:30:14.681Z</time></trkpt><trkpt lat="42.5042429" lon="14.1229518"><ele>9.4</ele><time>2026-05-02T06:30:15.684Z</time></trkpt><trkpt lat="42.5041631" lon="14.1228774"><ele>10.0</ele><time>2026-05-02T06:30:16.698Z</time></trkpt><trkpt lat="42.5040743" lon="14.1228023"><ele>10.0</ele><time>2026-05-02T06:30:17.685Z</time></trkpt><trkpt lat="42.503985" lon="14.1227225"><ele>10.0</ele><time>2026-05-02T06:30:18.687Z</time></trkpt><trkpt lat="42.5038953" lon="14.1226412"><ele>10.0</ele><time>2026-05-02T06:30:19.679Z</time></trkpt><trkpt lat="42.5038056" lon="14.1225623"><ele>10.0</ele><time>2026-05-02T06:30:20.68Z</time></trkpt><trkpt lat="42.5036949" lon="14.1224733"><ele>9.666666666666668</ele><time>2026-05-02T06:30:21.695Z</time></trkpt><trkpt lat="42.5035674" lon="14.1223692"><ele>9.333333333333334</ele><time>2026-05-02T06:30:22.682Z</time></trkpt><trkpt lat="42.5034322" lon="14.1222594"><ele>9.0</ele><time>2026-05-02T06:30:23.705Z</time></trkpt><trkpt lat="42.5033017" lon="14.1221385"><ele>9.0</ele><time>2026-05-02T06:30:24.692Z</time></trkpt><trkpt lat="42.5031886" lon="14.1220225"><ele>9.0</ele><time>2026-05-02T06:30:25.682Z</time></trkpt><trkpt lat="42.5030801" lon="14.1219237"><ele>9.0</ele><time>2026-05-02T06:30:26.685Z</time></trkpt><trkpt lat="42.502996" lon="14.1218466"><ele>9.0</ele><time>2026-05-02T06:30:27.676Z</time></trkpt><trkpt lat="42.5029326" lon="14.1217621"><ele>8.833333333333334</ele><time>2026-05-02T06:30:28.682Z</time></trkpt><trkpt lat="42.5028834" lon="14.1216853"><ele>8.666666666666666</ele><time>2026-05-02T06:30:29.68Z</time></trkpt><trkpt lat="42.5028394" lon="14.1216192"><ele>8.5</ele><time>2026-05-02T06:30:30.688Z</time></trkpt><trkpt lat="42.5028202" lon="14.1215358"><ele>8.333333333333332</ele><time>2026-05-02T06:30:31.689Z</time></trkpt><trkpt lat="42.5027855" lon="14.1214595"><ele>8.166666666666666</ele><time>2026-05-02T06:30:32.688Z</time></trkpt><trkpt lat="42.5026902" lon="14.1213411"><ele>8.0</ele><time>2026-05-02T06:30:34.688Z</time></trkpt><trkpt lat="42.5026147" lon="14.121301"><ele>8.0</ele><time>2026-05-02T06:30:35.698Z</time></trkpt><trkpt lat="42.5025254" lon="14.1212892"><ele>8.0</ele><time>2026-05-02T06:30:36.685Z</time></trkpt><trkpt lat="42.50242" lon="14.1212976"><ele>8.0</ele><time>2026-05-02T06:30:37.689Z</time></trkpt><trkpt lat="42.5023167" lon="14.1212866"><ele>8.0</ele><time>2026-05-02T06:30:38.702Z</time></trkpt><trkpt lat="42.5022161" lon="14.1212319"><ele>8.0</ele><time>2026-05-02T06:30:39.691Z</time></trkpt><trkpt lat="42.5021033" lon="14.1211659"><ele>8.4</ele><time>2026-05-02T06:30:40.677Z</time></trkpt><trkpt lat="42.5020025" lon="14.1210875"><ele>8.8</ele><time>2026-05-02T06:30:41.696Z</time></trkpt><trkpt lat="42.5019107" lon="14.1210242"><ele>9.2</ele><time>2026-05-02T06:30:42.681Z</time></trkpt><trkpt lat="42.5018195" lon="14.1209825"><ele>9.6</ele><time>2026-05-02T06:30:43.689Z</time></trkpt><trkpt lat="42.5017195" lon="14.1209423"><ele>10.0</ele><time>2026-05-02T06:30:44.695Z</time></trkpt><trkpt lat="42.5016092" lon="14.1208949"><ele>10.0</ele><time>2026-05-02T06:30:45.703Z</time></trkpt><trkpt lat="42.5014924" lon="14.1208505"><ele>10.0</ele><time>2026-05-02T06:30:46.683Z</time></trkpt><trkpt lat="42.5013679" lon="14.1208114"><ele>10.0</ele><time>2026-05-02T06:30:47.689Z</time></trkpt><trkpt lat="42.5012427" lon="14.1207664"><ele>10.0</ele><time>2026-05-02T06:30:48.68Z</time></trkpt><trkpt lat="42.5011098" lon="14.1207259"><ele>10.25</ele><time>2026-05-02T06:30:49.679Z</time></trkpt><trkpt lat="42.5009835" lon="14.1206592"><ele>10.5</ele><time>2026-05-02T06:30:50.676Z</time></trkpt><trkpt lat="42.50086" lon="14.1205915"><ele>10.75</ele><time>2026-05-02T06:30:51.666Z</time></trkpt><trkpt lat="42.5007291" lon="14.1205108"><ele>11.0</ele><time>2026-05-02T06:30:52.698Z</time></trkpt><trkpt lat="42.5006012" lon="14.1204209"><ele>11.0</ele><time>2026-05-02T06:30:53.68Z</time></trkpt><trkpt lat="42.5004728" lon="14.1203221"><ele>11.0</ele><time>2026-05-02T06:30:54.673Z</time></trkpt><trkpt lat="42.5003454" lon="14.1202331"><ele>11.0</ele><time>2026-05-02T06:30:55.683Z</time></trkpt><trkpt lat="42.5002198" lon="14.1201439"><ele>11.0</ele><time>2026-05-02T06:30:56.683Z</time></trkpt><trkpt lat="42.5001007" lon="14.1200629"><ele>10.8</ele><time>2026-05-02T06:30:57.685Z</time></trkpt><trkpt lat="42.4999934" lon="14.119985"><ele>10.600000000000001</ele><time>2026-05-02T06:30:58.689Z</time></trkpt><trkpt lat="42.4998968" lon="14.1199104"><ele>10.4</ele><time>2026-05-02T06:30:59.673Z</time></trkpt><trkpt lat="42.4998115" lon="14.1198617"><ele>10.2</ele><time>2026-05-02T06:31:00.675Z</time></trkpt><trkpt lat="42.499726" lon="14.1198532"><ele>10.0</ele><time>2026-05-02T06:31:01.679Z</time></trkpt><trkpt lat="42.4996349" lon="14.1198844"><ele>11.0</ele><time>2026-05-02T06:31:02.684Z</time></trkpt><trkpt lat="42.4995549" lon="14.1199612"><ele>12.0</ele><time>2026-05-02T06:31:03.677Z</time></trkpt><trkpt lat="42.4994976" lon="14.1200714"><ele>13.0</ele><time>2026-05-02T06:31:04.693Z</time></trkpt><trkpt lat="42.4994262" lon="14.1201861"><ele>14.0</ele><time>2026-05-02T06:31:05.683Z</time></trkpt><trkpt lat="42.4993412" lon="14.1202999"><ele>15.0</ele><time>2026-05-02T06:31:06.68Z</time></trkpt><trkpt lat="42.499253" lon="14.1204259"><ele>15.0</ele><time>2026-05-02T06:31:07.692Z</time></trkpt><trkpt lat="42.4991586" lon="14.1205501"><ele>15.0</ele><time>2026-05-02T06:31:08.687Z</time></trkpt><trkpt lat="42.4990513" lon="14.1206795"><ele>15.0</ele><time>2026-05-02T06:31:09.692Z</time></trkpt><trkpt lat="42.4989451" lon="14.1208039"><ele>15.0</ele><time>2026-05-02T06:31:10.691Z</time></trkpt><trkpt lat="42.4988473" lon="14.1209333"><ele>15.0</ele><time>2026-05-02T06:31:11.689Z</time></trkpt><trkpt lat="42.4987519" lon="14.1210536"><ele>15.0</ele><time>2026-05-02T06:31:12.675Z</time></trkpt><trkpt lat="42.4986595" lon="14.121168"><ele>15.0</ele><time>2026-05-02T06:31:13.68Z</time></trkpt><trkpt lat="42.4985751" lon="14.1212716"><ele>15.0</ele><time>2026-05-02T06:31:14.683Z</time></trkpt><trkpt lat="42.4984957" lon="14.1213707"><ele>15.0</ele><time>2026-05-02T06:31:15.677Z</time></trkpt><trkpt lat="42.4984148" lon="14.1214636"><ele>15.0</ele><time>2026-05-02T06:31:16.692Z</time></trkpt><trkpt lat="42.4983342" lon="14.1215488"><ele>15.0</ele><time>2026-05-02T06:31:17.68Z</time></trkpt><trkpt lat="42.4982389" lon="14.1216219"><ele>15.0</ele><time>2026-05-02T06:31:18.678Z</time></trkpt><trkpt lat="42.4981409" lon="14.1216848"><ele>15.0</ele><time>2026-05-02T06:31:19.677Z</time></trkpt><trkpt lat="42.4980508" lon="14.1217728"><ele>15.0</ele><time>2026-05-02T06:31:20.69Z</time></trkpt><trkpt lat="42.4979588" lon="14.1218951"><ele>15.0</ele><time>2026-05-02T06:31:21.691Z</time></trkpt><trkpt lat="42.4978503" lon="14.1220514"><ele>15.0</ele><time>2026-05-02T06:31:22.687Z</time></trkpt><trkpt lat="42.4977416" lon="14.122229"><ele>15.0</ele><time>2026-05-02T06:31:23.678Z</time></trkpt><trkpt lat="42.4976397" lon="14.1223803"><ele>15.0</ele><time>2026-05-02T06:31:24.682Z</time></trkpt><trkpt lat="42.4975461" lon="14.1225417"><ele>15.0</ele><time>2026-05-02T06:31:25.688Z</time></trkpt><trkpt lat="42.4974482" lon="14.1227029"><ele>14.75</ele><time>2026-05-02T06:31:26.692Z</time></trkpt><trkpt lat="42.4973537" lon="14.1228575"><ele>14.5</ele><time>2026-05-02T06:31:27.687Z</time></trkpt><trkpt lat="42.4972657" lon="14.1230038"><ele>14.25</ele><time>2026-05-02T06:31:28.691Z</time></trkpt><trkpt lat="42.4971679" lon="14.1231438"><ele>14.0</ele><time>2026-05-02T06:31:29.681Z</time></trkpt><trkpt lat="42.4970774" lon="14.1232778"><ele>14.399999999999999</ele><time>2026-05-02T06:31:30.688Z</time></trkpt><trkpt lat="42.4969882" lon="14.1234058"><ele>14.799999999999999</ele><time>2026-05-02T06:31:31.684Z</time></trkpt><trkpt lat="42.4969118" lon="14.123517"><ele>15.200000000000001</ele><time>2026-05-02T06:31:32.688Z</time></trkpt><trkpt lat="42.4968383" lon="14.1236208"><ele>15.600000000000001</ele><time>2026-05-02T06:31:33.69Z</time></trkpt><trkpt lat="42.4967699" lon="14.1236953"><ele>16.0</ele><time>2026-05-02T06:31:34.696Z</time></trkpt><trkpt lat="42.4966942" lon="14.1237666"><ele>16.0</ele><time>2026-05-02T06:31:35.682Z</time></trkpt><trkpt lat="42.4966065" lon="14.1238456"><ele>16.0</ele><time>2026-05-02T06:31:36.692Z</time></trkpt><trkpt lat="42.4965072" lon="14.123937"><ele>16.0</ele><time>2026-05-02T06:31:37.674Z</time></trkpt><trkpt lat="42.4964021" lon="14.1240344"><ele>16.0</ele><time>2026-05-02T06:31:38.685Z</time></trkpt><trkpt lat="42.4962902" lon="14.1241319"><ele>15.8</ele><time>2026-05-02T06:31:39.684Z</time></trkpt><trkpt lat="42.4961994" lon="14.1242272"><ele>15.600000000000001</ele><time>2026-05-02T06:31:40.678Z</time></trkpt><trkpt lat="42.4961203" lon="14.1243194"><ele>15.4</ele><time>2026-05-02T06:31:41.695Z</time></trkpt><trkpt lat="42.4960463" lon="14.1243927"><ele>15.2</ele><time>2026-05-02T06:31:42.686Z</time></trkpt><trkpt lat="42.4959705" lon="14.1244418"><ele>15.0</ele><time>2026-05-02T06:31:43.673Z</time></trkpt><trkpt lat="42.49589" lon="14.1244854"><ele>15.0</ele><time>2026-05-02T06:31:44.683Z</time></trkpt><trkpt lat="42.4958151" lon="14.1245326"><ele>15.0</ele><time>2026-05-02T06:31:45.682Z</time></trkpt><trkpt lat="42.4957095" lon="14.1245658"><ele>15.0</ele><time>2026-05-02T06:31:46.683Z</time></trkpt><trkpt lat="42.4956024" lon="14.1245795"><ele>15.0</ele><time>2026-05-02T06:31:47.682Z</time></trkpt><trkpt lat="42.4954771" lon="14.1245723"><ele>15.0</ele><time>2026-05-02T06:31:48.682Z</time></trkpt><trkpt lat="42.4953483" lon="14.1245641"><ele>15.5</ele><time>2026-05-02T06:31:49.668Z</time></trkpt><trkpt lat="42.495213" lon="14.124562"><ele>16.0</ele><time>2026-05-02T06:31:50.683Z</time></trkpt><trkpt lat="42.4950792" lon="14.1245592"><ele>16.5</ele><time>2026-05-02T06:31:51.677Z</time></trkpt><trkpt lat="42.4949481" lon="14.1245713"><ele>17.0</ele><time>2026-05-02T06:31:52.673Z</time></trkpt><trkpt lat="42.4948388" lon="14.1245773"><ele>17.0</ele><time>2026-05-02T06:31:53.684Z</time></trkpt><trkpt lat="42.4947568" lon="14.1245785"><ele>17.0</ele><time>2026-05-02T06:31:54.68Z</time></trkpt><trkpt lat="42.4946831" lon="14.1245674"><ele>17.0</ele><time>2026-05-02T06:31:55.694Z</time></trkpt><trkpt lat="42.494618" lon="14.1245607"><ele>17.0</ele><time>2026-05-02T06:31:56.679Z</time></trkpt><trkpt lat="42.4944963" lon="14.1245594"><ele>17.0</ele><time>2026-05-02T06:31:58.687Z</time></trkpt><trkpt lat="42.4943966" lon="14.1245915"><ele>17.0</ele><time>2026-05-02T06:32:00.681Z</time></trkpt><trkpt lat="42.4943015" lon="14.1247265"><ele>17.2</ele><time>2026-05-02T06:32:02.673Z</time></trkpt><trkpt lat="42.4942423" lon="14.1248063"><ele>17.4</ele><time>2026-05-02T06:32:03.687Z</time></trkpt><trkpt lat="42.4941742" lon="14.1248892"><ele>17.6</ele><time>2026-05-02T06:32:04.677Z</time></trkpt><trkpt lat="42.4940956" lon="14.1249849"><ele>17.8</ele><time>2026-05-02T06:32:05.673Z</time></trkpt><trkpt lat="42.4940336" lon="14.1250979"><ele>18.0</ele><time>2026-05-02T06:32:06.676Z</time></trkpt><trkpt lat="42.493981" lon="14.1252001"><ele>18.0</ele><time>2026-05-02T06:32:07.69Z</time></trkpt><trkpt lat="42.4939204" lon="14.1253038"><ele>18.0</ele><time>2026-05-02T06:32:09.676Z</time></trkpt><trkpt lat="42.4938499" lon="14.1253207"><ele>18.0</ele><time>2026-05-02T06:32:11.68Z</time></trkpt><trkpt lat="42.4937307" lon="14.125232"><ele>18.0</ele><time>2026-05-02T06:32:13.7Z</time></trkpt><trkpt lat="42.493655" lon="14.12515"><ele>18.0</ele><time>2026-05-02T06:32:14.676Z</time></trkpt><trkpt lat="42.4935662" lon="14.1250775"><ele>18.25</ele><time>2026-05-02T06:32:15.684Z</time></trkpt><trkpt lat="42.4934554" lon="14.1249924"><ele>18.5</ele><time>2026-05-02T06:32:16.666Z</time></trkpt><trkpt lat="42.4933499" lon="14.1249065"><ele>18.75</ele><time>2026-05-02T06:32:17.67Z</time></trkpt><trkpt lat="42.4932476" lon="14.1248287"><ele>19.0</ele><time>2026-05-02T06:32:18.692Z</time></trkpt><trkpt lat="42.4931495" lon="14.1247504"><ele>19.0</ele><time>2026-05-02T06:32:19.684Z</time></trkpt><trkpt lat="42.4930561" lon="14.1246655"><ele>19.0</ele><time>2026-05-02T06:32:20.671Z</time></trkpt><trkpt lat="42.4929493" lon="14.1245841"><ele>19.0</ele><time>2026-05-02T06:32:21.678Z</time></trkpt><trkpt lat="42.4928384" lon="14.124494"><ele>19.0</ele><time>2026-05-02T06:32:22.68Z</time></trkpt><trkpt lat="42.4927359" lon="14.1244066"><ele>19.0</ele><time>2026-05-02T06:32:23.677Z</time></trkpt><trkpt lat="42.4926272" lon="14.1243183"><ele>19.0</ele><time>2026-05-02T06:32:24.674Z</time></trkpt><trkpt lat="42.4925224" lon="14.1242227"><ele>19.0</ele><time>2026-05-02T06:32:25.679Z</time></trkpt><trkpt lat="42.4924067" lon="14.1241283"><ele>19.0</ele><time>2026-05-02T06:32:26.668Z</time></trkpt><trkpt lat="42.4922888" lon="14.1240343"><ele>19.0</ele><time>2026-05-02T06:32:27.666Z</time></trkpt><trkpt lat="42.4921655" lon="14.1239307"><ele>19.0</ele><time>2026-05-02T06:32:28.668Z</time></trkpt><trkpt lat="42.4920324" lon="14.1238275"><ele>19.0</ele><time>2026-05-02T06:32:29.671Z</time></trkpt><trkpt lat="42.4919011" lon="14.1237281"><ele>19.0</ele><time>2026-05-02T06:32:30.667Z</time></trkpt><trkpt lat="42.4917791" lon="14.1236267"><ele>18.75</ele><time>2026-05-02T06:32:31.671Z</time></trkpt><trkpt lat="42.491663" lon="14.123526"><ele>18.5</ele><time>2026-05-02T06:32:32.673Z</time></trkpt><trkpt lat="42.4915422" lon="14.1234294"><ele>18.25</ele><time>2026-05-02T06:32:33.682Z</time></trkpt><trkpt lat="42.4914212" lon="14.1233293"><ele>18.0</ele><time>2026-05-02T06:32:34.674Z</time></trkpt><trkpt lat="42.4913049" lon="14.1232238"><ele>19.25</ele><time>2026-05-02T06:32:35.684Z</time></trkpt><trkpt lat="42.4911871" lon="14.1231212"><ele>20.5</ele><time>2026-05-02T06:32:36.68Z</time></trkpt><trkpt lat="42.4910746" lon="14.1230231"><ele>21.75</ele><time>2026-05-02T06:32:37.677Z</time></trkpt><trkpt lat="42.4909561" lon="14.1229303"><ele>23.0</ele><time>2026-05-02T06:32:38.677Z</time></trkpt><trkpt lat="42.490848" lon="14.1228526"><ele>23.0</ele><time>2026-05-02T06:32:39.681Z</time></trkpt><trkpt lat="42.4907415" lon="14.1227754"><ele>23.0</ele><time>2026-05-02T06:32:40.677Z</time></trkpt><trkpt lat="42.4906341" lon="14.1226941"><ele>23.0</ele><time>2026-05-02T06:32:41.672Z</time></trkpt><trkpt lat="42.4905254" lon="14.1226089"><ele>23.0</ele><time>2026-05-02T06:32:42.674Z</time></trkpt><trkpt lat="42.4904133" lon="14.1225256"><ele>23.0</ele><time>2026-05-02T06:32:43.681Z</time></trkpt><trkpt lat="42.4903023" lon="14.1224376"><ele>23.0</ele><time>2026-05-02T06:32:44.672Z</time></trkpt><trkpt lat="42.4901971" lon="14.1223506"><ele>23.0</ele><time>2026-05-02T06:32:45.68Z</time></trkpt><trkpt lat="42.4900928" lon="14.12226"><ele>23.0</ele><time>2026-05-02T06:32:46.68Z</time></trkpt><trkpt lat="42.4899908" lon="14.1221664"><ele>22.75</ele><time>2026-05-02T06:32:47.674Z</time></trkpt><trkpt lat="42.4898901" lon="14.1220792"><ele>22.5</ele><time>2026-05-02T06:32:48.671Z</time></trkpt><trkpt lat="42.4897868" lon="14.1219975"><ele>22.25</ele><time>2026-05-02T06:32:49.678Z</time></trkpt><trkpt lat="42.4896778" lon="14.1219204"><ele>22.0</ele><time>2026-05-02T06:32:50.671Z</time></trkpt><trkpt lat="42.4895659" lon="14.1218414"><ele>22.25</ele><time>2026-05-02T06:32:51.677Z</time></trkpt><trkpt lat="42.4894613" lon="14.1217561"><ele>22.5</ele><time>2026-05-02T06:32:52.677Z</time></trkpt><trkpt lat="42.4893543" lon="14.1216659"><ele>22.75</ele><time>2026-05-02T06:32:53.669Z</time></trkpt><trkpt lat="42.4892512" lon="14.1215897"><ele>23.0</ele><time>2026-05-02T06:32:54.673Z</time></trkpt><trkpt lat="42.4891429" lon="14.1215037"><ele>23.0</ele><time>2026-05-02T06:32:55.675Z</time></trkpt><trkpt lat="42.4890317" lon="14.1214179"><ele>23.0</ele><time>2026-05-02T06:32:56.673Z</time></trkpt><trkpt lat="42.4889193" lon="14.1213191"><ele>23.0</ele><time>2026-05-02T06:32:57.674Z</time></trkpt><trkpt lat="42.4887979" lon="14.1212221"><ele>23.0</ele><time>2026-05-02T06:32:58.679Z</time></trkpt><trkpt lat="42.4886805" lon="14.1211305"><ele>23.5</ele><time>2026-05-02T06:32:59.682Z</time></trkpt><trkpt lat="42.4885717" lon="14.1210413"><ele>24.0</ele><time>2026-05-02T06:33:00.671Z</time></trkpt><trkpt lat="42.488472" lon="14.1209515"><ele>24.5</ele><time>2026-05-02T06:33:01.672Z</time></trkpt><trkpt lat="42.4883651" lon="14.1208666"><ele>25.0</ele><time>2026-05-02T06:33:02.682Z</time></trkpt><trkpt lat="42.4882596" lon="14.1207791"><ele>24.75</ele><time>2026-05-02T06:33:03.677Z</time></trkpt><trkpt lat="42.4881472" lon="14.1206925"><ele>24.5</ele><time>2026-05-02T06:33:04.668Z</time></trkpt><trkpt lat="42.488038" lon="14.1206083"><ele>24.25</ele><time>2026-05-02T06:33:05.673Z</time></trkpt><trkpt lat="42.4879309" lon="14.1205242"><ele>24.0</ele><time>2026-05-02T06:33:06.679Z</time></trkpt><trkpt lat="42.487834" lon="14.1204412"><ele>24.5</ele><time>2026-05-02T06:33:07.669Z</time></trkpt><trkpt lat="42.4877419" lon="14.1203626"><ele>25.0</ele><time>2026-05-02T06:33:08.673Z</time></trkpt><trkpt lat="42.4876406" lon="14.1202796"><ele>25.5</ele><time>2026-05-02T06:33:09.678Z</time></trkpt><trkpt lat="42.4875416" lon="14.1201975"><ele>26.0</ele><time>2026-05-02T06:33:10.676Z</time></trkpt><trkpt lat="42.4874401" lon="14.1201189"><ele>26.0</ele><time>2026-05-02T06:33:11.666Z</time></trkpt><trkpt lat="42.487347" lon="14.1200466"><ele>26.0</ele><time>2026-05-02T06:33:12.673Z</time></trkpt><trkpt lat="42.4872477" lon="14.1199659"><ele>26.0</ele><time>2026-05-02T06:33:13.668Z</time></trkpt><trkpt lat="42.4871502" lon="14.1198811"><ele>26.0</ele><time>2026-05-02T06:33:14.673Z</time></trkpt><trkpt lat="42.4870564" lon="14.1198067"><ele>26.0</ele><time>2026-05-02T06:33:15.685Z</time></trkpt><trkpt lat="42.4869626" lon="14.1197308"><ele>26.0</ele><time>2026-05-02T06:33:16.683Z</time></trkpt><trkpt lat="42.4868782" lon="14.1196515"><ele>26.0</ele><time>2026-05-02T06:33:17.666Z</time></trkpt><trkpt lat="42.4867837" lon="14.1195757"><ele>26.0</ele><time>2026-05-02T06:33:18.671Z</time></trkpt><trkpt lat="42.4866812" lon="14.1194963"><ele>26.0</ele><time>2026-05-02T06:33:19.68Z</time></trkpt><trkpt lat="42.4865808" lon="14.119417"><ele>26.0</ele><time>2026-05-02T06:33:20.666Z</time></trkpt><trkpt lat="42.4864748" lon="14.119333"><ele>26.0</ele><time>2026-05-02T06:33:21.681Z</time></trkpt><trkpt lat="42.4863683" lon="14.1192411"><ele>26.0</ele><time>2026-05-02T06:33:22.67Z</time></trkpt><trkpt lat="42.4862594" lon="14.1191571"><ele>26.0</ele><time>2026-05-02T06:33:23.683Z</time></trkpt><trkpt lat="42.4861604" lon="14.119073"><ele>26.0</ele><time>2026-05-02T06:33:24.682Z</time></trkpt><trkpt lat="42.4860627" lon="14.1189887"><ele>25.75</ele><time>2026-05-02T06:33:25.696Z</time></trkpt><trkpt lat="42.4859606" lon="14.1189097"><ele>25.5</ele><time>2026-05-02T06:33:26.679Z</time></trkpt><trkpt lat="42.4858563" lon="14.1188266"><ele>25.25</ele><time>2026-05-02T06:33:27.673Z</time></trkpt><trkpt lat="42.4857497" lon="14.1187363"><ele>25.0</ele><time>2026-05-02T06:33:28.689Z</time></trkpt><trkpt lat="42.4856311" lon="14.1186352"><ele>25.0</ele><time>2026-05-02T06:33:29.679Z</time></trkpt><trkpt lat="42.4854907" lon="14.1185376"><ele>25.0</ele><time>2026-05-02T06:33:30.677Z</time></trkpt><trkpt lat="42.4853591" lon="14.1184247"><ele>25.0</ele><time>2026-05-02T06:33:31.699Z</time></trkpt><trkpt lat="42.4852355" lon="14.1183179"><ele>25.5</ele><time>2026-05-02T06:33:32.685Z</time></trkpt><trkpt lat="42.4851149" lon="14.1182233"><ele>26.0</ele><time>2026-05-02T06:33:33.691Z</time></trkpt><trkpt lat="42.4850128" lon="14.1181391"><ele>26.5</ele><time>2026-05-02T06:33:34.687Z</time></trkpt><trkpt lat="42.4849162" lon="14.1180654"><ele>27.0</ele><time>2026-05-02T06:33:35.691Z</time></trkpt><trkpt lat="42.4848292" lon="14.1179952"><ele>27.0</ele><time>2026-05-02T06:33:36.683Z</time></trkpt><trkpt lat="42.4847513" lon="14.1179404"><ele>27.0</ele><time>2026-05-02T06:33:37.681Z</time></trkpt><trkpt lat="42.4846867" lon="14.1178757"><ele>27.0</ele><time>2026-05-02T06:33:38.689Z</time></trkpt><trkpt lat="42.4846318" lon="14.1178302"><ele>27.0</ele><time>2026-05-02T06:33:39.684Z</time></trkpt><trkpt lat="42.4845663" lon="14.1177772"><ele>27.0</ele><time>2026-05-02T06:33:41.679Z</time></trkpt><trkpt lat="42.4844971" lon="14.1177223"><ele>27.0</ele><time>2026-05-02T06:33:43.679Z</time></trkpt><trkpt lat="42.4844022" lon="14.1176356"><ele>27.0</ele><time>2026-05-02T06:33:45.694Z</time></trkpt><trkpt lat="42.4843413" lon="14.1175953"><ele>27.0</ele><time>2026-05-02T06:33:46.704Z</time></trkpt><trkpt lat="42.4842842" lon="14.1175579"><ele>27.0</ele><time>2026-05-02T06:33:47.678Z</time></trkpt><trkpt lat="42.4842216" lon="14.1175063"><ele>27.0</ele><time>2026-05-02T06:33:48.676Z</time></trkpt><trkpt lat="42.484154" lon="14.1174478"><ele>27.0</ele><time>2026-05-02T06:33:49.687Z</time></trkpt><trkpt lat="42.4840815" lon="14.1173889"><ele>27.0</ele><time>2026-05-02T06:33:50.681Z</time></trkpt><trkpt lat="42.484009" lon="14.1173275"><ele>27.0</ele><time>2026-05-02T06:33:51.681Z</time></trkpt><trkpt lat="42.4839395" lon="14.1172634"><ele>27.0</ele><time>2026-05-02T06:33:52.692Z</time></trkpt><trkpt lat="42.483879" lon="14.1172117"><ele>27.0</ele><time>2026-05-02T06:33:53.677Z</time></trkpt><trkpt lat="42.4838217" lon="14.1171762"><ele>27.0</ele><time>2026-05-02T06:33:54.672Z</time></trkpt><trkpt lat="42.4837124" lon="14.1170983"><ele>27.0</ele><time>2026-05-02T06:33:56.672Z</time></trkpt><trkpt lat="42.4836489" lon="14.1170441"><ele>27.0</ele><time>2026-05-02T06:33:57.687Z</time></trkpt><trkpt lat="42.4835819" lon="14.1169852"><ele>27.6</ele><time>2026-05-02T06:33:58.675Z</time></trkpt><trkpt lat="42.4835095" lon="14.1169175"><ele>28.200000000000003</ele><time>2026-05-02T06:33:59.675Z</time></trkpt><trkpt lat="42.4834286" lon="14.1168539"><ele>28.8</ele><time>2026-05-02T06:34:00.683Z</time></trkpt><trkpt lat="42.4833448" lon="14.1167826"><ele>29.4</ele><time>2026-05-02T06:34:01.673Z</time></trkpt><trkpt lat="42.4832581" lon="14.1167156"><ele>30.0</ele><time>2026-05-02T06:34:02.688Z</time></trkpt><trkpt lat="42.4831672" lon="14.1166471"><ele>30.0</ele><time>2026-05-02T06:34:03.676Z</time></trkpt><trkpt lat="42.4830726" lon="14.116579"><ele>30.0</ele><time>2026-05-02T06:34:04.673Z</time></trkpt><trkpt lat="42.4829825" lon="14.1165072"><ele>30.0</ele><time>2026-05-02T06:34:05.685Z</time></trkpt><trkpt lat="42.482894" lon="14.1164394"><ele>30.0</ele><time>2026-05-02T06:34:06.673Z</time></trkpt><trkpt lat="42.4828101" lon="14.116369"><ele>30.0</ele><time>2026-05-02T06:34:07.679Z</time></trkpt><trkpt lat="42.4827283" lon="14.1162927"><ele>29.8</ele><time>2026-05-02T06:34:08.688Z</time></trkpt><trkpt lat="42.482641" lon="14.11622"><ele>29.6</ele><time>2026-05-02T06:34:09.687Z</time></trkpt><trkpt lat="42.4825527" lon="14.1161427"><ele>29.4</ele><time>2026-05-02T06:34:10.7Z</time></trkpt><trkpt lat="42.4824558" lon="14.1160679"><ele>29.2</ele><time>2026-05-02T06:34:11.695Z</time></trkpt><trkpt lat="42.4823549" lon="14.1159932"><ele>29.0</ele><time>2026-05-02T06:34:12.681Z</time></trkpt><trkpt lat="42.4822529" lon="14.115917"><ele>29.0</ele><time>2026-05-02T06:34:13.67Z</time></trkpt><trkpt lat="42.482153" lon="14.1158317"><ele>29.0</ele><time>2026-05-02T06:34:14.677Z</time></trkpt><trkpt lat="42.4820504" lon="14.1157501"><ele>29.0</ele><time>2026-05-02T06:34:15.683Z</time></trkpt><trkpt lat="42.4819365" lon="14.1156526"><ele>29.0</ele><time>2026-05-02T06:34:16.676Z</time></trkpt><trkpt lat="42.481821" lon="14.1155648"><ele>30.0</ele><time>2026-05-02T06:34:17.689Z</time></trkpt><trkpt lat="42.4817038" lon="14.1154722"><ele>31.0</ele><time>2026-05-02T06:34:18.675Z</time></trkpt><trkpt lat="42.4815797" lon="14.1153774"><ele>32.0</ele><time>2026-05-02T06:34:19.677Z</time></trkpt><trkpt lat="42.4814584" lon="14.1152722"><ele>33.0</ele><time>2026-05-02T06:34:20.685Z</time></trkpt><trkpt lat="42.4813304" lon="14.115163"><ele>33.0</ele><time>2026-05-02T06:34:21.665Z</time></trkpt><trkpt lat="42.4812027" lon="14.1150451"><ele>33.0</ele><time>2026-05-02T06:34:22.69Z</time></trkpt><trkpt lat="42.481062" lon="14.1149338"><ele>33.0</ele><time>2026-05-02T06:34:23.684Z</time></trkpt><trkpt lat="42.4809251" lon="14.1148213"><ele>32.25</ele><time>2026-05-02T06:34:24.675Z</time></trkpt><trkpt lat="42.4807951" lon="14.1147113"><ele>31.5</ele><time>2026-05-02T06:34:25.685Z</time></trkpt><trkpt lat="42.4806731" lon="14.1146141"><ele>30.75</ele><time>2026-05-02T06:34:26.681Z</time></trkpt><trkpt lat="42.4805593" lon="14.1145157"><ele>30.0</ele><time>2026-05-02T06:34:27.675Z</time></trkpt><trkpt lat="42.4804552" lon="14.1144323"><ele>30.0</ele><time>2026-05-02T06:34:28.683Z</time></trkpt><trkpt lat="42.4803528" lon="14.1143421"><ele>30.0</ele><time>2026-05-02T06:34:29.675Z</time></trkpt><trkpt lat="42.4802467" lon="14.1142567"><ele>30.0</ele><time>2026-05-02T06:34:30.674Z</time></trkpt><trkpt lat="42.480135" lon="14.1141682"><ele>30.0</ele><time>2026-05-02T06:34:31.686Z</time></trkpt><trkpt lat="42.4800203" lon="14.1140848"><ele>29.75</ele><time>2026-05-02T06:34:32.676Z</time></trkpt><trkpt lat="42.4799073" lon="14.1139959"><ele>29.5</ele><time>2026-05-02T06:34:33.678Z</time></trkpt><trkpt lat="42.4797913" lon="14.1139094"><ele>29.25</ele><time>2026-05-02T06:34:34.665Z</time></trkpt><trkpt lat="42.4796819" lon="14.1138138"><ele>29.0</ele><time>2026-05-02T06:34:35.675Z</time></trkpt><trkpt lat="42.4795666" lon="14.113718"><ele>29.75</ele><time>2026-05-02T06:34:36.672Z</time></trkpt><trkpt lat="42.479453" lon="14.1136275"><ele>30.5</ele><time>2026-05-02T06:34:37.663Z</time></trkpt><trkpt lat="42.4793499" lon="14.113538"><ele>31.25</ele><time>2026-05-02T06:34:38.673Z</time></trkpt><trkpt lat="42.4792575" lon="14.1134598"><ele>32.0</ele><time>2026-05-02T06:34:39.679Z</time></trkpt><trkpt lat="42.4791638" lon="14.1133804"><ele>32.0</ele><time>2026-05-02T06:34:40.673Z</time></trkpt><trkpt lat="42.4790753" lon="14.113309"><ele>32.0</ele><time>2026-05-02T06:34:41.666Z</time></trkpt><trkpt lat="42.4789832" lon="14.1132344"><ele>32.0</ele><time>2026-05-02T06:34:42.681Z</time></trkpt><trkpt lat="42.4788997" lon="14.1131608"><ele>32.0</ele><time>2026-05-02T06:34:43.669Z</time></trkpt><trkpt lat="42.4788149" lon="14.1130902"><ele>32.0</ele><time>2026-05-02T06:34:44.669Z</time></trkpt><trkpt lat="42.4787279" lon="14.1130237"><ele>32.2</ele><time>2026-05-02T06:34:45.675Z</time></trkpt><trkpt lat="42.4786514" lon="14.1129543"><ele>32.400000000000006</ele><time>2026-05-02T06:34:46.674Z</time></trkpt><trkpt lat="42.4785758" lon="14.1128871"><ele>32.599999999999994</ele><time>2026-05-02T06:34:47.677Z</time></trkpt><trkpt lat="42.4784997" lon="14.1128267"><ele>32.8</ele><time>2026-05-02T06:34:48.676Z</time></trkpt><trkpt lat="42.4784216" lon="14.112772"><ele>33.0</ele><time>2026-05-02T06:34:49.682Z</time></trkpt><trkpt lat="42.4783419" lon="14.1127072"><ele>33.0</ele><time>2026-05-02T06:34:50.674Z</time></trkpt><trkpt lat="42.4782583" lon="14.1126391"><ele>33.0</ele><time>2026-05-02T06:34:51.68Z</time></trkpt><trkpt lat="42.4781688" lon="14.112569"><ele>33.0</ele><time>2026-05-02T06:34:52.687Z</time></trkpt><trkpt lat="42.478078" lon="14.112501"><ele>33.0</ele><time>2026-05-02T06:34:53.684Z</time></trkpt><trkpt lat="42.4779892" lon="14.1124292"><ele>33.0</ele><time>2026-05-02T06:34:54.701Z</time></trkpt><trkpt lat="42.4778897" lon="14.1123512"><ele>33.5</ele><time>2026-05-02T06:34:55.673Z</time></trkpt><trkpt lat="42.4778" lon="14.1122683"><ele>34.0</ele><time>2026-05-02T06:34:56.696Z</time></trkpt><trkpt lat="42.4776959" lon="14.1121842"><ele>34.5</ele><time>2026-05-02T06:34:57.679Z</time></trkpt><trkpt lat="42.4775979" lon="14.1121092"><ele>35.0</ele><time>2026-05-02T06:34:58.671Z</time></trkpt><trkpt lat="42.477497" lon="14.1120403"><ele>35.0</ele><time>2026-05-02T06:34:59.676Z</time></trkpt><trkpt lat="42.4774052" lon="14.1119593"><ele>35.0</ele><time>2026-05-02T06:35:00.686Z</time></trkpt><trkpt lat="42.4773064" lon="14.1118868"><ele>35.0</ele><time>2026-05-02T06:35:01.687Z</time></trkpt><trkpt lat="42.4772129" lon="14.1118122"><ele>35.0</ele><time>2026-05-02T06:35:02.686Z</time></trkpt><trkpt lat="42.4771181" lon="14.1117381"><ele>35.0</ele><time>2026-05-02T06:35:03.684Z</time></trkpt><trkpt lat="42.4770281" lon="14.1116764"><ele>35.0</ele><time>2026-05-02T06:35:04.688Z</time></trkpt><trkpt lat="42.4769319" lon="14.111606"><ele>35.0</ele><time>2026-05-02T06:35:05.696Z</time></trkpt><trkpt lat="42.4768393" lon="14.1115245"><ele>35.0</ele><time>2026-05-02T06:35:06.672Z</time></trkpt><trkpt lat="42.4767567" lon="14.1114537"><ele>35.0</ele><time>2026-05-02T06:35:07.681Z</time></trkpt><trkpt lat="42.4766811" lon="14.1113803"><ele>35.0</ele><time>2026-05-02T06:35:08.684Z</time></trkpt><trkpt lat="42.4765992" lon="14.1113125"><ele>35.0</ele><time>2026-05-02T06:35:09.68Z</time></trkpt><trkpt lat="42.4765176" lon="14.1112472"><ele>35.0</ele><time>2026-05-02T06:35:10.678Z</time></trkpt><trkpt lat="42.476444" lon="14.1111844"><ele>35.0</ele><time>2026-05-02T06:35:11.671Z</time></trkpt><trkpt lat="42.4763816" lon="14.1111131"><ele>35.0</ele><time>2026-05-02T06:35:12.684Z</time></trkpt><trkpt lat="42.476345" lon="14.1110361"><ele>35.0</ele><time>2026-05-02T06:35:13.679Z</time></trkpt><trkpt lat="42.4763229" lon="14.1109459"><ele>35.0</ele><time>2026-05-02T06:35:14.681Z</time></trkpt><trkpt lat="42.4763072" lon="14.1108508"><ele>35.0</ele><time>2026-05-02T06:35:15.68Z</time></trkpt><trkpt lat="42.476298" lon="14.1107498"><ele>35.0</ele><time>2026-05-02T06:35:16.682Z</time></trkpt><trkpt lat="42.4762202" lon="14.1106415"><ele>35.0</ele><time>2026-05-02T06:35:18.684Z</time></trkpt><trkpt lat="42.4761422" lon="14.1106458"><ele>35.0</ele><time>2026-05-02T06:35:19.685Z</time></trkpt><trkpt lat="42.476058" lon="14.1106705"><ele>35.0</ele><time>2026-05-02T06:35:20.673Z</time></trkpt><trkpt lat="42.4759628" lon="14.1107127"><ele>35.4</ele><time>2026-05-02T06:35:21.681Z</time></trkpt><trkpt lat="42.4758643" lon="14.1107109"><ele>35.8</ele><time>2026-05-02T06:35:22.676Z</time></trkpt><trkpt lat="42.4757631" lon="14.1106647"><ele>36.2</ele><time>2026-05-02T06:35:23.68Z</time></trkpt><trkpt lat="42.4756565" lon="14.1105972"><ele>36.6</ele><time>2026-05-02T06:35:24.68Z</time></trkpt><trkpt lat="42.4755383" lon="14.1105379"><ele>37.0</ele><time>2026-05-02T06:35:25.683Z</time></trkpt><trkpt lat="42.4754191" lon="14.1104831"><ele>38.75</ele><time>2026-05-02T06:35:26.679Z</time></trkpt><trkpt lat="42.4752768" lon="14.1104805"><ele>40.5</ele><time>2026-05-02T06:35:27.678Z</time></trkpt><trkpt lat="42.4751377" lon="14.1105118"><ele>42.25</ele><time>2026-05-02T06:35:28.689Z</time></trkpt><trkpt lat="42.4749883" lon="14.1105422"><ele>44.0</ele><time>2026-05-02T06:35:29.69Z</time></trkpt><trkpt lat="42.474847" lon="14.1105497"><ele>44.0</ele><time>2026-05-02T06:35:30.677Z</time></trkpt><trkpt lat="42.4747062" lon="14.1105313"><ele>44.0</ele><time>2026-05-02T06:35:31.691Z</time></trkpt><trkpt lat="42.4745568" lon="14.1104944"><ele>44.0</ele><time>2026-05-02T06:35:32.673Z</time></trkpt><trkpt lat="42.4743995" lon="14.1104256"><ele>46.666666666666664</ele><time>2026-05-02T06:35:33.67Z</time></trkpt><trkpt lat="42.4742386" lon="14.1103506"><ele>49.33333333333333</ele><time>2026-05-02T06:35:34.676Z</time></trkpt><trkpt lat="42.4740683" lon="14.1102704"><ele>52.0</ele><time>2026-05-02T06:35:35.679Z</time></trkpt><trkpt lat="42.4738955" lon="14.1101906"><ele>53.33333333333333</ele><time>2026-05-02T06:35:36.665Z</time></trkpt><trkpt lat="42.473722" lon="14.1101064"><ele>54.66666666666667</ele><time>2026-05-02T06:35:37.665Z</time></trkpt><trkpt lat="42.4735436" lon="14.1100249"><ele>56.0</ele><time>2026-05-02T06:35:38.673Z</time></trkpt><trkpt lat="42.4733719" lon="14.1099404"><ele>59.66666666666667</ele><time>2026-05-02T06:35:39.692Z</time></trkpt><trkpt lat="42.4732064" lon="14.1098656"><ele>63.33333333333333</ele><time>2026-05-02T06:35:40.684Z</time></trkpt><trkpt lat="42.4730223" lon="14.1097743"><ele>67.0</ele><time>2026-05-02T06:35:41.679Z</time></trkpt><trkpt lat="42.472825" lon="14.1096643"><ele>67.0</ele><time>2026-05-02T06:35:42.679Z</time></trkpt><trkpt lat="42.4726245" lon="14.109573"><ele>67.0</ele><time>2026-05-02T06:35:43.681Z</time></trkpt><trkpt lat="42.4724393" lon="14.109518"><ele>67.0</ele><time>2026-05-02T06:35:44.679Z</time></trkpt><trkpt lat="42.4722765" lon="14.1094807"><ele>67.0</ele><time>2026-05-02T06:35:45.673Z</time></trkpt><trkpt lat="42.4721219" lon="14.1094303"><ele>67.0</ele><time>2026-05-02T06:35:46.686Z</time></trkpt><trkpt lat="42.4719675" lon="14.1093655"><ele>67.0</ele><time>2026-05-02T06:35:47.686Z</time></trkpt><trkpt lat="42.4718267" lon="14.109281"><ele>65.66666666666666</ele><time>2026-05-02T06:35:48.683Z</time></trkpt><trkpt lat="42.4716879" lon="14.109175"><ele>64.33333333333333</ele><time>2026-05-02T06:35:49.686Z</time></trkpt><trkpt lat="42.4715484" lon="14.109047"><ele>63.0</ele><time>2026-05-02T06:35:50.675Z</time></trkpt><trkpt lat="42.4714118" lon="14.1088962"><ele>64.0</ele><time>2026-05-02T06:35:51.672Z</time></trkpt><trkpt lat="42.4712758" lon="14.1087228"><ele>65.0</ele><time>2026-05-02T06:35:52.682Z</time></trkpt><trkpt lat="42.4711469" lon="14.1085348"><ele>66.0</ele><time>2026-05-02T06:35:53.674Z</time></trkpt><trkpt lat="42.4710238" lon="14.108338"><ele>70.0</ele><time>2026-05-02T06:35:54.679Z</time></trkpt><trkpt lat="42.4709063" lon="14.1081459"><ele>74.0</ele><time>2026-05-02T06:35:55.679Z</time></trkpt><trkpt lat="42.4707982" lon="14.1079422"><ele>78.0</ele><time>2026-05-02T06:35:56.693Z</time></trkpt><trkpt lat="42.4706951" lon="14.10773"><ele>78.0</ele><time>2026-05-02T06:35:57.673Z</time></trkpt><trkpt lat="42.4706057" lon="14.1075167"><ele>78.0</ele><time>2026-05-02T06:35:58.678Z</time></trkpt><trkpt lat="42.4705301" lon="14.1072909"><ele>78.0</ele><time>2026-05-02T06:35:59.669Z</time></trkpt><trkpt lat="42.4704704" lon="14.107067"><ele>76.0</ele><time>2026-05-02T06:36:00.679Z</time></trkpt><trkpt lat="42.4704122" lon="14.1068455"><ele>74.0</ele><time>2026-05-02T06:36:01.692Z</time></trkpt><trkpt lat="42.4703275" lon="14.1066424"><ele>72.0</ele><time>2026-05-02T06:36:02.682Z</time></trkpt><trkpt lat="42.4702285" lon="14.1064689"><ele>75.0</ele><time>2026-05-02T06:36:03.679Z</time></trkpt><trkpt lat="42.4701365" lon="14.1063248"><ele>78.0</ele><time>2026-05-02T06:36:04.673Z</time></trkpt><trkpt lat="42.4700487" lon="14.1062185"><ele>81.0</ele><time>2026-05-02T06:36:05.682Z</time></trkpt><trkpt lat="42.4699563" lon="14.1061376"><ele>84.0</ele><time>2026-05-02T06:36:06.685Z</time></trkpt><trkpt lat="42.4698525" lon="14.1060517"><ele>84.0</ele><time>2026-05-02T06:36:07.681Z</time></trkpt><trkpt lat="42.4697341" lon="14.105967"><ele>84.0</ele><time>2026-05-02T06:36:08.685Z</time></trkpt><trkpt lat="42.4695932" lon="14.1058753"><ele>84.0</ele><time>2026-05-02T06:36:09.681Z</time></trkpt><trkpt lat="42.4694353" lon="14.1057652"><ele>87.33333333333333</ele><time>2026-05-02T06:36:10.678Z</time></trkpt><trkpt lat="42.4692664" lon="14.1056526"><ele>90.66666666666666</ele><time>2026-05-02T06:36:11.688Z</time></trkpt><trkpt lat="42.4690973" lon="14.1055323"><ele>94.0</ele><time>2026-05-02T06:36:12.687Z</time></trkpt><trkpt lat="42.4689385" lon="14.1054136"><ele>94.66666666666666</ele><time>2026-05-02T06:36:13.682Z</time></trkpt><trkpt lat="42.468774" lon="14.1053019"><ele>95.33333333333333</ele><time>2026-05-02T06:36:14.686Z</time></trkpt><trkpt lat="42.4686043" lon="14.1052223"><ele>96.0</ele><time>2026-05-02T06:36:15.673Z</time></trkpt><trkpt lat="42.468425" lon="14.1051638"><ele>96.0</ele><time>2026-05-02T06:36:16.685Z</time></trkpt><trkpt lat="42.4682479" lon="14.1051278"><ele>96.0</ele><time>2026-05-02T06:36:17.686Z</time></trkpt><trkpt lat="42.4680769" lon="14.1050797"><ele>96.0</ele><time>2026-05-02T06:36:18.676Z</time></trkpt><trkpt lat="42.4679247" lon="14.1050313"><ele>94.0</ele><time>2026-05-02T06:36:19.701Z</time></trkpt><trkpt lat="42.4677862" lon="14.1049739"><ele>92.0</ele><time>2026-05-02T06:36:20.672Z</time></trkpt><trkpt lat="42.4676485" lon="14.1048833"><ele>90.0</ele><time>2026-05-02T06:36:21.684Z</time></trkpt><trkpt lat="42.4675195" lon="14.1047545"><ele>94.66666666666666</ele><time>2026-05-02T06:36:22.678Z</time></trkpt><trkpt lat="42.4673984" lon="14.1046242"><ele>99.33333333333333</ele><time>2026-05-02T06:36:23.679Z</time></trkpt><trkpt lat="42.4672632" lon="14.1044918"><ele>104.0</ele><time>2026-05-02T06:36:24.677Z</time></trkpt><trkpt lat="42.467121" lon="14.1043741"><ele>102.66666666666666</ele><time>2026-05-02T06:36:25.682Z</time></trkpt><trkpt lat="42.4669786" lon="14.104258"><ele>101.33333333333334</ele><time>2026-05-02T06:36:26.684Z</time></trkpt><trkpt lat="42.4668345" lon="14.1041594"><ele>100.0</ele><time>2026-05-02T06:36:27.679Z</time></trkpt><trkpt lat="42.4667198" lon="14.1040703"><ele>99.75</ele><time>2026-05-02T06:36:28.676Z</time></trkpt><trkpt lat="42.4666176" lon="14.103978"><ele>99.5</ele><time>2026-05-02T06:36:29.687Z</time></trkpt><trkpt lat="42.4665111" lon="14.1039027"><ele>99.25</ele><time>2026-05-02T06:36:30.683Z</time></trkpt><trkpt lat="42.4663947" lon="14.103843"><ele>99.0</ele><time>2026-05-02T06:36:31.678Z</time></trkpt><trkpt lat="42.4662587" lon="14.1038105"><ele>102.5</ele><time>2026-05-02T06:36:32.672Z</time></trkpt><trkpt lat="42.4661142" lon="14.1038029"><ele>106.0</ele><time>2026-05-02T06:36:33.679Z</time></trkpt><trkpt lat="42.4659717" lon="14.1038084"><ele>109.5</ele><time>2026-05-02T06:36:34.676Z</time></trkpt><trkpt lat="42.4658254" lon="14.1038154"><ele>113.0</ele><time>2026-05-02T06:36:35.682Z</time></trkpt><trkpt lat="42.4656874" lon="14.1038219"><ele>113.0</ele><time>2026-05-02T06:36:36.697Z</time></trkpt><trkpt lat="42.4655487" lon="14.1038164"><ele>113.0</ele><time>2026-05-02T06:36:37.684Z</time></trkpt><trkpt lat="42.4654087" lon="14.1037862"><ele>113.0</ele><time>2026-05-02T06:36:38.67Z</time></trkpt><trkpt lat="42.4652888" lon="14.1037437"><ele>113.0</ele><time>2026-05-02T06:36:39.683Z</time></trkpt><trkpt lat="42.4651701" lon="14.1036727"><ele>114.0</ele><time>2026-05-02T06:36:40.671Z</time></trkpt><trkpt lat="42.4650727" lon="14.1035958"><ele>115.00000000000001</ele><time>2026-05-02T06:36:41.683Z</time></trkpt><trkpt lat="42.4649787" lon="14.1035341"><ele>116.00000000000001</ele><time>2026-05-02T06:36:42.681Z</time></trkpt><trkpt lat="42.4649013" lon="14.1034618"><ele>117.0</ele><time>2026-05-02T06:36:43.676Z</time></trkpt><trkpt lat="42.464845" lon="14.1033807"><ele>118.0</ele><time>2026-05-02T06:36:44.672Z</time></trkpt><trkpt lat="42.4648014" lon="14.1033104"><ele>117.50000000000001</ele><time>2026-05-02T06:36:45.682Z</time></trkpt><trkpt lat="42.4647405" lon="14.1031848"><ele>117.0</ele><time>2026-05-02T06:36:47.684Z</time></trkpt><trkpt lat="42.4646857" lon="14.1031391"><ele>116.5</ele><time>2026-05-02T06:36:51.669Z</time></trkpt><trkpt lat="42.464571" lon="14.1030708"><ele>116.0</ele><time>2026-05-02T06:36:53.688Z</time></trkpt><trkpt lat="42.4645007" lon="14.1030407"><ele>115.50000000000001</ele><time>2026-05-02T06:36:54.698Z</time></trkpt><trkpt lat="42.4644299" lon="14.1030546"><ele>115.0</ele><time>2026-05-02T06:36:55.684Z</time></trkpt><trkpt lat="42.4643802" lon="14.1031247"><ele>115.50000000000001</ele><time>2026-05-02T06:36:56.68Z</time></trkpt><trkpt lat="42.4643651" lon="14.1032153"><ele>116.0</ele><time>2026-05-02T06:36:57.681Z</time></trkpt><trkpt lat="42.4643985" lon="14.1033034"><ele>116.5</ele><time>2026-05-02T06:36:58.69Z</time></trkpt><trkpt lat="42.4644531" lon="14.1033709"><ele>117.0</ele><time>2026-05-02T06:36:59.667Z</time></trkpt><trkpt lat="42.4645264" lon="14.1034219"><ele>117.50000000000001</ele><time>2026-05-02T06:37:00.673Z</time></trkpt><trkpt lat="42.464625" lon="14.1034704"><ele>118.0</ele><time>2026-05-02T06:37:01.675Z</time></trkpt><trkpt lat="42.4647051" lon="14.103532"><ele>118.0</ele><time>2026-05-02T06:37:02.679Z</time></trkpt><trkpt lat="42.4647663" lon="14.1036022"><ele>118.00000000000001</ele><time>2026-05-02T06:37:03.684Z</time></trkpt><trkpt lat="42.4647786" lon="14.1037515"><ele>118.00000000000001</ele><time>2026-05-02T06:37:05.68Z</time></trkpt><trkpt lat="42.4647104" lon="14.10381"><ele>118.0</ele><time>2026-05-02T06:37:06.69Z</time></trkpt><trkpt lat="42.4646118" lon="14.1038527"><ele>118.0</ele><time>2026-05-02T06:37:07.693Z</time></trkpt><trkpt lat="42.4644916" lon="14.1039074"><ele>118.5</ele><time>2026-05-02T06:37:08.667Z</time></trkpt><trkpt lat="42.4643528" lon="14.1039494"><ele>119.0</ele><time>2026-05-02T06:37:09.677Z</time></trkpt><trkpt lat="42.4642088" lon="14.1039827"><ele>119.5</ele><time>2026-05-02T06:37:10.671Z</time></trkpt><trkpt lat="42.4640524" lon="14.104002"><ele>120.0</ele><time>2026-05-02T06:37:11.668Z</time></trkpt><trkpt lat="42.4638967" lon="14.104033"><ele>121.0</ele><time>2026-05-02T06:37:12.67Z</time></trkpt><trkpt lat="42.4637484" lon="14.1040441"><ele>122.0</ele><time>2026-05-02T06:37:13.677Z</time></trkpt><trkpt lat="42.4636167" lon="14.1040588"><ele>123.0</ele><time>2026-05-02T06:37:14.677Z</time></trkpt><trkpt lat="42.463513" lon="14.1040881"><ele>124.0</ele><time>2026-05-02T06:37:15.686Z</time></trkpt><trkpt lat="42.4634276" lon="14.1041193"><ele>125.25</ele><time>2026-05-02T06:37:16.686Z</time></trkpt><trkpt lat="42.4633265" lon="14.1041685"><ele>126.5</ele><time>2026-05-02T06:37:17.683Z</time></trkpt><trkpt lat="42.4632147" lon="14.1042607"><ele>127.75</ele><time>2026-05-02T06:37:18.666Z</time></trkpt><trkpt lat="42.4630922" lon="14.1043994"><ele>129.0</ele><time>2026-05-02T06:37:19.682Z</time></trkpt><trkpt lat="42.462988" lon="14.1045232"><ele>129.4</ele><time>2026-05-02T06:37:20.681Z</time></trkpt><trkpt lat="42.4628962" lon="14.1046238"><ele>129.8</ele><time>2026-05-02T06:37:21.681Z</time></trkpt><trkpt lat="42.4628221" lon="14.1047137"><ele>130.2</ele><time>2026-05-02T06:37:22.671Z</time></trkpt><trkpt lat="42.46274" lon="14.1047883"><ele>130.6</ele><time>2026-05-02T06:37:23.676Z</time></trkpt><trkpt lat="42.4626555" lon="14.1048018"><ele>131.0</ele><time>2026-05-02T06:37:24.682Z</time></trkpt><trkpt lat="42.4625948" lon="14.1047634"><ele>131.0</ele><time>2026-05-02T06:37:25.677Z</time></trkpt><trkpt lat="42.4625426" lon="14.104702"><ele>131.0</ele><time>2026-05-02T06:37:26.68Z</time></trkpt><trkpt lat="42.4624412" lon="14.1047578"><ele>131.0</ele><time>2026-05-02T06:37:28.689Z</time></trkpt><trkpt lat="42.4624312" lon="14.1049088"><ele>131.0</ele><time>2026-05-02T06:37:30.666Z</time></trkpt><trkpt lat="42.4624351" lon="14.1050466"><ele>131.0</ele><time>2026-05-02T06:37:32.684Z</time></trkpt><trkpt lat="42.4624018" lon="14.1051263"><ele>131.5</ele><time>2026-05-02T06:37:33.669Z</time></trkpt><trkpt lat="42.4623382" lon="14.1052185"><ele>132.0</ele><time>2026-05-02T06:37:34.688Z</time></trkpt><trkpt lat="42.4622257" lon="14.1053282"><ele>132.5</ele><time>2026-05-02T06:37:35.669Z</time></trkpt><trkpt lat="42.4621015" lon="14.1054688"><ele>133.0</ele><time>2026-05-02T06:37:36.679Z</time></trkpt><trkpt lat="42.4619264" lon="14.1056307"><ele>135.0</ele><time>2026-05-02T06:37:37.672Z</time></trkpt><trkpt lat="42.4617444" lon="14.1057866"><ele>137.0</ele><time>2026-05-02T06:37:38.679Z</time></trkpt><trkpt lat="42.4615793" lon="14.1059435"><ele>139.0</ele><time>2026-05-02T06:37:39.681Z</time></trkpt><trkpt lat="42.4614494" lon="14.1060811"><ele>139.0</ele><time>2026-05-02T06:37:40.675Z</time></trkpt><trkpt lat="42.4613275" lon="14.1062062"><ele>139.0</ele><time>2026-05-02T06:37:41.686Z</time></trkpt><trkpt lat="42.4612111" lon="14.1062944"><ele>139.0</ele><time>2026-05-02T06:37:42.675Z</time></trkpt><trkpt lat="42.461088" lon="14.1063764"><ele>139.0</ele><time>2026-05-02T06:37:43.678Z</time></trkpt><trkpt lat="42.4609563" lon="14.1064388"><ele>140.25</ele><time>2026-05-02T06:37:44.675Z</time></trkpt><trkpt lat="42.4608235" lon="14.1064943"><ele>141.5</ele><time>2026-05-02T06:37:45.687Z</time></trkpt><trkpt lat="42.4606944" lon="14.1065736"><ele>142.75</ele><time>2026-05-02T06:37:46.672Z</time></trkpt><trkpt lat="42.4606034" lon="14.1067092"><ele>144.0</ele><time>2026-05-02T06:37:47.679Z</time></trkpt><trkpt lat="42.4605085" lon="14.1068804"><ele>149.33333333333334</ele><time>2026-05-02T06:37:48.676Z</time></trkpt><trkpt lat="42.4604376" lon="14.1070905"><ele>154.66666666666669</ele><time>2026-05-02T06:37:49.667Z</time></trkpt><trkpt lat="42.4603793" lon="14.1073226"><ele>160.0</ele><time>2026-05-02T06:37:50.674Z</time></trkpt><trkpt lat="42.4603419" lon="14.1075457"><ele>160.0</ele><time>2026-05-02T06:37:51.679Z</time></trkpt><trkpt lat="42.4603117" lon="14.1077457"><ele>160.0</ele><time>2026-05-02T06:37:52.674Z</time></trkpt><trkpt lat="42.4602662" lon="14.1079349"><ele>160.0</ele><time>2026-05-02T06:37:53.677Z</time></trkpt><trkpt lat="42.460204" lon="14.1081115"><ele>160.0</ele><time>2026-05-02T06:37:54.684Z</time></trkpt><trkpt lat="42.4601385" lon="14.1082907"><ele>159.0</ele><time>2026-05-02T06:37:55.702Z</time></trkpt><trkpt lat="42.4600744" lon="14.1084753"><ele>158.0</ele><time>2026-05-02T06:37:56.679Z</time></trkpt><trkpt lat="42.4600032" lon="14.1086616"><ele>157.0</ele><time>2026-05-02T06:37:57.679Z</time></trkpt><trkpt lat="42.4599202" lon="14.10885"><ele>157.0</ele><time>2026-05-02T06:37:58.672Z</time></trkpt><trkpt lat="42.4598318" lon="14.10903"><ele>157.0</ele><time>2026-05-02T06:37:59.675Z</time></trkpt><trkpt lat="42.4597294" lon="14.109197"><ele>157.0</ele><time>2026-05-02T06:38:00.679Z</time></trkpt><trkpt lat="42.4596013" lon="14.1093459"><ele>159.33333333333334</ele><time>2026-05-02T06:38:01.676Z</time></trkpt><trkpt lat="42.4594533" lon="14.1094789"><ele>161.66666666666666</ele><time>2026-05-02T06:38:02.678Z</time></trkpt><trkpt lat="42.4593181" lon="14.109618"><ele>164.0</ele><time>2026-05-02T06:38:03.687Z</time></trkpt><trkpt lat="42.4592042" lon="14.1097753"><ele>161.66666666666666</ele><time>2026-05-02T06:38:04.68Z</time></trkpt><trkpt lat="42.4590817" lon="14.109933"><ele>159.33333333333334</ele><time>2026-05-02T06:38:05.685Z</time></trkpt><trkpt lat="42.458975" lon="14.1101036"><ele>157.0</ele><time>2026-05-02T06:38:06.684Z</time></trkpt><trkpt lat="42.4588529" lon="14.1102913"><ele>157.33333333333334</ele><time>2026-05-02T06:38:07.687Z</time></trkpt><trkpt lat="42.4587334" lon="14.1105052"><ele>157.66666666666666</ele><time>2026-05-02T06:38:08.687Z</time></trkpt><trkpt lat="42.4586196" lon="14.1106844"><ele>158.0</ele><time>2026-05-02T06:38:09.679Z</time></trkpt><trkpt lat="42.4585189" lon="14.1108508"><ele>159.0</ele><time>2026-05-02T06:38:10.683Z</time></trkpt><trkpt lat="42.4584306" lon="14.1110098"><ele>160.0</ele><time>2026-05-02T06:38:11.687Z</time></trkpt><trkpt lat="42.4583476" lon="14.1111431"><ele>161.0</ele><time>2026-05-02T06:38:12.674Z</time></trkpt><trkpt lat="42.4582531" lon="14.1112362"><ele>162.0</ele><time>2026-05-02T06:38:13.69Z</time></trkpt><trkpt lat="42.4581618" lon="14.1112904"><ele>162.0</ele><time>2026-05-02T06:38:14.688Z</time></trkpt><trkpt lat="42.4580753" lon="14.1112713"><ele>162.0</ele><time>2026-05-02T06:38:15.683Z</time></trkpt><trkpt lat="42.4580011" lon="14.1111844"><ele>162.0</ele><time>2026-05-02T06:38:16.691Z</time></trkpt><trkpt lat="42.4579572" lon="14.1110664"><ele>162.0</ele><time>2026-05-02T06:38:17.677Z</time></trkpt><trkpt lat="42.4579195" lon="14.1109285"><ele>162.0</ele><time>2026-05-02T06:38:18.683Z</time></trkpt><trkpt lat="42.4578809" lon="14.1108364"><ele>164.16666666666666</ele><time>2026-05-02T06:38:19.677Z</time></trkpt><trkpt lat="42.4578226" lon="14.1107913"><ele>166.33333333333334</ele><time>2026-05-02T06:38:20.685Z</time></trkpt><trkpt lat="42.4577463" lon="14.1108128"><ele>168.5</ele><time>2026-05-02T06:38:21.674Z</time></trkpt><trkpt lat="42.4576985" lon="14.1108891"><ele>170.66666666666669</ele><time>2026-05-02T06:38:22.686Z</time></trkpt><trkpt lat="42.4576901" lon="14.1109794"><ele>172.83333333333334</ele><time>2026-05-02T06:38:23.681Z</time></trkpt><trkpt lat="42.4577136" lon="14.1111032"><ele>175.0</ele><time>2026-05-02T06:38:24.671Z</time></trkpt><trkpt lat="42.4577676" lon="14.1112579"><ele>175.0</ele><time>2026-05-02T06:38:25.675Z</time></trkpt><trkpt lat="42.4578168" lon="14.111447"><ele>175.0</ele><time>2026-05-02T06:38:26.686Z</time></trkpt><trkpt lat="42.4578613" lon="14.1116454"><ele>175.0</ele><time>2026-05-02T06:38:27.675Z</time></trkpt><trkpt lat="42.4579125" lon="14.1118453"><ele>175.0</ele><time>2026-05-02T06:38:28.692Z</time></trkpt><trkpt lat="42.4579537" lon="14.1120537"><ele>175.0</ele><time>2026-05-02T06:38:29.673Z</time></trkpt><trkpt lat="42.4580058" lon="14.1122536"><ele>175.0</ele><time>2026-05-02T06:38:30.687Z</time></trkpt><trkpt lat="42.4580545" lon="14.1124619"><ele>175.0</ele><time>2026-05-02T06:38:31.678Z</time></trkpt><trkpt lat="42.4580867" lon="14.1126691"><ele>175.0</ele><time>2026-05-02T06:38:32.686Z</time></trkpt><trkpt lat="42.4580928" lon="14.1128521"><ele>175.0</ele><time>2026-05-02T06:38:33.674Z</time></trkpt><trkpt lat="42.4580835" lon="14.1130107"><ele>175.0</ele><time>2026-05-02T06:38:34.686Z</time></trkpt><trkpt lat="42.4580505" lon="14.1131787"><ele>175.75</ele><time>2026-05-02T06:38:35.678Z</time></trkpt><trkpt lat="42.4579951" lon="14.1133295"><ele>176.5</ele><time>2026-05-02T06:38:36.676Z</time></trkpt><trkpt lat="42.4579442" lon="14.1134667"><ele>177.25</ele><time>2026-05-02T06:38:37.685Z</time></trkpt><trkpt lat="42.4579088" lon="14.1136071"><ele>178.0</ele><time>2026-05-02T06:38:38.687Z</time></trkpt><trkpt lat="42.4578892" lon="14.1137657"><ele>178.66666666666669</ele><time>2026-05-02T06:38:39.691Z</time></trkpt><trkpt lat="42.4578954" lon="14.1139544"><ele>179.33333333333334</ele><time>2026-05-02T06:38:40.678Z</time></trkpt><trkpt lat="42.4579022" lon="14.1141713"><ele>180.0</ele><time>2026-05-02T06:38:41.688Z</time></trkpt><trkpt lat="42.4579069" lon="14.114381"><ele>177.0</ele><time>2026-05-02T06:38:42.69Z</time></trkpt><trkpt lat="42.4578946" lon="14.1145829"><ele>174.0</ele><time>2026-05-02T06:38:43.676Z</time></trkpt><trkpt lat="42.4578623" lon="14.1147763"><ele>171.0</ele><time>2026-05-02T06:38:44.688Z</time></trkpt><trkpt lat="42.4578301" lon="14.1149543"><ele>168.0</ele><time>2026-05-02T06:38:45.681Z</time></trkpt><trkpt lat="42.4578008" lon="14.1151247"><ele>167.75</ele><time>2026-05-02T06:38:46.67Z</time></trkpt><trkpt lat="42.4578079" lon="14.1152806"><ele>167.5</ele><time>2026-05-02T06:38:47.681Z</time></trkpt><trkpt lat="42.4578605" lon="14.1154445"><ele>167.25</ele><time>2026-05-02T06:38:48.662Z</time></trkpt><trkpt lat="42.4579379" lon="14.1155864"><ele>167.0</ele><time>2026-05-02T06:38:49.682Z</time></trkpt><trkpt lat="42.458045" lon="14.1157301"><ele>167.0</ele><time>2026-05-02T06:38:50.68Z</time></trkpt><trkpt lat="42.4581712" lon="14.1158672"><ele>167.0</ele><time>2026-05-02T06:38:51.681Z</time></trkpt><trkpt lat="42.4583019" lon="14.1160076"><ele>167.0</ele><time>2026-05-02T06:38:52.679Z</time></trkpt><trkpt lat="42.4584412" lon="14.1161834"><ele>167.0</ele><time>2026-05-02T06:38:53.688Z</time></trkpt><trkpt lat="42.4585873" lon="14.1163448"><ele>167.0</ele><time>2026-05-02T06:38:54.67Z</time></trkpt><trkpt lat="42.4587361" lon="14.1165001"><ele>167.0</ele><time>2026-05-02T06:38:55.679Z</time></trkpt><trkpt lat="42.4588949" lon="14.1166615"><ele>165.66666666666666</ele><time>2026-05-02T06:38:56.676Z</time></trkpt><trkpt lat="42.4590576" lon="14.1168125"><ele>164.33333333333334</ele><time>2026-05-02T06:38:57.688Z</time></trkpt><trkpt lat="42.4592201" lon="14.1169576"><ele>163.0</ele><time>2026-05-02T06:38:58.682Z</time></trkpt><trkpt lat="42.45939" lon="14.1171"><ele>163.0</ele><time>2026-05-02T06:38:59.674Z</time></trkpt><trkpt lat="42.4595593" lon="14.117228"><ele>163.0</ele><time>2026-05-02T06:39:00.689Z</time></trkpt><trkpt lat="42.4597229" lon="14.1173463"><ele>163.0</ele><time>2026-05-02T06:39:01.677Z</time></trkpt><trkpt lat="42.4598739" lon="14.1174547"><ele>162.0</ele><time>2026-05-02T06:39:02.691Z</time></trkpt><trkpt lat="42.4600193" lon="14.1175693"><ele>161.0</ele><time>2026-05-02T06:39:03.673Z</time></trkpt><trkpt lat="42.460151" lon="14.1176834"><ele>160.0</ele><time>2026-05-02T06:39:04.689Z</time></trkpt><trkpt lat="42.4602748" lon="14.1177955"><ele>160.0</ele><time>2026-05-02T06:39:05.689Z</time></trkpt><trkpt lat="42.4603836" lon="14.1179145"><ele>160.0</ele><time>2026-05-02T06:39:06.679Z</time></trkpt><trkpt lat="42.4604695" lon="14.1180351"><ele>160.0</ele><time>2026-05-02T06:39:07.682Z</time></trkpt><trkpt lat="42.4605175" lon="14.118161"><ele>160.0</ele><time>2026-05-02T06:39:08.683Z</time></trkpt><trkpt lat="42.4605235" lon="14.1183344"><ele>160.33333333333334</ele><time>2026-05-02T06:39:09.689Z</time></trkpt><trkpt lat="42.4605023" lon="14.1185194"><ele>160.66666666666666</ele><time>2026-05-02T06:39:10.668Z</time></trkpt><trkpt lat="42.4604668" lon="14.1187249"><ele>161.0</ele><time>2026-05-02T06:39:11.671Z</time></trkpt><trkpt lat="42.460419" lon="14.1189347"><ele>160.75</ele><time>2026-05-02T06:39:12.678Z</time></trkpt><trkpt lat="42.4603488" lon="14.1191299"><ele>160.5</ele><time>2026-05-02T06:39:13.67Z</time></trkpt><trkpt lat="42.4602864" lon="14.1193038"><ele>160.25</ele><time>2026-05-02T06:39:14.68Z</time></trkpt><trkpt lat="42.4602266" lon="14.1194488"><ele>160.0</ele><time>2026-05-02T06:39:15.686Z</time></trkpt><trkpt lat="42.4601611" lon="14.1195643"><ele>160.0</ele><time>2026-05-02T06:39:16.675Z</time></trkpt><trkpt lat="42.4600925" lon="14.1196386"><ele>160.0</ele><time>2026-05-02T06:39:17.682Z</time></trkpt><trkpt lat="42.4600214" lon="14.1196991"><ele>160.0</ele><time>2026-05-02T06:39:18.676Z</time></trkpt><trkpt lat="42.4599555" lon="14.1197612"><ele>160.0</ele><time>2026-05-02T06:39:19.682Z</time></trkpt><trkpt lat="42.4598945" lon="14.1198564"><ele>160.0</ele><time>2026-05-02T06:39:20.682Z</time></trkpt><trkpt lat="42.4598513" lon="14.1199671"><ele>160.0</ele><time>2026-05-02T06:39:21.678Z</time></trkpt><trkpt lat="42.4598114" lon="14.1200784"><ele>160.0</ele><time>2026-05-02T06:39:22.699Z</time></trkpt><trkpt lat="42.4597367" lon="14.1201865"><ele>160.0</ele><time>2026-05-02T06:39:23.678Z</time></trkpt><trkpt lat="42.4596455" lon="14.1202825"><ele>160.0</ele><time>2026-05-02T06:39:24.68Z</time></trkpt><trkpt lat="42.4595446" lon="14.1203741"><ele>160.0</ele><time>2026-05-02T06:39:25.674Z</time></trkpt><trkpt lat="42.4594478" lon="14.1204685"><ele>160.0</ele><time>2026-05-02T06:39:26.678Z</time></trkpt><trkpt lat="42.4593495" lon="14.1205713"><ele>160.0</ele><time>2026-05-02T06:39:27.68Z</time></trkpt><trkpt lat="42.4592527" lon="14.1206712"><ele>160.0</ele><time>2026-05-02T06:39:28.702Z</time></trkpt><trkpt lat="42.4591539" lon="14.1207743"><ele>160.0</ele><time>2026-05-02T06:39:29.678Z</time></trkpt><trkpt lat="42.4590615" lon="14.1208821"><ele>160.0</ele><time>2026-05-02T06:39:30.68Z</time></trkpt><trkpt lat="42.458963" lon="14.1209826"><ele>160.0</ele><time>2026-05-02T06:39:31.682Z</time></trkpt><trkpt lat="42.4588872" lon="14.1210489"><ele>160.0</ele><time>2026-05-02T06:39:32.687Z</time></trkpt><trkpt lat="42.4588156" lon="14.1209836"><ele>160.0</ele><time>2026-05-02T06:39:35.669Z</time></trkpt><trkpt lat="42.458728" lon="14.1208943"><ele>160.0</ele><time>2026-05-02T06:39:37.673Z</time></trkpt><trkpt lat="42.4586633" lon="14.120823"><ele>160.2</ele><time>2026-05-02T06:39:38.679Z</time></trkpt><trkpt lat="42.4586014" lon="14.1207501"><ele>160.4</ele><time>2026-05-02T06:39:39.682Z</time></trkpt><trkpt lat="42.4585543" lon="14.1206862"><ele>160.60000000000002</ele><time>2026-05-02T06:39:40.678Z</time></trkpt><trkpt lat="42.4584351" lon="14.120568"><ele>160.8</ele><time>2026-05-02T06:39:42.672Z</time></trkpt><trkpt lat="42.4583597" lon="14.1204766"><ele>161.0</ele><time>2026-05-02T06:39:43.676Z</time></trkpt><trkpt lat="42.4582761" lon="14.120389"><ele>159.20000000000002</ele><time>2026-05-02T06:39:44.671Z</time></trkpt><trkpt lat="42.4582031" lon="14.1203107"><ele>157.4</ele><time>2026-05-02T06:39:45.679Z</time></trkpt><trkpt lat="42.4581345" lon="14.1202387"><ele>155.6</ele><time>2026-05-02T06:39:46.677Z</time></trkpt><trkpt lat="42.4580553" lon="14.1201656"><ele>153.8</ele><time>2026-05-02T06:39:47.683Z</time></trkpt><trkpt lat="42.4579848" lon="14.1200794"><ele>152.0</ele><time>2026-05-02T06:39:48.685Z</time></trkpt><trkpt lat="42.4579201" lon="14.1199781"><ele>148.0</ele><time>2026-05-02T06:39:49.677Z</time></trkpt><trkpt lat="42.4578567" lon="14.1198788"><ele>144.0</ele><time>2026-05-02T06:39:50.708Z</time></trkpt><trkpt lat="42.4577955" lon="14.119788"><ele>140.0</ele><time>2026-05-02T06:39:51.673Z</time></trkpt><trkpt lat="42.4577287" lon="14.1196937"><ele>136.0</ele><time>2026-05-02T06:39:52.676Z</time></trkpt><trkpt lat="42.4576635" lon="14.1196053"><ele>132.0</ele><time>2026-05-02T06:39:53.689Z</time></trkpt><trkpt lat="42.4576062" lon="14.1195335"><ele>132.0</ele><time>2026-05-02T06:39:54.672Z</time></trkpt><trkpt lat="42.4575636" lon="14.1194643"><ele>132.0</ele><time>2026-05-02T06:39:55.675Z</time></trkpt><trkpt lat="42.4575107" lon="14.1193918"><ele>132.0</ele><time>2026-05-02T06:39:56.677Z</time></trkpt><trkpt lat="42.4574545" lon="14.1193152"><ele>132.0</ele><time>2026-05-02T06:39:57.677Z</time></trkpt><trkpt lat="42.4573984" lon="14.1192744"><ele>132.0</ele><time>2026-05-02T06:39:58.673Z</time></trkpt><trkpt lat="42.457334" lon="14.1192595"><ele>132.0</ele><time>2026-05-02T06:39:59.684Z</time></trkpt><trkpt lat="42.4572647" lon="14.1192651"><ele>132.0</ele><time>2026-05-02T06:40:00.674Z</time></trkpt><trkpt lat="42.4571884" lon="14.1192643"><ele>130.4</ele><time>2026-05-02T06:40:01.67Z</time></trkpt><trkpt lat="42.4570906" lon="14.1192606"><ele>128.79999999999998</ele><time>2026-05-02T06:40:02.672Z</time></trkpt><trkpt lat="42.4569854" lon="14.1192638"><ele>127.2</ele><time>2026-05-02T06:40:03.68Z</time></trkpt><trkpt lat="42.4568794" lon="14.11927"><ele>125.6</ele><time>2026-05-02T06:40:04.679Z</time></trkpt><trkpt lat="42.4567737" lon="14.1192858"><ele>124.0</ele><time>2026-05-02T06:40:05.678Z</time></trkpt><trkpt lat="42.4566766" lon="14.1193113"><ele>124.0</ele><time>2026-05-02T06:40:06.682Z</time></trkpt><trkpt lat="42.4565961" lon="14.1193287"><ele>124.00000000000001</ele><time>2026-05-02T06:40:07.679Z</time></trkpt><trkpt lat="42.456526" lon="14.1193239"><ele>124.0</ele><time>2026-05-02T06:40:08.685Z</time></trkpt><trkpt lat="42.4564577" lon="14.11931"><ele>124.0</ele><time>2026-05-02T06:40:09.69Z</time></trkpt><trkpt lat="42.4563941" lon="14.1193027"><ele>124.00000000000001</ele><time>2026-05-02T06:40:10.68Z</time></trkpt><trkpt lat="42.4563304" lon="14.119318"><ele>124.0</ele><time>2026-05-02T06:40:11.686Z</time></trkpt><trkpt lat="42.4562636" lon="14.1193216"><ele>124.0</ele><time>2026-05-02T06:40:12.68Z</time></trkpt><trkpt lat="42.4561899" lon="14.1193294"><ele>123.16666666666667</ele><time>2026-05-02T06:40:13.669Z</time></trkpt><trkpt lat="42.4561255" lon="14.1193257"><ele>122.33333333333334</ele><time>2026-05-02T06:40:14.68Z</time></trkpt><trkpt lat="42.4560426" lon="14.1193199"><ele>121.5</ele><time>2026-05-02T06:40:16.675Z</time></trkpt><trkpt lat="42.4559456" lon="14.1193049"><ele>120.66666666666666</ele><time>2026-05-02T06:40:18.684Z</time></trkpt><trkpt lat="42.4558528" lon="14.1192572"><ele>119.83333333333333</ele><time>2026-05-02T06:40:20.68Z</time></trkpt><trkpt lat="42.4557646" lon="14.1192234"><ele>119.0</ele><time>2026-05-02T06:40:22.697Z</time></trkpt><trkpt lat="42.4556592" lon="14.1192005"><ele>118.99999999999999</ele><time>2026-05-02T06:40:24.682Z</time></trkpt><trkpt lat="42.4555652" lon="14.1192037"><ele>119.0</ele><time>2026-05-02T06:40:26.679Z</time></trkpt><trkpt lat="42.4554817" lon="14.1192011"><ele>119.0</ele><time>2026-05-02T06:40:28.681Z</time></trkpt><trkpt lat="42.4553968" lon="14.1192019"><ele>119.0</ele><time>2026-05-02T06:40:30.694Z</time></trkpt><trkpt lat="42.455334" lon="14.1192104"><ele>118.99999999999999</ele><time>2026-05-02T06:40:32.692Z</time></trkpt><trkpt lat="42.4552552" lon="14.1192223"><ele>119.0</ele><time>2026-05-02T06:40:34.677Z</time></trkpt><trkpt lat="42.4551613" lon="14.1192132"><ele>118.16666666666666</ele><time>2026-05-02T06:40:37.683Z</time></trkpt><trkpt lat="42.4550952" lon="14.1191957"><ele>117.33333333333333</ele><time>2026-05-02T06:40:39.68Z</time></trkpt><trkpt lat="42.4550291" lon="14.1192115"><ele>116.5</ele><time>2026-05-02T06:40:41.668Z</time></trkpt><trkpt lat="42.4549427" lon="14.1191844"><ele>115.66666666666666</ele><time>2026-05-02T06:40:44.676Z</time></trkpt><trkpt lat="42.4548791" lon="14.1191498"><ele>114.83333333333333</ele><time>2026-05-02T06:40:47.683Z</time></trkpt><trkpt lat="42.4548197" lon="14.1190965"><ele>114.0</ele><time>2026-05-02T06:40:49.675Z</time></trkpt><trkpt lat="42.4548073" lon="14.1189799"><ele>113.5</ele><time>2026-05-02T06:40:52.689Z</time></trkpt><trkpt lat="42.4548161" lon="14.1188931"><ele>113.0</ele><time>2026-05-02T06:40:53.664Z</time></trkpt><trkpt lat="42.4548267" lon="14.1187858"><ele>112.5</ele><time>2026-05-02T06:40:54.668Z</time></trkpt><trkpt lat="42.4548688" lon="14.1187002"><ele>112.0</ele><time>2026-05-02T06:40:55.673Z</time></trkpt><trkpt lat="42.4548891" lon="14.1185874"><ele>111.5</ele><time>2026-05-02T06:40:56.673Z</time></trkpt><trkpt lat="42.4549052" lon="14.1184839"><ele>111.0</ele><time>2026-05-02T06:40:57.666Z</time></trkpt><trkpt lat="42.4548939" lon="14.1183583"><ele>111.0</ele><time>2026-05-02T06:40:58.674Z</time></trkpt><trkpt lat="42.4548986" lon="14.1182378"><ele>111.0</ele><time>2026-05-02T06:40:59.676Z</time></trkpt><trkpt lat="42.4549043" lon="14.1181132"><ele>111.0</ele><time>2026-05-02T06:41:00.677Z</time></trkpt><trkpt lat="42.4549273" lon="14.1179991"><ele>111.0</ele><time>2026-05-02T06:41:01.695Z</time></trkpt><trkpt lat="42.4549592" lon="14.117872"><ele>111.0</ele><time>2026-05-02T06:41:02.671Z</time></trkpt><trkpt lat="42.4549864" lon="14.1177478"><ele>112.0</ele><time>2026-05-02T06:41:03.679Z</time></trkpt><trkpt lat="42.4550012" lon="14.1176069"><ele>113.0</ele><time>2026-05-02T06:41:04.685Z</time></trkpt><trkpt lat="42.4550065" lon="14.117472"><ele>114.0</ele><time>2026-05-02T06:41:05.68Z</time></trkpt><trkpt lat="42.4550042" lon="14.1173611"><ele>115.0</ele><time>2026-05-02T06:41:06.688Z</time></trkpt><trkpt lat="42.4549844" lon="14.1172318"><ele>116.0</ele><time>2026-05-02T06:41:08.7Z</time></trkpt><trkpt lat="42.4549073" lon="14.1171781"><ele>117.4</ele><time>2026-05-02T06:41:10.688Z</time></trkpt><trkpt lat="42.4548429" lon="14.1171721"><ele>118.8</ele><time>2026-05-02T06:41:11.683Z</time></trkpt><trkpt lat="42.4547436" lon="14.1171611"><ele>120.20000000000002</ele><time>2026-05-02T06:41:12.691Z</time></trkpt><trkpt lat="42.4546288" lon="14.1171414"><ele>121.60000000000001</ele><time>2026-05-02T06:41:13.674Z</time></trkpt><trkpt lat="42.4545024" lon="14.1171"><ele>123.0</ele><time>2026-05-02T06:41:14.688Z</time></trkpt><trkpt lat="42.4543578" lon="14.1170597"><ele>123.5</ele><time>2026-05-02T06:41:15.681Z</time></trkpt><trkpt lat="42.454206" lon="14.1170297"><ele>124.0</ele><time>2026-05-02T06:41:16.674Z</time></trkpt><trkpt lat="42.4540547" lon="14.1169943"><ele>124.5</ele><time>2026-05-02T06:41:17.68Z</time></trkpt><trkpt lat="42.4539226" lon="14.1169617"><ele>125.0</ele><time>2026-05-02T06:41:18.67Z</time></trkpt><trkpt lat="42.4538135" lon="14.116939"><ele>125.33333333333333</ele><time>2026-05-02T06:41:19.678Z</time></trkpt><trkpt lat="42.453721" lon="14.1169355"><ele>125.66666666666666</ele><time>2026-05-02T06:41:20.67Z</time></trkpt><trkpt lat="42.4536383" lon="14.1169559"><ele>126.0</ele><time>2026-05-02T06:41:21.684Z</time></trkpt><trkpt lat="42.4535624" lon="14.1170052"><ele>126.33333333333334</ele><time>2026-05-02T06:41:22.682Z</time></trkpt><trkpt lat="42.4534983" lon="14.117062"><ele>126.66666666666667</ele><time>2026-05-02T06:41:23.678Z</time></trkpt><trkpt lat="42.4534209" lon="14.1171479"><ele>127.0</ele><time>2026-05-02T06:41:24.677Z</time></trkpt><trkpt lat="42.4533394" lon="14.1172398"><ele>127.00000000000001</ele><time>2026-05-02T06:41:25.675Z</time></trkpt><trkpt lat="42.4532637" lon="14.117303"><ele>127.0</ele><time>2026-05-02T06:41:26.677Z</time></trkpt><trkpt lat="42.4531906" lon="14.1173432"><ele>127.0</ele><time>2026-05-02T06:41:27.683Z</time></trkpt><trkpt lat="42.4531162" lon="14.1173746"><ele>127.0</ele><time>2026-05-02T06:41:28.671Z</time></trkpt><trkpt lat="42.4530384" lon="14.1173896"><ele>127.00000000000001</ele><time>2026-05-02T06:41:29.683Z</time></trkpt><trkpt lat="42.4529461" lon="14.1174033"><ele>127.0</ele><time>2026-05-02T06:41:30.677Z</time></trkpt><trkpt lat="42.4528557" lon="14.1174118"><ele>127.50000000000001</ele><time>2026-05-02T06:41:31.686Z</time></trkpt><trkpt lat="42.4527732" lon="14.1174112"><ele>128.0</ele><time>2026-05-02T06:41:32.666Z</time></trkpt><trkpt lat="42.4526985" lon="14.1173949"><ele>128.5</ele><time>2026-05-02T06:41:33.677Z</time></trkpt><trkpt lat="42.4526357" lon="14.1173597"><ele>129.0</ele><time>2026-05-02T06:41:34.673Z</time></trkpt><trkpt lat="42.4525656" lon="14.1172231"><ele>129.5</ele><time>2026-05-02T06:41:36.67Z</time></trkpt><trkpt lat="42.4525361" lon="14.1171226"><ele>130.0</ele><time>2026-05-02T06:41:37.678Z</time></trkpt><trkpt lat="42.4524851" lon="14.1169954"><ele>130.0</ele><time>2026-05-02T06:41:38.677Z</time></trkpt><trkpt lat="42.4524191" lon="14.1168545"><ele>130.0</ele><time>2026-05-02T06:41:39.685Z</time></trkpt><trkpt lat="42.4523461" lon="14.1167167"><ele>130.0</ele><time>2026-05-02T06:41:40.69Z</time></trkpt><trkpt lat="42.4522598" lon="14.1165848"><ele>130.0</ele><time>2026-05-02T06:41:41.685Z</time></trkpt><trkpt lat="42.4521674" lon="14.1164817"><ele>131.4</ele><time>2026-05-02T06:41:42.673Z</time></trkpt><trkpt lat="42.4520836" lon="14.1164085"><ele>132.8</ele><time>2026-05-02T06:41:43.686Z</time></trkpt><trkpt lat="42.4519851" lon="14.1163613"><ele>134.2</ele><time>2026-05-02T06:41:44.673Z</time></trkpt><trkpt lat="42.4518814" lon="14.1163491"><ele>135.6</ele><time>2026-05-02T06:41:45.667Z</time></trkpt><trkpt lat="42.4517686" lon="14.1163419"><ele>137.0</ele><time>2026-05-02T06:41:46.669Z</time></trkpt><trkpt lat="42.4516654" lon="14.1163433"><ele>137.0</ele><time>2026-05-02T06:41:47.676Z</time></trkpt><trkpt lat="42.4515747" lon="14.1163562"><ele>137.0</ele><time>2026-05-02T06:41:48.667Z</time></trkpt><trkpt lat="42.4514954" lon="14.1163624"><ele>137.0</ele><time>2026-05-02T06:41:49.672Z</time></trkpt><trkpt lat="42.4514102" lon="14.1163544"><ele>137.0</ele><time>2026-05-02T06:41:50.662Z</time></trkpt><trkpt lat="42.4513461" lon="14.1163344"><ele>137.0</ele><time>2026-05-02T06:41:51.664Z</time></trkpt><trkpt lat="42.4512481" lon="14.1162808"><ele>137.0</ele><time>2026-05-02T06:41:53.679Z</time></trkpt><trkpt lat="42.4511923" lon="14.1162174"><ele>133.2</ele><time>2026-05-02T06:41:55.682Z</time></trkpt><trkpt lat="42.4511367" lon="14.1161613"><ele>129.39999999999998</ele><time>2026-05-02T06:41:57.679Z</time></trkpt><trkpt lat="42.4510389" lon="14.1161777"><ele>125.60000000000001</ele><time>2026-05-02T06:41:59.673Z</time></trkpt><trkpt lat="42.4509253" lon="14.1162355"><ele>121.80000000000001</ele><time>2026-05-02T06:42:01.682Z</time></trkpt><trkpt lat="42.4508358" lon="14.1162889"><ele>118.0</ele><time>2026-05-02T06:42:03.676Z</time></trkpt><trkpt lat="42.4507454" lon="14.1163437"><ele>118.0</ele><time>2026-05-02T06:42:05.685Z</time></trkpt><trkpt lat="42.450656" lon="14.1163985"><ele>118.00000000000001</ele><time>2026-05-02T06:42:07.68Z</time></trkpt><trkpt lat="42.450596" lon="14.1164328"><ele>118.00000000000001</ele><time>2026-05-02T06:42:08.684Z</time></trkpt><trkpt lat="42.4505378" lon="14.1164808"><ele>118.0</ele><time>2026-05-02T06:42:09.686Z</time></trkpt><trkpt lat="42.4504421" lon="14.1165773"><ele>118.0</ele><time>2026-05-02T06:42:11.688Z</time></trkpt><trkpt lat="42.4503531" lon="14.1166751"><ele>116.16666666666667</ele><time>2026-05-02T06:42:13.668Z</time></trkpt><trkpt lat="42.4502976" lon="14.116734"><ele>114.33333333333334</ele><time>2026-05-02T06:42:14.68Z</time></trkpt><trkpt lat="42.4502451" lon="14.1167887"><ele>112.5</ele><time>2026-05-02T06:42:15.679Z</time></trkpt><trkpt lat="42.4501552" lon="14.1168904"><ele>110.66666666666666</ele><time>2026-05-02T06:42:17.69Z</time></trkpt><trkpt lat="42.4500614" lon="14.1169664"><ele>108.83333333333333</ele><time>2026-05-02T06:42:19.689Z</time></trkpt><trkpt lat="42.4499974" lon="14.1170104"><ele>107.0</ele><time>2026-05-02T06:42:20.686Z</time></trkpt><trkpt lat="42.449942" lon="14.1170512"><ele>107.0</ele><time>2026-05-02T06:42:21.676Z</time></trkpt><trkpt lat="42.4498286" lon="14.1171302"><ele>106.99999999999999</ele><time>2026-05-02T06:42:23.676Z</time></trkpt><trkpt lat="42.4497057" lon="14.1171782"><ele>106.99999999999999</ele><time>2026-05-02T06:42:25.685Z</time></trkpt><trkpt lat="42.4496368" lon="14.1172092"><ele>107.0</ele><time>2026-05-02T06:42:26.681Z</time></trkpt><trkpt lat="42.4495553" lon="14.1172282"><ele>107.0</ele><time>2026-05-02T06:42:27.679Z</time></trkpt><trkpt lat="42.4494717" lon="14.1172343"><ele>105.33333333333333</ele><time>2026-05-02T06:42:28.686Z</time></trkpt><trkpt lat="42.4493908" lon="14.1172312"><ele>103.66666666666666</ele><time>2026-05-02T06:42:29.67Z</time></trkpt><trkpt lat="42.4493163" lon="14.1172158"><ele>102.0</ele><time>2026-05-02T06:42:30.672Z</time></trkpt><trkpt lat="42.4492373" lon="14.117183"><ele>100.33333333333334</ele><time>2026-05-02T06:42:31.683Z</time></trkpt><trkpt lat="42.4491589" lon="14.117156"><ele>98.66666666666667</ele><time>2026-05-02T06:42:32.681Z</time></trkpt><trkpt lat="42.4490826" lon="14.1171323"><ele>97.0</ele><time>2026-05-02T06:42:33.677Z</time></trkpt><trkpt lat="42.4490065" lon="14.1171131"><ele>97.0</ele><time>2026-05-02T06:42:35.699Z</time></trkpt><trkpt lat="42.4489428" lon="14.1171052"><ele>97.0</ele><time>2026-05-02T06:42:38.675Z</time></trkpt><trkpt lat="42.4488791" lon="14.1170954"><ele>97.0</ele><time>2026-05-02T06:42:43.678Z</time></trkpt><trkpt lat="42.4488166" lon="14.1170648"><ele>97.0</ele><time>2026-05-02T06:42:48.684Z</time></trkpt><trkpt lat="42.4487445" lon="14.117042"><ele>97.0</ele><time>2026-05-02T06:42:58.672Z</time></trkpt><trkpt lat="42.4486526" lon="14.1170509"><ele>97.0</ele><time>2026-05-02T06:43:04.675Z</time></trkpt><trkpt lat="42.4485848" lon="14.1170733"><ele>97.0</ele><time>2026-05-02T06:43:06.687Z</time></trkpt><trkpt lat="42.448526" lon="14.1171241"><ele>96.6</ele><time>2026-05-02T06:43:08.675Z</time></trkpt><trkpt lat="42.4485109" lon="14.1172094"><ele>96.19999999999999</ele><time>2026-05-02T06:43:10.68Z</time></trkpt><trkpt lat="42.4484716" lon="14.1173796"><ele>95.8</ele><time>2026-05-02T06:43:13.658Z</time></trkpt><trkpt lat="42.4484491" lon="14.1175041"><ele>95.4</ele><time>2026-05-02T06:43:15.659Z</time></trkpt><trkpt lat="42.448463" lon="14.1176288"><ele>95.0</ele><time>2026-05-02T06:43:17.667Z</time></trkpt><trkpt lat="42.4484871" lon="14.1177201"><ele>94.0</ele><time>2026-05-02T06:43:19.687Z</time></trkpt><trkpt lat="42.4485122" lon="14.1178045"><ele>93.0</ele><time>2026-05-02T06:43:22.697Z</time></trkpt><trkpt lat="42.4485456" lon="14.1179064"><ele>92.0</ele><time>2026-05-02T06:43:34.664Z</time></trkpt><trkpt lat="42.4485477" lon="14.1180035"><ele>91.0</ele><time>2026-05-02T06:43:37.671Z</time></trkpt><trkpt lat="42.4485291" lon="14.1181311"><ele>90.0</ele><time>2026-05-02T06:43:39.659Z</time></trkpt><trkpt lat="42.4485248" lon="14.1182173"><ele>89.0</ele><time>2026-05-02T06:43:40.661Z</time></trkpt><trkpt lat="42.4485471" lon="14.1183676"><ele>89.0</ele><time>2026-05-02T06:43:42.663Z</time></trkpt><trkpt lat="42.4485698" lon="14.1185251"><ele>89.0</ele><time>2026-05-02T06:43:44.669Z</time></trkpt><trkpt lat="42.4485871" lon="14.1186604"><ele>89.0</ele><time>2026-05-02T06:43:46.685Z</time></trkpt><trkpt lat="42.4485957" lon="14.1187728"><ele>89.0</ele><time>2026-05-02T06:43:48.663Z</time></trkpt><trkpt lat="42.4486135" lon="14.1188825"><ele>89.0</ele><time>2026-05-02T06:43:51.673Z</time></trkpt><trkpt lat="42.4486192" lon="14.1189804"><ele>90.16666666666667</ele><time>2026-05-02T06:43:53.678Z</time></trkpt><trkpt lat="42.4486258" lon="14.1190783"><ele>91.33333333333334</ele><time>2026-05-02T06:43:55.676Z</time></trkpt><trkpt lat="42.4486224" lon="14.1192079"><ele>92.5</ele><time>2026-05-02T06:44:22.691Z</time></trkpt><trkpt lat="42.4486252" lon="14.1193125"><ele>93.66666666666667</ele><time>2026-05-02T06:44:25.688Z</time></trkpt><trkpt lat="42.44862" lon="14.1194061"><ele>94.83333333333333</ele><time>2026-05-02T06:44:27.678Z</time></trkpt><trkpt lat="42.4486282" lon="14.1195205"><ele>96.0</ele><time>2026-05-02T06:44:30.685Z</time></trkpt><trkpt lat="42.4486283" lon="14.119642"><ele>96.0</ele><time>2026-05-02T06:44:33.667Z</time></trkpt><trkpt lat="42.4486283" lon="14.1197655"><ele>96.0</ele><time>2026-05-02T06:44:35.675Z</time></trkpt><trkpt lat="42.4486384" lon="14.1198964"><ele>96.0</ele><time>2026-05-02T06:44:37.679Z</time></trkpt><trkpt lat="42.4486431" lon="14.1200092"><ele>96.0</ele><time>2026-05-02T06:44:39.681Z</time></trkpt><trkpt lat="42.4486529" lon="14.1201166"><ele>96.0</ele><time>2026-05-02T06:44:41.665Z</time></trkpt><trkpt lat="42.4486462" lon="14.1202335"><ele>96.0</ele><time>2026-05-02T06:44:43.667Z</time></trkpt><trkpt lat="42.4486468" lon="14.1203189"><ele>97.66666666666667</ele><time>2026-05-02T06:44:45.677Z</time></trkpt><trkpt lat="42.4486656" lon="14.1204163"><ele>99.33333333333334</ele><time>2026-05-02T06:46:32.685Z</time></trkpt><trkpt lat="42.4486615" lon="14.1205065"><ele>101.0</ele><time>2026-05-02T06:46:35.687Z</time></trkpt><trkpt lat="42.4486572" lon="14.1205972"><ele>102.66666666666667</ele><time>2026-05-02T06:46:38.677Z</time></trkpt><trkpt lat="42.4486484" lon="14.1206851"><ele>104.33333333333334</ele><time>2026-05-02T06:46:40.688Z</time></trkpt><trkpt lat="42.448654" lon="14.1208262"><ele>106.0</ele><time>2026-05-02T06:46:42.681Z</time></trkpt><trkpt lat="42.4486603" lon="14.1209677"><ele>108.4</ele><time>2026-05-02T06:46:44.662Z</time></trkpt><trkpt lat="42.4486667" lon="14.1211258"><ele>110.8</ele><time>2026-05-02T06:46:46.681Z</time></trkpt><trkpt lat="42.4486679" lon="14.1212704"><ele>113.20000000000002</ele><time>2026-05-02T06:46:48.674Z</time></trkpt><trkpt lat="42.4486785" lon="14.1213617"><ele>115.60000000000001</ele><time>2026-05-02T06:46:49.667Z</time></trkpt><trkpt lat="42.448694" lon="14.1215152"><ele>118.0</ele><time>2026-05-02T06:46:51.669Z</time></trkpt><trkpt lat="42.4487034" lon="14.1216339"><ele>120.0</ele><time>2026-05-02T06:46:52.672Z</time></trkpt><trkpt lat="42.4487164" lon="14.1217773"><ele>122.0</ele><time>2026-05-02T06:46:53.67Z</time></trkpt><trkpt lat="42.4487283" lon="14.1219273"><ele>124.0</ele><time>2026-05-02T06:46:54.689Z</time></trkpt><trkpt lat="42.4487565" lon="14.122094"><ele>126.0</ele><time>2026-05-02T06:46:55.684Z</time></trkpt><trkpt lat="42.4488046" lon="14.1222744"><ele>127.19999999999999</ele><time>2026-05-02T06:46:56.683Z</time></trkpt><trkpt lat="42.4488406" lon="14.1224079"><ele>128.39999999999998</ele><time>2026-05-02T06:46:57.684Z</time></trkpt><trkpt lat="42.4488982" lon="14.1225518"><ele>129.6</ele><time>2026-05-02T06:46:59.681Z</time></trkpt><trkpt lat="42.4489621" lon="14.1226491"><ele>130.79999999999998</ele><time>2026-05-02T06:47:03.678Z</time></trkpt><trkpt lat="42.4490551" lon="14.1226951"><ele>132.0</ele><time>2026-05-02T06:47:05.684Z</time></trkpt><trkpt lat="42.4490264" lon="14.1226142"><ele>132.0</ele><time>2026-05-02T06:47:09.662Z</time></trkpt><trkpt lat="42.4489325" lon="14.1226096"><ele>132.0</ele><time>2026-05-02T06:47:11.673Z</time></trkpt><trkpt lat="42.4488611" lon="14.1225894"><ele>132.0</ele><time>2026-05-02T06:48:41.695Z</time></trkpt><trkpt lat="42.4486892" lon="14.1225631"><ele>132.0</ele><time>2026-05-02T06:48:44.716Z</time></trkpt><trkpt lat="42.4486102" lon="14.122532"><ele>132.0</ele><time>2026-05-02T06:48:45.696Z</time></trkpt><trkpt lat="42.4485383" lon="14.1224967"><ele>131.6</ele><time>2026-05-02T06:48:46.707Z</time></trkpt><trkpt lat="42.4484556" lon="14.1224501"><ele>131.2</ele><time>2026-05-02T06:48:47.698Z</time></trkpt><trkpt lat="42.4483708" lon="14.1224062"><ele>130.8</ele><time>2026-05-02T06:48:48.699Z</time></trkpt><trkpt lat="42.4482818" lon="14.1223558"><ele>130.4</ele><time>2026-05-02T06:48:49.669Z</time></trkpt><trkpt lat="42.4481942" lon="14.1222972"><ele>130.0</ele><time>2026-05-02T06:48:50.703Z</time></trkpt><trkpt lat="42.4481015" lon="14.1222438"><ele>129.4</ele><time>2026-05-02T06:48:51.689Z</time></trkpt><trkpt lat="42.4480132" lon="14.122183"><ele>128.8</ele><time>2026-05-02T06:48:52.695Z</time></trkpt><trkpt lat="42.4479211" lon="14.1221057"><ele>128.2</ele><time>2026-05-02T06:48:53.68Z</time></trkpt><trkpt lat="42.4478272" lon="14.1220379"><ele>127.6</ele><time>2026-05-02T06:48:54.703Z</time></trkpt><trkpt lat="42.4477347" lon="14.1219781"><ele>127.0</ele><time>2026-05-02T06:48:55.695Z</time></trkpt><trkpt lat="42.4476547" lon="14.121925"><ele>128.6</ele><time>2026-05-02T06:48:56.695Z</time></trkpt><trkpt lat="42.4475747" lon="14.1218793"><ele>130.2</ele><time>2026-05-02T06:48:57.696Z</time></trkpt><trkpt lat="42.4474949" lon="14.1218217"><ele>131.8</ele><time>2026-05-02T06:48:58.704Z</time></trkpt><trkpt lat="42.4473954" lon="14.1217865"><ele>133.4</ele><time>2026-05-02T06:48:59.684Z</time></trkpt><trkpt lat="42.4472791" lon="14.1217779"><ele>135.0</ele><time>2026-05-02T06:49:00.692Z</time></trkpt><trkpt lat="42.4471463" lon="14.1217587"><ele>134.25</ele><time>2026-05-02T06:49:01.721Z</time></trkpt><trkpt lat="42.4470168" lon="14.1217303"><ele>133.5</ele><time>2026-05-02T06:49:02.71Z</time></trkpt><trkpt lat="42.4468953" lon="14.121714"><ele>132.75</ele><time>2026-05-02T06:49:03.68Z</time></trkpt><trkpt lat="42.4467667" lon="14.1217073"><ele>132.0</ele><time>2026-05-02T06:49:04.703Z</time></trkpt><trkpt lat="42.4466371" lon="14.121714"><ele>132.0</ele><time>2026-05-02T06:49:05.698Z</time></trkpt><trkpt lat="42.4464955" lon="14.1217528"><ele>132.0</ele><time>2026-05-02T06:49:06.703Z</time></trkpt><trkpt lat="42.4463407" lon="14.121799"><ele>132.0</ele><time>2026-05-02T06:49:07.704Z</time></trkpt><trkpt lat="42.4461963" lon="14.1218445"><ele>131.0</ele><time>2026-05-02T06:49:08.689Z</time></trkpt><trkpt lat="42.4460617" lon="14.121873"><ele>130.0</ele><time>2026-05-02T06:49:09.693Z</time></trkpt><trkpt lat="42.4459341" lon="14.1219043"><ele>129.0</ele><time>2026-05-02T06:49:10.707Z</time></trkpt><trkpt lat="42.4458346" lon="14.1219384"><ele>128.0</ele><time>2026-05-02T06:49:11.707Z</time></trkpt><trkpt lat="42.4457353" lon="14.1219981"><ele>128.0</ele><time>2026-05-02T06:49:12.687Z</time></trkpt><trkpt lat="42.4456334" lon="14.1220836"><ele>128.0</ele><time>2026-05-02T06:49:13.683Z</time></trkpt><trkpt lat="42.4455398" lon="14.1222044"><ele>128.0</ele><time>2026-05-02T06:49:14.686Z</time></trkpt><trkpt lat="42.4454506" lon="14.122332"><ele>128.0</ele><time>2026-05-02T06:49:15.69Z</time></trkpt><trkpt lat="42.4453635" lon="14.122445"><ele>127.5</ele><time>2026-05-02T06:49:16.685Z</time></trkpt><trkpt lat="42.4452605" lon="14.1225423"><ele>127.0</ele><time>2026-05-02T06:49:17.689Z</time></trkpt><trkpt lat="42.4451487" lon="14.1226122"><ele>126.5</ele><time>2026-05-02T06:49:18.688Z</time></trkpt><trkpt lat="42.4450287" lon="14.1226831"><ele>126.0</ele><time>2026-05-02T06:49:19.795Z</time></trkpt><trkpt lat="42.4449098" lon="14.1227475"><ele>126.0</ele><time>2026-05-02T06:49:20.737Z</time></trkpt><trkpt lat="42.4448023" lon="14.1228232"><ele>126.0</ele><time>2026-05-02T06:49:21.74Z</time></trkpt><trkpt lat="42.444697" lon="14.1229235"><ele>126.0</ele><time>2026-05-02T06:49:22.739Z</time></trkpt><trkpt lat="42.4445917" lon="14.1230713"><ele>126.0</ele><time>2026-05-02T06:49:23.728Z</time></trkpt><trkpt lat="42.4444829" lon="14.1232177"><ele>124.25</ele><time>2026-05-02T06:49:24.746Z</time></trkpt><trkpt lat="42.4443783" lon="14.1233401"><ele>122.5</ele><time>2026-05-02T06:49:25.74Z</time></trkpt><trkpt lat="42.4442843" lon="14.1234122"><ele>120.75</ele><time>2026-05-02T06:49:26.741Z</time></trkpt><trkpt lat="42.4441797" lon="14.1234508"><ele>119.0</ele><time>2026-05-02T06:49:27.735Z</time></trkpt><trkpt lat="42.4440753" lon="14.1234548"><ele>119.0</ele><time>2026-05-02T06:49:28.741Z</time></trkpt><trkpt lat="42.4439639" lon="14.1234403"><ele>119.0</ele><time>2026-05-02T06:49:29.728Z</time></trkpt><trkpt lat="42.4438476" lon="14.1234343"><ele>119.0</ele><time>2026-05-02T06:49:30.735Z</time></trkpt><trkpt lat="42.4437221" lon="14.1234545"><ele>119.0</ele><time>2026-05-02T06:49:31.726Z</time></trkpt><trkpt lat="42.4435823" lon="14.1234928"><ele>117.0</ele><time>2026-05-02T06:49:32.734Z</time></trkpt><trkpt lat="42.4434459" lon="14.1235489"><ele>115.0</ele><time>2026-05-02T06:49:33.726Z</time></trkpt><trkpt lat="42.4432996" lon="14.1235908"><ele>113.0</ele><time>2026-05-02T06:49:34.725Z</time></trkpt><trkpt lat="42.4431499" lon="14.1236375"><ele>111.0</ele><time>2026-05-02T06:49:35.725Z</time></trkpt><trkpt lat="42.4429852" lon="14.1236951"><ele>109.0</ele><time>2026-05-02T06:49:36.738Z</time></trkpt><trkpt lat="42.44282" lon="14.1237593"><ele>107.0</ele><time>2026-05-02T06:49:37.72Z</time></trkpt><trkpt lat="42.4426524" lon="14.1238119"><ele>105.0</ele><time>2026-05-02T06:49:38.736Z</time></trkpt><trkpt lat="42.4424877" lon="14.1238518"><ele>105.0</ele><time>2026-05-02T06:49:39.719Z</time></trkpt><trkpt lat="42.4423161" lon="14.1238896"><ele>105.0</ele><time>2026-05-02T06:49:40.727Z</time></trkpt><trkpt lat="42.4421494" lon="14.1239165"><ele>105.0</ele><time>2026-05-02T06:49:41.681Z</time></trkpt><trkpt lat="42.4419898" lon="14.1239232"><ele>107.66666666666666</ele><time>2026-05-02T06:49:42.685Z</time></trkpt><trkpt lat="42.4418326" lon="14.1239145"><ele>110.33333333333333</ele><time>2026-05-02T06:49:43.683Z</time></trkpt><trkpt lat="42.4416786" lon="14.1238917"><ele>113.0</ele><time>2026-05-02T06:49:44.676Z</time></trkpt><trkpt lat="42.4415393" lon="14.1238641"><ele>113.0</ele><time>2026-05-02T06:49:45.732Z</time></trkpt><trkpt lat="42.441411" lon="14.1238228"><ele>113.0</ele><time>2026-05-02T06:49:46.681Z</time></trkpt><trkpt lat="42.4412816" lon="14.1237606"><ele>113.0</ele><time>2026-05-02T06:49:47.682Z</time></trkpt><trkpt lat="42.4411566" lon="14.1236772"><ele>113.0</ele><time>2026-05-02T06:49:48.691Z</time></trkpt><trkpt lat="42.4410265" lon="14.123591"><ele>111.25</ele><time>2026-05-02T06:49:49.685Z</time></trkpt><trkpt lat="42.4408882" lon="14.1234987"><ele>109.5</ele><time>2026-05-02T06:49:50.705Z</time></trkpt><trkpt lat="42.4407586" lon="14.1234165"><ele>107.75</ele><time>2026-05-02T06:49:51.693Z</time></trkpt><trkpt lat="42.4406383" lon="14.1233529"><ele>106.0</ele><time>2026-05-02T06:49:52.698Z</time></trkpt><trkpt lat="42.440515" lon="14.1233027"><ele>106.25</ele><time>2026-05-02T06:49:53.694Z</time></trkpt><trkpt lat="42.4403811" lon="14.123265"><ele>106.5</ele><time>2026-05-02T06:49:54.68Z</time></trkpt><trkpt lat="42.44024" lon="14.1232292"><ele>106.75</ele><time>2026-05-02T06:49:55.683Z</time></trkpt><trkpt lat="42.4400983" lon="14.1232087"><ele>107.0</ele><time>2026-05-02T06:49:56.675Z</time></trkpt><trkpt lat="42.4399634" lon="14.123198"><ele>107.0</ele><time>2026-05-02T06:49:57.674Z</time></trkpt><trkpt lat="42.4398288" lon="14.123201"><ele>107.0</ele><time>2026-05-02T06:49:58.666Z</time></trkpt><trkpt lat="42.4397033" lon="14.1232199"><ele>107.0</ele><time>2026-05-02T06:49:59.676Z</time></trkpt><trkpt lat="42.4395852" lon="14.1232537"><ele>107.0</ele><time>2026-05-02T06:50:00.673Z</time></trkpt><trkpt lat="42.4394672" lon="14.1233101"><ele>100.25</ele><time>2026-05-02T06:50:01.683Z</time></trkpt><trkpt lat="42.4393471" lon="14.1233557"><ele>93.5</ele><time>2026-05-02T06:50:02.726Z</time></trkpt><trkpt lat="42.4392211" lon="14.1234068"><ele>86.75</ele><time>2026-05-02T06:50:03.687Z</time></trkpt><trkpt lat="42.4390768" lon="14.1234454"><ele>80.0</ele><time>2026-05-02T06:50:04.707Z</time></trkpt><trkpt lat="42.438934" lon="14.1234729"><ele>76.33333333333334</ele><time>2026-05-02T06:50:05.677Z</time></trkpt><trkpt lat="42.438777" lon="14.1234966"><ele>72.66666666666667</ele><time>2026-05-02T06:50:06.695Z</time></trkpt><trkpt lat="42.438611" lon="14.123522"><ele>69.0</ele><time>2026-05-02T06:50:07.689Z</time></trkpt><trkpt lat="42.4384512" lon="14.1235613"><ele>69.0</ele><time>2026-05-02T06:50:08.682Z</time></trkpt><trkpt lat="42.4382968" lon="14.1236074"><ele>69.0</ele><time>2026-05-02T06:50:09.686Z</time></trkpt><trkpt lat="42.4381416" lon="14.1236607"><ele>69.0</ele><time>2026-05-02T06:50:10.691Z</time></trkpt><trkpt lat="42.4379949" lon="14.1237125"><ele>68.75</ele><time>2026-05-02T06:50:11.69Z</time></trkpt><trkpt lat="42.4378705" lon="14.123748"><ele>68.5</ele><time>2026-05-02T06:50:12.689Z</time></trkpt><trkpt lat="42.437756" lon="14.12377"><ele>68.25</ele><time>2026-05-02T06:50:13.682Z</time></trkpt><trkpt lat="42.4376467" lon="14.1237637"><ele>68.0</ele><time>2026-05-02T06:50:14.68Z</time></trkpt><trkpt lat="42.437544" lon="14.1237231"><ele>68.0</ele><time>2026-05-02T06:50:15.68Z</time></trkpt><trkpt lat="42.4374215" lon="14.1236756"><ele>68.0</ele><time>2026-05-02T06:50:16.677Z</time></trkpt><trkpt lat="42.4373028" lon="14.1236462"><ele>68.0</ele><time>2026-05-02T06:50:17.693Z</time></trkpt><trkpt lat="42.4371931" lon="14.1235966"><ele>68.0</ele><time>2026-05-02T06:50:18.681Z</time></trkpt><trkpt lat="42.4370751" lon="14.1235254"><ele>65.5</ele><time>2026-05-02T06:50:19.676Z</time></trkpt><trkpt lat="42.4369579" lon="14.1234375"><ele>63.0</ele><time>2026-05-02T06:50:20.68Z</time></trkpt><trkpt lat="42.4368193" lon="14.1233646"><ele>60.5</ele><time>2026-05-02T06:50:21.671Z</time></trkpt><trkpt lat="42.4366695" lon="14.1233053"><ele>58.0</ele><time>2026-05-02T06:50:22.664Z</time></trkpt><trkpt lat="42.4365236" lon="14.1232565"><ele>58.5</ele><time>2026-05-02T06:50:23.671Z</time></trkpt><trkpt lat="42.4363773" lon="14.1232041"><ele>59.0</ele><time>2026-05-02T06:50:24.674Z</time></trkpt><trkpt lat="42.4362434" lon="14.1231577"><ele>59.5</ele><time>2026-05-02T06:50:25.68Z</time></trkpt><trkpt lat="42.4361189" lon="14.1231241"><ele>60.0</ele><time>2026-05-02T06:50:26.674Z</time></trkpt><trkpt lat="42.436008" lon="14.1231033"><ele>60.8</ele><time>2026-05-02T06:50:27.666Z</time></trkpt><trkpt lat="42.4359013" lon="14.1230805"><ele>61.6</ele><time>2026-05-02T06:50:28.661Z</time></trkpt><trkpt lat="42.4358081" lon="14.123051"><ele>62.400000000000006</ele><time>2026-05-02T06:50:29.661Z</time></trkpt><trkpt lat="42.4357153" lon="14.1230511"><ele>63.2</ele><time>2026-05-02T06:50:30.665Z</time></trkpt><trkpt lat="42.435624" lon="14.1230941"><ele>64.0</ele><time>2026-05-02T06:50:31.679Z</time></trkpt><trkpt lat="42.4355343" lon="14.1231453"><ele>64.5</ele><time>2026-05-02T06:50:32.669Z</time></trkpt><trkpt lat="42.4354344" lon="14.1232257"><ele>65.0</ele><time>2026-05-02T06:50:33.67Z</time></trkpt><trkpt lat="42.4353342" lon="14.1233375"><ele>65.5</ele><time>2026-05-02T06:50:34.672Z</time></trkpt><trkpt lat="42.4352266" lon="14.1234684"><ele>66.0</ele><time>2026-05-02T06:50:35.677Z</time></trkpt><trkpt lat="42.4351171" lon="14.1236016"><ele>66.0</ele><time>2026-05-02T06:50:36.681Z</time></trkpt><trkpt lat="42.4350021" lon="14.1237375"><ele>66.0</ele><time>2026-05-02T06:50:37.674Z</time></trkpt><trkpt lat="42.4348852" lon="14.1238819"><ele>66.0</ele><time>2026-05-02T06:50:38.681Z</time></trkpt><trkpt lat="42.4347695" lon="14.1240366"><ele>65.33333333333333</ele><time>2026-05-02T06:50:39.673Z</time></trkpt><trkpt lat="42.4346326" lon="14.1242144"><ele>64.66666666666666</ele><time>2026-05-02T06:50:40.682Z</time></trkpt><trkpt lat="42.4344977" lon="14.1243978"><ele>64.0</ele><time>2026-05-02T06:50:41.691Z</time></trkpt><trkpt lat="42.4343608" lon="14.1245926"><ele>64.0</ele><time>2026-05-02T06:50:42.663Z</time></trkpt><trkpt lat="42.4342123" lon="14.1247904"><ele>64.0</ele><time>2026-05-02T06:50:43.674Z</time></trkpt><trkpt lat="42.4340721" lon="14.1249831"><ele>64.0</ele><time>2026-05-02T06:50:44.679Z</time></trkpt><trkpt lat="42.4339468" lon="14.1251519"><ele>63.400000000000006</ele><time>2026-05-02T06:50:45.682Z</time></trkpt><trkpt lat="42.4338384" lon="14.1252872"><ele>62.800000000000004</ele><time>2026-05-02T06:50:46.684Z</time></trkpt><trkpt lat="42.4337633" lon="14.1253884"><ele>62.199999999999996</ele><time>2026-05-02T06:50:47.676Z</time></trkpt><trkpt lat="42.4336828" lon="14.1254602"><ele>61.599999999999994</ele><time>2026-05-02T06:50:49.689Z</time></trkpt><trkpt lat="42.4336216" lon="14.1253788"><ele>61.0</ele><time>2026-05-02T06:50:52.669Z</time></trkpt><trkpt lat="42.4335632" lon="14.1252558"><ele>61.0</ele><time>2026-05-02T06:50:54.665Z</time></trkpt><trkpt lat="42.433481" lon="14.1250733"><ele>60.99999999999999</ele><time>2026-05-02T06:50:57.662Z</time></trkpt><trkpt lat="42.4334088" lon="14.1250859"><ele>60.99999999999999</ele><time>2026-05-02T06:50:58.673Z</time></trkpt><trkpt lat="42.4333378" lon="14.1251201"><ele>61.0</ele><time>2026-05-02T06:50:59.674Z</time></trkpt><trkpt lat="42.4332507" lon="14.1252328"><ele>61.0</ele><time>2026-05-02T06:51:01.683Z</time></trkpt><trkpt lat="42.4331848" lon="14.1253129"><ele>61.0</ele><time>2026-05-02T06:51:02.671Z</time></trkpt><trkpt lat="42.4331042" lon="14.1253943"><ele>61.0</ele><time>2026-05-02T06:51:03.674Z</time></trkpt><trkpt lat="42.433005" lon="14.1254782"><ele>61.0</ele><time>2026-05-02T06:51:04.675Z</time></trkpt><trkpt lat="42.4328955" lon="14.1255571"><ele>61.0</ele><time>2026-05-02T06:51:05.67Z</time></trkpt><trkpt lat="42.4327929" lon="14.1256289"><ele>61.4</ele><time>2026-05-02T06:51:06.694Z</time></trkpt><trkpt lat="42.4327016" lon="14.1257222"><ele>61.8</ele><time>2026-05-02T06:51:07.676Z</time></trkpt><trkpt lat="42.4326127" lon="14.1258199"><ele>62.199999999999996</ele><time>2026-05-02T06:51:08.675Z</time></trkpt><trkpt lat="42.4325253" lon="14.1258913"><ele>62.599999999999994</ele><time>2026-05-02T06:51:09.676Z</time></trkpt><trkpt lat="42.4324269" lon="14.125945"><ele>63.0</ele><time>2026-05-02T06:51:10.673Z</time></trkpt><trkpt lat="42.4323177" lon="14.1260004"><ele>63.0</ele><time>2026-05-02T06:51:11.668Z</time></trkpt><trkpt lat="42.432203" lon="14.1260692"><ele>63.0</ele><time>2026-05-02T06:51:12.68Z</time></trkpt><trkpt lat="42.4320888" lon="14.126147"><ele>63.0</ele><time>2026-05-02T06:51:13.684Z</time></trkpt><trkpt lat="42.431969" lon="14.1262213"><ele>63.0</ele><time>2026-05-02T06:51:14.673Z</time></trkpt><trkpt lat="42.4318606" lon="14.126277"><ele>64.8</ele><time>2026-05-02T06:51:15.679Z</time></trkpt><trkpt lat="42.4317712" lon="14.1262951"><ele>66.6</ele><time>2026-05-02T06:51:16.674Z</time></trkpt><trkpt lat="42.4316744" lon="14.1262988"><ele>68.4</ele><time>2026-05-02T06:51:17.669Z</time></trkpt><trkpt lat="42.4315579" lon="14.1263061"><ele>70.2</ele><time>2026-05-02T06:51:18.673Z</time></trkpt><trkpt lat="42.4314323" lon="14.1263155"><ele>72.0</ele><time>2026-05-02T06:51:19.677Z</time></trkpt><trkpt lat="42.4313105" lon="14.1263465"><ele>73.0</ele><time>2026-05-02T06:51:20.676Z</time></trkpt><trkpt lat="42.4311827" lon="14.1263864"><ele>74.0</ele><time>2026-05-02T06:51:21.672Z</time></trkpt><trkpt lat="42.4310535" lon="14.1264428"><ele>75.0</ele><time>2026-05-02T06:51:22.681Z</time></trkpt><trkpt lat="42.4309332" lon="14.1265152"><ele>76.0</ele><time>2026-05-02T06:51:23.673Z</time></trkpt><trkpt lat="42.4308305" lon="14.126603"><ele>76.0</ele><time>2026-05-02T06:51:24.674Z</time></trkpt><trkpt lat="42.4307385" lon="14.1267182"><ele>76.0</ele><time>2026-05-02T06:51:25.68Z</time></trkpt><trkpt lat="42.4306443" lon="14.1268176"><ele>76.0</ele><time>2026-05-02T06:51:26.675Z</time></trkpt><trkpt lat="42.4305476" lon="14.1268751"><ele>76.0</ele><time>2026-05-02T06:51:27.688Z</time></trkpt><trkpt lat="42.4304645" lon="14.1268943"><ele>76.0</ele><time>2026-05-02T06:51:28.68Z</time></trkpt><trkpt lat="42.4303844" lon="14.1268939"><ele>76.83333333333333</ele><time>2026-05-02T06:51:29.674Z</time></trkpt><trkpt lat="42.4303173" lon="14.1268677"><ele>77.66666666666666</ele><time>2026-05-02T06:51:30.684Z</time></trkpt><trkpt lat="42.4302538" lon="14.1268237"><ele>78.5</ele><time>2026-05-02T06:51:33.68Z</time></trkpt><trkpt lat="42.4302142" lon="14.1267418"><ele>79.33333333333333</ele><time>2026-05-02T06:51:36.678Z</time></trkpt><trkpt lat="42.4301478" lon="14.1267112"><ele>80.16666666666667</ele><time>2026-05-02T06:51:38.68Z</time></trkpt><trkpt lat="42.4300314" lon="14.1267335"><ele>81.0</ele><time>2026-05-02T06:51:40.676Z</time></trkpt><trkpt lat="42.4299338" lon="14.1267778"><ele>81.0</ele><time>2026-05-02T06:51:41.672Z</time></trkpt><trkpt lat="42.4298234" lon="14.1268284"><ele>81.0</ele><time>2026-05-02T06:51:42.669Z</time></trkpt><trkpt lat="42.4297101" lon="14.1268793"><ele>81.0</ele><time>2026-05-02T06:51:43.67Z</time></trkpt><trkpt lat="42.4295886" lon="14.1269138"><ele>81.0</ele><time>2026-05-02T06:51:44.669Z</time></trkpt><trkpt lat="42.4294723" lon="14.12693"><ele>77.5</ele><time>2026-05-02T06:51:45.668Z</time></trkpt><trkpt lat="42.4293576" lon="14.1269212"><ele>74.0</ele><time>2026-05-02T06:51:46.683Z</time></trkpt><trkpt lat="42.429247" lon="14.1269228"><ele>70.5</ele><time>2026-05-02T06:51:47.666Z</time></trkpt><trkpt lat="42.429138" lon="14.1269096"><ele>67.0</ele><time>2026-05-02T06:51:48.669Z</time></trkpt><trkpt lat="42.4290219" lon="14.1268703"><ele>67.0</ele><time>2026-05-02T06:51:49.672Z</time></trkpt><trkpt lat="42.4289144" lon="14.1268166"><ele>67.0</ele><time>2026-05-02T06:51:50.671Z</time></trkpt><trkpt lat="42.4288262" lon="14.1267429"><ele>67.0</ele><time>2026-05-02T06:51:51.677Z</time></trkpt><trkpt lat="42.4287559" lon="14.1266588"><ele>67.0</ele><time>2026-05-02T06:51:52.658Z</time></trkpt><trkpt lat="42.4286982" lon="14.126558"><ele>67.0</ele><time>2026-05-02T06:51:53.671Z</time></trkpt><trkpt lat="42.4286395" lon="14.1264503"><ele>64.0</ele><time>2026-05-02T06:51:54.672Z</time></trkpt><trkpt lat="42.4285728" lon="14.1263378"><ele>61.0</ele><time>2026-05-02T06:51:55.664Z</time></trkpt><trkpt lat="42.4285109" lon="14.1262324"><ele>58.0</ele><time>2026-05-02T06:51:56.667Z</time></trkpt><trkpt lat="42.4284453" lon="14.1261524"><ele>55.0</ele><time>2026-05-02T06:51:57.669Z</time></trkpt><trkpt lat="42.428373" lon="14.1260888"><ele>52.0</ele><time>2026-05-02T06:51:58.662Z</time></trkpt><trkpt lat="42.4282842" lon="14.1260331"><ele>52.0</ele><time>2026-05-02T06:51:59.674Z</time></trkpt><trkpt lat="42.428204" lon="14.1260094"><ele>52.0</ele><time>2026-05-02T06:52:00.672Z</time></trkpt><trkpt lat="42.428128" lon="14.1260191"><ele>52.0</ele><time>2026-05-02T06:52:01.671Z</time></trkpt><trkpt lat="42.4280357" lon="14.1260166"><ele>52.0</ele><time>2026-05-02T06:52:02.657Z</time></trkpt><trkpt lat="42.4279242" lon="14.1260215"><ele>52.0</ele><time>2026-05-02T06:52:03.667Z</time></trkpt><trkpt lat="42.4278165" lon="14.126"><ele>50.25</ele><time>2026-05-02T06:52:04.667Z</time></trkpt><trkpt lat="42.4276812" lon="14.1259588"><ele>48.5</ele><time>2026-05-02T06:52:05.666Z</time></trkpt><trkpt lat="42.4275439" lon="14.1258855"><ele>46.75</ele><time>2026-05-02T06:52:06.666Z</time></trkpt><trkpt lat="42.4274021" lon="14.1258094"><ele>45.0</ele><time>2026-05-02T06:52:07.667Z</time></trkpt><trkpt lat="42.4272749" lon="14.1257572"><ele>45.0</ele><time>2026-05-02T06:52:08.665Z</time></trkpt><trkpt lat="42.427156" lon="14.1257384"><ele>45.0</ele><time>2026-05-02T06:52:09.675Z</time></trkpt><trkpt lat="42.4270505" lon="14.1257355"><ele>45.0</ele><time>2026-05-02T06:52:10.666Z</time></trkpt><trkpt lat="42.4269556" lon="14.1257135"><ele>45.0</ele><time>2026-05-02T06:52:11.666Z</time></trkpt><trkpt lat="42.4268927" lon="14.1256732"><ele>45.0</ele><time>2026-05-02T06:52:12.671Z</time></trkpt><trkpt lat="42.4268261" lon="14.1255953"><ele>43.2</ele><time>2026-05-02T06:52:14.664Z</time></trkpt><trkpt lat="42.4267814" lon="14.125501"><ele>41.4</ele><time>2026-05-02T06:52:18.667Z</time></trkpt><trkpt lat="42.4268025" lon="14.1253647"><ele>39.6</ele><time>2026-05-02T06:52:20.665Z</time></trkpt><trkpt lat="42.4268357" lon="14.1251773"><ele>37.8</ele><time>2026-05-02T06:52:22.691Z</time></trkpt><trkpt lat="42.4268559" lon="14.1250689"><ele>36.0</ele><time>2026-05-02T06:52:23.689Z</time></trkpt><trkpt lat="42.4268771" lon="14.1249427"><ele>36.6</ele><time>2026-05-02T06:52:24.679Z</time></trkpt><trkpt lat="42.4268996" lon="14.1248097"><ele>37.2</ele><time>2026-05-02T06:52:25.691Z</time></trkpt><trkpt lat="42.4269213" lon="14.1246741"><ele>37.8</ele><time>2026-05-02T06:52:26.683Z</time></trkpt><trkpt lat="42.4269517" lon="14.124551"><ele>38.4</ele><time>2026-05-02T06:52:27.675Z</time></trkpt><trkpt lat="42.4269801" lon="14.1244508"><ele>39.0</ele><time>2026-05-02T06:52:28.678Z</time></trkpt><trkpt lat="42.4269478" lon="14.1243244"><ele>39.0</ele><time>2026-05-02T06:52:30.672Z</time></trkpt><trkpt lat="42.426842" lon="14.1242964"><ele>39.0</ele><time>2026-05-02T06:52:32.664Z</time></trkpt><trkpt lat="42.4267551" lon="14.1242837"><ele>39.0</ele><time>2026-05-02T06:52:33.676Z</time></trkpt><trkpt lat="42.426671" lon="14.1242288"><ele>39.0</ele><time>2026-05-02T06:52:34.678Z</time></trkpt><trkpt lat="42.4265871" lon="14.1241572"><ele>39.0</ele><time>2026-05-02T06:52:35.673Z</time></trkpt><trkpt lat="42.4265164" lon="14.1240767"><ele>38.8</ele><time>2026-05-02T06:52:36.677Z</time></trkpt><trkpt lat="42.4264662" lon="14.1239761"><ele>38.599999999999994</ele><time>2026-05-02T06:52:37.676Z</time></trkpt><trkpt lat="42.4264126" lon="14.1238555"><ele>38.4</ele><time>2026-05-02T06:52:38.679Z</time></trkpt><trkpt lat="42.4263697" lon="14.1237149"><ele>38.199999999999996</ele><time>2026-05-02T06:52:39.688Z</time></trkpt><trkpt lat="42.4263315" lon="14.123548"><ele>38.0</ele><time>2026-05-02T06:52:40.689Z</time></trkpt><trkpt lat="42.4263026" lon="14.1233644"><ele>38.0</ele><time>2026-05-02T06:52:41.679Z</time></trkpt><trkpt lat="42.4262689" lon="14.1231784"><ele>38.0</ele><time>2026-05-02T06:52:42.699Z</time></trkpt><trkpt lat="42.4262365" lon="14.1229799"><ele>38.0</ele><time>2026-05-02T06:52:43.663Z</time></trkpt><trkpt lat="42.4262039" lon="14.1227604"><ele>38.0</ele><time>2026-05-02T06:52:44.682Z</time></trkpt><trkpt lat="42.4261775" lon="14.1225412"><ele>38.0</ele><time>2026-05-02T06:52:45.683Z</time></trkpt><trkpt lat="42.4261492" lon="14.1223112"><ele>38.0</ele><time>2026-05-02T06:52:46.679Z</time></trkpt><trkpt lat="42.4261239" lon="14.1220696"><ele>38.33333333333333</ele><time>2026-05-02T06:52:47.678Z</time></trkpt><trkpt lat="42.4260933" lon="14.1218234"><ele>38.666666666666664</ele><time>2026-05-02T06:52:48.67Z</time></trkpt><trkpt lat="42.4260617" lon="14.121576"><ele>39.0</ele><time>2026-05-02T06:52:49.686Z</time></trkpt><trkpt lat="42.4260236" lon="14.1213319"><ele>39.666666666666664</ele><time>2026-05-02T06:52:50.673Z</time></trkpt><trkpt lat="42.42599" lon="14.1210975"><ele>40.33333333333333</ele><time>2026-05-02T06:52:51.675Z</time></trkpt><trkpt lat="42.4259459" lon="14.1208781"><ele>41.0</ele><time>2026-05-02T06:52:52.677Z</time></trkpt><trkpt lat="42.4258767" lon="14.1206644"><ele>42.33333333333333</ele><time>2026-05-02T06:52:53.67Z</time></trkpt><trkpt lat="42.4257947" lon="14.1204549"><ele>43.666666666666664</ele><time>2026-05-02T06:52:54.692Z</time></trkpt><trkpt lat="42.4257116" lon="14.1202514"><ele>45.0</ele><time>2026-05-02T06:52:55.678Z</time></trkpt><trkpt lat="42.4256386" lon="14.1200453"><ele>47.0</ele><time>2026-05-02T06:52:56.683Z</time></trkpt><trkpt lat="42.4255759" lon="14.1198427"><ele>49.0</ele><time>2026-05-02T06:52:57.668Z</time></trkpt><trkpt lat="42.4255164" lon="14.1196327"><ele>51.0</ele><time>2026-05-02T06:52:58.675Z</time></trkpt><trkpt lat="42.4254725" lon="14.1194152"><ele>47.0</ele><time>2026-05-02T06:52:59.676Z</time></trkpt><trkpt lat="42.4254339" lon="14.1191778"><ele>43.0</ele><time>2026-05-02T06:53:00.667Z</time></trkpt><trkpt lat="42.4253967" lon="14.1189174"><ele>39.0</ele><time>2026-05-02T06:53:01.674Z</time></trkpt><trkpt lat="42.4253537" lon="14.1186449"><ele>39.0</ele><time>2026-05-02T06:53:02.672Z</time></trkpt><trkpt lat="42.4253033" lon="14.1183733"><ele>39.0</ele><time>2026-05-02T06:53:03.679Z</time></trkpt><trkpt lat="42.4252531" lon="14.1180926"><ele>39.0</ele><time>2026-05-02T06:53:04.672Z</time></trkpt><trkpt lat="42.4252076" lon="14.1178003"><ele>39.333333333333336</ele><time>2026-05-02T06:53:05.671Z</time></trkpt><trkpt lat="42.4251598" lon="14.1175071"><ele>39.66666666666667</ele><time>2026-05-02T06:53:06.683Z</time></trkpt><trkpt lat="42.4251216" lon="14.1172063"><ele>40.0</ele><time>2026-05-02T06:53:07.681Z</time></trkpt><trkpt lat="42.4250947" lon="14.1168856"><ele>42.0</ele><time>2026-05-02T06:53:08.695Z</time></trkpt><trkpt lat="42.4250782" lon="14.1165637"><ele>44.0</ele><time>2026-05-02T06:53:09.672Z</time></trkpt><trkpt lat="42.4250584" lon="14.1162414"><ele>44.0</ele><time>2026-05-02T06:53:10.662Z</time></trkpt><trkpt lat="42.4250352" lon="14.1159117"><ele>44.0</ele><time>2026-05-02T06:53:11.679Z</time></trkpt><trkpt lat="42.4250105" lon="14.1155817"><ele>44.5</ele><time>2026-05-02T06:53:12.663Z</time></trkpt><trkpt lat="42.4249833" lon="14.1152492"><ele>45.0</ele><time>2026-05-02T06:53:13.688Z</time></trkpt><trkpt lat="42.424959" lon="14.1149241"><ele>46.5</ele><time>2026-05-02T06:53:14.669Z</time></trkpt><trkpt lat="42.4249399" lon="14.1146032"><ele>48.0</ele><time>2026-05-02T06:53:15.67Z</time></trkpt><trkpt lat="42.4249219" lon="14.1142831"><ele>48.66666666666667</ele><time>2026-05-02T06:53:16.676Z</time></trkpt><trkpt lat="42.424903" lon="14.113984"><ele>49.333333333333336</ele><time>2026-05-02T06:53:17.683Z</time></trkpt><trkpt lat="42.4248833" lon="14.1137188"><ele>50.0</ele><time>2026-05-02T06:53:18.685Z</time></trkpt><trkpt lat="42.4248622" lon="14.1134725"><ele>50.0</ele><time>2026-05-02T06:53:19.691Z</time></trkpt><trkpt lat="42.4248532" lon="14.1132456"><ele>50.0</ele><time>2026-05-02T06:53:20.674Z</time></trkpt><trkpt lat="42.4248473" lon="14.1130318"><ele>50.0</ele><time>2026-05-02T06:53:21.676Z</time></trkpt><trkpt lat="42.4248564" lon="14.1128293"><ele>50.5</ele><time>2026-05-02T06:53:22.679Z</time></trkpt><trkpt lat="42.42488" lon="14.1126393"><ele>51.0</ele><time>2026-05-02T06:53:23.676Z</time></trkpt><trkpt lat="42.4249167" lon="14.1124573"><ele>51.5</ele><time>2026-05-02T06:53:24.68Z</time></trkpt><trkpt lat="42.4249669" lon="14.1122659"><ele>52.0</ele><time>2026-05-02T06:53:25.677Z</time></trkpt><trkpt lat="42.4250141" lon="14.1120629"><ele>51.2</ele><time>2026-05-02T06:53:26.694Z</time></trkpt><trkpt lat="42.4250615" lon="14.1118711"><ele>50.400000000000006</ele><time>2026-05-02T06:53:27.668Z</time></trkpt><trkpt lat="42.4251049" lon="14.1117013"><ele>49.599999999999994</ele><time>2026-05-02T06:53:28.675Z</time></trkpt><trkpt lat="42.4251448" lon="14.1115904"><ele>48.8</ele><time>2026-05-02T06:53:29.689Z</time></trkpt><trkpt lat="42.4251779" lon="14.111499"><ele>48.0</ele><time>2026-05-02T06:53:30.679Z</time></trkpt><trkpt lat="42.4251504" lon="14.111403"><ele>48.0</ele><time>2026-05-02T06:53:32.684Z</time></trkpt><trkpt lat="42.4250873" lon="14.1114258"><ele>48.0</ele><time>2026-05-02T06:53:34.67Z</time></trkpt><trkpt lat="42.4249727" lon="14.111525"><ele>48.0</ele><time>2026-05-02T06:53:36.67Z</time></trkpt><trkpt lat="42.4248738" lon="14.1116132"><ele>48.0</ele><time>2026-05-02T06:53:37.682Z</time></trkpt><trkpt lat="42.424769" lon="14.1116951"><ele>48.0</ele><time>2026-05-02T06:53:38.682Z</time></trkpt><trkpt lat="42.4246565" lon="14.111766"><ele>46.5</ele><time>2026-05-02T06:53:39.675Z</time></trkpt><trkpt lat="42.4245361" lon="14.1118065"><ele>45.0</ele><time>2026-05-02T06:53:40.684Z</time></trkpt><trkpt lat="42.4244127" lon="14.1118447"><ele>43.5</ele><time>2026-05-02T06:53:41.683Z</time></trkpt><trkpt lat="42.4243044" lon="14.1118797"><ele>42.0</ele><time>2026-05-02T06:53:42.679Z</time></trkpt><trkpt lat="42.4242003" lon="14.1119039"><ele>42.0</ele><time>2026-05-02T06:53:43.681Z</time></trkpt><trkpt lat="42.4241018" lon="14.1119256"><ele>42.0</ele><time>2026-05-02T06:53:44.663Z</time></trkpt><trkpt lat="42.424006" lon="14.1119511"><ele>42.0</ele><time>2026-05-02T06:53:45.683Z</time></trkpt><trkpt lat="42.4239011" lon="14.1119857"><ele>42.0</ele><time>2026-05-02T06:53:46.677Z</time></trkpt><trkpt lat="42.4237978" lon="14.1120233"><ele>42.0</ele><time>2026-05-02T06:53:47.677Z</time></trkpt><trkpt lat="42.4236978" lon="14.1120396"><ele>41.0</ele><time>2026-05-02T06:53:48.683Z</time></trkpt><trkpt lat="42.4235927" lon="14.1120364"><ele>40.0</ele><time>2026-05-02T06:53:49.67Z</time></trkpt><trkpt lat="42.4234938" lon="14.1120244"><ele>39.0</ele><time>2026-05-02T06:53:50.689Z</time></trkpt><trkpt lat="42.4234014" lon="14.1120184"><ele>38.0</ele><time>2026-05-02T06:53:51.67Z</time></trkpt><trkpt lat="42.423312" lon="14.1120352"><ele>37.0</ele><time>2026-05-02T06:53:52.674Z</time></trkpt><trkpt lat="42.4232281" lon="14.1120788"><ele>37.0</ele><time>2026-05-02T06:53:53.67Z</time></trkpt><trkpt lat="42.4231365" lon="14.112168"><ele>37.0</ele><time>2026-05-02T06:53:54.674Z</time></trkpt><trkpt lat="42.4230544" lon="14.1122645"><ele>37.0</ele><time>2026-05-02T06:53:55.678Z</time></trkpt><trkpt lat="42.4229747" lon="14.1123661"><ele>37.0</ele><time>2026-05-02T06:53:56.684Z</time></trkpt><trkpt lat="42.4228836" lon="14.1124804"><ele>39.333333333333336</ele><time>2026-05-02T06:53:57.669Z</time></trkpt><trkpt lat="42.4227827" lon="14.1126053"><ele>41.666666666666664</ele><time>2026-05-02T06:53:58.68Z</time></trkpt><trkpt lat="42.4226544" lon="14.1127565"><ele>44.0</ele><time>2026-05-02T06:53:59.671Z</time></trkpt><trkpt lat="42.4225036" lon="14.1129166"><ele>44.0</ele><time>2026-05-02T06:54:00.679Z</time></trkpt><trkpt lat="42.4223422" lon="14.1130665"><ele>44.0</ele><time>2026-05-02T06:54:01.674Z</time></trkpt><trkpt lat="42.4221918" lon="14.1132145"><ele>44.0</ele><time>2026-05-02T06:54:02.674Z</time></trkpt><trkpt lat="42.4220733" lon="14.1133352"><ele>45.25</ele><time>2026-05-02T06:54:03.68Z</time></trkpt><trkpt lat="42.4219632" lon="14.1134383"><ele>46.5</ele><time>2026-05-02T06:54:04.682Z</time></trkpt><trkpt lat="42.4218434" lon="14.1135108"><ele>47.75</ele><time>2026-05-02T06:54:05.671Z</time></trkpt><trkpt lat="42.4217265" lon="14.1135618"><ele>49.0</ele><time>2026-05-02T06:54:06.682Z</time></trkpt><trkpt lat="42.4216221" lon="14.1135946"><ele>48.99999999999999</ele><time>2026-05-02T06:54:07.675Z</time></trkpt><trkpt lat="42.4215341" lon="14.11362"><ele>49.0</ele><time>2026-05-02T06:54:08.692Z</time></trkpt><trkpt lat="42.4214525" lon="14.1136474"><ele>49.0</ele><time>2026-05-02T06:54:09.687Z</time></trkpt><trkpt lat="42.4213679" lon="14.1136724"><ele>49.0</ele><time>2026-05-02T06:54:10.685Z</time></trkpt><trkpt lat="42.4212918" lon="14.1137129"><ele>48.99999999999999</ele><time>2026-05-02T06:54:11.681Z</time></trkpt><trkpt lat="42.4212263" lon="14.113761"><ele>49.0</ele><time>2026-05-02T06:54:12.679Z</time></trkpt><trkpt lat="42.4211721" lon="14.1138063"><ele>49.800000000000004</ele><time>2026-05-02T06:54:13.682Z</time></trkpt><trkpt lat="42.4210758" lon="14.11389"><ele>50.6</ele><time>2026-05-02T06:54:15.705Z</time></trkpt><trkpt lat="42.4209909" lon="14.1139672"><ele>51.4</ele><time>2026-05-02T06:54:17.678Z</time></trkpt><trkpt lat="42.4208812" lon="14.1140267"><ele>52.2</ele><time>2026-05-02T06:54:19.675Z</time></trkpt><trkpt lat="42.4208179" lon="14.1140509"><ele>53.0</ele><time>2026-05-02T06:54:20.695Z</time></trkpt><trkpt lat="42.4207505" lon="14.1141032"><ele>55.5</ele><time>2026-05-02T06:54:21.697Z</time></trkpt><trkpt lat="42.4206797" lon="14.1141775"><ele>58.0</ele><time>2026-05-02T06:54:22.683Z</time></trkpt><trkpt lat="42.4205921" lon="14.1142923"><ele>60.5</ele><time>2026-05-02T06:54:23.69Z</time></trkpt><trkpt lat="42.4205142" lon="14.1144079"><ele>63.0</ele><time>2026-05-02T06:54:24.669Z</time></trkpt><trkpt lat="42.4204232" lon="14.1145245"><ele>63.0</ele><time>2026-05-02T06:54:25.679Z</time></trkpt><trkpt lat="42.4203414" lon="14.1146491"><ele>63.0</ele><time>2026-05-02T06:54:26.674Z</time></trkpt><trkpt lat="42.4202456" lon="14.1147321"><ele>63.0</ele><time>2026-05-02T06:54:27.67Z</time></trkpt><trkpt lat="42.4201246" lon="14.1148037"><ele>63.0</ele><time>2026-05-02T06:54:28.675Z</time></trkpt><trkpt lat="42.4199992" lon="14.1148694"><ele>64.5</ele><time>2026-05-02T06:54:29.672Z</time></trkpt><trkpt lat="42.4198668" lon="14.1149407"><ele>66.0</ele><time>2026-05-02T06:54:30.676Z</time></trkpt><trkpt lat="42.4197534" lon="14.1150254"><ele>67.5</ele><time>2026-05-02T06:54:31.681Z</time></trkpt><trkpt lat="42.4196446" lon="14.1151286"><ele>69.0</ele><time>2026-05-02T06:54:32.678Z</time></trkpt><trkpt lat="42.4195305" lon="14.1152593"><ele>71.75</ele><time>2026-05-02T06:54:33.691Z</time></trkpt><trkpt lat="42.4194161" lon="14.1153906"><ele>74.5</ele><time>2026-05-02T06:54:34.68Z</time></trkpt><trkpt lat="42.4193002" lon="14.1155056"><ele>77.25</ele><time>2026-05-02T06:54:35.674Z</time></trkpt><trkpt lat="42.4191779" lon="14.1156271"><ele>80.0</ele><time>2026-05-02T06:54:36.668Z</time></trkpt><trkpt lat="42.4190651" lon="14.1157387"><ele>81.2</ele><time>2026-05-02T06:54:37.677Z</time></trkpt><trkpt lat="42.4189852" lon="14.1158246"><ele>82.4</ele><time>2026-05-02T06:54:38.67Z</time></trkpt><trkpt lat="42.4189277" lon="14.1158875"><ele>83.6</ele><time>2026-05-02T06:54:39.684Z</time></trkpt><trkpt lat="42.4188539" lon="14.1159471"><ele>84.8</ele><time>2026-05-02T06:54:41.671Z</time></trkpt><trkpt lat="42.4187354" lon="14.115882"><ele>86.0</ele><time>2026-05-02T06:54:43.68Z</time></trkpt><trkpt lat="42.4186565" lon="14.1158107"><ele>89.0</ele><time>2026-05-02T06:54:44.705Z</time></trkpt><trkpt lat="42.418569" lon="14.1157144"><ele>92.0</ele><time>2026-05-02T06:54:45.679Z</time></trkpt><trkpt lat="42.41846" lon="14.1156256"><ele>95.0</ele><time>2026-05-02T06:54:46.69Z</time></trkpt><trkpt lat="42.4183331" lon="14.1155326"><ele>98.0</ele><time>2026-05-02T06:54:47.683Z</time></trkpt><trkpt lat="42.4181994" lon="14.1154462"><ele>98.0</ele><time>2026-05-02T06:54:48.671Z</time></trkpt><trkpt lat="42.4180732" lon="14.1153735"><ele>98.0</ele><time>2026-05-02T06:54:49.679Z</time></trkpt><trkpt lat="42.4179416" lon="14.1153125"><ele>98.0</ele><time>2026-05-02T06:54:50.671Z</time></trkpt><trkpt lat="42.4178107" lon="14.1152674"><ele>98.0</ele><time>2026-05-02T06:54:51.682Z</time></trkpt><trkpt lat="42.4176854" lon="14.1152132"><ele>100.0</ele><time>2026-05-02T06:54:52.679Z</time></trkpt><trkpt lat="42.4175627" lon="14.1151713"><ele>102.0</ele><time>2026-05-02T06:54:53.681Z</time></trkpt><trkpt lat="42.4174355" lon="14.1151487"><ele>104.0</ele><time>2026-05-02T06:54:54.685Z</time></trkpt><trkpt lat="42.4173" lon="14.1151359"><ele>106.0</ele><time>2026-05-02T06:54:55.682Z</time></trkpt><trkpt lat="42.4171494" lon="14.1151344"><ele>107.66666666666667</ele><time>2026-05-02T06:54:56.695Z</time></trkpt><trkpt lat="42.4169957" lon="14.115137"><ele>109.33333333333334</ele><time>2026-05-02T06:54:57.679Z</time></trkpt><trkpt lat="42.4168448" lon="14.1151385"><ele>111.0</ele><time>2026-05-02T06:54:58.678Z</time></trkpt><trkpt lat="42.4166944" lon="14.1151496"><ele>111.0</ele><time>2026-05-02T06:54:59.667Z</time></trkpt><trkpt lat="42.4165538" lon="14.1151736"><ele>111.0</ele><time>2026-05-02T06:55:00.68Z</time></trkpt><trkpt lat="42.4164145" lon="14.1152009"><ele>111.0</ele><time>2026-05-02T06:55:01.672Z</time></trkpt><trkpt lat="42.4162778" lon="14.1152162"><ele>111.0</ele><time>2026-05-02T06:55:02.689Z</time></trkpt><trkpt lat="42.4161717" lon="14.1152284"><ele>112.0</ele><time>2026-05-02T06:55:03.689Z</time></trkpt><trkpt lat="42.4160503" lon="14.1152365"><ele>113.0</ele><time>2026-05-02T06:55:04.675Z</time></trkpt><trkpt lat="42.4159507" lon="14.1152322"><ele>114.0</ele><time>2026-05-02T06:55:05.671Z</time></trkpt><trkpt lat="42.4158477" lon="14.1152298"><ele>115.0</ele><time>2026-05-02T06:55:06.676Z</time></trkpt><trkpt lat="42.4157519" lon="14.1152449"><ele>116.0</ele><time>2026-05-02T06:55:07.688Z</time></trkpt><trkpt lat="42.4156626" lon="14.1152736"><ele>116.0</ele><time>2026-05-02T06:55:08.675Z</time></trkpt><trkpt lat="42.4155646" lon="14.1152996"><ele>116.0</ele><time>2026-05-02T06:55:09.677Z</time></trkpt><trkpt lat="42.4154773" lon="14.1153226"><ele>116.0</ele><time>2026-05-02T06:55:10.677Z</time></trkpt><trkpt lat="42.4154088" lon="14.1153662"><ele>116.0</ele><time>2026-05-02T06:55:11.67Z</time></trkpt><trkpt lat="42.4153339" lon="14.1154053"><ele>116.0</ele><time>2026-05-02T06:55:13.682Z</time></trkpt><trkpt lat="42.4152494" lon="14.1155066"><ele>116.0</ele><time>2026-05-02T06:55:18.681Z</time></trkpt><trkpt lat="42.4151784" lon="14.1155733"><ele>116.0</ele><time>2026-05-02T06:55:19.681Z</time></trkpt><trkpt lat="42.4151163" lon="14.1156596"><ele>116.0</ele><time>2026-05-02T06:55:20.697Z</time></trkpt><trkpt lat="42.4150482" lon="14.1157509"><ele>116.0</ele><time>2026-05-02T06:55:21.681Z</time></trkpt><trkpt lat="42.4149724" lon="14.1158615"><ele>116.0</ele><time>2026-05-02T06:55:22.676Z</time></trkpt><trkpt lat="42.4148712" lon="14.1159822"><ele>116.0</ele><time>2026-05-02T06:55:23.683Z</time></trkpt><trkpt lat="42.4147576" lon="14.1160899"><ele>116.0</ele><time>2026-05-02T06:55:24.682Z</time></trkpt><trkpt lat="42.4146308" lon="14.1162049"><ele>116.0</ele><time>2026-05-02T06:55:25.68Z</time></trkpt><trkpt lat="42.4144997" lon="14.1163196"><ele>116.0</ele><time>2026-05-02T06:55:26.687Z</time></trkpt><trkpt lat="42.4143559" lon="14.1164267"><ele>114.75</ele><time>2026-05-02T06:55:27.683Z</time></trkpt><trkpt lat="42.4142173" lon="14.1165261"><ele>113.5</ele><time>2026-05-02T06:55:28.669Z</time></trkpt><trkpt lat="42.4140936" lon="14.1166068"><ele>112.25</ele><time>2026-05-02T06:55:29.684Z</time></trkpt><trkpt lat="42.4139828" lon="14.1166732"><ele>111.0</ele><time>2026-05-02T06:55:30.668Z</time></trkpt><trkpt lat="42.4138701" lon="14.1167428"><ele>110.0</ele><time>2026-05-02T06:55:31.689Z</time></trkpt><trkpt lat="42.4137595" lon="14.1168314"><ele>109.0</ele><time>2026-05-02T06:55:32.686Z</time></trkpt><trkpt lat="42.4136495" lon="14.1169396"><ele>108.0</ele><time>2026-05-02T06:55:33.688Z</time></trkpt><trkpt lat="42.4135598" lon="14.1170792"><ele>107.0</ele><time>2026-05-02T06:55:34.674Z</time></trkpt><trkpt lat="42.4134673" lon="14.1172377"><ele>107.0</ele><time>2026-05-02T06:55:35.671Z</time></trkpt><trkpt lat="42.4133815" lon="14.1173842"><ele>107.0</ele><time>2026-05-02T06:55:36.686Z</time></trkpt><trkpt lat="42.4133066" lon="14.1175057"><ele>107.0</ele><time>2026-05-02T06:55:37.675Z</time></trkpt><trkpt lat="42.4132412" lon="14.1176273"><ele>107.0</ele><time>2026-05-02T06:55:38.69Z</time></trkpt><trkpt lat="42.4131812" lon="14.1177346"><ele>107.0</ele><time>2026-05-02T06:55:39.671Z</time></trkpt><trkpt lat="42.4131239" lon="14.11784"><ele>106.99999999999999</ele><time>2026-05-02T06:55:40.676Z</time></trkpt><trkpt lat="42.4130625" lon="14.1179461"><ele>106.99999999999999</ele><time>2026-05-02T06:55:41.662Z</time></trkpt><trkpt lat="42.4130002" lon="14.1180614"><ele>107.0</ele><time>2026-05-02T06:55:42.684Z</time></trkpt><trkpt lat="42.4129283" lon="14.1181844"><ele>107.0</ele><time>2026-05-02T06:55:43.667Z</time></trkpt><trkpt lat="42.4128456" lon="14.1183068"><ele>107.0</ele><time>2026-05-02T06:55:44.683Z</time></trkpt><trkpt lat="42.4127519" lon="14.1184294"><ele>107.0</ele><time>2026-05-02T06:55:45.668Z</time></trkpt><trkpt lat="42.4126407" lon="14.1185471"><ele>107.0</ele><time>2026-05-02T06:55:46.674Z</time></trkpt><trkpt lat="42.41252" lon="14.1186442"><ele>107.0</ele><time>2026-05-02T06:55:47.681Z</time></trkpt><trkpt lat="42.412391" lon="14.1187431"><ele>107.0</ele><time>2026-05-02T06:55:48.676Z</time></trkpt><trkpt lat="42.4122623" lon="14.1188277"><ele>107.0</ele><time>2026-05-02T06:55:49.687Z</time></trkpt><trkpt lat="42.4121444" lon="14.1189034"><ele>107.0</ele><time>2026-05-02T06:55:50.681Z</time></trkpt><trkpt lat="42.4120451" lon="14.1189783"><ele>107.0</ele><time>2026-05-02T06:55:51.671Z</time></trkpt><trkpt lat="42.4119505" lon="14.1190473"><ele>106.0</ele><time>2026-05-02T06:55:52.667Z</time></trkpt><trkpt lat="42.4118643" lon="14.1191095"><ele>104.99999999999999</ele><time>2026-05-02T06:55:53.685Z</time></trkpt><trkpt lat="42.4117724" lon="14.1191712"><ele>104.0</ele><time>2026-05-02T06:55:54.684Z</time></trkpt><trkpt lat="42.4116753" lon="14.1192313"><ele>103.0</ele><time>2026-05-02T06:55:55.692Z</time></trkpt><trkpt lat="42.4115833" lon="14.1192871"><ele>102.0</ele><time>2026-05-02T06:55:56.67Z</time></trkpt><trkpt lat="42.4114855" lon="14.1193462"><ele>102.0</ele><time>2026-05-02T06:55:57.692Z</time></trkpt><trkpt lat="42.4113946" lon="14.1194045"><ele>102.0</ele><time>2026-05-02T06:55:58.684Z</time></trkpt><trkpt lat="42.4113085" lon="14.1194656"><ele>102.0</ele><time>2026-05-02T06:55:59.672Z</time></trkpt><trkpt lat="42.4112283" lon="14.1195287"><ele>102.0</ele><time>2026-05-02T06:56:00.661Z</time></trkpt><trkpt lat="42.4111472" lon="14.1195897"><ele>102.0</ele><time>2026-05-02T06:56:01.668Z</time></trkpt><trkpt lat="42.4110624" lon="14.1196581"><ele>102.19999999999999</ele><time>2026-05-02T06:56:02.673Z</time></trkpt><trkpt lat="42.4109928" lon="14.1197229"><ele>102.4</ele><time>2026-05-02T06:56:03.688Z</time></trkpt><trkpt lat="42.4109299" lon="14.1197907"><ele>102.6</ele><time>2026-05-02T06:56:04.663Z</time></trkpt><trkpt lat="42.4108746" lon="14.1198403"><ele>102.80000000000001</ele><time>2026-05-02T06:56:05.678Z</time></trkpt><trkpt lat="42.4107823" lon="14.1199149"><ele>103.0</ele><time>2026-05-02T06:56:07.68Z</time></trkpt><trkpt lat="42.4106905" lon="14.1199999"><ele>102.16666666666667</ele><time>2026-05-02T06:56:09.669Z</time></trkpt><trkpt lat="42.4106204" lon="14.1200224"><ele>101.33333333333334</ele><time>2026-05-02T06:56:11.672Z</time></trkpt><trkpt lat="42.4105285" lon="14.1199727"><ele>100.5</ele><time>2026-05-02T06:56:14.666Z</time></trkpt><trkpt lat="42.4104754" lon="14.1199258"><ele>99.66666666666666</ele><time>2026-05-02T06:56:16.678Z</time></trkpt><trkpt lat="42.4103858" lon="14.1198476"><ele>98.83333333333333</ele><time>2026-05-02T06:56:18.667Z</time></trkpt><trkpt lat="42.4103114" lon="14.1197478"><ele>98.0</ele><time>2026-05-02T06:56:20.673Z</time></trkpt><trkpt lat="42.4102798" lon="14.1196539"><ele>97.2</ele><time>2026-05-02T06:56:22.68Z</time></trkpt><trkpt lat="42.4102419" lon="14.1195567"><ele>96.4</ele><time>2026-05-02T06:56:25.687Z</time></trkpt><trkpt lat="42.4101876" lon="14.1194767"><ele>95.60000000000001</ele><time>2026-05-02T06:56:27.677Z</time></trkpt><trkpt lat="42.4101376" lon="14.1193583"><ele>94.80000000000001</ele><time>2026-05-02T06:56:29.681Z</time></trkpt><trkpt lat="42.4100654" lon="14.1192549"><ele>94.0</ele><time>2026-05-02T06:56:31.681Z</time></trkpt><trkpt lat="42.4099964" lon="14.119161"><ele>94.5</ele><time>2026-05-02T06:56:33.685Z</time></trkpt><trkpt lat="42.409929" lon="14.119058"><ele>95.0</ele><time>2026-05-02T06:56:35.675Z</time></trkpt><trkpt lat="42.4098306" lon="14.1189843"><ele>95.5</ele><time>2026-05-02T06:56:37.679Z</time></trkpt><trkpt lat="42.4097278" lon="14.1188896"><ele>96.0</ele><time>2026-05-02T06:56:39.677Z</time></trkpt><trkpt lat="42.4096188" lon="14.1188188"><ele>93.6</ele><time>2026-05-02T06:56:41.672Z</time></trkpt><trkpt lat="42.4095248" lon="14.1187473"><ele>91.19999999999999</ele><time>2026-05-02T06:56:43.674Z</time></trkpt><trkpt lat="42.4094243" lon="14.1186781"><ele>88.80000000000001</ele><time>2026-05-02T06:56:45.686Z</time></trkpt><trkpt lat="42.4093242" lon="14.1186234"><ele>86.4</ele><time>2026-05-02T06:56:47.687Z</time></trkpt><trkpt lat="42.4092306" lon="14.1185478"><ele>84.0</ele><time>2026-05-02T06:56:49.66Z</time></trkpt><trkpt lat="42.4091484" lon="14.1184668"><ele>84.0</ele><time>2026-05-02T06:56:51.671Z</time></trkpt><trkpt lat="42.4090591" lon="14.1183664"><ele>84.0</ele><time>2026-05-02T06:56:53.676Z</time></trkpt><trkpt lat="42.4089871" lon="14.1182558"><ele>84.0</ele><time>2026-05-02T06:56:55.681Z</time></trkpt><trkpt lat="42.4089194" lon="14.1181193"><ele>84.0</ele><time>2026-05-02T06:56:57.674Z</time></trkpt><trkpt lat="42.4088574" lon="14.117968"><ele>83.4</ele><time>2026-05-02T06:56:59.665Z</time></trkpt><trkpt lat="42.4088079" lon="14.1178185"><ele>82.80000000000001</ele><time>2026-05-02T06:57:01.68Z</time></trkpt><trkpt lat="42.4087622" lon="14.1176742"><ele>82.19999999999999</ele><time>2026-05-02T06:57:03.691Z</time></trkpt><trkpt lat="42.4087221" lon="14.1175808"><ele>81.6</ele><time>2026-05-02T06:57:05.683Z</time></trkpt><trkpt lat="42.4086936" lon="14.1174875"><ele>81.0</ele><time>2026-05-02T06:57:08.685Z</time></trkpt><trkpt lat="42.408651" lon="14.1173778"><ele>81.0</ele><time>2026-05-02T06:57:11.677Z</time></trkpt><trkpt lat="42.4086141" lon="14.1172922"><ele>81.0</ele><time>2026-05-02T06:57:13.689Z</time></trkpt><trkpt lat="42.408512" lon="14.1171865"><ele>81.0</ele><time>2026-05-02T06:57:15.704Z</time></trkpt><trkpt lat="42.4084351" lon="14.1171217"><ele>81.0</ele><time>2026-05-02T06:57:16.674Z</time></trkpt><trkpt lat="42.4083616" lon="14.1170364"><ele>81.0</ele><time>2026-05-02T06:57:17.67Z</time></trkpt><trkpt lat="42.4082777" lon="14.1169296"><ele>81.0</ele><time>2026-05-02T06:57:18.68Z</time></trkpt><trkpt lat="42.4081987" lon="14.1168299"><ele>81.0</ele><time>2026-05-02T06:57:19.681Z</time></trkpt><trkpt lat="42.4081007" lon="14.1167388"><ele>81.0</ele><time>2026-05-02T06:57:20.671Z</time></trkpt><trkpt lat="42.4080179" lon="14.1167007"><ele>81.0</ele><time>2026-05-02T06:57:21.67Z</time></trkpt><trkpt lat="42.4079384" lon="14.1166677"><ele>81.0</ele><time>2026-05-02T06:57:22.666Z</time></trkpt><trkpt lat="42.4078566" lon="14.1166153"><ele>83.8</ele><time>2026-05-02T06:57:23.671Z</time></trkpt><trkpt lat="42.4077788" lon="14.1165682"><ele>86.6</ele><time>2026-05-02T06:57:24.671Z</time></trkpt><trkpt lat="42.407688" lon="14.1165242"><ele>89.4</ele><time>2026-05-02T06:57:25.67Z</time></trkpt><trkpt lat="42.4075957" lon="14.1164935"><ele>92.2</ele><time>2026-05-02T06:57:26.665Z</time></trkpt><trkpt lat="42.4075135" lon="14.1164614"><ele>95.0</ele><time>2026-05-02T06:57:27.672Z</time></trkpt><trkpt lat="42.4074281" lon="14.1164324"><ele>95.0</ele><time>2026-05-02T06:57:28.664Z</time></trkpt><trkpt lat="42.4073414" lon="14.1163956"><ele>95.0</ele><time>2026-05-02T06:57:29.671Z</time></trkpt><trkpt lat="42.4072503" lon="14.1163672"><ele>95.0</ele><time>2026-05-02T06:57:30.671Z</time></trkpt><trkpt lat="42.4071707" lon="14.1163474"><ele>95.0</ele><time>2026-05-02T06:57:31.677Z</time></trkpt><trkpt lat="42.4070477" lon="14.1163257"><ele>95.0</ele><time>2026-05-02T06:57:33.671Z</time></trkpt><trkpt lat="42.4069402" lon="14.1162746"><ele>96.6</ele><time>2026-05-02T06:57:35.673Z</time></trkpt><trkpt lat="42.4068834" lon="14.1162293"><ele>98.2</ele><time>2026-05-02T06:57:36.668Z</time></trkpt><trkpt lat="42.4067801" lon="14.1161438"><ele>99.80000000000001</ele><time>2026-05-02T06:57:38.668Z</time></trkpt><trkpt lat="42.4066952" lon="14.1160721"><ele>101.4</ele><time>2026-05-02T06:57:40.665Z</time></trkpt><trkpt lat="42.4066128" lon="14.1160205"><ele>103.0</ele><time>2026-05-02T06:57:42.681Z</time></trkpt><trkpt lat="42.4065377" lon="14.1159648"><ele>103.0</ele><time>2026-05-02T06:57:44.686Z</time></trkpt><trkpt lat="42.406458" lon="14.1159049"><ele>103.0</ele><time>2026-05-02T06:57:46.682Z</time></trkpt><trkpt lat="42.4063738" lon="14.1158409"><ele>103.0</ele><time>2026-05-02T06:57:48.682Z</time></trkpt><trkpt lat="42.4062752" lon="14.1157699"><ele>103.0</ele><time>2026-05-02T06:57:50.694Z</time></trkpt><trkpt lat="42.4061605" lon="14.1156973"><ele>103.0</ele><time>2026-05-02T06:57:52.674Z</time></trkpt><trkpt lat="42.4060924" lon="14.1156531"><ele>104.00000000000001</ele><time>2026-05-02T06:57:53.673Z</time></trkpt><trkpt lat="42.4060346" lon="14.115604"><ele>105.0</ele><time>2026-05-02T06:57:54.676Z</time></trkpt><trkpt lat="42.4059598" lon="14.1155393"><ele>106.0</ele><time>2026-05-02T06:57:55.673Z</time></trkpt><trkpt lat="42.4058851" lon="14.1154759"><ele>107.0</ele><time>2026-05-02T06:57:56.692Z</time></trkpt><trkpt lat="42.4058052" lon="14.1154354"><ele>108.00000000000001</ele><time>2026-05-02T06:57:57.674Z</time></trkpt><trkpt lat="42.4057245" lon="14.1154369"><ele>109.0</ele><time>2026-05-02T06:57:58.669Z</time></trkpt><trkpt lat="42.4056366" lon="14.1154747"><ele>109.00000000000001</ele><time>2026-05-02T06:57:59.684Z</time></trkpt><trkpt lat="42.4055553" lon="14.1155109"><ele>109.0</ele><time>2026-05-02T06:58:00.683Z</time></trkpt><trkpt lat="42.4054943" lon="14.115576"><ele>109.0</ele><time>2026-05-02T06:58:01.671Z</time></trkpt><trkpt lat="42.4054397" lon="14.115651"><ele>109.0</ele><time>2026-05-02T06:58:02.683Z</time></trkpt><trkpt lat="42.405401" lon="14.1157527"><ele>109.00000000000001</ele><time>2026-05-02T06:58:03.669Z</time></trkpt><trkpt lat="42.4053538" lon="14.1158648"><ele>109.0</ele><time>2026-05-02T06:58:04.692Z</time></trkpt><trkpt lat="42.4052927" lon="14.115977"><ele>107.6</ele><time>2026-05-02T06:58:05.671Z</time></trkpt><trkpt lat="42.4052214" lon="14.1160775"><ele>106.2</ele><time>2026-05-02T06:58:06.7Z</time></trkpt><trkpt lat="42.405146" lon="14.1161713"><ele>104.8</ele><time>2026-05-02T06:58:07.694Z</time></trkpt><trkpt lat="42.4050781" lon="14.1162732"><ele>103.39999999999999</ele><time>2026-05-02T06:58:08.683Z</time></trkpt><trkpt lat="42.4050087" lon="14.1163689"><ele>102.0</ele><time>2026-05-02T06:58:09.684Z</time></trkpt><trkpt lat="42.4049339" lon="14.116466"><ele>102.0</ele><time>2026-05-02T06:58:10.688Z</time></trkpt><trkpt lat="42.4048537" lon="14.1165568"><ele>102.0</ele><time>2026-05-02T06:58:11.68Z</time></trkpt><trkpt lat="42.4047746" lon="14.1166549"><ele>102.0</ele><time>2026-05-02T06:58:12.691Z</time></trkpt><trkpt lat="42.4047029" lon="14.1167514"><ele>102.0</ele><time>2026-05-02T06:58:13.714Z</time></trkpt><trkpt lat="42.4046134" lon="14.1168569"><ele>102.0</ele><time>2026-05-02T06:58:14.671Z</time></trkpt><trkpt lat="42.4045205" lon="14.1169697"><ele>99.6</ele><time>2026-05-02T06:58:15.686Z</time></trkpt><trkpt lat="42.4044299" lon="14.1170796"><ele>97.19999999999999</ele><time>2026-05-02T06:58:16.674Z</time></trkpt><trkpt lat="42.4043429" lon="14.1171767"><ele>94.8</ele><time>2026-05-02T06:58:17.679Z</time></trkpt><trkpt lat="42.4042683" lon="14.1172748"><ele>92.4</ele><time>2026-05-02T06:58:18.691Z</time></trkpt><trkpt lat="42.4041861" lon="14.1173689"><ele>90.0</ele><time>2026-05-02T06:58:19.68Z</time></trkpt><trkpt lat="42.4041129" lon="14.1174554"><ele>89.0</ele><time>2026-05-02T06:58:20.697Z</time></trkpt><trkpt lat="42.4040461" lon="14.117533"><ele>88.0</ele><time>2026-05-02T06:58:21.68Z</time></trkpt><trkpt lat="42.4039735" lon="14.1176113"><ele>87.0</ele><time>2026-05-02T06:58:22.668Z</time></trkpt><trkpt lat="42.4039012" lon="14.1176961"><ele>86.0</ele><time>2026-05-02T06:58:23.665Z</time></trkpt><trkpt lat="42.4038301" lon="14.117795"><ele>85.0</ele><time>2026-05-02T06:58:24.678Z</time></trkpt><trkpt lat="42.4037491" lon="14.1178994"><ele>84.25</ele><time>2026-05-02T06:58:25.666Z</time></trkpt><trkpt lat="42.4036643" lon="14.1180056"><ele>83.5</ele><time>2026-05-02T06:58:26.675Z</time></trkpt><trkpt lat="42.403578" lon="14.1181107"><ele>82.75</ele><time>2026-05-02T06:58:27.673Z</time></trkpt><trkpt lat="42.4034948" lon="14.1182175"><ele>82.0</ele><time>2026-05-02T06:58:28.68Z</time></trkpt><trkpt lat="42.40341" lon="14.1183407"><ele>81.5</ele><time>2026-05-02T06:58:29.683Z</time></trkpt><trkpt lat="42.4033172" lon="14.1184588"><ele>81.0</ele><time>2026-05-02T06:58:30.69Z</time></trkpt><trkpt lat="42.40322" lon="14.1185687"><ele>80.5</ele><time>2026-05-02T06:58:31.687Z</time></trkpt><trkpt lat="42.4031291" lon="14.1186771"><ele>80.0</ele><time>2026-05-02T06:58:32.689Z</time></trkpt><trkpt lat="42.4030412" lon="14.1187841"><ele>79.8</ele><time>2026-05-02T06:58:33.708Z</time></trkpt><trkpt lat="42.4029602" lon="14.1188942"><ele>79.6</ele><time>2026-05-02T06:58:34.67Z</time></trkpt><trkpt lat="42.4028839" lon="14.11899"><ele>79.4</ele><time>2026-05-02T06:58:35.666Z</time></trkpt><trkpt lat="42.4028095" lon="14.1190795"><ele>79.2</ele><time>2026-05-02T06:58:36.677Z</time></trkpt><trkpt lat="42.4027305" lon="14.1191645"><ele>79.0</ele><time>2026-05-02T06:58:37.688Z</time></trkpt><trkpt lat="42.402657" lon="14.119242"><ele>78.33333333333333</ele><time>2026-05-02T06:58:38.673Z</time></trkpt><trkpt lat="42.4025813" lon="14.1193264"><ele>77.66666666666666</ele><time>2026-05-02T06:58:39.677Z</time></trkpt><trkpt lat="42.4025107" lon="14.119415"><ele>77.0</ele><time>2026-05-02T06:58:40.681Z</time></trkpt><trkpt lat="42.4024573" lon="14.1194781"><ele>76.33333333333333</ele><time>2026-05-02T06:58:41.682Z</time></trkpt><trkpt lat="42.402393" lon="14.1195441"><ele>75.66666666666667</ele><time>2026-05-02T06:58:42.679Z</time></trkpt><trkpt lat="42.4023105" lon="14.1196136"><ele>75.0</ele><time>2026-05-02T06:58:43.67Z</time></trkpt><trkpt lat="42.402225" lon="14.1197091"><ele>74.5</ele><time>2026-05-02T06:58:44.677Z</time></trkpt><trkpt lat="42.4021285" lon="14.1197948"><ele>74.0</ele><time>2026-05-02T06:58:45.68Z</time></trkpt><trkpt lat="42.402022" lon="14.119885"><ele>73.5</ele><time>2026-05-02T06:58:46.669Z</time></trkpt><trkpt lat="42.4019108" lon="14.1199926"><ele>73.0</ele><time>2026-05-02T06:58:47.684Z</time></trkpt><trkpt lat="42.4017833" lon="14.1201243"><ele>71.0</ele><time>2026-05-02T06:58:48.69Z</time></trkpt><trkpt lat="42.4016468" lon="14.120249"><ele>69.0</ele><time>2026-05-02T06:58:49.685Z</time></trkpt><trkpt lat="42.4015215" lon="14.1203614"><ele>67.0</ele><time>2026-05-02T06:58:50.682Z</time></trkpt><trkpt lat="42.4013941" lon="14.1204711"><ele>66.5</ele><time>2026-05-02T06:58:51.676Z</time></trkpt><trkpt lat="42.4012649" lon="14.1205771"><ele>66.0</ele><time>2026-05-02T06:58:52.679Z</time></trkpt><trkpt lat="42.4011501" lon="14.1206839"><ele>65.5</ele><time>2026-05-02T06:58:53.673Z</time></trkpt><trkpt lat="42.4010489" lon="14.1207793"><ele>65.0</ele><time>2026-05-02T06:58:54.68Z</time></trkpt><trkpt lat="42.4009488" lon="14.1208717"><ele>64.75</ele><time>2026-05-02T06:58:55.68Z</time></trkpt><trkpt lat="42.4008538" lon="14.1209622"><ele>64.5</ele><time>2026-05-02T06:58:56.671Z</time></trkpt><trkpt lat="42.400759" lon="14.1210484"><ele>64.25</ele><time>2026-05-02T06:58:57.679Z</time></trkpt><trkpt lat="42.4006653" lon="14.1211407"><ele>64.0</ele><time>2026-05-02T06:58:58.68Z</time></trkpt><trkpt lat="42.4005653" lon="14.1212268"><ele>63.25</ele><time>2026-05-02T06:58:59.684Z</time></trkpt><trkpt lat="42.400462" lon="14.1213211"><ele>62.5</ele><time>2026-05-02T06:59:00.684Z</time></trkpt><trkpt lat="42.400355" lon="14.1214132"><ele>61.75</ele><time>2026-05-02T06:59:01.682Z</time></trkpt><trkpt lat="42.4002485" lon="14.1215036"><ele>61.0</ele><time>2026-05-02T06:59:02.684Z</time></trkpt><trkpt lat="42.4001556" lon="14.1216109"><ele>61.0</ele><time>2026-05-02T06:59:03.68Z</time></trkpt><trkpt lat="42.4000705" lon="14.1217303"><ele>61.0</ele><time>2026-05-02T06:59:04.674Z</time></trkpt><trkpt lat="42.3999999" lon="14.1218765"><ele>61.0</ele><time>2026-05-02T06:59:05.679Z</time></trkpt><trkpt lat="42.3999351" lon="14.1220414"><ele>61.0</ele><time>2026-05-02T06:59:06.673Z</time></trkpt><trkpt lat="42.3998635" lon="14.1222246"><ele>61.0</ele><time>2026-05-02T06:59:07.688Z</time></trkpt><trkpt lat="42.3998075" lon="14.1223929"><ele>60.99999999999999</ele><time>2026-05-02T06:59:08.676Z</time></trkpt><trkpt lat="42.3997569" lon="14.1225294"><ele>60.99999999999999</ele><time>2026-05-02T06:59:09.691Z</time></trkpt><trkpt lat="42.399726" lon="14.1226437"><ele>61.0</ele><time>2026-05-02T06:59:10.676Z</time></trkpt><trkpt lat="42.3997156" lon="14.1227605"><ele>61.0</ele><time>2026-05-02T06:59:11.682Z</time></trkpt><trkpt lat="42.3997198" lon="14.1228763"><ele>61.0</ele><time>2026-05-02T06:59:12.676Z</time></trkpt><trkpt lat="42.3997344" lon="14.1230121"><ele>60.99999999999999</ele><time>2026-05-02T06:59:13.676Z</time></trkpt><trkpt lat="42.3997543" lon="14.1231498"><ele>60.99999999999999</ele><time>2026-05-02T06:59:14.675Z</time></trkpt><trkpt lat="42.3997612" lon="14.1232654"><ele>61.0</ele><time>2026-05-02T06:59:15.669Z</time></trkpt><trkpt lat="42.3997444" lon="14.1233763"><ele>61.0</ele><time>2026-05-02T06:59:16.669Z</time></trkpt><trkpt lat="42.3997063" lon="14.1234814"><ele>59.25</ele><time>2026-05-02T06:59:17.681Z</time></trkpt><trkpt lat="42.3996458" lon="14.1236076"><ele>57.5</ele><time>2026-05-02T06:59:18.673Z</time></trkpt><trkpt lat="42.3995923" lon="14.1237332"><ele>55.75</ele><time>2026-05-02T06:59:19.668Z</time></trkpt><trkpt lat="42.3995384" lon="14.1238671"><ele>54.0</ele><time>2026-05-02T06:59:20.677Z</time></trkpt><trkpt lat="42.3994692" lon="14.12403"><ele>53.33333333333333</ele><time>2026-05-02T06:59:21.674Z</time></trkpt><trkpt lat="42.3993908" lon="14.1242203"><ele>52.666666666666664</ele><time>2026-05-02T06:59:22.69Z</time></trkpt><trkpt lat="42.3993052" lon="14.1244234"><ele>52.0</ele><time>2026-05-02T06:59:23.672Z</time></trkpt><trkpt lat="42.3992199" lon="14.1246111"><ele>52.0</ele><time>2026-05-02T06:59:24.682Z</time></trkpt><trkpt lat="42.3991382" lon="14.1247795"><ele>52.0</ele><time>2026-05-02T06:59:25.666Z</time></trkpt><trkpt lat="42.3990568" lon="14.1249202"><ele>52.0</ele><time>2026-05-02T06:59:26.675Z</time></trkpt><trkpt lat="42.3989768" lon="14.125052"><ele>52.0</ele><time>2026-05-02T06:59:27.673Z</time></trkpt><trkpt lat="42.3989068" lon="14.1251739"><ele>50.6</ele><time>2026-05-02T06:59:28.668Z</time></trkpt><trkpt lat="42.3988225" lon="14.1252674"><ele>49.2</ele><time>2026-05-02T06:59:29.664Z</time></trkpt><trkpt lat="42.3987211" lon="14.1253334"><ele>47.8</ele><time>2026-05-02T06:59:30.677Z</time></trkpt><trkpt lat="42.3986135" lon="14.1253618"><ele>46.4</ele><time>2026-05-02T06:59:31.678Z</time></trkpt><trkpt lat="42.3985051" lon="14.1253614"><ele>45.0</ele><time>2026-05-02T06:59:32.668Z</time></trkpt><trkpt lat="42.398402" lon="14.1253512"><ele>45.0</ele><time>2026-05-02T06:59:33.676Z</time></trkpt><trkpt lat="42.3982923" lon="14.125319"><ele>45.0</ele><time>2026-05-02T06:59:34.684Z</time></trkpt><trkpt lat="42.3981796" lon="14.1252804"><ele>45.0</ele><time>2026-05-02T06:59:35.686Z</time></trkpt><trkpt lat="42.3980584" lon="14.1252549"><ele>45.0</ele><time>2026-05-02T06:59:36.679Z</time></trkpt><trkpt lat="42.3979353" lon="14.1252914"><ele>45.2</ele><time>2026-05-02T06:59:37.689Z</time></trkpt><trkpt lat="42.3978427" lon="14.125368"><ele>45.4</ele><time>2026-05-02T06:59:38.681Z</time></trkpt><trkpt lat="42.3977661" lon="14.1254664"><ele>45.599999999999994</ele><time>2026-05-02T06:59:39.666Z</time></trkpt><trkpt lat="42.3977042" lon="14.1256005"><ele>45.8</ele><time>2026-05-02T06:59:40.681Z</time></trkpt><trkpt lat="42.3976524" lon="14.1257367"><ele>46.0</ele><time>2026-05-02T06:59:41.686Z</time></trkpt><trkpt lat="42.3975952" lon="14.125841"><ele>46.8</ele><time>2026-05-02T06:59:42.667Z</time></trkpt><trkpt lat="42.3975209" lon="14.1259374"><ele>47.599999999999994</ele><time>2026-05-02T06:59:43.683Z</time></trkpt><trkpt lat="42.397432" lon="14.1260098"><ele>48.4</ele><time>2026-05-02T06:59:44.688Z</time></trkpt><trkpt lat="42.3973379" lon="14.1260688"><ele>49.2</ele><time>2026-05-02T06:59:45.669Z</time></trkpt><trkpt lat="42.3972406" lon="14.1261235"><ele>50.0</ele><time>2026-05-02T06:59:46.678Z</time></trkpt><trkpt lat="42.3971426" lon="14.1261809"><ele>51.0</ele><time>2026-05-02T06:59:47.679Z</time></trkpt><trkpt lat="42.397036" lon="14.1262329"><ele>52.0</ele><time>2026-05-02T06:59:48.688Z</time></trkpt><trkpt lat="42.3969294" lon="14.1262911"><ele>53.0</ele><time>2026-05-02T06:59:49.697Z</time></trkpt><trkpt lat="42.3968247" lon="14.1263372"><ele>54.0</ele><time>2026-05-02T06:59:50.682Z</time></trkpt><trkpt lat="42.3967118" lon="14.1263762"><ele>54.0</ele><time>2026-05-02T06:59:51.685Z</time></trkpt><trkpt lat="42.3965933" lon="14.1264399"><ele>54.0</ele><time>2026-05-02T06:59:52.683Z</time></trkpt><trkpt lat="42.3964748" lon="14.1264863"><ele>54.0</ele><time>2026-05-02T06:59:53.689Z</time></trkpt><trkpt lat="42.3963587" lon="14.126523"><ele>54.0</ele><time>2026-05-02T06:59:54.687Z</time></trkpt><trkpt lat="42.3962445" lon="14.1265471"><ele>54.0</ele><time>2026-05-02T06:59:55.668Z</time></trkpt><trkpt lat="42.3961225" lon="14.1265605"><ele>54.0</ele><time>2026-05-02T06:59:56.69Z</time></trkpt><trkpt lat="42.3959826" lon="14.1265689"><ele>54.0</ele><time>2026-05-02T06:59:57.678Z</time></trkpt><trkpt lat="42.3958474" lon="14.1266029"><ele>54.0</ele><time>2026-05-02T06:59:58.67Z</time></trkpt><trkpt lat="42.3957152" lon="14.1266498"><ele>54.0</ele><time>2026-05-02T06:59:59.677Z</time></trkpt><trkpt lat="42.3955846" lon="14.1266871"><ele>54.0</ele><time>2026-05-02T07:00:00.67Z</time></trkpt><trkpt lat="42.3954493" lon="14.1267156"><ele>54.0</ele><time>2026-05-02T07:00:01.683Z</time></trkpt><trkpt lat="42.3953183" lon="14.1267381"><ele>54.0</ele><time>2026-05-02T07:00:02.668Z</time></trkpt><trkpt lat="42.3951853" lon="14.1267687"><ele>54.0</ele><time>2026-05-02T07:00:03.673Z</time></trkpt><trkpt lat="42.3950506" lon="14.1267888"><ele>54.0</ele><time>2026-05-02T07:00:04.681Z</time></trkpt><trkpt lat="42.3949201" lon="14.1268203"><ele>54.0</ele><time>2026-05-02T07:00:05.674Z</time></trkpt><trkpt lat="42.3947867" lon="14.12686"><ele>54.0</ele><time>2026-05-02T07:00:06.682Z</time></trkpt><trkpt lat="42.3946506" lon="14.1268837"><ele>54.75</ele><time>2026-05-02T07:00:07.685Z</time></trkpt><trkpt lat="42.3945086" lon="14.1269065"><ele>55.5</ele><time>2026-05-02T07:00:08.698Z</time></trkpt><trkpt lat="42.3943655" lon="14.1269365"><ele>56.25</ele><time>2026-05-02T07:00:09.679Z</time></trkpt><trkpt lat="42.3942204" lon="14.1269619"><ele>57.0</ele><time>2026-05-02T07:00:10.694Z</time></trkpt><trkpt lat="42.3940784" lon="14.1269791"><ele>57.0</ele><time>2026-05-02T07:00:11.684Z</time></trkpt><trkpt lat="42.3939458" lon="14.1270069"><ele>57.0</ele><time>2026-05-02T07:00:12.684Z</time></trkpt><trkpt lat="42.3938169" lon="14.1270443"><ele>57.0</ele><time>2026-05-02T07:00:13.675Z</time></trkpt><trkpt lat="42.3936917" lon="14.1271133"><ele>57.0</ele><time>2026-05-02T07:00:14.671Z</time></trkpt><trkpt lat="42.3935722" lon="14.1272104"><ele>56.33333333333333</ele><time>2026-05-02T07:00:15.664Z</time></trkpt><trkpt lat="42.3934411" lon="14.1273279"><ele>55.666666666666664</ele><time>2026-05-02T07:00:16.671Z</time></trkpt><trkpt lat="42.393309" lon="14.1274587"><ele>55.0</ele><time>2026-05-02T07:00:17.688Z</time></trkpt><trkpt lat="42.3931747" lon="14.1276012"><ele>54.666666666666664</ele><time>2026-05-02T07:00:18.676Z</time></trkpt><trkpt lat="42.3930392" lon="14.1277464"><ele>54.33333333333333</ele><time>2026-05-02T07:00:19.672Z</time></trkpt><trkpt lat="42.3929086" lon="14.1279141"><ele>54.0</ele><time>2026-05-02T07:00:20.674Z</time></trkpt><trkpt lat="42.392782" lon="14.1280705"><ele>54.0</ele><time>2026-05-02T07:00:21.69Z</time></trkpt><trkpt lat="42.3926543" lon="14.1282299"><ele>54.0</ele><time>2026-05-02T07:00:22.685Z</time></trkpt><trkpt lat="42.3925402" lon="14.1283947"><ele>54.0</ele><time>2026-05-02T07:00:23.688Z</time></trkpt><trkpt lat="42.3924275" lon="14.1285491"><ele>54.0</ele><time>2026-05-02T07:00:24.689Z</time></trkpt><trkpt lat="42.3923283" lon="14.1286955"><ele>54.0</ele><time>2026-05-02T07:00:25.676Z</time></trkpt><trkpt lat="42.3922407" lon="14.1288436"><ele>54.0</ele><time>2026-05-02T07:00:26.687Z</time></trkpt><trkpt lat="42.3921562" lon="14.1289752"><ele>54.0</ele><time>2026-05-02T07:00:27.676Z</time></trkpt><trkpt lat="42.3920832" lon="14.1291012"><ele>54.2</ele><time>2026-05-02T07:00:28.675Z</time></trkpt><trkpt lat="42.3920137" lon="14.1292129"><ele>54.400000000000006</ele><time>2026-05-02T07:00:29.683Z</time></trkpt><trkpt lat="42.3919347" lon="14.1293123"><ele>54.6</ele><time>2026-05-02T07:00:30.667Z</time></trkpt><trkpt lat="42.391864" lon="14.1294"><ele>54.8</ele><time>2026-05-02T07:00:31.677Z</time></trkpt><trkpt lat="42.3917879" lon="14.129487"><ele>55.0</ele><time>2026-05-02T07:00:32.678Z</time></trkpt><trkpt lat="42.3917046" lon="14.1295516"><ele>55.0</ele><time>2026-05-02T07:00:33.679Z</time></trkpt><trkpt lat="42.3916206" lon="14.1295733"><ele>55.0</ele><time>2026-05-02T07:00:34.692Z</time></trkpt><trkpt lat="42.3915211" lon="14.1295501"><ele>55.0</ele><time>2026-05-02T07:00:35.672Z</time></trkpt><trkpt lat="42.3914076" lon="14.1295141"><ele>55.0</ele><time>2026-05-02T07:00:36.683Z</time></trkpt><trkpt lat="42.3912904" lon="14.1294603"><ele>55.0</ele><time>2026-05-02T07:00:37.672Z</time></trkpt><trkpt lat="42.3911717" lon="14.1294251"><ele>51.75</ele><time>2026-05-02T07:00:38.667Z</time></trkpt><trkpt lat="42.3910475" lon="14.129409"><ele>48.5</ele><time>2026-05-02T07:00:39.686Z</time></trkpt><trkpt lat="42.3909272" lon="14.1294237"><ele>45.25</ele><time>2026-05-02T07:00:40.678Z</time></trkpt><trkpt lat="42.3907924" lon="14.1294606"><ele>42.0</ele><time>2026-05-02T07:00:41.677Z</time></trkpt><trkpt lat="42.3906628" lon="14.1295108"><ele>42.0</ele><time>2026-05-02T07:00:42.673Z</time></trkpt><trkpt lat="42.3905358" lon="14.1295633"><ele>42.0</ele><time>2026-05-02T07:00:43.674Z</time></trkpt><trkpt lat="42.3904121" lon="14.1296071"><ele>42.0</ele><time>2026-05-02T07:00:44.666Z</time></trkpt><trkpt lat="42.3902965" lon="14.1296522"><ele>42.0</ele><time>2026-05-02T07:00:45.674Z</time></trkpt><trkpt lat="42.390186" lon="14.1297093"><ele>39.6</ele><time>2026-05-02T07:00:46.673Z</time></trkpt><trkpt lat="42.3900824" lon="14.1297609"><ele>37.2</ele><time>2026-05-02T07:00:47.673Z</time></trkpt><trkpt lat="42.3899846" lon="14.1298023"><ele>34.8</ele><time>2026-05-02T07:00:48.696Z</time></trkpt><trkpt lat="42.3899001" lon="14.1298338"><ele>32.4</ele><time>2026-05-02T07:00:49.669Z</time></trkpt><trkpt lat="42.3898265" lon="14.129851"><ele>30.0</ele><time>2026-05-02T07:00:50.685Z</time></trkpt><trkpt lat="42.3897514" lon="14.1298781"><ele>30.0</ele><time>2026-05-02T07:00:51.676Z</time></trkpt><trkpt lat="42.3896474" lon="14.1299146"><ele>30.0</ele><time>2026-05-02T07:00:53.667Z</time></trkpt><trkpt lat="42.3895647" lon="14.1299602"><ele>30.0</ele><time>2026-05-02T07:00:55.667Z</time></trkpt><trkpt lat="42.3894891" lon="14.1300129"><ele>30.0</ele><time>2026-05-02T07:00:57.669Z</time></trkpt><trkpt lat="42.3894322" lon="14.1300504"><ele>30.0</ele><time>2026-05-02T07:00:58.686Z</time></trkpt><trkpt lat="42.3893604" lon="14.1301151"><ele>30.0</ele><time>2026-05-02T07:00:59.678Z</time></trkpt><trkpt lat="42.3892809" lon="14.1301805"><ele>30.0</ele><time>2026-05-02T07:01:00.692Z</time></trkpt><trkpt lat="42.3891759" lon="14.1302606"><ele>30.0</ele><time>2026-05-02T07:01:01.673Z</time></trkpt><trkpt lat="42.3890715" lon="14.1303385"><ele>30.0</ele><time>2026-05-02T07:01:02.685Z</time></trkpt><trkpt lat="42.388977" lon="14.1304121"><ele>30.0</ele><time>2026-05-02T07:01:03.691Z</time></trkpt><trkpt lat="42.388893" lon="14.1304883"><ele>30.0</ele><time>2026-05-02T07:01:04.693Z</time></trkpt><trkpt lat="42.3888225" lon="14.1305507"><ele>30.0</ele><time>2026-05-02T07:01:05.678Z</time></trkpt><trkpt lat="42.3887667" lon="14.1306041"><ele>30.0</ele><time>2026-05-02T07:01:06.688Z</time></trkpt><trkpt lat="42.3886839" lon="14.130674"><ele>30.0</ele><time>2026-05-02T07:01:08.681Z</time></trkpt><trkpt lat="42.3886233" lon="14.1307225"><ele>30.0</ele><time>2026-05-02T07:01:10.684Z</time></trkpt><trkpt lat="42.388546" lon="14.1307424"><ele>30.0</ele><time>2026-05-02T07:01:13.681Z</time></trkpt><trkpt lat="42.388481" lon="14.1306957"><ele>30.0</ele><time>2026-05-02T07:01:15.667Z</time></trkpt><trkpt lat="42.3884247" lon="14.130654"><ele>30.0</ele><time>2026-05-02T07:01:16.668Z</time></trkpt><trkpt lat="42.3883543" lon="14.130613"><ele>30.0</ele><time>2026-05-02T07:01:17.671Z</time></trkpt><trkpt lat="42.3882947" lon="14.1305808"><ele>30.0</ele><time>2026-05-02T07:01:18.682Z</time></trkpt><trkpt lat="42.3882183" lon="14.1305274"><ele>30.0</ele><time>2026-05-02T07:01:20.676Z</time></trkpt><trkpt lat="42.3881563" lon="14.1304773"><ele>30.0</ele><time>2026-05-02T07:01:23.687Z</time></trkpt><trkpt lat="42.3880868" lon="14.1304228"><ele>30.0</ele><time>2026-05-02T07:01:26.679Z</time></trkpt><trkpt lat="42.3879663" lon="14.1303697"><ele>30.285714285714285</ele><time>2026-05-02T07:01:28.676Z</time></trkpt><trkpt lat="42.3879011" lon="14.1303478"><ele>30.57142857142857</ele><time>2026-05-02T07:01:29.682Z</time></trkpt><trkpt lat="42.3878431" lon="14.1303124"><ele>30.857142857142854</ele><time>2026-05-02T07:01:30.691Z</time></trkpt><trkpt lat="42.3877857" lon="14.1302684"><ele>31.142857142857142</ele><time>2026-05-02T07:01:31.683Z</time></trkpt><trkpt lat="42.3877308" lon="14.1302135"><ele>31.428571428571423</ele><time>2026-05-02T07:01:32.675Z</time></trkpt><trkpt lat="42.3876707" lon="14.1301542"><ele>31.71428571428571</ele><time>2026-05-02T07:01:33.679Z</time></trkpt><trkpt lat="42.3875987" lon="14.1301"><ele>32.0</ele><time>2026-05-02T07:01:34.679Z</time></trkpt><trkpt lat="42.387526" lon="14.1300402"><ele>32.0</ele><time>2026-05-02T07:01:35.676Z</time></trkpt><trkpt lat="42.3874524" lon="14.1299687"><ele>32.0</ele><time>2026-05-02T07:01:36.682Z</time></trkpt><trkpt lat="42.387379" lon="14.1298973"><ele>32.0</ele><time>2026-05-02T07:01:37.691Z</time></trkpt><trkpt lat="42.3873073" lon="14.1298329"><ele>32.0</ele><time>2026-05-02T07:01:38.684Z</time></trkpt><trkpt lat="42.387233" lon="14.1297657"><ele>32.0</ele><time>2026-05-02T07:01:39.694Z</time></trkpt><trkpt lat="42.3871559" lon="14.1296882"><ele>32.2</ele><time>2026-05-02T07:01:40.683Z</time></trkpt><trkpt lat="42.3870786" lon="14.1296074"><ele>32.400000000000006</ele><time>2026-05-02T07:01:41.705Z</time></trkpt><trkpt lat="42.3870032" lon="14.1295207"><ele>32.599999999999994</ele><time>2026-05-02T07:01:42.674Z</time></trkpt><trkpt lat="42.3869269" lon="14.1294358"><ele>32.8</ele><time>2026-05-02T07:01:43.708Z</time></trkpt><trkpt lat="42.3868512" lon="14.1293401"><ele>33.0</ele><time>2026-05-02T07:01:44.667Z</time></trkpt><trkpt lat="42.3867812" lon="14.1292298"><ele>33.0</ele><time>2026-05-02T07:01:45.684Z</time></trkpt><trkpt lat="42.3867085" lon="14.1291084"><ele>33.0</ele><time>2026-05-02T07:01:46.686Z</time></trkpt><trkpt lat="42.3866236" lon="14.128985"><ele>33.0</ele><time>2026-05-02T07:01:47.676Z</time></trkpt><trkpt lat="42.3865329" lon="14.1288418"><ele>33.0</ele><time>2026-05-02T07:01:48.673Z</time></trkpt><trkpt lat="42.3864488" lon="14.1286974"><ele>33.5</ele><time>2026-05-02T07:01:49.679Z</time></trkpt><trkpt lat="42.3863443" lon="14.1285496"><ele>34.0</ele><time>2026-05-02T07:01:50.674Z</time></trkpt><trkpt lat="42.3862361" lon="14.1284116"><ele>34.5</ele><time>2026-05-02T07:01:51.679Z</time></trkpt><trkpt lat="42.3861233" lon="14.1282882"><ele>35.0</ele><time>2026-05-02T07:01:52.676Z</time></trkpt><trkpt lat="42.3860148" lon="14.1281791"><ele>35.25</ele><time>2026-05-02T07:01:53.668Z</time></trkpt><trkpt lat="42.3859107" lon="14.1280733"><ele>35.5</ele><time>2026-05-02T07:01:54.674Z</time></trkpt><trkpt lat="42.3858003" lon="14.1279792"><ele>35.75</ele><time>2026-05-02T07:01:55.682Z</time></trkpt><trkpt lat="42.3856947" lon="14.1278777"><ele>36.0</ele><time>2026-05-02T07:01:56.674Z</time></trkpt><trkpt lat="42.3855915" lon="14.1277648"><ele>36.0</ele><time>2026-05-02T07:01:57.688Z</time></trkpt><trkpt lat="42.3854858" lon="14.1276467"><ele>36.0</ele><time>2026-05-02T07:01:58.685Z</time></trkpt><trkpt lat="42.3853736" lon="14.1275132"><ele>36.0</ele><time>2026-05-02T07:01:59.677Z</time></trkpt><trkpt lat="42.3852622" lon="14.1273867"><ele>36.0</ele><time>2026-05-02T07:02:00.68Z</time></trkpt><trkpt lat="42.3851537" lon="14.1272734"><ele>37.5</ele><time>2026-05-02T07:02:01.677Z</time></trkpt><trkpt lat="42.3850513" lon="14.1271776"><ele>39.0</ele><time>2026-05-02T07:02:02.683Z</time></trkpt><trkpt lat="42.384941" lon="14.1271095"><ele>40.5</ele><time>2026-05-02T07:02:03.681Z</time></trkpt><trkpt lat="42.3848073" lon="14.127057"><ele>42.0</ele><time>2026-05-02T07:02:04.681Z</time></trkpt><trkpt lat="42.3846629" lon="14.1270153"><ele>42.0</ele><time>2026-05-02T07:02:05.676Z</time></trkpt><trkpt lat="42.3845147" lon="14.1269682"><ele>42.0</ele><time>2026-05-02T07:02:06.683Z</time></trkpt><trkpt lat="42.3843676" lon="14.1269153"><ele>42.0</ele><time>2026-05-02T07:02:07.684Z</time></trkpt><trkpt lat="42.3842335" lon="14.1268529"><ele>42.0</ele><time>2026-05-02T07:02:08.684Z</time></trkpt><trkpt lat="42.3840902" lon="14.1267952"><ele>42.0</ele><time>2026-05-02T07:02:09.69Z</time></trkpt><trkpt lat="42.3839572" lon="14.1267285"><ele>42.0</ele><time>2026-05-02T07:02:10.675Z</time></trkpt><trkpt lat="42.3838379" lon="14.126662"><ele>42.0</ele><time>2026-05-02T07:02:11.686Z</time></trkpt><trkpt lat="42.3837339" lon="14.1265927"><ele>42.0</ele><time>2026-05-02T07:02:12.679Z</time></trkpt><trkpt lat="42.3836405" lon="14.1265232"><ele>44.2</ele><time>2026-05-02T07:02:13.674Z</time></trkpt><trkpt lat="42.3835513" lon="14.1264673"><ele>46.400000000000006</ele><time>2026-05-02T07:02:14.688Z</time></trkpt><trkpt lat="42.3834624" lon="14.1264101"><ele>48.599999999999994</ele><time>2026-05-02T07:02:15.679Z</time></trkpt><trkpt lat="42.3833637" lon="14.1263787"><ele>50.8</ele><time>2026-05-02T07:02:16.676Z</time></trkpt><trkpt lat="42.3832468" lon="14.1263719"><ele>53.0</ele><time>2026-05-02T07:02:17.674Z</time></trkpt><trkpt lat="42.3831287" lon="14.126375"><ele>53.0</ele><time>2026-05-02T07:02:18.689Z</time></trkpt><trkpt lat="42.382997" lon="14.1263722"><ele>53.0</ele><time>2026-05-02T07:02:19.669Z</time></trkpt><trkpt lat="42.3828587" lon="14.1263608"><ele>53.0</ele><time>2026-05-02T07:02:20.676Z</time></trkpt><trkpt lat="42.3827293" lon="14.1263333"><ele>53.0</ele><time>2026-05-02T07:02:21.68Z</time></trkpt><trkpt lat="42.3826071" lon="14.1262811"><ele>53.0</ele><time>2026-05-02T07:02:22.684Z</time></trkpt><trkpt lat="42.3824781" lon="14.1262029"><ele>53.0</ele><time>2026-05-02T07:02:23.683Z</time></trkpt><trkpt lat="42.3823349" lon="14.1261117"><ele>53.0</ele><time>2026-05-02T07:02:24.68Z</time></trkpt><trkpt lat="42.3821953" lon="14.1259896"><ele>53.0</ele><time>2026-05-02T07:02:25.679Z</time></trkpt><trkpt lat="42.3820547" lon="14.125861"><ele>53.0</ele><time>2026-05-02T07:02:26.681Z</time></trkpt><trkpt lat="42.3819161" lon="14.1257325"><ele>53.0</ele><time>2026-05-02T07:02:27.687Z</time></trkpt><trkpt lat="42.3817775" lon="14.125621"><ele>53.0</ele><time>2026-05-02T07:02:28.673Z</time></trkpt><trkpt lat="42.3816434" lon="14.1255199"><ele>53.0</ele><time>2026-05-02T07:02:29.68Z</time></trkpt><trkpt lat="42.3815117" lon="14.1254208"><ele>53.0</ele><time>2026-05-02T07:02:30.668Z</time></trkpt><trkpt lat="42.3813832" lon="14.1253365"><ele>53.0</ele><time>2026-05-02T07:02:31.667Z</time></trkpt><trkpt lat="42.3812606" lon="14.1252519"><ele>51.75</ele><time>2026-05-02T07:02:32.683Z</time></trkpt><trkpt lat="42.3811358" lon="14.1251558"><ele>50.5</ele><time>2026-05-02T07:02:33.686Z</time></trkpt><trkpt lat="42.3810281" lon="14.1250614"><ele>49.25</ele><time>2026-05-02T07:02:34.682Z</time></trkpt><trkpt lat="42.3809177" lon="14.1249857"><ele>48.0</ele><time>2026-05-02T07:02:35.684Z</time></trkpt><trkpt lat="42.3808035" lon="14.1249111"><ele>49.33333333333333</ele><time>2026-05-02T07:02:36.692Z</time></trkpt><trkpt lat="42.3806772" lon="14.1248107"><ele>50.666666666666664</ele><time>2026-05-02T07:02:37.685Z</time></trkpt><trkpt lat="42.3805394" lon="14.1247129"><ele>52.0</ele><time>2026-05-02T07:02:38.689Z</time></trkpt><trkpt lat="42.3804012" lon="14.1246107"><ele>52.0</ele><time>2026-05-02T07:02:39.668Z</time></trkpt><trkpt lat="42.3802624" lon="14.1245095"><ele>52.0</ele><time>2026-05-02T07:02:40.681Z</time></trkpt><trkpt lat="42.3801352" lon="14.1244118"><ele>52.0</ele><time>2026-05-02T07:02:41.689Z</time></trkpt><trkpt lat="42.3800182" lon="14.1243123"><ele>52.0</ele><time>2026-05-02T07:02:42.668Z</time></trkpt><trkpt lat="42.3799086" lon="14.1242168"><ele>51.99999999999999</ele><time>2026-05-02T07:02:43.695Z</time></trkpt><trkpt lat="42.3798283" lon="14.1241047"><ele>52.0</ele><time>2026-05-02T07:02:44.691Z</time></trkpt><trkpt lat="42.3798002" lon="14.1239866"><ele>52.0</ele><time>2026-05-02T07:02:45.678Z</time></trkpt><trkpt lat="42.3797807" lon="14.1238756"><ele>52.0</ele><time>2026-05-02T07:02:46.68Z</time></trkpt><trkpt lat="42.379748" lon="14.123801"><ele>51.99999999999999</ele><time>2026-05-02T07:02:47.679Z</time></trkpt><trkpt lat="42.3796859" lon="14.1237611"><ele>52.0</ele><time>2026-05-02T07:02:48.676Z</time></trkpt><trkpt lat="42.3796105" lon="14.1237382"><ele>53.75</ele><time>2026-05-02T07:02:49.673Z</time></trkpt><trkpt lat="42.3795111" lon="14.1237463"><ele>55.5</ele><time>2026-05-02T07:02:50.673Z</time></trkpt><trkpt lat="42.3793986" lon="14.1237299"><ele>57.25</ele><time>2026-05-02T07:02:51.669Z</time></trkpt><trkpt lat="42.3792683" lon="14.1236854"><ele>59.0</ele><time>2026-05-02T07:02:52.687Z</time></trkpt><trkpt lat="42.3791329" lon="14.1236409"><ele>59.0</ele><time>2026-05-02T07:02:53.676Z</time></trkpt><trkpt lat="42.378994" lon="14.1236037"><ele>59.0</ele><time>2026-05-02T07:02:54.684Z</time></trkpt><trkpt lat="42.3788578" lon="14.1235844"><ele>59.0</ele><time>2026-05-02T07:02:55.672Z</time></trkpt><trkpt lat="42.3787162" lon="14.1235617"><ele>59.0</ele><time>2026-05-02T07:02:56.682Z</time></trkpt><trkpt lat="42.378563" lon="14.1235332"><ele>58.0</ele><time>2026-05-02T07:02:57.688Z</time></trkpt><trkpt lat="42.3784182" lon="14.1235132"><ele>57.0</ele><time>2026-05-02T07:02:58.679Z</time></trkpt><trkpt lat="42.3782836" lon="14.1234904"><ele>56.0</ele><time>2026-05-02T07:02:59.669Z</time></trkpt><trkpt lat="42.3781549" lon="14.1234783"><ele>55.0</ele><time>2026-05-02T07:03:00.667Z</time></trkpt><trkpt lat="42.3780343" lon="14.1234592"><ele>52.75</ele><time>2026-05-02T07:03:01.662Z</time></trkpt><trkpt lat="42.3779084" lon="14.1234293"><ele>50.5</ele><time>2026-05-02T07:03:02.659Z</time></trkpt><trkpt lat="42.3777816" lon="14.123397"><ele>48.25</ele><time>2026-05-02T07:03:03.667Z</time></trkpt><trkpt lat="42.377668" lon="14.1233809"><ele>46.0</ele><time>2026-05-02T07:03:04.671Z</time></trkpt><trkpt lat="42.377556" lon="14.1233675"><ele>46.0</ele><time>2026-05-02T07:03:05.686Z</time></trkpt><trkpt lat="42.3774457" lon="14.1233663"><ele>46.0</ele><time>2026-05-02T07:03:06.672Z</time></trkpt><trkpt lat="42.3773521" lon="14.1233925"><ele>46.0</ele><time>2026-05-02T07:03:07.671Z</time></trkpt><trkpt lat="42.3772475" lon="14.1234553"><ele>46.0</ele><time>2026-05-02T07:03:08.668Z</time></trkpt><trkpt lat="42.3771639" lon="14.1235337"><ele>46.0</ele><time>2026-05-02T07:03:09.676Z</time></trkpt><trkpt lat="42.3770934" lon="14.1236285"><ele>45.599999999999994</ele><time>2026-05-02T07:03:10.677Z</time></trkpt><trkpt lat="42.37704" lon="14.1237315"><ele>45.2</ele><time>2026-05-02T07:03:11.676Z</time></trkpt><trkpt lat="42.3769916" lon="14.1238319"><ele>44.8</ele><time>2026-05-02T07:03:12.683Z</time></trkpt><trkpt lat="42.376938" lon="14.1239207"><ele>44.400000000000006</ele><time>2026-05-02T07:03:13.672Z</time></trkpt><trkpt lat="42.3768778" lon="14.1239977"><ele>44.0</ele><time>2026-05-02T07:03:14.673Z</time></trkpt><trkpt lat="42.3767866" lon="14.124102"><ele>42.800000000000004</ele><time>2026-05-02T07:03:16.674Z</time></trkpt><trkpt lat="42.3767075" lon="14.1241813"><ele>41.6</ele><time>2026-05-02T07:03:18.684Z</time></trkpt><trkpt lat="42.3766366" lon="14.1242254"><ele>40.4</ele><time>2026-05-02T07:03:22.685Z</time></trkpt><trkpt lat="42.3765642" lon="14.124207"><ele>39.2</ele><time>2026-05-02T07:03:24.684Z</time></trkpt><trkpt lat="42.3764335" lon="14.1241834"><ele>38.0</ele><time>2026-05-02T07:03:26.683Z</time></trkpt><trkpt lat="42.3763468" lon="14.1241629"><ele>38.0</ele><time>2026-05-02T07:03:27.677Z</time></trkpt><trkpt lat="42.3762535" lon="14.1241137"><ele>38.0</ele><time>2026-05-02T07:03:28.666Z</time></trkpt><trkpt lat="42.3761648" lon="14.12406"><ele>38.0</ele><time>2026-05-02T07:03:29.671Z</time></trkpt><trkpt lat="42.3760714" lon="14.1240206"><ele>38.0</ele><time>2026-05-02T07:03:30.679Z</time></trkpt><trkpt lat="42.3759638" lon="14.1239864"><ele>38.0</ele><time>2026-05-02T07:03:31.696Z</time></trkpt><trkpt lat="42.3758481" lon="14.1239515"><ele>38.25</ele><time>2026-05-02T07:03:32.673Z</time></trkpt><trkpt lat="42.3757311" lon="14.1238993"><ele>38.5</ele><time>2026-05-02T07:03:33.674Z</time></trkpt><trkpt lat="42.3756119" lon="14.1238267"><ele>38.75</ele><time>2026-05-02T07:03:34.678Z</time></trkpt><trkpt lat="42.3754887" lon="14.1237461"><ele>39.0</ele><time>2026-05-02T07:03:35.675Z</time></trkpt><trkpt lat="42.3753608" lon="14.1236594"><ele>39.0</ele><time>2026-05-02T07:03:36.68Z</time></trkpt><trkpt lat="42.3752336" lon="14.1235672"><ele>39.0</ele><time>2026-05-02T07:03:37.685Z</time></trkpt><trkpt lat="42.3751114" lon="14.123469"><ele>39.0</ele><time>2026-05-02T07:03:38.698Z</time></trkpt><trkpt lat="42.3749993" lon="14.1233773"><ele>39.0</ele><time>2026-05-02T07:03:39.682Z</time></trkpt><trkpt lat="42.3749045" lon="14.1232954"><ele>39.4</ele><time>2026-05-02T07:03:40.666Z</time></trkpt><trkpt lat="42.3748038" lon="14.1232192"><ele>39.8</ele><time>2026-05-02T07:03:41.676Z</time></trkpt><trkpt lat="42.3747041" lon="14.1231387"><ele>40.199999999999996</ele><time>2026-05-02T07:03:42.681Z</time></trkpt><trkpt lat="42.3746124" lon="14.1230651"><ele>40.599999999999994</ele><time>2026-05-02T07:03:43.679Z</time></trkpt><trkpt lat="42.3745231" lon="14.1229997"><ele>41.0</ele><time>2026-05-02T07:03:44.667Z</time></trkpt><trkpt lat="42.3744405" lon="14.1229323"><ele>41.0</ele><time>2026-05-02T07:03:45.673Z</time></trkpt><trkpt lat="42.3743734" lon="14.1228596"><ele>41.0</ele><time>2026-05-02T07:03:46.669Z</time></trkpt><trkpt lat="42.3743088" lon="14.1227883"><ele>41.0</ele><time>2026-05-02T07:03:47.677Z</time></trkpt><trkpt lat="42.3742551" lon="14.1227158"><ele>41.0</ele><time>2026-05-02T07:03:48.701Z</time></trkpt><trkpt lat="42.3741892" lon="14.1226516"><ele>41.0</ele><time>2026-05-02T07:03:49.68Z</time></trkpt><trkpt lat="42.374104" lon="14.1226027"><ele>41.0</ele><time>2026-05-02T07:03:50.682Z</time></trkpt><trkpt lat="42.373996" lon="14.1225403"><ele>41.0</ele><time>2026-05-02T07:03:51.685Z</time></trkpt><trkpt lat="42.3738856" lon="14.1224822"><ele>41.0</ele><time>2026-05-02T07:03:52.672Z</time></trkpt><trkpt lat="42.3737632" lon="14.1223965"><ele>41.0</ele><time>2026-05-02T07:03:53.683Z</time></trkpt><trkpt lat="42.3736389" lon="14.1223048"><ele>41.0</ele><time>2026-05-02T07:03:54.679Z</time></trkpt><trkpt lat="42.3735195" lon="14.1222123"><ele>41.0</ele><time>2026-05-02T07:03:55.68Z</time></trkpt><trkpt lat="42.3733982" lon="14.122116"><ele>41.0</ele><time>2026-05-02T07:03:56.671Z</time></trkpt><trkpt lat="42.3732782" lon="14.1220148"><ele>41.0</ele><time>2026-05-02T07:03:57.672Z</time></trkpt><trkpt lat="42.3731528" lon="14.1219196"><ele>41.0</ele><time>2026-05-02T07:03:58.683Z</time></trkpt><trkpt lat="42.3730296" lon="14.1218269"><ele>41.5</ele><time>2026-05-02T07:03:59.671Z</time></trkpt><trkpt lat="42.3729153" lon="14.1217322"><ele>42.0</ele><time>2026-05-02T07:04:00.668Z</time></trkpt><trkpt lat="42.3727896" lon="14.1216347"><ele>42.5</ele><time>2026-05-02T07:04:01.677Z</time></trkpt><trkpt lat="42.3726611" lon="14.1215291"><ele>43.0</ele><time>2026-05-02T07:04:02.674Z</time></trkpt><trkpt lat="42.3725355" lon="14.1214332"><ele>43.0</ele><time>2026-05-02T07:04:03.689Z</time></trkpt><trkpt lat="42.3724154" lon="14.1213388"><ele>43.0</ele><time>2026-05-02T07:04:04.681Z</time></trkpt><trkpt lat="42.3723049" lon="14.1212488"><ele>43.0</ele><time>2026-05-02T07:04:05.68Z</time></trkpt><trkpt lat="42.3721886" lon="14.1211609"><ele>43.0</ele><time>2026-05-02T07:04:06.681Z</time></trkpt><trkpt lat="42.372054" lon="14.1210685"><ele>39.66666666666667</ele><time>2026-05-02T07:04:07.68Z</time></trkpt><trkpt lat="42.3719103" lon="14.1209889"><ele>36.333333333333336</ele><time>2026-05-02T07:04:08.673Z</time></trkpt><trkpt lat="42.3717668" lon="14.1209161"><ele>33.0</ele><time>2026-05-02T07:04:09.672Z</time></trkpt><trkpt lat="42.3716248" lon="14.1208546"><ele>33.0</ele><time>2026-05-02T07:04:10.677Z</time></trkpt><trkpt lat="42.3714834" lon="14.1208006"><ele>33.0</ele><time>2026-05-02T07:04:11.675Z</time></trkpt><trkpt lat="42.3713509" lon="14.1207377"><ele>33.0</ele><time>2026-05-02T07:04:12.682Z</time></trkpt><trkpt lat="42.3712208" lon="14.120682"><ele>33.0</ele><time>2026-05-02T07:04:13.671Z</time></trkpt><trkpt lat="42.371084" lon="14.1206246"><ele>34.0</ele><time>2026-05-02T07:04:14.687Z</time></trkpt><trkpt lat="42.3709443" lon="14.1205788"><ele>35.0</ele><time>2026-05-02T07:04:15.682Z</time></trkpt><trkpt lat="42.3708014" lon="14.1205363"><ele>36.0</ele><time>2026-05-02T07:04:16.665Z</time></trkpt><trkpt lat="42.3706511" lon="14.1205024"><ele>37.0</ele><time>2026-05-02T07:04:17.672Z</time></trkpt><trkpt lat="42.3705018" lon="14.1204781"><ele>37.0</ele><time>2026-05-02T07:04:18.685Z</time></trkpt><trkpt lat="42.370351" lon="14.1204593"><ele>37.0</ele><time>2026-05-02T07:04:19.688Z</time></trkpt><trkpt lat="42.3701977" lon="14.1204423"><ele>37.0</ele><time>2026-05-02T07:04:20.667Z</time></trkpt><trkpt lat="42.3700568" lon="14.1204252"><ele>37.0</ele><time>2026-05-02T07:04:21.676Z</time></trkpt><trkpt lat="42.3699164" lon="14.1204082"><ele>37.0</ele><time>2026-05-02T07:04:22.667Z</time></trkpt><trkpt lat="42.3697777" lon="14.1204013"><ele>37.0</ele><time>2026-05-02T07:04:23.681Z</time></trkpt><trkpt lat="42.3696402" lon="14.1203915"><ele>37.0</ele><time>2026-05-02T07:04:24.677Z</time></trkpt><trkpt lat="42.369516" lon="14.1203751"><ele>37.0</ele><time>2026-05-02T07:04:25.665Z</time></trkpt><trkpt lat="42.3693878" lon="14.1203499"><ele>37.0</ele><time>2026-05-02T07:04:26.677Z</time></trkpt><trkpt lat="42.3692516" lon="14.1203316"><ele>37.0</ele><time>2026-05-02T07:04:27.681Z</time></trkpt><trkpt lat="42.3691142" lon="14.1203112"><ele>37.0</ele><time>2026-05-02T07:04:28.671Z</time></trkpt><trkpt lat="42.3689835" lon="14.1202955"><ele>37.0</ele><time>2026-05-02T07:04:29.682Z</time></trkpt><trkpt lat="42.3688487" lon="14.1202763"><ele>35.0</ele><time>2026-05-02T07:04:30.666Z</time></trkpt><trkpt lat="42.3687139" lon="14.1202519"><ele>33.0</ele><time>2026-05-02T07:04:31.678Z</time></trkpt><trkpt lat="42.368579" lon="14.1202317"><ele>31.0</ele><time>2026-05-02T07:04:32.672Z</time></trkpt><trkpt lat="42.3684411" lon="14.1201914"><ele>29.0</ele><time>2026-05-02T07:04:33.681Z</time></trkpt><trkpt lat="42.3682979" lon="14.1201222"><ele>29.0</ele><time>2026-05-02T07:04:34.674Z</time></trkpt><trkpt lat="42.3681621" lon="14.1200463"><ele>29.0</ele><time>2026-05-02T07:04:35.675Z</time></trkpt><trkpt lat="42.3680244" lon="14.1199618"><ele>29.0</ele><time>2026-05-02T07:04:36.688Z</time></trkpt><trkpt lat="42.367885" lon="14.1198684"><ele>28.75</ele><time>2026-05-02T07:04:37.678Z</time></trkpt><trkpt lat="42.3677492" lon="14.1197816"><ele>28.5</ele><time>2026-05-02T07:04:38.698Z</time></trkpt><trkpt lat="42.3676174" lon="14.1196892"><ele>28.25</ele><time>2026-05-02T07:04:39.68Z</time></trkpt><trkpt lat="42.3674883" lon="14.1195983"><ele>28.0</ele><time>2026-05-02T07:04:40.674Z</time></trkpt><trkpt lat="42.3673515" lon="14.1195096"><ele>28.0</ele><time>2026-05-02T07:04:41.68Z</time></trkpt><trkpt lat="42.3672118" lon="14.1194216"><ele>28.0</ele><time>2026-05-02T07:04:42.686Z</time></trkpt><trkpt lat="42.3670731" lon="14.1193244"><ele>28.0</ele><time>2026-05-02T07:04:43.688Z</time></trkpt><trkpt lat="42.3669323" lon="14.1192339"><ele>28.0</ele><time>2026-05-02T07:04:44.694Z</time></trkpt><trkpt lat="42.3667952" lon="14.1191345"><ele>28.0</ele><time>2026-05-02T07:04:45.665Z</time></trkpt><trkpt lat="42.3666587" lon="14.1190313"><ele>28.0</ele><time>2026-05-02T07:04:46.674Z</time></trkpt><trkpt lat="42.3665211" lon="14.1189289"><ele>28.0</ele><time>2026-05-02T07:04:47.678Z</time></trkpt><trkpt lat="42.3663878" lon="14.1188244"><ele>28.0</ele><time>2026-05-02T07:04:48.675Z</time></trkpt><trkpt lat="42.3662602" lon="14.1187256"><ele>28.0</ele><time>2026-05-02T07:04:49.684Z</time></trkpt><trkpt lat="42.3661256" lon="14.11863"><ele>28.0</ele><time>2026-05-02T07:04:50.675Z</time></trkpt><trkpt lat="42.3659943" lon="14.1185295"><ele>28.0</ele><time>2026-05-02T07:04:51.685Z</time></trkpt><trkpt lat="42.3658572" lon="14.118441"><ele>28.0</ele><time>2026-05-02T07:04:52.681Z</time></trkpt><trkpt lat="42.365721" lon="14.1183568"><ele>28.0</ele><time>2026-05-02T07:04:53.685Z</time></trkpt><trkpt lat="42.3655953" lon="14.1182723"><ele>28.0</ele><time>2026-05-02T07:04:54.67Z</time></trkpt><trkpt lat="42.3654675" lon="14.1181806"><ele>28.0</ele><time>2026-05-02T07:04:55.673Z</time></trkpt><trkpt lat="42.3653347" lon="14.1180894"><ele>28.0</ele><time>2026-05-02T07:04:56.678Z</time></trkpt><trkpt lat="42.3651955" lon="14.1180003"><ele>29.333333333333336</ele><time>2026-05-02T07:04:57.671Z</time></trkpt><trkpt lat="42.3650534" lon="14.1179044"><ele>30.666666666666664</ele><time>2026-05-02T07:04:58.68Z</time></trkpt><trkpt lat="42.3649199" lon="14.1178086"><ele>32.0</ele><time>2026-05-02T07:04:59.676Z</time></trkpt><trkpt lat="42.3647826" lon="14.1177121"><ele>32.33333333333333</ele><time>2026-05-02T07:05:00.673Z</time></trkpt><trkpt lat="42.3646374" lon="14.1176225"><ele>32.666666666666664</ele><time>2026-05-02T07:05:01.673Z</time></trkpt><trkpt lat="42.3644862" lon="14.117545"><ele>33.0</ele><time>2026-05-02T07:05:02.695Z</time></trkpt><trkpt lat="42.3643325" lon="14.1174831"><ele>33.0</ele><time>2026-05-02T07:05:03.681Z</time></trkpt><trkpt lat="42.36417" lon="14.1174423"><ele>33.0</ele><time>2026-05-02T07:05:04.674Z</time></trkpt><trkpt lat="42.3640069" lon="14.1174219"><ele>33.0</ele><time>2026-05-02T07:05:05.664Z</time></trkpt><trkpt lat="42.3638442" lon="14.1174249"><ele>32.333333333333336</ele><time>2026-05-02T07:05:06.678Z</time></trkpt><trkpt lat="42.3636754" lon="14.1174205"><ele>31.666666666666668</ele><time>2026-05-02T07:05:07.677Z</time></trkpt><trkpt lat="42.3635104" lon="14.1174213"><ele>31.0</ele><time>2026-05-02T07:05:08.675Z</time></trkpt><trkpt lat="42.3633444" lon="14.1174186"><ele>31.0</ele><time>2026-05-02T07:05:09.673Z</time></trkpt><trkpt lat="42.3631893" lon="14.1174157"><ele>31.0</ele><time>2026-05-02T07:05:10.667Z</time></trkpt><trkpt lat="42.3630509" lon="14.1174112"><ele>31.0</ele><time>2026-05-02T07:05:11.675Z</time></trkpt><trkpt lat="42.3629135" lon="14.1174052"><ele>31.0</ele><time>2026-05-02T07:05:12.667Z</time></trkpt><trkpt lat="42.3627638" lon="14.1173769"><ele>35.66666666666667</ele><time>2026-05-02T07:05:13.669Z</time></trkpt><trkpt lat="42.3626068" lon="14.1173307"><ele>40.333333333333336</ele><time>2026-05-02T07:05:14.679Z</time></trkpt><trkpt lat="42.3624503" lon="14.1172633"><ele>45.0</ele><time>2026-05-02T07:05:15.67Z</time></trkpt><trkpt lat="42.362293" lon="14.1171961"><ele>42.0</ele><time>2026-05-02T07:05:16.666Z</time></trkpt><trkpt lat="42.3621371" lon="14.1171271"><ele>39.0</ele><time>2026-05-02T07:05:17.671Z</time></trkpt><trkpt lat="42.3619794" lon="14.1170595"><ele>36.0</ele><time>2026-05-02T07:05:18.662Z</time></trkpt><trkpt lat="42.3618209" lon="14.1169912"><ele>36.0</ele><time>2026-05-02T07:05:19.669Z</time></trkpt><trkpt lat="42.361661" lon="14.116925"><ele>36.0</ele><time>2026-05-02T07:05:20.672Z</time></trkpt><trkpt lat="42.3615016" lon="14.116857"><ele>36.0</ele><time>2026-05-02T07:05:21.67Z</time></trkpt><trkpt lat="42.3613435" lon="14.1167838"><ele>34.0</ele><time>2026-05-02T07:05:22.686Z</time></trkpt><trkpt lat="42.3611874" lon="14.1167132"><ele>32.0</ele><time>2026-05-02T07:05:23.687Z</time></trkpt><trkpt lat="42.3610378" lon="14.1166561"><ele>30.0</ele><time>2026-05-02T07:05:24.673Z</time></trkpt><trkpt lat="42.3608973" lon="14.1165945"><ele>31.75</ele><time>2026-05-02T07:05:25.67Z</time></trkpt><trkpt lat="42.3607583" lon="14.1165273"><ele>33.5</ele><time>2026-05-02T07:05:26.68Z</time></trkpt><trkpt lat="42.3606178" lon="14.1164667"><ele>35.25</ele><time>2026-05-02T07:05:27.664Z</time></trkpt><trkpt lat="42.3604778" lon="14.1164051"><ele>37.0</ele><time>2026-05-02T07:05:28.675Z</time></trkpt><trkpt lat="42.3603371" lon="14.1163383"><ele>37.0</ele><time>2026-05-02T07:05:29.66Z</time></trkpt><trkpt lat="42.3601941" lon="14.1162709"><ele>37.0</ele><time>2026-05-02T07:05:30.659Z</time></trkpt><trkpt lat="42.3600454" lon="14.1162023"><ele>37.0</ele><time>2026-05-02T07:05:31.675Z</time></trkpt><trkpt lat="42.3598949" lon="14.1161381"><ele>37.0</ele><time>2026-05-02T07:05:32.662Z</time></trkpt><trkpt lat="42.3597487" lon="14.1160735"><ele>37.0</ele><time>2026-05-02T07:05:33.665Z</time></trkpt><trkpt lat="42.359597" lon="14.1160057"><ele>37.0</ele><time>2026-05-02T07:05:34.679Z</time></trkpt><trkpt lat="42.3594404" lon="14.1159382"><ele>36.66666666666667</ele><time>2026-05-02T07:05:35.664Z</time></trkpt><trkpt lat="42.359281" lon="14.1158746"><ele>36.333333333333336</ele><time>2026-05-02T07:05:36.667Z</time></trkpt><trkpt lat="42.3591246" lon="14.1158066"><ele>36.0</ele><time>2026-05-02T07:05:37.687Z</time></trkpt><trkpt lat="42.358966" lon="14.1157336"><ele>37.666666666666664</ele><time>2026-05-02T07:05:38.683Z</time></trkpt><trkpt lat="42.3588102" lon="14.115674"><ele>39.33333333333333</ele><time>2026-05-02T07:05:39.686Z</time></trkpt><trkpt lat="42.3586511" lon="14.1156155"><ele>41.0</ele><time>2026-05-02T07:05:40.695Z</time></trkpt><trkpt lat="42.3584941" lon="14.1155563"><ele>41.0</ele><time>2026-05-02T07:05:41.683Z</time></trkpt><trkpt lat="42.3583355" lon="14.1154933"><ele>41.0</ele><time>2026-05-02T07:05:42.685Z</time></trkpt><trkpt lat="42.3581713" lon="14.1154295"><ele>41.0</ele><time>2026-05-02T07:05:43.676Z</time></trkpt><trkpt lat="42.3580084" lon="14.1153678"><ele>41.0</ele><time>2026-05-02T07:05:44.677Z</time></trkpt><trkpt lat="42.3578472" lon="14.1153094"><ele>41.0</ele><time>2026-05-02T07:05:45.671Z</time></trkpt><trkpt lat="42.3576859" lon="14.1152468"><ele>41.0</ele><time>2026-05-02T07:05:46.676Z</time></trkpt><trkpt lat="42.357535" lon="14.1151824"><ele>41.0</ele><time>2026-05-02T07:05:47.672Z</time></trkpt><trkpt lat="42.3573971" lon="14.1151231"><ele>41.0</ele><time>2026-05-02T07:05:48.673Z</time></trkpt><trkpt lat="42.3572631" lon="14.1150611"><ele>41.0</ele><time>2026-05-02T07:05:49.687Z</time></trkpt><trkpt lat="42.3571433" lon="14.1150119"><ele>41.0</ele><time>2026-05-02T07:05:50.675Z</time></trkpt><trkpt lat="42.3570313" lon="14.1149686"><ele>40.5</ele><time>2026-05-02T07:05:51.677Z</time></trkpt><trkpt lat="42.3569191" lon="14.1149319"><ele>40.0</ele><time>2026-05-02T07:05:52.68Z</time></trkpt><trkpt lat="42.3568035" lon="14.1148895"><ele>39.5</ele><time>2026-05-02T07:05:53.663Z</time></trkpt><trkpt lat="42.356689" lon="14.114845"><ele>39.0</ele><time>2026-05-02T07:05:54.667Z</time></trkpt><trkpt lat="42.3565717" lon="14.1147905"><ele>41.0</ele><time>2026-05-02T07:05:55.677Z</time></trkpt><trkpt lat="42.3564495" lon="14.1147264"><ele>43.0</ele><time>2026-05-02T07:05:56.673Z</time></trkpt><trkpt lat="42.3563167" lon="14.1146699"><ele>45.0</ele><time>2026-05-02T07:05:57.662Z</time></trkpt><trkpt lat="42.3561759" lon="14.1146196"><ele>47.0</ele><time>2026-05-02T07:05:58.694Z</time></trkpt><trkpt lat="42.3560355" lon="14.1145696"><ele>47.0</ele><time>2026-05-02T07:05:59.677Z</time></trkpt><trkpt lat="42.3558872" lon="14.114518"><ele>47.0</ele><time>2026-05-02T07:06:00.681Z</time></trkpt><trkpt lat="42.3557407" lon="14.1144561"><ele>47.0</ele><time>2026-05-02T07:06:01.682Z</time></trkpt><trkpt lat="42.3556003" lon="14.1143951"><ele>44.5</ele><time>2026-05-02T07:06:02.687Z</time></trkpt><trkpt lat="42.3554665" lon="14.1143424"><ele>42.0</ele><time>2026-05-02T07:06:03.673Z</time></trkpt><trkpt lat="42.3553231" lon="14.1142834"><ele>39.5</ele><time>2026-05-02T07:06:04.691Z</time></trkpt><trkpt lat="42.3551778" lon="14.114226"><ele>37.0</ele><time>2026-05-02T07:06:05.684Z</time></trkpt><trkpt lat="42.3550289" lon="14.1141698"><ele>37.0</ele><time>2026-05-02T07:06:06.684Z</time></trkpt><trkpt lat="42.3548792" lon="14.1141141"><ele>37.0</ele><time>2026-05-02T07:06:07.679Z</time></trkpt><trkpt lat="42.3547362" lon="14.1140609"><ele>37.0</ele><time>2026-05-02T07:06:08.68Z</time></trkpt><trkpt lat="42.3546031" lon="14.1140137"><ele>37.0</ele><time>2026-05-02T07:06:09.68Z</time></trkpt><trkpt lat="42.3544666" lon="14.1139631"><ele>36.75</ele><time>2026-05-02T07:06:10.69Z</time></trkpt><trkpt lat="42.3543302" lon="14.1139077"><ele>36.5</ele><time>2026-05-02T07:06:11.685Z</time></trkpt><trkpt lat="42.3541891" lon="14.113847"><ele>36.25</ele><time>2026-05-02T07:06:12.676Z</time></trkpt><trkpt lat="42.354044" lon="14.1137832"><ele>36.0</ele><time>2026-05-02T07:06:13.678Z</time></trkpt><trkpt lat="42.3538941" lon="14.1137214"><ele>35.666666666666664</ele><time>2026-05-02T07:06:14.677Z</time></trkpt><trkpt lat="42.3537384" lon="14.1136609"><ele>35.33333333333333</ele><time>2026-05-02T07:06:15.679Z</time></trkpt><trkpt lat="42.3535828" lon="14.1135992"><ele>35.0</ele><time>2026-05-02T07:06:16.677Z</time></trkpt><trkpt lat="42.3534299" lon="14.1135381"><ele>35.0</ele><time>2026-05-02T07:06:17.696Z</time></trkpt><trkpt lat="42.3532829" lon="14.1134789"><ele>35.0</ele><time>2026-05-02T07:06:18.669Z</time></trkpt><trkpt lat="42.3531357" lon="14.1134098"><ele>35.0</ele><time>2026-05-02T07:06:19.692Z</time></trkpt><trkpt lat="42.3529897" lon="14.1133391"><ele>35.0</ele><time>2026-05-02T07:06:20.679Z</time></trkpt><trkpt lat="42.3528323" lon="14.1132791"><ele>35.0</ele><time>2026-05-02T07:06:21.681Z</time></trkpt><trkpt lat="42.3526785" lon="14.1132189"><ele>35.0</ele><time>2026-05-02T07:06:22.675Z</time></trkpt><trkpt lat="42.3525314" lon="14.1131645"><ele>35.0</ele><time>2026-05-02T07:06:23.688Z</time></trkpt><trkpt lat="42.3523887" lon="14.1131156"><ele>35.0</ele><time>2026-05-02T07:06:24.678Z</time></trkpt><trkpt lat="42.3522473" lon="14.1130694"><ele>35.0</ele><time>2026-05-02T07:06:25.672Z</time></trkpt><trkpt lat="42.3521066" lon="14.1130142"><ele>35.0</ele><time>2026-05-02T07:06:26.68Z</time></trkpt><trkpt lat="42.3519733" lon="14.1129514"><ele>36.25</ele><time>2026-05-02T07:06:27.673Z</time></trkpt><trkpt lat="42.3518464" lon="14.1128893"><ele>37.5</ele><time>2026-05-02T07:06:28.676Z</time></trkpt><trkpt lat="42.3517207" lon="14.1128254"><ele>38.75</ele><time>2026-05-02T07:06:29.68Z</time></trkpt><trkpt lat="42.3515906" lon="14.1127582"><ele>40.0</ele><time>2026-05-02T07:06:30.677Z</time></trkpt><trkpt lat="42.3514543" lon="14.1127015"><ele>41.0</ele><time>2026-05-02T07:06:31.678Z</time></trkpt><trkpt lat="42.3513146" lon="14.1126457"><ele>42.0</ele><time>2026-05-02T07:06:32.682Z</time></trkpt><trkpt lat="42.3511707" lon="14.1125908"><ele>43.0</ele><time>2026-05-02T07:06:33.686Z</time></trkpt><trkpt lat="42.3510248" lon="14.1125454"><ele>44.0</ele><time>2026-05-02T07:06:34.686Z</time></trkpt><trkpt lat="42.3508866" lon="14.1125139"><ele>44.0</ele><time>2026-05-02T07:06:35.679Z</time></trkpt><trkpt lat="42.3507606" lon="14.1124899"><ele>44.0</ele><time>2026-05-02T07:06:36.676Z</time></trkpt><trkpt lat="42.3506464" lon="14.1124766"><ele>44.0</ele><time>2026-05-02T07:06:37.687Z</time></trkpt><trkpt lat="42.3505396" lon="14.112462"><ele>44.0</ele><time>2026-05-02T07:06:38.662Z</time></trkpt><trkpt lat="42.350435" lon="14.1124485"><ele>44.0</ele><time>2026-05-02T07:06:39.67Z</time></trkpt><trkpt lat="42.350335" lon="14.1124302"><ele>44.0</ele><time>2026-05-02T07:06:40.682Z</time></trkpt><trkpt lat="42.3502488" lon="14.112408"><ele>44.0</ele><time>2026-05-02T07:06:41.677Z</time></trkpt><trkpt lat="42.3501702" lon="14.1123846"><ele>44.0</ele><time>2026-05-02T07:06:42.674Z</time></trkpt><trkpt lat="42.3501002" lon="14.1123722"><ele>44.0</ele><time>2026-05-02T07:06:43.683Z</time></trkpt><trkpt lat="42.3500327" lon="14.1123671"><ele>44.0</ele><time>2026-05-02T07:06:44.695Z</time></trkpt><trkpt lat="42.349961" lon="14.1123752"><ele>44.0</ele><time>2026-05-02T07:06:45.676Z</time></trkpt><trkpt lat="42.349897" lon="14.1124135"><ele>44.0</ele><time>2026-05-02T07:06:46.666Z</time></trkpt><trkpt lat="42.349849" lon="14.1124752"><ele>44.0</ele><time>2026-05-02T07:06:47.668Z</time></trkpt><trkpt lat="42.3497711" lon="14.1125906"><ele>44.0</ele><time>2026-05-02T07:06:49.671Z</time></trkpt><trkpt lat="42.3496884" lon="14.1126356"><ele>44.0</ele><time>2026-05-02T07:06:51.677Z</time></trkpt><trkpt lat="42.349642" lon="14.1127188"><ele>44.0</ele><time>2026-05-02T07:06:53.677Z</time></trkpt><trkpt lat="42.3495782" lon="14.1127712"><ele>43.83333333333333</ele><time>2026-05-02T07:06:55.696Z</time></trkpt><trkpt lat="42.3495098" lon="14.1127401"><ele>43.666666666666664</ele><time>2026-05-02T07:06:57.674Z</time></trkpt><trkpt lat="42.3494781" lon="14.1126362"><ele>43.5</ele><time>2026-05-02T07:06:59.684Z</time></trkpt><trkpt lat="42.3494285" lon="14.1124761"><ele>43.333333333333336</ele><time>2026-05-02T07:07:01.682Z</time></trkpt><trkpt lat="42.3493651" lon="14.112412"><ele>43.16666666666667</ele><time>2026-05-02T07:07:02.68Z</time></trkpt><trkpt lat="42.3492942" lon="14.1123586"><ele>43.0</ele><time>2026-05-02T07:07:03.688Z</time></trkpt><trkpt lat="42.3492293" lon="14.1123163"><ele>43.0</ele><time>2026-05-02T07:07:04.679Z</time></trkpt><trkpt lat="42.3491732" lon="14.1122765"><ele>43.0</ele><time>2026-05-02T07:07:05.68Z</time></trkpt><trkpt lat="42.3490969" lon="14.1122079"><ele>43.0</ele><time>2026-05-02T07:07:07.682Z</time></trkpt><trkpt lat="42.3490308" lon="14.1121417"><ele>43.0</ele><time>2026-05-02T07:07:09.669Z</time></trkpt><trkpt lat="42.3490187" lon="14.1120277"><ele>43.0</ele><time>2026-05-02T07:07:11.672Z</time></trkpt><trkpt lat="42.3489926" lon="14.1118761"><ele>43.0</ele><time>2026-05-02T07:07:13.683Z</time></trkpt><trkpt lat="42.348974" lon="14.1117509"><ele>43.0</ele><time>2026-05-02T07:07:15.671Z</time></trkpt><trkpt lat="42.3489653" lon="14.1116334"><ele>43.0</ele><time>2026-05-02T07:07:17.667Z</time></trkpt><trkpt lat="42.348959" lon="14.1114783"><ele>43.0</ele><time>2026-05-02T07:07:19.68Z</time></trkpt><trkpt lat="42.3489346" lon="14.1113086"><ele>43.0</ele><time>2026-05-02T07:07:21.681Z</time></trkpt><trkpt lat="42.3489196" lon="14.1112163"><ele>43.0</ele><time>2026-05-02T07:07:22.671Z</time></trkpt><trkpt lat="42.3489099" lon="14.1111239"><ele>43.0</ele><time>2026-05-02T07:07:23.684Z</time></trkpt><trkpt lat="42.3488919" lon="14.1109804"><ele>43.0</ele><time>2026-05-02T07:07:25.679Z</time></trkpt><trkpt lat="42.3488802" lon="14.1108598"><ele>43.0</ele><time>2026-05-02T07:07:27.676Z</time></trkpt><trkpt lat="42.3488978" lon="14.1107229"><ele>43.0</ele><time>2026-05-02T07:07:29.681Z</time></trkpt><trkpt lat="42.3488847" lon="14.1105841"><ele>43.0</ele><time>2026-05-02T07:07:31.675Z</time></trkpt><trkpt lat="42.3488613" lon="14.1104498"><ele>42.66666666666667</ele><time>2026-05-02T07:07:33.67Z</time></trkpt><trkpt lat="42.3488438" lon="14.1103635"><ele>42.333333333333336</ele><time>2026-05-02T07:07:34.674Z</time></trkpt><trkpt lat="42.3488277" lon="14.1102751"><ele>42.0</ele><time>2026-05-02T07:07:35.673Z</time></trkpt><trkpt lat="42.3488169" lon="14.110183"><ele>41.666666666666664</ele><time>2026-05-02T07:07:36.679Z</time></trkpt><trkpt lat="42.3487862" lon="14.1100418"><ele>41.33333333333333</ele><time>2026-05-02T07:07:38.673Z</time></trkpt><trkpt lat="42.3487224" lon="14.109964"><ele>41.0</ele><time>2026-05-02T07:07:40.674Z</time></trkpt><trkpt lat="42.3486651" lon="14.1099077"><ele>42.0</ele><time>2026-05-02T07:07:42.666Z</time></trkpt><trkpt lat="42.3486039" lon="14.1098642"><ele>43.0</ele><time>2026-05-02T07:07:44.67Z</time></trkpt><trkpt lat="42.3485467" lon="14.1098283"><ele>44.0</ele><time>2026-05-02T07:07:46.67Z</time></trkpt><trkpt lat="42.3484894" lon="14.1097823"><ele>45.0</ele><time>2026-05-02T07:07:50.663Z</time></trkpt><trkpt lat="42.3484226" lon="14.1096982"><ele>46.0</ele><time>2026-05-02T07:07:54.672Z</time></trkpt><trkpt lat="42.3483511" lon="14.1096187"><ele>47.0</ele><time>2026-05-02T07:07:57.677Z</time></trkpt><trkpt lat="42.348301" lon="14.109555"><ele>47.0</ele><time>2026-05-02T07:07:59.677Z</time></trkpt><trkpt lat="42.3482189" lon="14.1094306"><ele>47.0</ele><time>2026-05-02T07:08:01.673Z</time></trkpt><trkpt lat="42.348172" lon="14.109346"><ele>47.0</ele><time>2026-05-02T07:08:02.671Z</time></trkpt><trkpt lat="42.3481257" lon="14.1092612"><ele>47.0</ele><time>2026-05-02T07:08:03.672Z</time></trkpt><trkpt lat="42.3480728" lon="14.1091829"><ele>47.0</ele><time>2026-05-02T07:08:04.667Z</time></trkpt><trkpt lat="42.3480177" lon="14.1091129"><ele>47.0</ele><time>2026-05-02T07:08:05.679Z</time></trkpt><trkpt lat="42.3479791" lon="14.1090428"><ele>46.400000000000006</ele><time>2026-05-02T07:08:06.669Z</time></trkpt><trkpt lat="42.3479303" lon="14.1088974"><ele>45.800000000000004</ele><time>2026-05-02T07:08:08.669Z</time></trkpt><trkpt lat="42.3478785" lon="14.1087483"><ele>45.2</ele><time>2026-05-02T07:08:10.673Z</time></trkpt><trkpt lat="42.3478487" lon="14.1086711"><ele>44.6</ele><time>2026-05-02T07:08:11.666Z</time></trkpt><trkpt lat="42.3478027" lon="14.1085845"><ele>44.0</ele><time>2026-05-02T07:08:12.668Z</time></trkpt><trkpt lat="42.347739" lon="14.1084832"><ele>44.0</ele><time>2026-05-02T07:08:13.674Z</time></trkpt><trkpt lat="42.3476735" lon="14.1083764"><ele>44.0</ele><time>2026-05-02T07:08:14.672Z</time></trkpt><trkpt lat="42.3476104" lon="14.1082606"><ele>44.0</ele><time>2026-05-02T07:08:15.672Z</time></trkpt><trkpt lat="42.3475526" lon="14.1081472"><ele>44.0</ele><time>2026-05-02T07:08:16.679Z</time></trkpt><trkpt lat="42.3475059" lon="14.1080481"><ele>44.0</ele><time>2026-05-02T07:08:17.69Z</time></trkpt><trkpt lat="42.3474695" lon="14.1079524"><ele>44.33333333333333</ele><time>2026-05-02T07:08:18.679Z</time></trkpt><trkpt lat="42.347443" lon="14.1078473"><ele>44.666666666666664</ele><time>2026-05-02T07:08:19.677Z</time></trkpt><trkpt lat="42.3474223" lon="14.1077287"><ele>45.0</ele><time>2026-05-02T07:08:20.668Z</time></trkpt><trkpt lat="42.3473979" lon="14.1076115"><ele>45.333333333333336</ele><time>2026-05-02T07:08:21.667Z</time></trkpt><trkpt lat="42.3473693" lon="14.1074924"><ele>45.66666666666667</ele><time>2026-05-02T07:08:22.683Z</time></trkpt><trkpt lat="42.3473312" lon="14.1073817"><ele>46.0</ele><time>2026-05-02T07:08:23.674Z</time></trkpt><trkpt lat="42.3472841" lon="14.1072613"><ele>46.0</ele><time>2026-05-02T07:08:24.69Z</time></trkpt><trkpt lat="42.3472408" lon="14.1071505"><ele>46.0</ele><time>2026-05-02T07:08:25.674Z</time></trkpt><trkpt lat="42.3472068" lon="14.1070637"><ele>46.0</ele><time>2026-05-02T07:08:26.678Z</time></trkpt><trkpt lat="42.3471798" lon="14.1069306"><ele>46.0</ele><time>2026-05-02T07:08:28.687Z</time></trkpt><trkpt lat="42.3472038" lon="14.1067706"><ele>46.0</ele><time>2026-05-02T07:08:30.679Z</time></trkpt><trkpt lat="42.3472507" lon="14.1066324"><ele>46.0</ele><time>2026-05-02T07:08:32.677Z</time></trkpt><trkpt lat="42.347305" lon="14.1064852"><ele>46.0</ele><time>2026-05-02T07:08:34.673Z</time></trkpt><trkpt lat="42.3473209" lon="14.1063838"><ele>46.0</ele><time>2026-05-02T07:08:35.677Z</time></trkpt><trkpt lat="42.3473497" lon="14.1062856"><ele>46.0</ele><time>2026-05-02T07:08:36.673Z</time></trkpt><trkpt lat="42.3473917" lon="14.1061936"><ele>46.0</ele><time>2026-05-02T07:08:37.692Z</time></trkpt><trkpt lat="42.3474257" lon="14.1060952"><ele>46.0</ele><time>2026-05-02T07:08:38.673Z</time></trkpt><trkpt lat="42.3474502" lon="14.1059767"><ele>46.0</ele><time>2026-05-02T07:08:39.683Z</time></trkpt><trkpt lat="42.3474768" lon="14.1058675"><ele>46.0</ele><time>2026-05-02T07:08:40.681Z</time></trkpt><trkpt lat="42.3475255" lon="14.1057797"><ele>46.0</ele><time>2026-05-02T07:08:41.681Z</time></trkpt><trkpt lat="42.3475884" lon="14.1057051"><ele>46.0</ele><time>2026-05-02T07:08:42.671Z</time></trkpt><trkpt lat="42.3476538" lon="14.1056117"><ele>46.0</ele><time>2026-05-02T07:08:43.699Z</time></trkpt><trkpt lat="42.3477111" lon="14.1054901"><ele>45.8</ele><time>2026-05-02T07:08:44.674Z</time></trkpt><trkpt lat="42.3477705" lon="14.1053645"><ele>45.599999999999994</ele><time>2026-05-02T07:08:45.702Z</time></trkpt><trkpt lat="42.3478325" lon="14.1052471"><ele>45.4</ele><time>2026-05-02T07:08:46.685Z</time></trkpt><trkpt lat="42.3478966" lon="14.1051303"><ele>45.2</ele><time>2026-05-02T07:08:47.688Z</time></trkpt><trkpt lat="42.3479658" lon="14.1050125"><ele>45.0</ele><time>2026-05-02T07:08:48.682Z</time></trkpt><trkpt lat="42.3480292" lon="14.104899"><ele>46.0</ele><time>2026-05-02T07:08:49.682Z</time></trkpt><trkpt lat="42.3480899" lon="14.1048024"><ele>47.0</ele><time>2026-05-02T07:08:50.67Z</time></trkpt><trkpt lat="42.3481605" lon="14.1047143"><ele>48.0</ele><time>2026-05-02T07:08:51.67Z</time></trkpt><trkpt lat="42.3482245" lon="14.1046241"><ele>49.0</ele><time>2026-05-02T07:08:52.69Z</time></trkpt><trkpt lat="42.3482694" lon="14.1045302"><ele>50.0</ele><time>2026-05-02T07:08:53.678Z</time></trkpt><trkpt lat="42.3483038" lon="14.1044322"><ele>51.0</ele><time>2026-05-02T07:08:54.672Z</time></trkpt><trkpt lat="42.3483297" lon="14.1043141"><ele>51.0</ele><time>2026-05-02T07:08:55.676Z</time></trkpt><trkpt lat="42.3483604" lon="14.1041748"><ele>51.0</ele><time>2026-05-02T07:08:56.678Z</time></trkpt><trkpt lat="42.3483993" lon="14.1040422"><ele>51.0</ele><time>2026-05-02T07:08:57.671Z</time></trkpt><trkpt lat="42.3484379" lon="14.1039082"><ele>51.0</ele><time>2026-05-02T07:08:58.687Z</time></trkpt><trkpt lat="42.3484634" lon="14.103763"><ele>51.0</ele><time>2026-05-02T07:08:59.675Z</time></trkpt><trkpt lat="42.3484788" lon="14.1036059"><ele>50.25</ele><time>2026-05-02T07:09:00.689Z</time></trkpt><trkpt lat="42.3484912" lon="14.1034332"><ele>49.5</ele><time>2026-05-02T07:09:01.67Z</time></trkpt><trkpt lat="42.3485033" lon="14.1032584"><ele>48.75</ele><time>2026-05-02T07:09:02.682Z</time></trkpt><trkpt lat="42.348511" lon="14.1030901"><ele>48.0</ele><time>2026-05-02T07:09:03.684Z</time></trkpt><trkpt lat="42.3485197" lon="14.1029357"><ele>48.0</ele><time>2026-05-02T07:09:04.684Z</time></trkpt><trkpt lat="42.3485316" lon="14.1027939"><ele>48.0</ele><time>2026-05-02T07:09:05.683Z</time></trkpt><trkpt lat="42.3485478" lon="14.1026639"><ele>48.0</ele><time>2026-05-02T07:09:06.67Z</time></trkpt><trkpt lat="42.3485655" lon="14.1025343"><ele>48.0</ele><time>2026-05-02T07:09:07.666Z</time></trkpt><trkpt lat="42.3485881" lon="14.1024046"><ele>48.0</ele><time>2026-05-02T07:09:08.683Z</time></trkpt><trkpt lat="42.3486177" lon="14.1022663"><ele>48.0</ele><time>2026-05-02T07:09:09.681Z</time></trkpt><trkpt lat="42.348641" lon="14.1021298"><ele>48.0</ele><time>2026-05-02T07:09:10.679Z</time></trkpt><trkpt lat="42.3486666" lon="14.1019783"><ele>48.0</ele><time>2026-05-02T07:09:11.67Z</time></trkpt><trkpt lat="42.3487" lon="14.1018337"><ele>48.0</ele><time>2026-05-02T07:09:12.685Z</time></trkpt><trkpt lat="42.3487322" lon="14.1016858"><ele>48.0</ele><time>2026-05-02T07:09:13.675Z</time></trkpt><trkpt lat="42.3487668" lon="14.1015336"><ele>48.4</ele><time>2026-05-02T07:09:14.677Z</time></trkpt><trkpt lat="42.3487996" lon="14.1013997"><ele>48.8</ele><time>2026-05-02T07:09:15.683Z</time></trkpt><trkpt lat="42.3488351" lon="14.1012928"><ele>49.2</ele><time>2026-05-02T07:09:16.666Z</time></trkpt><trkpt lat="42.3488707" lon="14.1011992"><ele>49.6</ele><time>2026-05-02T07:09:17.673Z</time></trkpt><trkpt lat="42.3489289" lon="14.1010984"><ele>50.0</ele><time>2026-05-02T07:09:19.677Z</time></trkpt><trkpt lat="42.3490368" lon="14.1010022"><ele>50.333333333333336</ele><time>2026-05-02T07:09:21.681Z</time></trkpt><trkpt lat="42.3490891" lon="14.100928"><ele>50.66666666666667</ele><time>2026-05-02T07:09:22.672Z</time></trkpt><trkpt lat="42.349114" lon="14.1008496"><ele>51.0</ele><time>2026-05-02T07:09:23.677Z</time></trkpt><trkpt lat="42.349139" lon="14.1007682"><ele>51.33333333333333</ele><time>2026-05-02T07:09:24.671Z</time></trkpt><trkpt lat="42.3492123" lon="14.1006657"><ele>51.666666666666664</ele><time>2026-05-02T07:09:26.69Z</time></trkpt><trkpt lat="42.3492968" lon="14.1005284"><ele>52.0</ele><time>2026-05-02T07:09:28.673Z</time></trkpt><trkpt lat="42.3493509" lon="14.1004429"><ele>52.0</ele><time>2026-05-02T07:09:29.667Z</time></trkpt><trkpt lat="42.3493979" lon="14.1003334"><ele>52.0</ele><time>2026-05-02T07:09:30.68Z</time></trkpt><trkpt lat="42.3494391" lon="14.1002072"><ele>52.0</ele><time>2026-05-02T07:09:31.678Z</time></trkpt><trkpt lat="42.3494707" lon="14.1001121"><ele>52.0</ele><time>2026-05-02T07:09:32.671Z</time></trkpt><trkpt lat="42.3495121" lon="14.0999725"><ele>52.0</ele><time>2026-05-02T07:09:34.677Z</time></trkpt><trkpt lat="42.3495366" lon="14.0998348"><ele>51.33333333333333</ele><time>2026-05-02T07:09:36.669Z</time></trkpt><trkpt lat="42.3495402" lon="14.0997168"><ele>50.666666666666664</ele><time>2026-05-02T07:09:38.671Z</time></trkpt><trkpt lat="42.3495285" lon="14.0996255"><ele>50.0</ele><time>2026-05-02T07:09:40.674Z</time></trkpt><trkpt lat="42.3494978" lon="14.099491"><ele>49.33333333333333</ele><time>2026-05-02T07:09:42.688Z</time></trkpt><trkpt lat="42.3494711" lon="14.0994118"><ele>48.666666666666664</ele><time>2026-05-02T07:09:43.671Z</time></trkpt><trkpt lat="42.3494432" lon="14.099317"><ele>48.0</ele><time>2026-05-02T07:09:44.667Z</time></trkpt><trkpt lat="42.3494229" lon="14.0992315"><ele>48.0</ele><time>2026-05-02T07:09:45.678Z</time></trkpt><trkpt lat="42.3494016" lon="14.0990895"><ele>48.0</ele><time>2026-05-02T07:09:47.669Z</time></trkpt><trkpt lat="42.3494244" lon="14.0989321"><ele>48.0</ele><time>2026-05-02T07:09:49.676Z</time></trkpt><trkpt lat="42.3494864" lon="14.0987894"><ele>48.0</ele><time>2026-05-02T07:09:51.669Z</time></trkpt><trkpt lat="42.3495242" lon="14.0986794"><ele>48.0</ele><time>2026-05-02T07:09:52.689Z</time></trkpt><trkpt lat="42.3495599" lon="14.0985589"><ele>48.5</ele><time>2026-05-02T07:09:53.665Z</time></trkpt><trkpt lat="42.3495837" lon="14.0984125"><ele>49.0</ele><time>2026-05-02T07:09:54.669Z</time></trkpt><trkpt lat="42.349615" lon="14.0982677"><ele>49.5</ele><time>2026-05-02T07:09:55.673Z</time></trkpt><trkpt lat="42.34964" lon="14.0981101"><ele>50.0</ele><time>2026-05-02T07:09:56.685Z</time></trkpt><trkpt lat="42.349661" lon="14.0979632"><ele>50.25</ele><time>2026-05-02T07:09:57.679Z</time></trkpt><trkpt lat="42.3496895" lon="14.0978244"><ele>50.5</ele><time>2026-05-02T07:09:58.694Z</time></trkpt><trkpt lat="42.3497365" lon="14.0976602"><ele>50.75</ele><time>2026-05-02T07:09:59.677Z</time></trkpt><trkpt lat="42.349788" lon="14.097488"><ele>51.0</ele><time>2026-05-02T07:10:00.683Z</time></trkpt><trkpt lat="42.349826" lon="14.0973411"><ele>51.0</ele><time>2026-05-02T07:10:01.672Z</time></trkpt><trkpt lat="42.3498611" lon="14.0971705"><ele>51.0</ele><time>2026-05-02T07:10:02.677Z</time></trkpt><trkpt lat="42.3498814" lon="14.0970003"><ele>51.0</ele><time>2026-05-02T07:10:03.683Z</time></trkpt><trkpt lat="42.349902" lon="14.0968106"><ele>51.0</ele><time>2026-05-02T07:10:04.682Z</time></trkpt><trkpt lat="42.3499147" lon="14.0966319"><ele>51.25</ele><time>2026-05-02T07:10:05.68Z</time></trkpt><trkpt lat="42.3499236" lon="14.0964481"><ele>51.5</ele><time>2026-05-02T07:10:06.682Z</time></trkpt><trkpt lat="42.3499332" lon="14.0962636"><ele>51.75</ele><time>2026-05-02T07:10:07.687Z</time></trkpt><trkpt lat="42.3499534" lon="14.0960621"><ele>52.0</ele><time>2026-05-02T07:10:08.685Z</time></trkpt><trkpt lat="42.3499625" lon="14.0958684"><ele>52.0</ele><time>2026-05-02T07:10:09.684Z</time></trkpt><trkpt lat="42.3499782" lon="14.0956749"><ele>52.0</ele><time>2026-05-02T07:10:10.693Z</time></trkpt><trkpt lat="42.3500028" lon="14.095489"><ele>52.0</ele><time>2026-05-02T07:10:11.686Z</time></trkpt><trkpt lat="42.3500159" lon="14.0953179"><ele>52.0</ele><time>2026-05-02T07:10:12.684Z</time></trkpt><trkpt lat="42.3500285" lon="14.095163"><ele>52.0</ele><time>2026-05-02T07:10:13.678Z</time></trkpt><trkpt lat="42.3500163" lon="14.0950049"><ele>52.0</ele><time>2026-05-02T07:10:14.67Z</time></trkpt><trkpt lat="42.3499987" lon="14.0948381"><ele>52.0</ele><time>2026-05-02T07:10:15.675Z</time></trkpt><trkpt lat="42.3499789" lon="14.0946785"><ele>52.0</ele><time>2026-05-02T07:10:16.68Z</time></trkpt><trkpt lat="42.349952" lon="14.094523"><ele>52.0</ele><time>2026-05-02T07:10:17.675Z</time></trkpt><trkpt lat="42.3499223" lon="14.0943748"><ele>52.0</ele><time>2026-05-02T07:10:18.692Z</time></trkpt><trkpt lat="42.3498919" lon="14.09422"><ele>52.0</ele><time>2026-05-02T07:10:19.67Z</time></trkpt><trkpt lat="42.349865" lon="14.0940751"><ele>52.0</ele><time>2026-05-02T07:10:20.677Z</time></trkpt><trkpt lat="42.3498412" lon="14.0939358"><ele>52.0</ele><time>2026-05-02T07:10:21.678Z</time></trkpt><trkpt lat="42.3498162" lon="14.093796"><ele>51.83333333333333</ele><time>2026-05-02T07:10:22.686Z</time></trkpt><trkpt lat="42.3497856" lon="14.093658"><ele>51.666666666666664</ele><time>2026-05-02T07:10:23.67Z</time></trkpt><trkpt lat="42.3497441" lon="14.0935459"><ele>51.5</ele><time>2026-05-02T07:10:24.68Z</time></trkpt><trkpt lat="42.3496923" lon="14.0934642"><ele>51.33333333333333</ele><time>2026-05-02T07:10:25.674Z</time></trkpt><trkpt lat="42.3496387" lon="14.093401"><ele>51.166666666666664</ele><time>2026-05-02T07:10:26.681Z</time></trkpt><trkpt lat="42.3496076" lon="14.0933135"><ele>51.0</ele><time>2026-05-02T07:10:27.679Z</time></trkpt><trkpt lat="42.3496083" lon="14.0932176"><ele>51.833333333333336</ele><time>2026-05-02T07:10:28.691Z</time></trkpt><trkpt lat="42.349616" lon="14.0931199"><ele>52.66666666666667</ele><time>2026-05-02T07:10:29.681Z</time></trkpt><trkpt lat="42.3496171" lon="14.0930033"><ele>53.5</ele><time>2026-05-02T07:10:30.675Z</time></trkpt><trkpt lat="42.3495961" lon="14.0928848"><ele>54.333333333333336</ele><time>2026-05-02T07:10:31.667Z</time></trkpt><trkpt lat="42.3495627" lon="14.09278"><ele>55.16666666666667</ele><time>2026-05-02T07:10:32.671Z</time></trkpt><trkpt lat="42.3495184" lon="14.0926907"><ele>56.0</ele><time>2026-05-02T07:10:33.687Z</time></trkpt><trkpt lat="42.3494756" lon="14.0926199"><ele>56.00000000000001</ele><time>2026-05-02T07:10:34.675Z</time></trkpt><trkpt lat="42.349429" lon="14.0925452"><ele>56.0</ele><time>2026-05-02T07:10:35.694Z</time></trkpt><trkpt lat="42.3493806" lon="14.0924647"><ele>56.0</ele><time>2026-05-02T07:10:36.673Z</time></trkpt><trkpt lat="42.3493405" lon="14.0923706"><ele>56.0</ele><time>2026-05-02T07:10:37.677Z</time></trkpt><trkpt lat="42.3493138" lon="14.0922607"><ele>56.00000000000001</ele><time>2026-05-02T07:10:38.685Z</time></trkpt><trkpt lat="42.3492855" lon="14.0921229"><ele>56.0</ele><time>2026-05-02T07:10:39.691Z</time></trkpt><trkpt lat="42.349254" lon="14.0919729"><ele>56.25</ele><time>2026-05-02T07:10:40.687Z</time></trkpt><trkpt lat="42.3492178" lon="14.091818"><ele>56.5</ele><time>2026-05-02T07:10:41.673Z</time></trkpt><trkpt lat="42.349187" lon="14.0916517"><ele>56.75</ele><time>2026-05-02T07:10:42.69Z</time></trkpt><trkpt lat="42.3491639" lon="14.0914814"><ele>57.0</ele><time>2026-05-02T07:10:43.679Z</time></trkpt><trkpt lat="42.3491425" lon="14.0913243"><ele>57.0</ele><time>2026-05-02T07:10:44.672Z</time></trkpt><trkpt lat="42.3491249" lon="14.0911774"><ele>57.0</ele><time>2026-05-02T07:10:45.668Z</time></trkpt><trkpt lat="42.3491257" lon="14.0910343"><ele>57.0</ele><time>2026-05-02T07:10:46.682Z</time></trkpt><trkpt lat="42.3491251" lon="14.0909031"><ele>57.0</ele><time>2026-05-02T07:10:47.675Z</time></trkpt><trkpt lat="42.3491125" lon="14.090757"><ele>57.0</ele><time>2026-05-02T07:10:48.686Z</time></trkpt><trkpt lat="42.3490817" lon="14.0906132"><ele>57.0</ele><time>2026-05-02T07:10:49.685Z</time></trkpt><trkpt lat="42.3490445" lon="14.0904525"><ele>57.0</ele><time>2026-05-02T07:10:50.671Z</time></trkpt><trkpt lat="42.3490152" lon="14.0903017"><ele>57.0</ele><time>2026-05-02T07:10:51.675Z</time></trkpt><trkpt lat="42.3489896" lon="14.0901756"><ele>57.0</ele><time>2026-05-02T07:10:52.672Z</time></trkpt><trkpt lat="42.3489612" lon="14.0900548"><ele>57.0</ele><time>2026-05-02T07:10:53.688Z</time></trkpt><trkpt lat="42.3489436" lon="14.0899072"><ele>57.0</ele><time>2026-05-02T07:10:54.686Z</time></trkpt><trkpt lat="42.3489233" lon="14.0897512"><ele>57.0</ele><time>2026-05-02T07:10:55.698Z</time></trkpt><trkpt lat="42.3489075" lon="14.0895885"><ele>57.0</ele><time>2026-05-02T07:10:56.679Z</time></trkpt><trkpt lat="42.3488907" lon="14.0894419"><ele>57.0</ele><time>2026-05-02T07:10:57.685Z</time></trkpt><trkpt lat="42.3488642" lon="14.0892932"><ele>59.0</ele><time>2026-05-02T07:10:58.684Z</time></trkpt><trkpt lat="42.3488341" lon="14.0891287"><ele>61.0</ele><time>2026-05-02T07:10:59.676Z</time></trkpt><trkpt lat="42.3488029" lon="14.088946"><ele>63.0</ele><time>2026-05-02T07:11:00.665Z</time></trkpt><trkpt lat="42.3487888" lon="14.0887588"><ele>65.0</ele><time>2026-05-02T07:11:01.665Z</time></trkpt><trkpt lat="42.3487803" lon="14.0885812"><ele>65.0</ele><time>2026-05-02T07:11:02.663Z</time></trkpt><trkpt lat="42.3487749" lon="14.0884185"><ele>65.0</ele><time>2026-05-02T07:11:03.663Z</time></trkpt><trkpt lat="42.3487727" lon="14.0882617"><ele>65.0</ele><time>2026-05-02T07:11:04.679Z</time></trkpt><trkpt lat="42.3487663" lon="14.0881205"><ele>65.0</ele><time>2026-05-02T07:11:05.674Z</time></trkpt><trkpt lat="42.3487614" lon="14.0880143"><ele>65.0</ele><time>2026-05-02T07:11:06.674Z</time></trkpt><trkpt lat="42.3487294" lon="14.0878985"><ele>64.66666666666667</ele><time>2026-05-02T07:11:07.682Z</time></trkpt><trkpt lat="42.3486908" lon="14.0877838"><ele>64.33333333333334</ele><time>2026-05-02T07:11:08.671Z</time></trkpt><trkpt lat="42.3486824" lon="14.0876812"><ele>64.0</ele><time>2026-05-02T07:11:09.677Z</time></trkpt><trkpt lat="42.3486744" lon="14.0875704"><ele>63.66666666666667</ele><time>2026-05-02T07:11:10.668Z</time></trkpt><trkpt lat="42.3486738" lon="14.0874617"><ele>63.333333333333336</ele><time>2026-05-02T07:11:11.671Z</time></trkpt><trkpt lat="42.3486722" lon="14.0873618"><ele>63.0</ele><time>2026-05-02T07:11:12.69Z</time></trkpt><trkpt lat="42.3486602" lon="14.0872689"><ele>63.0</ele><time>2026-05-02T07:11:13.676Z</time></trkpt><trkpt lat="42.3486182" lon="14.0871873"><ele>63.0</ele><time>2026-05-02T07:11:14.679Z</time></trkpt><trkpt lat="42.3485793" lon="14.0871042"><ele>63.0</ele><time>2026-05-02T07:11:15.683Z</time></trkpt><trkpt lat="42.3485231" lon="14.0870335"><ele>63.0</ele><time>2026-05-02T07:11:16.678Z</time></trkpt><trkpt lat="42.3484723" lon="14.0869759"><ele>63.0</ele><time>2026-05-02T07:11:17.672Z</time></trkpt><trkpt lat="42.3484107" lon="14.0869067"><ele>63.0</ele><time>2026-05-02T07:11:18.698Z</time></trkpt><trkpt lat="42.348311" lon="14.0868292"><ele>63.0</ele><time>2026-05-02T07:11:20.668Z</time></trkpt><trkpt lat="42.3482228" lon="14.0867616"><ele>63.0</ele><time>2026-05-02T07:11:22.691Z</time></trkpt><trkpt lat="42.3481702" lon="14.0866617"><ele>63.0</ele><time>2026-05-02T07:11:24.691Z</time></trkpt><trkpt lat="42.3481367" lon="14.0865421"><ele>63.0</ele><time>2026-05-02T07:11:26.677Z</time></trkpt><trkpt lat="42.3481034" lon="14.0863958"><ele>63.0</ele><time>2026-05-02T07:11:28.698Z</time></trkpt><trkpt lat="42.3480821" lon="14.0862369"><ele>63.0</ele><time>2026-05-02T07:11:30.684Z</time></trkpt><trkpt lat="42.3480659" lon="14.0860979"><ele>63.0</ele><time>2026-05-02T07:11:32.674Z</time></trkpt><trkpt lat="42.3480479" lon="14.085964"><ele>63.0</ele><time>2026-05-02T07:11:34.673Z</time></trkpt><trkpt lat="42.3480283" lon="14.0858203"><ele>63.0</ele><time>2026-05-02T07:11:36.671Z</time></trkpt><trkpt lat="42.3480063" lon="14.0856681"><ele>63.0</ele><time>2026-05-02T07:11:38.681Z</time></trkpt><trkpt lat="42.3480022" lon="14.0855807"><ele>64.0</ele><time>2026-05-02T07:11:39.667Z</time></trkpt><trkpt lat="42.3479961" lon="14.0854946"><ele>65.0</ele><time>2026-05-02T07:11:40.674Z</time></trkpt><trkpt lat="42.3479501" lon="14.0853436"><ele>66.0</ele><time>2026-05-02T07:11:42.676Z</time></trkpt><trkpt lat="42.3479144" lon="14.0852726"><ele>67.0</ele><time>2026-05-02T07:11:43.681Z</time></trkpt><trkpt lat="42.3478698" lon="14.0851953"><ele>68.0</ele><time>2026-05-02T07:11:44.666Z</time></trkpt><trkpt lat="42.3478296" lon="14.0850952"><ele>69.0</ele><time>2026-05-02T07:11:45.676Z</time></trkpt><trkpt lat="42.3477989" lon="14.0849883"><ele>68.83333333333333</ele><time>2026-05-02T07:11:46.684Z</time></trkpt><trkpt lat="42.347782" lon="14.084887"><ele>68.66666666666667</ele><time>2026-05-02T07:11:47.677Z</time></trkpt><trkpt lat="42.3477748" lon="14.0847762"><ele>68.5</ele><time>2026-05-02T07:11:48.679Z</time></trkpt><trkpt lat="42.347772" lon="14.0846833"><ele>68.33333333333334</ele><time>2026-05-02T07:11:49.669Z</time></trkpt><trkpt lat="42.3477472" lon="14.0845884"><ele>68.16666666666667</ele><time>2026-05-02T07:11:50.682Z</time></trkpt><trkpt lat="42.3477051" lon="14.0844752"><ele>68.0</ele><time>2026-05-02T07:11:51.673Z</time></trkpt><trkpt lat="42.3476663" lon="14.0843609"><ele>68.0</ele><time>2026-05-02T07:11:52.672Z</time></trkpt><trkpt lat="42.3476298" lon="14.084251"><ele>68.0</ele><time>2026-05-02T07:11:53.676Z</time></trkpt><trkpt lat="42.3476167" lon="14.0841462"><ele>68.0</ele><time>2026-05-02T07:11:54.682Z</time></trkpt><trkpt lat="42.3476129" lon="14.0840505"><ele>68.0</ele><time>2026-05-02T07:11:55.684Z</time></trkpt><trkpt lat="42.3476087" lon="14.083959"><ele>68.0</ele><time>2026-05-02T07:11:56.678Z</time></trkpt><trkpt lat="42.3475973" lon="14.0837787"><ele>68.0</ele><time>2026-05-02T07:11:58.681Z</time></trkpt><trkpt lat="42.347584" lon="14.0836812"><ele>68.0</ele><time>2026-05-02T07:11:59.675Z</time></trkpt><trkpt lat="42.3475719" lon="14.0835802"><ele>68.0</ele><time>2026-05-02T07:12:00.677Z</time></trkpt><trkpt lat="42.3475605" lon="14.0834799"><ele>68.0</ele><time>2026-05-02T07:12:01.686Z</time></trkpt><trkpt lat="42.3475731" lon="14.0833632"><ele>68.0</ele><time>2026-05-02T07:12:02.675Z</time></trkpt><trkpt lat="42.3476104" lon="14.0832232"><ele>68.0</ele><time>2026-05-02T07:12:03.679Z</time></trkpt><trkpt lat="42.347645" lon="14.0831083"><ele>68.0</ele><time>2026-05-02T07:12:04.667Z</time></trkpt><trkpt lat="42.3476778" lon="14.0830354"><ele>68.0</ele><time>2026-05-02T07:12:05.669Z</time></trkpt><trkpt lat="42.3477302" lon="14.0829684"><ele>68.0</ele><time>2026-05-02T07:12:06.675Z</time></trkpt><trkpt lat="42.3477892" lon="14.0829018"><ele>68.0</ele><time>2026-05-02T07:12:07.681Z</time></trkpt><trkpt lat="42.3478631" lon="14.08282"><ele>68.0</ele><time>2026-05-02T07:12:08.677Z</time></trkpt><trkpt lat="42.3479371" lon="14.0827099"><ele>68.0</ele><time>2026-05-02T07:12:09.679Z</time></trkpt><trkpt lat="42.3480021" lon="14.0825854"><ele>67.5</ele><time>2026-05-02T07:12:10.675Z</time></trkpt><trkpt lat="42.3480462" lon="14.0824653"><ele>67.0</ele><time>2026-05-02T07:12:11.678Z</time></trkpt><trkpt lat="42.3480865" lon="14.0823525"><ele>66.5</ele><time>2026-05-02T07:12:12.685Z</time></trkpt><trkpt lat="42.3481272" lon="14.0822577"><ele>66.0</ele><time>2026-05-02T07:12:13.67Z</time></trkpt><trkpt lat="42.3481672" lon="14.0821836"><ele>65.5</ele><time>2026-05-02T07:12:14.684Z</time></trkpt><trkpt lat="42.3482273" lon="14.0820776"><ele>65.0</ele><time>2026-05-02T07:12:16.675Z</time></trkpt><trkpt lat="42.3482638" lon="14.0820027"><ele>65.0</ele><time>2026-05-02T07:12:18.676Z</time></trkpt><trkpt lat="42.3483245" lon="14.0819528"><ele>65.0</ele><time>2026-05-02T07:13:06.68Z</time></trkpt><trkpt lat="42.3484318" lon="14.0820121"><ele>65.0</ele><time>2026-05-02T07:13:09.682Z</time></trkpt><trkpt lat="42.3484974" lon="14.0820093"><ele>65.0</ele><time>2026-05-02T07:13:11.68Z</time></trkpt><trkpt lat="42.3485532" lon="14.0818523"><ele>65.0</ele><time>2026-05-02T07:13:14.672Z</time></trkpt><trkpt lat="42.3485765" lon="14.0817669"><ele>65.0</ele><time>2026-05-02T07:13:15.674Z</time></trkpt><trkpt lat="42.3485879" lon="14.0816158"><ele>65.4</ele><time>2026-05-02T07:13:17.675Z</time></trkpt><trkpt lat="42.3486412" lon="14.0815444"><ele>65.8</ele><time>2026-05-02T07:13:18.687Z</time></trkpt><trkpt lat="42.3487268" lon="14.0814733"><ele>66.2</ele><time>2026-05-02T07:13:19.686Z</time></trkpt><trkpt lat="42.3488233" lon="14.0813998"><ele>66.6</ele><time>2026-05-02T07:13:20.668Z</time></trkpt><trkpt lat="42.3489297" lon="14.0813258"><ele>67.0</ele><time>2026-05-02T07:13:21.667Z</time></trkpt><trkpt lat="42.3490357" lon="14.0812539"><ele>67.0</ele><time>2026-05-02T07:13:22.678Z</time></trkpt><trkpt lat="42.3491167" lon="14.0812367"><ele>67.0</ele><time>2026-05-02T07:13:23.679Z</time></trkpt><trkpt lat="42.3491998" lon="14.0812413"><ele>67.0</ele><time>2026-05-02T07:13:24.678Z</time></trkpt><trkpt lat="42.3492712" lon="14.0812586"><ele>67.0</ele><time>2026-05-02T07:13:25.675Z</time></trkpt><trkpt lat="42.349354" lon="14.0812785"><ele>67.0</ele><time>2026-05-02T07:13:26.677Z</time></trkpt><trkpt lat="42.3494428" lon="14.081305"><ele>67.0</ele><time>2026-05-02T07:13:27.67Z</time></trkpt><trkpt lat="42.349563" lon="14.0812867"><ele>67.0</ele><time>2026-05-02T07:13:29.665Z</time></trkpt><trkpt lat="42.3496489" lon="14.081185"><ele>67.0</ele><time>2026-05-02T07:13:31.674Z</time></trkpt><trkpt lat="42.3496778" lon="14.0810445"><ele>67.0</ele><time>2026-05-02T07:13:33.683Z</time></trkpt><trkpt lat="42.3496591" lon="14.0808751"><ele>67.0</ele><time>2026-05-02T07:13:35.681Z</time></trkpt><trkpt lat="42.3496234" lon="14.0807994"><ele>67.0</ele><time>2026-05-02T07:13:36.669Z</time></trkpt><trkpt lat="42.3495892" lon="14.0807266"><ele>66.8</ele><time>2026-05-02T07:13:37.669Z</time></trkpt><trkpt lat="42.3495587" lon="14.0806138"><ele>66.6</ele><time>2026-05-02T07:13:39.67Z</time></trkpt><trkpt lat="42.3496022" lon="14.0805307"><ele>66.39999999999999</ele><time>2026-05-02T07:13:41.664Z</time></trkpt><trkpt lat="42.3496527" lon="14.0804742"><ele>66.2</ele><time>2026-05-02T07:13:42.671Z</time></trkpt><trkpt lat="42.3497334" lon="14.0803781"><ele>66.0</ele><time>2026-05-02T07:13:43.664Z</time></trkpt><trkpt lat="42.3498488" lon="14.0802564"><ele>66.0</ele><time>2026-05-02T07:13:44.672Z</time></trkpt><trkpt lat="42.3499711" lon="14.080148"><ele>66.0</ele><time>2026-05-02T07:13:45.667Z</time></trkpt><trkpt lat="42.3500827" lon="14.0800561"><ele>66.0</ele><time>2026-05-02T07:13:46.674Z</time></trkpt><trkpt lat="42.3501717" lon="14.0799696"><ele>66.0</ele><time>2026-05-02T07:13:47.686Z</time></trkpt><trkpt lat="42.3502463" lon="14.0798484"><ele>66.0</ele><time>2026-05-02T07:13:48.676Z</time></trkpt><trkpt lat="42.3503039" lon="14.0796868"><ele>66.0</ele><time>2026-05-02T07:13:49.673Z</time></trkpt><trkpt lat="42.3503484" lon="14.0794988"><ele>66.0</ele><time>2026-05-02T07:13:50.674Z</time></trkpt><trkpt lat="42.350387" lon="14.0793074"><ele>66.0</ele><time>2026-05-02T07:13:51.673Z</time></trkpt><trkpt lat="42.350411" lon="14.0791126"><ele>66.0</ele><time>2026-05-02T07:13:52.662Z</time></trkpt><trkpt lat="42.3504607" lon="14.0789206"><ele>66.0</ele><time>2026-05-02T07:13:53.671Z</time></trkpt><trkpt lat="42.3505271" lon="14.0787645"><ele>66.0</ele><time>2026-05-02T07:13:54.673Z</time></trkpt><trkpt lat="42.3505636" lon="14.0786285"><ele>66.0</ele><time>2026-05-02T07:13:55.671Z</time></trkpt><trkpt lat="42.3505831" lon="14.0785097"><ele>66.25</ele><time>2026-05-02T07:13:56.678Z</time></trkpt><trkpt lat="42.3505758" lon="14.0783576"><ele>66.5</ele><time>2026-05-02T07:13:57.667Z</time></trkpt><trkpt lat="42.3505469" lon="14.0781816"><ele>66.75</ele><time>2026-05-02T07:13:58.694Z</time></trkpt><trkpt lat="42.3505058" lon="14.0779994"><ele>67.0</ele><time>2026-05-02T07:13:59.691Z</time></trkpt><trkpt lat="42.3504792" lon="14.0778375"><ele>67.0</ele><time>2026-05-02T07:14:00.67Z</time></trkpt><trkpt lat="42.3504696" lon="14.0776585"><ele>67.0</ele><time>2026-05-02T07:14:01.677Z</time></trkpt><trkpt lat="42.3504527" lon="14.0774645"><ele>67.0</ele><time>2026-05-02T07:14:02.671Z</time></trkpt><trkpt lat="42.3504498" lon="14.0772575"><ele>67.0</ele><time>2026-05-02T07:14:03.675Z</time></trkpt><trkpt lat="42.3504456" lon="14.0770388"><ele>67.2</ele><time>2026-05-02T07:14:04.67Z</time></trkpt><trkpt lat="42.3504445" lon="14.0768657"><ele>67.4</ele><time>2026-05-02T07:14:05.696Z</time></trkpt><trkpt lat="42.3504432" lon="14.0767257"><ele>67.6</ele><time>2026-05-02T07:14:06.681Z</time></trkpt><trkpt lat="42.3504501" lon="14.0765987"><ele>67.8</ele><time>2026-05-02T07:14:07.672Z</time></trkpt><trkpt lat="42.3504729" lon="14.0764889"><ele>68.0</ele><time>2026-05-02T07:14:08.676Z</time></trkpt><trkpt lat="42.3504966" lon="14.076384"><ele>68.33333333333334</ele><time>2026-05-02T07:14:09.683Z</time></trkpt><trkpt lat="42.3505017" lon="14.0762755"><ele>68.66666666666667</ele><time>2026-05-02T07:14:10.686Z</time></trkpt><trkpt lat="42.3504939" lon="14.0761657"><ele>69.0</ele><time>2026-05-02T07:14:11.666Z</time></trkpt><trkpt lat="42.3504747" lon="14.0760626"><ele>69.33333333333333</ele><time>2026-05-02T07:14:12.675Z</time></trkpt><trkpt lat="42.350455" lon="14.0759596"><ele>69.66666666666666</ele><time>2026-05-02T07:14:13.671Z</time></trkpt><trkpt lat="42.3504326" lon="14.0758416"><ele>70.0</ele><time>2026-05-02T07:14:14.68Z</time></trkpt><trkpt lat="42.350423" lon="14.0757305"><ele>70.16666666666666</ele><time>2026-05-02T07:14:15.679Z</time></trkpt><trkpt lat="42.3504187" lon="14.0756359"><ele>70.33333333333333</ele><time>2026-05-02T07:14:16.677Z</time></trkpt><trkpt lat="42.3504122" lon="14.0755072"><ele>70.5</ele><time>2026-05-02T07:14:18.67Z</time></trkpt><trkpt lat="42.3504919" lon="14.0754091"><ele>70.66666666666667</ele><time>2026-05-02T07:14:21.676Z</time></trkpt><trkpt lat="42.3505577" lon="14.0753842"><ele>70.83333333333334</ele><time>2026-05-02T07:14:22.681Z</time></trkpt><trkpt lat="42.3506444" lon="14.0753722"><ele>71.0</ele><time>2026-05-02T07:14:23.677Z</time></trkpt><trkpt lat="42.3507501" lon="14.0753483"><ele>71.0</ele><time>2026-05-02T07:14:24.669Z</time></trkpt><trkpt lat="42.3508583" lon="14.0753158"><ele>71.0</ele><time>2026-05-02T07:14:25.668Z</time></trkpt><trkpt lat="42.350971" lon="14.075275"><ele>71.0</ele><time>2026-05-02T07:14:26.693Z</time></trkpt><trkpt lat="42.3510881" lon="14.0752349"><ele>71.0</ele><time>2026-05-02T07:14:27.667Z</time></trkpt><trkpt lat="42.3511884" lon="14.075193"><ele>71.0</ele><time>2026-05-02T07:14:28.687Z</time></trkpt><trkpt lat="42.3512668" lon="14.0751515"><ele>71.0</ele><time>2026-05-02T07:14:29.685Z</time></trkpt><trkpt lat="42.351329" lon="14.0751199"><ele>71.0</ele><time>2026-05-02T07:14:30.681Z</time></trkpt><trkpt lat="42.3513942" lon="14.0750905"><ele>71.0</ele><time>2026-05-02T07:14:31.683Z</time></trkpt><trkpt lat="42.3514716" lon="14.0750645"><ele>71.0</ele><time>2026-05-02T07:14:32.678Z</time></trkpt><trkpt lat="42.3515501" lon="14.0750459"><ele>71.0</ele><time>2026-05-02T07:14:33.678Z</time></trkpt><trkpt lat="42.3516513" lon="14.0750502"><ele>71.5</ele><time>2026-05-02T07:14:34.674Z</time></trkpt><trkpt lat="42.3517639" lon="14.0750709"><ele>72.0</ele><time>2026-05-02T07:14:35.683Z</time></trkpt><trkpt lat="42.3518755" lon="14.0750977"><ele>72.5</ele><time>2026-05-02T07:14:36.674Z</time></trkpt><trkpt lat="42.3519976" lon="14.0751195"><ele>73.0</ele><time>2026-05-02T07:14:37.679Z</time></trkpt><trkpt lat="42.3521242" lon="14.0751375"><ele>74.0</ele><time>2026-05-02T07:14:38.672Z</time></trkpt><trkpt lat="42.3522502" lon="14.0751574"><ele>75.0</ele><time>2026-05-02T07:14:39.669Z</time></trkpt><trkpt lat="42.3523836" lon="14.0751749"><ele>76.0</ele><time>2026-05-02T07:14:40.691Z</time></trkpt><trkpt lat="42.3525206" lon="14.0751872"><ele>77.0</ele><time>2026-05-02T07:14:41.67Z</time></trkpt><trkpt lat="42.3526658" lon="14.0752065"><ele>77.0</ele><time>2026-05-02T07:14:42.662Z</time></trkpt><trkpt lat="42.3528019" lon="14.0752361"><ele>77.0</ele><time>2026-05-02T07:14:43.674Z</time></trkpt><trkpt lat="42.3529388" lon="14.075273"><ele>77.0</ele><time>2026-05-02T07:14:44.671Z</time></trkpt><trkpt lat="42.3530769" lon="14.0753154"><ele>77.0</ele><time>2026-05-02T07:14:45.677Z</time></trkpt><trkpt lat="42.3532111" lon="14.0753588"><ele>80.5</ele><time>2026-05-02T07:14:46.676Z</time></trkpt><trkpt lat="42.3533415" lon="14.0753777"><ele>84.0</ele><time>2026-05-02T07:14:47.674Z</time></trkpt><trkpt lat="42.3534637" lon="14.0753811"><ele>87.5</ele><time>2026-05-02T07:14:48.665Z</time></trkpt><trkpt lat="42.3535944" lon="14.0753513"><ele>91.0</ele><time>2026-05-02T07:14:49.681Z</time></trkpt><trkpt lat="42.353724" lon="14.0753195"><ele>91.0</ele><time>2026-05-02T07:14:50.665Z</time></trkpt><trkpt lat="42.3538508" lon="14.0752876"><ele>91.0</ele><time>2026-05-02T07:14:51.682Z</time></trkpt><trkpt lat="42.3539719" lon="14.0752525"><ele>91.0</ele><time>2026-05-02T07:14:52.669Z</time></trkpt><trkpt lat="42.3540933" lon="14.0752094"><ele>91.0</ele><time>2026-05-02T07:14:53.663Z</time></trkpt><trkpt lat="42.3542221" lon="14.0751665"><ele>92.5</ele><time>2026-05-02T07:14:54.678Z</time></trkpt><trkpt lat="42.3543543" lon="14.0751356"><ele>94.0</ele><time>2026-05-02T07:14:55.681Z</time></trkpt><trkpt lat="42.35448" lon="14.0751041"><ele>95.5</ele><time>2026-05-02T07:14:56.686Z</time></trkpt><trkpt lat="42.354591" lon="14.0750691"><ele>97.0</ele><time>2026-05-02T07:14:57.678Z</time></trkpt><trkpt lat="42.3546937" lon="14.0750431"><ele>100.25</ele><time>2026-05-02T07:14:58.67Z</time></trkpt><trkpt lat="42.3548048" lon="14.0750171"><ele>103.5</ele><time>2026-05-02T07:14:59.671Z</time></trkpt><trkpt lat="42.3549155" lon="14.0750006"><ele>106.75</ele><time>2026-05-02T07:15:00.68Z</time></trkpt><trkpt lat="42.3550275" lon="14.0749868"><ele>110.0</ele><time>2026-05-02T07:15:01.68Z</time></trkpt><trkpt lat="42.3551434" lon="14.0749718"><ele>110.0</ele><time>2026-05-02T07:15:02.677Z</time></trkpt><trkpt lat="42.355265" lon="14.074944"><ele>110.0</ele><time>2026-05-02T07:15:03.669Z</time></trkpt><trkpt lat="42.3553812" lon="14.0749238"><ele>110.0</ele><time>2026-05-02T07:15:04.68Z</time></trkpt><trkpt lat="42.3554949" lon="14.0749066"><ele>110.0</ele><time>2026-05-02T07:15:05.68Z</time></trkpt><trkpt lat="42.3555941" lon="14.0748865"><ele>112.0</ele><time>2026-05-02T07:15:06.686Z</time></trkpt><trkpt lat="42.3556959" lon="14.074882"><ele>114.0</ele><time>2026-05-02T07:15:07.695Z</time></trkpt><trkpt lat="42.3558024" lon="14.0748749"><ele>116.0</ele><time>2026-05-02T07:15:08.67Z</time></trkpt><trkpt lat="42.3559059" lon="14.0748743"><ele>118.0</ele><time>2026-05-02T07:15:09.679Z</time></trkpt><trkpt lat="42.3560175" lon="14.0748747"><ele>120.0</ele><time>2026-05-02T07:15:10.682Z</time></trkpt><trkpt lat="42.3561402" lon="14.074884"><ele>120.0</ele><time>2026-05-02T07:15:11.691Z</time></trkpt><trkpt lat="42.3562678" lon="14.0748952"><ele>120.0</ele><time>2026-05-02T07:15:12.682Z</time></trkpt><trkpt lat="42.356397" lon="14.0749133"><ele>120.0</ele><time>2026-05-02T07:15:13.671Z</time></trkpt><trkpt lat="42.3565264" lon="14.0749312"><ele>120.0</ele><time>2026-05-02T07:15:14.677Z</time></trkpt><trkpt lat="42.3566617" lon="14.0749491"><ele>120.5</ele><time>2026-05-02T07:15:15.683Z</time></trkpt><trkpt lat="42.3567965" lon="14.0749655"><ele>121.0</ele><time>2026-05-02T07:15:16.694Z</time></trkpt><trkpt lat="42.3569292" lon="14.0749884"><ele>121.5</ele><time>2026-05-02T07:15:17.682Z</time></trkpt><trkpt lat="42.3570612" lon="14.0750166"><ele>122.0</ele><time>2026-05-02T07:15:18.682Z</time></trkpt><trkpt lat="42.3572055" lon="14.0750496"><ele>122.0</ele><time>2026-05-02T07:15:19.684Z</time></trkpt><trkpt lat="42.3573559" lon="14.0750786"><ele>122.0</ele><time>2026-05-02T07:15:20.666Z</time></trkpt><trkpt lat="42.3575061" lon="14.0751157"><ele>122.0</ele><time>2026-05-02T07:15:21.674Z</time></trkpt><trkpt lat="42.3576487" lon="14.075149"><ele>122.0</ele><time>2026-05-02T07:15:22.676Z</time></trkpt><trkpt lat="42.3577978" lon="14.0751828"><ele>122.0</ele><time>2026-05-02T07:15:23.667Z</time></trkpt><trkpt lat="42.3579549" lon="14.0752392"><ele>122.0</ele><time>2026-05-02T07:15:24.676Z</time></trkpt><trkpt lat="42.3581002" lon="14.0752981"><ele>122.0</ele><time>2026-05-02T07:15:25.672Z</time></trkpt><trkpt lat="42.3582356" lon="14.0753498"><ele>121.8</ele><time>2026-05-02T07:15:26.693Z</time></trkpt><trkpt lat="42.3583616" lon="14.075402"><ele>121.6</ele><time>2026-05-02T07:15:27.674Z</time></trkpt><trkpt lat="42.3584583" lon="14.0754391"><ele>121.39999999999999</ele><time>2026-05-02T07:15:28.675Z</time></trkpt><trkpt lat="42.3585363" lon="14.0754768"><ele>121.19999999999999</ele><time>2026-05-02T07:15:29.686Z</time></trkpt><trkpt lat="42.3586087" lon="14.0755027"><ele>121.0</ele><time>2026-05-02T07:15:30.682Z</time></trkpt><trkpt lat="42.358716" lon="14.07552"><ele>121.0</ele><time>2026-05-02T07:15:32.672Z</time></trkpt><trkpt lat="42.3588254" lon="14.0754977"><ele>121.0</ele><time>2026-05-02T07:15:34.696Z</time></trkpt><trkpt lat="42.3588946" lon="14.0754683"><ele>121.0</ele><time>2026-05-02T07:15:35.678Z</time></trkpt><trkpt lat="42.3589775" lon="14.075415"><ele>121.0</ele><time>2026-05-02T07:15:36.685Z</time></trkpt><trkpt lat="42.3590717" lon="14.0753529"><ele>121.0</ele><time>2026-05-02T07:15:37.694Z</time></trkpt><trkpt lat="42.3591681" lon="14.0752984"><ele>122.0</ele><time>2026-05-02T07:15:38.674Z</time></trkpt><trkpt lat="42.3592597" lon="14.0752314"><ele>123.0</ele><time>2026-05-02T07:15:39.676Z</time></trkpt><trkpt lat="42.3593619" lon="14.0751554"><ele>124.0</ele><time>2026-05-02T07:15:40.679Z</time></trkpt><trkpt lat="42.3594795" lon="14.0750765"><ele>125.0</ele><time>2026-05-02T07:15:41.687Z</time></trkpt><trkpt lat="42.3596012" lon="14.074998"><ele>125.75</ele><time>2026-05-02T07:15:42.676Z</time></trkpt><trkpt lat="42.3597246" lon="14.0749258"><ele>126.5</ele><time>2026-05-02T07:15:43.685Z</time></trkpt><trkpt lat="42.3598427" lon="14.0748403"><ele>127.25</ele><time>2026-05-02T07:15:44.684Z</time></trkpt><trkpt lat="42.3599618" lon="14.0747617"><ele>128.0</ele><time>2026-05-02T07:15:45.672Z</time></trkpt><trkpt lat="42.3600726" lon="14.07468"><ele>128.0</ele><time>2026-05-02T07:15:46.68Z</time></trkpt><trkpt lat="42.3601659" lon="14.0746136"><ele>128.0</ele><time>2026-05-02T07:15:47.687Z</time></trkpt><trkpt lat="42.3602437" lon="14.074556"><ele>128.0</ele><time>2026-05-02T07:15:48.677Z</time></trkpt><trkpt lat="42.3603239" lon="14.0745015"><ele>128.0</ele><time>2026-05-02T07:15:49.681Z</time></trkpt><trkpt lat="42.3604091" lon="14.0744508"><ele>128.0</ele><time>2026-05-02T07:15:50.679Z</time></trkpt><trkpt lat="42.3604935" lon="14.0743996"><ele>128.6</ele><time>2026-05-02T07:15:51.676Z</time></trkpt><trkpt lat="42.3605902" lon="14.0743426"><ele>129.20000000000002</ele><time>2026-05-02T07:15:52.667Z</time></trkpt><trkpt lat="42.3606811" lon="14.0742715"><ele>129.8</ele><time>2026-05-02T07:15:53.668Z</time></trkpt><trkpt lat="42.360772" lon="14.0741989"><ele>130.4</ele><time>2026-05-02T07:15:54.676Z</time></trkpt><trkpt lat="42.3608673" lon="14.074129"><ele>131.0</ele><time>2026-05-02T07:15:55.667Z</time></trkpt><trkpt lat="42.360956" lon="14.0740709"><ele>131.5</ele><time>2026-05-02T07:15:56.683Z</time></trkpt><trkpt lat="42.361036" lon="14.0740173"><ele>132.0</ele><time>2026-05-02T07:15:57.669Z</time></trkpt><trkpt lat="42.3611051" lon="14.0739781"><ele>132.5</ele><time>2026-05-02T07:15:58.667Z</time></trkpt><trkpt lat="42.3611759" lon="14.073938"><ele>133.0</ele><time>2026-05-02T07:15:59.662Z</time></trkpt><trkpt lat="42.3612519" lon="14.0738787"><ele>133.5</ele><time>2026-05-02T07:16:00.669Z</time></trkpt><trkpt lat="42.3613291" lon="14.0738138"><ele>134.0</ele><time>2026-05-02T07:16:01.676Z</time></trkpt><trkpt lat="42.361407" lon="14.0737491"><ele>134.5</ele><time>2026-05-02T07:16:02.689Z</time></trkpt><trkpt lat="42.3614801" lon="14.0736939"><ele>135.0</ele><time>2026-05-02T07:16:03.671Z</time></trkpt><trkpt lat="42.3615439" lon="14.0736478"><ele>135.5</ele><time>2026-05-02T07:16:04.69Z</time></trkpt><trkpt lat="42.3616357" lon="14.0735643"><ele>136.0</ele><time>2026-05-02T07:16:06.678Z</time></trkpt><trkpt lat="42.3617239" lon="14.0735329"><ele>136.5</ele><time>2026-05-02T07:16:08.69Z</time></trkpt><trkpt lat="42.3617927" lon="14.0735271"><ele>137.0</ele><time>2026-05-02T07:16:11.67Z</time></trkpt><trkpt lat="42.3617963" lon="14.0733835"><ele>137.0</ele><time>2026-05-02T07:16:14.669Z</time></trkpt><trkpt lat="42.3616868" lon="14.0732348"><ele>137.0</ele><time>2026-05-02T07:16:16.683Z</time></trkpt><trkpt lat="42.3616049" lon="14.0731313"><ele>137.0</ele><time>2026-05-02T07:16:17.681Z</time></trkpt><trkpt lat="42.3615276" lon="14.0730147"><ele>137.0</ele><time>2026-05-02T07:16:18.68Z</time></trkpt><trkpt lat="42.3614442" lon="14.0729108"><ele>137.0</ele><time>2026-05-02T07:16:19.676Z</time></trkpt><trkpt lat="42.3613699" lon="14.0727931"><ele>137.0</ele><time>2026-05-02T07:16:20.677Z</time></trkpt><trkpt lat="42.3613002" lon="14.0726786"><ele>137.0</ele><time>2026-05-02T07:16:21.681Z</time></trkpt><trkpt lat="42.361217" lon="14.0725576"><ele>137.0</ele><time>2026-05-02T07:16:22.679Z</time></trkpt><trkpt lat="42.3611256" lon="14.0724302"><ele>136.0</ele><time>2026-05-02T07:16:23.681Z</time></trkpt><trkpt lat="42.3610405" lon="14.0722948"><ele>135.0</ele><time>2026-05-02T07:16:24.685Z</time></trkpt><trkpt lat="42.3609539" lon="14.0721609"><ele>134.0</ele><time>2026-05-02T07:16:25.684Z</time></trkpt><trkpt lat="42.3608639" lon="14.0720285"><ele>133.0</ele><time>2026-05-02T07:16:26.7Z</time></trkpt><trkpt lat="42.3607806" lon="14.0718975"><ele>133.0</ele><time>2026-05-02T07:16:27.674Z</time></trkpt><trkpt lat="42.3607115" lon="14.0717658"><ele>133.0</ele><time>2026-05-02T07:16:28.671Z</time></trkpt><trkpt lat="42.360658" lon="14.0716219"><ele>133.0</ele><time>2026-05-02T07:16:29.681Z</time></trkpt><trkpt lat="42.3606123" lon="14.0714534"><ele>133.0</ele><time>2026-05-02T07:16:30.673Z</time></trkpt><trkpt lat="42.3605724" lon="14.0712734"><ele>133.0</ele><time>2026-05-02T07:16:31.682Z</time></trkpt><trkpt lat="42.3605405" lon="14.0710957"><ele>133.0</ele><time>2026-05-02T07:16:32.675Z</time></trkpt><trkpt lat="42.3605043" lon="14.0709072"><ele>133.0</ele><time>2026-05-02T07:16:33.666Z</time></trkpt><trkpt lat="42.3604645" lon="14.0707331"><ele>133.0</ele><time>2026-05-02T07:16:34.686Z</time></trkpt><trkpt lat="42.3604264" lon="14.0705643"><ele>133.5</ele><time>2026-05-02T07:16:35.676Z</time></trkpt><trkpt lat="42.3603891" lon="14.0704049"><ele>134.0</ele><time>2026-05-02T07:16:36.67Z</time></trkpt><trkpt lat="42.3603522" lon="14.0702341"><ele>134.5</ele><time>2026-05-02T07:16:37.684Z</time></trkpt><trkpt lat="42.3603149" lon="14.0700637"><ele>135.0</ele><time>2026-05-02T07:16:38.672Z</time></trkpt><trkpt lat="42.3602883" lon="14.069885"><ele>135.75</ele><time>2026-05-02T07:16:39.692Z</time></trkpt><trkpt lat="42.3602662" lon="14.069707"><ele>136.5</ele><time>2026-05-02T07:16:40.699Z</time></trkpt><trkpt lat="42.3602462" lon="14.0695278"><ele>137.25</ele><time>2026-05-02T07:16:41.681Z</time></trkpt><trkpt lat="42.3602313" lon="14.0693452"><ele>138.0</ele><time>2026-05-02T07:16:42.696Z</time></trkpt><trkpt lat="42.3602342" lon="14.0691481"><ele>138.5</ele><time>2026-05-02T07:16:43.678Z</time></trkpt><trkpt lat="42.3602627" lon="14.0689622"><ele>139.0</ele><time>2026-05-02T07:16:44.685Z</time></trkpt><trkpt lat="42.360297" lon="14.0688001"><ele>139.5</ele><time>2026-05-02T07:16:45.67Z</time></trkpt><trkpt lat="42.3603458" lon="14.0686476"><ele>140.0</ele><time>2026-05-02T07:16:46.668Z</time></trkpt><trkpt lat="42.3604072" lon="14.0685216"><ele>140.0</ele><time>2026-05-02T07:16:47.688Z</time></trkpt><trkpt lat="42.3604737" lon="14.0684175"><ele>140.0</ele><time>2026-05-02T07:16:48.685Z</time></trkpt><trkpt lat="42.3605265" lon="14.0683363"><ele>140.0</ele><time>2026-05-02T07:16:49.681Z</time></trkpt><trkpt lat="42.3605796" lon="14.0682456"><ele>140.0</ele><time>2026-05-02T07:16:50.683Z</time></trkpt><trkpt lat="42.3606257" lon="14.0681428"><ele>140.0</ele><time>2026-05-02T07:16:51.687Z</time></trkpt><trkpt lat="42.360665" lon="14.0680123"><ele>140.0</ele><time>2026-05-02T07:16:52.678Z</time></trkpt><trkpt lat="42.3606943" lon="14.0678891"><ele>140.0</ele><time>2026-05-02T07:16:53.665Z</time></trkpt><trkpt lat="42.3607157" lon="14.067762"><ele>140.0</ele><time>2026-05-02T07:16:54.684Z</time></trkpt><trkpt lat="42.3607083" lon="14.0676367"><ele>140.0</ele><time>2026-05-02T07:16:55.682Z</time></trkpt><trkpt lat="42.3606737" lon="14.067509"><ele>140.0</ele><time>2026-05-02T07:16:56.679Z</time></trkpt><trkpt lat="42.3606144" lon="14.0673715"><ele>139.2</ele><time>2026-05-02T07:16:57.675Z</time></trkpt><trkpt lat="42.3605447" lon="14.0672407"><ele>138.4</ele><time>2026-05-02T07:16:58.678Z</time></trkpt><trkpt lat="42.3604806" lon="14.0671351"><ele>137.6</ele><time>2026-05-02T07:16:59.681Z</time></trkpt><trkpt lat="42.3604301" lon="14.0670338"><ele>136.8</ele><time>2026-05-02T07:17:00.68Z</time></trkpt><trkpt lat="42.3603987" lon="14.0669412"><ele>136.0</ele><time>2026-05-02T07:17:01.675Z</time></trkpt><trkpt lat="42.3603861" lon="14.0668449"><ele>135.0</ele><time>2026-05-02T07:17:02.665Z</time></trkpt><trkpt lat="42.3603866" lon="14.0667547"><ele>134.0</ele><time>2026-05-02T07:17:03.675Z</time></trkpt><trkpt lat="42.3603673" lon="14.0666257"><ele>133.0</ele><time>2026-05-02T07:17:05.681Z</time></trkpt><trkpt lat="42.3603105" lon="14.0665782"><ele>132.0</ele><time>2026-05-02T07:17:06.682Z</time></trkpt><trkpt lat="42.3601569" lon="14.066547"><ele>131.0</ele><time>2026-05-02T07:17:08.665Z</time></trkpt><trkpt lat="42.3600551" lon="14.0664941"><ele>131.0</ele><time>2026-05-02T07:17:09.685Z</time></trkpt><trkpt lat="42.3599601" lon="14.0664043"><ele>131.0</ele><time>2026-05-02T07:17:10.679Z</time></trkpt><trkpt lat="42.3598634" lon="14.0662601"><ele>131.0</ele><time>2026-05-02T07:17:11.682Z</time></trkpt><trkpt lat="42.3597662" lon="14.0660994"><ele>131.0</ele><time>2026-05-02T07:17:12.671Z</time></trkpt><trkpt lat="42.3596742" lon="14.0659409"><ele>131.5</ele><time>2026-05-02T07:17:13.679Z</time></trkpt><trkpt lat="42.3596008" lon="14.0657851"><ele>132.0</ele><time>2026-05-02T07:17:14.675Z</time></trkpt><trkpt lat="42.3595222" lon="14.0656371"><ele>132.5</ele><time>2026-05-02T07:17:15.684Z</time></trkpt><trkpt lat="42.3594473" lon="14.0654954"><ele>133.0</ele><time>2026-05-02T07:17:16.687Z</time></trkpt><trkpt lat="42.3593748" lon="14.0653647"><ele>130.75</ele><time>2026-05-02T07:17:17.676Z</time></trkpt><trkpt lat="42.3592999" lon="14.065255"><ele>128.5</ele><time>2026-05-02T07:17:18.692Z</time></trkpt><trkpt lat="42.3592136" lon="14.0651551"><ele>126.25</ele><time>2026-05-02T07:17:19.682Z</time></trkpt><trkpt lat="42.3591171" lon="14.0650623"><ele>124.0</ele><time>2026-05-02T07:17:20.678Z</time></trkpt><trkpt lat="42.3590183" lon="14.064959"><ele>123.5</ele><time>2026-05-02T07:17:21.679Z</time></trkpt><trkpt lat="42.3589269" lon="14.0648392"><ele>123.0</ele><time>2026-05-02T07:17:22.676Z</time></trkpt><trkpt lat="42.3588453" lon="14.064692"><ele>122.5</ele><time>2026-05-02T07:17:23.668Z</time></trkpt><trkpt lat="42.3587624" lon="14.0645433"><ele>122.0</ele><time>2026-05-02T07:17:24.675Z</time></trkpt><trkpt lat="42.3586736" lon="14.064392"><ele>121.5</ele><time>2026-05-02T07:17:25.687Z</time></trkpt><trkpt lat="42.3585936" lon="14.0642475"><ele>121.0</ele><time>2026-05-02T07:17:26.672Z</time></trkpt><trkpt lat="42.3585055" lon="14.0641211"><ele>120.5</ele><time>2026-05-02T07:17:27.683Z</time></trkpt><trkpt lat="42.3584234" lon="14.0640258"><ele>120.0</ele><time>2026-05-02T07:17:28.676Z</time></trkpt><trkpt lat="42.3583335" lon="14.0639617"><ele>117.25</ele><time>2026-05-02T07:17:29.674Z</time></trkpt><trkpt lat="42.3582212" lon="14.0639362"><ele>114.5</ele><time>2026-05-02T07:17:30.673Z</time></trkpt><trkpt lat="42.3581004" lon="14.0639451"><ele>111.75</ele><time>2026-05-02T07:17:31.682Z</time></trkpt><trkpt lat="42.3579647" lon="14.0639781"><ele>109.0</ele><time>2026-05-02T07:17:32.666Z</time></trkpt><trkpt lat="42.357838" lon="14.0640009"><ele>108.0</ele><time>2026-05-02T07:17:33.671Z</time></trkpt><trkpt lat="42.3577327" lon="14.0639895"><ele>107.0</ele><time>2026-05-02T07:17:34.681Z</time></trkpt><trkpt lat="42.3576254" lon="14.0639186"><ele>106.0</ele><time>2026-05-02T07:17:35.673Z</time></trkpt><trkpt lat="42.3574945" lon="14.0638191"><ele>105.0</ele><time>2026-05-02T07:17:36.679Z</time></trkpt><trkpt lat="42.3573537" lon="14.0637084"><ele>103.75</ele><time>2026-05-02T07:17:37.673Z</time></trkpt><trkpt lat="42.3572016" lon="14.0636181"><ele>102.5</ele><time>2026-05-02T07:17:38.679Z</time></trkpt><trkpt lat="42.3570534" lon="14.0635813"><ele>101.25</ele><time>2026-05-02T07:17:39.687Z</time></trkpt><trkpt lat="42.356924" lon="14.0635514"><ele>100.0</ele><time>2026-05-02T07:17:40.677Z</time></trkpt><trkpt lat="42.356787" lon="14.0635495"><ele>100.0</ele><time>2026-05-02T07:17:41.671Z</time></trkpt><trkpt lat="42.3566668" lon="14.0635684"><ele>100.0</ele><time>2026-05-02T07:17:42.676Z</time></trkpt><trkpt lat="42.3565404" lon="14.0636076"><ele>100.0</ele><time>2026-05-02T07:17:43.68Z</time></trkpt><trkpt lat="42.3564216" lon="14.0636696"><ele>100.0</ele><time>2026-05-02T07:17:44.675Z</time></trkpt><trkpt lat="42.3563106" lon="14.0637429"><ele>98.4</ele><time>2026-05-02T07:17:45.685Z</time></trkpt><trkpt lat="42.3562072" lon="14.0638143"><ele>96.8</ele><time>2026-05-02T07:17:46.685Z</time></trkpt><trkpt lat="42.3561101" lon="14.0638613"><ele>95.19999999999999</ele><time>2026-05-02T07:17:47.685Z</time></trkpt><trkpt lat="42.3560056" lon="14.0638796"><ele>93.6</ele><time>2026-05-02T07:17:48.677Z</time></trkpt><trkpt lat="42.3559071" lon="14.0638654"><ele>92.0</ele><time>2026-05-02T07:17:49.679Z</time></trkpt><trkpt lat="42.3558023" lon="14.0638173"><ele>92.0</ele><time>2026-05-02T07:17:50.681Z</time></trkpt><trkpt lat="42.3557106" lon="14.0637281"><ele>92.0</ele><time>2026-05-02T07:17:51.683Z</time></trkpt><trkpt lat="42.3556456" lon="14.0635893"><ele>92.0</ele><time>2026-05-02T07:17:52.676Z</time></trkpt><trkpt lat="42.3555974" lon="14.0634493"><ele>92.0</ele><time>2026-05-02T07:17:53.676Z</time></trkpt><trkpt lat="42.3555529" lon="14.0632651"><ele>89.66666666666667</ele><time>2026-05-02T07:17:54.677Z</time></trkpt><trkpt lat="42.3555091" lon="14.0630684"><ele>87.33333333333333</ele><time>2026-05-02T07:17:55.68Z</time></trkpt><trkpt lat="42.3554386" lon="14.0628776"><ele>85.0</ele><time>2026-05-02T07:17:56.679Z</time></trkpt><trkpt lat="42.3553446" lon="14.0626862"><ele>85.0</ele><time>2026-05-02T07:17:57.674Z</time></trkpt><trkpt lat="42.3552377" lon="14.0625122"><ele>85.0</ele><time>2026-05-02T07:17:58.679Z</time></trkpt><trkpt lat="42.3551282" lon="14.0623531"><ele>85.0</ele><time>2026-05-02T07:17:59.676Z</time></trkpt><trkpt lat="42.3550153" lon="14.0621897"><ele>85.66666666666666</ele><time>2026-05-02T07:18:00.671Z</time></trkpt><trkpt lat="42.3549087" lon="14.0620239"><ele>86.33333333333333</ele><time>2026-05-02T07:18:01.679Z</time></trkpt><trkpt lat="42.3548039" lon="14.0618709"><ele>87.0</ele><time>2026-05-02T07:18:02.677Z</time></trkpt><trkpt lat="42.3546913" lon="14.061699"><ele>89.33333333333333</ele><time>2026-05-02T07:18:03.659Z</time></trkpt><trkpt lat="42.35459" lon="14.0615157"><ele>91.66666666666666</ele><time>2026-05-02T07:18:04.68Z</time></trkpt><trkpt lat="42.3544852" lon="14.0613259"><ele>94.0</ele><time>2026-05-02T07:18:05.68Z</time></trkpt><trkpt lat="42.3543828" lon="14.0611385"><ele>94.0</ele><time>2026-05-02T07:18:06.67Z</time></trkpt><trkpt lat="42.3542751" lon="14.0609486"><ele>94.0</ele><time>2026-05-02T07:18:07.683Z</time></trkpt><trkpt lat="42.3541612" lon="14.0607631"><ele>94.0</ele><time>2026-05-02T07:18:08.684Z</time></trkpt><trkpt lat="42.3540481" lon="14.0605805"><ele>93.33333333333333</ele><time>2026-05-02T07:18:09.684Z</time></trkpt><trkpt lat="42.3539387" lon="14.0604043"><ele>92.66666666666667</ele><time>2026-05-02T07:18:10.685Z</time></trkpt><trkpt lat="42.3538359" lon="14.0602275"><ele>92.0</ele><time>2026-05-02T07:18:11.681Z</time></trkpt><trkpt lat="42.3537424" lon="14.0600635"><ele>92.5</ele><time>2026-05-02T07:18:12.676Z</time></trkpt><trkpt lat="42.3536478" lon="14.0599045"><ele>93.0</ele><time>2026-05-02T07:18:13.662Z</time></trkpt><trkpt lat="42.3535627" lon="14.059745"><ele>93.5</ele><time>2026-05-02T07:18:14.672Z</time></trkpt><trkpt lat="42.3535025" lon="14.05957"><ele>94.0</ele><time>2026-05-02T07:18:15.674Z</time></trkpt><trkpt lat="42.3534651" lon="14.0593922"><ele>94.0</ele><time>2026-05-02T07:18:16.682Z</time></trkpt><trkpt lat="42.3534374" lon="14.0592057"><ele>94.0</ele><time>2026-05-02T07:18:17.68Z</time></trkpt><trkpt lat="42.3534166" lon="14.0590176"><ele>94.0</ele><time>2026-05-02T07:18:18.681Z</time></trkpt><trkpt lat="42.3533984" lon="14.0588309"><ele>94.0</ele><time>2026-05-02T07:18:19.666Z</time></trkpt><trkpt lat="42.3533769" lon="14.0586323"><ele>93.66666666666666</ele><time>2026-05-02T07:18:20.693Z</time></trkpt><trkpt lat="42.3533564" lon="14.0584301"><ele>93.33333333333333</ele><time>2026-05-02T07:18:21.677Z</time></trkpt><trkpt lat="42.3533401" lon="14.0582142"><ele>93.0</ele><time>2026-05-02T07:18:22.682Z</time></trkpt><trkpt lat="42.3533249" lon="14.0579824"><ele>92.66666666666667</ele><time>2026-05-02T07:18:23.674Z</time></trkpt><trkpt lat="42.3533075" lon="14.0577492"><ele>92.33333333333334</ele><time>2026-05-02T07:18:24.675Z</time></trkpt><trkpt lat="42.3532919" lon="14.0575204"><ele>92.0</ele><time>2026-05-02T07:18:25.679Z</time></trkpt><trkpt lat="42.3532702" lon="14.0572989"><ele>91.5</ele><time>2026-05-02T07:18:26.677Z</time></trkpt><trkpt lat="42.3532497" lon="14.0570926"><ele>91.0</ele><time>2026-05-02T07:18:27.684Z</time></trkpt><trkpt lat="42.3532269" lon="14.0568975"><ele>90.5</ele><time>2026-05-02T07:18:28.673Z</time></trkpt><trkpt lat="42.353207" lon="14.0567115"><ele>90.0</ele><time>2026-05-02T07:18:29.679Z</time></trkpt><trkpt lat="42.3531814" lon="14.0565333"><ele>89.75</ele><time>2026-05-02T07:18:30.678Z</time></trkpt><trkpt lat="42.3531618" lon="14.0563541"><ele>89.5</ele><time>2026-05-02T07:18:31.676Z</time></trkpt><trkpt lat="42.3531402" lon="14.0561729"><ele>89.25</ele><time>2026-05-02T07:18:32.684Z</time></trkpt><trkpt lat="42.3531212" lon="14.0559889"><ele>89.0</ele><time>2026-05-02T07:18:33.667Z</time></trkpt><trkpt lat="42.3530998" lon="14.0558025"><ele>89.5</ele><time>2026-05-02T07:18:34.673Z</time></trkpt><trkpt lat="42.3530784" lon="14.0556009"><ele>90.0</ele><time>2026-05-02T07:18:35.667Z</time></trkpt><trkpt lat="42.353057" lon="14.0554043"><ele>90.5</ele><time>2026-05-02T07:18:36.682Z</time></trkpt><trkpt lat="42.3530379" lon="14.0552051"><ele>91.0</ele><time>2026-05-02T07:18:37.686Z</time></trkpt><trkpt lat="42.3530259" lon="14.0549984"><ele>91.25</ele><time>2026-05-02T07:18:38.683Z</time></trkpt><trkpt lat="42.353026" lon="14.0547978"><ele>91.5</ele><time>2026-05-02T07:18:39.695Z</time></trkpt><trkpt lat="42.3530461" lon="14.0545996"><ele>91.75</ele><time>2026-05-02T07:18:40.675Z</time></trkpt><trkpt lat="42.3530715" lon="14.0544117"><ele>92.0</ele><time>2026-05-02T07:18:41.672Z</time></trkpt><trkpt lat="42.3531056" lon="14.0542176"><ele>94.5</ele><time>2026-05-02T07:18:42.67Z</time></trkpt><trkpt lat="42.3531403" lon="14.0540144"><ele>97.0</ele><time>2026-05-02T07:18:43.668Z</time></trkpt><trkpt lat="42.3531722" lon="14.0538139"><ele>99.5</ele><time>2026-05-02T07:18:44.673Z</time></trkpt><trkpt lat="42.3531889" lon="14.0536287"><ele>102.0</ele><time>2026-05-02T07:18:45.672Z</time></trkpt><trkpt lat="42.3531807" lon="14.0534495"><ele>102.0</ele><time>2026-05-02T07:18:46.676Z</time></trkpt><trkpt lat="42.3531301" lon="14.0532864"><ele>102.0</ele><time>2026-05-02T07:18:47.674Z</time></trkpt><trkpt lat="42.3530637" lon="14.0531335"><ele>102.0</ele><time>2026-05-02T07:18:48.666Z</time></trkpt><trkpt lat="42.3529842" lon="14.0529892"><ele>102.0</ele><time>2026-05-02T07:18:49.681Z</time></trkpt><trkpt lat="42.3529229" lon="14.0528447"><ele>102.0</ele><time>2026-05-02T07:18:50.683Z</time></trkpt><trkpt lat="42.3528869" lon="14.0526766"><ele>102.0</ele><time>2026-05-02T07:18:51.674Z</time></trkpt><trkpt lat="42.3528739" lon="14.0524913"><ele>102.0</ele><time>2026-05-02T07:18:52.667Z</time></trkpt><trkpt lat="42.3528777" lon="14.0522947"><ele>102.0</ele><time>2026-05-02T07:18:53.67Z</time></trkpt><trkpt lat="42.3529013" lon="14.0520951"><ele>103.66666666666666</ele><time>2026-05-02T07:18:54.68Z</time></trkpt><trkpt lat="42.3529624" lon="14.0518801"><ele>105.33333333333333</ele><time>2026-05-02T07:18:55.679Z</time></trkpt><trkpt lat="42.3530228" lon="14.0516652"><ele>107.0</ele><time>2026-05-02T07:18:56.679Z</time></trkpt><trkpt lat="42.3530704" lon="14.0514228"><ele>108.33333333333333</ele><time>2026-05-02T07:18:57.677Z</time></trkpt><trkpt lat="42.3530947" lon="14.0511678"><ele>109.66666666666666</ele><time>2026-05-02T07:18:58.685Z</time></trkpt><trkpt lat="42.3531218" lon="14.0508884"><ele>111.0</ele><time>2026-05-02T07:18:59.684Z</time></trkpt><trkpt lat="42.353165" lon="14.0506152"><ele>111.66666666666666</ele><time>2026-05-02T07:19:00.68Z</time></trkpt><trkpt lat="42.3532134" lon="14.0503422"><ele>112.33333333333333</ele><time>2026-05-02T07:19:01.677Z</time></trkpt><trkpt lat="42.3532511" lon="14.0500839"><ele>113.0</ele><time>2026-05-02T07:19:02.664Z</time></trkpt><trkpt lat="42.3532606" lon="14.0498691"><ele>114.66666666666666</ele><time>2026-05-02T07:19:03.665Z</time></trkpt><trkpt lat="42.353221" lon="14.0496585"><ele>116.33333333333334</ele><time>2026-05-02T07:19:04.672Z</time></trkpt><trkpt lat="42.353179" lon="14.0494491"><ele>118.0</ele><time>2026-05-02T07:19:05.678Z</time></trkpt><trkpt lat="42.3531398" lon="14.0492332"><ele>118.33333333333334</ele><time>2026-05-02T07:19:06.667Z</time></trkpt><trkpt lat="42.3531237" lon="14.049015"><ele>118.66666666666666</ele><time>2026-05-02T07:19:07.669Z</time></trkpt><trkpt lat="42.3531301" lon="14.0488027"><ele>119.0</ele><time>2026-05-02T07:19:08.685Z</time></trkpt><trkpt lat="42.3531371" lon="14.0485786"><ele>119.0</ele><time>2026-05-02T07:19:09.676Z</time></trkpt><trkpt lat="42.3530939" lon="14.0484049"><ele>119.0</ele><time>2026-05-02T07:19:10.667Z</time></trkpt><trkpt lat="42.3530376" lon="14.0482348"><ele>119.0</ele><time>2026-05-02T07:19:11.675Z</time></trkpt><trkpt lat="42.3529979" lon="14.048068"><ele>119.0</ele><time>2026-05-02T07:19:12.677Z</time></trkpt><trkpt lat="42.3529791" lon="14.047902"><ele>119.0</ele><time>2026-05-02T07:19:13.67Z</time></trkpt><trkpt lat="42.3529889" lon="14.0477461"><ele>119.0</ele><time>2026-05-02T07:19:14.669Z</time></trkpt><trkpt lat="42.3530375" lon="14.0476034"><ele>119.0</ele><time>2026-05-02T07:19:15.671Z</time></trkpt><trkpt lat="42.3531148" lon="14.0474716"><ele>119.0</ele><time>2026-05-02T07:19:16.667Z</time></trkpt><trkpt lat="42.3531901" lon="14.0473298"><ele>119.0</ele><time>2026-05-02T07:19:17.694Z</time></trkpt><trkpt lat="42.3532785" lon="14.0471706"><ele>119.0</ele><time>2026-05-02T07:19:18.673Z</time></trkpt><trkpt lat="42.3533582" lon="14.0469784"><ele>119.0</ele><time>2026-05-02T07:19:19.684Z</time></trkpt><trkpt lat="42.3534364" lon="14.0467403"><ele>118.0</ele><time>2026-05-02T07:19:20.669Z</time></trkpt><trkpt lat="42.3535061" lon="14.0464951"><ele>117.0</ele><time>2026-05-02T07:19:21.689Z</time></trkpt><trkpt lat="42.3535589" lon="14.0462423"><ele>116.0</ele><time>2026-05-02T07:19:22.684Z</time></trkpt><trkpt lat="42.3535963" lon="14.0459908"><ele>117.33333333333333</ele><time>2026-05-02T07:19:23.674Z</time></trkpt><trkpt lat="42.353628" lon="14.0457576"><ele>118.66666666666666</ele><time>2026-05-02T07:19:24.676Z</time></trkpt><trkpt lat="42.3536472" lon="14.0455434"><ele>120.0</ele><time>2026-05-02T07:19:25.672Z</time></trkpt><trkpt lat="42.3536601" lon="14.0453355"><ele>120.0</ele><time>2026-05-02T07:19:26.678Z</time></trkpt><trkpt lat="42.3536587" lon="14.0451169"><ele>120.0</ele><time>2026-05-02T07:19:27.677Z</time></trkpt><trkpt lat="42.3536478" lon="14.0448995"><ele>120.0</ele><time>2026-05-02T07:19:28.678Z</time></trkpt><trkpt lat="42.3536377" lon="14.0446847"><ele>121.66666666666666</ele><time>2026-05-02T07:19:29.679Z</time></trkpt><trkpt lat="42.3536332" lon="14.044468"><ele>123.33333333333333</ele><time>2026-05-02T07:19:30.682Z</time></trkpt><trkpt lat="42.3536337" lon="14.0442686"><ele>125.0</ele><time>2026-05-02T07:19:31.675Z</time></trkpt><trkpt lat="42.3536617" lon="14.0440627"><ele>126.33333333333333</ele><time>2026-05-02T07:19:32.669Z</time></trkpt><trkpt lat="42.3537108" lon="14.043859"><ele>127.66666666666666</ele><time>2026-05-02T07:19:33.673Z</time></trkpt><trkpt lat="42.3537701" lon="14.0436445"><ele>129.0</ele><time>2026-05-02T07:19:34.676Z</time></trkpt><trkpt lat="42.353822" lon="14.0434172"><ele>130.0</ele><time>2026-05-02T07:19:35.675Z</time></trkpt><trkpt lat="42.3538744" lon="14.0431866"><ele>131.0</ele><time>2026-05-02T07:19:36.675Z</time></trkpt><trkpt lat="42.3539288" lon="14.0429459"><ele>132.0</ele><time>2026-05-02T07:19:37.687Z</time></trkpt><trkpt lat="42.3539792" lon="14.0427064"><ele>132.0</ele><time>2026-05-02T07:19:38.677Z</time></trkpt><trkpt lat="42.3540185" lon="14.0424838"><ele>132.0</ele><time>2026-05-02T07:19:39.676Z</time></trkpt><trkpt lat="42.3540466" lon="14.0422845"><ele>132.0</ele><time>2026-05-02T07:19:40.676Z</time></trkpt><trkpt lat="42.354073" lon="14.0420937"><ele>132.0</ele><time>2026-05-02T07:19:41.667Z</time></trkpt><trkpt lat="42.354107" lon="14.0418981"><ele>132.0</ele><time>2026-05-02T07:19:42.673Z</time></trkpt><trkpt lat="42.3541387" lon="14.0416947"><ele>132.0</ele><time>2026-05-02T07:19:43.672Z</time></trkpt><trkpt lat="42.3541678" lon="14.04147"><ele>133.0</ele><time>2026-05-02T07:19:44.682Z</time></trkpt><trkpt lat="42.3542114" lon="14.0412505"><ele>134.0</ele><time>2026-05-02T07:19:45.668Z</time></trkpt><trkpt lat="42.3542517" lon="14.0410236"><ele>135.0</ele><time>2026-05-02T07:19:46.675Z</time></trkpt><trkpt lat="42.3542931" lon="14.0407895"><ele>136.66666666666666</ele><time>2026-05-02T07:19:47.677Z</time></trkpt><trkpt lat="42.3543327" lon="14.0405607"><ele>138.33333333333331</ele><time>2026-05-02T07:19:48.67Z</time></trkpt><trkpt lat="42.3543742" lon="14.040331"><ele>140.0</ele><time>2026-05-02T07:19:49.66Z</time></trkpt><trkpt lat="42.3544164" lon="14.0401044"><ele>140.33333333333331</ele><time>2026-05-02T07:19:50.675Z</time></trkpt><trkpt lat="42.354459" lon="14.0398862"><ele>140.66666666666666</ele><time>2026-05-02T07:19:51.671Z</time></trkpt><trkpt lat="42.3544943" lon="14.0396593"><ele>141.0</ele><time>2026-05-02T07:19:52.689Z</time></trkpt><trkpt lat="42.3545292" lon="14.0394436"><ele>141.0</ele><time>2026-05-02T07:19:53.669Z</time></trkpt><trkpt lat="42.3545601" lon="14.0392376"><ele>141.0</ele><time>2026-05-02T07:19:54.667Z</time></trkpt><trkpt lat="42.354594" lon="14.0390428"><ele>141.0</ele><time>2026-05-02T07:19:55.674Z</time></trkpt><trkpt lat="42.3546252" lon="14.0388606"><ele>141.0</ele><time>2026-05-02T07:19:56.671Z</time></trkpt><trkpt lat="42.3546489" lon="14.0386753"><ele>140.25</ele><time>2026-05-02T07:19:57.667Z</time></trkpt><trkpt lat="42.3546754" lon="14.038491"><ele>139.5</ele><time>2026-05-02T07:19:58.687Z</time></trkpt><trkpt lat="42.3547083" lon="14.0382983"><ele>138.75</ele><time>2026-05-02T07:19:59.675Z</time></trkpt><trkpt lat="42.3547367" lon="14.0381091"><ele>138.0</ele><time>2026-05-02T07:20:00.667Z</time></trkpt><trkpt lat="42.3547634" lon="14.0379135"><ele>136.33333333333334</ele><time>2026-05-02T07:20:01.671Z</time></trkpt><trkpt lat="42.3547959" lon="14.0377109"><ele>134.66666666666669</ele><time>2026-05-02T07:20:02.667Z</time></trkpt><trkpt lat="42.3548261" lon="14.0374989"><ele>133.0</ele><time>2026-05-02T07:20:03.668Z</time></trkpt><trkpt lat="42.3548527" lon="14.0372916"><ele>133.0</ele><time>2026-05-02T07:20:04.662Z</time></trkpt><trkpt lat="42.3548791" lon="14.0370883"><ele>133.0</ele><time>2026-05-02T07:20:05.669Z</time></trkpt><trkpt lat="42.3548934" lon="14.0368748"><ele>133.0</ele><time>2026-05-02T07:20:06.684Z</time></trkpt><trkpt lat="42.3548985" lon="14.0366542"><ele>133.33333333333334</ele><time>2026-05-02T07:20:07.679Z</time></trkpt><trkpt lat="42.3548962" lon="14.0364213"><ele>133.66666666666666</ele><time>2026-05-02T07:20:08.673Z</time></trkpt><trkpt lat="42.3548932" lon="14.0361812"><ele>134.0</ele><time>2026-05-02T07:20:09.685Z</time></trkpt><trkpt lat="42.3548947" lon="14.035939"><ele>135.0</ele><time>2026-05-02T07:20:10.666Z</time></trkpt><trkpt lat="42.3548927" lon="14.0356949"><ele>136.0</ele><time>2026-05-02T07:20:11.681Z</time></trkpt><trkpt lat="42.3548896" lon="14.0354489"><ele>137.0</ele><time>2026-05-02T07:20:12.687Z</time></trkpt><trkpt lat="42.3548873" lon="14.035206"><ele>137.0</ele><time>2026-05-02T07:20:13.672Z</time></trkpt><trkpt lat="42.354883" lon="14.0349734"><ele>137.0</ele><time>2026-05-02T07:20:14.68Z</time></trkpt><trkpt lat="42.3548739" lon="14.0347458"><ele>137.0</ele><time>2026-05-02T07:20:15.683Z</time></trkpt><trkpt lat="42.3548664" lon="14.0345264"><ele>137.33333333333331</ele><time>2026-05-02T07:20:16.698Z</time></trkpt><trkpt lat="42.3548609" lon="14.034317"><ele>137.66666666666666</ele><time>2026-05-02T07:20:17.671Z</time></trkpt><trkpt lat="42.3548654" lon="14.0341046"><ele>138.0</ele><time>2026-05-02T07:20:18.668Z</time></trkpt><trkpt lat="42.3548701" lon="14.033889"><ele>138.0</ele><time>2026-05-02T07:20:19.672Z</time></trkpt><trkpt lat="42.3548668" lon="14.0336683"><ele>138.0</ele><time>2026-05-02T07:20:20.679Z</time></trkpt><trkpt lat="42.3548697" lon="14.0334491"><ele>138.0</ele><time>2026-05-02T07:20:21.678Z</time></trkpt><trkpt lat="42.3548619" lon="14.0332225"><ele>138.33333333333334</ele><time>2026-05-02T07:20:22.687Z</time></trkpt><trkpt lat="42.3548598" lon="14.0329959"><ele>138.66666666666669</ele><time>2026-05-02T07:20:23.673Z</time></trkpt><trkpt lat="42.354855" lon="14.0327643"><ele>139.0</ele><time>2026-05-02T07:20:24.674Z</time></trkpt><trkpt lat="42.3548525" lon="14.0325407"><ele>139.0</ele><time>2026-05-02T07:20:25.683Z</time></trkpt><trkpt lat="42.3548593" lon="14.0323279"><ele>139.0</ele><time>2026-05-02T07:20:26.663Z</time></trkpt><trkpt lat="42.354859" lon="14.0321219"><ele>139.0</ele><time>2026-05-02T07:20:27.679Z</time></trkpt><trkpt lat="42.3548528" lon="14.0319178"><ele>139.0</ele><time>2026-05-02T07:20:28.679Z</time></trkpt><trkpt lat="42.3548496" lon="14.0317176"><ele>139.0</ele><time>2026-05-02T07:20:29.676Z</time></trkpt><trkpt lat="42.3548473" lon="14.031503"><ele>139.0</ele><time>2026-05-02T07:20:30.694Z</time></trkpt><trkpt lat="42.3548455" lon="14.0312977"><ele>139.0</ele><time>2026-05-02T07:20:31.677Z</time></trkpt><trkpt lat="42.3548426" lon="14.0311017"><ele>139.0</ele><time>2026-05-02T07:20:32.672Z</time></trkpt><trkpt lat="42.3548429" lon="14.0309113"><ele>139.0</ele><time>2026-05-02T07:20:33.669Z</time></trkpt><trkpt lat="42.3548399" lon="14.0307087"><ele>139.0</ele><time>2026-05-02T07:20:34.675Z</time></trkpt><trkpt lat="42.3548374" lon="14.0304971"><ele>139.66666666666669</ele><time>2026-05-02T07:20:35.671Z</time></trkpt><trkpt lat="42.3548359" lon="14.030272"><ele>140.33333333333334</ele><time>2026-05-02T07:20:36.667Z</time></trkpt><trkpt lat="42.3548314" lon="14.030045"><ele>141.0</ele><time>2026-05-02T07:20:37.678Z</time></trkpt><trkpt lat="42.3548292" lon="14.0298129"><ele>142.0</ele><time>2026-05-02T07:20:38.686Z</time></trkpt><trkpt lat="42.3548259" lon="14.0295704"><ele>143.0</ele><time>2026-05-02T07:20:39.664Z</time></trkpt><trkpt lat="42.3548207" lon="14.0293445"><ele>144.0</ele><time>2026-05-02T07:20:40.684Z</time></trkpt><trkpt lat="42.3548164" lon="14.0291149"><ele>144.0</ele><time>2026-05-02T07:20:41.667Z</time></trkpt><trkpt lat="42.3548159" lon="14.0288793"><ele>144.0</ele><time>2026-05-02T07:20:42.667Z</time></trkpt><trkpt lat="42.3548164" lon="14.0286477"><ele>144.0</ele><time>2026-05-02T07:20:43.658Z</time></trkpt><trkpt lat="42.3548095" lon="14.0284131"><ele>144.33333333333334</ele><time>2026-05-02T07:20:44.666Z</time></trkpt><trkpt lat="42.3548074" lon="14.0281701"><ele>144.66666666666669</ele><time>2026-05-02T07:20:45.659Z</time></trkpt><trkpt lat="42.3548057" lon="14.0279337"><ele>145.0</ele><time>2026-05-02T07:20:46.662Z</time></trkpt><trkpt lat="42.3548005" lon="14.0276963"><ele>145.66666666666669</ele><time>2026-05-02T07:20:47.669Z</time></trkpt><trkpt lat="42.3547951" lon="14.0274554"><ele>146.33333333333334</ele><time>2026-05-02T07:20:48.657Z</time></trkpt><trkpt lat="42.3547892" lon="14.0272061"><ele>147.0</ele><time>2026-05-02T07:20:49.667Z</time></trkpt><trkpt lat="42.3547873" lon="14.02697"><ele>147.0</ele><time>2026-05-02T07:20:50.665Z</time></trkpt><trkpt lat="42.354784" lon="14.026736"><ele>147.0</ele><time>2026-05-02T07:20:51.674Z</time></trkpt><trkpt lat="42.354792" lon="14.0265303"><ele>147.0</ele><time>2026-05-02T07:20:52.669Z</time></trkpt><trkpt lat="42.3547908" lon="14.0263421"><ele>147.0</ele><time>2026-05-02T07:20:53.689Z</time></trkpt><trkpt lat="42.3547841" lon="14.0261735"><ele>147.0</ele><time>2026-05-02T07:20:54.663Z</time></trkpt><trkpt lat="42.3547777" lon="14.0259954"><ele>147.0</ele><time>2026-05-02T07:20:55.665Z</time></trkpt><trkpt lat="42.3547742" lon="14.0258247"><ele>147.0</ele><time>2026-05-02T07:20:56.666Z</time></trkpt><trkpt lat="42.3547815" lon="14.025649"><ele>147.5</ele><time>2026-05-02T07:20:57.667Z</time></trkpt><trkpt lat="42.3547788" lon="14.0254666"><ele>148.0</ele><time>2026-05-02T07:20:58.688Z</time></trkpt><trkpt lat="42.3547795" lon="14.0252781"><ele>148.5</ele><time>2026-05-02T07:20:59.687Z</time></trkpt><trkpt lat="42.3547772" lon="14.0251027"><ele>149.0</ele><time>2026-05-02T07:21:00.68Z</time></trkpt><trkpt lat="42.3547864" lon="14.0249347"><ele>149.2</ele><time>2026-05-02T07:21:01.684Z</time></trkpt><trkpt lat="42.3547954" lon="14.0247787"><ele>149.4</ele><time>2026-05-02T07:21:02.684Z</time></trkpt><trkpt lat="42.3548038" lon="14.0246361"><ele>149.6</ele><time>2026-05-02T07:21:03.674Z</time></trkpt><trkpt lat="42.3548179" lon="14.0244988"><ele>149.8</ele><time>2026-05-02T07:21:04.68Z</time></trkpt><trkpt lat="42.3548367" lon="14.0243575"><ele>150.0</ele><time>2026-05-02T07:21:05.674Z</time></trkpt><trkpt lat="42.3548475" lon="14.0242144"><ele>150.4</ele><time>2026-05-02T07:21:06.679Z</time></trkpt><trkpt lat="42.3548542" lon="14.024082"><ele>150.8</ele><time>2026-05-02T07:21:07.672Z</time></trkpt><trkpt lat="42.3548557" lon="14.0239625"><ele>151.2</ele><time>2026-05-02T07:21:08.671Z</time></trkpt><trkpt lat="42.3548627" lon="14.0238541"><ele>151.6</ele><time>2026-05-02T07:21:09.678Z</time></trkpt><trkpt lat="42.3548615" lon="14.0237137"><ele>152.0</ele><time>2026-05-02T07:21:11.677Z</time></trkpt><trkpt lat="42.3547823" lon="14.0236582"><ele>152.5</ele><time>2026-05-02T07:21:13.675Z</time></trkpt><trkpt lat="42.3546972" lon="14.0236805"><ele>153.0</ele><time>2026-05-02T07:21:15.678Z</time></trkpt><trkpt lat="42.3546474" lon="14.023735"><ele>153.5</ele><time>2026-05-02T07:21:16.686Z</time></trkpt><trkpt lat="42.3545964" lon="14.0238016"><ele>154.0</ele><time>2026-05-02T07:21:17.685Z</time></trkpt><trkpt lat="42.3545499" lon="14.0238697"><ele>154.5</ele><time>2026-05-02T07:21:18.669Z</time></trkpt><trkpt lat="42.3544741" lon="14.0239817"><ele>155.0</ele><time>2026-05-02T07:21:20.676Z</time></trkpt><trkpt lat="42.3544069" lon="14.0240909"><ele>154.8</ele><time>2026-05-02T07:21:22.693Z</time></trkpt><trkpt lat="42.3543151" lon="14.0242007"><ele>154.6</ele><time>2026-05-02T07:21:24.676Z</time></trkpt><trkpt lat="42.3542456" lon="14.0242625"><ele>154.4</ele><time>2026-05-02T07:21:25.68Z</time></trkpt><trkpt lat="42.354183" lon="14.0243188"><ele>154.2</ele><time>2026-05-02T07:21:26.68Z</time></trkpt><trkpt lat="42.35407" lon="14.0243403"><ele>154.0</ele><time>2026-05-02T07:21:28.669Z</time></trkpt><trkpt lat="42.3539594" lon="14.024266"><ele>154.8</ele><time>2026-05-02T07:21:30.669Z</time></trkpt><trkpt lat="42.3538661" lon="14.0241987"><ele>155.60000000000002</ele><time>2026-05-02T07:21:31.668Z</time></trkpt><trkpt lat="42.3537702" lon="14.0241478"><ele>156.4</ele><time>2026-05-02T07:21:32.673Z</time></trkpt><trkpt lat="42.3536793" lon="14.0241121"><ele>157.20000000000002</ele><time>2026-05-02T07:21:33.668Z</time></trkpt><trkpt lat="42.3535778" lon="14.0240903"><ele>158.0</ele><time>2026-05-02T07:21:34.679Z</time></trkpt><trkpt lat="42.3534474" lon="14.0240752"><ele>158.0</ele><time>2026-05-02T07:21:35.667Z</time></trkpt><trkpt lat="42.3532909" lon="14.0240548"><ele>158.0</ele><time>2026-05-02T07:21:36.674Z</time></trkpt><trkpt lat="42.3531215" lon="14.0240299"><ele>158.0</ele><time>2026-05-02T07:21:37.682Z</time></trkpt><trkpt lat="42.3529353" lon="14.0239905"><ele>160.66666666666666</ele><time>2026-05-02T07:21:38.673Z</time></trkpt><trkpt lat="42.3527652" lon="14.0239489"><ele>163.33333333333334</ele><time>2026-05-02T07:21:39.674Z</time></trkpt><trkpt lat="42.3526012" lon="14.0239204"><ele>166.0</ele><time>2026-05-02T07:21:40.68Z</time></trkpt><trkpt lat="42.3524447" lon="14.023893"><ele>166.0</ele><time>2026-05-02T07:21:41.673Z</time></trkpt><trkpt lat="42.3523078" lon="14.0238731"><ele>166.0</ele><time>2026-05-02T07:21:42.662Z</time></trkpt><trkpt lat="42.3521853" lon="14.0238757"><ele>166.0</ele><time>2026-05-02T07:21:43.666Z</time></trkpt><trkpt lat="42.3520565" lon="14.023896"><ele>166.0</ele><time>2026-05-02T07:21:44.68Z</time></trkpt><trkpt lat="42.3519304" lon="14.0239358"><ele>167.4</ele><time>2026-05-02T07:21:45.664Z</time></trkpt><trkpt lat="42.3518007" lon="14.0239975"><ele>168.8</ele><time>2026-05-02T07:21:46.677Z</time></trkpt><trkpt lat="42.3516888" lon="14.0240515"><ele>170.20000000000002</ele><time>2026-05-02T07:21:47.671Z</time></trkpt><trkpt lat="42.3515897" lon="14.0240894"><ele>171.60000000000002</ele><time>2026-05-02T07:21:48.665Z</time></trkpt><trkpt lat="42.3515058" lon="14.0240954"><ele>173.0</ele><time>2026-05-02T07:21:49.68Z</time></trkpt><trkpt lat="42.3514366" lon="14.02407"><ele>174.60000000000002</ele><time>2026-05-02T07:21:50.678Z</time></trkpt><trkpt lat="42.3513701" lon="14.0240452"><ele>176.20000000000002</ele><time>2026-05-02T07:21:51.671Z</time></trkpt><trkpt lat="42.3512658" lon="14.0239556"><ele>177.8</ele><time>2026-05-02T07:21:53.672Z</time></trkpt><trkpt lat="42.3512165" lon="14.0237991"><ele>179.4</ele><time>2026-05-02T07:21:55.675Z</time></trkpt><trkpt lat="42.3511829" lon="14.0236932"><ele>181.0</ele><time>2026-05-02T07:21:56.675Z</time></trkpt><trkpt lat="42.3511501" lon="14.0235687"><ele>181.0</ele><time>2026-05-02T07:21:57.676Z</time></trkpt><trkpt lat="42.3511147" lon="14.0234415"><ele>181.0</ele><time>2026-05-02T07:21:58.679Z</time></trkpt><trkpt lat="42.3510608" lon="14.0233264"><ele>181.0</ele><time>2026-05-02T07:21:59.683Z</time></trkpt><trkpt lat="42.3509993" lon="14.0232326"><ele>181.0</ele><time>2026-05-02T07:22:00.676Z</time></trkpt><trkpt lat="42.3509381" lon="14.0231556"><ele>181.0</ele><time>2026-05-02T07:22:01.675Z</time></trkpt><trkpt lat="42.3508799" lon="14.0230911"><ele>181.83333333333334</ele><time>2026-05-02T07:22:02.674Z</time></trkpt><trkpt lat="42.3508308" lon="14.0230075"><ele>182.66666666666669</ele><time>2026-05-02T07:22:03.675Z</time></trkpt><trkpt lat="42.3507756" lon="14.022921"><ele>183.5</ele><time>2026-05-02T07:22:04.672Z</time></trkpt><trkpt lat="42.3507171" lon="14.0228323"><ele>184.33333333333334</ele><time>2026-05-02T07:22:05.671Z</time></trkpt><trkpt lat="42.3506578" lon="14.0227409"><ele>185.16666666666666</ele><time>2026-05-02T07:22:06.684Z</time></trkpt><trkpt lat="42.3505949" lon="14.0226635"><ele>186.0</ele><time>2026-05-02T07:22:07.672Z</time></trkpt><trkpt lat="42.3505341" lon="14.0225803"><ele>186.5</ele><time>2026-05-02T07:22:08.683Z</time></trkpt><trkpt lat="42.3504732" lon="14.0224901"><ele>187.0</ele><time>2026-05-02T07:22:09.673Z</time></trkpt><trkpt lat="42.3504018" lon="14.0223941"><ele>187.5</ele><time>2026-05-02T07:22:10.682Z</time></trkpt><trkpt lat="42.3503399" lon="14.0223165"><ele>188.0</ele><time>2026-05-02T07:22:11.685Z</time></trkpt><trkpt lat="42.3502708" lon="14.022253"><ele>188.5</ele><time>2026-05-02T07:22:12.683Z</time></trkpt><trkpt lat="42.3501988" lon="14.0222286"><ele>189.0</ele><time>2026-05-02T07:22:13.68Z</time></trkpt><trkpt lat="42.3500736" lon="14.0222837"><ele>189.0</ele><time>2026-05-02T07:22:15.669Z</time></trkpt><trkpt lat="42.3500065" lon="14.022362"><ele>189.0</ele><time>2026-05-02T07:22:16.672Z</time></trkpt><trkpt lat="42.3499288" lon="14.0224504"><ele>189.0</ele><time>2026-05-02T07:22:17.672Z</time></trkpt><trkpt lat="42.3498374" lon="14.0225428"><ele>189.0</ele><time>2026-05-02T07:22:18.664Z</time></trkpt><trkpt lat="42.349737" lon="14.0226366"><ele>189.0</ele><time>2026-05-02T07:22:19.673Z</time></trkpt><trkpt lat="42.3496284" lon="14.0227358"><ele>189.25</ele><time>2026-05-02T07:22:20.681Z</time></trkpt><trkpt lat="42.349517" lon="14.0228367"><ele>189.5</ele><time>2026-05-02T07:22:21.673Z</time></trkpt><trkpt lat="42.3494072" lon="14.0229367"><ele>189.75</ele><time>2026-05-02T07:22:22.676Z</time></trkpt><trkpt lat="42.3492996" lon="14.0230364"><ele>190.0</ele><time>2026-05-02T07:22:23.67Z</time></trkpt><trkpt lat="42.3492029" lon="14.0231334"><ele>190.0</ele><time>2026-05-02T07:22:24.689Z</time></trkpt><trkpt lat="42.3491211" lon="14.0232165"><ele>190.0</ele><time>2026-05-02T07:22:25.669Z</time></trkpt><trkpt lat="42.3490488" lon="14.0232793"><ele>190.0</ele><time>2026-05-02T07:22:26.678Z</time></trkpt><trkpt lat="42.3489491" lon="14.0233425"><ele>190.0</ele><time>2026-05-02T07:22:28.683Z</time></trkpt><trkpt lat="42.3488464" lon="14.0232962"><ele>190.0</ele><time>2026-05-02T07:22:30.667Z</time></trkpt><trkpt lat="42.348789" lon="14.023223"><ele>191.0</ele><time>2026-05-02T07:22:31.679Z</time></trkpt><trkpt lat="42.3487407" lon="14.0231363"><ele>192.0</ele><time>2026-05-02T07:22:32.671Z</time></trkpt><trkpt lat="42.3486992" lon="14.0230417"><ele>193.0</ele><time>2026-05-02T07:22:33.674Z</time></trkpt><trkpt lat="42.3486531" lon="14.0229395"><ele>194.0</ele><time>2026-05-02T07:22:34.684Z</time></trkpt><trkpt lat="42.3485996" lon="14.0228211"><ele>195.0</ele><time>2026-05-02T07:22:35.677Z</time></trkpt><trkpt lat="42.3485421" lon="14.022688"><ele>195.0</ele><time>2026-05-02T07:22:36.682Z</time></trkpt><trkpt lat="42.3484811" lon="14.022556"><ele>195.0</ele><time>2026-05-02T07:22:37.679Z</time></trkpt><trkpt lat="42.3484129" lon="14.0224238"><ele>195.0</ele><time>2026-05-02T07:22:38.672Z</time></trkpt><trkpt lat="42.3483333" lon="14.0222982"><ele>195.0</ele><time>2026-05-02T07:22:39.673Z</time></trkpt><trkpt lat="42.3482376" lon="14.0221682"><ele>195.0</ele><time>2026-05-02T07:22:40.674Z</time></trkpt><trkpt lat="42.3481393" lon="14.0220311"><ele>195.0</ele><time>2026-05-02T07:22:41.677Z</time></trkpt><trkpt lat="42.3480406" lon="14.0218946"><ele>195.0</ele><time>2026-05-02T07:22:42.675Z</time></trkpt><trkpt lat="42.3479411" lon="14.0217636"><ele>195.0</ele><time>2026-05-02T07:22:43.668Z</time></trkpt><trkpt lat="42.3478463" lon="14.0216356"><ele>195.25</ele><time>2026-05-02T07:22:44.675Z</time></trkpt><trkpt lat="42.3477553" lon="14.0215078"><ele>195.5</ele><time>2026-05-02T07:22:45.671Z</time></trkpt><trkpt lat="42.3476676" lon="14.0213802"><ele>195.75</ele><time>2026-05-02T07:22:46.671Z</time></trkpt><trkpt lat="42.3475762" lon="14.0212528"><ele>196.0</ele><time>2026-05-02T07:22:47.679Z</time></trkpt><trkpt lat="42.3474815" lon="14.0211248"><ele>196.0</ele><time>2026-05-02T07:22:48.67Z</time></trkpt><trkpt lat="42.3473884" lon="14.0209918"><ele>196.0</ele><time>2026-05-02T07:22:49.669Z</time></trkpt><trkpt lat="42.347296" lon="14.0208465"><ele>196.0</ele><time>2026-05-02T07:22:50.675Z</time></trkpt><trkpt lat="42.3472083" lon="14.0207006"><ele>196.0</ele><time>2026-05-02T07:22:51.678Z</time></trkpt><trkpt lat="42.3471269" lon="14.0205531"><ele>196.25</ele><time>2026-05-02T07:22:52.68Z</time></trkpt><trkpt lat="42.3470414" lon="14.0204038"><ele>196.5</ele><time>2026-05-02T07:22:53.68Z</time></trkpt><trkpt lat="42.3469595" lon="14.0202601"><ele>196.75</ele><time>2026-05-02T07:22:54.682Z</time></trkpt><trkpt lat="42.3468845" lon="14.0201237"><ele>197.0</ele><time>2026-05-02T07:22:55.667Z</time></trkpt><trkpt lat="42.3468052" lon="14.019983"><ele>197.0</ele><time>2026-05-02T07:22:56.678Z</time></trkpt><trkpt lat="42.3467322" lon="14.0198368"><ele>197.0</ele><time>2026-05-02T07:22:57.666Z</time></trkpt><trkpt lat="42.3466607" lon="14.0196756"><ele>197.0</ele><time>2026-05-02T07:22:58.67Z</time></trkpt><trkpt lat="42.3465929" lon="14.0195186"><ele>197.0</ele><time>2026-05-02T07:22:59.672Z</time></trkpt><trkpt lat="42.3465238" lon="14.0193568"><ele>197.0</ele><time>2026-05-02T07:23:00.672Z</time></trkpt><trkpt lat="42.3464492" lon="14.0191867"><ele>197.0</ele><time>2026-05-02T07:23:01.665Z</time></trkpt><trkpt lat="42.3463742" lon="14.0190136"><ele>197.0</ele><time>2026-05-02T07:23:02.67Z</time></trkpt><trkpt lat="42.3463017" lon="14.0188453"><ele>197.0</ele><time>2026-05-02T07:23:03.676Z</time></trkpt><trkpt lat="42.3462281" lon="14.0186855"><ele>197.8</ele><time>2026-05-02T07:23:04.669Z</time></trkpt><trkpt lat="42.3461573" lon="14.0185439"><ele>198.6</ele><time>2026-05-02T07:23:05.677Z</time></trkpt><trkpt lat="42.3460955" lon="14.0184181"><ele>199.4</ele><time>2026-05-02T07:23:06.663Z</time></trkpt><trkpt lat="42.3460404" lon="14.0183034"><ele>200.20000000000002</ele><time>2026-05-02T07:23:07.663Z</time></trkpt><trkpt lat="42.3459892" lon="14.0181969"><ele>201.0</ele><time>2026-05-02T07:23:08.679Z</time></trkpt><trkpt lat="42.3459421" lon="14.0180973"><ele>201.5</ele><time>2026-05-02T07:23:09.67Z</time></trkpt><trkpt lat="42.3458871" lon="14.0179914"><ele>202.0</ele><time>2026-05-02T07:23:10.671Z</time></trkpt><trkpt lat="42.3458291" lon="14.0178747"><ele>202.5</ele><time>2026-05-02T07:23:11.67Z</time></trkpt><trkpt lat="42.3457624" lon="14.01774"><ele>203.0</ele><time>2026-05-02T07:23:12.672Z</time></trkpt><trkpt lat="42.3456887" lon="14.0175893"><ele>203.5</ele><time>2026-05-02T07:23:13.674Z</time></trkpt><trkpt lat="42.3456111" lon="14.0174363"><ele>204.0</ele><time>2026-05-02T07:23:14.664Z</time></trkpt><trkpt lat="42.3455322" lon="14.0172964"><ele>204.5</ele><time>2026-05-02T07:23:15.68Z</time></trkpt><trkpt lat="42.3454527" lon="14.0171639"><ele>205.0</ele><time>2026-05-02T07:23:16.667Z</time></trkpt><trkpt lat="42.3453695" lon="14.0170354"><ele>205.0</ele><time>2026-05-02T07:23:17.675Z</time></trkpt><trkpt lat="42.3452895" lon="14.0168952"><ele>205.0</ele><time>2026-05-02T07:23:18.67Z</time></trkpt><trkpt lat="42.3452239" lon="14.0167615"><ele>205.0</ele><time>2026-05-02T07:23:19.662Z</time></trkpt><trkpt lat="42.3451612" lon="14.0166318"><ele>205.0</ele><time>2026-05-02T07:23:20.672Z</time></trkpt><trkpt lat="42.3451194" lon="14.016522"><ele>205.33333333333331</ele><time>2026-05-02T07:23:21.666Z</time></trkpt><trkpt lat="42.345079" lon="14.0164117"><ele>205.66666666666666</ele><time>2026-05-02T07:23:22.676Z</time></trkpt><trkpt lat="42.345049" lon="14.0163152"><ele>206.0</ele><time>2026-05-02T07:23:23.674Z</time></trkpt><trkpt lat="42.3450223" lon="14.0162361"><ele>206.33333333333331</ele><time>2026-05-02T07:23:24.683Z</time></trkpt><trkpt lat="42.3449338" lon="14.0161547"><ele>206.66666666666666</ele><time>2026-05-02T07:23:26.662Z</time></trkpt><trkpt lat="42.3448619" lon="14.0161756"><ele>207.0</ele><time>2026-05-02T07:23:27.668Z</time></trkpt><trkpt lat="42.3447696" lon="14.0161943"><ele>207.0</ele><time>2026-05-02T07:23:28.662Z</time></trkpt><trkpt lat="42.344654" lon="14.0162253"><ele>207.0</ele><time>2026-05-02T07:23:29.66Z</time></trkpt><trkpt lat="42.3445319" lon="14.0162521"><ele>207.0</ele><time>2026-05-02T07:23:30.672Z</time></trkpt><trkpt lat="42.3444245" lon="14.0162787"><ele>207.0</ele><time>2026-05-02T07:23:31.676Z</time></trkpt><trkpt lat="42.3443285" lon="14.016292"><ele>207.0</ele><time>2026-05-02T07:23:32.661Z</time></trkpt><trkpt lat="42.3442464" lon="14.0163112"><ele>207.0</ele><time>2026-05-02T07:23:33.671Z</time></trkpt><trkpt lat="42.3441599" lon="14.0163285"><ele>207.0</ele><time>2026-05-02T07:23:34.673Z</time></trkpt><trkpt lat="42.3440754" lon="14.01635"><ele>207.0</ele><time>2026-05-02T07:23:35.661Z</time></trkpt><trkpt lat="42.3439904" lon="14.0163639"><ele>207.0</ele><time>2026-05-02T07:23:36.669Z</time></trkpt><trkpt lat="42.3439152" lon="14.0163766"><ele>207.0</ele><time>2026-05-02T07:23:37.664Z</time></trkpt><trkpt lat="42.3438325" lon="14.0163597"><ele>207.0</ele><time>2026-05-02T07:23:38.674Z</time></trkpt><trkpt lat="42.3437445" lon="14.0163464"><ele>206.39999999999998</ele><time>2026-05-02T07:23:39.656Z</time></trkpt><trkpt lat="42.3436531" lon="14.0163305"><ele>205.79999999999998</ele><time>2026-05-02T07:23:40.668Z</time></trkpt><trkpt lat="42.343587" lon="14.0163197"><ele>205.2</ele><time>2026-05-02T07:23:41.663Z</time></trkpt><trkpt lat="42.3434798" lon="14.0162813"><ele>204.6</ele><time>2026-05-02T07:23:43.672Z</time></trkpt><trkpt lat="42.3433868" lon="14.0162542"><ele>204.0</ele><time>2026-05-02T07:23:45.673Z</time></trkpt><trkpt lat="42.3433008" lon="14.0162218"><ele>204.0</ele><time>2026-05-02T07:23:47.671Z</time></trkpt><trkpt lat="42.3431989" lon="14.0161922"><ele>204.0</ele><time>2026-05-02T07:23:49.673Z</time></trkpt><trkpt lat="42.3430614" lon="14.016155"><ele>204.0</ele><time>2026-05-02T07:23:51.669Z</time></trkpt><trkpt lat="42.3429804" lon="14.0161282"><ele>204.0</ele><time>2026-05-02T07:23:52.669Z</time></trkpt><trkpt lat="42.3429038" lon="14.0161"><ele>204.0</ele><time>2026-05-02T07:23:53.679Z</time></trkpt><trkpt lat="42.3428276" lon="14.0160908"><ele>201.79999999999998</ele><time>2026-05-02T07:23:54.682Z</time></trkpt><trkpt lat="42.3427624" lon="14.016128"><ele>199.6</ele><time>2026-05-02T07:23:55.67Z</time></trkpt><trkpt lat="42.3426988" lon="14.0162285"><ele>197.4</ele><time>2026-05-02T07:23:56.68Z</time></trkpt><trkpt lat="42.3426352" lon="14.0163723"><ele>195.2</ele><time>2026-05-02T07:23:57.666Z</time></trkpt><trkpt lat="42.3425917" lon="14.0165168"><ele>193.0</ele><time>2026-05-02T07:23:58.695Z</time></trkpt><trkpt lat="42.3425583" lon="14.01663"><ele>192.66666666666666</ele><time>2026-05-02T07:23:59.678Z</time></trkpt><trkpt lat="42.3425383" lon="14.0167301"><ele>192.33333333333331</ele><time>2026-05-02T07:24:00.679Z</time></trkpt><trkpt lat="42.3425074" lon="14.0168737"><ele>192.0</ele><time>2026-05-02T07:24:02.668Z</time></trkpt><trkpt lat="42.3424805" lon="14.0169798"><ele>191.66666666666666</ele><time>2026-05-02T07:24:04.664Z</time></trkpt><trkpt lat="42.3424302" lon="14.0170485"><ele>191.33333333333331</ele><time>2026-05-02T07:24:06.676Z</time></trkpt><trkpt lat="42.3423438" lon="14.0170536"><ele>191.0</ele><time>2026-05-02T07:24:08.674Z</time></trkpt><trkpt lat="42.3422805" lon="14.0170537"><ele>189.16666666666666</ele><time>2026-05-02T07:24:09.658Z</time></trkpt><trkpt lat="42.3421553" lon="14.0169889"><ele>187.33333333333331</ele><time>2026-05-02T07:24:11.666Z</time></trkpt><trkpt lat="42.3420981" lon="14.0169483"><ele>185.5</ele><time>2026-05-02T07:24:12.672Z</time></trkpt><trkpt lat="42.3420433" lon="14.0168995"><ele>183.66666666666666</ele><time>2026-05-02T07:24:13.666Z</time></trkpt><trkpt lat="42.3419583" lon="14.0168232"><ele>181.83333333333334</ele><time>2026-05-02T07:24:15.676Z</time></trkpt><trkpt lat="42.3418888" lon="14.0167679"><ele>180.0</ele><time>2026-05-02T07:24:17.667Z</time></trkpt><trkpt lat="42.3418195" lon="14.0167149"><ele>179.6</ele><time>2026-05-02T07:24:19.676Z</time></trkpt><trkpt lat="42.3417183" lon="14.0166492"><ele>179.2</ele><time>2026-05-02T07:24:21.672Z</time></trkpt><trkpt lat="42.3416081" lon="14.016561"><ele>178.8</ele><time>2026-05-02T07:24:23.673Z</time></trkpt><trkpt lat="42.3415426" lon="14.016503"><ele>178.4</ele><time>2026-05-02T07:24:24.687Z</time></trkpt><trkpt lat="42.3414707" lon="14.0164569"><ele>178.0</ele><time>2026-05-02T07:24:25.678Z</time></trkpt><trkpt lat="42.3413933" lon="14.0164002"><ele>177.4</ele><time>2026-05-02T07:24:26.666Z</time></trkpt><trkpt lat="42.3413113" lon="14.0163411"><ele>176.8</ele><time>2026-05-02T07:24:27.661Z</time></trkpt><trkpt lat="42.3412308" lon="14.016283"><ele>176.2</ele><time>2026-05-02T07:24:28.665Z</time></trkpt><trkpt lat="42.3411526" lon="14.0162183"><ele>175.6</ele><time>2026-05-02T07:24:29.678Z</time></trkpt><trkpt lat="42.3410708" lon="14.0161531"><ele>175.0</ele><time>2026-05-02T07:24:30.669Z</time></trkpt><trkpt lat="42.3409991" lon="14.0160797"><ele>175.0</ele><time>2026-05-02T07:24:31.668Z</time></trkpt><trkpt lat="42.3409387" lon="14.0159897"><ele>175.0</ele><time>2026-05-02T07:24:32.662Z</time></trkpt><trkpt lat="42.3408837" lon="14.0158996"><ele>175.0</ele><time>2026-05-02T07:24:33.67Z</time></trkpt><trkpt lat="42.3408381" lon="14.0158147"><ele>175.0</ele><time>2026-05-02T07:24:34.684Z</time></trkpt><trkpt lat="42.3407904" lon="14.0157292"><ele>175.0</ele><time>2026-05-02T07:24:35.681Z</time></trkpt><trkpt lat="42.340741" lon="14.0156296"><ele>175.0</ele><time>2026-05-02T07:24:36.677Z</time></trkpt><trkpt lat="42.340701" lon="14.0155392"><ele>176.0</ele><time>2026-05-02T07:24:37.687Z</time></trkpt><trkpt lat="42.340645" lon="14.0153919"><ele>177.0</ele><time>2026-05-02T07:24:39.672Z</time></trkpt><trkpt lat="42.3406077" lon="14.0153167"><ele>178.0</ele><time>2026-05-02T07:24:40.677Z</time></trkpt><trkpt lat="42.3405171" lon="14.0152246"><ele>179.0</ele><time>2026-05-02T07:24:42.674Z</time></trkpt><trkpt lat="42.3403907" lon="14.0152047"><ele>180.0</ele><time>2026-05-02T07:24:44.674Z</time></trkpt><trkpt lat="42.3403096" lon="14.0152479"><ele>180.66666666666666</ele><time>2026-05-02T07:24:45.665Z</time></trkpt><trkpt lat="42.3402371" lon="14.0153108"><ele>181.33333333333334</ele><time>2026-05-02T07:24:46.668Z</time></trkpt><trkpt lat="42.3401663" lon="14.0153588"><ele>182.0</ele><time>2026-05-02T07:24:47.676Z</time></trkpt><trkpt lat="42.3400998" lon="14.0153988"><ele>182.66666666666669</ele><time>2026-05-02T07:24:48.678Z</time></trkpt><trkpt lat="42.3399957" lon="14.0154976"><ele>183.33333333333334</ele><time>2026-05-02T07:24:50.667Z</time></trkpt><trkpt lat="42.3399412" lon="14.0155458"><ele>184.0</ele><time>2026-05-02T07:24:51.685Z</time></trkpt><trkpt lat="42.3398419" lon="14.015639"><ele>184.0</ele><time>2026-05-02T07:24:53.673Z</time></trkpt><trkpt lat="42.339737" lon="14.0156815"><ele>184.0</ele><time>2026-05-02T07:24:55.667Z</time></trkpt><trkpt lat="42.3396647" lon="14.0156572"><ele>184.0</ele><time>2026-05-02T07:24:56.67Z</time></trkpt><trkpt lat="42.3395979" lon="14.0156098"><ele>184.0</ele><time>2026-05-02T07:24:57.681Z</time></trkpt><trkpt lat="42.3395351" lon="14.0155648"><ele>184.0</ele><time>2026-05-02T07:24:58.67Z</time></trkpt><trkpt lat="42.3394641" lon="14.0155174"><ele>184.0</ele><time>2026-05-02T07:24:59.675Z</time></trkpt><trkpt lat="42.3394077" lon="14.0154769"><ele>184.5</ele><time>2026-05-02T07:25:00.687Z</time></trkpt><trkpt lat="42.3393446" lon="14.0154393"><ele>185.0</ele><time>2026-05-02T07:25:01.676Z</time></trkpt><trkpt lat="42.3392927" lon="14.0153731"><ele>185.5</ele><time>2026-05-02T07:25:02.673Z</time></trkpt><trkpt lat="42.339256" lon="14.0152847"><ele>186.0</ele><time>2026-05-02T07:25:03.664Z</time></trkpt><trkpt lat="42.3392234" lon="14.0151682"><ele>186.5</ele><time>2026-05-02T07:25:04.675Z</time></trkpt><trkpt lat="42.3391812" lon="14.0150503"><ele>187.0</ele><time>2026-05-02T07:25:05.673Z</time></trkpt><trkpt lat="42.3391293" lon="14.0149301"><ele>187.0</ele><time>2026-05-02T07:25:06.678Z</time></trkpt><trkpt lat="42.3390781" lon="14.0148058"><ele>187.0</ele><time>2026-05-02T07:25:07.667Z</time></trkpt><trkpt lat="42.3390311" lon="14.0146945"><ele>187.0</ele><time>2026-05-02T07:25:08.669Z</time></trkpt><trkpt lat="42.3389849" lon="14.0145883"><ele>187.0</ele><time>2026-05-02T07:25:09.668Z</time></trkpt><trkpt lat="42.338943" lon="14.0144778"><ele>187.0</ele><time>2026-05-02T07:25:10.675Z</time></trkpt><trkpt lat="42.3388862" lon="14.0143622"><ele>186.39999999999998</ele><time>2026-05-02T07:25:11.683Z</time></trkpt><trkpt lat="42.3388286" lon="14.0142311"><ele>185.79999999999998</ele><time>2026-05-02T07:25:12.669Z</time></trkpt><trkpt lat="42.3387812" lon="14.0141158"><ele>185.2</ele><time>2026-05-02T07:25:13.671Z</time></trkpt><trkpt lat="42.3387362" lon="14.0139975"><ele>184.6</ele><time>2026-05-02T07:25:14.678Z</time></trkpt><trkpt lat="42.3386874" lon="14.0138765"><ele>184.0</ele><time>2026-05-02T07:25:15.682Z</time></trkpt><trkpt lat="42.3386428" lon="14.0137381"><ele>184.0</ele><time>2026-05-02T07:25:16.668Z</time></trkpt><trkpt lat="42.3385937" lon="14.0136008"><ele>184.0</ele><time>2026-05-02T07:25:17.674Z</time></trkpt><trkpt lat="42.3385346" lon="14.0134489"><ele>184.0</ele><time>2026-05-02T07:25:18.686Z</time></trkpt><trkpt lat="42.3384792" lon="14.0132867"><ele>184.0</ele><time>2026-05-02T07:25:19.669Z</time></trkpt><trkpt lat="42.3384328" lon="14.013141"><ele>185.39999999999998</ele><time>2026-05-02T07:25:20.667Z</time></trkpt><trkpt lat="42.3383958" lon="14.0130127"><ele>186.8</ele><time>2026-05-02T07:25:21.681Z</time></trkpt><trkpt lat="42.3383595" lon="14.0129193"><ele>188.2</ele><time>2026-05-02T07:25:22.676Z</time></trkpt><trkpt lat="42.3383557" lon="14.0127795"><ele>189.60000000000002</ele><time>2026-05-02T07:25:24.668Z</time></trkpt><trkpt lat="42.3383891" lon="14.0126977"><ele>191.0</ele><time>2026-05-02T07:25:26.657Z</time></trkpt><trkpt lat="42.3384976" lon="14.0126634"><ele>191.0</ele><time>2026-05-02T07:25:28.668Z</time></trkpt><trkpt lat="42.3385633" lon="14.0126309"><ele>191.0</ele><time>2026-05-02T07:25:29.672Z</time></trkpt><trkpt lat="42.3386316" lon="14.012586"><ele>191.0</ele><time>2026-05-02T07:25:30.674Z</time></trkpt><trkpt lat="42.3387005" lon="14.0125403"><ele>191.0</ele><time>2026-05-02T07:25:31.672Z</time></trkpt><trkpt lat="42.3387716" lon="14.012489"><ele>191.0</ele><time>2026-05-02T07:25:32.674Z</time></trkpt><trkpt lat="42.3388321" lon="14.0124526"><ele>191.0</ele><time>2026-05-02T07:25:33.669Z</time></trkpt><trkpt lat="42.3388746" lon="14.0123595"><ele>192.4</ele><time>2026-05-02T07:25:36.675Z</time></trkpt><trkpt lat="42.3387881" lon="14.0123357"><ele>193.8</ele><time>2026-05-02T07:25:38.669Z</time></trkpt><trkpt lat="42.3387085" lon="14.0123118"><ele>195.20000000000002</ele><time>2026-05-02T07:25:39.675Z</time></trkpt><trkpt lat="42.3386196" lon="14.0122508"><ele>196.60000000000002</ele><time>2026-05-02T07:25:40.653Z</time></trkpt><trkpt lat="42.3385089" lon="14.0121718"><ele>198.0</ele><time>2026-05-02T07:25:41.671Z</time></trkpt><trkpt lat="42.3383757" lon="14.012109"><ele>198.0</ele><time>2026-05-02T07:25:42.671Z</time></trkpt><trkpt lat="42.3382337" lon="14.0120685"><ele>198.0</ele><time>2026-05-02T07:25:43.669Z</time></trkpt><trkpt lat="42.3380839" lon="14.0120145"><ele>198.0</ele><time>2026-05-02T07:25:44.665Z</time></trkpt><trkpt lat="42.337939" lon="14.0119477"><ele>194.66666666666666</ele><time>2026-05-02T07:25:45.667Z</time></trkpt><trkpt lat="42.3377962" lon="14.0118668"><ele>191.33333333333331</ele><time>2026-05-02T07:25:46.679Z</time></trkpt><trkpt lat="42.3376585" lon="14.0117672"><ele>188.0</ele><time>2026-05-02T07:25:47.668Z</time></trkpt><trkpt lat="42.3375351" lon="14.0116622"><ele>189.75</ele><time>2026-05-02T07:25:48.667Z</time></trkpt><trkpt lat="42.3374385" lon="14.011559"><ele>191.5</ele><time>2026-05-02T07:25:49.673Z</time></trkpt><trkpt lat="42.3373467" lon="14.0114326"><ele>193.25</ele><time>2026-05-02T07:25:50.669Z</time></trkpt><trkpt lat="42.3372637" lon="14.0112872"><ele>195.0</ele><time>2026-05-02T07:25:51.664Z</time></trkpt><trkpt lat="42.3371886" lon="14.0111415"><ele>192.2</ele><time>2026-05-02T07:25:52.664Z</time></trkpt><trkpt lat="42.3371085" lon="14.0110243"><ele>189.4</ele><time>2026-05-02T07:25:53.67Z</time></trkpt><trkpt lat="42.3370289" lon="14.0109342"><ele>186.60000000000002</ele><time>2026-05-02T07:25:54.67Z</time></trkpt><trkpt lat="42.3369553" lon="14.0109047"><ele>183.8</ele><time>2026-05-02T07:25:55.662Z</time></trkpt><trkpt lat="42.3368627" lon="14.0109175"><ele>181.0</ele><time>2026-05-02T07:25:56.663Z</time></trkpt><trkpt lat="42.3367646" lon="14.0109585"><ele>181.0</ele><time>2026-05-02T07:25:57.655Z</time></trkpt><trkpt lat="42.3366462" lon="14.0110355"><ele>181.0</ele><time>2026-05-02T07:25:58.686Z</time></trkpt><trkpt lat="42.3365368" lon="14.0110995"><ele>181.0</ele><time>2026-05-02T07:25:59.666Z</time></trkpt><trkpt lat="42.3364522" lon="14.011191"><ele>181.0</ele><time>2026-05-02T07:26:00.663Z</time></trkpt><trkpt lat="42.336375" lon="14.0113038"><ele>183.75</ele><time>2026-05-02T07:26:01.667Z</time></trkpt><trkpt lat="42.3363008" lon="14.0114607"><ele>186.5</ele><time>2026-05-02T07:26:02.659Z</time></trkpt><trkpt lat="42.3362386" lon="14.0116196"><ele>189.25</ele><time>2026-05-02T07:26:03.669Z</time></trkpt><trkpt lat="42.3361726" lon="14.0117985"><ele>192.0</ele><time>2026-05-02T07:26:04.662Z</time></trkpt><trkpt lat="42.336107" lon="14.0119848"><ele>192.5</ele><time>2026-05-02T07:26:05.667Z</time></trkpt><trkpt lat="42.3360551" lon="14.0121653"><ele>193.0</ele><time>2026-05-02T07:26:06.668Z</time></trkpt><trkpt lat="42.3360146" lon="14.012361"><ele>193.5</ele><time>2026-05-02T07:26:07.675Z</time></trkpt><trkpt lat="42.3360119" lon="14.0125543"><ele>194.0</ele><time>2026-05-02T07:26:08.666Z</time></trkpt><trkpt lat="42.3360018" lon="14.0127589"><ele>195.66666666666669</ele><time>2026-05-02T07:26:09.68Z</time></trkpt><trkpt lat="42.33601" lon="14.0129746"><ele>197.33333333333331</ele><time>2026-05-02T07:26:10.67Z</time></trkpt><trkpt lat="42.3360237" lon="14.0132023"><ele>199.0</ele><time>2026-05-02T07:26:11.666Z</time></trkpt><trkpt lat="42.3360315" lon="14.0134338"><ele>200.33333333333331</ele><time>2026-05-02T07:26:12.674Z</time></trkpt><trkpt lat="42.3360366" lon="14.0136563"><ele>201.66666666666669</ele><time>2026-05-02T07:26:13.675Z</time></trkpt><trkpt lat="42.3360338" lon="14.0138778"><ele>203.0</ele><time>2026-05-02T07:26:14.668Z</time></trkpt><trkpt lat="42.3360423" lon="14.0141034"><ele>203.25</ele><time>2026-05-02T07:26:15.676Z</time></trkpt><trkpt lat="42.3360512" lon="14.0143095"><ele>203.5</ele><time>2026-05-02T07:26:16.678Z</time></trkpt><trkpt lat="42.3360603" lon="14.0144833"><ele>203.75</ele><time>2026-05-02T07:26:17.658Z</time></trkpt><trkpt lat="42.3360736" lon="14.014638"><ele>204.0</ele><time>2026-05-02T07:26:18.66Z</time></trkpt><trkpt lat="42.3361043" lon="14.0147855"><ele>204.0</ele><time>2026-05-02T07:26:19.673Z</time></trkpt><trkpt lat="42.3361478" lon="14.014905"><ele>204.0</ele><time>2026-05-02T07:26:20.665Z</time></trkpt><trkpt lat="42.3361702" lon="14.0150035"><ele>204.0</ele><time>2026-05-02T07:26:21.674Z</time></trkpt><trkpt lat="42.336157" lon="14.0150955"><ele>204.0</ele><time>2026-05-02T07:26:22.678Z</time></trkpt><trkpt lat="42.3360685" lon="14.015149"><ele>204.0</ele><time>2026-05-02T07:26:24.679Z</time></trkpt><trkpt lat="42.3360104" lon="14.0151057"><ele>204.0</ele><time>2026-05-02T07:26:25.668Z</time></trkpt><trkpt lat="42.3359518" lon="14.0150586"><ele>204.0</ele><time>2026-05-02T07:26:26.667Z</time></trkpt><trkpt lat="42.3358946" lon="14.0150143"><ele>204.0</ele><time>2026-05-02T07:26:27.677Z</time></trkpt><trkpt lat="42.3358005" lon="14.0149491"><ele>204.0</ele><time>2026-05-02T07:26:29.672Z</time></trkpt><trkpt lat="42.3357366" lon="14.0148599"><ele>204.0</ele><time>2026-05-02T07:26:31.666Z</time></trkpt><trkpt lat="42.335701" lon="14.0147836"><ele>204.0</ele><time>2026-05-02T07:26:32.659Z</time></trkpt><trkpt lat="42.3356678" lon="14.0147022"><ele>204.0</ele><time>2026-05-02T07:26:33.675Z</time></trkpt><trkpt lat="42.3356214" lon="14.0146354"><ele>204.0</ele><time>2026-05-02T07:26:34.675Z</time></trkpt><trkpt lat="42.3355602" lon="14.0145936"><ele>204.0</ele><time>2026-05-02T07:26:35.672Z</time></trkpt><trkpt lat="42.3354883" lon="14.0145916"><ele>204.0</ele><time>2026-05-02T07:26:36.668Z</time></trkpt><trkpt lat="42.3354146" lon="14.0145912"><ele>204.0</ele><time>2026-05-02T07:26:37.673Z</time></trkpt><trkpt lat="42.3353211" lon="14.0145862"><ele>204.0</ele><time>2026-05-02T07:26:38.667Z</time></trkpt><trkpt lat="42.3352152" lon="14.0145683"><ele>204.0</ele><time>2026-05-02T07:26:39.669Z</time></trkpt><trkpt lat="42.3350978" lon="14.0145462"><ele>204.75</ele><time>2026-05-02T07:26:40.671Z</time></trkpt><trkpt lat="42.334954" lon="14.0145281"><ele>205.5</ele><time>2026-05-02T07:26:41.67Z</time></trkpt><trkpt lat="42.3348077" lon="14.0145156"><ele>206.25</ele><time>2026-05-02T07:26:42.689Z</time></trkpt><trkpt lat="42.3346834" lon="14.0144951"><ele>207.0</ele><time>2026-05-02T07:26:43.669Z</time></trkpt><trkpt lat="42.3345674" lon="14.0144878"><ele>205.83333333333334</ele><time>2026-05-02T07:26:44.659Z</time></trkpt><trkpt lat="42.3344699" lon="14.0144807"><ele>204.66666666666669</ele><time>2026-05-02T07:26:45.671Z</time></trkpt><trkpt lat="42.3343786" lon="14.014469"><ele>203.5</ele><time>2026-05-02T07:26:46.671Z</time></trkpt><trkpt lat="42.3342992" lon="14.0144538"><ele>202.33333333333334</ele><time>2026-05-02T07:26:47.673Z</time></trkpt><trkpt lat="42.3342282" lon="14.0144518"><ele>201.16666666666669</ele><time>2026-05-02T07:26:48.694Z</time></trkpt><trkpt lat="42.3341565" lon="14.0144454"><ele>200.0</ele><time>2026-05-02T07:26:49.669Z</time></trkpt><trkpt lat="42.3340696" lon="14.014432"><ele>200.00000000000003</ele><time>2026-05-02T07:26:50.691Z</time></trkpt><trkpt lat="42.333979" lon="14.0144075"><ele>200.0</ele><time>2026-05-02T07:26:51.673Z</time></trkpt><trkpt lat="42.3338891" lon="14.0143897"><ele>200.0</ele><time>2026-05-02T07:26:52.684Z</time></trkpt><trkpt lat="42.3338109" lon="14.0143686"><ele>200.0</ele><time>2026-05-02T07:26:53.682Z</time></trkpt><trkpt lat="42.3337184" lon="14.0143485"><ele>200.00000000000003</ele><time>2026-05-02T07:26:55.677Z</time></trkpt><trkpt lat="42.3336482" lon="14.0143435"><ele>200.0</ele><time>2026-05-02T07:26:57.7Z</time></trkpt><trkpt lat="42.3335822" lon="14.0143274"><ele>199.33333333333334</ele><time>2026-05-02T07:26:59.672Z</time></trkpt><trkpt lat="42.3335041" lon="14.0143241"><ele>198.66666666666669</ele><time>2026-05-02T07:27:02.659Z</time></trkpt><trkpt lat="42.3334307" lon="14.0143129"><ele>198.0</ele><time>2026-05-02T07:27:05.688Z</time></trkpt><trkpt lat="42.3333512" lon="14.0143045"><ele>197.33333333333331</ele><time>2026-05-02T07:27:07.67Z</time></trkpt><trkpt lat="42.3332738" lon="14.0142938"><ele>196.66666666666666</ele><time>2026-05-02T07:27:09.669Z</time></trkpt><trkpt lat="42.3331676" lon="14.0142832"><ele>196.0</ele><time>2026-05-02T07:27:11.658Z</time></trkpt><trkpt lat="42.3331021" lon="14.0142751"><ele>195.4</ele><time>2026-05-02T07:27:12.669Z</time></trkpt><trkpt lat="42.3330251" lon="14.0142678"><ele>194.8</ele><time>2026-05-02T07:27:13.668Z</time></trkpt><trkpt lat="42.3329329" lon="14.014259"><ele>194.20000000000002</ele><time>2026-05-02T07:27:14.675Z</time></trkpt><trkpt lat="42.3328275" lon="14.0142387"><ele>193.60000000000002</ele><time>2026-05-02T07:27:15.671Z</time></trkpt><trkpt lat="42.3327086" lon="14.0142305"><ele>193.0</ele><time>2026-05-02T07:27:16.669Z</time></trkpt><trkpt lat="42.3325928" lon="14.0142218"><ele>193.0</ele><time>2026-05-02T07:27:17.666Z</time></trkpt><trkpt lat="42.3324894" lon="14.0142184"><ele>193.0</ele><time>2026-05-02T07:27:18.675Z</time></trkpt><trkpt lat="42.3323958" lon="14.0142057"><ele>193.0</ele><time>2026-05-02T07:27:19.681Z</time></trkpt><trkpt lat="42.332298" lon="14.0141932"><ele>193.0</ele><time>2026-05-02T07:27:20.673Z</time></trkpt><trkpt lat="42.3321955" lon="14.0141956"><ele>193.0</ele><time>2026-05-02T07:27:21.677Z</time></trkpt><trkpt lat="42.332084" lon="14.0142218"><ele>191.2</ele><time>2026-05-02T07:27:22.667Z</time></trkpt><trkpt lat="42.3319771" lon="14.0142638"><ele>189.4</ele><time>2026-05-02T07:27:23.676Z</time></trkpt><trkpt lat="42.3318872" lon="14.0143017"><ele>187.6</ele><time>2026-05-02T07:27:24.671Z</time></trkpt><trkpt lat="42.3318026" lon="14.0143497"><ele>185.79999999999998</ele><time>2026-05-02T07:27:25.667Z</time></trkpt><trkpt lat="42.3317201" lon="14.0144089"><ele>184.0</ele><time>2026-05-02T07:27:26.667Z</time></trkpt><trkpt lat="42.3316363" lon="14.014469"><ele>184.0</ele><time>2026-05-02T07:27:27.665Z</time></trkpt><trkpt lat="42.3315453" lon="14.0145246"><ele>184.0</ele><time>2026-05-02T07:27:28.668Z</time></trkpt><trkpt lat="42.3314532" lon="14.0145911"><ele>184.0</ele><time>2026-05-02T07:27:29.671Z</time></trkpt><trkpt lat="42.3313578" lon="14.0146695"><ele>184.0</ele><time>2026-05-02T07:27:30.684Z</time></trkpt><trkpt lat="42.3312565" lon="14.0147493"><ele>184.0</ele><time>2026-05-02T07:27:31.678Z</time></trkpt><trkpt lat="42.331149" lon="14.014827"><ele>182.6</ele><time>2026-05-02T07:27:32.679Z</time></trkpt><trkpt lat="42.3310448" lon="14.0149051"><ele>181.2</ele><time>2026-05-02T07:27:33.672Z</time></trkpt><trkpt lat="42.3309419" lon="14.0149723"><ele>179.79999999999998</ele><time>2026-05-02T07:27:34.672Z</time></trkpt><trkpt lat="42.3308315" lon="14.0150153"><ele>178.39999999999998</ele><time>2026-05-02T07:27:35.674Z</time></trkpt><trkpt lat="42.3307349" lon="14.0150251"><ele>177.0</ele><time>2026-05-02T07:27:36.674Z</time></trkpt><trkpt lat="42.3306295" lon="14.0150187"><ele>176.0</ele><time>2026-05-02T07:27:37.686Z</time></trkpt><trkpt lat="42.3305327" lon="14.0149956"><ele>175.0</ele><time>2026-05-02T07:27:38.662Z</time></trkpt><trkpt lat="42.3304397" lon="14.0149488"><ele>174.0</ele><time>2026-05-02T07:27:39.667Z</time></trkpt><trkpt lat="42.3303459" lon="14.0148802"><ele>173.0</ele><time>2026-05-02T07:27:40.67Z</time></trkpt><trkpt lat="42.3302461" lon="14.0147962"><ele>172.0</ele><time>2026-05-02T07:27:41.672Z</time></trkpt><trkpt lat="42.3301459" lon="14.0146701"><ele>171.5</ele><time>2026-05-02T07:27:42.684Z</time></trkpt><trkpt lat="42.3300421" lon="14.0145363"><ele>171.0</ele><time>2026-05-02T07:27:43.689Z</time></trkpt><trkpt lat="42.3299465" lon="14.0144015"><ele>170.5</ele><time>2026-05-02T07:27:44.679Z</time></trkpt><trkpt lat="42.3298571" lon="14.0142725"><ele>170.0</ele><time>2026-05-02T07:27:45.675Z</time></trkpt><trkpt lat="42.3297652" lon="14.0141511"><ele>168.25</ele><time>2026-05-02T07:27:46.683Z</time></trkpt><trkpt lat="42.3296847" lon="14.0140308"><ele>166.5</ele><time>2026-05-02T07:27:47.667Z</time></trkpt><trkpt lat="42.3296093" lon="14.0139079"><ele>164.75</ele><time>2026-05-02T07:27:48.668Z</time></trkpt><trkpt lat="42.3295357" lon="14.0137928"><ele>163.0</ele><time>2026-05-02T07:27:49.667Z</time></trkpt><trkpt lat="42.3294645" lon="14.0136802"><ele>163.0</ele><time>2026-05-02T07:27:50.665Z</time></trkpt><trkpt lat="42.3294002" lon="14.0135759"><ele>163.0</ele><time>2026-05-02T07:27:51.677Z</time></trkpt><trkpt lat="42.3293402" lon="14.0134738"><ele>163.0</ele><time>2026-05-02T07:27:52.669Z</time></trkpt><trkpt lat="42.3292777" lon="14.013377"><ele>163.0</ele><time>2026-05-02T07:27:53.676Z</time></trkpt><trkpt lat="42.3292247" lon="14.0132767"><ele>163.0</ele><time>2026-05-02T07:27:54.675Z</time></trkpt><trkpt lat="42.3291798" lon="14.013174"><ele>162.2857142857143</ele><time>2026-05-02T07:27:55.685Z</time></trkpt><trkpt lat="42.3291272" lon="14.0130775"><ele>161.57142857142856</ele><time>2026-05-02T07:27:56.669Z</time></trkpt><trkpt lat="42.3290729" lon="14.0129933"><ele>160.85714285714286</ele><time>2026-05-02T07:27:57.67Z</time></trkpt><trkpt lat="42.3290356" lon="14.0129146"><ele>160.14285714285717</ele><time>2026-05-02T07:27:58.661Z</time></trkpt><trkpt lat="42.3290029" lon="14.0128399"><ele>159.42857142857144</ele><time>2026-05-02T07:27:59.671Z</time></trkpt><trkpt lat="42.3289645" lon="14.0127686"><ele>158.71428571428572</ele><time>2026-05-02T07:28:00.675Z</time></trkpt><trkpt lat="42.328923" lon="14.0127025"><ele>158.0</ele><time>2026-05-02T07:28:01.664Z</time></trkpt><trkpt lat="42.3288613" lon="14.0125874"><ele>158.0</ele><time>2026-05-02T07:28:03.672Z</time></trkpt><trkpt lat="42.3288152" lon="14.0125125"><ele>158.0</ele><time>2026-05-02T07:28:05.663Z</time></trkpt><trkpt lat="42.3287609" lon="14.0124635"><ele>158.0</ele><time>2026-05-02T07:28:08.661Z</time></trkpt><trkpt lat="42.3286224" lon="14.0123902"><ele>158.0</ele><time>2026-05-02T07:29:41.677Z</time></trkpt><trkpt lat="42.3285181" lon="14.0123104"><ele>158.0</ele><time>2026-05-02T07:29:42.669Z</time></trkpt><trkpt lat="42.328395" lon="14.0122348"><ele>158.0</ele><time>2026-05-02T07:29:43.672Z</time></trkpt><trkpt lat="42.3282324" lon="14.0121875"><ele>158.0</ele><time>2026-05-02T07:29:44.669Z</time></trkpt><trkpt lat="42.3280621" lon="14.0121235"><ele>158.0</ele><time>2026-05-02T07:29:45.664Z</time></trkpt><trkpt lat="42.3278916" lon="14.0120579"><ele>156.66666666666666</ele><time>2026-05-02T07:29:46.667Z</time></trkpt><trkpt lat="42.3277156" lon="14.011984"><ele>155.33333333333334</ele><time>2026-05-02T07:29:47.685Z</time></trkpt><trkpt lat="42.3275452" lon="14.0119144"><ele>154.0</ele><time>2026-05-02T07:29:48.666Z</time></trkpt><trkpt lat="42.3273865" lon="14.0118501"><ele>154.0</ele><time>2026-05-02T07:29:49.669Z</time></trkpt><trkpt lat="42.3272449" lon="14.011803"><ele>154.0</ele><time>2026-05-02T07:29:50.67Z</time></trkpt><trkpt lat="42.3271222" lon="14.0117583"><ele>154.0</ele><time>2026-05-02T07:29:51.672Z</time></trkpt><trkpt lat="42.327016" lon="14.01172"><ele>154.0</ele><time>2026-05-02T07:29:52.677Z</time></trkpt><trkpt lat="42.3269125" lon="14.0116763"><ele>153.0</ele><time>2026-05-02T07:29:53.677Z</time></trkpt><trkpt lat="42.3268215" lon="14.0116099"><ele>152.0</ele><time>2026-05-02T07:29:54.671Z</time></trkpt><trkpt lat="42.3267478" lon="14.0115102"><ele>151.0</ele><time>2026-05-02T07:29:55.667Z</time></trkpt><trkpt lat="42.3266856" lon="14.0113727"><ele>150.0</ele><time>2026-05-02T07:29:56.676Z</time></trkpt><trkpt lat="42.3266331" lon="14.0112204"><ele>150.0</ele><time>2026-05-02T07:29:57.675Z</time></trkpt><trkpt lat="42.3265688" lon="14.0110516"><ele>150.0</ele><time>2026-05-02T07:29:58.724Z</time></trkpt><trkpt lat="42.3265089" lon="14.0108675"><ele>150.0</ele><time>2026-05-02T07:29:59.675Z</time></trkpt><trkpt lat="42.3264476" lon="14.010677"><ele>150.0</ele><time>2026-05-02T07:30:00.681Z</time></trkpt><trkpt lat="42.326384" lon="14.0104745"><ele>148.33333333333334</ele><time>2026-05-02T07:30:01.674Z</time></trkpt><trkpt lat="42.3263159" lon="14.0102664"><ele>146.66666666666669</ele><time>2026-05-02T07:30:02.666Z</time></trkpt><trkpt lat="42.3262439" lon="14.0100547"><ele>145.0</ele><time>2026-05-02T07:30:03.686Z</time></trkpt><trkpt lat="42.3261685" lon="14.009839"><ele>145.0</ele><time>2026-05-02T07:30:04.684Z</time></trkpt><trkpt lat="42.3260938" lon="14.0096213"><ele>145.0</ele><time>2026-05-02T07:30:05.684Z</time></trkpt><trkpt lat="42.3260187" lon="14.0093946"><ele>145.0</ele><time>2026-05-02T07:30:06.678Z</time></trkpt><trkpt lat="42.3259426" lon="14.0091627"><ele>144.33333333333334</ele><time>2026-05-02T07:30:07.682Z</time></trkpt><trkpt lat="42.3258715" lon="14.0089378"><ele>143.66666666666666</ele><time>2026-05-02T07:30:08.671Z</time></trkpt><trkpt lat="42.3258047" lon="14.0087194"><ele>143.0</ele><time>2026-05-02T07:30:09.668Z</time></trkpt><trkpt lat="42.3257361" lon="14.0085087"><ele>141.66666666666666</ele><time>2026-05-02T07:30:10.676Z</time></trkpt><trkpt lat="42.3256564" lon="14.0082979"><ele>140.33333333333334</ele><time>2026-05-02T07:30:11.674Z</time></trkpt><trkpt lat="42.325571" lon="14.0080864"><ele>139.0</ele><time>2026-05-02T07:30:12.674Z</time></trkpt><trkpt lat="42.3254783" lon="14.0078745"><ele>139.0</ele><time>2026-05-02T07:30:13.665Z</time></trkpt><trkpt lat="42.3253828" lon="14.0076627"><ele>139.0</ele><time>2026-05-02T07:30:14.673Z</time></trkpt><trkpt lat="42.3252813" lon="14.0074509"><ele>139.0</ele><time>2026-05-02T07:30:15.66Z</time></trkpt><trkpt lat="42.3251859" lon="14.0072286"><ele>138.0</ele><time>2026-05-02T07:30:16.686Z</time></trkpt><trkpt lat="42.3251022" lon="14.0069924"><ele>137.0</ele><time>2026-05-02T07:30:17.661Z</time></trkpt><trkpt lat="42.3250327" lon="14.0067566"><ele>136.0</ele><time>2026-05-02T07:30:18.685Z</time></trkpt><trkpt lat="42.3249684" lon="14.0065168"><ele>135.66666666666669</ele><time>2026-05-02T07:30:19.674Z</time></trkpt><trkpt lat="42.3249104" lon="14.0062705"><ele>135.33333333333334</ele><time>2026-05-02T07:30:20.672Z</time></trkpt><trkpt lat="42.3248564" lon="14.0060359"><ele>135.0</ele><time>2026-05-02T07:30:21.677Z</time></trkpt><trkpt lat="42.3248012" lon="14.0057978"><ele>133.33333333333334</ele><time>2026-05-02T07:30:22.665Z</time></trkpt><trkpt lat="42.3247533" lon="14.005572"><ele>131.66666666666669</ele><time>2026-05-02T07:30:23.678Z</time></trkpt><trkpt lat="42.3247001" lon="14.0053549"><ele>130.0</ele><time>2026-05-02T07:30:24.667Z</time></trkpt><trkpt lat="42.3246387" lon="14.0051359"><ele>131.66666666666669</ele><time>2026-05-02T07:30:25.701Z</time></trkpt><trkpt lat="42.3245577" lon="14.0049131"><ele>133.33333333333334</ele><time>2026-05-02T07:30:26.667Z</time></trkpt><trkpt lat="42.3244813" lon="14.0046785"><ele>135.0</ele><time>2026-05-02T07:30:27.671Z</time></trkpt><trkpt lat="42.3243999" lon="14.0044397"><ele>135.0</ele><time>2026-05-02T07:30:28.675Z</time></trkpt><trkpt lat="42.3243088" lon="14.0042036"><ele>135.0</ele><time>2026-05-02T07:30:29.685Z</time></trkpt><trkpt lat="42.3242186" lon="14.0039714"><ele>135.0</ele><time>2026-05-02T07:30:30.68Z</time></trkpt><trkpt lat="42.3241293" lon="14.0037292"><ele>135.33333333333334</ele><time>2026-05-02T07:30:31.678Z</time></trkpt><trkpt lat="42.3240419" lon="14.0034851"><ele>135.66666666666669</ele><time>2026-05-02T07:30:32.674Z</time></trkpt><trkpt lat="42.3239532" lon="14.0032329"><ele>136.0</ele><time>2026-05-02T07:30:33.679Z</time></trkpt><trkpt lat="42.3238639" lon="14.0029804"><ele>136.0</ele><time>2026-05-02T07:30:34.688Z</time></trkpt><trkpt lat="42.3237707" lon="14.0027219"><ele>136.0</ele><time>2026-05-02T07:30:35.683Z</time></trkpt><trkpt lat="42.3236747" lon="14.0024515"><ele>136.0</ele><time>2026-05-02T07:30:36.673Z</time></trkpt><trkpt lat="42.3235825" lon="14.002178"><ele>137.0</ele><time>2026-05-02T07:30:37.672Z</time></trkpt><trkpt lat="42.3234881" lon="14.0018992"><ele>138.0</ele><time>2026-05-02T07:30:38.683Z</time></trkpt><trkpt lat="42.3233943" lon="14.0016242"><ele>138.66666666666666</ele><time>2026-05-02T07:30:39.666Z</time></trkpt><trkpt lat="42.3233014" lon="14.0013465"><ele>139.33333333333331</ele><time>2026-05-02T07:30:40.677Z</time></trkpt><trkpt lat="42.3232067" lon="14.0010753"><ele>140.0</ele><time>2026-05-02T07:30:41.669Z</time></trkpt><trkpt lat="42.3231141" lon="14.0008011"><ele>138.33333333333331</ele><time>2026-05-02T07:30:42.672Z</time></trkpt><trkpt lat="42.3230241" lon="14.0005292"><ele>136.66666666666666</ele><time>2026-05-02T07:30:43.676Z</time></trkpt><trkpt lat="42.3229361" lon="14.0002623"><ele>135.0</ele><time>2026-05-02T07:30:44.675Z</time></trkpt><trkpt lat="42.3228484" lon="13.9999918"><ele>135.0</ele><time>2026-05-02T07:30:45.669Z</time></trkpt><trkpt lat="42.3227581" lon="13.9997213"><ele>135.0</ele><time>2026-05-02T07:30:46.671Z</time></trkpt><trkpt lat="42.3226723" lon="13.9994557"><ele>135.0</ele><time>2026-05-02T07:30:47.672Z</time></trkpt><trkpt lat="42.3225866" lon="13.9991959"><ele>136.33333333333334</ele><time>2026-05-02T07:30:48.673Z</time></trkpt><trkpt lat="42.3224988" lon="13.9989321"><ele>137.66666666666669</ele><time>2026-05-02T07:30:49.678Z</time></trkpt><trkpt lat="42.3224141" lon="13.9986692"><ele>139.0</ele><time>2026-05-02T07:30:50.679Z</time></trkpt><trkpt lat="42.3223341" lon="13.9984126"><ele>139.0</ele><time>2026-05-02T07:30:51.672Z</time></trkpt><trkpt lat="42.3222538" lon="13.998159"><ele>139.0</ele><time>2026-05-02T07:30:52.671Z</time></trkpt><trkpt lat="42.3221798" lon="13.9979086"><ele>139.0</ele><time>2026-05-02T07:30:53.676Z</time></trkpt><trkpt lat="42.3221032" lon="13.9976514"><ele>137.33333333333334</ele><time>2026-05-02T07:30:54.664Z</time></trkpt><trkpt lat="42.3220205" lon="13.9973797"><ele>135.66666666666666</ele><time>2026-05-02T07:30:55.676Z</time></trkpt><trkpt lat="42.3219358" lon="13.9971153"><ele>134.0</ele><time>2026-05-02T07:30:56.667Z</time></trkpt><trkpt lat="42.3218504" lon="13.9968503"><ele>133.66666666666666</ele><time>2026-05-02T07:30:57.667Z</time></trkpt><trkpt lat="42.321764" lon="13.9965814"><ele>133.33333333333334</ele><time>2026-05-02T07:30:58.688Z</time></trkpt><trkpt lat="42.3216793" lon="13.996322"><ele>133.0</ele><time>2026-05-02T07:30:59.673Z</time></trkpt><trkpt lat="42.3215954" lon="13.9960717"><ele>133.33333333333334</ele><time>2026-05-02T07:31:00.685Z</time></trkpt><trkpt lat="42.3215135" lon="13.9958329"><ele>133.66666666666666</ele><time>2026-05-02T07:31:01.683Z</time></trkpt><trkpt lat="42.3214353" lon="13.9956029"><ele>134.0</ele><time>2026-05-02T07:31:02.684Z</time></trkpt><trkpt lat="42.3213588" lon="13.9953824"><ele>133.66666666666666</ele><time>2026-05-02T07:31:03.669Z</time></trkpt><trkpt lat="42.3212789" lon="13.9951637"><ele>133.33333333333334</ele><time>2026-05-02T07:31:04.671Z</time></trkpt><trkpt lat="42.3212016" lon="13.9949536"><ele>133.0</ele><time>2026-05-02T07:31:05.679Z</time></trkpt><trkpt lat="42.3211238" lon="13.9947531"><ele>133.0</ele><time>2026-05-02T07:31:06.687Z</time></trkpt><trkpt lat="42.3210547" lon="13.994563"><ele>133.0</ele><time>2026-05-02T07:31:07.677Z</time></trkpt><trkpt lat="42.3209853" lon="13.9943875"><ele>133.0</ele><time>2026-05-02T07:31:08.676Z</time></trkpt><trkpt lat="42.3209166" lon="13.9942206"><ele>133.0</ele><time>2026-05-02T07:31:09.673Z</time></trkpt><trkpt lat="42.3208524" lon="13.9940747"><ele>133.16666666666669</ele><time>2026-05-02T07:31:10.689Z</time></trkpt><trkpt lat="42.3207862" lon="13.9939401"><ele>133.33333333333334</ele><time>2026-05-02T07:31:11.678Z</time></trkpt><trkpt lat="42.3207381" lon="13.9938266"><ele>133.5</ele><time>2026-05-02T07:31:12.679Z</time></trkpt><trkpt lat="42.3206894" lon="13.9937327"><ele>133.66666666666666</ele><time>2026-05-02T07:31:13.669Z</time></trkpt><trkpt lat="42.3206428" lon="13.9936482"><ele>133.83333333333331</ele><time>2026-05-02T07:31:14.712Z</time></trkpt><trkpt lat="42.3205839" lon="13.9936115"><ele>134.0</ele><time>2026-05-02T07:31:15.668Z</time></trkpt><trkpt lat="42.3204879" lon="13.9936351"><ele>135.0</ele><time>2026-05-02T07:31:17.672Z</time></trkpt><trkpt lat="42.3203868" lon="13.9937389"><ele>136.0</ele><time>2026-05-02T07:31:19.675Z</time></trkpt><trkpt lat="42.3203173" lon="13.9938111"><ele>137.0</ele><time>2026-05-02T07:31:20.672Z</time></trkpt><trkpt lat="42.3202327" lon="13.9938878"><ele>138.0</ele><time>2026-05-02T07:31:21.672Z</time></trkpt><trkpt lat="42.3201498" lon="13.9939736"><ele>139.0</ele><time>2026-05-02T07:31:22.682Z</time></trkpt><trkpt lat="42.3200845" lon="13.9940862"><ele>138.75</ele><time>2026-05-02T07:31:23.682Z</time></trkpt><trkpt lat="42.3200215" lon="13.9942111"><ele>138.5</ele><time>2026-05-02T07:31:24.677Z</time></trkpt><trkpt lat="42.3199629" lon="13.9943348"><ele>138.25</ele><time>2026-05-02T07:31:25.673Z</time></trkpt><trkpt lat="42.3198899" lon="13.9944565"><ele>138.0</ele><time>2026-05-02T07:31:26.68Z</time></trkpt><trkpt lat="42.3198095" lon="13.9945707"><ele>137.5</ele><time>2026-05-02T07:31:27.681Z</time></trkpt><trkpt lat="42.3197292" lon="13.9946817"><ele>137.0</ele><time>2026-05-02T07:31:28.681Z</time></trkpt><trkpt lat="42.3196487" lon="13.9948074"><ele>136.5</ele><time>2026-05-02T07:31:29.666Z</time></trkpt><trkpt lat="42.3195602" lon="13.9949576"><ele>136.0</ele><time>2026-05-02T07:31:30.718Z</time></trkpt><trkpt lat="42.319475" lon="13.9951134"><ele>137.66666666666669</ele><time>2026-05-02T07:31:31.678Z</time></trkpt><trkpt lat="42.3193921" lon="13.9952905"><ele>139.33333333333334</ele><time>2026-05-02T07:31:32.68Z</time></trkpt><trkpt lat="42.3192948" lon="13.9954973"><ele>141.0</ele><time>2026-05-02T07:31:33.672Z</time></trkpt><trkpt lat="42.319188" lon="13.9957154"><ele>140.66666666666666</ele><time>2026-05-02T07:31:34.667Z</time></trkpt><trkpt lat="42.3190806" lon="13.9959536"><ele>140.33333333333331</ele><time>2026-05-02T07:31:35.674Z</time></trkpt><trkpt lat="42.3189761" lon="13.9961835"><ele>140.0</ele><time>2026-05-02T07:31:36.664Z</time></trkpt><trkpt lat="42.3188811" lon="13.9964023"><ele>142.0</ele><time>2026-05-02T07:31:37.68Z</time></trkpt><trkpt lat="42.3187996" lon="13.9965892"><ele>144.0</ele><time>2026-05-02T07:31:38.686Z</time></trkpt><trkpt lat="42.3187299" lon="13.9967666"><ele>146.0</ele><time>2026-05-02T07:31:39.681Z</time></trkpt><trkpt lat="42.3186733" lon="13.9969263"><ele>148.0</ele><time>2026-05-02T07:31:40.682Z</time></trkpt><trkpt lat="42.3186357" lon="13.9971154"><ele>148.0</ele><time>2026-05-02T07:31:41.668Z</time></trkpt><trkpt lat="42.3186097" lon="13.9973178"><ele>148.0</ele><time>2026-05-02T07:31:42.661Z</time></trkpt><trkpt lat="42.3185834" lon="13.9975329"><ele>148.0</ele><time>2026-05-02T07:31:43.674Z</time></trkpt><trkpt lat="42.3185539" lon="13.9977491"><ele>147.66666666666669</ele><time>2026-05-02T07:31:44.688Z</time></trkpt><trkpt lat="42.3185203" lon="13.9979832"><ele>147.33333333333334</ele><time>2026-05-02T07:31:45.671Z</time></trkpt><trkpt lat="42.3185003" lon="13.9981998"><ele>147.0</ele><time>2026-05-02T07:31:46.682Z</time></trkpt><trkpt lat="42.3184728" lon="13.9984058"><ele>146.5</ele><time>2026-05-02T07:31:47.673Z</time></trkpt><trkpt lat="42.3184512" lon="13.998585"><ele>146.0</ele><time>2026-05-02T07:31:48.67Z</time></trkpt><trkpt lat="42.3184353" lon="13.9987656"><ele>145.5</ele><time>2026-05-02T07:31:49.688Z</time></trkpt><trkpt lat="42.3184224" lon="13.9989752"><ele>145.0</ele><time>2026-05-02T07:31:50.67Z</time></trkpt><trkpt lat="42.3184138" lon="13.9991861"><ele>143.0</ele><time>2026-05-02T07:31:51.662Z</time></trkpt><trkpt lat="42.3184036" lon="13.9994105"><ele>141.0</ele><time>2026-05-02T07:31:52.672Z</time></trkpt><trkpt lat="42.3183873" lon="13.9996485"><ele>139.0</ele><time>2026-05-02T07:31:53.664Z</time></trkpt><trkpt lat="42.318373" lon="13.9998992"><ele>139.0</ele><time>2026-05-02T07:31:54.678Z</time></trkpt><trkpt lat="42.318365" lon="14.0001465"><ele>139.0</ele><time>2026-05-02T07:31:55.67Z</time></trkpt><trkpt lat="42.3183509" lon="14.0003862"><ele>139.0</ele><time>2026-05-02T07:31:56.69Z</time></trkpt><trkpt lat="42.3183328" lon="14.0006049"><ele>139.0</ele><time>2026-05-02T07:31:57.672Z</time></trkpt><trkpt lat="42.318323" lon="14.0008028"><ele>139.0</ele><time>2026-05-02T07:31:58.669Z</time></trkpt><trkpt lat="42.3183137" lon="14.0009941"><ele>139.0</ele><time>2026-05-02T07:31:59.673Z</time></trkpt><trkpt lat="42.3182974" lon="14.0011858"><ele>139.0</ele><time>2026-05-02T07:32:00.676Z</time></trkpt><trkpt lat="42.3182752" lon="14.0013585"><ele>138.2</ele><time>2026-05-02T07:32:01.677Z</time></trkpt><trkpt lat="42.3182397" lon="14.0014891"><ele>137.4</ele><time>2026-05-02T07:32:02.662Z</time></trkpt><trkpt lat="42.3182251" lon="14.0016185"><ele>136.6</ele><time>2026-05-02T07:32:03.67Z</time></trkpt><trkpt lat="42.3182128" lon="14.0017439"><ele>135.8</ele><time>2026-05-02T07:32:04.673Z</time></trkpt><trkpt lat="42.3182185" lon="14.0018661"><ele>135.0</ele><time>2026-05-02T07:32:05.668Z</time></trkpt><trkpt lat="42.3182466" lon="14.0019952"><ele>134.0</ele><time>2026-05-02T07:32:06.669Z</time></trkpt><trkpt lat="42.3182785" lon="14.0021277"><ele>133.0</ele><time>2026-05-02T07:32:07.681Z</time></trkpt><trkpt lat="42.318325" lon="14.0022846"><ele>132.0</ele><time>2026-05-02T07:32:08.704Z</time></trkpt><trkpt lat="42.3183563" lon="14.0024599"><ele>131.0</ele><time>2026-05-02T07:32:09.678Z</time></trkpt><trkpt lat="42.318377" lon="14.0026618"><ele>128.66666666666666</ele><time>2026-05-02T07:32:10.684Z</time></trkpt><trkpt lat="42.318397" lon="14.0028824"><ele>126.33333333333334</ele><time>2026-05-02T07:32:11.667Z</time></trkpt><trkpt lat="42.318415" lon="14.0031089"><ele>124.0</ele><time>2026-05-02T07:32:12.669Z</time></trkpt><trkpt lat="42.3184192" lon="14.0033177"><ele>123.0</ele><time>2026-05-02T07:32:13.667Z</time></trkpt><trkpt lat="42.3184095" lon="14.0035029"><ele>122.0</ele><time>2026-05-02T07:32:14.673Z</time></trkpt><trkpt lat="42.3183875" lon="14.0036696"><ele>121.0</ele><time>2026-05-02T07:32:15.672Z</time></trkpt><trkpt lat="42.3183491" lon="14.0038377"><ele>120.0</ele><time>2026-05-02T07:32:16.677Z</time></trkpt><trkpt lat="42.3182893" lon="14.0040263"><ele>119.0</ele><time>2026-05-02T07:32:17.674Z</time></trkpt><trkpt lat="42.3182002" lon="14.0042503"><ele>118.0</ele><time>2026-05-02T07:32:18.681Z</time></trkpt><trkpt lat="42.3181198" lon="14.0044744"><ele>117.0</ele><time>2026-05-02T07:32:19.678Z</time></trkpt><trkpt lat="42.3180353" lon="14.0046932"><ele>117.0</ele><time>2026-05-02T07:32:20.669Z</time></trkpt><trkpt lat="42.3179628" lon="14.0049128"><ele>117.0</ele><time>2026-05-02T07:32:21.668Z</time></trkpt><trkpt lat="42.3178819" lon="14.0051328"><ele>117.0</ele><time>2026-05-02T07:32:22.674Z</time></trkpt><trkpt lat="42.3178012" lon="14.0053571"><ele>117.0</ele><time>2026-05-02T07:32:23.674Z</time></trkpt><trkpt lat="42.3177213" lon="14.0055826"><ele>117.0</ele><time>2026-05-02T07:32:24.667Z</time></trkpt><trkpt lat="42.3176439" lon="14.0058141"><ele>117.0</ele><time>2026-05-02T07:32:25.68Z</time></trkpt><trkpt lat="42.3175684" lon="14.0060409"><ele>118.0</ele><time>2026-05-02T07:32:26.691Z</time></trkpt><trkpt lat="42.3174979" lon="14.0062534"><ele>119.0</ele><time>2026-05-02T07:32:27.674Z</time></trkpt><trkpt lat="42.3174361" lon="14.0064676"><ele>120.0</ele><time>2026-05-02T07:32:28.682Z</time></trkpt><trkpt lat="42.3173674" lon="14.0066811"><ele>120.0</ele><time>2026-05-02T07:32:29.659Z</time></trkpt><trkpt lat="42.3172989" lon="14.0068869"><ele>120.0</ele><time>2026-05-02T07:32:30.659Z</time></trkpt><trkpt lat="42.3172338" lon="14.0070684"><ele>120.0</ele><time>2026-05-02T07:32:31.697Z</time></trkpt><trkpt lat="42.3171843" lon="14.007199"><ele>120.0</ele><time>2026-05-02T07:32:32.67Z</time></trkpt><trkpt lat="42.31716" lon="14.0073033"><ele>120.0</ele><time>2026-05-02T07:32:33.664Z</time></trkpt><trkpt lat="42.3171342" lon="14.0074143"><ele>120.0</ele><time>2026-05-02T07:32:34.664Z</time></trkpt><trkpt lat="42.3171037" lon="14.0075498"><ele>120.0</ele><time>2026-05-02T07:32:35.663Z</time></trkpt><trkpt lat="42.3170561" lon="14.0076852"><ele>120.0</ele><time>2026-05-02T07:32:36.671Z</time></trkpt><trkpt lat="42.3169839" lon="14.0078384"><ele>120.0</ele><time>2026-05-02T07:32:37.673Z</time></trkpt><trkpt lat="42.3168683" lon="14.0080008"><ele>120.0</ele><time>2026-05-02T07:32:38.676Z</time></trkpt><trkpt lat="42.3167439" lon="14.0081495"><ele>120.0</ele><time>2026-05-02T07:32:39.68Z</time></trkpt><trkpt lat="42.3166073" lon="14.008292"><ele>120.0</ele><time>2026-05-02T07:32:40.67Z</time></trkpt><trkpt lat="42.3164855" lon="14.0084112"><ele>118.5</ele><time>2026-05-02T07:32:41.672Z</time></trkpt><trkpt lat="42.3163919" lon="14.0085099"><ele>117.0</ele><time>2026-05-02T07:32:42.675Z</time></trkpt><trkpt lat="42.3163076" lon="14.0085934"><ele>115.5</ele><time>2026-05-02T07:32:43.674Z</time></trkpt><trkpt lat="42.3162553" lon="14.0086706"><ele>114.0</ele><time>2026-05-02T07:32:44.679Z</time></trkpt><trkpt lat="42.3162153" lon="14.0087421"><ele>112.5</ele><time>2026-05-02T07:32:45.658Z</time></trkpt><trkpt lat="42.3161669" lon="14.0087997"><ele>111.0</ele><time>2026-05-02T07:32:48.681Z</time></trkpt><trkpt lat="42.3160462" lon="14.008881"><ele>111.0</ele><time>2026-05-02T07:33:00.669Z</time></trkpt><trkpt lat="42.3159489" lon="14.0089309"><ele>111.0</ele><time>2026-05-02T07:33:01.672Z</time></trkpt><trkpt lat="42.315844" lon="14.0089928"><ele>111.0</ele><time>2026-05-02T07:33:02.671Z</time></trkpt><trkpt lat="42.3157213" lon="14.0090974"><ele>111.0</ele><time>2026-05-02T07:33:03.67Z</time></trkpt><trkpt lat="42.315586" lon="14.0092057"><ele>109.66666666666666</ele><time>2026-05-02T07:33:04.666Z</time></trkpt><trkpt lat="42.3154457" lon="14.0093144"><ele>108.33333333333333</ele><time>2026-05-02T07:33:05.684Z</time></trkpt><trkpt lat="42.315296" lon="14.0094438"><ele>107.0</ele><time>2026-05-02T07:33:06.666Z</time></trkpt><trkpt lat="42.3151346" lon="14.0095845"><ele>107.0</ele><time>2026-05-02T07:33:07.674Z</time></trkpt><trkpt lat="42.314975" lon="14.0097259"><ele>107.0</ele><time>2026-05-02T07:33:08.661Z</time></trkpt><trkpt lat="42.314802" lon="14.0098721"><ele>107.0</ele><time>2026-05-02T07:33:09.672Z</time></trkpt><trkpt lat="42.3146244" lon="14.0100123"><ele>106.0</ele><time>2026-05-02T07:33:10.668Z</time></trkpt><trkpt lat="42.3144394" lon="14.0101569"><ele>105.0</ele><time>2026-05-02T07:33:11.684Z</time></trkpt><trkpt lat="42.3142543" lon="14.010309"><ele>104.0</ele><time>2026-05-02T07:33:12.675Z</time></trkpt><trkpt lat="42.3140717" lon="14.0104565"><ele>104.0</ele><time>2026-05-02T07:33:13.673Z</time></trkpt><trkpt lat="42.3139001" lon="14.0105996"><ele>104.0</ele><time>2026-05-02T07:33:14.686Z</time></trkpt><trkpt lat="42.3137395" lon="14.0107396"><ele>104.0</ele><time>2026-05-02T07:33:15.671Z</time></trkpt><trkpt lat="42.3135856" lon="14.0108612"><ele>103.33333333333333</ele><time>2026-05-02T07:33:16.662Z</time></trkpt><trkpt lat="42.3134234" lon="14.0109588"><ele>102.66666666666666</ele><time>2026-05-02T07:33:17.68Z</time></trkpt><trkpt lat="42.3132642" lon="14.0110218"><ele>102.0</ele><time>2026-05-02T07:33:18.672Z</time></trkpt><trkpt lat="42.3130913" lon="14.0110717"><ele>102.0</ele><time>2026-05-02T07:33:19.672Z</time></trkpt><trkpt lat="42.312918" lon="14.0111052"><ele>102.0</ele><time>2026-05-02T07:33:20.731Z</time></trkpt><trkpt lat="42.3127362" lon="14.0111393"><ele>102.0</ele><time>2026-05-02T07:33:21.666Z</time></trkpt><trkpt lat="42.3125482" lon="14.0111689"><ele>102.0</ele><time>2026-05-02T07:33:22.674Z</time></trkpt><trkpt lat="42.3123607" lon="14.01118"><ele>102.0</ele><time>2026-05-02T07:33:23.665Z</time></trkpt><trkpt lat="42.3121617" lon="14.0111627"><ele>102.0</ele><time>2026-05-02T07:33:24.659Z</time></trkpt><trkpt lat="42.3119477" lon="14.0111346"><ele>102.5</ele><time>2026-05-02T07:33:25.659Z</time></trkpt><trkpt lat="42.3117205" lon="14.0110919"><ele>103.0</ele><time>2026-05-02T07:33:26.67Z</time></trkpt><trkpt lat="42.3114893" lon="14.011038"><ele>102.0</ele><time>2026-05-02T07:33:27.674Z</time></trkpt><trkpt lat="42.3112604" lon="14.0109915"><ele>101.0</ele><time>2026-05-02T07:33:28.67Z</time></trkpt><trkpt lat="42.31102" lon="14.0109498"><ele>101.0</ele><time>2026-05-02T07:33:29.674Z</time></trkpt><trkpt lat="42.310783" lon="14.0109074"><ele>101.0</ele><time>2026-05-02T07:33:30.659Z</time></trkpt><trkpt lat="42.3105457" lon="14.0108577"><ele>101.5</ele><time>2026-05-02T07:33:31.673Z</time></trkpt><trkpt lat="42.3103108" lon="14.0108051"><ele>102.0</ele><time>2026-05-02T07:33:32.668Z</time></trkpt><trkpt lat="42.3100774" lon="14.010752"><ele>102.0</ele><time>2026-05-02T07:33:33.671Z</time></trkpt><trkpt lat="42.3098484" lon="14.0107056"><ele>102.0</ele><time>2026-05-02T07:33:34.67Z</time></trkpt><trkpt lat="42.3096118" lon="14.0106666"><ele>102.33333333333334</ele><time>2026-05-02T07:33:35.671Z</time></trkpt><trkpt lat="42.309385" lon="14.0106309"><ele>102.66666666666667</ele><time>2026-05-02T07:33:36.668Z</time></trkpt><trkpt lat="42.3091731" lon="14.0105856"><ele>103.0</ele><time>2026-05-02T07:33:37.671Z</time></trkpt><trkpt lat="42.3089765" lon="14.0105397"><ele>105.33333333333334</ele><time>2026-05-02T07:33:38.683Z</time></trkpt><trkpt lat="42.3087936" lon="14.0105029"><ele>107.66666666666666</ele><time>2026-05-02T07:33:39.669Z</time></trkpt><trkpt lat="42.3086267" lon="14.0104836"><ele>110.0</ele><time>2026-05-02T07:33:40.676Z</time></trkpt><trkpt lat="42.3084838" lon="14.0104864"><ele>110.0</ele><time>2026-05-02T07:33:41.667Z</time></trkpt><trkpt lat="42.3083564" lon="14.0105152"><ele>110.0</ele><time>2026-05-02T07:33:42.661Z</time></trkpt><trkpt lat="42.3082396" lon="14.0105846"><ele>110.0</ele><time>2026-05-02T07:33:43.665Z</time></trkpt><trkpt lat="42.3081355" lon="14.0106764"><ele>110.0</ele><time>2026-05-02T07:33:44.695Z</time></trkpt><trkpt lat="42.3080315" lon="14.0107809"><ele>111.0</ele><time>2026-05-02T07:33:45.669Z</time></trkpt><trkpt lat="42.3079171" lon="14.0108838"><ele>112.0</ele><time>2026-05-02T07:33:46.707Z</time></trkpt><trkpt lat="42.3077951" lon="14.0109448"><ele>113.0</ele><time>2026-05-02T07:33:47.67Z</time></trkpt><trkpt lat="42.307661" lon="14.0109606"><ele>114.0</ele><time>2026-05-02T07:33:48.678Z</time></trkpt><trkpt lat="42.3075214" lon="14.0109165"><ele>114.0</ele><time>2026-05-02T07:33:49.663Z</time></trkpt><trkpt lat="42.3073789" lon="14.0108495"><ele>114.0</ele><time>2026-05-02T07:33:50.668Z</time></trkpt><trkpt lat="42.307233" lon="14.010766"><ele>114.0</ele><time>2026-05-02T07:33:51.662Z</time></trkpt><trkpt lat="42.3071137" lon="14.0106762"><ele>114.0</ele><time>2026-05-02T07:33:52.662Z</time></trkpt><trkpt lat="42.3070056" lon="14.010587"><ele>116.75</ele><time>2026-05-02T07:33:53.67Z</time></trkpt><trkpt lat="42.3069228" lon="14.0104639"><ele>119.5</ele><time>2026-05-02T07:33:54.666Z</time></trkpt><trkpt lat="42.3068573" lon="14.0103058"><ele>122.25</ele><time>2026-05-02T07:33:55.67Z</time></trkpt><trkpt lat="42.3068027" lon="14.0101451"><ele>125.0</ele><time>2026-05-02T07:33:56.662Z</time></trkpt><trkpt lat="42.3067752" lon="14.0100005"><ele>125.49999999999999</ele><time>2026-05-02T07:33:57.681Z</time></trkpt><trkpt lat="42.3067487" lon="14.0098978"><ele>126.0</ele><time>2026-05-02T07:33:58.666Z</time></trkpt><trkpt lat="42.3067278" lon="14.0098004"><ele>126.5</ele><time>2026-05-02T07:33:59.756Z</time></trkpt><trkpt lat="42.3067011" lon="14.0097195"><ele>127.0</ele><time>2026-05-02T07:34:00.714Z</time></trkpt><trkpt lat="42.3066732" lon="14.009637"><ele>127.49999999999999</ele><time>2026-05-02T07:34:01.728Z</time></trkpt><trkpt lat="42.3066343" lon="14.0095058"><ele>128.0</ele><time>2026-05-02T07:34:03.663Z</time></trkpt><trkpt lat="42.3066195" lon="14.00941"><ele>128.0</ele><time>2026-05-02T07:34:05.67Z</time></trkpt><trkpt lat="42.3065687" lon="14.0092807"><ele>128.0</ele><time>2026-05-02T07:34:07.673Z</time></trkpt><trkpt lat="42.306515" lon="14.0091653"><ele>128.0</ele><time>2026-05-02T07:34:09.672Z</time></trkpt><trkpt lat="42.3064807" lon="14.0089944"><ele>128.0</ele><time>2026-05-02T07:34:11.675Z</time></trkpt><trkpt lat="42.3064692" lon="14.0088738"><ele>128.0</ele><time>2026-05-02T07:34:12.683Z</time></trkpt><trkpt lat="42.3064418" lon="14.0087435"><ele>132.0</ele><time>2026-05-02T07:34:13.672Z</time></trkpt><trkpt lat="42.3064047" lon="14.0085956"><ele>136.0</ele><time>2026-05-02T07:34:14.672Z</time></trkpt><trkpt lat="42.30636" lon="14.0084226"><ele>140.0</ele><time>2026-05-02T07:34:15.671Z</time></trkpt><trkpt lat="42.3063164" lon="14.0082456"><ele>144.0</ele><time>2026-05-02T07:34:16.718Z</time></trkpt><trkpt lat="42.3062686" lon="14.0080616"><ele>144.66666666666666</ele><time>2026-05-02T07:34:17.671Z</time></trkpt><trkpt lat="42.3062136" lon="14.0078663"><ele>145.33333333333331</ele><time>2026-05-02T07:34:18.679Z</time></trkpt><trkpt lat="42.3061572" lon="14.0076656"><ele>146.0</ele><time>2026-05-02T07:34:19.67Z</time></trkpt><trkpt lat="42.306104" lon="14.0074645"><ele>147.0</ele><time>2026-05-02T07:34:20.675Z</time></trkpt><trkpt lat="42.3060455" lon="14.0072629"><ele>148.0</ele><time>2026-05-02T07:34:21.666Z</time></trkpt><trkpt lat="42.3059706" lon="14.0070624"><ele>149.0</ele><time>2026-05-02T07:34:22.667Z</time></trkpt><trkpt lat="42.3058901" lon="14.0068477"><ele>148.66666666666666</ele><time>2026-05-02T07:34:23.664Z</time></trkpt><trkpt lat="42.3057917" lon="14.006641"><ele>148.33333333333334</ele><time>2026-05-02T07:34:24.674Z</time></trkpt><trkpt lat="42.3056792" lon="14.0064339"><ele>148.0</ele><time>2026-05-02T07:34:25.673Z</time></trkpt><trkpt lat="42.305568" lon="14.0062316"><ele>153.0</ele><time>2026-05-02T07:34:26.679Z</time></trkpt><trkpt lat="42.3054526" lon="14.0060289"><ele>158.0</ele><time>2026-05-02T07:34:27.669Z</time></trkpt><trkpt lat="42.305331" lon="14.005816"><ele>163.0</ele><time>2026-05-02T07:34:28.675Z</time></trkpt><trkpt lat="42.305208" lon="14.0055969"><ele>163.0</ele><time>2026-05-02T07:34:29.669Z</time></trkpt><trkpt lat="42.3050921" lon="14.0053575"><ele>163.0</ele><time>2026-05-02T07:34:30.673Z</time></trkpt><trkpt lat="42.3049857" lon="14.0051134"><ele>163.0</ele><time>2026-05-02T07:34:31.666Z</time></trkpt><trkpt lat="42.3048896" lon="14.004877"><ele>162.66666666666669</ele><time>2026-05-02T07:34:32.67Z</time></trkpt><trkpt lat="42.3048021" lon="14.004666"><ele>162.33333333333334</ele><time>2026-05-02T07:34:33.672Z</time></trkpt><trkpt lat="42.3047169" lon="14.0044827"><ele>162.0</ele><time>2026-05-02T07:34:34.678Z</time></trkpt><trkpt lat="42.3046327" lon="14.0043179"><ele>164.0</ele><time>2026-05-02T07:34:35.679Z</time></trkpt><trkpt lat="42.3045491" lon="14.0041584"><ele>166.0</ele><time>2026-05-02T07:34:36.667Z</time></trkpt><trkpt lat="42.3044719" lon="14.0040298"><ele>168.0</ele><time>2026-05-02T07:34:37.668Z</time></trkpt><trkpt lat="42.3043961" lon="14.0039372"><ele>170.0</ele><time>2026-05-02T07:34:38.665Z</time></trkpt><trkpt lat="42.3043092" lon="14.0038704"><ele>170.0</ele><time>2026-05-02T07:34:39.716Z</time></trkpt><trkpt lat="42.3041987" lon="14.0038221"><ele>170.0</ele><time>2026-05-02T07:34:40.663Z</time></trkpt><trkpt lat="42.3040763" lon="14.003777"><ele>170.0</ele><time>2026-05-02T07:34:41.66Z</time></trkpt><trkpt lat="42.3039408" lon="14.0037219"><ele>170.0</ele><time>2026-05-02T07:34:42.668Z</time></trkpt><trkpt lat="42.3038026" lon="14.0036525"><ele>168.66666666666666</ele><time>2026-05-02T07:34:43.671Z</time></trkpt><trkpt lat="42.303659" lon="14.0035726"><ele>167.33333333333334</ele><time>2026-05-02T07:34:44.677Z</time></trkpt><trkpt lat="42.3035194" lon="14.0034718"><ele>166.0</ele><time>2026-05-02T07:34:45.669Z</time></trkpt><trkpt lat="42.3033789" lon="14.0033671"><ele>167.0</ele><time>2026-05-02T07:34:46.683Z</time></trkpt><trkpt lat="42.3032328" lon="14.0032683"><ele>168.0</ele><time>2026-05-02T07:34:47.666Z</time></trkpt><trkpt lat="42.3030813" lon="14.0031974"><ele>169.0</ele><time>2026-05-02T07:34:48.661Z</time></trkpt><trkpt lat="42.3029222" lon="14.0031367"><ele>169.0</ele><time>2026-05-02T07:34:49.689Z</time></trkpt><trkpt lat="42.3027522" lon="14.0030966"><ele>169.0</ele><time>2026-05-02T07:34:50.681Z</time></trkpt><trkpt lat="42.3025777" lon="14.0030783"><ele>169.0</ele><time>2026-05-02T07:34:51.691Z</time></trkpt><trkpt lat="42.3024021" lon="14.0030695"><ele>165.66666666666669</ele><time>2026-05-02T07:34:52.667Z</time></trkpt><trkpt lat="42.3022389" lon="14.0030672"><ele>162.33333333333334</ele><time>2026-05-02T07:34:53.665Z</time></trkpt><trkpt lat="42.3020888" lon="14.0030507"><ele>159.0</ele><time>2026-05-02T07:34:54.676Z</time></trkpt><trkpt lat="42.3019451" lon="14.0030279"><ele>159.0</ele><time>2026-05-02T07:34:55.752Z</time></trkpt><trkpt lat="42.3018124" lon="14.0029716"><ele>159.0</ele><time>2026-05-02T07:34:56.72Z</time></trkpt><trkpt lat="42.3016908" lon="14.0028841"><ele>159.0</ele><time>2026-05-02T07:34:57.715Z</time></trkpt><trkpt lat="42.3015845" lon="14.0027853"><ele>159.0</ele><time>2026-05-02T07:34:58.719Z</time></trkpt><trkpt lat="42.3014899" lon="14.0027071"><ele>157.5</ele><time>2026-05-02T07:34:59.709Z</time></trkpt><trkpt lat="42.3013959" lon="14.0026717"><ele>156.0</ele><time>2026-05-02T07:35:00.714Z</time></trkpt><trkpt lat="42.3013216" lon="14.0026627"><ele>154.5</ele><time>2026-05-02T07:35:01.708Z</time></trkpt><trkpt lat="42.3012539" lon="14.0026856"><ele>153.0</ele><time>2026-05-02T07:35:02.719Z</time></trkpt><trkpt lat="42.3011824" lon="14.002711"><ele>151.5</ele><time>2026-05-02T07:35:03.713Z</time></trkpt><trkpt lat="42.3011155" lon="14.0027385"><ele>150.0</ele><time>2026-05-02T07:35:04.721Z</time></trkpt><trkpt lat="42.3010411" lon="14.0027703"><ele>150.0</ele><time>2026-05-02T07:35:05.717Z</time></trkpt><trkpt lat="42.300971" lon="14.0027991"><ele>150.0</ele><time>2026-05-02T07:35:06.668Z</time></trkpt><trkpt lat="42.3009065" lon="14.0028187"><ele>150.0</ele><time>2026-05-02T07:35:07.672Z</time></trkpt><trkpt lat="42.300844" lon="14.0028337"><ele>150.0</ele><time>2026-05-02T07:35:09.664Z</time></trkpt><trkpt lat="42.3009083" lon="14.0028858"><ele>150.0</ele><time>2026-05-02T07:35:13.677Z</time></trkpt><trkpt lat="42.3010024" lon="14.0028262"><ele>150.0</ele><time>2026-05-02T07:35:15.672Z</time></trkpt><trkpt lat="42.3010847" lon="14.0027779"><ele>150.0</ele><time>2026-05-02T07:35:16.669Z</time></trkpt><trkpt lat="42.3011797" lon="14.0027407"><ele>150.0</ele><time>2026-05-02T07:35:17.668Z</time></trkpt><trkpt lat="42.3012659" lon="14.0027235"><ele>150.0</ele><time>2026-05-02T07:35:18.675Z</time></trkpt><trkpt lat="42.301351" lon="14.0027167"><ele>150.0</ele><time>2026-05-02T07:35:19.662Z</time></trkpt><trkpt lat="42.3014503" lon="14.0026508"><ele>150.0</ele><time>2026-05-02T07:35:21.669Z</time></trkpt><trkpt lat="42.3014504" lon="14.0024937"><ele>151.25</ele><time>2026-05-02T07:35:23.67Z</time></trkpt><trkpt lat="42.3014122" lon="14.0023445"><ele>152.5</ele><time>2026-05-02T07:35:24.661Z</time></trkpt><trkpt lat="42.3013675" lon="14.0021827"><ele>153.75</ele><time>2026-05-02T07:35:25.684Z</time></trkpt><trkpt lat="42.3013386" lon="14.002003"><ele>155.0</ele><time>2026-05-02T07:35:26.673Z</time></trkpt><trkpt lat="42.3013032" lon="14.0018167"><ele>157.0</ele><time>2026-05-02T07:35:27.675Z</time></trkpt><trkpt lat="42.301249" lon="14.0016175"><ele>159.0</ele><time>2026-05-02T07:35:28.66Z</time></trkpt><trkpt lat="42.3011765" lon="14.0014166"><ele>161.0</ele><time>2026-05-02T07:35:29.665Z</time></trkpt><trkpt lat="42.3010913" lon="14.0012114"><ele>161.0</ele><time>2026-05-02T07:35:30.67Z</time></trkpt><trkpt lat="42.3010021" lon="14.001011"><ele>161.0</ele><time>2026-05-02T07:35:31.67Z</time></trkpt><trkpt lat="42.3009272" lon="14.0008314"><ele>161.0</ele><time>2026-05-02T07:35:32.673Z</time></trkpt><trkpt lat="42.3008452" lon="14.00066"><ele>160.0</ele><time>2026-05-02T07:35:33.672Z</time></trkpt><trkpt lat="42.3007541" lon="14.0005095"><ele>159.0</ele><time>2026-05-02T07:35:34.682Z</time></trkpt><trkpt lat="42.3006468" lon="14.0003659"><ele>158.0</ele><time>2026-05-02T07:35:35.67Z</time></trkpt><trkpt lat="42.3005269" lon="14.0002272"><ele>158.0</ele><time>2026-05-02T07:35:36.681Z</time></trkpt><trkpt lat="42.3004164" lon="14.0000876"><ele>158.0</ele><time>2026-05-02T07:35:37.668Z</time></trkpt><trkpt lat="42.3003155" lon="13.9999398"><ele>158.0</ele><time>2026-05-02T07:35:38.661Z</time></trkpt><trkpt lat="42.300236" lon="13.9997782"><ele>158.0</ele><time>2026-05-02T07:35:39.67Z</time></trkpt><trkpt lat="42.3001596" lon="13.9995974"><ele>158.0</ele><time>2026-05-02T07:35:40.659Z</time></trkpt><trkpt lat="42.3000866" lon="13.9994123"><ele>158.0</ele><time>2026-05-02T07:35:41.681Z</time></trkpt><trkpt lat="42.3000033" lon="13.9992339"><ele>158.0</ele><time>2026-05-02T07:35:42.678Z</time></trkpt><trkpt lat="42.2999074" lon="13.9990594"><ele>158.66666666666666</ele><time>2026-05-02T07:35:43.66Z</time></trkpt><trkpt lat="42.2998087" lon="13.9988842"><ele>159.33333333333334</ele><time>2026-05-02T07:35:44.679Z</time></trkpt><trkpt lat="42.2997194" lon="13.9986923"><ele>160.0</ele><time>2026-05-02T07:35:45.687Z</time></trkpt><trkpt lat="42.2996259" lon="13.9984995"><ele>159.33333333333334</ele><time>2026-05-02T07:35:46.673Z</time></trkpt><trkpt lat="42.2995299" lon="13.9983302"><ele>158.66666666666666</ele><time>2026-05-02T07:35:47.687Z</time></trkpt><trkpt lat="42.2994376" lon="13.9981655"><ele>158.0</ele><time>2026-05-02T07:35:48.665Z</time></trkpt><trkpt lat="42.2993463" lon="13.9980109"><ele>158.0</ele><time>2026-05-02T07:35:49.671Z</time></trkpt><trkpt lat="42.2992743" lon="13.9978586"><ele>158.0</ele><time>2026-05-02T07:35:50.682Z</time></trkpt><trkpt lat="42.2992302" lon="13.9976894"><ele>158.0</ele><time>2026-05-02T07:35:51.669Z</time></trkpt><trkpt lat="42.2992003" lon="13.9975004"><ele>158.0</ele><time>2026-05-02T07:35:52.668Z</time></trkpt><trkpt lat="42.2991872" lon="13.9973026"><ele>158.0</ele><time>2026-05-02T07:35:53.668Z</time></trkpt><trkpt lat="42.2991787" lon="13.9970879"><ele>158.0</ele><time>2026-05-02T07:35:54.663Z</time></trkpt><trkpt lat="42.299172" lon="13.9968893"><ele>158.0</ele><time>2026-05-02T07:35:55.662Z</time></trkpt><trkpt lat="42.2991446" lon="13.9966998"><ele>158.0</ele><time>2026-05-02T07:35:56.677Z</time></trkpt><trkpt lat="42.299088" lon="13.9965317"><ele>157.5</ele><time>2026-05-02T07:35:57.666Z</time></trkpt><trkpt lat="42.2990177" lon="13.9964022"><ele>157.0</ele><time>2026-05-02T07:35:58.658Z</time></trkpt><trkpt lat="42.2989351" lon="13.996287"><ele>156.5</ele><time>2026-05-02T07:35:59.687Z</time></trkpt><trkpt lat="42.2988206" lon="13.9961727"><ele>156.0</ele><time>2026-05-02T07:36:00.668Z</time></trkpt><trkpt lat="42.2987211" lon="13.9960372"><ele>154.5</ele><time>2026-05-02T07:36:01.667Z</time></trkpt><trkpt lat="42.298639" lon="13.9958751"><ele>153.0</ele><time>2026-05-02T07:36:02.666Z</time></trkpt><trkpt lat="42.2985846" lon="13.9957313"><ele>151.5</ele><time>2026-05-02T07:36:03.673Z</time></trkpt><trkpt lat="42.2985296" lon="13.9955909"><ele>150.0</ele><time>2026-05-02T07:36:04.674Z</time></trkpt><trkpt lat="42.2984586" lon="13.9954399"><ele>150.0</ele><time>2026-05-02T07:36:05.673Z</time></trkpt><trkpt lat="42.298374" lon="13.9952692"><ele>150.0</ele><time>2026-05-02T07:36:06.671Z</time></trkpt><trkpt lat="42.2982769" lon="13.9950952"><ele>150.0</ele><time>2026-05-02T07:36:07.672Z</time></trkpt><trkpt lat="42.2981747" lon="13.9949084"><ele>147.5</ele><time>2026-05-02T07:36:08.712Z</time></trkpt><trkpt lat="42.2980752" lon="13.9947522"><ele>145.0</ele><time>2026-05-02T07:36:09.666Z</time></trkpt><trkpt lat="42.2979783" lon="13.9946088"><ele>142.5</ele><time>2026-05-02T07:36:10.672Z</time></trkpt><trkpt lat="42.297896" lon="13.9944467"><ele>140.0</ele><time>2026-05-02T07:36:11.683Z</time></trkpt><trkpt lat="42.2978235" lon="13.9942597"><ele>140.33333333333331</ele><time>2026-05-02T07:36:12.672Z</time></trkpt><trkpt lat="42.297747" lon="13.9940567"><ele>140.66666666666666</ele><time>2026-05-02T07:36:13.675Z</time></trkpt><trkpt lat="42.2976622" lon="13.9938573"><ele>141.0</ele><time>2026-05-02T07:36:14.677Z</time></trkpt><trkpt lat="42.2975727" lon="13.9936698"><ele>141.0</ele><time>2026-05-02T07:36:15.669Z</time></trkpt><trkpt lat="42.2974844" lon="13.9935019"><ele>141.0</ele><time>2026-05-02T07:36:16.683Z</time></trkpt><trkpt lat="42.2973901" lon="13.9933351"><ele>141.0</ele><time>2026-05-02T07:36:17.681Z</time></trkpt><trkpt lat="42.2973015" lon="13.9931703"><ele>138.66666666666666</ele><time>2026-05-02T07:36:18.656Z</time></trkpt><trkpt lat="42.2972183" lon="13.9929894"><ele>136.33333333333331</ele><time>2026-05-02T07:36:19.676Z</time></trkpt><trkpt lat="42.2971319" lon="13.9928057"><ele>134.0</ele><time>2026-05-02T07:36:20.679Z</time></trkpt><trkpt lat="42.2970465" lon="13.9926258"><ele>134.75</ele><time>2026-05-02T07:36:21.669Z</time></trkpt><trkpt lat="42.2969672" lon="13.9924655"><ele>135.5</ele><time>2026-05-02T07:36:22.675Z</time></trkpt><trkpt lat="42.2969035" lon="13.992298"><ele>136.25</ele><time>2026-05-02T07:36:23.671Z</time></trkpt><trkpt lat="42.2968597" lon="13.9921281"><ele>137.0</ele><time>2026-05-02T07:36:24.678Z</time></trkpt><trkpt lat="42.2968198" lon="13.9919426"><ele>137.0</ele><time>2026-05-02T07:36:25.671Z</time></trkpt><trkpt lat="42.2967639" lon="13.991746"><ele>137.0</ele><time>2026-05-02T07:36:26.683Z</time></trkpt><trkpt lat="42.2967212" lon="13.9915405"><ele>137.0</ele><time>2026-05-02T07:36:27.667Z</time></trkpt><trkpt lat="42.2966888" lon="13.9913227"><ele>137.25</ele><time>2026-05-02T07:36:28.683Z</time></trkpt><trkpt lat="42.2966658" lon="13.9911288"><ele>137.5</ele><time>2026-05-02T07:36:29.673Z</time></trkpt><trkpt lat="42.2966587" lon="13.9909422"><ele>137.75</ele><time>2026-05-02T07:36:30.659Z</time></trkpt><trkpt lat="42.2966622" lon="13.9907741"><ele>138.0</ele><time>2026-05-02T07:36:31.686Z</time></trkpt><trkpt lat="42.2966543" lon="13.9906148"><ele>138.0</ele><time>2026-05-02T07:36:32.666Z</time></trkpt><trkpt lat="42.2966347" lon="13.99046"><ele>138.0</ele><time>2026-05-02T07:36:33.679Z</time></trkpt><trkpt lat="42.2965941" lon="13.9903062"><ele>138.0</ele><time>2026-05-02T07:36:34.671Z</time></trkpt><trkpt lat="42.2965265" lon="13.9901622"><ele>138.0</ele><time>2026-05-02T07:36:35.673Z</time></trkpt><trkpt lat="42.2964387" lon="13.9900492"><ele>135.5</ele><time>2026-05-02T07:36:36.69Z</time></trkpt><trkpt lat="42.2963447" lon="13.9899528"><ele>133.0</ele><time>2026-05-02T07:36:37.678Z</time></trkpt><trkpt lat="42.2962422" lon="13.989894"><ele>130.5</ele><time>2026-05-02T07:36:38.665Z</time></trkpt><trkpt lat="42.2961292" lon="13.9898584"><ele>128.0</ele><time>2026-05-02T07:36:39.677Z</time></trkpt><trkpt lat="42.2960165" lon="13.9898074"><ele>128.0</ele><time>2026-05-02T07:36:40.662Z</time></trkpt><trkpt lat="42.2959142" lon="13.9897629"><ele>128.0</ele><time>2026-05-02T07:36:41.676Z</time></trkpt><trkpt lat="42.2958124" lon="13.9896951"><ele>128.0</ele><time>2026-05-02T07:36:42.666Z</time></trkpt><trkpt lat="42.2957095" lon="13.9896101"><ele>128.0</ele><time>2026-05-02T07:36:43.678Z</time></trkpt><trkpt lat="42.2956064" lon="13.9895132"><ele>127.60000000000001</ele><time>2026-05-02T07:36:44.669Z</time></trkpt><trkpt lat="42.2955061" lon="13.9894329"><ele>127.20000000000002</ele><time>2026-05-02T07:36:45.673Z</time></trkpt><trkpt lat="42.2954124" lon="13.989374"><ele>126.8</ele><time>2026-05-02T07:36:46.679Z</time></trkpt><trkpt lat="42.2953386" lon="13.9893315"><ele>126.4</ele><time>2026-05-02T07:36:47.677Z</time></trkpt><trkpt lat="42.2952629" lon="13.9892676"><ele>126.0</ele><time>2026-05-02T07:36:49.666Z</time></trkpt><trkpt lat="42.2951551" lon="13.9892551"><ele>126.0</ele><time>2026-05-02T07:36:55.663Z</time></trkpt><trkpt lat="42.2951011" lon="13.9893006"><ele>126.0</ele><time>2026-05-02T07:36:56.672Z</time></trkpt><trkpt lat="42.2950055" lon="13.9893214"><ele>126.0</ele><time>2026-05-02T07:36:58.66Z</time></trkpt><trkpt lat="42.2949678" lon="13.9891913"><ele>126.0</ele><time>2026-05-02T07:37:00.665Z</time></trkpt><trkpt lat="42.2949497" lon="13.989076"><ele>126.0</ele><time>2026-05-02T07:37:01.676Z</time></trkpt><trkpt lat="42.2949268" lon="13.988932"><ele>127.33333333333334</ele><time>2026-05-02T07:37:02.678Z</time></trkpt><trkpt lat="42.2948911" lon="13.988753"><ele>128.66666666666669</ele><time>2026-05-02T07:37:03.67Z</time></trkpt><trkpt lat="42.2948364" lon="13.9885529"><ele>130.0</ele><time>2026-05-02T07:37:04.658Z</time></trkpt><trkpt lat="42.2947794" lon="13.9883251"><ele>131.0</ele><time>2026-05-02T07:37:05.669Z</time></trkpt><trkpt lat="42.2947098" lon="13.9880726"><ele>132.0</ele><time>2026-05-02T07:37:06.674Z</time></trkpt><trkpt lat="42.2946347" lon="13.987828"><ele>133.0</ele><time>2026-05-02T07:37:07.677Z</time></trkpt><trkpt lat="42.2945713" lon="13.9875889"><ele>133.5</ele><time>2026-05-02T07:37:08.679Z</time></trkpt><trkpt lat="42.2945045" lon="13.9873814"><ele>134.0</ele><time>2026-05-02T07:37:09.672Z</time></trkpt><trkpt lat="42.2944475" lon="13.9871977"><ele>134.5</ele><time>2026-05-02T07:37:10.665Z</time></trkpt><trkpt lat="42.2944044" lon="13.987052"><ele>135.0</ele><time>2026-05-02T07:37:11.673Z</time></trkpt><trkpt lat="42.2943803" lon="13.9869179"><ele>135.0</ele><time>2026-05-02T07:37:12.657Z</time></trkpt><trkpt lat="42.294381" lon="13.986811"><ele>135.0</ele><time>2026-05-02T07:37:13.669Z</time></trkpt><trkpt lat="42.2944046" lon="13.9866885"><ele>135.0</ele><time>2026-05-02T07:37:15.661Z</time></trkpt><trkpt lat="42.2943944" lon="13.9865896"><ele>135.0</ele><time>2026-05-02T07:37:17.672Z</time></trkpt><trkpt lat="42.2943524" lon="13.9865199"><ele>135.0</ele><time>2026-05-02T07:37:20.667Z</time></trkpt><trkpt lat="42.2943129" lon="13.9864351"><ele>135.0</ele><time>2026-05-02T07:37:30.67Z</time></trkpt><trkpt lat="42.2942865" lon="13.9863358"><ele>135.75</ele><time>2026-05-02T07:37:31.676Z</time></trkpt><trkpt lat="42.2942457" lon="13.9862052"><ele>136.5</ele><time>2026-05-02T07:37:32.673Z</time></trkpt><trkpt lat="42.2941975" lon="13.9860425"><ele>137.25</ele><time>2026-05-02T07:37:33.663Z</time></trkpt><trkpt lat="42.2941456" lon="13.9858516"><ele>138.0</ele><time>2026-05-02T07:37:34.672Z</time></trkpt><trkpt lat="42.2940885" lon="13.9856222"><ele>139.0</ele><time>2026-05-02T07:37:35.662Z</time></trkpt><trkpt lat="42.2940163" lon="13.9853645"><ele>140.0</ele><time>2026-05-02T07:37:36.678Z</time></trkpt><trkpt lat="42.293943" lon="13.985121"><ele>141.0</ele><time>2026-05-02T07:37:37.674Z</time></trkpt><trkpt lat="42.2938816" lon="13.9849281"><ele>142.75</ele><time>2026-05-02T07:37:38.668Z</time></trkpt><trkpt lat="42.2938347" lon="13.9847662"><ele>144.5</ele><time>2026-05-02T07:37:39.66Z</time></trkpt><trkpt lat="42.2937689" lon="13.9846265"><ele>146.25</ele><time>2026-05-02T07:37:40.666Z</time></trkpt><trkpt lat="42.2936795" lon="13.9844508"><ele>148.0</ele><time>2026-05-02T07:37:41.66Z</time></trkpt><trkpt lat="42.2935642" lon="13.9842802"><ele>148.5</ele><time>2026-05-02T07:37:42.66Z</time></trkpt><trkpt lat="42.2934586" lon="13.9841243"><ele>149.0</ele><time>2026-05-02T07:37:43.677Z</time></trkpt><trkpt lat="42.2933626" lon="13.9839945"><ele>149.5</ele><time>2026-05-02T07:37:44.663Z</time></trkpt><trkpt lat="42.2932369" lon="13.9838719"><ele>150.0</ele><time>2026-05-02T07:37:45.671Z</time></trkpt><trkpt lat="42.2931023" lon="13.9837635"><ele>153.33333333333334</ele><time>2026-05-02T07:37:46.678Z</time></trkpt><trkpt lat="42.2929905" lon="13.983626"><ele>156.66666666666669</ele><time>2026-05-02T07:37:47.668Z</time></trkpt><trkpt lat="42.2928947" lon="13.9834598"><ele>160.0</ele><time>2026-05-02T07:37:48.656Z</time></trkpt><trkpt lat="42.2927775" lon="13.9832382"><ele>160.0</ele><time>2026-05-02T07:37:49.67Z</time></trkpt><trkpt lat="42.2926674" lon="13.9830074"><ele>160.0</ele><time>2026-05-02T07:37:50.677Z</time></trkpt><trkpt lat="42.2925515" lon="13.9828041"><ele>160.0</ele><time>2026-05-02T07:37:51.667Z</time></trkpt><trkpt lat="42.2924401" lon="13.9826232"><ele>158.66666666666669</ele><time>2026-05-02T07:37:52.667Z</time></trkpt><trkpt lat="42.2923321" lon="13.9824273"><ele>157.33333333333334</ele><time>2026-05-02T07:37:53.668Z</time></trkpt><trkpt lat="42.2922165" lon="13.9822388"><ele>156.0</ele><time>2026-05-02T07:37:54.676Z</time></trkpt><trkpt lat="42.2921197" lon="13.9820883"><ele>158.75</ele><time>2026-05-02T07:37:55.667Z</time></trkpt><trkpt lat="42.2920277" lon="13.981946"><ele>161.5</ele><time>2026-05-02T07:37:56.667Z</time></trkpt><trkpt lat="42.2919256" lon="13.9817865"><ele>164.25</ele><time>2026-05-02T07:37:57.67Z</time></trkpt><trkpt lat="42.2918251" lon="13.9816437"><ele>167.0</ele><time>2026-05-02T07:37:58.672Z</time></trkpt><trkpt lat="42.2917189" lon="13.9815009"><ele>167.0</ele><time>2026-05-02T07:37:59.682Z</time></trkpt><trkpt lat="42.2916251" lon="13.9813737"><ele>167.0</ele><time>2026-05-02T07:38:00.678Z</time></trkpt><trkpt lat="42.2915444" lon="13.9812744"><ele>167.0</ele><time>2026-05-02T07:38:01.676Z</time></trkpt><trkpt lat="42.2914773" lon="13.9811941"><ele>167.0</ele><time>2026-05-02T07:38:02.677Z</time></trkpt><trkpt lat="42.2914087" lon="13.9811323"><ele>167.0</ele><time>2026-05-02T07:38:03.671Z</time></trkpt><trkpt lat="42.2913478" lon="13.9810993"><ele>167.33333333333331</ele><time>2026-05-02T07:38:04.681Z</time></trkpt><trkpt lat="42.2912725" lon="13.9810733"><ele>167.66666666666666</ele><time>2026-05-02T07:38:05.666Z</time></trkpt><trkpt lat="42.2911946" lon="13.9810712"><ele>168.0</ele><time>2026-05-02T07:38:06.666Z</time></trkpt><trkpt lat="42.2911189" lon="13.9810753"><ele>168.33333333333334</ele><time>2026-05-02T07:38:07.665Z</time></trkpt><trkpt lat="42.2910089" lon="13.9810383"><ele>168.66666666666669</ele><time>2026-05-02T07:38:09.669Z</time></trkpt><trkpt lat="42.2909561" lon="13.9809631"><ele>169.0</ele><time>2026-05-02T07:38:10.668Z</time></trkpt><trkpt lat="42.290927" lon="13.9808272"><ele>169.0</ele><time>2026-05-02T07:38:11.664Z</time></trkpt><trkpt lat="42.2908968" lon="13.9806785"><ele>169.0</ele><time>2026-05-02T07:38:12.665Z</time></trkpt><trkpt lat="42.290871" lon="13.9805271"><ele>169.0</ele><time>2026-05-02T07:38:13.663Z</time></trkpt><trkpt lat="42.290871" lon="13.9803491"><ele>169.0</ele><time>2026-05-02T07:38:14.662Z</time></trkpt><trkpt lat="42.2908532" lon="13.9801662"><ele>169.5</ele><time>2026-05-02T07:38:15.673Z</time></trkpt><trkpt lat="42.290798" lon="13.9800166"><ele>170.0</ele><time>2026-05-02T07:38:16.667Z</time></trkpt><trkpt lat="42.2907087" lon="13.97986"><ele>170.5</ele><time>2026-05-02T07:38:17.671Z</time></trkpt><trkpt lat="42.2905949" lon="13.9797252"><ele>171.0</ele><time>2026-05-02T07:38:18.673Z</time></trkpt><trkpt lat="42.2904734" lon="13.9796111"><ele>173.8</ele><time>2026-05-02T07:38:19.665Z</time></trkpt><trkpt lat="42.290362" lon="13.9795238"><ele>176.60000000000002</ele><time>2026-05-02T07:38:20.669Z</time></trkpt><trkpt lat="42.2903085" lon="13.9794376"><ele>179.4</ele><time>2026-05-02T07:38:21.675Z</time></trkpt><trkpt lat="42.2902944" lon="13.9793177"><ele>182.2</ele><time>2026-05-02T07:38:22.671Z</time></trkpt><trkpt lat="42.290305" lon="13.9792"><ele>185.0</ele><time>2026-05-02T07:38:23.683Z</time></trkpt><trkpt lat="42.2903385" lon="13.979088"><ele>185.0</ele><time>2026-05-02T07:38:24.667Z</time></trkpt><trkpt lat="42.2903855" lon="13.9789595"><ele>185.0</ele><time>2026-05-02T07:38:25.673Z</time></trkpt><trkpt lat="42.2904237" lon="13.9788254"><ele>185.0</ele><time>2026-05-02T07:38:26.673Z</time></trkpt><trkpt lat="42.2904121" lon="13.9787167"><ele>185.0</ele><time>2026-05-02T07:38:27.664Z</time></trkpt><trkpt lat="42.2903721" lon="13.9786277"><ele>185.0</ele><time>2026-05-02T07:38:28.67Z</time></trkpt><trkpt lat="42.2902544" lon="13.9785979"><ele>185.0</ele><time>2026-05-02T07:38:30.664Z</time></trkpt><trkpt lat="42.2901817" lon="13.978642"><ele>185.0</ele><time>2026-05-02T07:38:31.665Z</time></trkpt><trkpt lat="42.2901014" lon="13.9787049"><ele>185.0</ele><time>2026-05-02T07:38:32.674Z</time></trkpt><trkpt lat="42.2900248" lon="13.9787712"><ele>185.0</ele><time>2026-05-02T07:38:33.673Z</time></trkpt><trkpt lat="42.2899438" lon="13.9788246"><ele>185.0</ele><time>2026-05-02T07:38:34.664Z</time></trkpt><trkpt lat="42.2898709" lon="13.9788711"><ele>185.0</ele><time>2026-05-02T07:38:35.666Z</time></trkpt><trkpt lat="42.2898121" lon="13.9789033"><ele>187.6</ele><time>2026-05-02T07:38:36.671Z</time></trkpt><trkpt lat="42.2897042" lon="13.9789274"><ele>190.2</ele><time>2026-05-02T07:38:38.666Z</time></trkpt><trkpt lat="42.2896177" lon="13.9788658"><ele>192.8</ele><time>2026-05-02T07:38:40.663Z</time></trkpt><trkpt lat="42.289552" lon="13.9787277"><ele>195.4</ele><time>2026-05-02T07:38:42.667Z</time></trkpt><trkpt lat="42.2895306" lon="13.9785962"><ele>198.0</ele><time>2026-05-02T07:38:44.664Z</time></trkpt><trkpt lat="42.2895217" lon="13.9784754"><ele>198.0</ele><time>2026-05-02T07:38:46.661Z</time></trkpt><trkpt lat="42.2895094" lon="13.978353"><ele>198.0</ele><time>2026-05-02T07:38:48.664Z</time></trkpt><trkpt lat="42.2895047" lon="13.9782235"><ele>198.0</ele><time>2026-05-02T07:38:50.674Z</time></trkpt><trkpt lat="42.2894838" lon="13.9781085"><ele>198.0</ele><time>2026-05-02T07:38:52.673Z</time></trkpt><trkpt lat="42.2894513" lon="13.9780208"><ele>198.0</ele><time>2026-05-02T07:38:54.676Z</time></trkpt><trkpt lat="42.289401" lon="13.9779548"><ele>198.0</ele><time>2026-05-02T07:38:56.668Z</time></trkpt><trkpt lat="42.2893239" lon="13.9778938"><ele>198.60000000000002</ele><time>2026-05-02T07:38:58.667Z</time></trkpt><trkpt lat="42.2892117" lon="13.9778906"><ele>199.20000000000002</ele><time>2026-05-02T07:39:00.652Z</time></trkpt><trkpt lat="42.2891376" lon="13.9779122"><ele>199.8</ele><time>2026-05-02T07:39:01.667Z</time></trkpt><trkpt lat="42.2890538" lon="13.9779535"><ele>200.4</ele><time>2026-05-02T07:39:02.655Z</time></trkpt><trkpt lat="42.2889681" lon="13.9780133"><ele>201.0</ele><time>2026-05-02T07:39:03.662Z</time></trkpt><trkpt lat="42.2888849" lon="13.9780984"><ele>203.60000000000002</ele><time>2026-05-02T07:39:04.676Z</time></trkpt><trkpt lat="42.2888172" lon="13.9782063"><ele>206.2</ele><time>2026-05-02T07:39:05.674Z</time></trkpt><trkpt lat="42.28877" lon="13.9783394"><ele>208.79999999999998</ele><time>2026-05-02T07:39:06.66Z</time></trkpt><trkpt lat="42.2887255" lon="13.9784752"><ele>211.39999999999998</ele><time>2026-05-02T07:39:07.667Z</time></trkpt><trkpt lat="42.2886684" lon="13.9786061"><ele>214.0</ele><time>2026-05-02T07:39:08.666Z</time></trkpt><trkpt lat="42.2885924" lon="13.9787441"><ele>214.0</ele><time>2026-05-02T07:39:09.66Z</time></trkpt><trkpt lat="42.2885016" lon="13.9788658"><ele>213.99999999999997</ele><time>2026-05-02T07:39:10.669Z</time></trkpt><trkpt lat="42.2884605" lon="13.9789425"><ele>213.99999999999997</ele><time>2026-05-02T07:39:11.671Z</time></trkpt><trkpt lat="42.2884317" lon="13.9790902"><ele>214.0</ele><time>2026-05-02T07:39:13.671Z</time></trkpt><trkpt lat="42.2884156" lon="13.9792438"><ele>214.0</ele><time>2026-05-02T07:39:15.685Z</time></trkpt><trkpt lat="42.2883999" lon="13.9793925"><ele>214.79999999999998</ele><time>2026-05-02T07:39:17.672Z</time></trkpt><trkpt lat="42.2883897" lon="13.9795726"><ele>215.59999999999997</ele><time>2026-05-02T07:39:19.673Z</time></trkpt><trkpt lat="42.2883866" lon="13.9796881"><ele>216.4</ele><time>2026-05-02T07:39:20.659Z</time></trkpt><trkpt lat="42.2883827" lon="13.9798067"><ele>217.2</ele><time>2026-05-02T07:39:21.663Z</time></trkpt><trkpt lat="42.2883711" lon="13.9798974"><ele>218.0</ele><time>2026-05-02T07:39:22.681Z</time></trkpt><trkpt lat="42.288347" lon="13.9800645"><ele>218.50000000000003</ele><time>2026-05-02T07:39:24.663Z</time></trkpt><trkpt lat="42.2883445" lon="13.9801621"><ele>219.0</ele><time>2026-05-02T07:39:25.663Z</time></trkpt><trkpt lat="42.2883722" lon="13.9802449"><ele>219.5</ele><time>2026-05-02T07:39:26.672Z</time></trkpt><trkpt lat="42.2884071" lon="13.9803193"><ele>220.0</ele><time>2026-05-02T07:39:27.668Z</time></trkpt><trkpt lat="42.2884441" lon="13.9803974"><ele>220.50000000000003</ele><time>2026-05-02T07:39:28.655Z</time></trkpt><trkpt lat="42.2884845" lon="13.9805443"><ele>221.0</ele><time>2026-05-02T07:39:30.671Z</time></trkpt><trkpt lat="42.2884797" lon="13.9806312"><ele>221.0</ele><time>2026-05-02T07:39:31.663Z</time></trkpt><trkpt lat="42.2884559" lon="13.9807179"><ele>221.00000000000003</ele><time>2026-05-02T07:39:32.665Z</time></trkpt><trkpt lat="42.2883849" lon="13.9808225"><ele>221.00000000000003</ele><time>2026-05-02T07:39:34.675Z</time></trkpt><trkpt lat="42.2882925" lon="13.9808291"><ele>221.0</ele><time>2026-05-02T07:39:36.671Z</time></trkpt><trkpt lat="42.2882045" lon="13.9807601"><ele>221.0</ele><time>2026-05-02T07:39:38.673Z</time></trkpt><trkpt lat="42.28815" lon="13.9806074"><ele>221.0</ele><time>2026-05-02T07:39:40.668Z</time></trkpt><trkpt lat="42.2880983" lon="13.9805319"><ele>221.00000000000003</ele><time>2026-05-02T07:39:41.669Z</time></trkpt><trkpt lat="42.2879825" lon="13.9805294"><ele>221.00000000000003</ele><time>2026-05-02T07:39:43.673Z</time></trkpt><trkpt lat="42.2879251" lon="13.9806523"><ele>221.0</ele><time>2026-05-02T07:39:45.661Z</time></trkpt><trkpt lat="42.2879277" lon="13.9807471"><ele>221.0</ele><time>2026-05-02T07:39:46.655Z</time></trkpt><trkpt lat="42.28795" lon="13.9808615"><ele>227.4</ele><time>2026-05-02T07:39:47.655Z</time></trkpt><trkpt lat="42.2879642" lon="13.9809999"><ele>233.8</ele><time>2026-05-02T07:39:48.667Z</time></trkpt><trkpt lat="42.2879792" lon="13.9811527"><ele>240.20000000000002</ele><time>2026-05-02T07:39:49.668Z</time></trkpt><trkpt lat="42.2880003" lon="13.9812925"><ele>246.60000000000002</ele><time>2026-05-02T07:39:50.671Z</time></trkpt><trkpt lat="42.2880024" lon="13.9813887"><ele>253.0</ele><time>2026-05-02T07:39:51.654Z</time></trkpt><trkpt lat="42.2879336" lon="13.9814586"><ele>252.99999999999997</ele><time>2026-05-02T07:39:53.662Z</time></trkpt><trkpt lat="42.2878435" lon="13.9814071"><ele>253.0</ele><time>2026-05-02T07:39:55.653Z</time></trkpt><trkpt lat="42.2878084" lon="13.9813234"><ele>253.0</ele><time>2026-05-02T07:39:56.659Z</time></trkpt><trkpt lat="42.2877751" lon="13.9812211"><ele>253.0</ele><time>2026-05-02T07:39:57.678Z</time></trkpt><trkpt lat="42.2877348" lon="13.9811455"><ele>252.99999999999997</ele><time>2026-05-02T07:39:58.678Z</time></trkpt><trkpt lat="42.2876439" lon="13.9810732"><ele>253.0</ele><time>2026-05-02T07:40:00.661Z</time></trkpt><trkpt lat="42.2875705" lon="13.9810526"><ele>253.0</ele><time>2026-05-02T07:40:01.662Z</time></trkpt><trkpt lat="42.2874746" lon="13.9810164"><ele>253.0</ele><time>2026-05-02T07:40:02.667Z</time></trkpt><trkpt lat="42.2873677" lon="13.9809831"><ele>253.0</ele><time>2026-05-02T07:40:03.664Z</time></trkpt><trkpt lat="42.2872867" lon="13.9809576"><ele>253.0</ele><time>2026-05-02T07:40:04.674Z</time></trkpt><trkpt lat="42.2872243" lon="13.9809456"><ele>253.0</ele><time>2026-05-02T07:40:05.666Z</time></trkpt><trkpt lat="42.2871145" lon="13.9808985"><ele>253.8</ele><time>2026-05-02T07:40:07.668Z</time></trkpt><trkpt lat="42.2870144" lon="13.9807957"><ele>254.60000000000002</ele><time>2026-05-02T07:40:09.671Z</time></trkpt><trkpt lat="42.2869891" lon="13.9807032"><ele>255.39999999999998</ele><time>2026-05-02T07:40:10.659Z</time></trkpt><trkpt lat="42.2869789" lon="13.9806012"><ele>256.2</ele><time>2026-05-02T07:40:11.675Z</time></trkpt><trkpt lat="42.2869796" lon="13.9804646"><ele>257.0</ele><time>2026-05-02T07:40:12.664Z</time></trkpt><trkpt lat="42.2869841" lon="13.9803045"><ele>257.0</ele><time>2026-05-02T07:40:13.664Z</time></trkpt><trkpt lat="42.2869844" lon="13.9801234"><ele>257.0</ele><time>2026-05-02T07:40:14.666Z</time></trkpt><trkpt lat="42.2869737" lon="13.9799692"><ele>257.0</ele><time>2026-05-02T07:40:15.668Z</time></trkpt><trkpt lat="42.2869515" lon="13.9798371"><ele>257.0</ele><time>2026-05-02T07:40:16.676Z</time></trkpt><trkpt lat="42.2869227" lon="13.9797027"><ele>257.25</ele><time>2026-05-02T07:40:17.676Z</time></trkpt><trkpt lat="42.2868908" lon="13.9795485"><ele>257.5</ele><time>2026-05-02T07:40:18.668Z</time></trkpt><trkpt lat="42.2868636" lon="13.979394"><ele>257.75</ele><time>2026-05-02T07:40:19.679Z</time></trkpt><trkpt lat="42.2868641" lon="13.9792194"><ele>258.0</ele><time>2026-05-02T07:40:20.667Z</time></trkpt><trkpt lat="42.286845" lon="13.97902"><ele>257.75</ele><time>2026-05-02T07:40:21.677Z</time></trkpt><trkpt lat="42.2868041" lon="13.9788163"><ele>257.5</ele><time>2026-05-02T07:40:22.675Z</time></trkpt><trkpt lat="42.2867549" lon="13.9786274"><ele>257.25</ele><time>2026-05-02T07:40:23.665Z</time></trkpt><trkpt lat="42.2866988" lon="13.9784724"><ele>257.0</ele><time>2026-05-02T07:40:24.669Z</time></trkpt><trkpt lat="42.2866323" lon="13.9783369"><ele>257.0</ele><time>2026-05-02T07:40:25.659Z</time></trkpt><trkpt lat="42.2865447" lon="13.9782014"><ele>257.0</ele><time>2026-05-02T07:40:26.652Z</time></trkpt><trkpt lat="42.286426" lon="13.9780836"><ele>257.0</ele><time>2026-05-02T07:40:27.669Z</time></trkpt><trkpt lat="42.2863051" lon="13.9779484"><ele>257.0</ele><time>2026-05-02T07:40:28.662Z</time></trkpt><trkpt lat="42.286198" lon="13.9777986"><ele>258.75</ele><time>2026-05-02T07:40:29.669Z</time></trkpt><trkpt lat="42.2860956" lon="13.9776322"><ele>260.5</ele><time>2026-05-02T07:40:30.68Z</time></trkpt><trkpt lat="42.2860081" lon="13.9774678"><ele>262.25</ele><time>2026-05-02T07:40:31.66Z</time></trkpt><trkpt lat="42.2859251" lon="13.9773304"><ele>264.0</ele><time>2026-05-02T07:40:32.671Z</time></trkpt><trkpt lat="42.2858144" lon="13.9772006"><ele>264.0</ele><time>2026-05-02T07:40:33.671Z</time></trkpt><trkpt lat="42.2856882" lon="13.9770696"><ele>264.0</ele><time>2026-05-02T07:40:34.671Z</time></trkpt><trkpt lat="42.2855648" lon="13.9769564"><ele>264.0</ele><time>2026-05-02T07:40:35.666Z</time></trkpt><trkpt lat="42.2854616" lon="13.97687"><ele>264.0</ele><time>2026-05-02T07:40:36.666Z</time></trkpt><trkpt lat="42.2853909" lon="13.9767831"><ele>265.0</ele><time>2026-05-02T07:40:37.667Z</time></trkpt><trkpt lat="42.2853483" lon="13.9766905"><ele>266.0</ele><time>2026-05-02T07:40:38.66Z</time></trkpt><trkpt lat="42.2853348" lon="13.9766006"><ele>267.0</ele><time>2026-05-02T07:40:39.672Z</time></trkpt><trkpt lat="42.2853556" lon="13.9764725"><ele>268.0</ele><time>2026-05-02T07:40:40.669Z</time></trkpt><trkpt lat="42.2853818" lon="13.9763116"><ele>269.0</ele><time>2026-05-02T07:40:41.673Z</time></trkpt><trkpt lat="42.2854102" lon="13.9761009"><ele>269.0</ele><time>2026-05-02T07:40:42.679Z</time></trkpt><trkpt lat="42.2854154" lon="13.975879"><ele>269.0</ele><time>2026-05-02T07:40:43.664Z</time></trkpt><trkpt lat="42.2854019" lon="13.9756913"><ele>269.0</ele><time>2026-05-02T07:40:44.67Z</time></trkpt><trkpt lat="42.2853711" lon="13.9755399"><ele>269.0</ele><time>2026-05-02T07:40:45.664Z</time></trkpt><trkpt lat="42.2853409" lon="13.9753895"><ele>270.25</ele><time>2026-05-02T07:40:46.668Z</time></trkpt><trkpt lat="42.285323" lon="13.9752446"><ele>271.5</ele><time>2026-05-02T07:40:47.663Z</time></trkpt><trkpt lat="42.2852899" lon="13.9750804"><ele>272.75</ele><time>2026-05-02T07:40:48.668Z</time></trkpt><trkpt lat="42.2852423" lon="13.9749151"><ele>274.0</ele><time>2026-05-02T07:40:49.658Z</time></trkpt><trkpt lat="42.2851788" lon="13.9747615"><ele>274.5</ele><time>2026-05-02T07:40:50.677Z</time></trkpt><trkpt lat="42.2851087" lon="13.9746163"><ele>275.0</ele><time>2026-05-02T07:40:51.662Z</time></trkpt><trkpt lat="42.2850386" lon="13.9744752"><ele>275.5</ele><time>2026-05-02T07:40:52.664Z</time></trkpt><trkpt lat="42.2849657" lon="13.974309"><ele>276.0</ele><time>2026-05-02T07:40:53.661Z</time></trkpt><trkpt lat="42.2848902" lon="13.9741402"><ele>276.25</ele><time>2026-05-02T07:40:54.664Z</time></trkpt><trkpt lat="42.2848124" lon="13.9739736"><ele>276.5</ele><time>2026-05-02T07:40:55.665Z</time></trkpt><trkpt lat="42.2847459" lon="13.9738131"><ele>276.75</ele><time>2026-05-02T07:40:56.664Z</time></trkpt><trkpt lat="42.2846834" lon="13.9736562"><ele>277.0</ele><time>2026-05-02T07:40:57.674Z</time></trkpt><trkpt lat="42.284639" lon="13.9735146"><ele>278.8333333333333</ele><time>2026-05-02T07:40:58.669Z</time></trkpt><trkpt lat="42.2845994" lon="13.973412"><ele>280.66666666666663</ele><time>2026-05-02T07:40:59.688Z</time></trkpt><trkpt lat="42.284559" lon="13.9733243"><ele>282.5</ele><time>2026-05-02T07:41:00.673Z</time></trkpt><trkpt lat="42.2845165" lon="13.973257"><ele>284.3333333333333</ele><time>2026-05-02T07:41:01.674Z</time></trkpt><trkpt lat="42.2844452" lon="13.9731724"><ele>286.1666666666667</ele><time>2026-05-02T07:41:03.672Z</time></trkpt><trkpt lat="42.2843835" lon="13.9731009"><ele>288.0</ele><time>2026-05-02T07:41:06.675Z</time></trkpt><trkpt lat="42.2843258" lon="13.9730205"><ele>288.6</ele><time>2026-05-02T07:41:10.659Z</time></trkpt><trkpt lat="42.2842697" lon="13.9729464"><ele>289.20000000000005</ele><time>2026-05-02T07:41:20.66Z</time></trkpt><trkpt lat="42.284206" lon="13.9729147"><ele>289.8</ele><time>2026-05-02T07:41:21.677Z</time></trkpt><trkpt lat="42.2841278" lon="13.9728788"><ele>290.40000000000003</ele><time>2026-05-02T07:41:22.666Z</time></trkpt><trkpt lat="42.2840327" lon="13.9728167"><ele>291.0</ele><time>2026-05-02T07:41:23.66Z</time></trkpt><trkpt lat="42.2839076" lon="13.9727237"><ele>293.0</ele><time>2026-05-02T07:41:24.661Z</time></trkpt><trkpt lat="42.2837558" lon="13.97264"><ele>295.0</ele><time>2026-05-02T07:41:25.67Z</time></trkpt><trkpt lat="42.2835937" lon="13.9725657"><ele>297.0</ele><time>2026-05-02T07:41:26.653Z</time></trkpt><trkpt lat="42.2834373" lon="13.972529"><ele>296.2</ele><time>2026-05-02T07:41:27.673Z</time></trkpt><trkpt lat="42.2833049" lon="13.9725223"><ele>295.4</ele><time>2026-05-02T07:41:28.674Z</time></trkpt><trkpt lat="42.2832005" lon="13.9724963"><ele>294.6</ele><time>2026-05-02T07:41:29.663Z</time></trkpt><trkpt lat="42.2831156" lon="13.9724352"><ele>293.8</ele><time>2026-05-02T07:41:30.667Z</time></trkpt><trkpt lat="42.283042" lon="13.9723282"><ele>293.0</ele><time>2026-05-02T07:41:31.672Z</time></trkpt><trkpt lat="42.2829874" lon="13.9722199"><ele>294.1428571428571</ele><time>2026-05-02T07:41:32.67Z</time></trkpt><trkpt lat="42.2829379" lon="13.972148"><ele>295.2857142857143</ele><time>2026-05-02T07:41:33.663Z</time></trkpt><trkpt lat="42.2828892" lon="13.9720687"><ele>296.42857142857144</ele><time>2026-05-02T07:41:35.661Z</time></trkpt><trkpt lat="42.2829057" lon="13.9719786"><ele>297.57142857142856</ele><time>2026-05-02T07:41:38.669Z</time></trkpt><trkpt lat="42.2829442" lon="13.9719035"><ele>298.7142857142857</ele><time>2026-05-02T07:41:40.669Z</time></trkpt><trkpt lat="42.2829844" lon="13.9718325"><ele>299.85714285714283</ele><time>2026-05-02T07:41:41.668Z</time></trkpt><trkpt lat="42.2830317" lon="13.9717235"><ele>301.0</ele><time>2026-05-02T07:41:42.664Z</time></trkpt><trkpt lat="42.2830807" lon="13.9715932"><ele>298.5</ele><time>2026-05-02T07:41:43.684Z</time></trkpt><trkpt lat="42.2831231" lon="13.9714428"><ele>296.0</ele><time>2026-05-02T07:41:44.673Z</time></trkpt><trkpt lat="42.2831762" lon="13.9712814"><ele>293.5</ele><time>2026-05-02T07:41:45.67Z</time></trkpt><trkpt lat="42.2832549" lon="13.9711274"><ele>291.0</ele><time>2026-05-02T07:41:46.669Z</time></trkpt><trkpt lat="42.2833412" lon="13.9710059"><ele>291.0</ele><time>2026-05-02T07:41:47.665Z</time></trkpt><trkpt lat="42.2834512" lon="13.9708921"><ele>291.0</ele><time>2026-05-02T07:41:48.659Z</time></trkpt><trkpt lat="42.2835706" lon="13.9707597"><ele>291.0</ele><time>2026-05-02T07:41:49.666Z</time></trkpt><trkpt lat="42.2836649" lon="13.9706331"><ele>291.0</ele><time>2026-05-02T07:41:50.666Z</time></trkpt><trkpt lat="42.2837638" lon="13.9705667"><ele>290.75</ele><time>2026-05-02T07:41:51.667Z</time></trkpt><trkpt lat="42.2838701" lon="13.9705439"><ele>290.5</ele><time>2026-05-02T07:41:52.665Z</time></trkpt><trkpt lat="42.2839925" lon="13.9705452"><ele>290.25</ele><time>2026-05-02T07:41:53.671Z</time></trkpt><trkpt lat="42.2841357" lon="13.9705403"><ele>290.0</ele><time>2026-05-02T07:41:54.661Z</time></trkpt><trkpt lat="42.2842646" lon="13.9705223"><ele>289.5</ele><time>2026-05-02T07:41:55.658Z</time></trkpt><trkpt lat="42.2843947" lon="13.9704912"><ele>289.0</ele><time>2026-05-02T07:41:56.669Z</time></trkpt><trkpt lat="42.2845441" lon="13.970457"><ele>288.5</ele><time>2026-05-02T07:41:57.66Z</time></trkpt><trkpt lat="42.2846951" lon="13.9704083"><ele>288.0</ele><time>2026-05-02T07:41:58.672Z</time></trkpt><trkpt lat="42.2848242" lon="13.9703733"><ele>288.0</ele><time>2026-05-02T07:41:59.666Z</time></trkpt><trkpt lat="42.2849563" lon="13.9703307"><ele>288.0</ele><time>2026-05-02T07:42:00.664Z</time></trkpt><trkpt lat="42.2850832" lon="13.9702909"><ele>288.0</ele><time>2026-05-02T07:42:01.664Z</time></trkpt><trkpt lat="42.2851783" lon="13.9702479"><ele>288.0</ele><time>2026-05-02T07:42:02.668Z</time></trkpt><trkpt lat="42.2852478" lon="13.9702111"><ele>288.0</ele><time>2026-05-02T07:42:03.673Z</time></trkpt><trkpt lat="42.2853133" lon="13.9701443"><ele>288.0</ele><time>2026-05-02T07:42:04.666Z</time></trkpt><trkpt lat="42.285373" lon="13.9700584"><ele>288.0</ele><time>2026-05-02T07:42:05.661Z</time></trkpt><trkpt lat="42.2854238" lon="13.9699497"><ele>288.0</ele><time>2026-05-02T07:42:06.666Z</time></trkpt><trkpt lat="42.2854837" lon="13.9697817"><ele>288.0</ele><time>2026-05-02T07:42:07.664Z</time></trkpt><trkpt lat="42.285557" lon="13.9696019"><ele>288.0</ele><time>2026-05-02T07:42:08.669Z</time></trkpt><trkpt lat="42.2856381" lon="13.9693999"><ele>288.0</ele><time>2026-05-02T07:42:09.664Z</time></trkpt><trkpt lat="42.2857176" lon="13.9692125"><ele>288.0</ele><time>2026-05-02T07:42:10.676Z</time></trkpt><trkpt lat="42.2857825" lon="13.9690411"><ele>290.0</ele><time>2026-05-02T07:42:11.669Z</time></trkpt><trkpt lat="42.2858276" lon="13.9688907"><ele>292.0</ele><time>2026-05-02T07:42:12.664Z</time></trkpt><trkpt lat="42.2858823" lon="13.9687629"><ele>294.0</ele><time>2026-05-02T07:42:13.665Z</time></trkpt><trkpt lat="42.28594" lon="13.9686531"><ele>296.0</ele><time>2026-05-02T07:42:14.673Z</time></trkpt><trkpt lat="42.2860385" lon="13.9685447"><ele>296.0</ele><time>2026-05-02T07:42:15.659Z</time></trkpt><trkpt lat="42.2861389" lon="13.9684429"><ele>296.0</ele><time>2026-05-02T07:42:16.672Z</time></trkpt><trkpt lat="42.2862018" lon="13.9683345"><ele>296.0</ele><time>2026-05-02T07:42:17.661Z</time></trkpt><trkpt lat="42.2862612" lon="13.9682311"><ele>296.0</ele><time>2026-05-02T07:42:18.667Z</time></trkpt><trkpt lat="42.2863241" lon="13.9681188"><ele>296.0</ele><time>2026-05-02T07:42:19.67Z</time></trkpt><trkpt lat="42.2863959" lon="13.9679874"><ele>296.0</ele><time>2026-05-02T07:42:20.668Z</time></trkpt><trkpt lat="42.2864674" lon="13.9678159"><ele>296.0</ele><time>2026-05-02T07:42:21.669Z</time></trkpt><trkpt lat="42.2865562" lon="13.9676521"><ele>296.0</ele><time>2026-05-02T07:42:22.664Z</time></trkpt><trkpt lat="42.286647" lon="13.9674853"><ele>296.0</ele><time>2026-05-02T07:42:23.669Z</time></trkpt><trkpt lat="42.2867404" lon="13.9673273"><ele>296.0</ele><time>2026-05-02T07:42:24.672Z</time></trkpt><trkpt lat="42.2868319" lon="13.9671827"><ele>296.0</ele><time>2026-05-02T07:42:25.665Z</time></trkpt><trkpt lat="42.2869088" lon="13.967058"><ele>296.0</ele><time>2026-05-02T07:42:26.667Z</time></trkpt><trkpt lat="42.2869619" lon="13.9669274"><ele>296.0</ele><time>2026-05-02T07:42:27.664Z</time></trkpt><trkpt lat="42.286987" lon="13.9667867"><ele>298.75</ele><time>2026-05-02T07:42:28.663Z</time></trkpt><trkpt lat="42.2869748" lon="13.96663"><ele>301.5</ele><time>2026-05-02T07:42:29.672Z</time></trkpt><trkpt lat="42.2869457" lon="13.966455"><ele>304.25</ele><time>2026-05-02T07:42:30.672Z</time></trkpt><trkpt lat="42.2868943" lon="13.9662549"><ele>307.0</ele><time>2026-05-02T07:42:31.664Z</time></trkpt><trkpt lat="42.2868264" lon="13.9660262"><ele>308.66666666666663</ele><time>2026-05-02T07:42:32.668Z</time></trkpt><trkpt lat="42.2867499" lon="13.9657866"><ele>310.3333333333333</ele><time>2026-05-02T07:42:33.665Z</time></trkpt><trkpt lat="42.2866712" lon="13.9655552"><ele>312.0</ele><time>2026-05-02T07:42:34.676Z</time></trkpt><trkpt lat="42.286607" lon="13.96536"><ele>312.0</ele><time>2026-05-02T07:42:35.675Z</time></trkpt><trkpt lat="42.286578" lon="13.9651759"><ele>312.0</ele><time>2026-05-02T07:42:36.665Z</time></trkpt><trkpt lat="42.2865536" lon="13.9650025"><ele>312.0</ele><time>2026-05-02T07:42:37.669Z</time></trkpt><trkpt lat="42.2865478" lon="13.964814"><ele>312.0</ele><time>2026-05-02T07:42:38.667Z</time></trkpt><trkpt lat="42.2865575" lon="13.9646342"><ele>312.2</ele><time>2026-05-02T07:42:39.661Z</time></trkpt><trkpt lat="42.2865694" lon="13.9644706"><ele>312.4</ele><time>2026-05-02T07:42:40.662Z</time></trkpt><trkpt lat="42.2865961" lon="13.9643447"><ele>312.6</ele><time>2026-05-02T07:42:41.665Z</time></trkpt><trkpt lat="42.2866324" lon="13.9642372"><ele>312.8</ele><time>2026-05-02T07:42:42.668Z</time></trkpt><trkpt lat="42.2866779" lon="13.9641426"><ele>313.0</ele><time>2026-05-02T07:42:43.666Z</time></trkpt><trkpt lat="42.2867371" lon="13.9640405"><ele>313.3333333333333</ele><time>2026-05-02T07:42:44.676Z</time></trkpt><trkpt lat="42.286795" lon="13.9639608"><ele>313.66666666666663</ele><time>2026-05-02T07:42:45.662Z</time></trkpt><trkpt lat="42.2868507" lon="13.963877"><ele>314.0</ele><time>2026-05-02T07:42:46.669Z</time></trkpt><trkpt lat="42.2868931" lon="13.9637906"><ele>314.3333333333333</ele><time>2026-05-02T07:42:47.667Z</time></trkpt><trkpt lat="42.2869315" lon="13.9636869"><ele>314.6666666666667</ele><time>2026-05-02T07:42:48.668Z</time></trkpt><trkpt lat="42.2869478" lon="13.9635803"><ele>315.0</ele><time>2026-05-02T07:42:49.674Z</time></trkpt><trkpt lat="42.2869304" lon="13.9634513"><ele>313.3333333333333</ele><time>2026-05-02T07:42:50.673Z</time></trkpt><trkpt lat="42.2868743" lon="13.9632846"><ele>311.66666666666663</ele><time>2026-05-02T07:42:51.67Z</time></trkpt><trkpt lat="42.2867772" lon="13.9630765"><ele>310.0</ele><time>2026-05-02T07:42:52.669Z</time></trkpt><trkpt lat="42.286686" lon="13.9628242"><ele>310.0</ele><time>2026-05-02T07:42:53.664Z</time></trkpt><trkpt lat="42.2865906" lon="13.9625496"><ele>310.0</ele><time>2026-05-02T07:42:54.678Z</time></trkpt><trkpt lat="42.286502" lon="13.9622788"><ele>310.0</ele><time>2026-05-02T07:42:55.672Z</time></trkpt><trkpt lat="42.2864119" lon="13.962029"><ele>310.0</ele><time>2026-05-02T07:42:56.673Z</time></trkpt><trkpt lat="42.2863445" lon="13.9618156"><ele>310.0</ele><time>2026-05-02T07:42:57.665Z</time></trkpt><trkpt lat="42.2862772" lon="13.961608"><ele>310.0</ele><time>2026-05-02T07:42:58.676Z</time></trkpt><trkpt lat="42.2862169" lon="13.9614019"><ele>309.0</ele><time>2026-05-02T07:42:59.669Z</time></trkpt><trkpt lat="42.2861768" lon="13.9612043"><ele>308.0</ele><time>2026-05-02T07:43:00.68Z</time></trkpt><trkpt lat="42.2861475" lon="13.9610126"><ele>307.0</ele><time>2026-05-02T07:43:01.672Z</time></trkpt><trkpt lat="42.2861433" lon="13.9608175"><ele>306.0</ele><time>2026-05-02T07:43:02.67Z</time></trkpt><trkpt lat="42.2861522" lon="13.9606015"><ele>305.5</ele><time>2026-05-02T07:43:03.657Z</time></trkpt><trkpt lat="42.286189" lon="13.9603798"><ele>305.0</ele><time>2026-05-02T07:43:04.665Z</time></trkpt><trkpt lat="42.2862168" lon="13.9601728"><ele>304.5</ele><time>2026-05-02T07:43:05.67Z</time></trkpt><trkpt lat="42.2862386" lon="13.9600111"><ele>304.0</ele><time>2026-05-02T07:43:06.673Z</time></trkpt><trkpt lat="42.2862455" lon="13.9598895"><ele>304.0</ele><time>2026-05-02T07:43:07.678Z</time></trkpt><trkpt lat="42.28624" lon="13.9597714"><ele>304.0</ele><time>2026-05-02T07:43:09.666Z</time></trkpt><trkpt lat="42.2862612" lon="13.9596137"><ele>304.0</ele><time>2026-05-02T07:43:12.669Z</time></trkpt><trkpt lat="42.2862623" lon="13.9594977"><ele>304.0</ele><time>2026-05-02T07:43:13.674Z</time></trkpt><trkpt lat="42.2862542" lon="13.9593851"><ele>304.0</ele><time>2026-05-02T07:43:14.67Z</time></trkpt><trkpt lat="42.2862288" lon="13.9592759"><ele>302.85714285714283</ele><time>2026-05-02T07:43:15.67Z</time></trkpt><trkpt lat="42.2861971" lon="13.9591853"><ele>301.7142857142857</ele><time>2026-05-02T07:43:16.668Z</time></trkpt><trkpt lat="42.2861564" lon="13.9591193"><ele>300.57142857142856</ele><time>2026-05-02T07:43:17.677Z</time></trkpt><trkpt lat="42.2861044" lon="13.9590519"><ele>299.42857142857144</ele><time>2026-05-02T07:43:18.683Z</time></trkpt><trkpt lat="42.2860567" lon="13.9589818"><ele>298.2857142857143</ele><time>2026-05-02T07:43:19.681Z</time></trkpt><trkpt lat="42.2860035" lon="13.9589138"><ele>297.14285714285717</ele><time>2026-05-02T07:43:20.674Z</time></trkpt><trkpt lat="42.2859345" lon="13.9588339"><ele>296.0</ele><time>2026-05-02T07:43:21.67Z</time></trkpt><trkpt lat="42.2858615" lon="13.9587537"><ele>296.0</ele><time>2026-05-02T07:43:22.678Z</time></trkpt><trkpt lat="42.2857994" lon="13.9586765"><ele>296.0</ele><time>2026-05-02T07:43:23.682Z</time></trkpt><trkpt lat="42.2857418" lon="13.958599"><ele>296.0</ele><time>2026-05-02T07:43:24.671Z</time></trkpt><trkpt lat="42.2856948" lon="13.9585288"><ele>296.0</ele><time>2026-05-02T07:43:25.686Z</time></trkpt><trkpt lat="42.2856601" lon="13.9584574"><ele>296.0</ele><time>2026-05-02T07:43:26.668Z</time></trkpt><trkpt lat="42.2856313" lon="13.958365"><ele>296.0</ele><time>2026-05-02T07:43:28.673Z</time></trkpt><trkpt lat="42.2855931" lon="13.958278"><ele>296.0</ele><time>2026-05-02T07:43:30.671Z</time></trkpt><trkpt lat="42.2855028" lon="13.958163"><ele>295.5</ele><time>2026-05-02T07:43:32.659Z</time></trkpt><trkpt lat="42.2854354" lon="13.9581096"><ele>295.0</ele><time>2026-05-02T07:43:33.681Z</time></trkpt><trkpt lat="42.2853521" lon="13.9580542"><ele>294.5</ele><time>2026-05-02T07:43:35.668Z</time></trkpt><trkpt lat="42.2852708" lon="13.9580409"><ele>294.0</ele><time>2026-05-02T07:43:37.679Z</time></trkpt><trkpt lat="42.2852035" lon="13.9580338"><ele>293.5</ele><time>2026-05-02T07:43:40.67Z</time></trkpt><trkpt lat="42.2851457" lon="13.9579781"><ele>293.0</ele><time>2026-05-02T07:43:43.663Z</time></trkpt><trkpt lat="42.2850544" lon="13.9579061"><ele>293.0</ele><time>2026-05-02T07:43:46.654Z</time></trkpt><trkpt lat="42.2849724" lon="13.9578637"><ele>293.0</ele><time>2026-05-02T07:43:48.659Z</time></trkpt><trkpt lat="42.284902" lon="13.9578073"><ele>293.0</ele><time>2026-05-02T07:43:51.66Z</time></trkpt><trkpt lat="42.2848212" lon="13.9577589"><ele>293.0</ele><time>2026-05-02T07:43:54.679Z</time></trkpt><trkpt lat="42.2847105" lon="13.9576987"><ele>293.0</ele><time>2026-05-02T07:43:56.66Z</time></trkpt><trkpt lat="42.2846514" lon="13.9576555"><ele>293.0</ele><time>2026-05-02T07:43:57.667Z</time></trkpt><trkpt lat="42.2845345" lon="13.957569"><ele>291.4</ele><time>2026-05-02T07:43:59.676Z</time></trkpt><trkpt lat="42.284463" lon="13.9575286"><ele>289.8</ele><time>2026-05-02T07:44:00.667Z</time></trkpt><trkpt lat="42.2843821" lon="13.9574809"><ele>288.2</ele><time>2026-05-02T07:44:01.669Z</time></trkpt><trkpt lat="42.2843016" lon="13.9574214"><ele>286.6</ele><time>2026-05-02T07:44:02.655Z</time></trkpt><trkpt lat="42.2842124" lon="13.9573354"><ele>285.0</ele><time>2026-05-02T07:44:03.683Z</time></trkpt><trkpt lat="42.2841253" lon="13.9572239"><ele>285.0</ele><time>2026-05-02T07:44:04.668Z</time></trkpt><trkpt lat="42.2840408" lon="13.9571123"><ele>285.0</ele><time>2026-05-02T07:44:05.671Z</time></trkpt><trkpt lat="42.2839562" lon="13.9570115"><ele>285.0</ele><time>2026-05-02T07:44:06.657Z</time></trkpt><trkpt lat="42.283866" lon="13.9569044"><ele>285.0</ele><time>2026-05-02T07:44:07.66Z</time></trkpt><trkpt lat="42.2837865" lon="13.9567929"><ele>283.0</ele><time>2026-05-02T07:44:08.676Z</time></trkpt><trkpt lat="42.2837043" lon="13.9566729"><ele>281.0</ele><time>2026-05-02T07:44:09.677Z</time></trkpt><trkpt lat="42.2836057" lon="13.9565489"><ele>279.0</ele><time>2026-05-02T07:44:10.676Z</time></trkpt><trkpt lat="42.2835157" lon="13.9564151"><ele>277.0</ele><time>2026-05-02T07:44:11.685Z</time></trkpt><trkpt lat="42.2834209" lon="13.9562693"><ele>277.0</ele><time>2026-05-02T07:44:12.671Z</time></trkpt><trkpt lat="42.2833276" lon="13.9561332"><ele>277.0</ele><time>2026-05-02T07:44:13.678Z</time></trkpt><trkpt lat="42.2832316" lon="13.9560119"><ele>277.0</ele><time>2026-05-02T07:44:14.673Z</time></trkpt><trkpt lat="42.2831317" lon="13.9558939"><ele>277.0</ele><time>2026-05-02T07:44:15.678Z</time></trkpt><trkpt lat="42.2830192" lon="13.9557762"><ele>275.0</ele><time>2026-05-02T07:44:16.671Z</time></trkpt><trkpt lat="42.2829082" lon="13.9556452"><ele>273.0</ele><time>2026-05-02T07:44:17.668Z</time></trkpt><trkpt lat="42.2827975" lon="13.9555113"><ele>271.0</ele><time>2026-05-02T07:44:18.677Z</time></trkpt><trkpt lat="42.2826961" lon="13.9553864"><ele>269.0</ele><time>2026-05-02T07:44:19.677Z</time></trkpt><trkpt lat="42.2825982" lon="13.9552698"><ele>269.0</ele><time>2026-05-02T07:44:20.682Z</time></trkpt><trkpt lat="42.2825124" lon="13.9551574"><ele>269.0</ele><time>2026-05-02T07:44:21.681Z</time></trkpt><trkpt lat="42.2824261" lon="13.9550577"><ele>269.0</ele><time>2026-05-02T07:44:22.658Z</time></trkpt><trkpt lat="42.2823229" lon="13.9549826"><ele>269.0</ele><time>2026-05-02T07:44:23.67Z</time></trkpt><trkpt lat="42.2822072" lon="13.9549293"><ele>266.33333333333337</ele><time>2026-05-02T07:44:24.663Z</time></trkpt><trkpt lat="42.2820652" lon="13.9549199"><ele>263.6666666666667</ele><time>2026-05-02T07:44:25.664Z</time></trkpt><trkpt lat="42.2818972" lon="13.9549354"><ele>261.0</ele><time>2026-05-02T07:44:26.672Z</time></trkpt><trkpt lat="42.2817457" lon="13.9549379"><ele>261.0</ele><time>2026-05-02T07:44:27.681Z</time></trkpt><trkpt lat="42.2816082" lon="13.9549307"><ele>261.0</ele><time>2026-05-02T07:44:28.666Z</time></trkpt><trkpt lat="42.2814872" lon="13.9549018"><ele>261.0</ele><time>2026-05-02T07:44:29.671Z</time></trkpt><trkpt lat="42.2813753" lon="13.95483"><ele>261.0</ele><time>2026-05-02T07:44:30.665Z</time></trkpt><trkpt lat="42.2812656" lon="13.9547024"><ele>260.0</ele><time>2026-05-02T07:44:31.668Z</time></trkpt><trkpt lat="42.2811529" lon="13.9545698"><ele>259.0</ele><time>2026-05-02T07:44:32.664Z</time></trkpt><trkpt lat="42.2810229" lon="13.9544356"><ele>258.0</ele><time>2026-05-02T07:44:33.671Z</time></trkpt><trkpt lat="42.280883" lon="13.9543344"><ele>258.0</ele><time>2026-05-02T07:44:34.681Z</time></trkpt><trkpt lat="42.2807362" lon="13.9542681"><ele>258.0</ele><time>2026-05-02T07:44:35.675Z</time></trkpt><trkpt lat="42.2805923" lon="13.9541927"><ele>258.0</ele><time>2026-05-02T07:44:36.664Z</time></trkpt><trkpt lat="42.280465" lon="13.9540847"><ele>254.5</ele><time>2026-05-02T07:44:37.668Z</time></trkpt><trkpt lat="42.2803368" lon="13.9539896"><ele>251.0</ele><time>2026-05-02T07:44:38.67Z</time></trkpt><trkpt lat="42.2802072" lon="13.9539318"><ele>247.5</ele><time>2026-05-02T07:44:39.661Z</time></trkpt><trkpt lat="42.2800831" lon="13.9539112"><ele>244.0</ele><time>2026-05-02T07:44:40.664Z</time></trkpt><trkpt lat="42.2799508" lon="13.9539041"><ele>244.0</ele><time>2026-05-02T07:44:41.669Z</time></trkpt><trkpt lat="42.2798132" lon="13.9539074"><ele>244.0</ele><time>2026-05-02T07:44:42.664Z</time></trkpt><trkpt lat="42.2796773" lon="13.9538922"><ele>244.0</ele><time>2026-05-02T07:44:43.674Z</time></trkpt><trkpt lat="42.2795544" lon="13.9538291"><ele>244.0</ele><time>2026-05-02T07:44:44.666Z</time></trkpt><trkpt lat="42.279395" lon="13.9537487"><ele>243.66666666666666</ele><time>2026-05-02T07:44:45.665Z</time></trkpt><trkpt lat="42.2792055" lon="13.9536649"><ele>243.33333333333331</ele><time>2026-05-02T07:44:46.667Z</time></trkpt><trkpt lat="42.278992" lon="13.9535955"><ele>243.0</ele><time>2026-05-02T07:44:47.678Z</time></trkpt><trkpt lat="42.2787763" lon="13.9535242"><ele>244.66666666666669</ele><time>2026-05-02T07:44:48.667Z</time></trkpt><trkpt lat="42.2785923" lon="13.9534468"><ele>246.33333333333334</ele><time>2026-05-02T07:44:49.673Z</time></trkpt><trkpt lat="42.2784346" lon="13.953395"><ele>248.0</ele><time>2026-05-02T07:44:50.66Z</time></trkpt><trkpt lat="42.2783071" lon="13.9533591"><ele>245.8</ele><time>2026-05-02T07:44:51.664Z</time></trkpt><trkpt lat="42.2781883" lon="13.9533338"><ele>243.60000000000002</ele><time>2026-05-02T07:44:52.666Z</time></trkpt><trkpt lat="42.2780816" lon="13.9533063"><ele>241.39999999999998</ele><time>2026-05-02T07:44:53.664Z</time></trkpt><trkpt lat="42.2779731" lon="13.9532713"><ele>239.2</ele><time>2026-05-02T07:44:54.667Z</time></trkpt><trkpt lat="42.2778784" lon="13.9532333"><ele>237.0</ele><time>2026-05-02T07:44:55.674Z</time></trkpt><trkpt lat="42.2777746" lon="13.9532033"><ele>237.0</ele><time>2026-05-02T07:44:56.659Z</time></trkpt><trkpt lat="42.2776762" lon="13.9531851"><ele>237.0</ele><time>2026-05-02T07:44:57.672Z</time></trkpt><trkpt lat="42.2776082" lon="13.9531722"><ele>237.0</ele><time>2026-05-02T07:44:59.67Z</time></trkpt><trkpt lat="42.277543" lon="13.9531138"><ele>237.0</ele><time>2026-05-02T07:45:20.675Z</time></trkpt><trkpt lat="42.2774755" lon="13.9530891"><ele>237.0</ele><time>2026-05-02T07:46:59.676Z</time></trkpt><trkpt lat="42.2774594" lon="13.9531791"><ele>237.0</ele><time>2026-05-02T07:47:04.665Z</time></trkpt><trkpt lat="42.2775236" lon="13.953201"><ele>237.0</ele><time>2026-05-02T07:47:06.657Z</time></trkpt><trkpt lat="42.2776538" lon="13.9532169"><ele>237.0</ele><time>2026-05-02T07:47:08.668Z</time></trkpt><trkpt lat="42.2777161" lon="13.95324"><ele>237.0</ele><time>2026-05-02T07:47:09.663Z</time></trkpt><trkpt lat="42.2777927" lon="13.9532623"><ele>237.0</ele><time>2026-05-02T07:47:11.656Z</time></trkpt><trkpt lat="42.277881" lon="13.9532843"><ele>237.0</ele><time>2026-05-02T07:47:13.672Z</time></trkpt><trkpt lat="42.2779484" lon="13.9532993"><ele>237.0</ele><time>2026-05-02T07:47:14.658Z</time></trkpt><trkpt lat="42.2780231" lon="13.9533157"><ele>237.0</ele><time>2026-05-02T07:47:15.665Z</time></trkpt><trkpt lat="42.2780963" lon="13.9533396"><ele>237.0</ele><time>2026-05-02T07:47:16.658Z</time></trkpt><trkpt lat="42.2781769" lon="13.9533574"><ele>237.0</ele><time>2026-05-02T07:47:17.673Z</time></trkpt><trkpt lat="42.2782647" lon="13.9533727"><ele>237.0</ele><time>2026-05-02T07:47:18.668Z</time></trkpt><trkpt lat="42.2783596" lon="13.9534034"><ele>237.0</ele><time>2026-05-02T07:47:19.671Z</time></trkpt><trkpt lat="42.2784631" lon="13.9534407"><ele>238.5</ele><time>2026-05-02T07:47:20.656Z</time></trkpt><trkpt lat="42.2785783" lon="13.9534784"><ele>240.0</ele><time>2026-05-02T07:47:21.654Z</time></trkpt><trkpt lat="42.278697" lon="13.953524"><ele>241.5</ele><time>2026-05-02T07:47:22.662Z</time></trkpt><trkpt lat="42.2788188" lon="13.953573"><ele>243.0</ele><time>2026-05-02T07:47:23.666Z</time></trkpt><trkpt lat="42.278942" lon="13.9536119"><ele>243.0</ele><time>2026-05-02T07:47:24.662Z</time></trkpt><trkpt lat="42.2790587" lon="13.9536503"><ele>243.0</ele><time>2026-05-02T07:47:25.665Z</time></trkpt><trkpt lat="42.2791675" lon="13.953687"><ele>243.0</ele><time>2026-05-02T07:47:26.666Z</time></trkpt><trkpt lat="42.2792664" lon="13.9537273"><ele>243.0</ele><time>2026-05-02T07:47:27.668Z</time></trkpt><trkpt lat="42.2793725" lon="13.9537621"><ele>243.0</ele><time>2026-05-02T07:47:28.666Z</time></trkpt><trkpt lat="42.2794801" lon="13.953809"><ele>243.0</ele><time>2026-05-02T07:47:29.672Z</time></trkpt><trkpt lat="42.2795892" lon="13.9538582"><ele>243.0</ele><time>2026-05-02T07:47:30.657Z</time></trkpt><trkpt lat="42.2796898" lon="13.9538948"><ele>243.0</ele><time>2026-05-02T07:47:31.661Z</time></trkpt><trkpt lat="42.2797906" lon="13.9539147"><ele>243.0</ele><time>2026-05-02T07:47:32.665Z</time></trkpt><trkpt lat="42.2798893" lon="13.9539166"><ele>243.0</ele><time>2026-05-02T07:47:33.668Z</time></trkpt><trkpt lat="42.2799904" lon="13.9539013"><ele>243.16666666666666</ele><time>2026-05-02T07:47:34.665Z</time></trkpt><trkpt lat="42.2800565" lon="13.9538964"><ele>243.33333333333331</ele><time>2026-05-02T07:47:35.671Z</time></trkpt><trkpt lat="42.2801365" lon="13.9539109"><ele>243.5</ele><time>2026-05-02T07:47:38.662Z</time></trkpt><trkpt lat="42.2802221" lon="13.9539533"><ele>243.66666666666666</ele><time>2026-05-02T07:47:40.672Z</time></trkpt><trkpt lat="42.2802901" lon="13.9539901"><ele>243.83333333333331</ele><time>2026-05-02T07:47:41.664Z</time></trkpt><trkpt lat="42.2803667" lon="13.9540384"><ele>244.0</ele><time>2026-05-02T07:47:42.672Z</time></trkpt><trkpt lat="42.2804403" lon="13.9541072"><ele>244.0</ele><time>2026-05-02T07:47:43.66Z</time></trkpt><trkpt lat="42.2805304" lon="13.954183"><ele>243.99999999999997</ele><time>2026-05-02T07:47:44.674Z</time></trkpt><trkpt lat="42.2806242" lon="13.9542569"><ele>243.99999999999997</ele><time>2026-05-02T07:47:45.664Z</time></trkpt><trkpt lat="42.2807309" lon="13.9543128"><ele>244.0</ele><time>2026-05-02T07:47:46.667Z</time></trkpt><trkpt lat="42.2808371" lon="13.9543621"><ele>244.0</ele><time>2026-05-02T07:47:47.655Z</time></trkpt><trkpt lat="42.280934" lon="13.9544133"><ele>247.5</ele><time>2026-05-02T07:47:48.671Z</time></trkpt><trkpt lat="42.2810333" lon="13.9544888"><ele>251.0</ele><time>2026-05-02T07:47:49.675Z</time></trkpt><trkpt lat="42.2811303" lon="13.9545777"><ele>254.5</ele><time>2026-05-02T07:47:50.66Z</time></trkpt><trkpt lat="42.2812182" lon="13.9546816"><ele>258.0</ele><time>2026-05-02T07:47:51.679Z</time></trkpt><trkpt lat="42.2813115" lon="13.954786"><ele>258.0</ele><time>2026-05-02T07:47:52.664Z</time></trkpt><trkpt lat="42.2814051" lon="13.9548742"><ele>258.0</ele><time>2026-05-02T07:47:53.664Z</time></trkpt><trkpt lat="42.2814983" lon="13.9549372"><ele>258.0</ele><time>2026-05-02T07:47:54.664Z</time></trkpt><trkpt lat="42.2816077" lon="13.9549679"><ele>258.0</ele><time>2026-05-02T07:47:55.677Z</time></trkpt><trkpt lat="42.281746" lon="13.9549611"><ele>258.75</ele><time>2026-05-02T07:47:56.666Z</time></trkpt><trkpt lat="42.2818737" lon="13.9549551"><ele>259.5</ele><time>2026-05-02T07:47:57.665Z</time></trkpt><trkpt lat="42.2820017" lon="13.954932"><ele>260.25</ele><time>2026-05-02T07:47:58.655Z</time></trkpt><trkpt lat="42.282121" lon="13.9549273"><ele>261.0</ele><time>2026-05-02T07:47:59.667Z</time></trkpt><trkpt lat="42.2822361" lon="13.9549537"><ele>262.6</ele><time>2026-05-02T07:48:00.663Z</time></trkpt><trkpt lat="42.2823333" lon="13.9549932"><ele>264.20000000000005</ele><time>2026-05-02T07:48:01.674Z</time></trkpt><trkpt lat="42.2824232" lon="13.9550544"><ele>265.79999999999995</ele><time>2026-05-02T07:48:02.665Z</time></trkpt><trkpt lat="42.2825059" lon="13.9551434"><ele>267.4</ele><time>2026-05-02T07:48:03.658Z</time></trkpt><trkpt lat="42.2825965" lon="13.9552501"><ele>269.0</ele><time>2026-05-02T07:48:04.672Z</time></trkpt><trkpt lat="42.2826931" lon="13.9553728"><ele>269.0</ele><time>2026-05-02T07:48:05.662Z</time></trkpt><trkpt lat="42.2828043" lon="13.9555052"><ele>269.0</ele><time>2026-05-02T07:48:06.668Z</time></trkpt><trkpt lat="42.2829212" lon="13.9556395"><ele>269.0</ele><time>2026-05-02T07:48:07.66Z</time></trkpt><trkpt lat="42.2830413" lon="13.9557717"><ele>271.6666666666667</ele><time>2026-05-02T07:48:08.658Z</time></trkpt><trkpt lat="42.2831597" lon="13.9559086"><ele>274.3333333333333</ele><time>2026-05-02T07:48:09.661Z</time></trkpt><trkpt lat="42.2832797" lon="13.9560535"><ele>277.0</ele><time>2026-05-02T07:48:10.661Z</time></trkpt><trkpt lat="42.2833899" lon="13.9562155"><ele>277.0</ele><time>2026-05-02T07:48:11.659Z</time></trkpt><trkpt lat="42.2834941" lon="13.9563761"><ele>277.0</ele><time>2026-05-02T07:48:12.678Z</time></trkpt><trkpt lat="42.2836051" lon="13.956541"><ele>277.0</ele><time>2026-05-02T07:48:13.674Z</time></trkpt><trkpt lat="42.2837145" lon="13.9566942"><ele>279.0</ele><time>2026-05-02T07:48:14.663Z</time></trkpt><trkpt lat="42.2838176" lon="13.9568248"><ele>281.0</ele><time>2026-05-02T07:48:15.678Z</time></trkpt><trkpt lat="42.2839094" lon="13.9569456"><ele>283.0</ele><time>2026-05-02T07:48:16.664Z</time></trkpt><trkpt lat="42.2839998" lon="13.9570608"><ele>285.0</ele><time>2026-05-02T07:48:17.668Z</time></trkpt><trkpt lat="42.2840851" lon="13.957161"><ele>285.0</ele><time>2026-05-02T07:48:18.666Z</time></trkpt><trkpt lat="42.2841687" lon="13.957271"><ele>285.0</ele><time>2026-05-02T07:48:19.665Z</time></trkpt><trkpt lat="42.2842591" lon="13.9573803"><ele>285.0</ele><time>2026-05-02T07:48:20.672Z</time></trkpt><trkpt lat="42.2843632" lon="13.9574784"><ele>285.0</ele><time>2026-05-02T07:48:21.671Z</time></trkpt><trkpt lat="42.28447" lon="13.9575649"><ele>285.75</ele><time>2026-05-02T07:48:22.664Z</time></trkpt><trkpt lat="42.2845789" lon="13.9576456"><ele>286.5</ele><time>2026-05-02T07:48:23.665Z</time></trkpt><trkpt lat="42.2846869" lon="13.9577168"><ele>287.25</ele><time>2026-05-02T07:48:24.657Z</time></trkpt><trkpt lat="42.2847923" lon="13.9577711"><ele>288.0</ele><time>2026-05-02T07:48:25.66Z</time></trkpt><trkpt lat="42.2848771" lon="13.9578301"><ele>288.8333333333333</ele><time>2026-05-02T07:48:26.659Z</time></trkpt><trkpt lat="42.2849563" lon="13.9578729"><ele>289.6666666666667</ele><time>2026-05-02T07:48:27.665Z</time></trkpt><trkpt lat="42.2850243" lon="13.957913"><ele>290.5</ele><time>2026-05-02T07:48:28.667Z</time></trkpt><trkpt lat="42.2850813" lon="13.9579501"><ele>291.33333333333337</ele><time>2026-05-02T07:48:29.668Z</time></trkpt><trkpt lat="42.285133" lon="13.9579989"><ele>292.1666666666667</ele><time>2026-05-02T07:48:31.661Z</time></trkpt><trkpt lat="42.2851711" lon="13.9580771"><ele>293.0</ele><time>2026-05-02T07:48:34.669Z</time></trkpt><trkpt lat="42.2852632" lon="13.9581249"><ele>293.0</ele><time>2026-05-02T07:48:37.657Z</time></trkpt><trkpt lat="42.285354" lon="13.9580754"><ele>293.0</ele><time>2026-05-02T07:48:39.66Z</time></trkpt><trkpt lat="42.2854183" lon="13.9580381"><ele>293.0</ele><time>2026-05-02T07:48:42.664Z</time></trkpt><trkpt lat="42.2854881" lon="13.9580793"><ele>293.0</ele><time>2026-05-02T07:48:47.662Z</time></trkpt><trkpt lat="42.2855047" lon="13.9581644"><ele>293.0</ele><time>2026-05-02T07:48:50.665Z</time></trkpt><trkpt lat="42.2854309" lon="13.9581513"><ele>293.0</ele><time>2026-05-02T07:48:53.658Z</time></trkpt><trkpt lat="42.2853659" lon="13.9581943"><ele>293.0</ele><time>2026-05-02T07:50:50.665Z</time></trkpt><trkpt lat="42.2853182" lon="13.9581301"><ele>293.0</ele><time>2026-05-02T07:54:22.673Z</time></trkpt><trkpt lat="42.2852379" lon="13.9580369"><ele>293.0</ele><time>2026-05-02T07:54:24.656Z</time></trkpt><trkpt lat="42.2851919" lon="13.9579757"><ele>293.0</ele><time>2026-05-02T07:54:25.66Z</time></trkpt><trkpt lat="42.2851233" lon="13.957919"><ele>293.0</ele><time>2026-05-02T07:54:26.665Z</time></trkpt><trkpt lat="42.2850283" lon="13.9578733"><ele>293.0</ele><time>2026-05-02T07:54:27.657Z</time></trkpt><trkpt lat="42.2849174" lon="13.9578244"><ele>293.0</ele><time>2026-05-02T07:54:28.666Z</time></trkpt><trkpt lat="42.2847965" lon="13.9577454"><ele>293.0</ele><time>2026-05-02T07:54:29.655Z</time></trkpt><trkpt lat="42.2846457" lon="13.9576527"><ele>293.0</ele><time>2026-05-02T07:54:30.679Z</time></trkpt><trkpt lat="42.2844913" lon="13.9575459"><ele>290.33333333333337</ele><time>2026-05-02T07:54:31.673Z</time></trkpt><trkpt lat="42.2843363" lon="13.9574343"><ele>287.6666666666667</ele><time>2026-05-02T07:54:32.668Z</time></trkpt><trkpt lat="42.2841912" lon="13.9572879"><ele>285.0</ele><time>2026-05-02T07:54:33.673Z</time></trkpt><trkpt lat="42.2840472" lon="13.9571198"><ele>285.0</ele><time>2026-05-02T07:54:34.669Z</time></trkpt><trkpt lat="42.2838913" lon="13.9569173"><ele>285.0</ele><time>2026-05-02T07:54:35.667Z</time></trkpt><trkpt lat="42.2837355" lon="13.9567191"><ele>285.0</ele><time>2026-05-02T07:54:36.663Z</time></trkpt><trkpt lat="42.2835797" lon="13.9565103"><ele>282.3333333333333</ele><time>2026-05-02T07:54:37.673Z</time></trkpt><trkpt lat="42.2834269" lon="13.9562887"><ele>279.66666666666663</ele><time>2026-05-02T07:54:38.665Z</time></trkpt><trkpt lat="42.2832819" lon="13.9560785"><ele>277.0</ele><time>2026-05-02T07:54:39.69Z</time></trkpt><trkpt lat="42.2831247" lon="13.9558845"><ele>274.3333333333333</ele><time>2026-05-02T07:54:40.673Z</time></trkpt><trkpt lat="42.2829567" lon="13.9556987"><ele>271.6666666666667</ele><time>2026-05-02T07:54:41.696Z</time></trkpt><trkpt lat="42.2828018" lon="13.9555221"><ele>269.0</ele><time>2026-05-02T07:54:42.669Z</time></trkpt><trkpt lat="42.2826668" lon="13.9553509"><ele>269.0</ele><time>2026-05-02T07:54:43.669Z</time></trkpt><trkpt lat="42.2825403" lon="13.9551919"><ele>269.0</ele><time>2026-05-02T07:54:44.664Z</time></trkpt><trkpt lat="42.2824235" lon="13.9550766"><ele>269.0</ele><time>2026-05-02T07:54:45.675Z</time></trkpt><trkpt lat="42.2823026" lon="13.9549847"><ele>266.33333333333337</ele><time>2026-05-02T07:54:46.682Z</time></trkpt><trkpt lat="42.2821635" lon="13.9549311"><ele>263.6666666666667</ele><time>2026-05-02T07:54:47.668Z</time></trkpt><trkpt lat="42.2820006" lon="13.9549176"><ele>261.0</ele><time>2026-05-02T07:54:48.658Z</time></trkpt><trkpt lat="42.2818181" lon="13.9549265"><ele>261.0</ele><time>2026-05-02T07:54:49.667Z</time></trkpt><trkpt lat="42.2816495" lon="13.9549333"><ele>261.0</ele><time>2026-05-02T07:54:50.675Z</time></trkpt><trkpt lat="42.2815085" lon="13.9549101"><ele>261.0</ele><time>2026-05-02T07:54:51.676Z</time></trkpt><trkpt lat="42.2813853" lon="13.9548417"><ele>261.0</ele><time>2026-05-02T07:54:52.679Z</time></trkpt><trkpt lat="42.2812804" lon="13.9547522"><ele>260.0</ele><time>2026-05-02T07:54:53.661Z</time></trkpt><trkpt lat="42.2811703" lon="13.9546276"><ele>259.0</ele><time>2026-05-02T07:54:54.677Z</time></trkpt><trkpt lat="42.2810507" lon="13.9544985"><ele>258.0</ele><time>2026-05-02T07:54:55.664Z</time></trkpt><trkpt lat="42.2809062" lon="13.9544017"><ele>258.0</ele><time>2026-05-02T07:54:56.675Z</time></trkpt><trkpt lat="42.2807439" lon="13.9543235"><ele>258.0</ele><time>2026-05-02T07:54:57.676Z</time></trkpt><trkpt lat="42.2805514" lon="13.954203"><ele>258.0</ele><time>2026-05-02T07:54:58.662Z</time></trkpt><trkpt lat="42.2803721" lon="13.954057"><ele>254.5</ele><time>2026-05-02T07:54:59.677Z</time></trkpt><trkpt lat="42.2802301" lon="13.9539668"><ele>251.0</ele><time>2026-05-02T07:55:00.66Z</time></trkpt><trkpt lat="42.2800976" lon="13.9539264"><ele>247.5</ele><time>2026-05-02T07:55:01.67Z</time></trkpt><trkpt lat="42.2799512" lon="13.9539097"><ele>244.0</ele><time>2026-05-02T07:55:02.666Z</time></trkpt><trkpt lat="42.2797868" lon="13.9538995"><ele>243.66666666666666</ele><time>2026-05-02T07:55:03.659Z</time></trkpt><trkpt lat="42.279618" lon="13.9538573"><ele>243.33333333333331</ele><time>2026-05-02T07:55:04.674Z</time></trkpt><trkpt lat="42.2794473" lon="13.9537702"><ele>243.0</ele><time>2026-05-02T07:55:05.667Z</time></trkpt><trkpt lat="42.279265" lon="13.9536887"><ele>243.0</ele><time>2026-05-02T07:55:06.673Z</time></trkpt><trkpt lat="42.2790793" lon="13.9536195"><ele>243.0</ele><time>2026-05-02T07:55:07.66Z</time></trkpt><trkpt lat="42.2789053" lon="13.9535644"><ele>243.0</ele><time>2026-05-02T07:55:08.662Z</time></trkpt><trkpt lat="42.2787546" lon="13.9535188"><ele>244.66666666666669</ele><time>2026-05-02T07:55:09.669Z</time></trkpt><trkpt lat="42.2786042" lon="13.9534533"><ele>246.33333333333334</ele><time>2026-05-02T07:55:10.675Z</time></trkpt><trkpt lat="42.2784486" lon="13.9533922"><ele>248.0</ele><time>2026-05-02T07:55:11.669Z</time></trkpt><trkpt lat="42.2782804" lon="13.9533394"><ele>245.25</ele><time>2026-05-02T07:55:12.678Z</time></trkpt><trkpt lat="42.2781168" lon="13.9532983"><ele>242.5</ele><time>2026-05-02T07:55:13.665Z</time></trkpt><trkpt lat="42.2779655" lon="13.9532542"><ele>239.75</ele><time>2026-05-02T07:55:14.668Z</time></trkpt><trkpt lat="42.2778473" lon="13.953223"><ele>237.0</ele><time>2026-05-02T07:55:15.661Z</time></trkpt><trkpt lat="42.2777538" lon="13.9531998"><ele>237.0</ele><time>2026-05-02T07:55:16.677Z</time></trkpt><trkpt lat="42.2776462" lon="13.9531722"><ele>237.0</ele><time>2026-05-02T07:55:17.669Z</time></trkpt><trkpt lat="42.2775305" lon="13.9531428"><ele>237.0</ele><time>2026-05-02T07:55:18.68Z</time></trkpt><trkpt lat="42.2774162" lon="13.9531066"><ele>237.0</ele><time>2026-05-02T07:55:19.68Z</time></trkpt><trkpt lat="42.2773152" lon="13.9530699"><ele>237.0</ele><time>2026-05-02T07:55:20.689Z</time></trkpt><trkpt lat="42.2772442" lon="13.9530308"><ele>237.0</ele><time>2026-05-02T07:55:21.659Z</time></trkpt><trkpt lat="42.2771849" lon="13.9529969"><ele>237.0</ele><time>2026-05-02T07:55:23.669Z</time></trkpt><trkpt lat="42.2772164" lon="13.9529164"><ele>237.0</ele><time>2026-05-02T07:55:26.656Z</time></trkpt><trkpt lat="42.277325" lon="13.9529606"><ele>237.0</ele><time>2026-05-02T07:55:28.657Z</time></trkpt><trkpt lat="42.2774004" lon="13.9529759"><ele>237.0</ele><time>2026-05-02T07:55:29.655Z</time></trkpt><trkpt lat="42.2774939" lon="13.9529986"><ele>237.0</ele><time>2026-05-02T07:55:30.677Z</time></trkpt><trkpt lat="42.2775781" lon="13.9530003"><ele>236.99999999999997</ele><time>2026-05-02T07:55:31.659Z</time></trkpt><trkpt lat="42.2776471" lon="13.9529872"><ele>237.0</ele><time>2026-05-02T07:55:32.656Z</time></trkpt><trkpt lat="42.2777115" lon="13.9529518"><ele>236.99999999999997</ele><time>2026-05-02T07:55:33.661Z</time></trkpt><trkpt lat="42.27777" lon="13.9528872"><ele>236.99999999999997</ele><time>2026-05-02T07:55:34.66Z</time></trkpt><trkpt lat="42.2778114" lon="13.9528109"><ele>237.0</ele><time>2026-05-02T07:55:35.677Z</time></trkpt><trkpt lat="42.2778382" lon="13.9527232"><ele>236.99999999999997</ele><time>2026-05-02T07:55:36.663Z</time></trkpt><trkpt lat="42.2778438" lon="13.9526329"><ele>236.99999999999997</ele><time>2026-05-02T07:55:37.686Z</time></trkpt><trkpt lat="42.277791" lon="13.9524836"><ele>234.6</ele><time>2026-05-02T07:55:39.668Z</time></trkpt><trkpt lat="42.2777333" lon="13.9523948"><ele>232.2</ele><time>2026-05-02T07:55:40.673Z</time></trkpt><trkpt lat="42.2776468" lon="13.9523067"><ele>229.8</ele><time>2026-05-02T07:55:41.66Z</time></trkpt><trkpt lat="42.2775572" lon="13.9522418"><ele>227.4</ele><time>2026-05-02T07:55:42.668Z</time></trkpt><trkpt lat="42.2774799" lon="13.9521807"><ele>225.0</ele><time>2026-05-02T07:55:43.672Z</time></trkpt><trkpt lat="42.2774149" lon="13.952123"><ele>225.0</ele><time>2026-05-02T07:55:44.669Z</time></trkpt><trkpt lat="42.2773589" lon="13.952014"><ele>225.0</ele><time>2026-05-02T07:55:46.661Z</time></trkpt><trkpt lat="42.2773529" lon="13.9519028"><ele>225.0</ele><time>2026-05-02T07:55:47.665Z</time></trkpt><trkpt lat="42.2773612" lon="13.9517652"><ele>225.0</ele><time>2026-05-02T07:55:48.653Z</time></trkpt><trkpt lat="42.2773745" lon="13.9516462"><ele>225.0</ele><time>2026-05-02T07:55:49.655Z</time></trkpt><trkpt lat="42.2773938" lon="13.9515522"><ele>225.0</ele><time>2026-05-02T07:55:50.667Z</time></trkpt><trkpt lat="42.2774518" lon="13.9514803"><ele>223.0</ele><time>2026-05-02T07:55:52.679Z</time></trkpt><trkpt lat="42.2775634" lon="13.9514886"><ele>221.0</ele><time>2026-05-02T07:55:54.658Z</time></trkpt><trkpt lat="42.2776376" lon="13.9515063"><ele>219.0</ele><time>2026-05-02T07:55:55.658Z</time></trkpt><trkpt lat="42.2777104" lon="13.9515052"><ele>217.0</ele><time>2026-05-02T07:55:56.649Z</time></trkpt><trkpt lat="42.2777649" lon="13.9514291"><ele>215.0</ele><time>2026-05-02T07:55:58.654Z</time></trkpt><trkpt lat="42.2777399" lon="13.951325"><ele>213.0</ele><time>2026-05-02T07:56:00.669Z</time></trkpt><trkpt lat="42.2776968" lon="13.9512373"><ele>213.0</ele><time>2026-05-02T07:56:01.656Z</time></trkpt><trkpt lat="42.2776363" lon="13.9511273"><ele>213.0</ele><time>2026-05-02T07:56:02.667Z</time></trkpt><trkpt lat="42.277562" lon="13.9509685"><ele>213.0</ele><time>2026-05-02T07:56:03.658Z</time></trkpt><trkpt lat="42.2774716" lon="13.9507686"><ele>213.0</ele><time>2026-05-02T07:56:04.668Z</time></trkpt><trkpt lat="42.2773761" lon="13.9505816"><ele>210.0</ele><time>2026-05-02T07:56:05.668Z</time></trkpt><trkpt lat="42.2772879" lon="13.9504056"><ele>207.0</ele><time>2026-05-02T07:56:06.654Z</time></trkpt><trkpt lat="42.2771831" lon="13.9502542"><ele>204.0</ele><time>2026-05-02T07:56:07.67Z</time></trkpt><trkpt lat="42.2770969" lon="13.9501397"><ele>201.0</ele><time>2026-05-02T07:56:08.668Z</time></trkpt><trkpt lat="42.2770281" lon="13.9500628"><ele>199.4</ele><time>2026-05-02T07:56:09.668Z</time></trkpt><trkpt lat="42.2769378" lon="13.9499764"><ele>197.8</ele><time>2026-05-02T07:56:11.691Z</time></trkpt><trkpt lat="42.2769515" lon="13.9498854"><ele>196.20000000000002</ele><time>2026-05-02T07:56:13.685Z</time></trkpt><trkpt lat="42.2770642" lon="13.9498549"><ele>194.60000000000002</ele><time>2026-05-02T07:56:15.661Z</time></trkpt><trkpt lat="42.2771611" lon="13.9498559"><ele>193.0</ele><time>2026-05-02T07:56:16.653Z</time></trkpt><trkpt lat="42.2772578" lon="13.9498399"><ele>192.33333333333331</ele><time>2026-05-02T07:56:17.663Z</time></trkpt><trkpt lat="42.2773326" lon="13.9497865"><ele>191.66666666666666</ele><time>2026-05-02T07:56:18.664Z</time></trkpt><trkpt lat="42.2773809" lon="13.9497105"><ele>191.0</ele><time>2026-05-02T07:56:19.651Z</time></trkpt><trkpt lat="42.2774121" lon="13.9496"><ele>190.33333333333331</ele><time>2026-05-02T07:56:20.658Z</time></trkpt><trkpt lat="42.2774074" lon="13.9494851"><ele>189.66666666666666</ele><time>2026-05-02T07:56:21.653Z</time></trkpt><trkpt lat="42.2773773" lon="13.9493948"><ele>189.0</ele><time>2026-05-02T07:56:22.666Z</time></trkpt><trkpt lat="42.2773193" lon="13.9493406"><ele>188.39999999999998</ele><time>2026-05-02T07:56:23.666Z</time></trkpt><trkpt lat="42.2772333" lon="13.9492837"><ele>187.8</ele><time>2026-05-02T07:56:24.671Z</time></trkpt><trkpt lat="42.2771479" lon="13.9492697"><ele>187.2</ele><time>2026-05-02T07:56:25.67Z</time></trkpt><trkpt lat="42.2770796" lon="13.9492567"><ele>186.60000000000002</ele><time>2026-05-02T07:56:26.671Z</time></trkpt><trkpt lat="42.2769427" lon="13.9491631"><ele>186.0</ele><time>2026-05-02T07:56:28.659Z</time></trkpt><trkpt lat="42.2768447" lon="13.9490768"><ele>186.0</ele><time>2026-05-02T07:56:29.665Z</time></trkpt><trkpt lat="42.2767515" lon="13.948968"><ele>186.0</ele><time>2026-05-02T07:56:30.673Z</time></trkpt><trkpt lat="42.2766788" lon="13.9488489"><ele>186.0</ele><time>2026-05-02T07:56:31.658Z</time></trkpt><trkpt lat="42.276623" lon="13.9487019"><ele>186.0</ele><time>2026-05-02T07:56:32.667Z</time></trkpt><trkpt lat="42.2765938" lon="13.9485515"><ele>187.25</ele><time>2026-05-02T07:56:33.672Z</time></trkpt><trkpt lat="42.2765609" lon="13.9483579"><ele>188.5</ele><time>2026-05-02T07:56:34.663Z</time></trkpt><trkpt lat="42.2765294" lon="13.9481715"><ele>189.75</ele><time>2026-05-02T07:56:35.671Z</time></trkpt><trkpt lat="42.2764997" lon="13.9479679"><ele>191.0</ele><time>2026-05-02T07:56:36.666Z</time></trkpt><trkpt lat="42.2764714" lon="13.9477526"><ele>192.66666666666666</ele><time>2026-05-02T07:56:37.67Z</time></trkpt><trkpt lat="42.2764397" lon="13.9475366"><ele>194.33333333333331</ele><time>2026-05-02T07:56:38.674Z</time></trkpt><trkpt lat="42.2764165" lon="13.9473068"><ele>196.0</ele><time>2026-05-02T07:56:39.657Z</time></trkpt><trkpt lat="42.2763871" lon="13.9470638"><ele>195.33333333333331</ele><time>2026-05-02T07:56:40.681Z</time></trkpt><trkpt lat="42.2763457" lon="13.9468172"><ele>194.66666666666669</ele><time>2026-05-02T07:56:41.671Z</time></trkpt><trkpt lat="42.2763066" lon="13.946608"><ele>194.0</ele><time>2026-05-02T07:56:42.683Z</time></trkpt><trkpt lat="42.276263" lon="13.9464448"><ele>194.0</ele><time>2026-05-02T07:56:43.659Z</time></trkpt><trkpt lat="42.2762228" lon="13.9463193"><ele>194.0</ele><time>2026-05-02T07:56:44.691Z</time></trkpt><trkpt lat="42.2761807" lon="13.9462451"><ele>194.0</ele><time>2026-05-02T07:56:45.667Z</time></trkpt><trkpt lat="42.2761092" lon="13.9461658"><ele>194.0</ele><time>2026-05-02T07:56:46.662Z</time></trkpt><trkpt lat="42.2760116" lon="13.9460848"><ele>194.0</ele><time>2026-05-02T07:56:47.681Z</time></trkpt><trkpt lat="42.2758944" lon="13.9460118"><ele>194.0</ele><time>2026-05-02T07:56:48.681Z</time></trkpt><trkpt lat="42.2757543" lon="13.9459148"><ele>194.0</ele><time>2026-05-02T07:56:49.665Z</time></trkpt><trkpt lat="42.2756272" lon="13.9458256"><ele>194.0</ele><time>2026-05-02T07:56:50.661Z</time></trkpt><trkpt lat="42.2755388" lon="13.9457422"><ele>194.0</ele><time>2026-05-02T07:56:51.679Z</time></trkpt><trkpt lat="42.2754841" lon="13.9456522"><ele>193.79999999999998</ele><time>2026-05-02T07:56:52.668Z</time></trkpt><trkpt lat="42.2754607" lon="13.9455604"><ele>193.6</ele><time>2026-05-02T07:56:53.67Z</time></trkpt><trkpt lat="42.275483" lon="13.9454347"><ele>193.4</ele><time>2026-05-02T07:56:55.674Z</time></trkpt><trkpt lat="42.2755349" lon="13.9453861"><ele>193.2</ele><time>2026-05-02T07:56:56.657Z</time></trkpt><trkpt lat="42.2756641" lon="13.9453643"><ele>193.0</ele><time>2026-05-02T07:56:58.666Z</time></trkpt><trkpt lat="42.2757638" lon="13.9453375"><ele>197.0</ele><time>2026-05-02T07:56:59.677Z</time></trkpt><trkpt lat="42.2758802" lon="13.9452985"><ele>201.0</ele><time>2026-05-02T07:57:00.68Z</time></trkpt><trkpt lat="42.2760191" lon="13.9452548"><ele>205.0</ele><time>2026-05-02T07:57:01.658Z</time></trkpt><trkpt lat="42.2761727" lon="13.9452192"><ele>209.0</ele><time>2026-05-02T07:57:02.672Z</time></trkpt><trkpt lat="42.2763394" lon="13.9451845"><ele>211.66666666666669</ele><time>2026-05-02T07:57:03.675Z</time></trkpt><trkpt lat="42.2765154" lon="13.945146"><ele>214.33333333333331</ele><time>2026-05-02T07:57:04.672Z</time></trkpt><trkpt lat="42.2766786" lon="13.9451112"><ele>217.0</ele><time>2026-05-02T07:57:05.672Z</time></trkpt><trkpt lat="42.276816" lon="13.945072"><ele>218.0</ele><time>2026-05-02T07:57:06.668Z</time></trkpt><trkpt lat="42.2769106" lon="13.9450175"><ele>219.0</ele><time>2026-05-02T07:57:07.68Z</time></trkpt><trkpt lat="42.2769752" lon="13.9449473"><ele>220.0</ele><time>2026-05-02T07:57:08.66Z</time></trkpt><trkpt lat="42.2770196" lon="13.9448613"><ele>221.0</ele><time>2026-05-02T07:57:09.65Z</time></trkpt><trkpt lat="42.2770483" lon="13.944755"><ele>222.0</ele><time>2026-05-02T07:57:10.651Z</time></trkpt><trkpt lat="42.2770711" lon="13.9446116"><ele>222.0</ele><time>2026-05-02T07:57:11.656Z</time></trkpt><trkpt lat="42.2770865" lon="13.9444783"><ele>222.0</ele><time>2026-05-02T07:57:12.681Z</time></trkpt><trkpt lat="42.2771076" lon="13.9443815"><ele>222.0</ele><time>2026-05-02T07:57:13.656Z</time></trkpt><trkpt lat="42.2771469" lon="13.9442031"><ele>222.0</ele><time>2026-05-02T07:57:15.657Z</time></trkpt><trkpt lat="42.2771667" lon="13.9440879"><ele>222.0</ele><time>2026-05-02T07:57:16.664Z</time></trkpt><trkpt lat="42.2771805" lon="13.9439558"><ele>222.2</ele><time>2026-05-02T07:57:17.671Z</time></trkpt><trkpt lat="42.277195" lon="13.9438155"><ele>222.39999999999998</ele><time>2026-05-02T07:57:18.657Z</time></trkpt><trkpt lat="42.2771942" lon="13.9436626"><ele>222.60000000000002</ele><time>2026-05-02T07:57:19.668Z</time></trkpt><trkpt lat="42.2771732" lon="13.9434966"><ele>222.8</ele><time>2026-05-02T07:57:20.669Z</time></trkpt><trkpt lat="42.2771387" lon="13.9433613"><ele>223.0</ele><time>2026-05-02T07:57:21.667Z</time></trkpt><trkpt lat="42.2770865" lon="13.9432542"><ele>224.2</ele><time>2026-05-02T07:57:22.667Z</time></trkpt><trkpt lat="42.2770285" lon="13.9431672"><ele>225.4</ele><time>2026-05-02T07:57:23.66Z</time></trkpt><trkpt lat="42.2769575" lon="13.9430948"><ele>226.59999999999997</ele><time>2026-05-02T07:57:24.652Z</time></trkpt><trkpt lat="42.2768792" lon="13.9430312"><ele>227.79999999999998</ele><time>2026-05-02T07:57:25.665Z</time></trkpt><trkpt lat="42.276806" lon="13.9429926"><ele>229.0</ele><time>2026-05-02T07:57:26.662Z</time></trkpt><trkpt lat="42.2767002" lon="13.9429582"><ele>229.0</ele><time>2026-05-02T07:57:28.683Z</time></trkpt><trkpt lat="42.2765899" lon="13.9429318"><ele>228.99999999999997</ele><time>2026-05-02T07:57:30.677Z</time></trkpt><trkpt lat="42.2765242" lon="13.9429183"><ele>228.99999999999997</ele><time>2026-05-02T07:57:31.675Z</time></trkpt><trkpt lat="42.276433" lon="13.9428892"><ele>229.0</ele><time>2026-05-02T07:57:32.671Z</time></trkpt><trkpt lat="42.2763287" lon="13.9428647"><ele>229.0</ele><time>2026-05-02T07:57:33.657Z</time></trkpt><trkpt lat="42.2762331" lon="13.942838"><ele>229.49999999999997</ele><time>2026-05-02T07:57:34.665Z</time></trkpt><trkpt lat="42.276164" lon="13.942792"><ele>230.0</ele><time>2026-05-02T07:57:35.66Z</time></trkpt><trkpt lat="42.2761173" lon="13.9427312"><ele>230.5</ele><time>2026-05-02T07:57:36.665Z</time></trkpt><trkpt lat="42.2760795" lon="13.9426453"><ele>231.0</ele><time>2026-05-02T07:57:37.668Z</time></trkpt><trkpt lat="42.2760513" lon="13.9425345"><ele>231.49999999999997</ele><time>2026-05-02T07:57:38.666Z</time></trkpt><trkpt lat="42.2760104" lon="13.9423999"><ele>232.0</ele><time>2026-05-02T07:57:39.67Z</time></trkpt><trkpt lat="42.2759594" lon="13.9422484"><ele>232.0</ele><time>2026-05-02T07:57:40.66Z</time></trkpt><trkpt lat="42.275911" lon="13.9420966"><ele>232.0</ele><time>2026-05-02T07:57:41.675Z</time></trkpt><trkpt lat="42.2758639" lon="13.9419349"><ele>232.0</ele><time>2026-05-02T07:57:42.677Z</time></trkpt><trkpt lat="42.2758035" lon="13.9417818"><ele>232.0</ele><time>2026-05-02T07:57:43.662Z</time></trkpt><trkpt lat="42.2757565" lon="13.941677"><ele>234.16666666666666</ele><time>2026-05-02T07:57:44.669Z</time></trkpt><trkpt lat="42.2757295" lon="13.941594"><ele>236.33333333333331</ele><time>2026-05-02T07:57:45.661Z</time></trkpt><trkpt lat="42.2757105" lon="13.9415068"><ele>238.5</ele><time>2026-05-02T07:57:46.666Z</time></trkpt><trkpt lat="42.2757052" lon="13.9414023"><ele>240.66666666666669</ele><time>2026-05-02T07:57:47.669Z</time></trkpt><trkpt lat="42.2756895" lon="13.9412709"><ele>242.83333333333334</ele><time>2026-05-02T07:57:48.68Z</time></trkpt><trkpt lat="42.2756616" lon="13.9411114"><ele>245.0</ele><time>2026-05-02T07:57:49.679Z</time></trkpt><trkpt lat="42.2756252" lon="13.9409352"><ele>245.6</ele><time>2026-05-02T07:57:50.669Z</time></trkpt><trkpt lat="42.2756197" lon="13.9407768"><ele>246.2</ele><time>2026-05-02T07:57:51.673Z</time></trkpt><trkpt lat="42.2756081" lon="13.940623"><ele>246.8</ele><time>2026-05-02T07:57:52.673Z</time></trkpt><trkpt lat="42.2756118" lon="13.9404991"><ele>247.4</ele><time>2026-05-02T07:57:53.665Z</time></trkpt><trkpt lat="42.2756208" lon="13.9403743"><ele>248.0</ele><time>2026-05-02T07:57:54.685Z</time></trkpt><trkpt lat="42.2756378" lon="13.9402543"><ele>248.0</ele><time>2026-05-02T07:57:55.671Z</time></trkpt><trkpt lat="42.2756506" lon="13.9401545"><ele>248.0</ele><time>2026-05-02T07:57:56.674Z</time></trkpt><trkpt lat="42.275622" lon="13.9400734"><ele>248.0</ele><time>2026-05-02T07:57:58.659Z</time></trkpt><trkpt lat="42.2755181" lon="13.9400867"><ele>248.0</ele><time>2026-05-02T07:58:01.67Z</time></trkpt><trkpt lat="42.2753805" lon="13.9401499"><ele>248.0</ele><time>2026-05-02T07:58:03.666Z</time></trkpt><trkpt lat="42.2752754" lon="13.9402173"><ele>242.66666666666669</ele><time>2026-05-02T07:58:04.663Z</time></trkpt><trkpt lat="42.2751468" lon="13.9403025"><ele>237.33333333333331</ele><time>2026-05-02T07:58:05.66Z</time></trkpt><trkpt lat="42.2750053" lon="13.9403969"><ele>232.0</ele><time>2026-05-02T07:58:06.667Z</time></trkpt><trkpt lat="42.2748662" lon="13.9404882"><ele>228.66666666666666</ele><time>2026-05-02T07:58:07.68Z</time></trkpt><trkpt lat="42.2747243" lon="13.9405828"><ele>225.33333333333331</ele><time>2026-05-02T07:58:08.671Z</time></trkpt><trkpt lat="42.2745834" lon="13.9406588"><ele>222.0</ele><time>2026-05-02T07:58:09.66Z</time></trkpt><trkpt lat="42.2744458" lon="13.9407235"><ele>222.0</ele><time>2026-05-02T07:58:10.682Z</time></trkpt><trkpt lat="42.2743151" lon="13.9407685"><ele>222.0</ele><time>2026-05-02T07:58:11.676Z</time></trkpt><trkpt lat="42.2741971" lon="13.9408057"><ele>222.0</ele><time>2026-05-02T07:58:12.653Z</time></trkpt><trkpt lat="42.2740858" lon="13.9408156"><ele>222.0</ele><time>2026-05-02T07:58:13.664Z</time></trkpt><trkpt lat="42.2739702" lon="13.9408049"><ele>217.33333333333331</ele><time>2026-05-02T07:58:14.66Z</time></trkpt><trkpt lat="42.2738407" lon="13.9407638"><ele>212.66666666666666</ele><time>2026-05-02T07:58:15.654Z</time></trkpt><trkpt lat="42.2736876" lon="13.9407116"><ele>208.0</ele><time>2026-05-02T07:58:16.654Z</time></trkpt><trkpt lat="42.2735075" lon="13.9406653"><ele>208.0</ele><time>2026-05-02T07:58:17.661Z</time></trkpt><trkpt lat="42.2733222" lon="13.9406282"><ele>208.0</ele><time>2026-05-02T07:58:18.673Z</time></trkpt><trkpt lat="42.2731549" lon="13.9405878"><ele>208.0</ele><time>2026-05-02T07:58:19.674Z</time></trkpt><trkpt lat="42.2729957" lon="13.9405401"><ele>205.25</ele><time>2026-05-02T07:58:20.664Z</time></trkpt><trkpt lat="42.2728409" lon="13.9405053"><ele>202.5</ele><time>2026-05-02T07:58:21.678Z</time></trkpt><trkpt lat="42.2726981" lon="13.9404876"><ele>199.75</ele><time>2026-05-02T07:58:22.658Z</time></trkpt><trkpt lat="42.2725803" lon="13.9404769"><ele>197.0</ele><time>2026-05-02T07:58:23.672Z</time></trkpt><trkpt lat="42.2724945" lon="13.9404595"><ele>197.0</ele><time>2026-05-02T07:58:24.667Z</time></trkpt><trkpt lat="42.2724002" lon="13.9403961"><ele>197.0</ele><time>2026-05-02T07:58:26.66Z</time></trkpt><trkpt lat="42.2724013" lon="13.9402685"><ele>197.0</ele><time>2026-05-02T07:58:28.653Z</time></trkpt><trkpt lat="42.2724573" lon="13.940171"><ele>197.0</ele><time>2026-05-02T07:58:29.675Z</time></trkpt><trkpt lat="42.2725324" lon="13.940077"><ele>197.0</ele><time>2026-05-02T07:58:30.663Z</time></trkpt><trkpt lat="42.2726348" lon="13.9399474"><ele>196.8</ele><time>2026-05-02T07:58:31.662Z</time></trkpt><trkpt lat="42.2727333" lon="13.9398267"><ele>196.6</ele><time>2026-05-02T07:58:32.668Z</time></trkpt><trkpt lat="42.2728229" lon="13.9397383"><ele>196.4</ele><time>2026-05-02T07:58:33.668Z</time></trkpt><trkpt lat="42.2728889" lon="13.9396506"><ele>196.20000000000002</ele><time>2026-05-02T07:58:34.673Z</time></trkpt><trkpt lat="42.2729305" lon="13.9395604"><ele>196.0</ele><time>2026-05-02T07:58:35.681Z</time></trkpt><trkpt lat="42.2729536" lon="13.939476"><ele>196.0</ele><time>2026-05-02T07:58:36.654Z</time></trkpt><trkpt lat="42.2729393" lon="13.9393034"><ele>196.0</ele><time>2026-05-02T07:58:38.667Z</time></trkpt><trkpt lat="42.2729017" lon="13.9391932"><ele>196.0</ele><time>2026-05-02T07:58:39.657Z</time></trkpt><trkpt lat="42.2728564" lon="13.9390953"><ele>196.0</ele><time>2026-05-02T07:58:40.666Z</time></trkpt><trkpt lat="42.2727997" lon="13.9389937"><ele>196.0</ele><time>2026-05-02T07:58:41.672Z</time></trkpt><trkpt lat="42.2727263" lon="13.9388974"><ele>194.25</ele><time>2026-05-02T07:58:42.671Z</time></trkpt><trkpt lat="42.2726351" lon="13.9387876"><ele>192.5</ele><time>2026-05-02T07:58:43.665Z</time></trkpt><trkpt lat="42.2725513" lon="13.9386833"><ele>190.75</ele><time>2026-05-02T07:58:44.672Z</time></trkpt><trkpt lat="42.2724709" lon="13.9385911"><ele>189.0</ele><time>2026-05-02T07:58:45.674Z</time></trkpt><trkpt lat="42.272367" lon="13.9385209"><ele>187.5</ele><time>2026-05-02T07:58:46.682Z</time></trkpt><trkpt lat="42.2722429" lon="13.9384655"><ele>186.0</ele><time>2026-05-02T07:58:47.677Z</time></trkpt><trkpt lat="42.2721218" lon="13.938425"><ele>184.5</ele><time>2026-05-02T07:58:48.685Z</time></trkpt><trkpt lat="42.2720123" lon="13.9383913"><ele>183.0</ele><time>2026-05-02T07:58:49.67Z</time></trkpt><trkpt lat="42.271916" lon="13.9383749"><ele>181.5</ele><time>2026-05-02T07:58:50.687Z</time></trkpt><trkpt lat="42.2718442" lon="13.9383605"><ele>180.0</ele><time>2026-05-02T07:58:51.676Z</time></trkpt><trkpt lat="42.2717544" lon="13.938281"><ele>178.5</ele><time>2026-05-02T07:58:53.674Z</time></trkpt><trkpt lat="42.2717264" lon="13.9381827"><ele>177.0</ele><time>2026-05-02T07:58:54.655Z</time></trkpt><trkpt lat="42.271699" lon="13.938066"><ele>175.5</ele><time>2026-05-02T07:58:55.677Z</time></trkpt><trkpt lat="42.2716625" lon="13.9379521"><ele>174.0</ele><time>2026-05-02T07:58:56.68Z</time></trkpt><trkpt lat="42.2715978" lon="13.9378808"><ele>174.0</ele><time>2026-05-02T07:58:57.664Z</time></trkpt><trkpt lat="42.2715041" lon="13.9378428"><ele>174.0</ele><time>2026-05-02T07:58:58.667Z</time></trkpt><trkpt lat="42.2713939" lon="13.937829"><ele>174.0</ele><time>2026-05-02T07:58:59.663Z</time></trkpt><trkpt lat="42.2712805" lon="13.9378427"><ele>174.0</ele><time>2026-05-02T07:59:00.67Z</time></trkpt><trkpt lat="42.2711874" lon="13.9378772"><ele>174.0</ele><time>2026-05-02T07:59:01.667Z</time></trkpt><trkpt lat="42.2711084" lon="13.9379336"><ele>173.39999999999998</ele><time>2026-05-02T07:59:02.672Z</time></trkpt><trkpt lat="42.2710432" lon="13.9380147"><ele>172.8</ele><time>2026-05-02T07:59:03.664Z</time></trkpt><trkpt lat="42.2709903" lon="13.938138"><ele>172.2</ele><time>2026-05-02T07:59:04.657Z</time></trkpt><trkpt lat="42.2709362" lon="13.9382726"><ele>171.60000000000002</ele><time>2026-05-02T07:59:05.669Z</time></trkpt><trkpt lat="42.2708877" lon="13.9384476"><ele>171.0</ele><time>2026-05-02T07:59:06.67Z</time></trkpt><trkpt lat="42.2708341" lon="13.9386286"><ele>171.0</ele><time>2026-05-02T07:59:07.678Z</time></trkpt><trkpt lat="42.2708011" lon="13.9388072"><ele>171.0</ele><time>2026-05-02T07:59:08.668Z</time></trkpt><trkpt lat="42.2707582" lon="13.9389713"><ele>171.0</ele><time>2026-05-02T07:59:09.669Z</time></trkpt><trkpt lat="42.2707079" lon="13.9391585"><ele>171.0</ele><time>2026-05-02T07:59:10.691Z</time></trkpt><trkpt lat="42.2706815" lon="13.9393811"><ele>171.33333333333334</ele><time>2026-05-02T07:59:11.672Z</time></trkpt><trkpt lat="42.270654" lon="13.9395827"><ele>171.66666666666669</ele><time>2026-05-02T07:59:12.678Z</time></trkpt><trkpt lat="42.270612" lon="13.9397739"><ele>172.0</ele><time>2026-05-02T07:59:13.66Z</time></trkpt><trkpt lat="42.2705365" lon="13.9399733"><ele>167.0</ele><time>2026-05-02T07:59:14.67Z</time></trkpt><trkpt lat="42.2704548" lon="13.9401743"><ele>162.0</ele><time>2026-05-02T07:59:15.662Z</time></trkpt><trkpt lat="42.2703635" lon="13.9403903"><ele>157.0</ele><time>2026-05-02T07:59:16.681Z</time></trkpt><trkpt lat="42.2702804" lon="13.9406159"><ele>157.0</ele><time>2026-05-02T07:59:17.66Z</time></trkpt><trkpt lat="42.2702194" lon="13.9408085"><ele>157.0</ele><time>2026-05-02T07:59:18.676Z</time></trkpt><trkpt lat="42.2701677" lon="13.9409762"><ele>157.0</ele><time>2026-05-02T07:59:19.651Z</time></trkpt><trkpt lat="42.2701164" lon="13.9411268"><ele>157.0</ele><time>2026-05-02T07:59:20.661Z</time></trkpt><trkpt lat="42.2700605" lon="13.9412512"><ele>157.0</ele><time>2026-05-02T07:59:21.66Z</time></trkpt><trkpt lat="42.2699959" lon="13.9413377"><ele>157.0</ele><time>2026-05-02T07:59:22.662Z</time></trkpt><trkpt lat="42.2699431" lon="13.9414177"><ele>157.0</ele><time>2026-05-02T07:59:23.676Z</time></trkpt><trkpt lat="42.2699036" lon="13.9415092"><ele>157.0</ele><time>2026-05-02T07:59:24.659Z</time></trkpt><trkpt lat="42.2698908" lon="13.9416121"><ele>157.0</ele><time>2026-05-02T07:59:25.675Z</time></trkpt><trkpt lat="42.2699021" lon="13.9417442"><ele>157.0</ele><time>2026-05-02T07:59:26.672Z</time></trkpt><trkpt lat="42.2699199" lon="13.941896"><ele>156.33333333333334</ele><time>2026-05-02T07:59:27.684Z</time></trkpt><trkpt lat="42.2699351" lon="13.9420373"><ele>155.66666666666669</ele><time>2026-05-02T07:59:28.674Z</time></trkpt><trkpt lat="42.2699267" lon="13.9421513"><ele>155.0</ele><time>2026-05-02T07:59:29.667Z</time></trkpt><trkpt lat="42.2698895" lon="13.9422247"><ele>154.33333333333334</ele><time>2026-05-02T07:59:30.668Z</time></trkpt><trkpt lat="42.2698165" lon="13.9422853"><ele>153.66666666666666</ele><time>2026-05-02T07:59:31.67Z</time></trkpt><trkpt lat="42.2697413" lon="13.9423347"><ele>153.0</ele><time>2026-05-02T07:59:32.658Z</time></trkpt><trkpt lat="42.2695932" lon="13.9423992"><ele>152.0</ele><time>2026-05-02T07:59:34.69Z</time></trkpt><trkpt lat="42.2694753" lon="13.9424374"><ele>151.0</ele><time>2026-05-02T07:59:35.67Z</time></trkpt><trkpt lat="42.2693391" lon="13.9424841"><ele>150.0</ele><time>2026-05-02T07:59:36.671Z</time></trkpt><trkpt lat="42.2692086" lon="13.9425259"><ele>149.0</ele><time>2026-05-02T07:59:37.668Z</time></trkpt><trkpt lat="42.2690758" lon="13.9425643"><ele>149.0</ele><time>2026-05-02T07:59:38.656Z</time></trkpt><trkpt lat="42.2689605" lon="13.9426068"><ele>149.0</ele><time>2026-05-02T07:59:39.686Z</time></trkpt><trkpt lat="42.2688656" lon="13.9426341"><ele>149.0</ele><time>2026-05-02T07:59:40.655Z</time></trkpt><trkpt lat="42.2687921" lon="13.9426607"><ele>149.0</ele><time>2026-05-02T07:59:41.661Z</time></trkpt><trkpt lat="42.2687299" lon="13.9426822"><ele>149.0</ele><time>2026-05-02T07:59:42.654Z</time></trkpt><trkpt lat="42.2686501" lon="13.9427017"><ele>149.0</ele><time>2026-05-02T07:59:44.667Z</time></trkpt><trkpt lat="42.2685701" lon="13.9426907"><ele>148.8</ele><time>2026-05-02T07:59:46.652Z</time></trkpt><trkpt lat="42.2685064" lon="13.9426738"><ele>148.60000000000002</ele><time>2026-05-02T07:59:47.662Z</time></trkpt><trkpt lat="42.268427" lon="13.9426382"><ele>148.4</ele><time>2026-05-02T07:59:48.66Z</time></trkpt><trkpt lat="42.2683414" lon="13.942578"><ele>148.20000000000002</ele><time>2026-05-02T07:59:49.666Z</time></trkpt><trkpt lat="42.2682477" lon="13.9424943"><ele>148.0</ele><time>2026-05-02T07:59:50.664Z</time></trkpt><trkpt lat="42.2681701" lon="13.9424038"><ele>148.0</ele><time>2026-05-02T07:59:51.662Z</time></trkpt><trkpt lat="42.268122" lon="13.9423338"><ele>148.0</ele><time>2026-05-02T07:59:52.661Z</time></trkpt><trkpt lat="42.2680603" lon="13.9423086"><ele>148.0</ele><time>2026-05-02T07:59:53.659Z</time></trkpt><trkpt lat="42.2679846" lon="13.9423132"><ele>148.0</ele><time>2026-05-02T07:59:54.668Z</time></trkpt><trkpt lat="42.2679073" lon="13.9423067"><ele>148.0</ele><time>2026-05-02T07:59:55.669Z</time></trkpt><trkpt lat="42.2678304" lon="13.9423071"><ele>148.0</ele><time>2026-05-02T07:59:56.67Z</time></trkpt><trkpt lat="42.2677382" lon="13.9422694"><ele>149.66666666666669</ele><time>2026-05-02T07:59:58.678Z</time></trkpt><trkpt lat="42.2677034" lon="13.9421515"><ele>151.33333333333334</ele><time>2026-05-02T08:00:00.661Z</time></trkpt><trkpt lat="42.2676842" lon="13.9420381"><ele>153.0</ele><time>2026-05-02T08:00:01.66Z</time></trkpt><trkpt lat="42.2676689" lon="13.9419255"><ele>154.66666666666666</ele><time>2026-05-02T08:00:02.662Z</time></trkpt><trkpt lat="42.2676522" lon="13.9418091"><ele>156.33333333333331</ele><time>2026-05-02T08:00:03.662Z</time></trkpt><trkpt lat="42.2676271" lon="13.941692"><ele>158.0</ele><time>2026-05-02T08:00:04.651Z</time></trkpt><trkpt lat="42.267587" lon="13.9415773"><ele>158.0</ele><time>2026-05-02T08:00:05.656Z</time></trkpt><trkpt lat="42.267546" lon="13.9414566"><ele>158.0</ele><time>2026-05-02T08:00:06.653Z</time></trkpt><trkpt lat="42.2674841" lon="13.9413431"><ele>158.0</ele><time>2026-05-02T08:00:07.655Z</time></trkpt><trkpt lat="42.2674137" lon="13.9412333"><ele>158.0</ele><time>2026-05-02T08:00:08.675Z</time></trkpt><trkpt lat="42.267345" lon="13.9411248"><ele>158.0</ele><time>2026-05-02T08:00:09.663Z</time></trkpt><trkpt lat="42.2672759" lon="13.9410069"><ele>162.0</ele><time>2026-05-02T08:00:10.655Z</time></trkpt><trkpt lat="42.2672035" lon="13.9408677"><ele>166.0</ele><time>2026-05-02T08:00:11.671Z</time></trkpt><trkpt lat="42.2671241" lon="13.9407113"><ele>170.0</ele><time>2026-05-02T08:00:12.66Z</time></trkpt><trkpt lat="42.2670518" lon="13.9405622"><ele>174.0</ele><time>2026-05-02T08:00:13.665Z</time></trkpt><trkpt lat="42.2669924" lon="13.940443"><ele>174.0</ele><time>2026-05-02T08:00:14.662Z</time></trkpt><trkpt lat="42.2669469" lon="13.940324"><ele>174.0</ele><time>2026-05-02T08:00:15.66Z</time></trkpt><trkpt lat="42.2668955" lon="13.9402165"><ele>174.0</ele><time>2026-05-02T08:00:16.664Z</time></trkpt><trkpt lat="42.2668154" lon="13.9401402"><ele>174.0</ele><time>2026-05-02T08:00:18.677Z</time></trkpt><trkpt lat="42.2667425" lon="13.9402313"><ele>174.0</ele><time>2026-05-02T08:00:20.661Z</time></trkpt><trkpt lat="42.2667099" lon="13.9403132"><ele>174.0</ele><time>2026-05-02T08:00:21.677Z</time></trkpt><trkpt lat="42.2666785" lon="13.9404092"><ele>174.0</ele><time>2026-05-02T08:00:22.663Z</time></trkpt><trkpt lat="42.2666386" lon="13.9405302"><ele>174.0</ele><time>2026-05-02T08:00:23.682Z</time></trkpt><trkpt lat="42.2665934" lon="13.9406493"><ele>174.0</ele><time>2026-05-02T08:00:24.677Z</time></trkpt><trkpt lat="42.2665483" lon="13.9407778"><ele>174.0</ele><time>2026-05-02T08:00:25.666Z</time></trkpt><trkpt lat="42.2664971" lon="13.9409059"><ele>173.75</ele><time>2026-05-02T08:00:26.668Z</time></trkpt><trkpt lat="42.2664504" lon="13.9410389"><ele>173.5</ele><time>2026-05-02T08:00:27.667Z</time></trkpt><trkpt lat="42.2663992" lon="13.9411798"><ele>173.25</ele><time>2026-05-02T08:00:28.688Z</time></trkpt><trkpt lat="42.2663472" lon="13.9413365"><ele>173.0</ele><time>2026-05-02T08:00:29.672Z</time></trkpt><trkpt lat="42.2663125" lon="13.9414839"><ele>177.0</ele><time>2026-05-02T08:00:30.673Z</time></trkpt><trkpt lat="42.2663033" lon="13.9416157"><ele>181.0</ele><time>2026-05-02T08:00:31.672Z</time></trkpt><trkpt lat="42.2663158" lon="13.9417358"><ele>185.0</ele><time>2026-05-02T08:00:32.652Z</time></trkpt><trkpt lat="42.2663341" lon="13.9418644"><ele>189.0</ele><time>2026-05-02T08:00:33.661Z</time></trkpt><trkpt lat="42.2663527" lon="13.9420082"><ele>193.0</ele><time>2026-05-02T08:00:34.666Z</time></trkpt><trkpt lat="42.2663758" lon="13.9421515"><ele>193.75</ele><time>2026-05-02T08:00:35.666Z</time></trkpt><trkpt lat="42.2663952" lon="13.9423009"><ele>194.5</ele><time>2026-05-02T08:00:36.655Z</time></trkpt><trkpt lat="42.2664134" lon="13.9424584"><ele>195.25</ele><time>2026-05-02T08:00:37.663Z</time></trkpt><trkpt lat="42.2664321" lon="13.9426133"><ele>196.0</ele><time>2026-05-02T08:00:38.661Z</time></trkpt><trkpt lat="42.2664556" lon="13.942757"><ele>195.99999999999997</ele><time>2026-05-02T08:00:39.657Z</time></trkpt><trkpt lat="42.2664783" lon="13.9428906"><ele>196.0</ele><time>2026-05-02T08:00:40.663Z</time></trkpt><trkpt lat="42.2664927" lon="13.9430088"><ele>196.0</ele><time>2026-05-02T08:00:41.677Z</time></trkpt><trkpt lat="42.2665034" lon="13.9431026"><ele>196.0</ele><time>2026-05-02T08:00:42.663Z</time></trkpt><trkpt lat="42.2665082" lon="13.9432269"><ele>195.99999999999997</ele><time>2026-05-02T08:00:44.658Z</time></trkpt><trkpt lat="42.2664525" lon="13.9432678"><ele>196.0</ele><time>2026-05-02T08:00:52.662Z</time></trkpt><trkpt lat="42.2663833" lon="13.943281"><ele>196.0</ele><time>2026-05-02T08:00:54.665Z</time></trkpt><trkpt lat="42.2663013" lon="13.9432852"><ele>196.0</ele><time>2026-05-02T08:00:55.66Z</time></trkpt><trkpt lat="42.2662097" lon="13.9432915"><ele>196.0</ele><time>2026-05-02T08:00:56.65Z</time></trkpt><trkpt lat="42.2661142" lon="13.9433036"><ele>196.0</ele><time>2026-05-02T08:00:57.66Z</time></trkpt><trkpt lat="42.2660115" lon="13.9433187"><ele>196.0</ele><time>2026-05-02T08:00:58.664Z</time></trkpt><trkpt lat="42.2659074" lon="13.9433315"><ele>195.99999999999997</ele><time>2026-05-02T08:00:59.669Z</time></trkpt><trkpt lat="42.2658053" lon="13.9433378"><ele>196.0</ele><time>2026-05-02T08:01:00.68Z</time></trkpt><trkpt lat="42.2657235" lon="13.9433136"><ele>196.0</ele><time>2026-05-02T08:01:01.678Z</time></trkpt><trkpt lat="42.2656577" lon="13.9432683"><ele>196.0</ele><time>2026-05-02T08:01:02.671Z</time></trkpt><trkpt lat="42.2655949" lon="13.9432148"><ele>195.99999999999997</ele><time>2026-05-02T08:01:03.659Z</time></trkpt><trkpt lat="42.2655209" lon="13.9431353"><ele>196.0</ele><time>2026-05-02T08:01:04.663Z</time></trkpt><trkpt lat="42.2654452" lon="13.9430639"><ele>195.33333333333331</ele><time>2026-05-02T08:01:05.679Z</time></trkpt><trkpt lat="42.2653815" lon="13.9429931"><ele>194.66666666666666</ele><time>2026-05-02T08:01:06.667Z</time></trkpt><trkpt lat="42.2653301" lon="13.9429133"><ele>194.0</ele><time>2026-05-02T08:01:07.668Z</time></trkpt><trkpt lat="42.2652984" lon="13.9428327"><ele>193.33333333333331</ele><time>2026-05-02T08:01:08.663Z</time></trkpt><trkpt lat="42.2652674" lon="13.9427485"><ele>192.66666666666666</ele><time>2026-05-02T08:01:09.67Z</time></trkpt><trkpt lat="42.2652281" lon="13.9426581"><ele>192.0</ele><time>2026-05-02T08:01:10.666Z</time></trkpt><trkpt lat="42.2651849" lon="13.9425581"><ele>194.5</ele><time>2026-05-02T08:01:11.659Z</time></trkpt><trkpt lat="42.2651323" lon="13.9424406"><ele>197.0</ele><time>2026-05-02T08:01:12.665Z</time></trkpt><trkpt lat="42.2650873" lon="13.9423313"><ele>199.5</ele><time>2026-05-02T08:01:13.66Z</time></trkpt><trkpt lat="42.2650575" lon="13.9422468"><ele>202.0</ele><time>2026-05-02T08:01:14.66Z</time></trkpt><trkpt lat="42.2650293" lon="13.9421641"><ele>204.5</ele><time>2026-05-02T08:01:15.673Z</time></trkpt><trkpt lat="42.2649909" lon="13.942079"><ele>207.0</ele><time>2026-05-02T08:01:16.663Z</time></trkpt><trkpt lat="42.2649548" lon="13.9419903"><ele>207.0</ele><time>2026-05-02T08:01:17.654Z</time></trkpt><trkpt lat="42.2649127" lon="13.9418899"><ele>207.0</ele><time>2026-05-02T08:01:18.689Z</time></trkpt><trkpt lat="42.2648733" lon="13.9417924"><ele>207.0</ele><time>2026-05-02T08:01:19.665Z</time></trkpt><trkpt lat="42.2648321" lon="13.9416899"><ele>207.0</ele><time>2026-05-02T08:01:20.668Z</time></trkpt><trkpt lat="42.264802" lon="13.9415704"><ele>207.0</ele><time>2026-05-02T08:01:21.66Z</time></trkpt><trkpt lat="42.2647802" lon="13.9414377"><ele>207.0</ele><time>2026-05-02T08:01:22.665Z</time></trkpt><trkpt lat="42.2647573" lon="13.9413003"><ele>207.75</ele><time>2026-05-02T08:01:23.663Z</time></trkpt><trkpt lat="42.2647399" lon="13.9411618"><ele>208.5</ele><time>2026-05-02T08:01:24.675Z</time></trkpt><trkpt lat="42.2647277" lon="13.9410002"><ele>209.25</ele><time>2026-05-02T08:01:25.675Z</time></trkpt><trkpt lat="42.2647128" lon="13.940833"><ele>210.0</ele><time>2026-05-02T08:01:26.661Z</time></trkpt><trkpt lat="42.2646937" lon="13.9406691"><ele>213.0</ele><time>2026-05-02T08:01:27.662Z</time></trkpt><trkpt lat="42.2646617" lon="13.9405061"><ele>216.0</ele><time>2026-05-02T08:01:28.673Z</time></trkpt><trkpt lat="42.2646339" lon="13.94034"><ele>219.0</ele><time>2026-05-02T08:01:29.671Z</time></trkpt><trkpt lat="42.2646027" lon="13.9401746"><ele>222.0</ele><time>2026-05-02T08:01:30.667Z</time></trkpt><trkpt lat="42.2645804" lon="13.9400002"><ele>223.25</ele><time>2026-05-02T08:01:31.668Z</time></trkpt><trkpt lat="42.2645685" lon="13.9398181"><ele>224.5</ele><time>2026-05-02T08:01:32.686Z</time></trkpt><trkpt lat="42.2645462" lon="13.9396442"><ele>225.75</ele><time>2026-05-02T08:01:33.659Z</time></trkpt><trkpt lat="42.2645162" lon="13.939494"><ele>227.0</ele><time>2026-05-02T08:01:34.662Z</time></trkpt><trkpt lat="42.2644698" lon="13.9393723"><ele>227.0</ele><time>2026-05-02T08:01:35.673Z</time></trkpt><trkpt lat="42.264417" lon="13.9392348"><ele>227.0</ele><time>2026-05-02T08:01:36.659Z</time></trkpt><trkpt lat="42.2643528" lon="13.9391134"><ele>227.0</ele><time>2026-05-02T08:01:37.675Z</time></trkpt><trkpt lat="42.2642862" lon="13.9389964"><ele>227.0</ele><time>2026-05-02T08:01:38.676Z</time></trkpt><trkpt lat="42.2642007" lon="13.9388736"><ele>224.33333333333334</ele><time>2026-05-02T08:01:39.68Z</time></trkpt><trkpt lat="42.2641015" lon="13.9387271"><ele>221.66666666666669</ele><time>2026-05-02T08:01:40.661Z</time></trkpt><trkpt lat="42.2639855" lon="13.9385799"><ele>219.0</ele><time>2026-05-02T08:01:41.666Z</time></trkpt><trkpt lat="42.2638588" lon="13.9384208"><ele>225.66666666666669</ele><time>2026-05-02T08:01:42.678Z</time></trkpt><trkpt lat="42.2637319" lon="13.9382511"><ele>232.33333333333334</ele><time>2026-05-02T08:01:43.659Z</time></trkpt><trkpt lat="42.2636188" lon="13.9380801"><ele>239.0</ele><time>2026-05-02T08:01:44.666Z</time></trkpt><trkpt lat="42.2635254" lon="13.9379007"><ele>239.0</ele><time>2026-05-02T08:01:45.671Z</time></trkpt><trkpt lat="42.2634537" lon="13.9377063"><ele>239.0</ele><time>2026-05-02T08:01:46.654Z</time></trkpt><trkpt lat="42.2633957" lon="13.9374976"><ele>239.0</ele><time>2026-05-02T08:01:47.676Z</time></trkpt><trkpt lat="42.2633483" lon="13.9373004"><ele>243.75</ele><time>2026-05-02T08:01:48.672Z</time></trkpt><trkpt lat="42.2633211" lon="13.9370828"><ele>248.5</ele><time>2026-05-02T08:01:49.656Z</time></trkpt><trkpt lat="42.2632795" lon="13.9368747"><ele>253.25</ele><time>2026-05-02T08:01:50.668Z</time></trkpt><trkpt lat="42.2632337" lon="13.9367247"><ele>258.0</ele><time>2026-05-02T08:01:51.667Z</time></trkpt><trkpt lat="42.263186" lon="13.9366155"><ele>259.4</ele><time>2026-05-02T08:01:52.674Z</time></trkpt><trkpt lat="42.263129" lon="13.9365363"><ele>260.8</ele><time>2026-05-02T08:01:53.669Z</time></trkpt><trkpt lat="42.2630594" lon="13.9364782"><ele>262.2</ele><time>2026-05-02T08:01:54.675Z</time></trkpt><trkpt lat="42.2629791" lon="13.9364508"><ele>263.6</ele><time>2026-05-02T08:01:55.67Z</time></trkpt><trkpt lat="42.2628567" lon="13.9364256"><ele>265.0</ele><time>2026-05-02T08:01:56.673Z</time></trkpt><trkpt lat="42.2627487" lon="13.9363996"><ele>265.0</ele><time>2026-05-02T08:01:57.692Z</time></trkpt><trkpt lat="42.262666" lon="13.9363539"><ele>265.0</ele><time>2026-05-02T08:01:58.685Z</time></trkpt><trkpt lat="42.262605" lon="13.9362688"><ele>265.0</ele><time>2026-05-02T08:01:59.672Z</time></trkpt><trkpt lat="42.2625356" lon="13.9361576"><ele>265.0</ele><time>2026-05-02T08:02:00.658Z</time></trkpt><trkpt lat="42.262454" lon="13.9360238"><ele>265.0</ele><time>2026-05-02T08:02:01.678Z</time></trkpt><trkpt lat="42.2623405" lon="13.9358823"><ele>267.0</ele><time>2026-05-02T08:02:02.688Z</time></trkpt><trkpt lat="42.2622166" lon="13.9357506"><ele>269.0</ele><time>2026-05-02T08:02:03.671Z</time></trkpt><trkpt lat="42.2621333" lon="13.9356682"><ele>271.0</ele><time>2026-05-02T08:02:04.665Z</time></trkpt><trkpt lat="42.2620907" lon="13.9355922"><ele>273.0</ele><time>2026-05-02T08:02:05.663Z</time></trkpt><trkpt lat="42.2620705" lon="13.9355088"><ele>275.0</ele><time>2026-05-02T08:02:06.667Z</time></trkpt><trkpt lat="42.2620749" lon="13.9354012"><ele>275.0</ele><time>2026-05-02T08:02:07.661Z</time></trkpt><trkpt lat="42.2620822" lon="13.9352741"><ele>275.0</ele><time>2026-05-02T08:02:08.667Z</time></trkpt><trkpt lat="42.2620988" lon="13.9351324"><ele>275.0</ele><time>2026-05-02T08:02:09.67Z</time></trkpt><trkpt lat="42.2621034" lon="13.934989"><ele>275.0</ele><time>2026-05-02T08:02:10.653Z</time></trkpt><trkpt lat="42.2621054" lon="13.9348581"><ele>275.0</ele><time>2026-05-02T08:02:11.656Z</time></trkpt><trkpt lat="42.2621084" lon="13.9347258"><ele>276.4</ele><time>2026-05-02T08:02:12.669Z</time></trkpt><trkpt lat="42.2621126" lon="13.934595"><ele>277.8</ele><time>2026-05-02T08:02:13.664Z</time></trkpt><trkpt lat="42.2621113" lon="13.9344898"><ele>279.2</ele><time>2026-05-02T08:02:14.658Z</time></trkpt><trkpt lat="42.2621056" lon="13.9343394"><ele>280.6</ele><time>2026-05-02T08:02:16.664Z</time></trkpt><trkpt lat="42.2621032" lon="13.9342139"><ele>282.0</ele><time>2026-05-02T08:02:18.663Z</time></trkpt><trkpt lat="42.2620756" lon="13.9341232"><ele>283.4</ele><time>2026-05-02T08:02:20.666Z</time></trkpt><trkpt lat="42.2620015" lon="13.9340803"><ele>284.79999999999995</ele><time>2026-05-02T08:02:23.654Z</time></trkpt><trkpt lat="42.2619216" lon="13.9340744"><ele>286.2</ele><time>2026-05-02T08:02:26.675Z</time></trkpt><trkpt lat="42.2618233" lon="13.9340844"><ele>287.59999999999997</ele><time>2026-05-02T08:02:29.664Z</time></trkpt><trkpt lat="42.2617536" lon="13.9340612"><ele>289.0</ele><time>2026-05-02T08:02:31.664Z</time></trkpt><trkpt lat="42.2616083" lon="13.9340479"><ele>289.0</ele><time>2026-05-02T08:02:33.662Z</time></trkpt><trkpt lat="42.2614946" lon="13.9340015"><ele>289.0</ele><time>2026-05-02T08:02:34.678Z</time></trkpt><trkpt lat="42.2613599" lon="13.9339408"><ele>289.0</ele><time>2026-05-02T08:02:35.665Z</time></trkpt><trkpt lat="42.261216" lon="13.9338682"><ele>289.0</ele><time>2026-05-02T08:02:36.669Z</time></trkpt><trkpt lat="42.2610692" lon="13.9337904"><ele>286.66666666666663</ele><time>2026-05-02T08:02:37.67Z</time></trkpt><trkpt lat="42.2609175" lon="13.9337154"><ele>284.3333333333333</ele><time>2026-05-02T08:02:38.68Z</time></trkpt><trkpt lat="42.2607769" lon="13.933644"><ele>282.0</ele><time>2026-05-02T08:02:39.669Z</time></trkpt><trkpt lat="42.2606383" lon="13.9335746"><ele>282.5</ele><time>2026-05-02T08:02:40.681Z</time></trkpt><trkpt lat="42.260501" lon="13.9335307"><ele>283.0</ele><time>2026-05-02T08:02:41.663Z</time></trkpt><trkpt lat="42.2603661" lon="13.9335056"><ele>283.5</ele><time>2026-05-02T08:02:42.664Z</time></trkpt><trkpt lat="42.2602145" lon="13.9335015"><ele>284.0</ele><time>2026-05-02T08:02:43.692Z</time></trkpt><trkpt lat="42.2600622" lon="13.9335239"><ele>284.0</ele><time>2026-05-02T08:02:44.664Z</time></trkpt><trkpt lat="42.2599012" lon="13.9335455"><ele>284.0</ele><time>2026-05-02T08:02:45.669Z</time></trkpt><trkpt lat="42.2597515" lon="13.9335508"><ele>284.0</ele><time>2026-05-02T08:02:46.674Z</time></trkpt><trkpt lat="42.2596096" lon="13.9335399"><ele>282.75</ele><time>2026-05-02T08:02:47.668Z</time></trkpt><trkpt lat="42.2594915" lon="13.9335026"><ele>281.5</ele><time>2026-05-02T08:02:48.667Z</time></trkpt><trkpt lat="42.2593807" lon="13.9334389"><ele>280.25</ele><time>2026-05-02T08:02:49.669Z</time></trkpt><trkpt lat="42.2592551" lon="13.9333291"><ele>279.0</ele><time>2026-05-02T08:02:50.672Z</time></trkpt><trkpt lat="42.2591082" lon="13.93321"><ele>284.0</ele><time>2026-05-02T08:02:51.671Z</time></trkpt><trkpt lat="42.2589549" lon="13.9331301"><ele>289.0</ele><time>2026-05-02T08:02:52.675Z</time></trkpt><trkpt lat="42.2588052" lon="13.9330811"><ele>294.0</ele><time>2026-05-02T08:02:53.673Z</time></trkpt><trkpt lat="42.2586534" lon="13.9330617"><ele>294.0</ele><time>2026-05-02T08:02:54.681Z</time></trkpt><trkpt lat="42.2584893" lon="13.9330614"><ele>294.0</ele><time>2026-05-02T08:02:55.665Z</time></trkpt><trkpt lat="42.25834" lon="13.9330799"><ele>294.0</ele><time>2026-05-02T08:02:56.674Z</time></trkpt><trkpt lat="42.2581981" lon="13.9331054"><ele>295.25</ele><time>2026-05-02T08:02:57.668Z</time></trkpt><trkpt lat="42.2580398" lon="13.9331179"><ele>296.5</ele><time>2026-05-02T08:02:58.67Z</time></trkpt><trkpt lat="42.2578816" lon="13.9330998"><ele>297.75</ele><time>2026-05-02T08:02:59.672Z</time></trkpt><trkpt lat="42.257751" lon="13.9330812"><ele>299.0</ele><time>2026-05-02T08:03:00.676Z</time></trkpt><trkpt lat="42.2576365" lon="13.9330876"><ele>299.0</ele><time>2026-05-02T08:03:01.66Z</time></trkpt><trkpt lat="42.2574941" lon="13.9331348"><ele>299.0</ele><time>2026-05-02T08:03:02.665Z</time></trkpt><trkpt lat="42.2573395" lon="13.9331696"><ele>299.0</ele><time>2026-05-02T08:03:03.667Z</time></trkpt><trkpt lat="42.2571641" lon="13.9332128"><ele>300.6666666666667</ele><time>2026-05-02T08:03:04.668Z</time></trkpt><trkpt lat="42.2569983" lon="13.9332775"><ele>302.3333333333333</ele><time>2026-05-02T08:03:05.682Z</time></trkpt><trkpt lat="42.2568364" lon="13.9333371"><ele>304.0</ele><time>2026-05-02T08:03:06.671Z</time></trkpt><trkpt lat="42.2566924" lon="13.9333469"><ele>304.0</ele><time>2026-05-02T08:03:07.665Z</time></trkpt><trkpt lat="42.2565499" lon="13.9333196"><ele>304.0</ele><time>2026-05-02T08:03:08.659Z</time></trkpt><trkpt lat="42.256402" lon="13.9332769"><ele>304.0</ele><time>2026-05-02T08:03:09.666Z</time></trkpt><trkpt lat="42.2562645" lon="13.9332196"><ele>304.0</ele><time>2026-05-02T08:03:10.663Z</time></trkpt><trkpt lat="42.2561441" lon="13.9331558"><ele>303.8333333333333</ele><time>2026-05-02T08:03:11.669Z</time></trkpt><trkpt lat="42.256059" lon="13.9331184"><ele>303.66666666666663</ele><time>2026-05-02T08:03:12.67Z</time></trkpt><trkpt lat="42.2559955" lon="13.9330965"><ele>303.5</ele><time>2026-05-02T08:03:13.678Z</time></trkpt><trkpt lat="42.2559343" lon="13.933064"><ele>303.3333333333333</ele><time>2026-05-02T08:03:14.673Z</time></trkpt><trkpt lat="42.2558553" lon="13.9330303"><ele>303.1666666666667</ele><time>2026-05-02T08:03:15.672Z</time></trkpt><trkpt lat="42.2557828" lon="13.9329949"><ele>303.0</ele><time>2026-05-02T08:03:16.661Z</time></trkpt><trkpt lat="42.2557136" lon="13.932936"><ele>303.0</ele><time>2026-05-02T08:03:17.672Z</time></trkpt><trkpt lat="42.2556625" lon="13.9328453"><ele>303.0</ele><time>2026-05-02T08:03:18.668Z</time></trkpt><trkpt lat="42.2556476" lon="13.9327139"><ele>303.0</ele><time>2026-05-02T08:03:19.678Z</time></trkpt><trkpt lat="42.2556439" lon="13.9325649"><ele>303.0</ele><time>2026-05-02T08:03:20.66Z</time></trkpt><trkpt lat="42.2556483" lon="13.9323886"><ele>303.0</ele><time>2026-05-02T08:03:21.668Z</time></trkpt><trkpt lat="42.2556005" lon="13.9322446"><ele>299.25</ele><time>2026-05-02T08:03:22.669Z</time></trkpt><trkpt lat="42.25553" lon="13.9321059"><ele>295.5</ele><time>2026-05-02T08:03:23.671Z</time></trkpt><trkpt lat="42.2554423" lon="13.9319697"><ele>291.75</ele><time>2026-05-02T08:03:24.669Z</time></trkpt><trkpt lat="42.2553458" lon="13.9318486"><ele>288.0</ele><time>2026-05-02T08:03:25.68Z</time></trkpt><trkpt lat="42.255235" lon="13.9317637"><ele>288.6</ele><time>2026-05-02T08:03:26.669Z</time></trkpt><trkpt lat="42.2551294" lon="13.9317187"><ele>289.20000000000005</ele><time>2026-05-02T08:03:27.656Z</time></trkpt><trkpt lat="42.2550155" lon="13.9316874"><ele>289.8</ele><time>2026-05-02T08:03:28.666Z</time></trkpt><trkpt lat="42.2549102" lon="13.9316474"><ele>290.40000000000003</ele><time>2026-05-02T08:03:29.664Z</time></trkpt><trkpt lat="42.2548144" lon="13.9315726"><ele>291.0</ele><time>2026-05-02T08:03:30.669Z</time></trkpt><trkpt lat="42.2547385" lon="13.9314893"><ele>291.0</ele><time>2026-05-02T08:03:31.665Z</time></trkpt><trkpt lat="42.2546564" lon="13.9314688"><ele>291.0</ele><time>2026-05-02T08:03:32.664Z</time></trkpt><trkpt lat="42.2545644" lon="13.9314901"><ele>291.0</ele><time>2026-05-02T08:03:33.671Z</time></trkpt><trkpt lat="42.254448" lon="13.9315231"><ele>291.0</ele><time>2026-05-02T08:03:34.669Z</time></trkpt><trkpt lat="42.2543257" lon="13.9315557"><ele>291.0</ele><time>2026-05-02T08:03:35.669Z</time></trkpt><trkpt lat="42.2541893" lon="13.9315901"><ele>291.0</ele><time>2026-05-02T08:03:36.687Z</time></trkpt><trkpt lat="42.2540557" lon="13.9316142"><ele>291.0</ele><time>2026-05-02T08:03:37.671Z</time></trkpt><trkpt lat="42.2539268" lon="13.9316265"><ele>291.0</ele><time>2026-05-02T08:03:38.691Z</time></trkpt><trkpt lat="42.2537953" lon="13.9316325"><ele>291.0</ele><time>2026-05-02T08:03:39.664Z</time></trkpt><trkpt lat="42.253682" lon="13.9316173"><ele>290.25</ele><time>2026-05-02T08:03:40.658Z</time></trkpt><trkpt lat="42.2535812" lon="13.9315646"><ele>289.5</ele><time>2026-05-02T08:03:41.673Z</time></trkpt><trkpt lat="42.2534852" lon="13.9314952"><ele>288.75</ele><time>2026-05-02T08:03:42.664Z</time></trkpt><trkpt lat="42.2533758" lon="13.9314075"><ele>288.0</ele><time>2026-05-02T08:03:43.682Z</time></trkpt><trkpt lat="42.2532592" lon="13.9313323"><ele>288.0</ele><time>2026-05-02T08:03:44.67Z</time></trkpt><trkpt lat="42.2531347" lon="13.931266"><ele>288.0</ele><time>2026-05-02T08:03:45.68Z</time></trkpt><trkpt lat="42.2530075" lon="13.9312148"><ele>288.0</ele><time>2026-05-02T08:03:46.654Z</time></trkpt><trkpt lat="42.2528992" lon="13.9311837"><ele>288.0</ele><time>2026-05-02T08:03:47.667Z</time></trkpt><trkpt lat="42.2528062" lon="13.9311562"><ele>287.0</ele><time>2026-05-02T08:03:48.671Z</time></trkpt><trkpt lat="42.2527422" lon="13.9311468"><ele>286.0</ele><time>2026-05-02T08:03:49.662Z</time></trkpt><trkpt lat="42.252661" lon="13.9311315"><ele>285.0</ele><time>2026-05-02T08:03:51.657Z</time></trkpt><trkpt lat="42.25254" lon="13.9310995"><ele>284.0</ele><time>2026-05-02T08:03:53.664Z</time></trkpt><trkpt lat="42.2524809" lon="13.9310656"><ele>283.0</ele><time>2026-05-02T08:03:54.663Z</time></trkpt><trkpt lat="42.2524151" lon="13.9310206"><ele>282.0</ele><time>2026-05-02T08:03:55.662Z</time></trkpt><trkpt lat="42.252358" lon="13.9309538"><ele>280.8333333333333</ele><time>2026-05-02T08:03:56.669Z</time></trkpt><trkpt lat="42.252322" lon="13.9308658"><ele>279.6666666666667</ele><time>2026-05-02T08:03:57.662Z</time></trkpt><trkpt lat="42.2523011" lon="13.9307621"><ele>278.5</ele><time>2026-05-02T08:03:58.655Z</time></trkpt><trkpt lat="42.252286" lon="13.9306417"><ele>277.33333333333337</ele><time>2026-05-02T08:03:59.685Z</time></trkpt><trkpt lat="42.2522746" lon="13.9305243"><ele>276.1666666666667</ele><time>2026-05-02T08:04:00.658Z</time></trkpt><trkpt lat="42.2522292" lon="13.9303845"><ele>275.0</ele><time>2026-05-02T08:04:01.661Z</time></trkpt><trkpt lat="42.252156" lon="13.9302537"><ele>275.0</ele><time>2026-05-02T08:04:02.673Z</time></trkpt><trkpt lat="42.2520799" lon="13.9301285"><ele>275.0</ele><time>2026-05-02T08:04:03.673Z</time></trkpt><trkpt lat="42.2519878" lon="13.9300101"><ele>275.0</ele><time>2026-05-02T08:04:04.682Z</time></trkpt><trkpt lat="42.2518807" lon="13.9299396"><ele>275.0</ele><time>2026-05-02T08:04:05.668Z</time></trkpt><trkpt lat="42.2517561" lon="13.9299006"><ele>275.0</ele><time>2026-05-02T08:04:06.67Z</time></trkpt><trkpt lat="42.2516194" lon="13.9298736"><ele>275.0</ele><time>2026-05-02T08:04:07.68Z</time></trkpt><trkpt lat="42.2515086" lon="13.9298403"><ele>275.0</ele><time>2026-05-02T08:04:08.658Z</time></trkpt><trkpt lat="42.2514144" lon="13.9297735"><ele>275.0</ele><time>2026-05-02T08:04:09.666Z</time></trkpt><trkpt lat="42.251332" lon="13.9297074"><ele>271.2</ele><time>2026-05-02T08:04:10.672Z</time></trkpt><trkpt lat="42.2512538" lon="13.9296675"><ele>267.4</ele><time>2026-05-02T08:04:11.665Z</time></trkpt><trkpt lat="42.251141" lon="13.9297092"><ele>263.6</ele><time>2026-05-02T08:04:13.671Z</time></trkpt><trkpt lat="42.2510777" lon="13.9297732"><ele>259.8</ele><time>2026-05-02T08:04:14.648Z</time></trkpt><trkpt lat="42.2509696" lon="13.9298426"><ele>256.0</ele><time>2026-05-02T08:04:16.672Z</time></trkpt><trkpt lat="42.2509001" lon="13.9297581"><ele>256.0</ele><time>2026-05-02T08:04:18.663Z</time></trkpt><trkpt lat="42.2509034" lon="13.9296711"><ele>256.0</ele><time>2026-05-02T08:04:19.664Z</time></trkpt><trkpt lat="42.2509411" lon="13.9295784"><ele>256.0</ele><time>2026-05-02T08:04:20.655Z</time></trkpt><trkpt lat="42.2510043" lon="13.9294862"><ele>256.0</ele><time>2026-05-02T08:04:21.654Z</time></trkpt><trkpt lat="42.2510642" lon="13.9293555"><ele>256.0</ele><time>2026-05-02T08:04:22.681Z</time></trkpt><trkpt lat="42.251107" lon="13.9292144"><ele>255.99999999999997</ele><time>2026-05-02T08:04:23.678Z</time></trkpt><trkpt lat="42.2511396" lon="13.9290917"><ele>256.0</ele><time>2026-05-02T08:04:24.681Z</time></trkpt><trkpt lat="42.2511621" lon="13.9290016"><ele>256.0</ele><time>2026-05-02T08:04:25.666Z</time></trkpt><trkpt lat="42.2511402" lon="13.9288976"><ele>256.0</ele><time>2026-05-02T08:04:27.663Z</time></trkpt><trkpt lat="42.2510518" lon="13.9289372"><ele>255.99999999999997</ele><time>2026-05-02T08:04:29.67Z</time></trkpt><trkpt lat="42.2510323" lon="13.9290275"><ele>256.0</ele><time>2026-05-02T08:04:30.671Z</time></trkpt><trkpt lat="42.2509877" lon="13.9291427"><ele>256.0</ele><time>2026-05-02T08:04:31.668Z</time></trkpt><trkpt lat="42.2509231" lon="13.9292665"><ele>256.0</ele><time>2026-05-02T08:04:32.663Z</time></trkpt><trkpt lat="42.2508129" lon="13.9293613"><ele>256.0</ele><time>2026-05-02T08:04:33.665Z</time></trkpt><trkpt lat="42.2507072" lon="13.9294631"><ele>256.0</ele><time>2026-05-02T08:04:34.667Z</time></trkpt><trkpt lat="42.2506247" lon="13.9295769"><ele>250.25</ele><time>2026-05-02T08:04:35.665Z</time></trkpt><trkpt lat="42.2505743" lon="13.929724"><ele>244.5</ele><time>2026-05-02T08:04:36.675Z</time></trkpt><trkpt lat="42.2505328" lon="13.9298695"><ele>238.75</ele><time>2026-05-02T08:04:37.661Z</time></trkpt><trkpt lat="42.2505146" lon="13.9300256"><ele>233.0</ele><time>2026-05-02T08:04:38.664Z</time></trkpt><trkpt lat="42.2505431" lon="13.9301694"><ele>232.25</ele><time>2026-05-02T08:04:39.671Z</time></trkpt><trkpt lat="42.250596" lon="13.9302975"><ele>231.5</ele><time>2026-05-02T08:04:40.651Z</time></trkpt><trkpt lat="42.2506597" lon="13.930427"><ele>230.75</ele><time>2026-05-02T08:04:41.672Z</time></trkpt><trkpt lat="42.2507191" lon="13.9305688"><ele>230.0</ele><time>2026-05-02T08:04:42.656Z</time></trkpt><trkpt lat="42.2507748" lon="13.9307175"><ele>235.0</ele><time>2026-05-02T08:04:43.662Z</time></trkpt><trkpt lat="42.2508111" lon="13.9308994"><ele>240.0</ele><time>2026-05-02T08:04:44.662Z</time></trkpt><trkpt lat="42.250798" lon="13.9310912"><ele>245.0</ele><time>2026-05-02T08:04:45.653Z</time></trkpt><trkpt lat="42.2507494" lon="13.9312951"><ele>250.0</ele><time>2026-05-02T08:04:46.659Z</time></trkpt><trkpt lat="42.2506883" lon="13.9315039"><ele>241.66666666666666</ele><time>2026-05-02T08:04:47.665Z</time></trkpt><trkpt lat="42.2506129" lon="13.9317184"><ele>233.33333333333331</ele><time>2026-05-02T08:04:48.663Z</time></trkpt><trkpt lat="42.2505279" lon="13.9319238"><ele>225.0</ele><time>2026-05-02T08:04:49.666Z</time></trkpt><trkpt lat="42.2504484" lon="13.9321212"><ele>225.0</ele><time>2026-05-02T08:04:50.655Z</time></trkpt><trkpt lat="42.2503938" lon="13.9322848"><ele>225.0</ele><time>2026-05-02T08:04:51.675Z</time></trkpt><trkpt lat="42.2503592" lon="13.932445"><ele>225.0</ele><time>2026-05-02T08:04:52.671Z</time></trkpt><trkpt lat="42.2503346" lon="13.9325839"><ele>225.0</ele><time>2026-05-02T08:04:53.665Z</time></trkpt><trkpt lat="42.2503042" lon="13.9326784"><ele>225.0</ele><time>2026-05-02T08:04:54.672Z</time></trkpt><trkpt lat="42.2502471" lon="13.9327314"><ele>225.0</ele><time>2026-05-02T08:04:55.673Z</time></trkpt><trkpt lat="42.2501847" lon="13.9326813"><ele>225.0</ele><time>2026-05-02T08:04:57.676Z</time></trkpt><trkpt lat="42.2501782" lon="13.9325732"><ele>225.0</ele><time>2026-05-02T08:04:58.673Z</time></trkpt><trkpt lat="42.250192" lon="13.9324271"><ele>225.0</ele><time>2026-05-02T08:04:59.666Z</time></trkpt><trkpt lat="42.2502256" lon="13.9322493"><ele>225.0</ele><time>2026-05-02T08:05:00.657Z</time></trkpt><trkpt lat="42.2502564" lon="13.9320457"><ele>225.0</ele><time>2026-05-02T08:05:01.668Z</time></trkpt><trkpt lat="42.250264" lon="13.9318374"><ele>225.0</ele><time>2026-05-02T08:05:02.664Z</time></trkpt><trkpt lat="42.2502312" lon="13.9316185"><ele>225.0</ele><time>2026-05-02T08:05:03.659Z</time></trkpt><trkpt lat="42.250172" lon="13.9313998"><ele>224.5</ele><time>2026-05-02T08:05:04.66Z</time></trkpt><trkpt lat="42.2500869" lon="13.9311989"><ele>224.0</ele><time>2026-05-02T08:05:05.671Z</time></trkpt><trkpt lat="42.2500137" lon="13.9310548"><ele>223.5</ele><time>2026-05-02T08:05:06.658Z</time></trkpt><trkpt lat="42.2499267" lon="13.9309402"><ele>223.0</ele><time>2026-05-02T08:05:07.68Z</time></trkpt><trkpt lat="42.2498162" lon="13.9308672"><ele>221.0</ele><time>2026-05-02T08:05:08.656Z</time></trkpt><trkpt lat="42.2496799" lon="13.9308405"><ele>219.0</ele><time>2026-05-02T08:05:09.657Z</time></trkpt><trkpt lat="42.2495325" lon="13.9308247"><ele>217.0</ele><time>2026-05-02T08:05:10.658Z</time></trkpt><trkpt lat="42.2493969" lon="13.9308092"><ele>215.0</ele><time>2026-05-02T08:05:11.666Z</time></trkpt><trkpt lat="42.2492676" lon="13.9307703"><ele>215.0</ele><time>2026-05-02T08:05:12.668Z</time></trkpt><trkpt lat="42.2491602" lon="13.9306955"><ele>215.0</ele><time>2026-05-02T08:05:13.665Z</time></trkpt><trkpt lat="42.2490855" lon="13.93058"><ele>215.0</ele><time>2026-05-02T08:05:14.649Z</time></trkpt><trkpt lat="42.2490354" lon="13.9304294"><ele>215.0</ele><time>2026-05-02T08:05:15.665Z</time></trkpt><trkpt lat="42.2490226" lon="13.9302673"><ele>215.0</ele><time>2026-05-02T08:05:16.661Z</time></trkpt><trkpt lat="42.2490271" lon="13.9300961"><ele>215.0</ele><time>2026-05-02T08:05:17.666Z</time></trkpt><trkpt lat="42.2490612" lon="13.929974"><ele>215.0</ele><time>2026-05-02T08:05:18.668Z</time></trkpt><trkpt lat="42.2491422" lon="13.9298462"><ele>215.0</ele><time>2026-05-02T08:05:19.661Z</time></trkpt><trkpt lat="42.249237" lon="13.9297226"><ele>214.5</ele><time>2026-05-02T08:05:20.667Z</time></trkpt><trkpt lat="42.2493268" lon="13.9296142"><ele>214.0</ele><time>2026-05-02T08:05:21.668Z</time></trkpt><trkpt lat="42.2493978" lon="13.929502"><ele>213.5</ele><time>2026-05-02T08:05:22.664Z</time></trkpt><trkpt lat="42.2494366" lon="13.9293481"><ele>213.0</ele><time>2026-05-02T08:05:23.656Z</time></trkpt><trkpt lat="42.2494418" lon="13.9291835"><ele>211.75</ele><time>2026-05-02T08:05:24.677Z</time></trkpt><trkpt lat="42.2494071" lon="13.9290308"><ele>210.5</ele><time>2026-05-02T08:05:25.657Z</time></trkpt><trkpt lat="42.2493558" lon="13.9289073"><ele>209.25</ele><time>2026-05-02T08:05:26.653Z</time></trkpt><trkpt lat="42.2492785" lon="13.9287996"><ele>208.0</ele><time>2026-05-02T08:05:27.669Z</time></trkpt><trkpt lat="42.2491699" lon="13.9286864"><ele>208.0</ele><time>2026-05-02T08:05:28.658Z</time></trkpt><trkpt lat="42.249031" lon="13.9285747"><ele>208.0</ele><time>2026-05-02T08:05:29.672Z</time></trkpt><trkpt lat="42.2488751" lon="13.9284673"><ele>208.0</ele><time>2026-05-02T08:05:30.649Z</time></trkpt><trkpt lat="42.2487195" lon="13.9283562"><ele>206.66666666666666</ele><time>2026-05-02T08:05:31.667Z</time></trkpt><trkpt lat="42.2485657" lon="13.9282561"><ele>205.33333333333331</ele><time>2026-05-02T08:05:32.653Z</time></trkpt><trkpt lat="42.248416" lon="13.928158"><ele>204.0</ele><time>2026-05-02T08:05:33.655Z</time></trkpt><trkpt lat="42.2482832" lon="13.9280554"><ele>204.0</ele><time>2026-05-02T08:05:34.672Z</time></trkpt><trkpt lat="42.2481646" lon="13.9279561"><ele>204.0</ele><time>2026-05-02T08:05:35.663Z</time></trkpt><trkpt lat="42.2480532" lon="13.9278405"><ele>204.0</ele><time>2026-05-02T08:05:36.652Z</time></trkpt><trkpt lat="42.2479408" lon="13.9276952"><ele>204.0</ele><time>2026-05-02T08:05:37.66Z</time></trkpt><trkpt lat="42.2478325" lon="13.9275504"><ele>202.25</ele><time>2026-05-02T08:05:38.659Z</time></trkpt><trkpt lat="42.2477432" lon="13.927417"><ele>200.5</ele><time>2026-05-02T08:05:39.66Z</time></trkpt><trkpt lat="42.2476474" lon="13.9273304"><ele>198.75</ele><time>2026-05-02T08:05:40.662Z</time></trkpt><trkpt lat="42.2475393" lon="13.9273022"><ele>197.0</ele><time>2026-05-02T08:05:41.659Z</time></trkpt><trkpt lat="42.2474024" lon="13.9273178"><ele>194.0</ele><time>2026-05-02T08:05:42.658Z</time></trkpt><trkpt lat="42.247271" lon="13.9273567"><ele>191.0</ele><time>2026-05-02T08:05:43.657Z</time></trkpt><trkpt lat="42.2471675" lon="13.927402"><ele>188.0</ele><time>2026-05-02T08:05:44.665Z</time></trkpt><trkpt lat="42.2470647" lon="13.9274504"><ele>185.0</ele><time>2026-05-02T08:05:45.659Z</time></trkpt><trkpt lat="42.2469793" lon="13.9275022"><ele>182.0</ele><time>2026-05-02T08:05:46.669Z</time></trkpt><trkpt lat="42.2469207" lon="13.9276001"><ele>181.5</ele><time>2026-05-02T08:05:47.654Z</time></trkpt><trkpt lat="42.2468886" lon="13.9277154"><ele>181.0</ele><time>2026-05-02T08:05:48.668Z</time></trkpt><trkpt lat="42.2468924" lon="13.9278232"><ele>180.5</ele><time>2026-05-02T08:05:49.67Z</time></trkpt><trkpt lat="42.2469596" lon="13.9279519"><ele>180.0</ele><time>2026-05-02T08:05:51.662Z</time></trkpt><trkpt lat="42.2470287" lon="13.9279938"><ele>179.5</ele><time>2026-05-02T08:05:52.672Z</time></trkpt><trkpt lat="42.2471016" lon="13.9280318"><ele>179.0</ele><time>2026-05-02T08:05:53.663Z</time></trkpt><trkpt lat="42.2471751" lon="13.9280615"><ele>179.0</ele><time>2026-05-02T08:05:54.67Z</time></trkpt><trkpt lat="42.2472519" lon="13.9281122"><ele>179.0</ele><time>2026-05-02T08:05:55.666Z</time></trkpt><trkpt lat="42.2473268" lon="13.9281918"><ele>179.0</ele><time>2026-05-02T08:05:56.673Z</time></trkpt><trkpt lat="42.2473886" lon="13.9282763"><ele>179.0</ele><time>2026-05-02T08:05:57.664Z</time></trkpt><trkpt lat="42.2474436" lon="13.9283674"><ele>179.0</ele><time>2026-05-02T08:05:58.661Z</time></trkpt><trkpt lat="42.2474844" lon="13.9284756"><ele>179.0</ele><time>2026-05-02T08:05:59.661Z</time></trkpt><trkpt lat="42.247512" lon="13.9285791"><ele>178.83333333333331</ele><time>2026-05-02T08:06:00.655Z</time></trkpt><trkpt lat="42.2475168" lon="13.928692"><ele>178.66666666666666</ele><time>2026-05-02T08:06:01.656Z</time></trkpt><trkpt lat="42.2475032" lon="13.928809"><ele>178.5</ele><time>2026-05-02T08:06:02.66Z</time></trkpt><trkpt lat="42.247484" lon="13.9289223"><ele>178.33333333333334</ele><time>2026-05-02T08:06:03.656Z</time></trkpt><trkpt lat="42.2474702" lon="13.9290226"><ele>178.16666666666669</ele><time>2026-05-02T08:06:04.67Z</time></trkpt><trkpt lat="42.2474562" lon="13.9291101"><ele>178.0</ele><time>2026-05-02T08:06:05.659Z</time></trkpt><trkpt lat="42.2474299" lon="13.9292818"><ele>178.0</ele><time>2026-05-02T08:06:07.658Z</time></trkpt><trkpt lat="42.2474154" lon="13.9293731"><ele>178.0</ele><time>2026-05-02T08:06:08.672Z</time></trkpt><trkpt lat="42.2474034" lon="13.9294596"><ele>178.0</ele><time>2026-05-02T08:06:09.663Z</time></trkpt><trkpt lat="42.2473693" lon="13.9296131"><ele>178.0</ele><time>2026-05-02T08:06:11.676Z</time></trkpt><trkpt lat="42.2472866" lon="13.9297001"><ele>178.0</ele><time>2026-05-02T08:06:13.665Z</time></trkpt><trkpt lat="42.2472153" lon="13.9296979"><ele>178.0</ele><time>2026-05-02T08:06:14.663Z</time></trkpt><trkpt lat="42.2471361" lon="13.9296561"><ele>176.8</ele><time>2026-05-02T08:06:15.657Z</time></trkpt><trkpt lat="42.2470467" lon="13.929583"><ele>175.60000000000002</ele><time>2026-05-02T08:06:16.658Z</time></trkpt><trkpt lat="42.2469637" lon="13.9295003"><ele>174.39999999999998</ele><time>2026-05-02T08:06:17.675Z</time></trkpt><trkpt lat="42.2469178" lon="13.9293886"><ele>173.2</ele><time>2026-05-02T08:06:18.662Z</time></trkpt><trkpt lat="42.2468907" lon="13.9292437"><ele>172.0</ele><time>2026-05-02T08:06:19.653Z</time></trkpt><trkpt lat="42.2468616" lon="13.9290951"><ele>172.0</ele><time>2026-05-02T08:06:20.663Z</time></trkpt><trkpt lat="42.2468103" lon="13.9289534"><ele>172.0</ele><time>2026-05-02T08:06:21.661Z</time></trkpt><trkpt lat="42.2467456" lon="13.9288171"><ele>172.0</ele><time>2026-05-02T08:06:22.668Z</time></trkpt><trkpt lat="42.246664" lon="13.9286893"><ele>172.0</ele><time>2026-05-02T08:06:23.655Z</time></trkpt><trkpt lat="42.2465888" lon="13.9285647"><ele>172.0</ele><time>2026-05-02T08:06:24.657Z</time></trkpt><trkpt lat="42.2465035" lon="13.9284317"><ele>172.0</ele><time>2026-05-02T08:06:25.654Z</time></trkpt><trkpt lat="42.2464252" lon="13.9282955"><ele>172.0</ele><time>2026-05-02T08:06:26.662Z</time></trkpt><trkpt lat="42.2463622" lon="13.9281939"><ele>172.0</ele><time>2026-05-02T08:06:27.659Z</time></trkpt><trkpt lat="42.2463106" lon="13.9281168"><ele>172.0</ele><time>2026-05-02T08:06:28.652Z</time></trkpt><trkpt lat="42.2462615" lon="13.9280635"><ele>170.0</ele><time>2026-05-02T08:06:29.665Z</time></trkpt><trkpt lat="42.2461808" lon="13.9280373"><ele>168.0</ele><time>2026-05-02T08:06:31.663Z</time></trkpt><trkpt lat="42.2461354" lon="13.9281142"><ele>166.0</ele><time>2026-05-02T08:06:33.659Z</time></trkpt><trkpt lat="42.2461055" lon="13.928203"><ele>164.0</ele><time>2026-05-02T08:06:35.661Z</time></trkpt><trkpt lat="42.2461712" lon="13.9282524"><ele>162.0</ele><time>2026-05-02T08:06:38.672Z</time></trkpt><trkpt lat="42.2462231" lon="13.9281587"><ele>160.0</ele><time>2026-05-02T08:06:41.67Z</time></trkpt><trkpt lat="42.2463093" lon="13.9281577"><ele>160.0</ele><time>2026-05-02T08:06:45.648Z</time></trkpt><trkpt lat="42.2463545" lon="13.9282372"><ele>160.0</ele><time>2026-05-02T08:06:46.653Z</time></trkpt><trkpt lat="42.2464143" lon="13.9283366"><ele>160.0</ele><time>2026-05-02T08:06:47.667Z</time></trkpt><trkpt lat="42.2464713" lon="13.9284386"><ele>160.0</ele><time>2026-05-02T08:06:48.651Z</time></trkpt><trkpt lat="42.2465343" lon="13.9285384"><ele>160.0</ele><time>2026-05-02T08:06:49.652Z</time></trkpt><trkpt lat="42.2466026" lon="13.9286346"><ele>163.0</ele><time>2026-05-02T08:06:50.646Z</time></trkpt><trkpt lat="42.2466723" lon="13.9287401"><ele>166.0</ele><time>2026-05-02T08:06:51.65Z</time></trkpt><trkpt lat="42.2467356" lon="13.9288581"><ele>169.0</ele><time>2026-05-02T08:06:52.652Z</time></trkpt><trkpt lat="42.2467919" lon="13.9290012"><ele>172.0</ele><time>2026-05-02T08:06:53.655Z</time></trkpt><trkpt lat="42.2468365" lon="13.9291624"><ele>171.0</ele><time>2026-05-02T08:06:54.649Z</time></trkpt><trkpt lat="42.2468806" lon="13.9293222"><ele>170.0</ele><time>2026-05-02T08:06:55.657Z</time></trkpt><trkpt lat="42.2469342" lon="13.9294737"><ele>169.0</ele><time>2026-05-02T08:06:56.654Z</time></trkpt><trkpt lat="42.2469946" lon="13.9295798"><ele>168.0</ele><time>2026-05-02T08:06:57.664Z</time></trkpt><trkpt lat="42.2470752" lon="13.9296572"><ele>167.0</ele><time>2026-05-02T08:06:58.659Z</time></trkpt><trkpt lat="42.2471629" lon="13.9297048"><ele>167.0</ele><time>2026-05-02T08:06:59.663Z</time></trkpt><trkpt lat="42.2472413" lon="13.9297199"><ele>167.0</ele><time>2026-05-02T08:07:00.678Z</time></trkpt><trkpt lat="42.2473076" lon="13.9297155"><ele>167.0</ele><time>2026-05-02T08:07:01.657Z</time></trkpt><trkpt lat="42.2473827" lon="13.9296437"><ele>167.0</ele><time>2026-05-02T08:07:03.659Z</time></trkpt><trkpt lat="42.2473074" lon="13.929645"><ele>167.0</ele><time>2026-05-02T08:07:57.669Z</time></trkpt><trkpt lat="42.2472324" lon="13.9296899"><ele>167.0</ele><time>2026-05-02T08:07:59.67Z</time></trkpt><trkpt lat="42.2471364" lon="13.9296362"><ele>167.0</ele><time>2026-05-02T08:08:01.657Z</time></trkpt><trkpt lat="42.2470717" lon="13.929578"><ele>167.0</ele><time>2026-05-02T08:08:02.669Z</time></trkpt><trkpt lat="42.2470046" lon="13.9295207"><ele>167.0</ele><time>2026-05-02T08:08:03.664Z</time></trkpt><trkpt lat="42.2469542" lon="13.9294507"><ele>167.0</ele><time>2026-05-02T08:08:04.654Z</time></trkpt><trkpt lat="42.2469255" lon="13.9293451"><ele>167.0</ele><time>2026-05-02T08:08:05.663Z</time></trkpt><trkpt lat="42.2469041" lon="13.9292089"><ele>167.0</ele><time>2026-05-02T08:08:06.663Z</time></trkpt><trkpt lat="42.2468688" lon="13.929077"><ele>168.25</ele><time>2026-05-02T08:08:07.666Z</time></trkpt><trkpt lat="42.2468088" lon="13.9289315"><ele>169.5</ele><time>2026-05-02T08:08:08.672Z</time></trkpt><trkpt lat="42.2467344" lon="13.9287887"><ele>170.75</ele><time>2026-05-02T08:08:09.66Z</time></trkpt><trkpt lat="42.2466581" lon="13.9286599"><ele>172.0</ele><time>2026-05-02T08:08:10.659Z</time></trkpt><trkpt lat="42.2465894" lon="13.9285415"><ele>172.0</ele><time>2026-05-02T08:08:11.665Z</time></trkpt><trkpt lat="42.2465195" lon="13.928427"><ele>172.0</ele><time>2026-05-02T08:08:12.667Z</time></trkpt><trkpt lat="42.2464551" lon="13.9283283"><ele>172.0</ele><time>2026-05-02T08:08:13.664Z</time></trkpt><trkpt lat="42.2463982" lon="13.9282411"><ele>172.0</ele><time>2026-05-02T08:08:14.664Z</time></trkpt><trkpt lat="42.2463481" lon="13.9281789"><ele>172.0</ele><time>2026-05-02T08:08:15.664Z</time></trkpt><trkpt lat="42.2462715" lon="13.9280644"><ele>170.16666666666669</ele><time>2026-05-02T08:08:17.66Z</time></trkpt><trkpt lat="42.2462229" lon="13.9279808"><ele>168.33333333333334</ele><time>2026-05-02T08:08:19.656Z</time></trkpt><trkpt lat="42.2461703" lon="13.9279194"><ele>166.5</ele><time>2026-05-02T08:08:21.662Z</time></trkpt><trkpt lat="42.2461235" lon="13.9278365"><ele>164.66666666666666</ele><time>2026-05-02T08:08:24.651Z</time></trkpt><trkpt lat="42.246142" lon="13.9277272"><ele>162.83333333333331</ele><time>2026-05-02T08:08:26.656Z</time></trkpt><trkpt lat="42.2461663" lon="13.927642"><ele>161.0</ele><time>2026-05-02T08:08:27.669Z</time></trkpt><trkpt lat="42.2461844" lon="13.9275394"><ele>161.0</ele><time>2026-05-02T08:08:28.657Z</time></trkpt><trkpt lat="42.2461989" lon="13.9274091"><ele>161.0</ele><time>2026-05-02T08:08:29.663Z</time></trkpt><trkpt lat="42.2462036" lon="13.9272726"><ele>161.0</ele><time>2026-05-02T08:08:30.664Z</time></trkpt><trkpt lat="42.246211" lon="13.9271572"><ele>161.0</ele><time>2026-05-02T08:08:31.668Z</time></trkpt><trkpt lat="42.246213" lon="13.9270476"><ele>161.0</ele><time>2026-05-02T08:08:32.653Z</time></trkpt><trkpt lat="42.2462012" lon="13.926951"><ele>161.0</ele><time>2026-05-02T08:08:33.658Z</time></trkpt><trkpt lat="42.2461419" lon="13.9268264"><ele>161.0</ele><time>2026-05-02T08:08:35.669Z</time></trkpt><trkpt lat="42.2460612" lon="13.9267848"><ele>161.0</ele><time>2026-05-02T08:08:37.667Z</time></trkpt><trkpt lat="42.2459814" lon="13.9267848"><ele>161.0</ele><time>2026-05-02T08:08:40.676Z</time></trkpt><trkpt lat="42.2459026" lon="13.9267904"><ele>161.0</ele><time>2026-05-02T08:08:43.663Z</time></trkpt><trkpt lat="42.2458295" lon="13.9268034"><ele>161.0</ele><time>2026-05-02T08:08:45.661Z</time></trkpt><trkpt lat="42.2457287" lon="13.9268135"><ele>161.0</ele><time>2026-05-02T08:08:47.654Z</time></trkpt><trkpt lat="42.2456145" lon="13.9268103"><ele>162.0</ele><time>2026-05-02T08:08:49.65Z</time></trkpt><trkpt lat="42.2455403" lon="13.9268238"><ele>163.0</ele><time>2026-05-02T08:08:50.651Z</time></trkpt><trkpt lat="42.2454579" lon="13.9268322"><ele>164.0</ele><time>2026-05-02T08:08:51.66Z</time></trkpt><trkpt lat="42.2453725" lon="13.9268342"><ele>165.0</ele><time>2026-05-02T08:08:52.664Z</time></trkpt><trkpt lat="42.2452848" lon="13.9268367"><ele>166.0</ele><time>2026-05-02T08:08:53.663Z</time></trkpt><trkpt lat="42.2451949" lon="13.9268377"><ele>167.0</ele><time>2026-05-02T08:08:54.664Z</time></trkpt><trkpt lat="42.2451003" lon="13.9268485"><ele>167.0</ele><time>2026-05-02T08:08:55.666Z</time></trkpt><trkpt lat="42.2450186" lon="13.926865"><ele>167.0</ele><time>2026-05-02T08:08:56.65Z</time></trkpt><trkpt lat="42.2449328" lon="13.9268819"><ele>167.0</ele><time>2026-05-02T08:08:57.668Z</time></trkpt><trkpt lat="42.2448574" lon="13.9269033"><ele>167.0</ele><time>2026-05-02T08:08:58.66Z</time></trkpt><trkpt lat="42.2447837" lon="13.9269262"><ele>167.0</ele><time>2026-05-02T08:08:59.653Z</time></trkpt><trkpt lat="42.2447165" lon="13.9269534"><ele>167.0</ele><time>2026-05-02T08:09:00.669Z</time></trkpt><trkpt lat="42.2446161" lon="13.9269585"><ele>170.0</ele><time>2026-05-02T08:09:02.658Z</time></trkpt><trkpt lat="42.2445858" lon="13.9268717"><ele>173.0</ele><time>2026-05-02T08:09:20.653Z</time></trkpt><trkpt lat="42.2446232" lon="13.9267881"><ele>176.0</ele><time>2026-05-02T08:09:22.663Z</time></trkpt><trkpt lat="42.2446691" lon="13.9266811"><ele>179.0</ele><time>2026-05-02T08:09:24.655Z</time></trkpt><trkpt lat="42.2446993" lon="13.9265708"><ele>182.0</ele><time>2026-05-02T08:09:26.654Z</time></trkpt><trkpt lat="42.2447448" lon="13.9264797"><ele>185.0</ele><time>2026-05-02T08:10:18.656Z</time></trkpt><trkpt lat="42.2447595" lon="13.9263882"><ele>186.14285714285714</ele><time>2026-05-02T08:10:20.655Z</time></trkpt><trkpt lat="42.2448132" lon="13.9263196"><ele>187.28571428571428</ele><time>2026-05-02T08:10:24.654Z</time></trkpt><trkpt lat="42.2447916" lon="13.9264069"><ele>188.42857142857144</ele><time>2026-05-02T08:12:17.68Z</time></trkpt><trkpt lat="42.2447438" lon="13.9264664"><ele>189.57142857142856</ele><time>2026-05-02T08:12:25.642Z</time></trkpt><trkpt lat="42.2447119" lon="13.9265428"><ele>190.71428571428572</ele><time>2026-05-02T08:12:32.662Z</time></trkpt><trkpt lat="42.2446902" lon="13.9266287"><ele>191.85714285714286</ele><time>2026-05-02T08:12:44.653Z</time></trkpt><trkpt lat="42.2446542" lon="13.9267084"><ele>193.0</ele><time>2026-05-02T08:12:54.647Z</time></trkpt><trkpt lat="42.2447009" lon="13.9266464"><ele>193.00000000000003</ele><time>2026-05-02T08:13:04.652Z</time></trkpt><trkpt lat="42.2447292" lon="13.9265676"><ele>193.0</ele><time>2026-05-02T08:13:09.65Z</time></trkpt><trkpt lat="42.2447442" lon="13.9264661"><ele>193.0</ele><time>2026-05-02T08:13:16.66Z</time></trkpt><trkpt lat="42.2447803" lon="13.9263814"><ele>193.0</ele><time>2026-05-02T08:13:21.579Z</time></trkpt><trkpt lat="42.2448219" lon="13.926299"><ele>193.0</ele><time>2026-05-02T08:13:27.654Z</time></trkpt><trkpt lat="42.2447923" lon="13.9263774"><ele>193.00000000000003</ele><time>2026-05-02T08:13:40.644Z</time></trkpt><trkpt lat="42.2447618" lon="13.9264542"><ele>193.0</ele><time>2026-05-02T08:13:44.659Z</time></trkpt><trkpt lat="42.2447234" lon="13.9265363"><ele>193.00000000000003</ele><time>2026-05-02T08:13:49.656Z</time></trkpt><trkpt lat="42.2446827" lon="13.9266117"><ele>193.0</ele><time>2026-05-02T08:13:56.579Z</time></trkpt><trkpt lat="42.2446297" lon="13.9266753"><ele>193.0</ele><time>2026-05-02T08:14:01.657Z</time></trkpt><trkpt lat="42.2446128" lon="13.926772"><ele>193.0</ele><time>2026-05-02T08:14:08.625Z</time></trkpt><trkpt lat="42.2445915" lon="13.926853"><ele>193.0</ele><time>2026-05-02T08:14:12.678Z</time></trkpt><trkpt lat="42.2445532" lon="13.9269262"><ele>193.00000000000003</ele><time>2026-05-02T08:14:17.689Z</time></trkpt><trkpt lat="42.24453" lon="13.9270183"><ele>193.0</ele><time>2026-05-02T08:14:26.642Z</time></trkpt><trkpt lat="42.2445067" lon="13.9271115"><ele>191.85714285714286</ele><time>2026-05-02T08:14:33.727Z</time></trkpt><trkpt lat="42.244495" lon="13.9272078"><ele>190.71428571428572</ele><time>2026-05-02T08:14:39.651Z</time></trkpt><trkpt lat="42.244487" lon="13.9272985"><ele>189.57142857142856</ele><time>2026-05-02T08:14:44.645Z</time></trkpt><trkpt lat="42.2444669" lon="13.9273924"><ele>188.42857142857144</ele><time>2026-05-02T08:14:49.681Z</time></trkpt><trkpt lat="42.2444577" lon="13.9274805"><ele>187.28571428571428</ele><time>2026-05-02T08:14:54.468Z</time></trkpt><trkpt lat="42.2444562" lon="13.9275816"><ele>186.14285714285714</ele><time>2026-05-02T08:15:09.705Z</time></trkpt><trkpt lat="42.2444893" lon="13.9276563"><ele>185.0</ele><time>2026-05-02T08:15:14.707Z</time></trkpt><trkpt lat="42.2444562" lon="13.927733"><ele>183.99999999999997</ele><time>2026-05-02T08:15:18.686Z</time></trkpt><trkpt lat="42.2444512" lon="13.9278197"><ele>183.0</ele><time>2026-05-02T08:15:24.7Z</time></trkpt><trkpt lat="42.2444585" lon="13.9279065"><ele>182.0</ele><time>2026-05-02T08:15:30.711Z</time></trkpt><trkpt lat="42.2444273" lon="13.9279809"><ele>181.0</ele><time>2026-05-02T08:15:35.687Z</time></trkpt><trkpt lat="42.2444351" lon="13.9280813"><ele>180.0</ele><time>2026-05-02T08:15:41.705Z</time></trkpt><trkpt lat="42.2444082" lon="13.9281716"><ele>178.99999999999997</ele><time>2026-05-02T08:15:46.704Z</time></trkpt><trkpt lat="42.2443593" lon="13.9282458"><ele>178.0</ele><time>2026-05-02T08:15:51.652Z</time></trkpt><trkpt lat="42.2443935" lon="13.9283304"><ele>177.7142857142857</ele><time>2026-05-02T08:15:56.693Z</time></trkpt><trkpt lat="42.2444221" lon="13.9284213"><ele>177.42857142857142</ele><time>2026-05-02T08:16:02.701Z</time></trkpt><trkpt lat="42.2444736" lon="13.9284823"><ele>177.14285714285714</ele><time>2026-05-02T08:16:05.607Z</time></trkpt><trkpt lat="42.2445255" lon="13.928541"><ele>176.85714285714283</ele><time>2026-05-02T08:16:10.679Z</time></trkpt><trkpt lat="42.2445463" lon="13.9286335"><ele>176.57142857142856</ele><time>2026-05-02T08:16:17.685Z</time></trkpt><trkpt lat="42.2445741" lon="13.9287098"><ele>176.28571428571428</ele><time>2026-05-02T08:16:23.718Z</time></trkpt><trkpt lat="42.2445575" lon="13.9287954"><ele>176.0</ele><time>2026-05-02T08:16:32.698Z</time></trkpt><trkpt lat="42.244513" lon="13.9288573"><ele>176.0</ele><time>2026-05-02T08:16:43.206Z</time></trkpt><trkpt lat="42.2446523" lon="13.9288212"><ele>176.0</ele><time>2026-05-02T08:24:06.636Z</time></trkpt><trkpt lat="42.2445871" lon="13.9288405"><ele>176.0</ele><time>2026-05-02T08:24:08.674Z</time></trkpt><trkpt lat="42.2445357" lon="13.9287591"><ele>176.0</ele><time>2026-05-02T08:24:22.724Z</time></trkpt><trkpt lat="42.2445094" lon="13.9286742"><ele>176.0</ele><time>2026-05-02T08:24:31.679Z</time></trkpt><trkpt lat="42.2444713" lon="13.9285931"><ele>176.0</ele><time>2026-05-02T08:24:37.696Z</time></trkpt><trkpt lat="42.2444558" lon="13.9284991"><ele>176.0</ele><time>2026-05-02T08:24:46.699Z</time></trkpt><trkpt lat="42.2444194" lon="13.9284288"><ele>176.0</ele><time>2026-05-02T08:24:54.643Z</time></trkpt><trkpt lat="42.2443921" lon="13.9283318"><ele>176.0</ele><time>2026-05-02T08:25:00.701Z</time></trkpt><trkpt lat="42.244374" lon="13.9282395"><ele>176.0</ele><time>2026-05-02T08:25:05.703Z</time></trkpt><trkpt lat="42.2444203" lon="13.9281676"><ele>176.0</ele><time>2026-05-02T08:25:10.689Z</time></trkpt><trkpt lat="42.2444366" lon="13.9280798"><ele>176.0</ele><time>2026-05-02T08:25:17.7Z</time></trkpt><trkpt lat="42.2444604" lon="13.9279872"><ele>176.0</ele><time>2026-05-02T08:25:25.695Z</time></trkpt><trkpt lat="42.2444699" lon="13.9278931"><ele>176.28571428571428</ele><time>2026-05-02T08:25:32.715Z</time></trkpt><trkpt lat="42.2444528" lon="13.9278079"><ele>176.57142857142856</ele><time>2026-05-02T08:25:38.689Z</time></trkpt><trkpt lat="42.2444591" lon="13.9277174"><ele>176.85714285714283</ele><time>2026-05-02T08:25:44.701Z</time></trkpt><trkpt lat="42.2444349" lon="13.9276343"><ele>177.14285714285714</ele><time>2026-05-02T08:25:52.695Z</time></trkpt><trkpt lat="42.2444062" lon="13.9275534"><ele>177.42857142857142</ele><time>2026-05-02T08:26:06.689Z</time></trkpt><trkpt lat="42.2444203" lon="13.9274494"><ele>177.7142857142857</ele><time>2026-05-02T08:26:11.702Z</time></trkpt><trkpt lat="42.2444372" lon="13.9273509"><ele>178.0</ele><time>2026-05-02T08:26:16.694Z</time></trkpt><trkpt lat="42.2444575" lon="13.9272576"><ele>178.99999999999997</ele><time>2026-05-02T08:26:21.706Z</time></trkpt><trkpt lat="42.2444725" lon="13.9271676"><ele>180.0</ele><time>2026-05-02T08:26:27.665Z</time></trkpt><trkpt lat="42.2444943" lon="13.9270865"><ele>181.0</ele><time>2026-05-02T08:26:33.695Z</time></trkpt><trkpt lat="42.2445322" lon="13.9270181"><ele>182.0</ele><time>2026-05-02T08:26:39.695Z</time></trkpt><trkpt lat="42.2445688" lon="13.9269466"><ele>183.0</ele><time>2026-05-02T08:26:44.664Z</time></trkpt><trkpt lat="42.2446042" lon="13.9268613"><ele>183.99999999999997</ele><time>2026-05-02T08:26:50.7Z</time></trkpt><trkpt lat="42.2446303" lon="13.9267836"><ele>185.0</ele><time>2026-05-02T08:26:55.724Z</time></trkpt><trkpt lat="42.2446566" lon="13.9266902"><ele>186.14285714285714</ele><time>2026-05-02T08:27:01.695Z</time></trkpt><trkpt lat="42.2447064" lon="13.9266361"><ele>187.28571428571428</ele><time>2026-05-02T08:27:06.695Z</time></trkpt><trkpt lat="42.2447285" lon="13.9265521"><ele>188.42857142857144</ele><time>2026-05-02T08:27:15.715Z</time></trkpt><trkpt lat="42.2447558" lon="13.9264746"><ele>189.57142857142856</ele><time>2026-05-02T08:27:20.602Z</time></trkpt><trkpt lat="42.2447952" lon="13.9264081"><ele>190.71428571428572</ele><time>2026-05-02T08:27:26.715Z</time></trkpt><trkpt lat="42.2448177" lon="13.9263202"><ele>191.85714285714286</ele><time>2026-05-02T08:47:13.662Z</time></trkpt><trkpt lat="42.2447569" lon="13.9264341"><ele>193.0</ele><time>2026-05-02T08:47:15.665Z</time></trkpt><trkpt lat="42.244723" lon="13.9265316"><ele>192.99999999999997</ele><time>2026-05-02T08:47:16.665Z</time></trkpt><trkpt lat="42.2446718" lon="13.9266446"><ele>193.0</ele><time>2026-05-02T08:47:19.67Z</time></trkpt><trkpt lat="42.2446411" lon="13.9267286"><ele>193.0</ele><time>2026-05-02T08:47:21.674Z</time></trkpt><trkpt lat="42.2446153" lon="13.9268311"><ele>193.0</ele><time>2026-05-02T08:47:23.661Z</time></trkpt><trkpt lat="42.2445961" lon="13.9269349"><ele>192.99999999999997</ele><time>2026-05-02T08:47:26.682Z</time></trkpt><trkpt lat="42.244652" lon="13.927012"><ele>193.0</ele><time>2026-05-02T08:47:29.661Z</time></trkpt><trkpt lat="42.2447145" lon="13.9269785"><ele>191.66666666666666</ele><time>2026-05-02T08:47:30.668Z</time></trkpt><trkpt lat="42.2447778" lon="13.9269452"><ele>190.33333333333331</ele><time>2026-05-02T08:47:31.674Z</time></trkpt><trkpt lat="42.2448516" lon="13.926921"><ele>189.0</ele><time>2026-05-02T08:47:32.666Z</time></trkpt><trkpt lat="42.2449352" lon="13.9269049"><ele>187.66666666666666</ele><time>2026-05-02T08:47:33.677Z</time></trkpt><trkpt lat="42.2450289" lon="13.9268907"><ele>186.33333333333331</ele><time>2026-05-02T08:47:34.668Z</time></trkpt><trkpt lat="42.2451188" lon="13.9268791"><ele>185.0</ele><time>2026-05-02T08:47:35.662Z</time></trkpt><trkpt lat="42.2452159" lon="13.9268684"><ele>180.5</ele><time>2026-05-02T08:47:36.657Z</time></trkpt><trkpt lat="42.2453267" lon="13.9268588"><ele>176.0</ele><time>2026-05-02T08:47:37.662Z</time></trkpt><trkpt lat="42.2454423" lon="13.9268521"><ele>171.5</ele><time>2026-05-02T08:47:38.649Z</time></trkpt><trkpt lat="42.2455687" lon="13.9268505"><ele>167.0</ele><time>2026-05-02T08:47:39.66Z</time></trkpt><trkpt lat="42.2457065" lon="13.9268451"><ele>165.8</ele><time>2026-05-02T08:47:40.663Z</time></trkpt><trkpt lat="42.2458383" lon="13.9268317"><ele>164.6</ele><time>2026-05-02T08:47:41.696Z</time></trkpt><trkpt lat="42.2459503" lon="13.9268349"><ele>163.4</ele><time>2026-05-02T08:47:42.671Z</time></trkpt><trkpt lat="42.2460351" lon="13.9268212"><ele>162.20000000000002</ele><time>2026-05-02T08:47:43.67Z</time></trkpt><trkpt lat="42.2461063" lon="13.9267939"><ele>161.0</ele><time>2026-05-02T08:47:44.677Z</time></trkpt><trkpt lat="42.246157" lon="13.9267258"><ele>160.8</ele><time>2026-05-02T08:47:45.662Z</time></trkpt><trkpt lat="42.2461713" lon="13.926614"><ele>160.60000000000002</ele><time>2026-05-02T08:47:47.666Z</time></trkpt><trkpt lat="42.2460719" lon="13.9266061"><ele>160.4</ele><time>2026-05-02T08:47:49.672Z</time></trkpt><trkpt lat="42.2459906" lon="13.9266018"><ele>160.2</ele><time>2026-05-02T08:47:51.672Z</time></trkpt><trkpt lat="42.245879" lon="13.9265971"><ele>160.0</ele><time>2026-05-02T08:47:53.673Z</time></trkpt><trkpt lat="42.2457817" lon="13.9265822"><ele>160.0</ele><time>2026-05-02T08:47:55.67Z</time></trkpt><trkpt lat="42.2456907" lon="13.9265279"><ele>160.0</ele><time>2026-05-02T08:47:57.67Z</time></trkpt><trkpt lat="42.2456475" lon="13.9264216"><ele>160.0</ele><time>2026-05-02T08:47:59.672Z</time></trkpt><trkpt lat="42.2456278" lon="13.9262658"><ele>160.0</ele><time>2026-05-02T08:48:01.668Z</time></trkpt><trkpt lat="42.2456288" lon="13.9261222"><ele>160.0</ele><time>2026-05-02T08:48:03.679Z</time></trkpt><trkpt lat="42.2456309" lon="13.9259913"><ele>162.0</ele><time>2026-05-02T08:48:05.681Z</time></trkpt><trkpt lat="42.2456211" lon="13.9258798"><ele>164.0</ele><time>2026-05-02T08:48:07.666Z</time></trkpt><trkpt lat="42.2456207" lon="13.9257867"><ele>166.0</ele><time>2026-05-02T08:48:14.678Z</time></trkpt><trkpt lat="42.2456126" lon="13.9256925"><ele>168.0</ele><time>2026-05-02T08:48:15.66Z</time></trkpt><trkpt lat="42.2456171" lon="13.9255753"><ele>170.0</ele><time>2026-05-02T08:48:16.676Z</time></trkpt><trkpt lat="42.2456101" lon="13.9254197"><ele>172.0</ele><time>2026-05-02T08:48:17.673Z</time></trkpt><trkpt lat="42.245618" lon="13.9252511"><ele>170.0</ele><time>2026-05-02T08:48:18.674Z</time></trkpt><trkpt lat="42.2456402" lon="13.9250739"><ele>168.0</ele><time>2026-05-02T08:48:19.686Z</time></trkpt><trkpt lat="42.2456699" lon="13.9248898"><ele>166.0</ele><time>2026-05-02T08:48:20.676Z</time></trkpt><trkpt lat="42.2457124" lon="13.9247101"><ele>164.0</ele><time>2026-05-02T08:48:21.657Z</time></trkpt><trkpt lat="42.2457601" lon="13.9245449"><ele>164.0</ele><time>2026-05-02T08:48:22.666Z</time></trkpt><trkpt lat="42.2458077" lon="13.9244056"><ele>164.0</ele><time>2026-05-02T08:48:23.673Z</time></trkpt><trkpt lat="42.2458677" lon="13.9242902"><ele>164.0</ele><time>2026-05-02T08:48:24.673Z</time></trkpt><trkpt lat="42.2459424" lon="13.9241873"><ele>164.0</ele><time>2026-05-02T08:48:25.669Z</time></trkpt><trkpt lat="42.2460187" lon="13.9240714"><ele>164.0</ele><time>2026-05-02T08:48:26.673Z</time></trkpt><trkpt lat="42.246081" lon="13.9239455"><ele>164.0</ele><time>2026-05-02T08:48:27.668Z</time></trkpt><trkpt lat="42.2461264" lon="13.9238223"><ele>164.0</ele><time>2026-05-02T08:48:28.672Z</time></trkpt><trkpt lat="42.2461498" lon="13.9236934"><ele>164.0</ele><time>2026-05-02T08:48:29.678Z</time></trkpt><trkpt lat="42.246162" lon="13.9235442"><ele>164.0</ele><time>2026-05-02T08:48:30.665Z</time></trkpt><trkpt lat="42.2461623" lon="13.9234052"><ele>164.0</ele><time>2026-05-02T08:48:31.661Z</time></trkpt><trkpt lat="42.2461638" lon="13.9232528"><ele>164.5</ele><time>2026-05-02T08:48:32.667Z</time></trkpt><trkpt lat="42.2461579" lon="13.9230867"><ele>165.0</ele><time>2026-05-02T08:48:33.678Z</time></trkpt><trkpt lat="42.2461487" lon="13.9229112"><ele>165.5</ele><time>2026-05-02T08:48:34.662Z</time></trkpt><trkpt lat="42.246132" lon="13.9227299"><ele>166.0</ele><time>2026-05-02T08:48:35.656Z</time></trkpt><trkpt lat="42.2461227" lon="13.9225454"><ele>166.25</ele><time>2026-05-02T08:48:36.667Z</time></trkpt><trkpt lat="42.2461198" lon="13.9223745"><ele>166.5</ele><time>2026-05-02T08:48:37.664Z</time></trkpt><trkpt lat="42.2461184" lon="13.922204"><ele>166.75</ele><time>2026-05-02T08:48:38.681Z</time></trkpt><trkpt lat="42.2461089" lon="13.9220384"><ele>167.0</ele><time>2026-05-02T08:48:39.67Z</time></trkpt><trkpt lat="42.2460931" lon="13.9218804"><ele>167.0</ele><time>2026-05-02T08:48:40.672Z</time></trkpt><trkpt lat="42.2460571" lon="13.9217371"><ele>167.0</ele><time>2026-05-02T08:48:41.669Z</time></trkpt><trkpt lat="42.2460133" lon="13.9215891"><ele>167.0</ele><time>2026-05-02T08:48:42.668Z</time></trkpt><trkpt lat="42.2459644" lon="13.9214428"><ele>167.0</ele><time>2026-05-02T08:48:43.673Z</time></trkpt><trkpt lat="42.2459284" lon="13.9212997"><ele>167.39999999999998</ele><time>2026-05-02T08:48:44.674Z</time></trkpt><trkpt lat="42.245896" lon="13.9211645"><ele>167.79999999999998</ele><time>2026-05-02T08:48:45.687Z</time></trkpt><trkpt lat="42.245867" lon="13.9210292"><ele>168.2</ele><time>2026-05-02T08:48:46.661Z</time></trkpt><trkpt lat="42.2458191" lon="13.9208867"><ele>168.6</ele><time>2026-05-02T08:48:47.669Z</time></trkpt><trkpt lat="42.2457607" lon="13.9207448"><ele>169.0</ele><time>2026-05-02T08:48:48.678Z</time></trkpt><trkpt lat="42.2456973" lon="13.9206116"><ele>170.6</ele><time>2026-05-02T08:48:49.671Z</time></trkpt><trkpt lat="42.2456224" lon="13.9204795"><ele>172.2</ele><time>2026-05-02T08:48:50.681Z</time></trkpt><trkpt lat="42.2455581" lon="13.9203563"><ele>173.79999999999998</ele><time>2026-05-02T08:48:51.672Z</time></trkpt><trkpt lat="42.2455164" lon="13.92024"><ele>175.39999999999998</ele><time>2026-05-02T08:48:52.675Z</time></trkpt><trkpt lat="42.2454995" lon="13.9201051"><ele>177.0</ele><time>2026-05-02T08:48:53.666Z</time></trkpt><trkpt lat="42.2454837" lon="13.9199701"><ele>177.0</ele><time>2026-05-02T08:48:54.66Z</time></trkpt><trkpt lat="42.2454523" lon="13.919836"><ele>177.0</ele><time>2026-05-02T08:48:55.676Z</time></trkpt><trkpt lat="42.2453937" lon="13.9197043"><ele>177.0</ele><time>2026-05-02T08:48:56.667Z</time></trkpt><trkpt lat="42.2453271" lon="13.919574"><ele>177.0</ele><time>2026-05-02T08:48:57.682Z</time></trkpt><trkpt lat="42.2452727" lon="13.919429"><ele>177.0</ele><time>2026-05-02T08:48:58.669Z</time></trkpt><trkpt lat="42.2452504" lon="13.9192752"><ele>177.0</ele><time>2026-05-02T08:48:59.669Z</time></trkpt><trkpt lat="42.2452492" lon="13.9191348"><ele>177.0</ele><time>2026-05-02T08:49:00.672Z</time></trkpt><trkpt lat="42.2452526" lon="13.919002"><ele>177.0</ele><time>2026-05-02T08:49:01.674Z</time></trkpt><trkpt lat="42.2452665" lon="13.9188361"><ele>177.0</ele><time>2026-05-02T08:49:02.67Z</time></trkpt><trkpt lat="42.2452912" lon="13.9186648"><ele>176.5</ele><time>2026-05-02T08:49:03.668Z</time></trkpt><trkpt lat="42.2453182" lon="13.9184974"><ele>176.0</ele><time>2026-05-02T08:49:04.699Z</time></trkpt><trkpt lat="42.2453476" lon="13.9183355"><ele>175.5</ele><time>2026-05-02T08:49:05.678Z</time></trkpt><trkpt lat="42.2453847" lon="13.9181897"><ele>175.0</ele><time>2026-05-02T08:49:06.675Z</time></trkpt><trkpt lat="42.2454091" lon="13.9180599"><ele>174.83333333333334</ele><time>2026-05-02T08:49:07.672Z</time></trkpt><trkpt lat="42.2454233" lon="13.9179351"><ele>174.66666666666669</ele><time>2026-05-02T08:49:08.669Z</time></trkpt><trkpt lat="42.245431" lon="13.9178223"><ele>174.5</ele><time>2026-05-02T08:49:09.663Z</time></trkpt><trkpt lat="42.2454218" lon="13.9177117"><ele>174.33333333333334</ele><time>2026-05-02T08:49:10.661Z</time></trkpt><trkpt lat="42.245402" lon="13.9175958"><ele>174.16666666666666</ele><time>2026-05-02T08:49:11.665Z</time></trkpt><trkpt lat="42.2453628" lon="13.917493"><ele>174.0</ele><time>2026-05-02T08:49:12.676Z</time></trkpt><trkpt lat="42.245313" lon="13.9173985"><ele>174.0</ele><time>2026-05-02T08:49:13.677Z</time></trkpt><trkpt lat="42.2452547" lon="13.9173"><ele>174.0</ele><time>2026-05-02T08:49:14.673Z</time></trkpt><trkpt lat="42.2451794" lon="13.9172009"><ele>174.0</ele><time>2026-05-02T08:49:15.672Z</time></trkpt><trkpt lat="42.2451035" lon="13.9170997"><ele>174.0</ele><time>2026-05-02T08:49:16.671Z</time></trkpt><trkpt lat="42.2450304" lon="13.9169906"><ele>174.0</ele><time>2026-05-02T08:49:17.681Z</time></trkpt><trkpt lat="42.2449658" lon="13.9168764"><ele>174.0</ele><time>2026-05-02T08:49:18.677Z</time></trkpt><trkpt lat="42.2449113" lon="13.9167494"><ele>174.0</ele><time>2026-05-02T08:49:19.671Z</time></trkpt><trkpt lat="42.2448619" lon="13.9166258"><ele>174.0</ele><time>2026-05-02T08:49:20.666Z</time></trkpt><trkpt lat="42.2448258" lon="13.9165218"><ele>174.0</ele><time>2026-05-02T08:49:21.678Z</time></trkpt><trkpt lat="42.2447841" lon="13.916452"><ele>174.0</ele><time>2026-05-02T08:49:22.683Z</time></trkpt><trkpt lat="42.2447212" lon="13.9164028"><ele>174.0</ele><time>2026-05-02T08:49:23.682Z</time></trkpt><trkpt lat="42.2446495" lon="13.916381"><ele>174.83333333333334</ele><time>2026-05-02T08:49:24.676Z</time></trkpt><trkpt lat="42.244565" lon="13.9163543"><ele>175.66666666666666</ele><time>2026-05-02T08:49:25.676Z</time></trkpt><trkpt lat="42.2444758" lon="13.9163251"><ele>176.5</ele><time>2026-05-02T08:49:26.681Z</time></trkpt><trkpt lat="42.2444" lon="13.9162786"><ele>177.33333333333331</ele><time>2026-05-02T08:49:27.67Z</time></trkpt><trkpt lat="42.244342" lon="13.9162104"><ele>178.16666666666666</ele><time>2026-05-02T08:49:28.679Z</time></trkpt><trkpt lat="42.2443011" lon="13.9161236"><ele>179.0</ele><time>2026-05-02T08:49:29.67Z</time></trkpt><trkpt lat="42.2442669" lon="13.9160124"><ele>179.25</ele><time>2026-05-02T08:49:30.668Z</time></trkpt><trkpt lat="42.2442397" lon="13.9158574"><ele>179.5</ele><time>2026-05-02T08:49:31.673Z</time></trkpt><trkpt lat="42.2442023" lon="13.915703"><ele>179.75</ele><time>2026-05-02T08:49:32.68Z</time></trkpt><trkpt lat="42.2441323" lon="13.915533"><ele>180.0</ele><time>2026-05-02T08:49:33.682Z</time></trkpt><trkpt lat="42.2440512" lon="13.9153716"><ele>180.0</ele><time>2026-05-02T08:49:34.676Z</time></trkpt><trkpt lat="42.2439744" lon="13.9152735"><ele>180.0</ele><time>2026-05-02T08:49:35.674Z</time></trkpt><trkpt lat="42.2438821" lon="13.91521"><ele>180.0</ele><time>2026-05-02T08:49:36.663Z</time></trkpt><trkpt lat="42.2437745" lon="13.9151432"><ele>180.0</ele><time>2026-05-02T08:49:37.688Z</time></trkpt><trkpt lat="42.2436714" lon="13.9150434"><ele>181.5</ele><time>2026-05-02T08:49:38.673Z</time></trkpt><trkpt lat="42.2435746" lon="13.9149189"><ele>183.0</ele><time>2026-05-02T08:49:39.688Z</time></trkpt><trkpt lat="42.2434817" lon="13.9147834"><ele>184.5</ele><time>2026-05-02T08:49:40.674Z</time></trkpt><trkpt lat="42.2433946" lon="13.9146569"><ele>186.0</ele><time>2026-05-02T08:49:41.669Z</time></trkpt><trkpt lat="42.2433293" lon="13.914551"><ele>186.0</ele><time>2026-05-02T08:49:42.679Z</time></trkpt><trkpt lat="42.243267" lon="13.9144125"><ele>186.0</ele><time>2026-05-02T08:49:44.691Z</time></trkpt><trkpt lat="42.2432578" lon="13.9142971"><ele>186.0</ele><time>2026-05-02T08:49:45.667Z</time></trkpt><trkpt lat="42.2432474" lon="13.9141292"><ele>186.0</ele><time>2026-05-02T08:49:46.663Z</time></trkpt><trkpt lat="42.2432231" lon="13.9139466"><ele>187.25</ele><time>2026-05-02T08:49:47.674Z</time></trkpt><trkpt lat="42.2431972" lon="13.9137625"><ele>188.5</ele><time>2026-05-02T08:49:48.681Z</time></trkpt><trkpt lat="42.2431756" lon="13.9135594"><ele>189.75</ele><time>2026-05-02T08:49:49.687Z</time></trkpt><trkpt lat="42.24315" lon="13.9133864"><ele>191.0</ele><time>2026-05-02T08:49:50.662Z</time></trkpt><trkpt lat="42.243107" lon="13.9132199"><ele>191.0</ele><time>2026-05-02T08:49:51.664Z</time></trkpt><trkpt lat="42.2430488" lon="13.9130452"><ele>191.0</ele><time>2026-05-02T08:49:52.669Z</time></trkpt><trkpt lat="42.2429449" lon="13.9128625"><ele>191.0</ele><time>2026-05-02T08:49:53.671Z</time></trkpt><trkpt lat="42.2428525" lon="13.9126956"><ele>191.25</ele><time>2026-05-02T08:49:54.667Z</time></trkpt><trkpt lat="42.2427799" lon="13.9125378"><ele>191.5</ele><time>2026-05-02T08:49:55.681Z</time></trkpt><trkpt lat="42.2427181" lon="13.9123646"><ele>191.75</ele><time>2026-05-02T08:49:56.672Z</time></trkpt><trkpt lat="42.2426553" lon="13.9122183"><ele>192.0</ele><time>2026-05-02T08:49:57.682Z</time></trkpt><trkpt lat="42.2426106" lon="13.9121384"><ele>192.0</ele><time>2026-05-02T08:49:58.663Z</time></trkpt><trkpt lat="42.2425439" lon="13.9120903"><ele>192.0</ele><time>2026-05-02T08:50:00.683Z</time></trkpt><trkpt lat="42.2424514" lon="13.9121502"><ele>192.0</ele><time>2026-05-02T08:50:02.683Z</time></trkpt><trkpt lat="42.2423729" lon="13.9122336"><ele>192.0</ele><time>2026-05-02T08:50:03.672Z</time></trkpt><trkpt lat="42.2422843" lon="13.9123388"><ele>192.0</ele><time>2026-05-02T08:50:04.672Z</time></trkpt><trkpt lat="42.2421949" lon="13.9124524"><ele>193.66666666666666</ele><time>2026-05-02T08:50:05.671Z</time></trkpt><trkpt lat="42.2421221" lon="13.9125717"><ele>195.33333333333331</ele><time>2026-05-02T08:50:06.667Z</time></trkpt><trkpt lat="42.2420884" lon="13.9126759"><ele>197.0</ele><time>2026-05-02T08:50:07.701Z</time></trkpt><trkpt lat="42.2420718" lon="13.9127693"><ele>198.66666666666666</ele><time>2026-05-02T08:50:08.661Z</time></trkpt><trkpt lat="42.2420564" lon="13.9128722"><ele>200.33333333333331</ele><time>2026-05-02T08:50:09.67Z</time></trkpt><trkpt lat="42.2420548" lon="13.9129952"><ele>202.0</ele><time>2026-05-02T08:50:10.68Z</time></trkpt><trkpt lat="42.2420476" lon="13.9131185"><ele>202.5</ele><time>2026-05-02T08:50:11.663Z</time></trkpt><trkpt lat="42.2420192" lon="13.913267"><ele>203.0</ele><time>2026-05-02T08:50:12.672Z</time></trkpt><trkpt lat="42.2419766" lon="13.9134469"><ele>203.5</ele><time>2026-05-02T08:50:13.673Z</time></trkpt><trkpt lat="42.2419325" lon="13.9136407"><ele>204.0</ele><time>2026-05-02T08:50:14.683Z</time></trkpt><trkpt lat="42.241901" lon="13.9138352"><ele>204.0</ele><time>2026-05-02T08:50:15.668Z</time></trkpt><trkpt lat="42.2418839" lon="13.914023"><ele>204.0</ele><time>2026-05-02T08:50:16.678Z</time></trkpt><trkpt lat="42.2418713" lon="13.9141796"><ele>204.0</ele><time>2026-05-02T08:50:17.658Z</time></trkpt><trkpt lat="42.2418773" lon="13.9143194"><ele>204.0</ele><time>2026-05-02T08:50:18.669Z</time></trkpt><trkpt lat="42.2418762" lon="13.9144525"><ele>203.66666666666666</ele><time>2026-05-02T08:50:19.666Z</time></trkpt><trkpt lat="42.2418512" lon="13.9145728"><ele>203.33333333333331</ele><time>2026-05-02T08:50:20.663Z</time></trkpt><trkpt lat="42.2418185" lon="13.9146599"><ele>203.0</ele><time>2026-05-02T08:50:21.668Z</time></trkpt><trkpt lat="42.2417502" lon="13.9147555"><ele>202.66666666666666</ele><time>2026-05-02T08:50:22.659Z</time></trkpt><trkpt lat="42.2416879" lon="13.9148431"><ele>202.33333333333331</ele><time>2026-05-02T08:50:23.673Z</time></trkpt><trkpt lat="42.2416308" lon="13.9148953"><ele>202.0</ele><time>2026-05-02T08:50:24.669Z</time></trkpt><trkpt lat="42.241505" lon="13.9148268"><ele>205.0</ele><time>2026-05-02T08:50:26.67Z</time></trkpt><trkpt lat="42.2414552" lon="13.9147166"><ele>208.0</ele><time>2026-05-02T08:50:27.678Z</time></trkpt><trkpt lat="42.2413958" lon="13.9145634"><ele>211.0</ele><time>2026-05-02T08:50:28.671Z</time></trkpt><trkpt lat="42.2413162" lon="13.9144238"><ele>214.0</ele><time>2026-05-02T08:50:29.666Z</time></trkpt><trkpt lat="42.2412296" lon="13.9143299"><ele>214.0</ele><time>2026-05-02T08:50:30.683Z</time></trkpt><trkpt lat="42.2411674" lon="13.9142415"><ele>213.99999999999997</ele><time>2026-05-02T08:50:31.667Z</time></trkpt><trkpt lat="42.241121" lon="13.9141436"><ele>213.99999999999997</ele><time>2026-05-02T08:50:32.685Z</time></trkpt><trkpt lat="42.2410906" lon="13.9140493"><ele>214.0</ele><time>2026-05-02T08:50:33.674Z</time></trkpt><trkpt lat="42.2410719" lon="13.9139218"><ele>214.0</ele><time>2026-05-02T08:50:34.656Z</time></trkpt><trkpt lat="42.2410451" lon="13.9137705"><ele>215.0</ele><time>2026-05-02T08:50:35.675Z</time></trkpt><trkpt lat="42.2410071" lon="13.9135952"><ele>216.0</ele><time>2026-05-02T08:50:36.681Z</time></trkpt><trkpt lat="42.240962" lon="13.9134256"><ele>217.0</ele><time>2026-05-02T08:50:37.677Z</time></trkpt><trkpt lat="42.2408946" lon="13.9132716"><ele>218.0</ele><time>2026-05-02T08:50:38.676Z</time></trkpt><trkpt lat="42.2408056" lon="13.9131"><ele>220.66666666666669</ele><time>2026-05-02T08:50:39.671Z</time></trkpt><trkpt lat="42.2407077" lon="13.9129309"><ele>223.33333333333331</ele><time>2026-05-02T08:50:40.668Z</time></trkpt><trkpt lat="42.2406132" lon="13.9127671"><ele>226.0</ele><time>2026-05-02T08:50:41.675Z</time></trkpt><trkpt lat="42.2405265" lon="13.9126227"><ele>229.0</ele><time>2026-05-02T08:50:42.663Z</time></trkpt><trkpt lat="42.2404311" lon="13.9125162"><ele>232.0</ele><time>2026-05-02T08:50:43.672Z</time></trkpt><trkpt lat="42.2403321" lon="13.9124202"><ele>235.0</ele><time>2026-05-02T08:50:44.664Z</time></trkpt><trkpt lat="42.2402293" lon="13.912305"><ele>238.0</ele><time>2026-05-02T08:50:45.682Z</time></trkpt><trkpt lat="42.2401256" lon="13.9121704"><ele>238.0</ele><time>2026-05-02T08:50:46.667Z</time></trkpt><trkpt lat="42.2400374" lon="13.9120556"><ele>238.0</ele><time>2026-05-02T08:50:47.659Z</time></trkpt><trkpt lat="42.239976" lon="13.9119718"><ele>238.0</ele><time>2026-05-02T08:50:48.663Z</time></trkpt><trkpt lat="42.2398928" lon="13.9118731"><ele>238.0</ele><time>2026-05-02T08:50:50.682Z</time></trkpt><trkpt lat="42.2398576" lon="13.911776"><ele>238.0</ele><time>2026-05-02T08:50:52.661Z</time></trkpt><trkpt lat="42.239833" lon="13.9116824"><ele>240.75</ele><time>2026-05-02T08:50:53.684Z</time></trkpt><trkpt lat="42.2397895" lon="13.9115387"><ele>243.5</ele><time>2026-05-02T08:50:54.663Z</time></trkpt><trkpt lat="42.2397309" lon="13.911357"><ele>246.25</ele><time>2026-05-02T08:50:55.68Z</time></trkpt><trkpt lat="42.2396726" lon="13.9111559"><ele>249.0</ele><time>2026-05-02T08:50:56.666Z</time></trkpt><trkpt lat="42.2395945" lon="13.9109568"><ele>249.25</ele><time>2026-05-02T08:50:57.663Z</time></trkpt><trkpt lat="42.2395245" lon="13.9108111"><ele>249.5</ele><time>2026-05-02T08:50:58.665Z</time></trkpt><trkpt lat="42.2394493" lon="13.9107043"><ele>249.75</ele><time>2026-05-02T08:50:59.662Z</time></trkpt><trkpt lat="42.239356" lon="13.9106041"><ele>250.0</ele><time>2026-05-02T08:51:00.663Z</time></trkpt><trkpt lat="42.2392683" lon="13.9104896"><ele>250.0</ele><time>2026-05-02T08:51:01.666Z</time></trkpt><trkpt lat="42.2391695" lon="13.9103554"><ele>250.0</ele><time>2026-05-02T08:51:02.68Z</time></trkpt><trkpt lat="42.2390765" lon="13.910198"><ele>250.0</ele><time>2026-05-02T08:51:03.673Z</time></trkpt><trkpt lat="42.2389881" lon="13.9100415"><ele>250.0</ele><time>2026-05-02T08:51:04.664Z</time></trkpt><trkpt lat="42.2388927" lon="13.9099153"><ele>253.75</ele><time>2026-05-02T08:51:05.678Z</time></trkpt><trkpt lat="42.2388039" lon="13.9098246"><ele>257.5</ele><time>2026-05-02T08:51:06.671Z</time></trkpt><trkpt lat="42.2387189" lon="13.9097535"><ele>261.25</ele><time>2026-05-02T08:51:07.694Z</time></trkpt><trkpt lat="42.2386024" lon="13.9096762"><ele>265.0</ele><time>2026-05-02T08:51:08.675Z</time></trkpt><trkpt lat="42.2384825" lon="13.9095731"><ele>265.0</ele><time>2026-05-02T08:51:09.676Z</time></trkpt><trkpt lat="42.2383805" lon="13.9094641"><ele>265.0</ele><time>2026-05-02T08:51:10.676Z</time></trkpt><trkpt lat="42.238273" lon="13.9093268"><ele>265.0</ele><time>2026-05-02T08:51:11.668Z</time></trkpt><trkpt lat="42.2381772" lon="13.9092133"><ele>265.0</ele><time>2026-05-02T08:51:12.681Z</time></trkpt><trkpt lat="42.2380843" lon="13.9091485"><ele>267.2</ele><time>2026-05-02T08:51:13.654Z</time></trkpt><trkpt lat="42.2379938" lon="13.9091132"><ele>269.4</ele><time>2026-05-02T08:51:14.677Z</time></trkpt><trkpt lat="42.2378956" lon="13.9091163"><ele>271.6</ele><time>2026-05-02T08:51:15.665Z</time></trkpt><trkpt lat="42.2378152" lon="13.9091257"><ele>273.8</ele><time>2026-05-02T08:51:16.657Z</time></trkpt><trkpt lat="42.2377087" lon="13.909139"><ele>276.0</ele><time>2026-05-02T08:51:18.679Z</time></trkpt><trkpt lat="42.2376585" lon="13.9090252"><ele>276.0</ele><time>2026-05-02T08:51:20.659Z</time></trkpt><trkpt lat="42.2376187" lon="13.9089138"><ele>276.0</ele><time>2026-05-02T08:51:21.67Z</time></trkpt><trkpt lat="42.2375615" lon="13.9087737"><ele>276.0</ele><time>2026-05-02T08:51:22.677Z</time></trkpt><trkpt lat="42.2374924" lon="13.908629"><ele>276.0</ele><time>2026-05-02T08:51:23.698Z</time></trkpt><trkpt lat="42.2374271" lon="13.9084784"><ele>276.75</ele><time>2026-05-02T08:51:24.663Z</time></trkpt><trkpt lat="42.2373747" lon="13.9083183"><ele>277.5</ele><time>2026-05-02T08:51:25.682Z</time></trkpt><trkpt lat="42.2373146" lon="13.9081682"><ele>278.25</ele><time>2026-05-02T08:51:26.664Z</time></trkpt><trkpt lat="42.2372438" lon="13.9080048"><ele>279.0</ele><time>2026-05-02T08:51:27.674Z</time></trkpt><trkpt lat="42.2371708" lon="13.9078469"><ele>279.0</ele><time>2026-05-02T08:51:28.668Z</time></trkpt><trkpt lat="42.23709" lon="13.9076923"><ele>279.0</ele><time>2026-05-02T08:51:29.666Z</time></trkpt><trkpt lat="42.2370275" lon="13.9075666"><ele>279.0</ele><time>2026-05-02T08:51:30.691Z</time></trkpt><trkpt lat="42.236976" lon="13.9074495"><ele>279.0</ele><time>2026-05-02T08:51:31.661Z</time></trkpt><trkpt lat="42.2369319" lon="13.9073423"><ele>279.0</ele><time>2026-05-02T08:51:32.667Z</time></trkpt><trkpt lat="42.2368908" lon="13.9072501"><ele>279.0</ele><time>2026-05-02T08:51:33.66Z</time></trkpt><trkpt lat="42.2368446" lon="13.9071565"><ele>279.0</ele><time>2026-05-02T08:51:34.675Z</time></trkpt><trkpt lat="42.2367967" lon="13.9070517"><ele>279.0</ele><time>2026-05-02T08:51:35.673Z</time></trkpt><trkpt lat="42.2367463" lon="13.9069367"><ele>279.0</ele><time>2026-05-02T08:51:36.677Z</time></trkpt><trkpt lat="42.2366941" lon="13.9068258"><ele>279.0</ele><time>2026-05-02T08:51:37.675Z</time></trkpt><trkpt lat="42.2366431" lon="13.9067261"><ele>278.5</ele><time>2026-05-02T08:51:38.672Z</time></trkpt><trkpt lat="42.2365883" lon="13.9066388"><ele>278.0</ele><time>2026-05-02T08:51:39.67Z</time></trkpt><trkpt lat="42.2365261" lon="13.9065542"><ele>277.5</ele><time>2026-05-02T08:51:40.668Z</time></trkpt><trkpt lat="42.2364698" lon="13.9064779"><ele>277.0</ele><time>2026-05-02T08:51:41.684Z</time></trkpt><trkpt lat="42.2364196" lon="13.9064062"><ele>276.5</ele><time>2026-05-02T08:51:42.678Z</time></trkpt><trkpt lat="42.2363455" lon="13.9063328"><ele>276.0</ele><time>2026-05-02T08:51:44.67Z</time></trkpt><trkpt lat="42.2362906" lon="13.9062477"><ele>276.0</ele><time>2026-05-02T08:51:47.668Z</time></trkpt><trkpt lat="42.2362563" lon="13.9061735"><ele>276.0</ele><time>2026-05-02T08:52:00.672Z</time></trkpt><trkpt lat="42.2362244" lon="13.906041"><ele>276.0</ele><time>2026-05-02T08:52:04.673Z</time></trkpt><trkpt lat="42.2362068" lon="13.9059494"><ele>276.0</ele><time>2026-05-02T08:52:05.676Z</time></trkpt><trkpt lat="42.2362001" lon="13.9058514"><ele>276.0</ele><time>2026-05-02T08:52:06.676Z</time></trkpt><trkpt lat="42.2361746" lon="13.9057473"><ele>276.0</ele><time>2026-05-02T08:52:07.676Z</time></trkpt><trkpt lat="42.2361465" lon="13.9056271"><ele>278.40000000000003</ele><time>2026-05-02T08:52:08.686Z</time></trkpt><trkpt lat="42.2361001" lon="13.9055122"><ele>280.8</ele><time>2026-05-02T08:52:09.68Z</time></trkpt><trkpt lat="42.2360567" lon="13.9053892"><ele>283.20000000000005</ele><time>2026-05-02T08:52:10.677Z</time></trkpt><trkpt lat="42.2360069" lon="13.9052495"><ele>285.6</ele><time>2026-05-02T08:52:11.687Z</time></trkpt><trkpt lat="42.2359405" lon="13.9050909"><ele>288.0</ele><time>2026-05-02T08:52:12.68Z</time></trkpt><trkpt lat="42.2358512" lon="13.9049126"><ele>287.3333333333333</ele><time>2026-05-02T08:52:13.68Z</time></trkpt><trkpt lat="42.2357708" lon="13.9047247"><ele>286.66666666666663</ele><time>2026-05-02T08:52:14.672Z</time></trkpt><trkpt lat="42.2356839" lon="13.9045399"><ele>286.0</ele><time>2026-05-02T08:52:15.684Z</time></trkpt><trkpt lat="42.2355991" lon="13.9043487"><ele>287.75</ele><time>2026-05-02T08:52:16.669Z</time></trkpt><trkpt lat="42.2355223" lon="13.9041706"><ele>289.5</ele><time>2026-05-02T08:52:17.687Z</time></trkpt><trkpt lat="42.2354522" lon="13.9040066"><ele>291.25</ele><time>2026-05-02T08:52:18.685Z</time></trkpt><trkpt lat="42.2354002" lon="13.9038201"><ele>293.0</ele><time>2026-05-02T08:52:19.68Z</time></trkpt><trkpt lat="42.2353564" lon="13.9036283"><ele>293.0</ele><time>2026-05-02T08:52:20.67Z</time></trkpt><trkpt lat="42.2353271" lon="13.9034333"><ele>293.0</ele><time>2026-05-02T08:52:21.678Z</time></trkpt><trkpt lat="42.2353046" lon="13.9032375"><ele>293.0</ele><time>2026-05-02T08:52:22.691Z</time></trkpt><trkpt lat="42.2352737" lon="13.9030524"><ele>293.0</ele><time>2026-05-02T08:52:23.677Z</time></trkpt><trkpt lat="42.2352502" lon="13.9028908"><ele>293.4</ele><time>2026-05-02T08:52:24.687Z</time></trkpt><trkpt lat="42.235261" lon="13.9027905"><ele>293.8</ele><time>2026-05-02T08:52:25.676Z</time></trkpt><trkpt lat="42.2353457" lon="13.9027252"><ele>294.2</ele><time>2026-05-02T08:52:27.685Z</time></trkpt><trkpt lat="42.235425" lon="13.9028641"><ele>294.6</ele><time>2026-05-02T08:52:29.692Z</time></trkpt><trkpt lat="42.2354382" lon="13.9029874"><ele>295.0</ele><time>2026-05-02T08:52:30.684Z</time></trkpt><trkpt lat="42.2354605" lon="13.9031292"><ele>295.0</ele><time>2026-05-02T08:52:31.675Z</time></trkpt><trkpt lat="42.2354936" lon="13.9032989"><ele>295.0</ele><time>2026-05-02T08:52:32.684Z</time></trkpt><trkpt lat="42.2355441" lon="13.9034803"><ele>295.0</ele><time>2026-05-02T08:52:33.677Z</time></trkpt><trkpt lat="42.2356084" lon="13.9036434"><ele>295.0</ele><time>2026-05-02T08:52:34.679Z</time></trkpt><trkpt lat="42.2356704" lon="13.9037744"><ele>296.16666666666663</ele><time>2026-05-02T08:52:35.681Z</time></trkpt><trkpt lat="42.2357294" lon="13.903859"><ele>297.3333333333333</ele><time>2026-05-02T08:52:36.69Z</time></trkpt><trkpt lat="42.2357857" lon="13.9039025"><ele>298.5</ele><time>2026-05-02T08:52:37.683Z</time></trkpt><trkpt lat="42.2358893" lon="13.9038018"><ele>299.6666666666667</ele><time>2026-05-02T08:52:39.682Z</time></trkpt><trkpt lat="42.2359091" lon="13.9037144"><ele>300.83333333333337</ele><time>2026-05-02T08:52:40.688Z</time></trkpt><trkpt lat="42.2358949" lon="13.9035834"><ele>302.0</ele><time>2026-05-02T08:52:41.681Z</time></trkpt><trkpt lat="42.2358696" lon="13.9033977"><ele>304.0</ele><time>2026-05-02T08:52:42.668Z</time></trkpt><trkpt lat="42.235846" lon="13.9031652"><ele>306.0</ele><time>2026-05-02T08:52:43.676Z</time></trkpt><trkpt lat="42.2358413" lon="13.9029262"><ele>308.0</ele><time>2026-05-02T08:52:44.68Z</time></trkpt><trkpt lat="42.2358298" lon="13.902709"><ele>310.6666666666667</ele><time>2026-05-02T08:52:45.683Z</time></trkpt><trkpt lat="42.2358101" lon="13.902487"><ele>313.3333333333333</ele><time>2026-05-02T08:52:46.678Z</time></trkpt><trkpt lat="42.2357801" lon="13.902238"><ele>316.0</ele><time>2026-05-02T08:52:47.696Z</time></trkpt><trkpt lat="42.2357748" lon="13.9019992"><ele>316.0</ele><time>2026-05-02T08:52:48.68Z</time></trkpt><trkpt lat="42.2357551" lon="13.9017648"><ele>316.0</ele><time>2026-05-02T08:52:49.677Z</time></trkpt><trkpt lat="42.2357349" lon="13.9015367"><ele>316.0</ele><time>2026-05-02T08:52:50.68Z</time></trkpt><trkpt lat="42.2357152" lon="13.9013192"><ele>318.0</ele><time>2026-05-02T08:52:51.678Z</time></trkpt><trkpt lat="42.235706" lon="13.9011035"><ele>320.0</ele><time>2026-05-02T08:52:52.676Z</time></trkpt><trkpt lat="42.2356995" lon="13.9008919"><ele>322.0</ele><time>2026-05-02T08:52:53.677Z</time></trkpt><trkpt lat="42.2356939" lon="13.900687"><ele>323.75</ele><time>2026-05-02T08:52:54.688Z</time></trkpt><trkpt lat="42.2356889" lon="13.9004874"><ele>325.5</ele><time>2026-05-02T08:52:55.681Z</time></trkpt><trkpt lat="42.2356862" lon="13.9002979"><ele>327.25</ele><time>2026-05-02T08:52:56.689Z</time></trkpt><trkpt lat="42.2356829" lon="13.9001288"><ele>329.0</ele><time>2026-05-02T08:52:57.679Z</time></trkpt><trkpt lat="42.2356726" lon="13.8999793"><ele>329.6</ele><time>2026-05-02T08:52:58.691Z</time></trkpt><trkpt lat="42.2356837" lon="13.8998325"><ele>330.2</ele><time>2026-05-02T08:52:59.677Z</time></trkpt><trkpt lat="42.2357031" lon="13.8997006"><ele>330.8</ele><time>2026-05-02T08:53:00.684Z</time></trkpt><trkpt lat="42.2357213" lon="13.8995602"><ele>331.40000000000003</ele><time>2026-05-02T08:53:01.688Z</time></trkpt><trkpt lat="42.2357407" lon="13.8994261"><ele>332.0</ele><time>2026-05-02T08:53:02.678Z</time></trkpt><trkpt lat="42.2357441" lon="13.8993019"><ele>333.6</ele><time>2026-05-02T08:53:03.664Z</time></trkpt><trkpt lat="42.2357471" lon="13.8991794"><ele>335.20000000000005</ele><time>2026-05-02T08:53:04.681Z</time></trkpt><trkpt lat="42.2357399" lon="13.8990415"><ele>336.8</ele><time>2026-05-02T08:53:05.68Z</time></trkpt><trkpt lat="42.235744" lon="13.8988869"><ele>338.4</ele><time>2026-05-02T08:53:06.684Z</time></trkpt><trkpt lat="42.2357511" lon="13.8987368"><ele>340.0</ele><time>2026-05-02T08:53:07.689Z</time></trkpt><trkpt lat="42.2357546" lon="13.8985848"><ele>340.0</ele><time>2026-05-02T08:53:08.683Z</time></trkpt><trkpt lat="42.2357571" lon="13.8984422"><ele>340.0</ele><time>2026-05-02T08:53:09.666Z</time></trkpt><trkpt lat="42.2357545" lon="13.8983051"><ele>340.0</ele><time>2026-05-02T08:53:10.687Z</time></trkpt><trkpt lat="42.2357389" lon="13.898186"><ele>340.0</ele><time>2026-05-02T08:53:11.688Z</time></trkpt><trkpt lat="42.2357164" lon="13.8980758"><ele>340.0</ele><time>2026-05-02T08:53:12.691Z</time></trkpt><trkpt lat="42.2356849" lon="13.897958"><ele>342.0</ele><time>2026-05-02T08:53:13.673Z</time></trkpt><trkpt lat="42.2356731" lon="13.8978283"><ele>344.0</ele><time>2026-05-02T08:53:14.676Z</time></trkpt><trkpt lat="42.235667" lon="13.897673"><ele>346.0</ele><time>2026-05-02T08:53:15.68Z</time></trkpt><trkpt lat="42.2356892" lon="13.8975068"><ele>348.0</ele><time>2026-05-02T08:53:16.672Z</time></trkpt><trkpt lat="42.2357171" lon="13.8973352"><ele>349.0</ele><time>2026-05-02T08:53:17.671Z</time></trkpt><trkpt lat="42.2357374" lon="13.8971714"><ele>350.0</ele><time>2026-05-02T08:53:18.685Z</time></trkpt><trkpt lat="42.2357724" lon="13.8970194"><ele>351.0</ele><time>2026-05-02T08:53:19.682Z</time></trkpt><trkpt lat="42.2358033" lon="13.8968796"><ele>352.0</ele><time>2026-05-02T08:53:20.675Z</time></trkpt><trkpt lat="42.2358347" lon="13.8967517"><ele>353.0</ele><time>2026-05-02T08:53:21.678Z</time></trkpt><trkpt lat="42.235872" lon="13.8966121"><ele>353.0</ele><time>2026-05-02T08:53:22.673Z</time></trkpt><trkpt lat="42.2359016" lon="13.896448"><ele>353.0</ele><time>2026-05-02T08:53:23.68Z</time></trkpt><trkpt lat="42.2359265" lon="13.8962962"><ele>353.0</ele><time>2026-05-02T08:53:24.681Z</time></trkpt><trkpt lat="42.2359459" lon="13.896124"><ele>353.0</ele><time>2026-05-02T08:53:25.687Z</time></trkpt><trkpt lat="42.2359663" lon="13.895959"><ele>352.2</ele><time>2026-05-02T08:53:26.679Z</time></trkpt><trkpt lat="42.2359756" lon="13.8958058"><ele>351.4</ele><time>2026-05-02T08:53:27.687Z</time></trkpt><trkpt lat="42.2359986" lon="13.8956674"><ele>350.59999999999997</ele><time>2026-05-02T08:53:28.669Z</time></trkpt><trkpt lat="42.2360231" lon="13.8955432"><ele>349.79999999999995</ele><time>2026-05-02T08:53:29.682Z</time></trkpt><trkpt lat="42.2360508" lon="13.8954104"><ele>349.0</ele><time>2026-05-02T08:53:30.687Z</time></trkpt><trkpt lat="42.2360742" lon="13.8952714"><ele>349.0</ele><time>2026-05-02T08:53:31.684Z</time></trkpt><trkpt lat="42.2360877" lon="13.8951191"><ele>349.0</ele><time>2026-05-02T08:53:32.665Z</time></trkpt><trkpt lat="42.23609" lon="13.8949562"><ele>349.0</ele><time>2026-05-02T08:53:33.668Z</time></trkpt><trkpt lat="42.2360941" lon="13.8948018"><ele>349.0</ele><time>2026-05-02T08:53:34.669Z</time></trkpt><trkpt lat="42.2361044" lon="13.8946494"><ele>348.6</ele><time>2026-05-02T08:53:35.672Z</time></trkpt><trkpt lat="42.2361206" lon="13.8945117"><ele>348.2</ele><time>2026-05-02T08:53:36.681Z</time></trkpt><trkpt lat="42.2361535" lon="13.894387"><ele>347.8</ele><time>2026-05-02T08:53:37.685Z</time></trkpt><trkpt lat="42.2361912" lon="13.8942672"><ele>347.40000000000003</ele><time>2026-05-02T08:53:38.685Z</time></trkpt><trkpt lat="42.2362282" lon="13.8941225"><ele>347.0</ele><time>2026-05-02T08:53:39.685Z</time></trkpt><trkpt lat="42.2362397" lon="13.8939643"><ele>346.8</ele><time>2026-05-02T08:53:40.673Z</time></trkpt><trkpt lat="42.2362416" lon="13.8938083"><ele>346.6</ele><time>2026-05-02T08:53:41.669Z</time></trkpt><trkpt lat="42.2362341" lon="13.8936536"><ele>346.40000000000003</ele><time>2026-05-02T08:53:42.679Z</time></trkpt><trkpt lat="42.236228" lon="13.8935287"><ele>346.20000000000005</ele><time>2026-05-02T08:53:43.682Z</time></trkpt><trkpt lat="42.2362194" lon="13.8933994"><ele>346.0</ele><time>2026-05-02T08:53:44.665Z</time></trkpt><trkpt lat="42.23622" lon="13.8932593"><ele>346.0</ele><time>2026-05-02T08:53:45.676Z</time></trkpt><trkpt lat="42.2362255" lon="13.8931048"><ele>346.0</ele><time>2026-05-02T08:53:46.667Z</time></trkpt><trkpt lat="42.2362239" lon="13.892936"><ele>346.0</ele><time>2026-05-02T08:53:47.673Z</time></trkpt><trkpt lat="42.2362189" lon="13.8927457"><ele>346.0</ele><time>2026-05-02T08:53:48.678Z</time></trkpt><trkpt lat="42.236216" lon="13.8925244"><ele>348.0</ele><time>2026-05-02T08:53:49.678Z</time></trkpt><trkpt lat="42.236207" lon="13.8922936"><ele>350.0</ele><time>2026-05-02T08:53:50.663Z</time></trkpt><trkpt lat="42.2361711" lon="13.8920514"><ele>352.0</ele><time>2026-05-02T08:53:51.682Z</time></trkpt><trkpt lat="42.2361116" lon="13.8918347"><ele>354.66666666666663</ele><time>2026-05-02T08:53:52.664Z</time></trkpt><trkpt lat="42.2360453" lon="13.8916245"><ele>357.3333333333333</ele><time>2026-05-02T08:53:53.684Z</time></trkpt><trkpt lat="42.235971" lon="13.8914143"><ele>360.0</ele><time>2026-05-02T08:53:54.663Z</time></trkpt><trkpt lat="42.2358865" lon="13.8912378"><ele>360.0</ele><time>2026-05-02T08:53:55.677Z</time></trkpt><trkpt lat="42.2358082" lon="13.8910561"><ele>360.0</ele><time>2026-05-02T08:53:56.67Z</time></trkpt><trkpt lat="42.2357569" lon="13.8908654"><ele>360.0</ele><time>2026-05-02T08:53:57.677Z</time></trkpt><trkpt lat="42.2357238" lon="13.8906685"><ele>362.0</ele><time>2026-05-02T08:53:58.674Z</time></trkpt><trkpt lat="42.2356947" lon="13.8904675"><ele>364.0</ele><time>2026-05-02T08:53:59.678Z</time></trkpt><trkpt lat="42.2356653" lon="13.8902644"><ele>366.0</ele><time>2026-05-02T08:54:00.661Z</time></trkpt><trkpt lat="42.2356331" lon="13.890072"><ele>366.0</ele><time>2026-05-02T08:54:01.681Z</time></trkpt><trkpt lat="42.2355769" lon="13.8898791"><ele>366.0</ele><time>2026-05-02T08:54:02.669Z</time></trkpt><trkpt lat="42.2355051" lon="13.8897088"><ele>366.0</ele><time>2026-05-02T08:54:03.665Z</time></trkpt><trkpt lat="42.2354286" lon="13.8895388"><ele>366.0</ele><time>2026-05-02T08:54:04.669Z</time></trkpt><trkpt lat="42.2353442" lon="13.8893782"><ele>369.3333333333333</ele><time>2026-05-02T08:54:05.666Z</time></trkpt><trkpt lat="42.2352647" lon="13.8891879"><ele>372.66666666666663</ele><time>2026-05-02T08:54:06.661Z</time></trkpt><trkpt lat="42.2351712" lon="13.8889881"><ele>376.0</ele><time>2026-05-02T08:54:07.663Z</time></trkpt><trkpt lat="42.2350595" lon="13.8887741"><ele>376.0</ele><time>2026-05-02T08:54:08.656Z</time></trkpt><trkpt lat="42.2349295" lon="13.8885423"><ele>376.0</ele><time>2026-05-02T08:54:09.661Z</time></trkpt><trkpt lat="42.2347914" lon="13.8882939"><ele>376.0</ele><time>2026-05-02T08:54:10.67Z</time></trkpt><trkpt lat="42.2346373" lon="13.8880392"><ele>379.0</ele><time>2026-05-02T08:54:11.666Z</time></trkpt><trkpt lat="42.2344874" lon="13.8877829"><ele>382.0</ele><time>2026-05-02T08:54:12.671Z</time></trkpt><trkpt lat="42.2343426" lon="13.8875353"><ele>382.3333333333333</ele><time>2026-05-02T08:54:13.67Z</time></trkpt><trkpt lat="42.2341928" lon="13.8872922"><ele>382.6666666666667</ele><time>2026-05-02T08:54:14.677Z</time></trkpt><trkpt lat="42.2340567" lon="13.8870782"><ele>383.0</ele><time>2026-05-02T08:54:15.684Z</time></trkpt><trkpt lat="42.2339307" lon="13.8868976"><ele>383.0</ele><time>2026-05-02T08:54:16.664Z</time></trkpt><trkpt lat="42.2337958" lon="13.8867715"><ele>383.0</ele><time>2026-05-02T08:54:17.68Z</time></trkpt><trkpt lat="42.2336608" lon="13.8866716"><ele>383.0</ele><time>2026-05-02T08:54:18.675Z</time></trkpt><trkpt lat="42.2335515" lon="13.8865729"><ele>383.0</ele><time>2026-05-02T08:54:19.667Z</time></trkpt><trkpt lat="42.2334839" lon="13.8864919"><ele>386.1666666666667</ele><time>2026-05-02T08:54:20.675Z</time></trkpt><trkpt lat="42.233474" lon="13.8863775"><ele>389.33333333333337</ele><time>2026-05-02T08:54:21.692Z</time></trkpt><trkpt lat="42.2335" lon="13.8862752"><ele>392.5</ele><time>2026-05-02T08:54:22.687Z</time></trkpt><trkpt lat="42.2335529" lon="13.8862059"><ele>395.6666666666667</ele><time>2026-05-02T08:54:23.679Z</time></trkpt><trkpt lat="42.2336315" lon="13.8861999"><ele>398.8333333333333</ele><time>2026-05-02T08:54:24.683Z</time></trkpt><trkpt lat="42.2337175" lon="13.8862366"><ele>402.0</ele><time>2026-05-02T08:54:25.664Z</time></trkpt><trkpt lat="42.2338045" lon="13.8863032"><ele>402.0</ele><time>2026-05-02T08:54:26.667Z</time></trkpt><trkpt lat="42.2339212" lon="13.8863913"><ele>402.0</ele><time>2026-05-02T08:54:27.668Z</time></trkpt><trkpt lat="42.2340448" lon="13.8864975"><ele>402.0</ele><time>2026-05-02T08:54:28.684Z</time></trkpt><trkpt lat="42.234168" lon="13.8866254"><ele>402.0</ele><time>2026-05-02T08:54:29.657Z</time></trkpt><trkpt lat="42.2342827" lon="13.8867765"><ele>401.8</ele><time>2026-05-02T08:54:30.673Z</time></trkpt><trkpt lat="42.2343784" lon="13.8869007"><ele>401.6</ele><time>2026-05-02T08:54:31.682Z</time></trkpt><trkpt lat="42.2344722" lon="13.8870016"><ele>401.40000000000003</ele><time>2026-05-02T08:54:32.699Z</time></trkpt><trkpt lat="42.2345596" lon="13.8870315"><ele>401.20000000000005</ele><time>2026-05-02T08:54:33.666Z</time></trkpt><trkpt lat="42.2346448" lon="13.8869847"><ele>401.0</ele><time>2026-05-02T08:54:34.687Z</time></trkpt><trkpt lat="42.2346955" lon="13.8869115"><ele>401.0</ele><time>2026-05-02T08:54:35.68Z</time></trkpt><trkpt lat="42.2347081" lon="13.886801"><ele>401.0</ele><time>2026-05-02T08:54:36.674Z</time></trkpt><trkpt lat="42.2346777" lon="13.886698"><ele>401.0</ele><time>2026-05-02T08:54:37.673Z</time></trkpt><trkpt lat="42.2345972" lon="13.8865978"><ele>401.0</ele><time>2026-05-02T08:54:38.676Z</time></trkpt><trkpt lat="42.2345122" lon="13.8864898"><ele>401.0</ele><time>2026-05-02T08:54:39.661Z</time></trkpt><trkpt lat="42.2344149" lon="13.8863716"><ele>406.3333333333333</ele><time>2026-05-02T08:54:40.67Z</time></trkpt><trkpt lat="42.2343185" lon="13.8862209"><ele>411.66666666666663</ele><time>2026-05-02T08:54:41.682Z</time></trkpt><trkpt lat="42.234229" lon="13.8860633"><ele>417.0</ele><time>2026-05-02T08:54:42.677Z</time></trkpt><trkpt lat="42.2341475" lon="13.8858827"><ele>421.33333333333337</ele><time>2026-05-02T08:54:43.677Z</time></trkpt><trkpt lat="42.2340809" lon="13.8856921"><ele>425.6666666666667</ele><time>2026-05-02T08:54:44.675Z</time></trkpt><trkpt lat="42.2340226" lon="13.8854849"><ele>430.0</ele><time>2026-05-02T08:54:45.654Z</time></trkpt><trkpt lat="42.2339792" lon="13.8852725"><ele>429.33333333333337</ele><time>2026-05-02T08:54:46.656Z</time></trkpt><trkpt lat="42.2339508" lon="13.8850554"><ele>428.66666666666663</ele><time>2026-05-02T08:54:47.659Z</time></trkpt><trkpt lat="42.2339209" lon="13.8848333"><ele>428.0</ele><time>2026-05-02T08:54:48.668Z</time></trkpt><trkpt lat="42.2338843" lon="13.8845983"><ele>428.0</ele><time>2026-05-02T08:54:49.668Z</time></trkpt><trkpt lat="42.233842" lon="13.8843613"><ele>428.0</ele><time>2026-05-02T08:54:50.681Z</time></trkpt><trkpt lat="42.2337962" lon="13.8841287"><ele>428.0</ele><time>2026-05-02T08:54:51.66Z</time></trkpt><trkpt lat="42.2337497" lon="13.8838966"><ele>433.66666666666663</ele><time>2026-05-02T08:54:52.668Z</time></trkpt><trkpt lat="42.2336978" lon="13.8836666"><ele>439.33333333333337</ele><time>2026-05-02T08:54:53.675Z</time></trkpt><trkpt lat="42.2336499" lon="13.8834244"><ele>445.0</ele><time>2026-05-02T08:54:54.679Z</time></trkpt><trkpt lat="42.2336041" lon="13.8831875"><ele>449.0</ele><time>2026-05-02T08:54:55.673Z</time></trkpt><trkpt lat="42.2335697" lon="13.8829858"><ele>453.0</ele><time>2026-05-02T08:54:56.673Z</time></trkpt><trkpt lat="42.2335513" lon="13.8828021"><ele>457.0</ele><time>2026-05-02T08:54:57.674Z</time></trkpt><trkpt lat="42.2335546" lon="13.8826329"><ele>461.0</ele><time>2026-05-02T08:54:58.66Z</time></trkpt><trkpt lat="42.2335679" lon="13.882455"><ele>464.5</ele><time>2026-05-02T08:54:59.672Z</time></trkpt><trkpt lat="42.2335854" lon="13.8822634"><ele>468.0</ele><time>2026-05-02T08:55:00.659Z</time></trkpt><trkpt lat="42.2336049" lon="13.8820732"><ele>471.5</ele><time>2026-05-02T08:55:01.667Z</time></trkpt><trkpt lat="42.2336288" lon="13.8818754"><ele>475.0</ele><time>2026-05-02T08:55:02.672Z</time></trkpt><trkpt lat="42.2336485" lon="13.8816798"><ele>476.33333333333337</ele><time>2026-05-02T08:55:03.657Z</time></trkpt><trkpt lat="42.2336751" lon="13.8814817"><ele>477.66666666666663</ele><time>2026-05-02T08:55:04.676Z</time></trkpt><trkpt lat="42.2337107" lon="13.8812822"><ele>479.0</ele><time>2026-05-02T08:55:05.667Z</time></trkpt><trkpt lat="42.2337538" lon="13.8810864"><ele>478.75</ele><time>2026-05-02T08:55:06.686Z</time></trkpt><trkpt lat="42.2337876" lon="13.8808942"><ele>478.5</ele><time>2026-05-02T08:55:07.667Z</time></trkpt><trkpt lat="42.2338123" lon="13.880701"><ele>478.25</ele><time>2026-05-02T08:55:08.663Z</time></trkpt><trkpt lat="42.2338259" lon="13.8804954"><ele>478.0</ele><time>2026-05-02T08:55:09.664Z</time></trkpt><trkpt lat="42.2338114" lon="13.8802812"><ele>477.33333333333337</ele><time>2026-05-02T08:55:10.674Z</time></trkpt><trkpt lat="42.2337707" lon="13.8800732"><ele>476.66666666666663</ele><time>2026-05-02T08:55:11.669Z</time></trkpt><trkpt lat="42.233729" lon="13.8798668"><ele>476.0</ele><time>2026-05-02T08:55:12.674Z</time></trkpt><trkpt lat="42.2337028" lon="13.879666"><ele>476.0</ele><time>2026-05-02T08:55:13.673Z</time></trkpt><trkpt lat="42.2336921" lon="13.8794631"><ele>476.0</ele><time>2026-05-02T08:55:14.668Z</time></trkpt><trkpt lat="42.233704" lon="13.8792474"><ele>476.0</ele><time>2026-05-02T08:55:15.669Z</time></trkpt><trkpt lat="42.2337583" lon="13.8790248"><ele>475.66666666666663</ele><time>2026-05-02T08:55:16.667Z</time></trkpt><trkpt lat="42.2338197" lon="13.878781"><ele>475.33333333333337</ele><time>2026-05-02T08:55:17.675Z</time></trkpt><trkpt lat="42.2338821" lon="13.8785378"><ele>475.0</ele><time>2026-05-02T08:55:18.66Z</time></trkpt><trkpt lat="42.2339423" lon="13.878294"><ele>471.33333333333337</ele><time>2026-05-02T08:55:19.665Z</time></trkpt><trkpt lat="42.2339933" lon="13.8780376"><ele>467.66666666666663</ele><time>2026-05-02T08:55:20.681Z</time></trkpt><trkpt lat="42.2340339" lon="13.8777747"><ele>464.0</ele><time>2026-05-02T08:55:21.669Z</time></trkpt><trkpt lat="42.2340633" lon="13.8775086"><ele>464.0</ele><time>2026-05-02T08:55:22.664Z</time></trkpt><trkpt lat="42.2340878" lon="13.8772553"><ele>464.0</ele><time>2026-05-02T08:55:23.667Z</time></trkpt><trkpt lat="42.234106" lon="13.8770088"><ele>464.0</ele><time>2026-05-02T08:55:24.656Z</time></trkpt><trkpt lat="42.2341251" lon="13.8767942"><ele>464.5</ele><time>2026-05-02T08:55:25.668Z</time></trkpt><trkpt lat="42.2341535" lon="13.876598"><ele>465.0</ele><time>2026-05-02T08:55:26.665Z</time></trkpt><trkpt lat="42.234202" lon="13.876418"><ele>465.5</ele><time>2026-05-02T08:55:27.659Z</time></trkpt><trkpt lat="42.2342719" lon="13.8762399"><ele>466.0</ele><time>2026-05-02T08:55:28.665Z</time></trkpt><trkpt lat="42.2343639" lon="13.8760625"><ele>469.33333333333337</ele><time>2026-05-02T08:55:29.665Z</time></trkpt><trkpt lat="42.2344649" lon="13.8758788"><ele>472.66666666666663</ele><time>2026-05-02T08:55:30.675Z</time></trkpt><trkpt lat="42.2345853" lon="13.8756908"><ele>476.0</ele><time>2026-05-02T08:55:31.669Z</time></trkpt><trkpt lat="42.2347079" lon="13.8755069"><ele>473.0</ele><time>2026-05-02T08:55:32.679Z</time></trkpt><trkpt lat="42.2348399" lon="13.8753291"><ele>470.0</ele><time>2026-05-02T08:55:33.655Z</time></trkpt><trkpt lat="42.2349857" lon="13.8751679"><ele>467.0</ele><time>2026-05-02T08:55:34.665Z</time></trkpt><trkpt lat="42.2351441" lon="13.8750252"><ele>467.0</ele><time>2026-05-02T08:55:35.668Z</time></trkpt><trkpt lat="42.235294" lon="13.8748869"><ele>467.0</ele><time>2026-05-02T08:55:36.655Z</time></trkpt><trkpt lat="42.2354312" lon="13.8747668"><ele>467.0</ele><time>2026-05-02T08:55:37.664Z</time></trkpt><trkpt lat="42.235551" lon="13.8746493"><ele>465.20000000000005</ele><time>2026-05-02T08:55:38.656Z</time></trkpt><trkpt lat="42.2356408" lon="13.8745229"><ele>463.40000000000003</ele><time>2026-05-02T08:55:39.678Z</time></trkpt><trkpt lat="42.2356953" lon="13.8743958"><ele>461.59999999999997</ele><time>2026-05-02T08:55:40.654Z</time></trkpt><trkpt lat="42.2357125" lon="13.8742736"><ele>459.79999999999995</ele><time>2026-05-02T08:55:41.668Z</time></trkpt><trkpt lat="42.2356745" lon="13.8741617"><ele>458.0</ele><time>2026-05-02T08:55:42.671Z</time></trkpt><trkpt lat="42.2356038" lon="13.8740663"><ele>462.79999999999995</ele><time>2026-05-02T08:55:43.679Z</time></trkpt><trkpt lat="42.235524" lon="13.8739798"><ele>467.59999999999997</ele><time>2026-05-02T08:55:44.668Z</time></trkpt><trkpt lat="42.2354476" lon="13.873874"><ele>472.40000000000003</ele><time>2026-05-02T08:55:45.665Z</time></trkpt><trkpt lat="42.2353865" lon="13.8737652"><ele>477.20000000000005</ele><time>2026-05-02T08:55:46.679Z</time></trkpt><trkpt lat="42.2353636" lon="13.8736481"><ele>482.0</ele><time>2026-05-02T08:55:47.671Z</time></trkpt><trkpt lat="42.2353862" lon="13.8735452"><ele>481.0</ele><time>2026-05-02T08:55:48.672Z</time></trkpt><trkpt lat="42.2354337" lon="13.8734354"><ele>480.00000000000006</ele><time>2026-05-02T08:55:49.665Z</time></trkpt><trkpt lat="42.2354975" lon="13.8733165"><ele>479.00000000000006</ele><time>2026-05-02T08:55:50.658Z</time></trkpt><trkpt lat="42.2355708" lon="13.8732173"><ele>478.0</ele><time>2026-05-02T08:55:51.668Z</time></trkpt><trkpt lat="42.235688" lon="13.8731931"><ele>477.0</ele><time>2026-05-02T08:55:52.673Z</time></trkpt><trkpt lat="42.2358189" lon="13.8731969"><ele>471.66666666666663</ele><time>2026-05-02T08:55:53.668Z</time></trkpt><trkpt lat="42.2359624" lon="13.8732346"><ele>466.3333333333333</ele><time>2026-05-02T08:55:54.655Z</time></trkpt><trkpt lat="42.2361125" lon="13.8732808"><ele>461.0</ele><time>2026-05-02T08:55:55.653Z</time></trkpt><trkpt lat="42.2362756" lon="13.8733323"><ele>461.0</ele><time>2026-05-02T08:55:56.667Z</time></trkpt><trkpt lat="42.2364411" lon="13.8733688"><ele>461.0</ele><time>2026-05-02T08:55:57.669Z</time></trkpt><trkpt lat="42.2366104" lon="13.8733822"><ele>461.0</ele><time>2026-05-02T08:55:58.656Z</time></trkpt><trkpt lat="42.2367763" lon="13.8733789"><ele>461.3333333333333</ele><time>2026-05-02T08:55:59.653Z</time></trkpt><trkpt lat="42.2369427" lon="13.8733371"><ele>461.66666666666663</ele><time>2026-05-02T08:56:00.678Z</time></trkpt><trkpt lat="42.2371076" lon="13.8732648"><ele>462.0</ele><time>2026-05-02T08:56:01.669Z</time></trkpt><trkpt lat="42.2372657" lon="13.8731633"><ele>460.33333333333337</ele><time>2026-05-02T08:56:02.691Z</time></trkpt><trkpt lat="42.23743" lon="13.873055"><ele>458.6666666666667</ele><time>2026-05-02T08:56:03.672Z</time></trkpt><trkpt lat="42.2375766" lon="13.8729355"><ele>457.0</ele><time>2026-05-02T08:56:04.654Z</time></trkpt><trkpt lat="42.2376895" lon="13.8728066"><ele>457.0</ele><time>2026-05-02T08:56:05.67Z</time></trkpt><trkpt lat="42.2377695" lon="13.8726641"><ele>457.0</ele><time>2026-05-02T08:56:06.659Z</time></trkpt><trkpt lat="42.2378328" lon="13.8724772"><ele>457.0</ele><time>2026-05-02T08:56:07.646Z</time></trkpt><trkpt lat="42.2378886" lon="13.8722824"><ele>457.0</ele><time>2026-05-02T08:56:08.687Z</time></trkpt><trkpt lat="42.2379529" lon="13.87208"><ele>462.33333333333337</ele><time>2026-05-02T08:56:09.682Z</time></trkpt><trkpt lat="42.2380254" lon="13.8718732"><ele>467.66666666666663</ele><time>2026-05-02T08:56:10.661Z</time></trkpt><trkpt lat="42.238109" lon="13.8716717"><ele>473.0</ele><time>2026-05-02T08:56:11.656Z</time></trkpt><trkpt lat="42.2382057" lon="13.8714753"><ele>473.25</ele><time>2026-05-02T08:56:12.671Z</time></trkpt><trkpt lat="42.2383111" lon="13.8713011"><ele>473.5</ele><time>2026-05-02T08:56:13.675Z</time></trkpt><trkpt lat="42.2384033" lon="13.8711497"><ele>473.75</ele><time>2026-05-02T08:56:14.672Z</time></trkpt><trkpt lat="42.2385029" lon="13.8710211"><ele>474.0</ele><time>2026-05-02T08:56:15.667Z</time></trkpt><trkpt lat="42.2385789" lon="13.8709147"><ele>476.6666666666667</ele><time>2026-05-02T08:56:16.67Z</time></trkpt><trkpt lat="42.2386392" lon="13.870823"><ele>479.33333333333337</ele><time>2026-05-02T08:56:17.673Z</time></trkpt><trkpt lat="42.2386853" lon="13.8707454"><ele>482.0</ele><time>2026-05-02T08:56:18.675Z</time></trkpt><trkpt lat="42.238709" lon="13.8706149"><ele>484.6666666666667</ele><time>2026-05-02T08:56:20.688Z</time></trkpt><trkpt lat="42.2386402" lon="13.870591"><ele>487.33333333333337</ele><time>2026-05-02T08:56:37.671Z</time></trkpt><trkpt lat="42.2385418" lon="13.8706247"><ele>490.0</ele><time>2026-05-02T08:56:39.653Z</time></trkpt><trkpt lat="42.2384659" lon="13.8706382"><ele>490.0</ele><time>2026-05-02T08:56:40.691Z</time></trkpt><trkpt lat="42.2383729" lon="13.8706485"><ele>490.0</ele><time>2026-05-02T08:56:41.665Z</time></trkpt><trkpt lat="42.2382647" lon="13.8706578"><ele>490.0</ele><time>2026-05-02T08:56:42.665Z</time></trkpt><trkpt lat="42.2381442" lon="13.8706783"><ele>490.0</ele><time>2026-05-02T08:56:43.661Z</time></trkpt><trkpt lat="42.2380258" lon="13.8707183"><ele>490.0</ele><time>2026-05-02T08:56:44.651Z</time></trkpt><trkpt lat="42.2379103" lon="13.8707799"><ele>489.2</ele><time>2026-05-02T08:56:45.658Z</time></trkpt><trkpt lat="42.2378136" lon="13.8708742"><ele>488.4</ele><time>2026-05-02T08:56:46.672Z</time></trkpt><trkpt lat="42.2377273" lon="13.8709487"><ele>487.6</ele><time>2026-05-02T08:56:47.67Z</time></trkpt><trkpt lat="42.2376522" lon="13.8709852"><ele>486.8</ele><time>2026-05-02T08:56:48.675Z</time></trkpt><trkpt lat="42.2375825" lon="13.8709932"><ele>486.0</ele><time>2026-05-02T08:56:49.675Z</time></trkpt><trkpt lat="42.2375181" lon="13.8708921"><ele>489.5</ele><time>2026-05-02T08:56:51.661Z</time></trkpt><trkpt lat="42.2375464" lon="13.8707371"><ele>493.0</ele><time>2026-05-02T08:56:53.675Z</time></trkpt><trkpt lat="42.2376146" lon="13.870633"><ele>496.5</ele><time>2026-05-02T08:56:54.67Z</time></trkpt><trkpt lat="42.2376965" lon="13.8705185"><ele>500.0</ele><time>2026-05-02T08:56:55.663Z</time></trkpt><trkpt lat="42.2377882" lon="13.8703947"><ele>500.0</ele><time>2026-05-02T08:56:56.668Z</time></trkpt><trkpt lat="42.2378731" lon="13.8702794"><ele>500.0</ele><time>2026-05-02T08:56:57.677Z</time></trkpt><trkpt lat="42.2379395" lon="13.8701741"><ele>500.0</ele><time>2026-05-02T08:56:58.707Z</time></trkpt><trkpt lat="42.2379865" lon="13.8700855"><ele>500.0</ele><time>2026-05-02T08:56:59.677Z</time></trkpt><trkpt lat="42.2380066" lon="13.8699969"><ele>500.0</ele><time>2026-05-02T08:57:00.675Z</time></trkpt><trkpt lat="42.2379643" lon="13.8698528"><ele>503.0</ele><time>2026-05-02T08:57:02.664Z</time></trkpt><trkpt lat="42.237872" lon="13.869786"><ele>506.0</ele><time>2026-05-02T08:57:03.671Z</time></trkpt><trkpt lat="42.2377774" lon="13.8697335"><ele>509.0</ele><time>2026-05-02T08:57:04.661Z</time></trkpt><trkpt lat="42.2376683" lon="13.8696885"><ele>512.0</ele><time>2026-05-02T08:57:05.694Z</time></trkpt><trkpt lat="42.2375453" lon="13.8696392"><ele>515.0</ele><time>2026-05-02T08:57:06.678Z</time></trkpt><trkpt lat="42.2374362" lon="13.8695672"><ele>515.0</ele><time>2026-05-02T08:57:07.67Z</time></trkpt><trkpt lat="42.2373584" lon="13.8695117"><ele>515.0</ele><time>2026-05-02T08:57:08.671Z</time></trkpt><trkpt lat="42.2372828" lon="13.8694633"><ele>515.0</ele><time>2026-05-02T08:57:09.667Z</time></trkpt><trkpt lat="42.2371919" lon="13.869401"><ele>515.0</ele><time>2026-05-02T08:57:10.657Z</time></trkpt><trkpt lat="42.2370756" lon="13.86935"><ele>515.0</ele><time>2026-05-02T08:57:11.663Z</time></trkpt><trkpt lat="42.236949" lon="13.8692799"><ele>518.25</ele><time>2026-05-02T08:57:12.663Z</time></trkpt><trkpt lat="42.2368207" lon="13.8691867"><ele>521.5</ele><time>2026-05-02T08:57:13.671Z</time></trkpt><trkpt lat="42.2366931" lon="13.8690922"><ele>524.75</ele><time>2026-05-02T08:57:14.667Z</time></trkpt><trkpt lat="42.2365545" lon="13.8689938"><ele>528.0</ele><time>2026-05-02T08:57:15.672Z</time></trkpt><trkpt lat="42.236429" lon="13.8688921"><ele>528.0</ele><time>2026-05-02T08:57:16.677Z</time></trkpt><trkpt lat="42.2363227" lon="13.8688115"><ele>528.0</ele><time>2026-05-02T08:57:17.671Z</time></trkpt><trkpt lat="42.2362473" lon="13.8687328"><ele>528.0</ele><time>2026-05-02T08:57:18.672Z</time></trkpt><trkpt lat="42.2362128" lon="13.8686421"><ele>528.0</ele><time>2026-05-02T08:57:19.676Z</time></trkpt><trkpt lat="42.2362243" lon="13.8685523"><ele>528.0</ele><time>2026-05-02T08:57:20.66Z</time></trkpt><trkpt lat="42.2363331" lon="13.8684111"><ele>530.5</ele><time>2026-05-02T08:57:22.66Z</time></trkpt><trkpt lat="42.2364379" lon="13.8683691"><ele>533.0</ele><time>2026-05-02T08:57:23.662Z</time></trkpt><trkpt lat="42.2365557" lon="13.8683136"><ele>535.5</ele><time>2026-05-02T08:57:24.683Z</time></trkpt><trkpt lat="42.2366774" lon="13.8682611"><ele>538.0</ele><time>2026-05-02T08:57:25.671Z</time></trkpt><trkpt lat="42.2367992" lon="13.8682033"><ele>540.4</ele><time>2026-05-02T08:57:26.677Z</time></trkpt><trkpt lat="42.236896" lon="13.8681599"><ele>542.8</ele><time>2026-05-02T08:57:27.674Z</time></trkpt><trkpt lat="42.2369667" lon="13.8681195"><ele>545.2</ele><time>2026-05-02T08:57:28.661Z</time></trkpt><trkpt lat="42.2370458" lon="13.8680395"><ele>547.6</ele><time>2026-05-02T08:57:30.672Z</time></trkpt><trkpt lat="42.2370196" lon="13.8679071"><ele>550.0</ele><time>2026-05-02T08:57:32.66Z</time></trkpt><trkpt lat="42.2369491" lon="13.8678505"><ele>550.0</ele><time>2026-05-02T08:57:33.67Z</time></trkpt><trkpt lat="42.2368743" lon="13.8678044"><ele>550.0</ele><time>2026-05-02T08:57:34.676Z</time></trkpt><trkpt lat="42.2367718" lon="13.8677461"><ele>550.0</ele><time>2026-05-02T08:57:35.659Z</time></trkpt><trkpt lat="42.2366554" lon="13.8676526"><ele>550.0</ele><time>2026-05-02T08:57:36.693Z</time></trkpt><trkpt lat="42.2365353" lon="13.8675443"><ele>551.75</ele><time>2026-05-02T08:57:37.679Z</time></trkpt><trkpt lat="42.2364421" lon="13.8674046"><ele>553.5</ele><time>2026-05-02T08:57:38.679Z</time></trkpt><trkpt lat="42.236364" lon="13.8672438"><ele>555.25</ele><time>2026-05-02T08:57:39.663Z</time></trkpt><trkpt lat="42.2363036" lon="13.8670901"><ele>557.0</ele><time>2026-05-02T08:57:40.661Z</time></trkpt><trkpt lat="42.2362516" lon="13.8669499"><ele>557.0</ele><time>2026-05-02T08:57:41.663Z</time></trkpt><trkpt lat="42.2361838" lon="13.8668417"><ele>557.0</ele><time>2026-05-02T08:57:42.675Z</time></trkpt><trkpt lat="42.2361025" lon="13.8667615"><ele>557.0</ele><time>2026-05-02T08:57:43.67Z</time></trkpt><trkpt lat="42.2360094" lon="13.8667233"><ele>557.0</ele><time>2026-05-02T08:57:44.676Z</time></trkpt><trkpt lat="42.2359011" lon="13.8667194"><ele>557.0</ele><time>2026-05-02T08:57:45.661Z</time></trkpt><trkpt lat="42.235797" lon="13.8667505"><ele>557.0</ele><time>2026-05-02T08:57:46.663Z</time></trkpt><trkpt lat="42.2356764" lon="13.8668013"><ele>557.0</ele><time>2026-05-02T08:57:47.668Z</time></trkpt><trkpt lat="42.2355695" lon="13.8668418"><ele>557.0</ele><time>2026-05-02T08:57:48.674Z</time></trkpt><trkpt lat="42.2354834" lon="13.866845"><ele>557.0</ele><time>2026-05-02T08:57:49.678Z</time></trkpt><trkpt lat="42.2354037" lon="13.8667605"><ele>557.0</ele><time>2026-05-02T08:57:51.667Z</time></trkpt><trkpt lat="42.235483" lon="13.8666452"><ele>560.1666666666666</ele><time>2026-05-02T08:57:53.665Z</time></trkpt><trkpt lat="42.235553" lon="13.8666094"><ele>563.3333333333333</ele><time>2026-05-02T08:57:54.673Z</time></trkpt><trkpt lat="42.2356208" lon="13.8665609"><ele>566.5</ele><time>2026-05-02T08:57:55.663Z</time></trkpt><trkpt lat="42.2356929" lon="13.8665036"><ele>569.6666666666666</ele><time>2026-05-02T08:57:57.671Z</time></trkpt><trkpt lat="42.2356273" lon="13.866442"><ele>572.8333333333334</ele><time>2026-05-02T08:58:24.68Z</time></trkpt><trkpt lat="42.2355617" lon="13.8664337"><ele>576.0</ele><time>2026-05-02T08:58:25.662Z</time></trkpt><trkpt lat="42.2354764" lon="13.8664332"><ele>576.0</ele><time>2026-05-02T08:58:26.673Z</time></trkpt><trkpt lat="42.2353986" lon="13.8664138"><ele>576.0</ele><time>2026-05-02T08:58:27.675Z</time></trkpt><trkpt lat="42.2353363" lon="13.8663625"><ele>576.0</ele><time>2026-05-02T08:58:28.677Z</time></trkpt><trkpt lat="42.2352726" lon="13.8662913"><ele>576.0</ele><time>2026-05-02T08:58:29.661Z</time></trkpt><trkpt lat="42.2352214" lon="13.8662048"><ele>576.0</ele><time>2026-05-02T08:58:30.668Z</time></trkpt><trkpt lat="42.2351624" lon="13.8661082"><ele>576.0</ele><time>2026-05-02T08:58:31.669Z</time></trkpt><trkpt lat="42.2350975" lon="13.8659957"><ele>579.75</ele><time>2026-05-02T08:58:32.657Z</time></trkpt><trkpt lat="42.2350354" lon="13.8658711"><ele>583.5</ele><time>2026-05-02T08:58:33.689Z</time></trkpt><trkpt lat="42.234973" lon="13.8657383"><ele>587.25</ele><time>2026-05-02T08:58:34.684Z</time></trkpt><trkpt lat="42.2349075" lon="13.865601"><ele>591.0</ele><time>2026-05-02T08:58:35.655Z</time></trkpt><trkpt lat="42.2348359" lon="13.8654797"><ele>590.5</ele><time>2026-05-02T08:58:36.661Z</time></trkpt><trkpt lat="42.2347288" lon="13.8653686"><ele>590.0</ele><time>2026-05-02T08:58:37.678Z</time></trkpt><trkpt lat="42.2346006" lon="13.8652628"><ele>589.5</ele><time>2026-05-02T08:58:38.676Z</time></trkpt><trkpt lat="42.2345247" lon="13.86515"><ele>589.0</ele><time>2026-05-02T08:58:39.672Z</time></trkpt><trkpt lat="42.2344635" lon="13.8650266"><ele>589.0</ele><time>2026-05-02T08:58:40.669Z</time></trkpt><trkpt lat="42.2344003" lon="13.8648794"><ele>589.0</ele><time>2026-05-02T08:58:41.673Z</time></trkpt><trkpt lat="42.2343269" lon="13.8647151"><ele>589.0</ele><time>2026-05-02T08:58:42.662Z</time></trkpt><trkpt lat="42.2342509" lon="13.8645658"><ele>589.0</ele><time>2026-05-02T08:58:43.664Z</time></trkpt><trkpt lat="42.2341751" lon="13.8644518"><ele>589.0</ele><time>2026-05-02T08:58:44.673Z</time></trkpt><trkpt lat="42.2340986" lon="13.8643267"><ele>589.0</ele><time>2026-05-02T08:58:45.672Z</time></trkpt><trkpt lat="42.2340397" lon="13.8641682"><ele>589.0</ele><time>2026-05-02T08:58:46.66Z</time></trkpt><trkpt lat="42.233982" lon="13.8639856"><ele>589.0</ele><time>2026-05-02T08:58:47.652Z</time></trkpt><trkpt lat="42.2339333" lon="13.8638122"><ele>588.75</ele><time>2026-05-02T08:58:48.67Z</time></trkpt><trkpt lat="42.2338878" lon="13.8636579"><ele>588.5</ele><time>2026-05-02T08:58:49.668Z</time></trkpt><trkpt lat="42.2338388" lon="13.8635171"><ele>588.25</ele><time>2026-05-02T08:58:50.682Z</time></trkpt><trkpt lat="42.2337594" lon="13.8633832"><ele>588.0</ele><time>2026-05-02T08:58:51.674Z</time></trkpt><trkpt lat="42.233652" lon="13.8632397"><ele>592.6666666666666</ele><time>2026-05-02T08:58:52.659Z</time></trkpt><trkpt lat="42.2335312" lon="13.8630854"><ele>597.3333333333333</ele><time>2026-05-02T08:58:53.678Z</time></trkpt><trkpt lat="42.2334117" lon="13.8629207"><ele>602.0</ele><time>2026-05-02T08:58:54.682Z</time></trkpt><trkpt lat="42.233286" lon="13.8627675"><ele>602.0</ele><time>2026-05-02T08:58:55.68Z</time></trkpt><trkpt lat="42.2331737" lon="13.8626317"><ele>602.0</ele><time>2026-05-02T08:58:56.67Z</time></trkpt><trkpt lat="42.2330766" lon="13.8625167"><ele>602.0</ele><time>2026-05-02T08:58:57.67Z</time></trkpt><trkpt lat="42.2329975" lon="13.8624062"><ele>602.0</ele><time>2026-05-02T08:58:58.676Z</time></trkpt><trkpt lat="42.2329264" lon="13.8622823"><ele>602.0</ele><time>2026-05-02T08:58:59.667Z</time></trkpt><trkpt lat="42.2328635" lon="13.8621377"><ele>602.0</ele><time>2026-05-02T08:59:00.674Z</time></trkpt><trkpt lat="42.2328166" lon="13.8619921"><ele>602.0</ele><time>2026-05-02T08:59:01.666Z</time></trkpt><trkpt lat="42.232773" lon="13.8618373"><ele>602.0</ele><time>2026-05-02T08:59:02.68Z</time></trkpt><trkpt lat="42.2327249" lon="13.8616694"><ele>605.75</ele><time>2026-05-02T08:59:03.673Z</time></trkpt><trkpt lat="42.2326733" lon="13.8614996"><ele>609.5</ele><time>2026-05-02T08:59:04.664Z</time></trkpt><trkpt lat="42.2326174" lon="13.8613304"><ele>613.25</ele><time>2026-05-02T08:59:05.666Z</time></trkpt><trkpt lat="42.232557" lon="13.8611945"><ele>617.0</ele><time>2026-05-02T08:59:06.659Z</time></trkpt><trkpt lat="42.2324912" lon="13.8610639"><ele>619.0</ele><time>2026-05-02T08:59:07.675Z</time></trkpt><trkpt lat="42.2324278" lon="13.8609185"><ele>621.0</ele><time>2026-05-02T08:59:08.677Z</time></trkpt><trkpt lat="42.232384" lon="13.8607632"><ele>623.0</ele><time>2026-05-02T08:59:09.662Z</time></trkpt><trkpt lat="42.2323686" lon="13.8605904"><ele>625.0</ele><time>2026-05-02T08:59:10.671Z</time></trkpt><trkpt lat="42.2323698" lon="13.8604303"><ele>625.0</ele><time>2026-05-02T08:59:11.661Z</time></trkpt><trkpt lat="42.2323687" lon="13.8602775"><ele>625.0</ele><time>2026-05-02T08:59:12.666Z</time></trkpt><trkpt lat="42.2323777" lon="13.8601447"><ele>625.0</ele><time>2026-05-02T08:59:13.667Z</time></trkpt><trkpt lat="42.2323791" lon="13.8600375"><ele>625.0</ele><time>2026-05-02T08:59:14.677Z</time></trkpt><trkpt lat="42.2323601" lon="13.8599511"><ele>625.0</ele><time>2026-05-02T08:59:15.667Z</time></trkpt><trkpt lat="42.232233" lon="13.8598737"><ele>626.8</ele><time>2026-05-02T08:59:17.664Z</time></trkpt><trkpt lat="42.2321512" lon="13.8598554"><ele>628.6</ele><time>2026-05-02T08:59:18.703Z</time></trkpt><trkpt lat="42.2320397" lon="13.8598523"><ele>630.4</ele><time>2026-05-02T08:59:19.664Z</time></trkpt><trkpt lat="42.2319161" lon="13.8598351"><ele>632.2</ele><time>2026-05-02T08:59:20.663Z</time></trkpt><trkpt lat="42.2317927" lon="13.8597949"><ele>634.0</ele><time>2026-05-02T08:59:21.664Z</time></trkpt><trkpt lat="42.2316779" lon="13.8597745"><ele>634.0</ele><time>2026-05-02T08:59:22.667Z</time></trkpt><trkpt lat="42.2315586" lon="13.8597896"><ele>634.0</ele><time>2026-05-02T08:59:23.667Z</time></trkpt><trkpt lat="42.2314365" lon="13.8598414"><ele>634.0</ele><time>2026-05-02T08:59:24.68Z</time></trkpt><trkpt lat="42.2313279" lon="13.8599065"><ele>634.0</ele><time>2026-05-02T08:59:25.676Z</time></trkpt><trkpt lat="42.2312374" lon="13.8599568"><ele>635.6666666666667</ele><time>2026-05-02T08:59:26.675Z</time></trkpt><trkpt lat="42.2311637" lon="13.859977"><ele>637.3333333333334</ele><time>2026-05-02T08:59:27.681Z</time></trkpt><trkpt lat="42.2310993" lon="13.8599814"><ele>639.0</ele><time>2026-05-02T08:59:28.667Z</time></trkpt><trkpt lat="42.2310362" lon="13.8599724"><ele>640.6666666666666</ele><time>2026-05-02T08:59:29.661Z</time></trkpt><trkpt lat="42.2309583" lon="13.859862"><ele>642.3333333333333</ele><time>2026-05-02T08:59:31.663Z</time></trkpt><trkpt lat="42.2309118" lon="13.8597164"><ele>644.0</ele><time>2026-05-02T08:59:33.669Z</time></trkpt><trkpt lat="42.2308236" lon="13.8596169"><ele>644.0</ele><time>2026-05-02T08:59:35.665Z</time></trkpt><trkpt lat="42.2307634" lon="13.8595761"><ele>644.0</ele><time>2026-05-02T08:59:36.661Z</time></trkpt><trkpt lat="42.2307018" lon="13.8595498"><ele>644.0</ele><time>2026-05-02T08:59:37.686Z</time></trkpt><trkpt lat="42.2306317" lon="13.859515"><ele>644.0</ele><time>2026-05-02T08:59:38.67Z</time></trkpt><trkpt lat="42.2305554" lon="13.8594851"><ele>644.0</ele><time>2026-05-02T08:59:39.656Z</time></trkpt><trkpt lat="42.2304968" lon="13.859448"><ele>644.0</ele><time>2026-05-02T08:59:40.662Z</time></trkpt><trkpt lat="42.2303981" lon="13.8593462"><ele>647.0</ele><time>2026-05-02T08:59:42.686Z</time></trkpt><trkpt lat="42.2303381" lon="13.8592782"><ele>650.0</ele><time>2026-05-02T08:59:43.661Z</time></trkpt><trkpt lat="42.2302703" lon="13.8592167"><ele>653.0</ele><time>2026-05-02T08:59:44.67Z</time></trkpt><trkpt lat="42.230204" lon="13.8591735"><ele>656.0</ele><time>2026-05-02T08:59:45.668Z</time></trkpt><trkpt lat="42.2301282" lon="13.8591079"><ele>659.0</ele><time>2026-05-02T08:59:47.673Z</time></trkpt><trkpt lat="42.2300585" lon="13.8590572"><ele>662.0</ele><time>2026-05-02T08:59:49.655Z</time></trkpt><trkpt lat="42.2299455" lon="13.8590021"><ele>662.0</ele><time>2026-05-02T08:59:51.661Z</time></trkpt><trkpt lat="42.2298916" lon="13.8589521"><ele>662.0</ele><time>2026-05-02T08:59:52.664Z</time></trkpt><trkpt lat="42.229797" lon="13.8589156"><ele>662.0</ele><time>2026-05-02T08:59:54.664Z</time></trkpt><trkpt lat="42.2297171" lon="13.858897"><ele>662.0</ele><time>2026-05-02T08:59:55.667Z</time></trkpt><trkpt lat="42.2296186" lon="13.8588669"><ele>662.0</ele><time>2026-05-02T08:59:56.672Z</time></trkpt><trkpt lat="42.2295088" lon="13.8588379"><ele>663.8333333333333</ele><time>2026-05-02T08:59:57.659Z</time></trkpt><trkpt lat="42.2294223" lon="13.8588017"><ele>665.6666666666666</ele><time>2026-05-02T08:59:58.668Z</time></trkpt><trkpt lat="42.2293522" lon="13.858755"><ele>667.5</ele><time>2026-05-02T08:59:59.668Z</time></trkpt><trkpt lat="42.2293031" lon="13.8586811"><ele>669.3333333333334</ele><time>2026-05-02T09:00:00.664Z</time></trkpt><trkpt lat="42.2292542" lon="13.858594"><ele>671.1666666666667</ele><time>2026-05-02T09:00:01.662Z</time></trkpt><trkpt lat="42.2292076" lon="13.8585104"><ele>673.0</ele><time>2026-05-02T09:00:02.668Z</time></trkpt><trkpt lat="42.2291775" lon="13.8584199"><ele>676.75</ele><time>2026-05-02T09:00:03.673Z</time></trkpt><trkpt lat="42.2291323" lon="13.8583043"><ele>680.5</ele><time>2026-05-02T09:00:04.66Z</time></trkpt><trkpt lat="42.2290548" lon="13.8581606"><ele>684.25</ele><time>2026-05-02T09:00:05.668Z</time></trkpt><trkpt lat="42.2289522" lon="13.8580203"><ele>688.0</ele><time>2026-05-02T09:00:06.664Z</time></trkpt><trkpt lat="42.2288625" lon="13.8579163"><ele>689.5</ele><time>2026-05-02T09:00:07.668Z</time></trkpt><trkpt lat="42.2287768" lon="13.8578175"><ele>691.0</ele><time>2026-05-02T09:00:08.689Z</time></trkpt><trkpt lat="42.2286437" lon="13.8577247"><ele>692.5</ele><time>2026-05-02T09:00:09.669Z</time></trkpt><trkpt lat="42.228529" lon="13.8576665"><ele>694.0</ele><time>2026-05-02T09:00:10.682Z</time></trkpt><trkpt lat="42.2284393" lon="13.8576596"><ele>694.0</ele><time>2026-05-02T09:00:11.664Z</time></trkpt><trkpt lat="42.22836" lon="13.8576709"><ele>694.0</ele><time>2026-05-02T09:00:12.668Z</time></trkpt><trkpt lat="42.228285" lon="13.857711"><ele>694.0</ele><time>2026-05-02T09:00:13.663Z</time></trkpt><trkpt lat="42.2282116" lon="13.8577135"><ele>694.0</ele><time>2026-05-02T09:00:14.67Z</time></trkpt><trkpt lat="42.2281425" lon="13.8576767"><ele>694.0</ele><time>2026-05-02T09:00:15.666Z</time></trkpt><trkpt lat="42.2280463" lon="13.8576125"><ele>694.0</ele><time>2026-05-02T09:00:16.666Z</time></trkpt><trkpt lat="42.2279392" lon="13.8575258"><ele>700.6</ele><time>2026-05-02T09:00:17.664Z</time></trkpt><trkpt lat="42.227867" lon="13.8574517"><ele>707.2</ele><time>2026-05-02T09:00:18.674Z</time></trkpt><trkpt lat="42.2278083" lon="13.8573796"><ele>713.8000000000001</ele><time>2026-05-02T09:00:19.668Z</time></trkpt><trkpt lat="42.2277488" lon="13.857274"><ele>720.4000000000001</ele><time>2026-05-02T09:00:20.675Z</time></trkpt><trkpt lat="42.2276723" lon="13.8571279"><ele>727.0</ele><time>2026-05-02T09:00:21.66Z</time></trkpt><trkpt lat="42.227592" lon="13.8569692"><ele>727.0</ele><time>2026-05-02T09:00:22.672Z</time></trkpt><trkpt lat="42.2275386" lon="13.8568239"><ele>727.0</ele><time>2026-05-02T09:00:23.681Z</time></trkpt><trkpt lat="42.2274866" lon="13.856752"><ele>727.0</ele><time>2026-05-02T09:00:24.672Z</time></trkpt><trkpt lat="42.2274202" lon="13.8567188"><ele>727.0</ele><time>2026-05-02T09:00:25.674Z</time></trkpt><trkpt lat="42.2273403" lon="13.8567084"><ele>727.0</ele><time>2026-05-02T09:00:26.657Z</time></trkpt><trkpt lat="42.2272188" lon="13.8566949"><ele>732.2</ele><time>2026-05-02T09:00:27.651Z</time></trkpt><trkpt lat="42.2271064" lon="13.8566933"><ele>737.4000000000001</ele><time>2026-05-02T09:00:28.657Z</time></trkpt><trkpt lat="42.2270125" lon="13.8566696"><ele>742.5999999999999</ele><time>2026-05-02T09:00:29.66Z</time></trkpt><trkpt lat="42.2269179" lon="13.8566175"><ele>747.8</ele><time>2026-05-02T09:00:30.661Z</time></trkpt><trkpt lat="42.2268216" lon="13.8565314"><ele>753.0</ele><time>2026-05-02T09:00:31.661Z</time></trkpt><trkpt lat="42.2267166" lon="13.8564205"><ele>753.0</ele><time>2026-05-02T09:00:32.66Z</time></trkpt><trkpt lat="42.2266209" lon="13.8563119"><ele>753.0</ele><time>2026-05-02T09:00:33.665Z</time></trkpt><trkpt lat="42.2265513" lon="13.8562002"><ele>753.0</ele><time>2026-05-02T09:00:34.659Z</time></trkpt><trkpt lat="42.2264924" lon="13.8560491"><ele>753.0</ele><time>2026-05-02T09:00:35.663Z</time></trkpt><trkpt lat="42.2264166" lon="13.8558939"><ele>758.3333333333333</ele><time>2026-05-02T09:00:36.673Z</time></trkpt><trkpt lat="42.2263193" lon="13.8557441"><ele>763.6666666666666</ele><time>2026-05-02T09:00:37.671Z</time></trkpt><trkpt lat="42.2262057" lon="13.8555872"><ele>769.0</ele><time>2026-05-02T09:00:38.684Z</time></trkpt><trkpt lat="42.2260853" lon="13.8554537"><ele>769.0</ele><time>2026-05-02T09:00:39.656Z</time></trkpt><trkpt lat="42.2259621" lon="13.8553682"><ele>769.0</ele><time>2026-05-02T09:00:40.666Z</time></trkpt><trkpt lat="42.2258453" lon="13.8553077"><ele>769.0</ele><time>2026-05-02T09:00:41.67Z</time></trkpt><trkpt lat="42.2257301" lon="13.855269"><ele>769.0</ele><time>2026-05-02T09:00:42.661Z</time></trkpt><trkpt lat="42.225632" lon="13.8552519"><ele>771.3333333333333</ele><time>2026-05-02T09:00:43.683Z</time></trkpt><trkpt lat="42.2255476" lon="13.8552495"><ele>773.6666666666666</ele><time>2026-05-02T09:00:44.665Z</time></trkpt><trkpt lat="42.2254709" lon="13.8552291"><ele>776.0</ele><time>2026-05-02T09:00:46.661Z</time></trkpt><trkpt lat="42.2254129" lon="13.8551839"><ele>778.3333333333333</ele><time>2026-05-02T09:00:49.661Z</time></trkpt><trkpt lat="42.2253769" lon="13.8551135"><ele>780.6666666666666</ele><time>2026-05-02T09:00:51.672Z</time></trkpt><trkpt lat="42.2253195" lon="13.8549331"><ele>783.0</ele><time>2026-05-02T09:00:53.663Z</time></trkpt><trkpt lat="42.2252748" lon="13.8548143"><ele>783.0</ele><time>2026-05-02T09:00:54.67Z</time></trkpt><trkpt lat="42.2252371" lon="13.8546928"><ele>783.0</ele><time>2026-05-02T09:00:55.657Z</time></trkpt><trkpt lat="42.2252095" lon="13.854592"><ele>783.0</ele><time>2026-05-02T09:00:56.674Z</time></trkpt><trkpt lat="42.2251951" lon="13.8544898"><ele>783.0</ele><time>2026-05-02T09:00:58.666Z</time></trkpt><trkpt lat="42.2251568" lon="13.8544017"><ele>783.0</ele><time>2026-05-02T09:01:02.678Z</time></trkpt><trkpt lat="42.2251382" lon="13.8542805"><ele>783.0</ele><time>2026-05-02T09:01:04.651Z</time></trkpt><trkpt lat="42.2250943" lon="13.8541516"><ele>784.0</ele><time>2026-05-02T09:01:06.678Z</time></trkpt><trkpt lat="42.225065" lon="13.8540753"><ele>785.0</ele><time>2026-05-02T09:01:08.665Z</time></trkpt><trkpt lat="42.2250162" lon="13.8539852"><ele>786.0</ele><time>2026-05-02T09:20:00.663Z</time></trkpt><trkpt lat="42.2250009" lon="13.8538261"><ele>787.0</ele><time>2026-05-02T09:20:02.658Z</time></trkpt><trkpt lat="42.2249866" lon="13.8537384"><ele>788.0</ele><time>2026-05-02T09:20:03.664Z</time></trkpt><trkpt lat="42.2249649" lon="13.8536443"><ele>789.0</ele><time>2026-05-02T09:20:05.649Z</time></trkpt><trkpt lat="42.2249623" lon="13.8535292"><ele>789.2</ele><time>2026-05-02T09:20:08.672Z</time></trkpt><trkpt lat="42.2249814" lon="13.853372"><ele>789.4000000000001</ele><time>2026-05-02T09:20:10.662Z</time></trkpt><trkpt lat="42.225005" lon="13.8532895"><ele>789.6</ele><time>2026-05-02T09:20:11.663Z</time></trkpt><trkpt lat="42.2250556" lon="13.8531607"><ele>789.8</ele><time>2026-05-02T09:20:12.664Z</time></trkpt><trkpt lat="42.2251147" lon="13.8530191"><ele>790.0</ele><time>2026-05-02T09:20:13.678Z</time></trkpt><trkpt lat="42.2251831" lon="13.8528692"><ele>790.0</ele><time>2026-05-02T09:20:14.668Z</time></trkpt><trkpt lat="42.2252557" lon="13.8527271"><ele>790.0</ele><time>2026-05-02T09:20:15.665Z</time></trkpt><trkpt lat="42.2253496" lon="13.8525877"><ele>790.0</ele><time>2026-05-02T09:20:16.667Z</time></trkpt><trkpt lat="42.2254343" lon="13.8524644"><ele>790.0</ele><time>2026-05-02T09:20:17.665Z</time></trkpt><trkpt lat="42.2255009" lon="13.8523495"><ele>790.4</ele><time>2026-05-02T09:20:18.685Z</time></trkpt><trkpt lat="42.2255497" lon="13.8522354"><ele>790.8</ele><time>2026-05-02T09:20:19.676Z</time></trkpt><trkpt lat="42.2255696" lon="13.8521201"><ele>791.2</ele><time>2026-05-02T09:20:20.656Z</time></trkpt><trkpt lat="42.2255841" lon="13.8519924"><ele>791.6</ele><time>2026-05-02T09:20:21.672Z</time></trkpt><trkpt lat="42.225604" lon="13.8518324"><ele>792.0</ele><time>2026-05-02T09:20:22.668Z</time></trkpt><trkpt lat="42.2256184" lon="13.8516509"><ele>795.25</ele><time>2026-05-02T09:20:23.675Z</time></trkpt><trkpt lat="42.225634" lon="13.8514663"><ele>798.5</ele><time>2026-05-02T09:20:24.662Z</time></trkpt><trkpt lat="42.2256512" lon="13.8512739"><ele>801.75</ele><time>2026-05-02T09:20:25.672Z</time></trkpt><trkpt lat="42.225654" lon="13.8510983"><ele>805.0</ele><time>2026-05-02T09:20:26.664Z</time></trkpt><trkpt lat="42.2256471" lon="13.8509122"><ele>810.3333333333333</ele><time>2026-05-02T09:20:27.658Z</time></trkpt><trkpt lat="42.2256314" lon="13.8507113"><ele>815.6666666666667</ele><time>2026-05-02T09:20:28.673Z</time></trkpt><trkpt lat="42.2256056" lon="13.8505128"><ele>821.0</ele><time>2026-05-02T09:20:29.671Z</time></trkpt><trkpt lat="42.2255824" lon="13.8503076"><ele>825.25</ele><time>2026-05-02T09:20:30.665Z</time></trkpt><trkpt lat="42.2255643" lon="13.850122"><ele>829.5</ele><time>2026-05-02T09:20:31.669Z</time></trkpt><trkpt lat="42.2255548" lon="13.849954"><ele>833.75</ele><time>2026-05-02T09:20:32.668Z</time></trkpt><trkpt lat="42.2255383" lon="13.8498022"><ele>838.0</ele><time>2026-05-02T09:20:33.656Z</time></trkpt><trkpt lat="42.2255066" lon="13.8496627"><ele>838.0</ele><time>2026-05-02T09:20:34.674Z</time></trkpt><trkpt lat="42.2254918" lon="13.8495337"><ele>838.0</ele><time>2026-05-02T09:20:35.663Z</time></trkpt><trkpt lat="42.2255508" lon="13.8493922"><ele>838.0</ele><time>2026-05-02T09:20:37.653Z</time></trkpt><trkpt lat="42.2256251" lon="13.8493424"><ele>838.0</ele><time>2026-05-02T09:20:38.666Z</time></trkpt><trkpt lat="42.2257258" lon="13.8493107"><ele>838.0</ele><time>2026-05-02T09:20:39.67Z</time></trkpt><trkpt lat="42.2258517" lon="13.8492592"><ele>847.25</ele><time>2026-05-02T09:20:40.653Z</time></trkpt><trkpt lat="42.2259866" lon="13.8492178"><ele>856.5</ele><time>2026-05-02T09:20:41.663Z</time></trkpt><trkpt lat="42.2261192" lon="13.8491639"><ele>865.75</ele><time>2026-05-02T09:20:42.659Z</time></trkpt><trkpt lat="42.2262641" lon="13.8491126"><ele>875.0</ele><time>2026-05-02T09:20:43.658Z</time></trkpt><trkpt lat="42.2263948" lon="13.8490838"><ele>873.75</ele><time>2026-05-02T09:20:44.657Z</time></trkpt><trkpt lat="42.2265187" lon="13.8490624"><ele>872.5</ele><time>2026-05-02T09:20:45.654Z</time></trkpt><trkpt lat="42.2266487" lon="13.8490375"><ele>871.25</ele><time>2026-05-02T09:20:46.662Z</time></trkpt><trkpt lat="42.226761" lon="13.8490171"><ele>870.0</ele><time>2026-05-02T09:20:47.664Z</time></trkpt><trkpt lat="42.2268478" lon="13.8489993"><ele>870.0</ele><time>2026-05-02T09:20:48.681Z</time></trkpt><trkpt lat="42.2269132" lon="13.8490064"><ele>870.0</ele><time>2026-05-02T09:20:49.664Z</time></trkpt><trkpt lat="42.2270006" lon="13.8489891"><ele>870.0</ele><time>2026-05-02T09:20:50.655Z</time></trkpt><trkpt lat="42.2270875" lon="13.8489691"><ele>870.0</ele><time>2026-05-02T09:20:51.665Z</time></trkpt><trkpt lat="42.227174" lon="13.8489441"><ele>870.0</ele><time>2026-05-02T09:20:52.673Z</time></trkpt><trkpt lat="42.2272572" lon="13.8489142"><ele>870.0</ele><time>2026-05-02T09:20:53.681Z</time></trkpt><trkpt lat="42.2273358" lon="13.8489069"><ele>868.5</ele><time>2026-05-02T09:20:54.665Z</time></trkpt><trkpt lat="42.2274201" lon="13.8488689"><ele>867.0</ele><time>2026-05-02T09:20:55.663Z</time></trkpt><trkpt lat="42.2275047" lon="13.8488528"><ele>865.5</ele><time>2026-05-02T09:20:56.665Z</time></trkpt><trkpt lat="42.2275817" lon="13.8488563"><ele>864.0</ele><time>2026-05-02T09:20:57.656Z</time></trkpt><trkpt lat="42.2276577" lon="13.8488698"><ele>862.5</ele><time>2026-05-02T09:20:58.655Z</time></trkpt><trkpt lat="42.2277442" lon="13.8488844"><ele>861.0</ele><time>2026-05-02T09:20:59.651Z</time></trkpt><trkpt lat="42.2278286" lon="13.8489165"><ele>861.0</ele><time>2026-05-02T09:21:00.648Z</time></trkpt><trkpt lat="42.2279144" lon="13.8489434"><ele>860.9999999999999</ele><time>2026-05-02T09:21:01.654Z</time></trkpt><trkpt lat="42.2280064" lon="13.8489522"><ele>860.9999999999999</ele><time>2026-05-02T09:21:02.661Z</time></trkpt><trkpt lat="42.228099" lon="13.8489649"><ele>861.0</ele><time>2026-05-02T09:21:03.661Z</time></trkpt><trkpt lat="42.2281973" lon="13.8489674"><ele>861.0</ele><time>2026-05-02T09:21:04.662Z</time></trkpt><trkpt lat="42.2282868" lon="13.8489791"><ele>862.6666666666666</ele><time>2026-05-02T09:21:05.663Z</time></trkpt><trkpt lat="42.2283658" lon="13.8489733"><ele>864.3333333333333</ele><time>2026-05-02T09:21:06.663Z</time></trkpt><trkpt lat="42.2284433" lon="13.8489619"><ele>866.0</ele><time>2026-05-02T09:21:07.655Z</time></trkpt><trkpt lat="42.2285156" lon="13.8489241"><ele>867.6666666666666</ele><time>2026-05-02T09:21:08.656Z</time></trkpt><trkpt lat="42.2286025" lon="13.8489066"><ele>869.3333333333333</ele><time>2026-05-02T09:21:09.651Z</time></trkpt><trkpt lat="42.2286684" lon="13.8488957"><ele>871.0</ele><time>2026-05-02T09:21:10.647Z</time></trkpt><trkpt lat="42.2287526" lon="13.848903"><ele>871.0</ele><time>2026-05-02T09:21:11.663Z</time></trkpt><trkpt lat="42.2288387" lon="13.8489294"><ele>870.9999999999999</ele><time>2026-05-02T09:21:12.652Z</time></trkpt><trkpt lat="42.2289329" lon="13.8489455"><ele>870.9999999999999</ele><time>2026-05-02T09:21:13.688Z</time></trkpt><trkpt lat="42.2290324" lon="13.8489785"><ele>871.0</ele><time>2026-05-02T09:21:14.659Z</time></trkpt><trkpt lat="42.2291291" lon="13.849033"><ele>871.0</ele><time>2026-05-02T09:21:15.662Z</time></trkpt><trkpt lat="42.2292161" lon="13.8491019"><ele>873.1999999999999</ele><time>2026-05-02T09:21:16.654Z</time></trkpt><trkpt lat="42.2293066" lon="13.849179"><ele>875.3999999999999</ele><time>2026-05-02T09:21:17.661Z</time></trkpt><trkpt lat="42.2293909" lon="13.8492662"><ele>877.6</ele><time>2026-05-02T09:21:18.65Z</time></trkpt><trkpt lat="42.2294717" lon="13.8493236"><ele>879.8</ele><time>2026-05-02T09:21:19.671Z</time></trkpt><trkpt lat="42.2295469" lon="13.8493213"><ele>882.0</ele><time>2026-05-02T09:21:20.659Z</time></trkpt><trkpt lat="42.22962" lon="13.8492799"><ele>882.0</ele><time>2026-05-02T09:21:21.648Z</time></trkpt><trkpt lat="42.2296977" lon="13.8492449"><ele>882.0</ele><time>2026-05-02T09:21:22.66Z</time></trkpt><trkpt lat="42.2297898" lon="13.8492079"><ele>882.0</ele><time>2026-05-02T09:21:23.659Z</time></trkpt><trkpt lat="42.2298755" lon="13.8491521"><ele>882.0</ele><time>2026-05-02T09:21:24.688Z</time></trkpt><trkpt lat="42.2299644" lon="13.849082"><ele>882.0</ele><time>2026-05-02T09:21:25.66Z</time></trkpt><trkpt lat="42.2300698" lon="13.8490169"><ele>883.0</ele><time>2026-05-02T09:21:26.652Z</time></trkpt><trkpt lat="42.2301914" lon="13.8489834"><ele>884.0</ele><time>2026-05-02T09:21:27.677Z</time></trkpt><trkpt lat="42.230321" lon="13.8489424"><ele>885.0</ele><time>2026-05-02T09:21:28.656Z</time></trkpt><trkpt lat="42.2304236" lon="13.8488984"><ele>886.0</ele><time>2026-05-02T09:21:29.673Z</time></trkpt><trkpt lat="42.2305232" lon="13.8488426"><ele>886.0</ele><time>2026-05-02T09:21:30.664Z</time></trkpt><trkpt lat="42.2306173" lon="13.8487933"><ele>885.9999999999999</ele><time>2026-05-02T09:21:31.675Z</time></trkpt><trkpt lat="42.2307109" lon="13.8487545"><ele>885.9999999999999</ele><time>2026-05-02T09:21:32.658Z</time></trkpt><trkpt lat="42.230808" lon="13.8487383"><ele>886.0</ele><time>2026-05-02T09:21:33.662Z</time></trkpt><trkpt lat="42.2308947" lon="13.8487112"><ele>886.0</ele><time>2026-05-02T09:21:34.655Z</time></trkpt><trkpt lat="42.2309846" lon="13.8486751"><ele>886.0</ele><time>2026-05-02T09:21:35.665Z</time></trkpt><trkpt lat="42.2310663" lon="13.8486416"><ele>885.9999999999999</ele><time>2026-05-02T09:21:36.679Z</time></trkpt><trkpt lat="42.2311535" lon="13.848598"><ele>885.9999999999999</ele><time>2026-05-02T09:21:37.662Z</time></trkpt><trkpt lat="42.2312482" lon="13.8485472"><ele>886.0</ele><time>2026-05-02T09:21:38.672Z</time></trkpt><trkpt lat="42.2313504" lon="13.8484936"><ele>886.0</ele><time>2026-05-02T09:21:39.657Z</time></trkpt><trkpt lat="42.2314643" lon="13.8484541"><ele>890.0</ele><time>2026-05-02T09:21:40.658Z</time></trkpt><trkpt lat="42.2315691" lon="13.8484256"><ele>893.9999999999999</ele><time>2026-05-02T09:21:41.657Z</time></trkpt><trkpt lat="42.2316709" lon="13.8484057"><ele>897.9999999999999</ele><time>2026-05-02T09:21:42.667Z</time></trkpt><trkpt lat="42.2317864" lon="13.8483817"><ele>902.0</ele><time>2026-05-02T09:21:43.66Z</time></trkpt><trkpt lat="42.2318976" lon="13.848358"><ele>906.0</ele><time>2026-05-02T09:21:44.657Z</time></trkpt><trkpt lat="42.231989" lon="13.8483081"><ele>906.0</ele><time>2026-05-02T09:21:45.66Z</time></trkpt><trkpt lat="42.232054" lon="13.8482382"><ele>906.0</ele><time>2026-05-02T09:21:46.657Z</time></trkpt><trkpt lat="42.2321086" lon="13.8481736"><ele>906.0</ele><time>2026-05-02T09:21:47.67Z</time></trkpt><trkpt lat="42.2322071" lon="13.8480759"><ele>906.0</ele><time>2026-05-02T09:21:49.662Z</time></trkpt><trkpt lat="42.2322691" lon="13.8480467"><ele>906.0</ele><time>2026-05-02T09:21:50.665Z</time></trkpt><trkpt lat="42.2323562" lon="13.8480301"><ele>906.0</ele><time>2026-05-02T09:21:51.656Z</time></trkpt><trkpt lat="42.2324535" lon="13.8480296"><ele>906.0</ele><time>2026-05-02T09:21:52.649Z</time></trkpt><trkpt lat="42.2325237" lon="13.8480178"><ele>905.9999999999999</ele><time>2026-05-02T09:21:53.664Z</time></trkpt><trkpt lat="42.2325119" lon="13.8479107"><ele>905.9999999999999</ele><time>2026-05-02T09:21:57.652Z</time></trkpt><trkpt lat="42.2323783" lon="13.8477998"><ele>906.0</ele><time>2026-05-02T09:21:59.654Z</time></trkpt><trkpt lat="42.23229" lon="13.8477307"><ele>906.0</ele><time>2026-05-02T09:22:00.653Z</time></trkpt><trkpt lat="42.2322029" lon="13.847657"><ele>912.25</ele><time>2026-05-02T09:22:01.672Z</time></trkpt><trkpt lat="42.2321072" lon="13.84758"><ele>918.5</ele><time>2026-05-02T09:22:02.679Z</time></trkpt><trkpt lat="42.2320081" lon="13.8474949"><ele>924.75</ele><time>2026-05-02T09:22:03.654Z</time></trkpt><trkpt lat="42.2319103" lon="13.8474136"><ele>931.0</ele><time>2026-05-02T09:22:04.67Z</time></trkpt><trkpt lat="42.2318135" lon="13.8473427"><ele>930.9999999999999</ele><time>2026-05-02T09:22:05.668Z</time></trkpt><trkpt lat="42.2317145" lon="13.8472975"><ele>931.0</ele><time>2026-05-02T09:22:06.662Z</time></trkpt><trkpt lat="42.2316294" lon="13.8472821"><ele>931.0</ele><time>2026-05-02T09:22:07.678Z</time></trkpt><trkpt lat="42.2315478" lon="13.8472749"><ele>931.0</ele><time>2026-05-02T09:22:08.663Z</time></trkpt><trkpt lat="42.2314754" lon="13.8472748"><ele>930.9999999999999</ele><time>2026-05-02T09:22:09.674Z</time></trkpt><trkpt lat="42.2313999" lon="13.847252"><ele>931.0</ele><time>2026-05-02T09:22:10.661Z</time></trkpt><trkpt lat="42.2313197" lon="13.8472134"><ele>931.0</ele><time>2026-05-02T09:22:11.656Z</time></trkpt><trkpt lat="42.2312433" lon="13.8471573"><ele>930.9999999999999</ele><time>2026-05-02T09:22:12.671Z</time></trkpt><trkpt lat="42.2311703" lon="13.847091"><ele>930.9999999999999</ele><time>2026-05-02T09:22:13.657Z</time></trkpt><trkpt lat="42.2310863" lon="13.8470236"><ele>931.0</ele><time>2026-05-02T09:22:14.667Z</time></trkpt><trkpt lat="42.230997" lon="13.8469729"><ele>931.0</ele><time>2026-05-02T09:22:15.658Z</time></trkpt><trkpt lat="42.2309012" lon="13.8469502"><ele>931.0</ele><time>2026-05-02T09:22:16.654Z</time></trkpt><trkpt lat="42.2307929" lon="13.846947"><ele>931.0</ele><time>2026-05-02T09:22:17.66Z</time></trkpt><trkpt lat="42.2306663" lon="13.8469807"><ele>931.0</ele><time>2026-05-02T09:22:18.657Z</time></trkpt><trkpt lat="42.2305363" lon="13.8470162"><ele>931.0</ele><time>2026-05-02T09:22:19.663Z</time></trkpt><trkpt lat="42.2303953" lon="13.8470517"><ele>932.0</ele><time>2026-05-02T09:22:20.673Z</time></trkpt><trkpt lat="42.230252" lon="13.8470824"><ele>933.0</ele><time>2026-05-02T09:22:21.657Z</time></trkpt><trkpt lat="42.2301039" lon="13.8471369"><ele>934.0</ele><time>2026-05-02T09:22:22.678Z</time></trkpt><trkpt lat="42.2299574" lon="13.8472014"><ele>936.0</ele><time>2026-05-02T09:22:23.649Z</time></trkpt><trkpt lat="42.229807" lon="13.8472813"><ele>938.0</ele><time>2026-05-02T09:22:24.662Z</time></trkpt><trkpt lat="42.2296588" lon="13.8473539"><ele>940.0</ele><time>2026-05-02T09:22:25.653Z</time></trkpt><trkpt lat="42.2295305" lon="13.8474156"><ele>940.0</ele><time>2026-05-02T09:22:26.671Z</time></trkpt><trkpt lat="42.2294107" lon="13.8474763"><ele>940.0</ele><time>2026-05-02T09:22:27.669Z</time></trkpt><trkpt lat="42.2292943" lon="13.8475312"><ele>940.0</ele><time>2026-05-02T09:22:28.662Z</time></trkpt><trkpt lat="42.2291726" lon="13.8475766"><ele>940.0</ele><time>2026-05-02T09:22:29.67Z</time></trkpt><trkpt lat="42.2290327" lon="13.8476026"><ele>942.3333333333333</ele><time>2026-05-02T09:22:30.657Z</time></trkpt><trkpt lat="42.2288817" lon="13.8476214"><ele>944.6666666666667</ele><time>2026-05-02T09:22:31.661Z</time></trkpt><trkpt lat="42.2287265" lon="13.8476508"><ele>947.0</ele><time>2026-05-02T09:22:32.658Z</time></trkpt><trkpt lat="42.2285793" lon="13.847709"><ele>936.75</ele><time>2026-05-02T09:22:33.645Z</time></trkpt><trkpt lat="42.2284424" lon="13.8477581"><ele>926.5</ele><time>2026-05-02T09:22:34.655Z</time></trkpt><trkpt lat="42.2283221" lon="13.8477838"><ele>916.25</ele><time>2026-05-02T09:22:35.667Z</time></trkpt><trkpt lat="42.2282178" lon="13.8477939"><ele>906.0</ele><time>2026-05-02T09:22:36.653Z</time></trkpt><trkpt lat="42.2281345" lon="13.8478092"><ele>905.0</ele><time>2026-05-02T09:22:37.668Z</time></trkpt><trkpt lat="42.2280413" lon="13.8478055"><ele>904.0</ele><time>2026-05-02T09:22:39.674Z</time></trkpt><trkpt lat="42.2279669" lon="13.847794"><ele>903.0</ele><time>2026-05-02T09:22:42.66Z</time></trkpt><trkpt lat="42.2278501" lon="13.8477923"><ele>902.0</ele><time>2026-05-02T09:22:45.654Z</time></trkpt><trkpt lat="42.2277819" lon="13.8477815"><ele>901.0</ele><time>2026-05-02T09:22:46.652Z</time></trkpt><trkpt lat="42.2277017" lon="13.8477761"><ele>900.0</ele><time>2026-05-02T09:22:47.659Z</time></trkpt><trkpt lat="42.2275698" lon="13.8477733"><ele>900.0</ele><time>2026-05-02T09:22:48.662Z</time></trkpt><trkpt lat="42.2274174" lon="13.8477726"><ele>900.0</ele><time>2026-05-02T09:22:49.66Z</time></trkpt><trkpt lat="42.2272728" lon="13.8477553"><ele>900.0</ele><time>2026-05-02T09:22:50.657Z</time></trkpt><trkpt lat="42.2271258" lon="13.8477301"><ele>900.0</ele><time>2026-05-02T09:22:51.648Z</time></trkpt><trkpt lat="42.2269661" lon="13.8477147"><ele>901.0</ele><time>2026-05-02T09:22:52.644Z</time></trkpt><trkpt lat="42.2267766" lon="13.8477032"><ele>902.0</ele><time>2026-05-02T09:22:53.637Z</time></trkpt><trkpt lat="42.226595" lon="13.8477188"><ele>903.0</ele><time>2026-05-02T09:22:54.675Z</time></trkpt><trkpt lat="42.2263955" lon="13.8477312"><ele>903.6666666666667</ele><time>2026-05-02T09:22:55.642Z</time></trkpt><trkpt lat="42.2262125" lon="13.8477437"><ele>904.3333333333334</ele><time>2026-05-02T09:22:56.66Z</time></trkpt><trkpt lat="42.2260349" lon="13.8477509"><ele>905.0</ele><time>2026-05-02T09:22:57.65Z</time></trkpt><trkpt lat="42.2258793" lon="13.8477596"><ele>905.0</ele><time>2026-05-02T09:22:58.643Z</time></trkpt><trkpt lat="42.2257321" lon="13.8477613"><ele>905.0</ele><time>2026-05-02T09:22:59.657Z</time></trkpt><trkpt lat="42.2256036" lon="13.847739"><ele>905.0</ele><time>2026-05-02T09:23:00.667Z</time></trkpt><trkpt lat="42.2254733" lon="13.8476896"><ele>905.0</ele><time>2026-05-02T09:23:01.677Z</time></trkpt><trkpt lat="42.2253405" lon="13.847619"><ele>904.0</ele><time>2026-05-02T09:23:02.659Z</time></trkpt><trkpt lat="42.2251951" lon="13.8475469"><ele>903.0</ele><time>2026-05-02T09:23:03.657Z</time></trkpt><trkpt lat="42.2250465" lon="13.8474828"><ele>902.0</ele><time>2026-05-02T09:23:04.684Z</time></trkpt><trkpt lat="42.2249157" lon="13.847423"><ele>901.0</ele><time>2026-05-02T09:23:05.67Z</time></trkpt><trkpt lat="42.2248078" lon="13.8473558"><ele>900.9999999999999</ele><time>2026-05-02T09:23:06.658Z</time></trkpt><trkpt lat="42.2247295" lon="13.8472795"><ele>901.0</ele><time>2026-05-02T09:23:07.657Z</time></trkpt><trkpt lat="42.2246821" lon="13.8472003"><ele>901.0</ele><time>2026-05-02T09:23:08.65Z</time></trkpt><trkpt lat="42.2246499" lon="13.8471074"><ele>901.0</ele><time>2026-05-02T09:23:09.648Z</time></trkpt><trkpt lat="42.2246336" lon="13.8469974"><ele>900.9999999999999</ele><time>2026-05-02T09:23:10.652Z</time></trkpt><trkpt lat="42.2246214" lon="13.846894"><ele>901.0</ele><time>2026-05-02T09:23:11.668Z</time></trkpt><trkpt lat="42.2246371" lon="13.8467823"><ele>904.8</ele><time>2026-05-02T09:23:12.658Z</time></trkpt><trkpt lat="42.2246833" lon="13.8466764"><ele>908.5999999999999</ele><time>2026-05-02T09:23:13.645Z</time></trkpt><trkpt lat="42.2247478" lon="13.8465576"><ele>912.4</ele><time>2026-05-02T09:23:14.673Z</time></trkpt><trkpt lat="42.2248203" lon="13.846441"><ele>916.2</ele><time>2026-05-02T09:23:15.649Z</time></trkpt><trkpt lat="42.2248923" lon="13.8463311"><ele>920.0</ele><time>2026-05-02T09:23:16.651Z</time></trkpt><trkpt lat="42.2249869" lon="13.8462119"><ele>924.25</ele><time>2026-05-02T09:23:17.659Z</time></trkpt><trkpt lat="42.2250867" lon="13.8461085"><ele>928.5</ele><time>2026-05-02T09:23:18.661Z</time></trkpt><trkpt lat="42.225196" lon="13.8460146"><ele>932.75</ele><time>2026-05-02T09:23:19.657Z</time></trkpt><trkpt lat="42.2253014" lon="13.8459358"><ele>937.0</ele><time>2026-05-02T09:23:20.655Z</time></trkpt><trkpt lat="42.2254089" lon="13.8458576"><ele>939.75</ele><time>2026-05-02T09:23:21.655Z</time></trkpt><trkpt lat="42.2255146" lon="13.8457737"><ele>942.5</ele><time>2026-05-02T09:23:22.656Z</time></trkpt><trkpt lat="42.2256222" lon="13.8456933"><ele>945.25</ele><time>2026-05-02T09:23:23.668Z</time></trkpt><trkpt lat="42.2257358" lon="13.8456145"><ele>948.0</ele><time>2026-05-02T09:23:24.657Z</time></trkpt><trkpt lat="42.2258576" lon="13.8455174"><ele>948.5</ele><time>2026-05-02T09:23:25.655Z</time></trkpt><trkpt lat="42.2259775" lon="13.8454231"><ele>949.0</ele><time>2026-05-02T09:23:26.647Z</time></trkpt><trkpt lat="42.2260847" lon="13.8452983"><ele>949.5</ele><time>2026-05-02T09:23:27.655Z</time></trkpt><trkpt lat="42.2262013" lon="13.8451799"><ele>950.0</ele><time>2026-05-02T09:23:28.655Z</time></trkpt><trkpt lat="42.2263233" lon="13.8450489"><ele>954.6666666666667</ele><time>2026-05-02T09:23:29.652Z</time></trkpt><trkpt lat="42.2264508" lon="13.8449241"><ele>959.3333333333333</ele><time>2026-05-02T09:23:30.665Z</time></trkpt><trkpt lat="42.2265866" lon="13.8448102"><ele>964.0</ele><time>2026-05-02T09:23:31.664Z</time></trkpt><trkpt lat="42.2267233" lon="13.8447084"><ele>964.0</ele><time>2026-05-02T09:23:32.66Z</time></trkpt><trkpt lat="42.226859" lon="13.8446043"><ele>964.0</ele><time>2026-05-02T09:23:33.669Z</time></trkpt><trkpt lat="42.2269833" lon="13.8445088"><ele>964.0</ele><time>2026-05-02T09:23:34.652Z</time></trkpt><trkpt lat="42.2271092" lon="13.8444066"><ele>964.0</ele><time>2026-05-02T09:23:35.658Z</time></trkpt><trkpt lat="42.2272221" lon="13.8443279"><ele>967.0</ele><time>2026-05-02T09:23:36.659Z</time></trkpt><trkpt lat="42.2273214" lon="13.8442533"><ele>970.0000000000001</ele><time>2026-05-02T09:23:37.659Z</time></trkpt><trkpt lat="42.2274127" lon="13.8441938"><ele>973.0000000000001</ele><time>2026-05-02T09:23:38.672Z</time></trkpt><trkpt lat="42.227487" lon="13.8441357"><ele>976.0</ele><time>2026-05-02T09:23:39.668Z</time></trkpt><trkpt lat="42.2275556" lon="13.8440793"><ele>979.0</ele><time>2026-05-02T09:23:40.651Z</time></trkpt><trkpt lat="42.2276416" lon="13.8439612"><ele>979.0</ele><time>2026-05-02T09:23:42.662Z</time></trkpt><trkpt lat="42.2276156" lon="13.8438338"><ele>979.0000000000001</ele><time>2026-05-02T09:23:44.648Z</time></trkpt><trkpt lat="42.2274983" lon="13.8437709"><ele>979.0000000000001</ele><time>2026-05-02T09:23:46.649Z</time></trkpt><trkpt lat="42.2274267" lon="13.843763"><ele>979.0</ele><time>2026-05-02T09:23:47.653Z</time></trkpt><trkpt lat="42.2273477" lon="13.8437869"><ele>979.0</ele><time>2026-05-02T09:23:48.655Z</time></trkpt><trkpt lat="42.2272642" lon="13.843785"><ele>980.5</ele><time>2026-05-02T09:23:49.664Z</time></trkpt><trkpt lat="42.227156" lon="13.8437927"><ele>982.0</ele><time>2026-05-02T09:23:50.649Z</time></trkpt><trkpt lat="42.2270073" lon="13.843793"><ele>983.5</ele><time>2026-05-02T09:23:51.654Z</time></trkpt><trkpt lat="42.2268561" lon="13.8437756"><ele>985.0</ele><time>2026-05-02T09:23:52.651Z</time></trkpt><trkpt lat="42.2267433" lon="13.8437716"><ele>984.9999999999999</ele><time>2026-05-02T09:23:53.659Z</time></trkpt><trkpt lat="42.2266777" lon="13.8437622"><ele>985.0</ele><time>2026-05-02T09:23:54.65Z</time></trkpt><trkpt lat="42.2266066" lon="13.8437909"><ele>985.0</ele><time>2026-05-02T09:23:57.668Z</time></trkpt><trkpt lat="42.2265351" lon="13.8438641"><ele>985.0</ele><time>2026-05-02T09:23:59.652Z</time></trkpt><trkpt lat="42.2264664" lon="13.8438978"><ele>984.9999999999999</ele><time>2026-05-02T09:24:00.677Z</time></trkpt><trkpt lat="42.226361" lon="13.8439282"><ele>985.0</ele><time>2026-05-02T09:24:01.655Z</time></trkpt><trkpt lat="42.2262264" lon="13.8439752"><ele>986.25</ele><time>2026-05-02T09:24:02.669Z</time></trkpt><trkpt lat="42.226108" lon="13.8440266"><ele>987.5</ele><time>2026-05-02T09:24:03.656Z</time></trkpt><trkpt lat="42.2259757" lon="13.8440752"><ele>988.75</ele><time>2026-05-02T09:24:04.678Z</time></trkpt><trkpt lat="42.2258196" lon="13.844137"><ele>990.0</ele><time>2026-05-02T09:24:05.657Z</time></trkpt><trkpt lat="42.2256465" lon="13.8442202"><ele>984.0</ele><time>2026-05-02T09:24:06.657Z</time></trkpt><trkpt lat="42.2254766" lon="13.8443256"><ele>978.0</ele><time>2026-05-02T09:24:07.66Z</time></trkpt><trkpt lat="42.2253177" lon="13.8444296"><ele>972.0</ele><time>2026-05-02T09:24:08.669Z</time></trkpt><trkpt lat="42.2251803" lon="13.8445131"><ele>972.0</ele><time>2026-05-02T09:24:09.668Z</time></trkpt><trkpt lat="42.2250453" lon="13.8445685"><ele>972.0</ele><time>2026-05-02T09:24:10.653Z</time></trkpt><trkpt lat="42.2249111" lon="13.8445855"><ele>972.0</ele><time>2026-05-02T09:24:11.67Z</time></trkpt><trkpt lat="42.2247869" lon="13.8445945"><ele>972.0</ele><time>2026-05-02T09:24:12.656Z</time></trkpt><trkpt lat="42.2246954" lon="13.8445729"><ele>970.4285714285713</ele><time>2026-05-02T09:24:13.678Z</time></trkpt><trkpt lat="42.2246417" lon="13.8445154"><ele>968.8571428571429</ele><time>2026-05-02T09:24:14.659Z</time></trkpt><trkpt lat="42.224606" lon="13.844445"><ele>967.2857142857142</ele><time>2026-05-02T09:24:15.659Z</time></trkpt><trkpt lat="42.2245914" lon="13.8443538"><ele>965.7142857142857</ele><time>2026-05-02T09:24:16.662Z</time></trkpt><trkpt lat="42.2246016" lon="13.8442561"><ele>964.1428571428571</ele><time>2026-05-02T09:24:17.662Z</time></trkpt><trkpt lat="42.2246288" lon="13.8441578"><ele>962.5714285714286</ele><time>2026-05-02T09:24:18.658Z</time></trkpt><trkpt lat="42.2246659" lon="13.8440555"><ele>961.0</ele><time>2026-05-02T09:24:19.66Z</time></trkpt><trkpt lat="42.2247259" lon="13.8439014"><ele>959.75</ele><time>2026-05-02T09:24:20.649Z</time></trkpt><trkpt lat="42.224791" lon="13.8437366"><ele>958.5</ele><time>2026-05-02T09:24:21.663Z</time></trkpt><trkpt lat="42.2248643" lon="13.8435588"><ele>957.25</ele><time>2026-05-02T09:24:22.655Z</time></trkpt><trkpt lat="42.2249467" lon="13.8433998"><ele>956.0</ele><time>2026-05-02T09:24:23.66Z</time></trkpt><trkpt lat="42.2250362" lon="13.8432605"><ele>959.75</ele><time>2026-05-02T09:24:24.657Z</time></trkpt><trkpt lat="42.2251192" lon="13.8431204"><ele>963.5</ele><time>2026-05-02T09:24:25.654Z</time></trkpt><trkpt lat="42.2252071" lon="13.8429795"><ele>967.25</ele><time>2026-05-02T09:24:26.688Z</time></trkpt><trkpt lat="42.2253031" lon="13.8428397"><ele>971.0</ele><time>2026-05-02T09:24:27.651Z</time></trkpt><trkpt lat="42.2254084" lon="13.842692"><ele>970.0</ele><time>2026-05-02T09:24:28.66Z</time></trkpt><trkpt lat="42.2255242" lon="13.8425395"><ele>969.0</ele><time>2026-05-02T09:24:29.651Z</time></trkpt><trkpt lat="42.2256446" lon="13.8423837"><ele>968.0</ele><time>2026-05-02T09:24:30.669Z</time></trkpt><trkpt lat="42.2257663" lon="13.8422507"><ele>968.0</ele><time>2026-05-02T09:24:31.676Z</time></trkpt><trkpt lat="42.2258869" lon="13.8421476"><ele>968.0</ele><time>2026-05-02T09:24:32.661Z</time></trkpt><trkpt lat="42.2260133" lon="13.8420762"><ele>968.0</ele><time>2026-05-02T09:24:33.653Z</time></trkpt><trkpt lat="42.2261384" lon="13.8420452"><ele>968.0</ele><time>2026-05-02T09:24:34.659Z</time></trkpt><trkpt lat="42.226257" lon="13.8420409"><ele>968.0</ele><time>2026-05-02T09:24:35.658Z</time></trkpt><trkpt lat="42.2263935" lon="13.8420461"><ele>968.0</ele><time>2026-05-02T09:24:36.667Z</time></trkpt><trkpt lat="42.226535" lon="13.8420518"><ele>968.0</ele><time>2026-05-02T09:24:37.659Z</time></trkpt><trkpt lat="42.2266867" lon="13.8420367"><ele>968.0</ele><time>2026-05-02T09:24:38.662Z</time></trkpt><trkpt lat="42.2268436" lon="13.8420005"><ele>969.0</ele><time>2026-05-02T09:24:39.662Z</time></trkpt><trkpt lat="42.226994" lon="13.8419885"><ele>970.0</ele><time>2026-05-02T09:24:40.65Z</time></trkpt><trkpt lat="42.2271397" lon="13.8419819"><ele>971.0</ele><time>2026-05-02T09:24:41.663Z</time></trkpt><trkpt lat="42.22728" lon="13.8419737"><ele>972.0</ele><time>2026-05-02T09:24:42.67Z</time></trkpt><trkpt lat="42.2274161" lon="13.8419582"><ele>970.0</ele><time>2026-05-02T09:24:43.668Z</time></trkpt><trkpt lat="42.2275597" lon="13.8419364"><ele>968.0</ele><time>2026-05-02T09:24:44.655Z</time></trkpt><trkpt lat="42.2276986" lon="13.8419202"><ele>966.0</ele><time>2026-05-02T09:24:45.662Z</time></trkpt><trkpt lat="42.2278526" lon="13.8418903"><ele>964.0</ele><time>2026-05-02T09:24:46.654Z</time></trkpt><trkpt lat="42.2280167" lon="13.8418485"><ele>953.3333333333333</ele><time>2026-05-02T09:24:47.654Z</time></trkpt><trkpt lat="42.2281733" lon="13.8417928"><ele>942.6666666666667</ele><time>2026-05-02T09:24:48.673Z</time></trkpt><trkpt lat="42.2283179" lon="13.8417384"><ele>932.0</ele><time>2026-05-02T09:24:49.656Z</time></trkpt><trkpt lat="42.2284472" lon="13.8416631"><ele>932.0</ele><time>2026-05-02T09:24:50.651Z</time></trkpt><trkpt lat="42.228555" lon="13.8415752"><ele>932.0</ele><time>2026-05-02T09:24:51.653Z</time></trkpt><trkpt lat="42.2286396" lon="13.8414826"><ele>932.0</ele><time>2026-05-02T09:24:52.653Z</time></trkpt><trkpt lat="42.2287037" lon="13.841381"><ele>932.0</ele><time>2026-05-02T09:24:53.654Z</time></trkpt><trkpt lat="42.228767" lon="13.8412854"><ele>932.0</ele><time>2026-05-02T09:24:54.654Z</time></trkpt><trkpt lat="42.2288333" lon="13.8411376"><ele>933.6666666666667</ele><time>2026-05-02T09:24:55.659Z</time></trkpt><trkpt lat="42.2289047" lon="13.8409297"><ele>935.3333333333333</ele><time>2026-05-02T09:24:56.658Z</time></trkpt><trkpt lat="42.2289711" lon="13.840717"><ele>937.0</ele><time>2026-05-02T09:24:57.647Z</time></trkpt><trkpt lat="42.229036" lon="13.8404905"><ele>937.0</ele><time>2026-05-02T09:24:58.659Z</time></trkpt><trkpt lat="42.2291144" lon="13.8402753"><ele>937.0</ele><time>2026-05-02T09:24:59.65Z</time></trkpt><trkpt lat="42.2291957" lon="13.8400566"><ele>937.0</ele><time>2026-05-02T09:25:00.643Z</time></trkpt><trkpt lat="42.2292721" lon="13.8398353"><ele>929.3333333333333</ele><time>2026-05-02T09:25:01.646Z</time></trkpt><trkpt lat="42.2293522" lon="13.8396313"><ele>921.6666666666667</ele><time>2026-05-02T09:25:02.653Z</time></trkpt><trkpt lat="42.2294418" lon="13.8394362"><ele>914.0</ele><time>2026-05-02T09:25:03.652Z</time></trkpt><trkpt lat="42.229549" lon="13.8392582"><ele>919.3333333333334</ele><time>2026-05-02T09:25:04.648Z</time></trkpt><trkpt lat="42.2296637" lon="13.8390862"><ele>924.6666666666667</ele><time>2026-05-02T09:25:05.643Z</time></trkpt><trkpt lat="42.2297776" lon="13.8389005"><ele>930.0</ele><time>2026-05-02T09:25:06.669Z</time></trkpt><trkpt lat="42.2298899" lon="13.8387134"><ele>930.0</ele><time>2026-05-02T09:25:07.651Z</time></trkpt><trkpt lat="42.2299852" lon="13.8385502"><ele>930.0</ele><time>2026-05-02T09:25:08.667Z</time></trkpt><trkpt lat="42.2300678" lon="13.8383796"><ele>930.0</ele><time>2026-05-02T09:25:09.638Z</time></trkpt><trkpt lat="42.2301471" lon="13.8382095"><ele>921.5</ele><time>2026-05-02T09:25:10.641Z</time></trkpt><trkpt lat="42.2302244" lon="13.8380424"><ele>913.0</ele><time>2026-05-02T09:25:11.654Z</time></trkpt><trkpt lat="42.2303022" lon="13.837894"><ele>904.5</ele><time>2026-05-02T09:25:12.643Z</time></trkpt><trkpt lat="42.2304051" lon="13.8377861"><ele>896.0</ele><time>2026-05-02T09:25:13.648Z</time></trkpt><trkpt lat="42.230524" lon="13.8376826"><ele>894.5</ele><time>2026-05-02T09:25:14.661Z</time></trkpt><trkpt lat="42.2306453" lon="13.837575"><ele>893.0</ele><time>2026-05-02T09:25:15.658Z</time></trkpt><trkpt lat="42.2307661" lon="13.8374881"><ele>891.5</ele><time>2026-05-02T09:25:16.656Z</time></trkpt><trkpt lat="42.2308831" lon="13.8374098"><ele>890.0</ele><time>2026-05-02T09:25:17.652Z</time></trkpt><trkpt lat="42.2310071" lon="13.8373383"><ele>890.0</ele><time>2026-05-02T09:25:18.652Z</time></trkpt><trkpt lat="42.2311402" lon="13.837276"><ele>890.0</ele><time>2026-05-02T09:25:19.659Z</time></trkpt><trkpt lat="42.2312835" lon="13.8372259"><ele>890.0</ele><time>2026-05-02T09:25:20.659Z</time></trkpt><trkpt lat="42.2314308" lon="13.8371895"><ele>890.0</ele><time>2026-05-02T09:25:21.669Z</time></trkpt><trkpt lat="42.2315878" lon="13.8371541"><ele>892.5</ele><time>2026-05-02T09:25:22.677Z</time></trkpt><trkpt lat="42.2317344" lon="13.8371285"><ele>895.0</ele><time>2026-05-02T09:25:23.654Z</time></trkpt><trkpt lat="42.2318773" lon="13.8370998"><ele>897.5</ele><time>2026-05-02T09:25:24.674Z</time></trkpt><trkpt lat="42.2320109" lon="13.8370763"><ele>900.0</ele><time>2026-05-02T09:25:25.647Z</time></trkpt><trkpt lat="42.2321418" lon="13.8370582"><ele>900.0</ele><time>2026-05-02T09:25:26.659Z</time></trkpt><trkpt lat="42.2322621" lon="13.8370702"><ele>900.0</ele><time>2026-05-02T09:25:27.672Z</time></trkpt><trkpt lat="42.2323694" lon="13.8370994"><ele>900.0</ele><time>2026-05-02T09:25:28.652Z</time></trkpt><trkpt lat="42.2324584" lon="13.8371215"><ele>900.0</ele><time>2026-05-02T09:25:29.65Z</time></trkpt><trkpt lat="42.2325227" lon="13.8370987"><ele>900.0</ele><time>2026-05-02T09:25:30.675Z</time></trkpt><trkpt lat="42.2325107" lon="13.8369924"><ele>900.0</ele><time>2026-05-02T09:25:32.644Z</time></trkpt><trkpt lat="42.2323595" lon="13.8369304"><ele>900.0</ele><time>2026-05-02T09:25:34.637Z</time></trkpt><trkpt lat="42.2322435" lon="13.8368925"><ele>900.0</ele><time>2026-05-02T09:25:35.679Z</time></trkpt><trkpt lat="42.2321265" lon="13.8368569"><ele>900.0</ele><time>2026-05-02T09:25:36.654Z</time></trkpt><trkpt lat="42.2319931" lon="13.8368225"><ele>887.3333333333333</ele><time>2026-05-02T09:25:37.652Z</time></trkpt><trkpt lat="42.2318556" lon="13.8367912"><ele>874.6666666666666</ele><time>2026-05-02T09:25:38.656Z</time></trkpt><trkpt lat="42.2316969" lon="13.8367487"><ele>862.0</ele><time>2026-05-02T09:25:39.656Z</time></trkpt><trkpt lat="42.2315354" lon="13.8367086"><ele>859.0</ele><time>2026-05-02T09:25:40.654Z</time></trkpt><trkpt lat="42.2313713" lon="13.8366665"><ele>856.0</ele><time>2026-05-02T09:25:41.652Z</time></trkpt><trkpt lat="42.2312244" lon="13.8366319"><ele>853.0</ele><time>2026-05-02T09:25:42.651Z</time></trkpt><trkpt lat="42.2310719" lon="13.8366132"><ele>853.0</ele><time>2026-05-02T09:25:43.664Z</time></trkpt><trkpt lat="42.2309212" lon="13.8366069"><ele>853.0</ele><time>2026-05-02T09:25:44.642Z</time></trkpt><trkpt lat="42.2307646" lon="13.8366479"><ele>853.0</ele><time>2026-05-02T09:25:45.677Z</time></trkpt><trkpt lat="42.2306021" lon="13.8367295"><ele>856.3333333333333</ele><time>2026-05-02T09:25:46.652Z</time></trkpt><trkpt lat="42.2304236" lon="13.836824"><ele>859.6666666666667</ele><time>2026-05-02T09:25:47.652Z</time></trkpt><trkpt lat="42.2302279" lon="13.8369317"><ele>863.0</ele><time>2026-05-02T09:25:48.646Z</time></trkpt><trkpt lat="42.2300336" lon="13.8370421"><ele>863.0</ele><time>2026-05-02T09:25:49.651Z</time></trkpt><trkpt lat="42.2298437" lon="13.8371365"><ele>863.0</ele><time>2026-05-02T09:25:50.66Z</time></trkpt><trkpt lat="42.2296744" lon="13.8372365"><ele>863.0</ele><time>2026-05-02T09:25:51.648Z</time></trkpt><trkpt lat="42.2295015" lon="13.8373241"><ele>854.6666666666667</ele><time>2026-05-02T09:25:52.654Z</time></trkpt><trkpt lat="42.2293318" lon="13.8373976"><ele>846.3333333333333</ele><time>2026-05-02T09:25:53.647Z</time></trkpt><trkpt lat="42.229174" lon="13.8374698"><ele>838.0</ele><time>2026-05-02T09:25:54.651Z</time></trkpt><trkpt lat="42.2290245" lon="13.837545"><ele>836.25</ele><time>2026-05-02T09:25:55.66Z</time></trkpt><trkpt lat="42.2288799" lon="13.8376117"><ele>834.5</ele><time>2026-05-02T09:25:56.669Z</time></trkpt><trkpt lat="42.228745" lon="13.8376945"><ele>832.75</ele><time>2026-05-02T09:25:57.669Z</time></trkpt><trkpt lat="42.2286372" lon="13.8377664"><ele>831.0</ele><time>2026-05-02T09:25:58.643Z</time></trkpt><trkpt lat="42.228561" lon="13.8378079"><ele>831.0</ele><time>2026-05-02T09:25:59.653Z</time></trkpt><trkpt lat="42.2284883" lon="13.8377615"><ele>831.0</ele><time>2026-05-02T09:26:01.652Z</time></trkpt><trkpt lat="42.2285366" lon="13.8376786"><ele>831.0</ele><time>2026-05-02T09:26:03.646Z</time></trkpt><trkpt lat="42.2286105" lon="13.8376377"><ele>831.0</ele><time>2026-05-02T09:26:04.65Z</time></trkpt><trkpt lat="42.2286853" lon="13.8375692"><ele>831.0</ele><time>2026-05-02T09:26:05.654Z</time></trkpt><trkpt lat="42.2287856" lon="13.8374853"><ele>831.0</ele><time>2026-05-02T09:26:06.667Z</time></trkpt><trkpt lat="42.2289104" lon="13.8373643"><ele>833.3333333333333</ele><time>2026-05-02T09:26:07.653Z</time></trkpt><trkpt lat="42.2290536" lon="13.8372225"><ele>835.6666666666666</ele><time>2026-05-02T09:26:08.67Z</time></trkpt><trkpt lat="42.2291995" lon="13.8370868"><ele>838.0</ele><time>2026-05-02T09:26:09.649Z</time></trkpt><trkpt lat="42.229339" lon="13.8369695"><ele>838.0</ele><time>2026-05-02T09:26:10.654Z</time></trkpt><trkpt lat="42.2294639" lon="13.8368538"><ele>838.0</ele><time>2026-05-02T09:26:11.662Z</time></trkpt><trkpt lat="42.2295906" lon="13.836725"><ele>838.0</ele><time>2026-05-02T09:26:12.657Z</time></trkpt><trkpt lat="42.2297147" lon="13.836563"><ele>835.3333333333333</ele><time>2026-05-02T09:26:13.655Z</time></trkpt><trkpt lat="42.2298586" lon="13.8363845"><ele>832.6666666666667</ele><time>2026-05-02T09:26:14.651Z</time></trkpt><trkpt lat="42.2300076" lon="13.8362158"><ele>830.0</ele><time>2026-05-02T09:26:15.656Z</time></trkpt><trkpt lat="42.2301568" lon="13.8360457"><ele>820.0</ele><time>2026-05-02T09:26:16.653Z</time></trkpt><trkpt lat="42.2303084" lon="13.8358992"><ele>810.0</ele><time>2026-05-02T09:26:17.654Z</time></trkpt><trkpt lat="42.2304534" lon="13.8357486"><ele>800.0</ele><time>2026-05-02T09:26:18.658Z</time></trkpt><trkpt lat="42.2305971" lon="13.8356124"><ele>807.0</ele><time>2026-05-02T09:26:19.667Z</time></trkpt><trkpt lat="42.2307322" lon="13.8354873"><ele>814.0</ele><time>2026-05-02T09:26:20.659Z</time></trkpt><trkpt lat="42.2308647" lon="13.8353744"><ele>821.0</ele><time>2026-05-02T09:26:21.661Z</time></trkpt><trkpt lat="42.2310018" lon="13.8352945"><ele>821.0</ele><time>2026-05-02T09:26:22.65Z</time></trkpt><trkpt lat="42.2311473" lon="13.8352447"><ele>821.0</ele><time>2026-05-02T09:26:23.667Z</time></trkpt><trkpt lat="42.2313092" lon="13.83521"><ele>821.0</ele><time>2026-05-02T09:26:24.666Z</time></trkpt><trkpt lat="42.2314719" lon="13.8351959"><ele>823.0</ele><time>2026-05-02T09:26:25.648Z</time></trkpt><trkpt lat="42.2316148" lon="13.8351657"><ele>825.0</ele><time>2026-05-02T09:26:26.641Z</time></trkpt><trkpt lat="42.2317368" lon="13.8351361"><ele>827.0</ele><time>2026-05-02T09:26:27.655Z</time></trkpt><trkpt lat="42.2318371" lon="13.8351159"><ele>829.0</ele><time>2026-05-02T09:26:28.654Z</time></trkpt><trkpt lat="42.231912" lon="13.8350903"><ele>831.0</ele><time>2026-05-02T09:26:29.658Z</time></trkpt><trkpt lat="42.2319538" lon="13.8349953"><ele>824.0</ele><time>2026-05-02T09:26:31.651Z</time></trkpt><trkpt lat="42.2318362" lon="13.8349768"><ele>817.0</ele><time>2026-05-02T09:26:34.646Z</time></trkpt><trkpt lat="42.2317455" lon="13.8349795"><ele>810.0</ele><time>2026-05-02T09:26:35.647Z</time></trkpt><trkpt lat="42.2316313" lon="13.8349756"><ele>803.0</ele><time>2026-05-02T09:26:36.648Z</time></trkpt><trkpt lat="42.2315033" lon="13.8349691"><ele>800.25</ele><time>2026-05-02T09:26:37.65Z</time></trkpt><trkpt lat="42.2313669" lon="13.834947"><ele>797.5</ele><time>2026-05-02T09:26:38.653Z</time></trkpt><trkpt lat="42.2312368" lon="13.8349178"><ele>794.75</ele><time>2026-05-02T09:26:39.656Z</time></trkpt><trkpt lat="42.2311063" lon="13.8348921"><ele>792.0</ele><time>2026-05-02T09:26:40.667Z</time></trkpt><trkpt lat="42.230992" lon="13.8348717"><ele>792.0</ele><time>2026-05-02T09:26:41.654Z</time></trkpt><trkpt lat="42.2308598" lon="13.8348901"><ele>792.0</ele><time>2026-05-02T09:26:42.658Z</time></trkpt><trkpt lat="42.2307173" lon="13.8349269"><ele>792.0</ele><time>2026-05-02T09:26:43.647Z</time></trkpt><trkpt lat="42.230565" lon="13.8349734"><ele>792.0</ele><time>2026-05-02T09:26:44.66Z</time></trkpt><trkpt lat="42.230405" lon="13.8350166"><ele>794.6666666666667</ele><time>2026-05-02T09:26:45.653Z</time></trkpt><trkpt lat="42.2302312" lon="13.8350643"><ele>797.3333333333334</ele><time>2026-05-02T09:26:46.679Z</time></trkpt><trkpt lat="42.2300596" lon="13.8351145"><ele>800.0</ele><time>2026-05-02T09:26:47.664Z</time></trkpt><trkpt lat="42.2299039" lon="13.8351633"><ele>793.3333333333334</ele><time>2026-05-02T09:26:48.659Z</time></trkpt><trkpt lat="42.2297542" lon="13.8352146"><ele>786.6666666666667</ele><time>2026-05-02T09:26:49.657Z</time></trkpt><trkpt lat="42.2296068" lon="13.8352755"><ele>780.0</ele><time>2026-05-02T09:26:50.654Z</time></trkpt><trkpt lat="42.2294618" lon="13.835349"><ele>780.0</ele><time>2026-05-02T09:26:51.65Z</time></trkpt><trkpt lat="42.2293231" lon="13.8354207"><ele>780.0</ele><time>2026-05-02T09:26:52.671Z</time></trkpt><trkpt lat="42.2291944" lon="13.8355031"><ele>780.0</ele><time>2026-05-02T09:26:53.642Z</time></trkpt><trkpt lat="42.2290619" lon="13.8356114"><ele>780.0</ele><time>2026-05-02T09:26:54.667Z</time></trkpt><trkpt lat="42.2289272" lon="13.8357221"><ele>777.25</ele><time>2026-05-02T09:26:55.651Z</time></trkpt><trkpt lat="42.228787" lon="13.8358188"><ele>774.5</ele><time>2026-05-02T09:26:56.669Z</time></trkpt><trkpt lat="42.2286441" lon="13.8359049"><ele>771.75</ele><time>2026-05-02T09:26:57.663Z</time></trkpt><trkpt lat="42.2285219" lon="13.8359678"><ele>769.0</ele><time>2026-05-02T09:26:58.65Z</time></trkpt><trkpt lat="42.2284144" lon="13.8360223"><ele>769.8000000000001</ele><time>2026-05-02T09:26:59.643Z</time></trkpt><trkpt lat="42.2283234" lon="13.83606"><ele>770.6</ele><time>2026-05-02T09:27:00.642Z</time></trkpt><trkpt lat="42.2282419" lon="13.8360708"><ele>771.4</ele><time>2026-05-02T09:27:01.678Z</time></trkpt><trkpt lat="42.228168" lon="13.8360406"><ele>772.2</ele><time>2026-05-02T09:27:02.653Z</time></trkpt><trkpt lat="42.2280875" lon="13.8359636"><ele>773.0</ele><time>2026-05-02T09:27:03.654Z</time></trkpt><trkpt lat="42.2279642" lon="13.835867"><ele>773.0</ele><time>2026-05-02T09:27:04.655Z</time></trkpt><trkpt lat="42.2278231" lon="13.8357734"><ele>773.0</ele><time>2026-05-02T09:27:05.651Z</time></trkpt><trkpt lat="42.2276746" lon="13.8356726"><ele>773.0</ele><time>2026-05-02T09:27:06.65Z</time></trkpt><trkpt lat="42.227525" lon="13.8355817"><ele>773.0</ele><time>2026-05-02T09:27:07.647Z</time></trkpt><trkpt lat="42.2273832" lon="13.8354943"><ele>773.0</ele><time>2026-05-02T09:27:08.655Z</time></trkpt><trkpt lat="42.2272476" lon="13.8354286"><ele>773.0</ele><time>2026-05-02T09:27:09.66Z</time></trkpt><trkpt lat="42.2271332" lon="13.8353809"><ele>773.0</ele><time>2026-05-02T09:27:10.657Z</time></trkpt><trkpt lat="42.2270402" lon="13.8353376"><ele>772.0</ele><time>2026-05-02T09:27:11.649Z</time></trkpt><trkpt lat="42.2269639" lon="13.8353114"><ele>771.0</ele><time>2026-05-02T09:27:12.641Z</time></trkpt><trkpt lat="42.2268711" lon="13.8353172"><ele>770.0</ele><time>2026-05-02T09:27:13.651Z</time></trkpt><trkpt lat="42.2267582" lon="13.83536"><ele>769.0</ele><time>2026-05-02T09:27:14.653Z</time></trkpt><trkpt lat="42.2266185" lon="13.8353902"><ele>768.0</ele><time>2026-05-02T09:27:15.652Z</time></trkpt><trkpt lat="42.2264844" lon="13.8354292"><ele>763.5</ele><time>2026-05-02T09:27:16.666Z</time></trkpt><trkpt lat="42.2263477" lon="13.8354729"><ele>759.0</ele><time>2026-05-02T09:27:17.662Z</time></trkpt><trkpt lat="42.226221" lon="13.8355169"><ele>754.5</ele><time>2026-05-02T09:27:18.649Z</time></trkpt><trkpt lat="42.2261014" lon="13.8355653"><ele>750.0</ele><time>2026-05-02T09:27:19.649Z</time></trkpt><trkpt lat="42.2259735" lon="13.8356268"><ele>750.0</ele><time>2026-05-02T09:27:20.665Z</time></trkpt><trkpt lat="42.225838" lon="13.8356873"><ele>750.0</ele><time>2026-05-02T09:27:21.656Z</time></trkpt><trkpt lat="42.2257023" lon="13.8357569"><ele>750.0</ele><time>2026-05-02T09:27:22.66Z</time></trkpt><trkpt lat="42.2255705" lon="13.8358441"><ele>750.0</ele><time>2026-05-02T09:27:23.652Z</time></trkpt><trkpt lat="42.225448" lon="13.8359217"><ele>748.0</ele><time>2026-05-02T09:27:24.649Z</time></trkpt><trkpt lat="42.2253357" lon="13.8360196"><ele>746.0</ele><time>2026-05-02T09:27:25.652Z</time></trkpt><trkpt lat="42.2252228" lon="13.8361343"><ele>744.0</ele><time>2026-05-02T09:27:26.654Z</time></trkpt><trkpt lat="42.2251098" lon="13.836238"><ele>742.0</ele><time>2026-05-02T09:27:27.655Z</time></trkpt><trkpt lat="42.2250014" lon="13.8363315"><ele>742.0</ele><time>2026-05-02T09:27:28.656Z</time></trkpt><trkpt lat="42.2248886" lon="13.836428"><ele>742.0</ele><time>2026-05-02T09:27:29.665Z</time></trkpt><trkpt lat="42.224787" lon="13.8365085"><ele>742.0</ele><time>2026-05-02T09:27:30.657Z</time></trkpt><trkpt lat="42.2246784" lon="13.8366142"><ele>742.0</ele><time>2026-05-02T09:27:31.64Z</time></trkpt><trkpt lat="42.2245838" lon="13.8367431"><ele>736.0</ele><time>2026-05-02T09:27:32.647Z</time></trkpt><trkpt lat="42.2244925" lon="13.8368998"><ele>730.0</ele><time>2026-05-02T09:27:33.656Z</time></trkpt><trkpt lat="42.224412" lon="13.8370927"><ele>724.0</ele><time>2026-05-02T09:27:34.654Z</time></trkpt><trkpt lat="42.2243237" lon="13.8372768"><ele>724.0</ele><time>2026-05-02T09:27:35.649Z</time></trkpt><trkpt lat="42.2242307" lon="13.8374293"><ele>724.0</ele><time>2026-05-02T09:27:36.652Z</time></trkpt><trkpt lat="42.2241459" lon="13.8375726"><ele>724.0</ele><time>2026-05-02T09:27:37.649Z</time></trkpt><trkpt lat="42.2240738" lon="13.8377258"><ele>724.0</ele><time>2026-05-02T09:27:38.647Z</time></trkpt><trkpt lat="42.2240028" lon="13.8378697"><ele>719.75</ele><time>2026-05-02T09:27:39.661Z</time></trkpt><trkpt lat="42.2239394" lon="13.8379916"><ele>715.5</ele><time>2026-05-02T09:27:40.665Z</time></trkpt><trkpt lat="42.223861" lon="13.8381036"><ele>711.25</ele><time>2026-05-02T09:27:41.666Z</time></trkpt><trkpt lat="42.223776" lon="13.8382067"><ele>707.0</ele><time>2026-05-02T09:27:42.649Z</time></trkpt><trkpt lat="42.2236824" lon="13.838301"><ele>707.0</ele><time>2026-05-02T09:27:43.64Z</time></trkpt><trkpt lat="42.2235849" lon="13.8383885"><ele>707.0</ele><time>2026-05-02T09:27:44.661Z</time></trkpt><trkpt lat="42.2234867" lon="13.8384527"><ele>707.0</ele><time>2026-05-02T09:27:45.654Z</time></trkpt><trkpt lat="42.2233935" lon="13.8385112"><ele>707.0</ele><time>2026-05-02T09:27:46.649Z</time></trkpt><trkpt lat="42.2232859" lon="13.8385642"><ele>707.0</ele><time>2026-05-02T09:27:47.651Z</time></trkpt><trkpt lat="42.2231678" lon="13.8386154"><ele>707.75</ele><time>2026-05-02T09:27:48.653Z</time></trkpt><trkpt lat="42.2230339" lon="13.8386608"><ele>708.5</ele><time>2026-05-02T09:27:49.677Z</time></trkpt><trkpt lat="42.2228826" lon="13.8387105"><ele>709.25</ele><time>2026-05-02T09:27:50.646Z</time></trkpt><trkpt lat="42.2227365" lon="13.8387602"><ele>710.0</ele><time>2026-05-02T09:27:51.653Z</time></trkpt><trkpt lat="42.2225965" lon="13.8388142"><ele>710.0</ele><time>2026-05-02T09:27:52.652Z</time></trkpt><trkpt lat="42.2224623" lon="13.8388801"><ele>710.0</ele><time>2026-05-02T09:27:53.652Z</time></trkpt><trkpt lat="42.2223349" lon="13.8389676"><ele>710.0</ele><time>2026-05-02T09:27:54.652Z</time></trkpt><trkpt lat="42.2222178" lon="13.8390819"><ele>710.0</ele><time>2026-05-02T09:27:55.65Z</time></trkpt><trkpt lat="42.2221189" lon="13.8392082"><ele>708.4</ele><time>2026-05-02T09:27:56.651Z</time></trkpt><trkpt lat="42.2220461" lon="13.8393125"><ele>706.8</ele><time>2026-05-02T09:27:57.646Z</time></trkpt><trkpt lat="42.2219613" lon="13.8393358"><ele>705.2</ele><time>2026-05-02T09:27:59.661Z</time></trkpt><trkpt lat="42.2219411" lon="13.8392178"><ele>703.6</ele><time>2026-05-02T09:28:01.653Z</time></trkpt><trkpt lat="42.2219832" lon="13.8390541"><ele>702.0</ele><time>2026-05-02T09:28:03.662Z</time></trkpt><trkpt lat="42.2220188" lon="13.8389351"><ele>697.75</ele><time>2026-05-02T09:28:04.673Z</time></trkpt><trkpt lat="42.2220733" lon="13.8388093"><ele>693.5</ele><time>2026-05-02T09:28:05.648Z</time></trkpt><trkpt lat="42.2221266" lon="13.838663"><ele>689.25</ele><time>2026-05-02T09:28:06.657Z</time></trkpt><trkpt lat="42.2221995" lon="13.8385117"><ele>685.0</ele><time>2026-05-02T09:28:07.653Z</time></trkpt><trkpt lat="42.2222842" lon="13.8383646"><ele>687.25</ele><time>2026-05-02T09:28:08.65Z</time></trkpt><trkpt lat="42.2223789" lon="13.8382198"><ele>689.5</ele><time>2026-05-02T09:28:09.65Z</time></trkpt><trkpt lat="42.2224887" lon="13.8380849"><ele>691.75</ele><time>2026-05-02T09:28:10.656Z</time></trkpt><trkpt lat="42.2225942" lon="13.8379463"><ele>694.0</ele><time>2026-05-02T09:28:11.657Z</time></trkpt><trkpt lat="42.2226965" lon="13.8378085"><ele>694.0</ele><time>2026-05-02T09:28:12.643Z</time></trkpt><trkpt lat="42.2227931" lon="13.8376807"><ele>694.0</ele><time>2026-05-02T09:28:13.657Z</time></trkpt><trkpt lat="42.2228805" lon="13.8375542"><ele>694.0</ele><time>2026-05-02T09:28:14.662Z</time></trkpt><trkpt lat="42.2229527" lon="13.8374028"><ele>694.0</ele><time>2026-05-02T09:28:15.656Z</time></trkpt><trkpt lat="42.2229956" lon="13.8372402"><ele>688.0</ele><time>2026-05-02T09:28:16.637Z</time></trkpt><trkpt lat="42.2230293" lon="13.8370587"><ele>682.0</ele><time>2026-05-02T09:28:17.652Z</time></trkpt><trkpt lat="42.2230546" lon="13.8368632"><ele>676.0</ele><time>2026-05-02T09:28:18.641Z</time></trkpt><trkpt lat="42.2230749" lon="13.8366681"><ele>670.0</ele><time>2026-05-02T09:28:19.648Z</time></trkpt><trkpt lat="42.2230796" lon="13.8364774"><ele>667.6</ele><time>2026-05-02T09:28:20.666Z</time></trkpt><trkpt lat="42.2230835" lon="13.8363084"><ele>665.2</ele><time>2026-05-02T09:28:21.647Z</time></trkpt><trkpt lat="42.2230891" lon="13.8361736"><ele>662.8</ele><time>2026-05-02T09:28:22.675Z</time></trkpt><trkpt lat="42.2230935" lon="13.8360659"><ele>660.4</ele><time>2026-05-02T09:28:23.652Z</time></trkpt><trkpt lat="42.2230707" lon="13.8359771"><ele>658.0</ele><time>2026-05-02T09:28:24.65Z</time></trkpt><trkpt lat="42.2229898" lon="13.8359676"><ele>658.0</ele><time>2026-05-02T09:28:26.639Z</time></trkpt><trkpt lat="42.2229334" lon="13.8360074"><ele>658.0</ele><time>2026-05-02T09:28:27.652Z</time></trkpt><trkpt lat="42.2228741" lon="13.8360897"><ele>658.0</ele><time>2026-05-02T09:28:28.654Z</time></trkpt><trkpt lat="42.2228129" lon="13.8362104"><ele>658.0</ele><time>2026-05-02T09:28:29.65Z</time></trkpt><trkpt lat="42.2227588" lon="13.8363578"><ele>658.0</ele><time>2026-05-02T09:28:30.653Z</time></trkpt><trkpt lat="42.2226942" lon="13.8365013"><ele>658.0</ele><time>2026-05-02T09:28:31.661Z</time></trkpt><trkpt lat="42.2226213" lon="13.8366302"><ele>658.0</ele><time>2026-05-02T09:28:32.653Z</time></trkpt><trkpt lat="42.2225347" lon="13.8367494"><ele>658.0</ele><time>2026-05-02T09:28:33.656Z</time></trkpt><trkpt lat="42.2224344" lon="13.8368415"><ele>658.0</ele><time>2026-05-02T09:28:34.653Z</time></trkpt><trkpt lat="42.2223155" lon="13.8369167"><ele>657.75</ele><time>2026-05-02T09:28:35.647Z</time></trkpt><trkpt lat="42.2221869" lon="13.8369827"><ele>657.5</ele><time>2026-05-02T09:28:36.652Z</time></trkpt><trkpt lat="42.2220425" lon="13.8370501"><ele>657.25</ele><time>2026-05-02T09:28:37.664Z</time></trkpt><trkpt lat="42.2218979" lon="13.8371354"><ele>657.0</ele><time>2026-05-02T09:28:38.662Z</time></trkpt><trkpt lat="42.2217519" lon="13.8372208"><ele>657.0</ele><time>2026-05-02T09:28:39.655Z</time></trkpt><trkpt lat="42.2215966" lon="13.8373082"><ele>657.0</ele><time>2026-05-02T09:28:40.655Z</time></trkpt><trkpt lat="42.2214495" lon="13.8373898"><ele>657.0</ele><time>2026-05-02T09:28:41.66Z</time></trkpt><trkpt lat="42.2213319" lon="13.8374445"><ele>652.3333333333334</ele><time>2026-05-02T09:28:42.664Z</time></trkpt><trkpt lat="42.2212491" lon="13.8374775"><ele>647.6666666666666</ele><time>2026-05-02T09:28:43.66Z</time></trkpt><trkpt lat="42.2211743" lon="13.8374695"><ele>643.0</ele><time>2026-05-02T09:28:45.658Z</time></trkpt><trkpt lat="42.2212117" lon="13.837384"><ele>638.3333333333333</ele><time>2026-05-02T09:28:47.658Z</time></trkpt><trkpt lat="42.2212627" lon="13.8373268"><ele>633.6666666666666</ele><time>2026-05-02T09:28:48.648Z</time></trkpt><trkpt lat="42.2213252" lon="13.8372508"><ele>629.0</ele><time>2026-05-02T09:28:49.659Z</time></trkpt><trkpt lat="42.2214149" lon="13.8371422"><ele>632.0</ele><time>2026-05-02T09:28:50.661Z</time></trkpt><trkpt lat="42.2215081" lon="13.8370107"><ele>635.0</ele><time>2026-05-02T09:28:51.661Z</time></trkpt><trkpt lat="42.2216127" lon="13.8368769"><ele>638.0</ele><time>2026-05-02T09:28:52.659Z</time></trkpt><trkpt lat="42.2217199" lon="13.8367399"><ele>641.0</ele><time>2026-05-02T09:28:53.654Z</time></trkpt><trkpt lat="42.2218122" lon="13.8365971"><ele>641.0</ele><time>2026-05-02T09:28:54.655Z</time></trkpt><trkpt lat="42.2218984" lon="13.8364583"><ele>641.0</ele><time>2026-05-02T09:28:55.667Z</time></trkpt><trkpt lat="42.2219689" lon="13.8363192"><ele>641.0</ele><time>2026-05-02T09:28:56.655Z</time></trkpt><trkpt lat="42.2220282" lon="13.8361926"><ele>641.0</ele><time>2026-05-02T09:28:57.657Z</time></trkpt><trkpt lat="42.2220851" lon="13.8360935"><ele>641.0</ele><time>2026-05-02T09:28:58.663Z</time></trkpt><trkpt lat="42.2221153" lon="13.8360073"><ele>641.0</ele><time>2026-05-02T09:28:59.671Z</time></trkpt><trkpt lat="42.2220532" lon="13.835922"><ele>641.0</ele><time>2026-05-02T09:29:01.656Z</time></trkpt><trkpt lat="42.2219954" lon="13.8359562"><ele>641.0</ele><time>2026-05-02T09:29:02.651Z</time></trkpt><trkpt lat="42.2219275" lon="13.8360122"><ele>641.0</ele><time>2026-05-02T09:29:03.649Z</time></trkpt><trkpt lat="42.2218398" lon="13.8361299"><ele>641.0</ele><time>2026-05-02T09:29:04.649Z</time></trkpt><trkpt lat="42.2217343" lon="13.8362478"><ele>641.0</ele><time>2026-05-02T09:29:05.661Z</time></trkpt><trkpt lat="42.2216104" lon="13.8363823"><ele>641.0</ele><time>2026-05-02T09:29:06.65Z</time></trkpt><trkpt lat="42.2214727" lon="13.8365095"><ele>641.0</ele><time>2026-05-02T09:29:07.668Z</time></trkpt><trkpt lat="42.2213315" lon="13.8366257"><ele>638.0</ele><time>2026-05-02T09:29:08.651Z</time></trkpt><trkpt lat="42.2211917" lon="13.8367276"><ele>635.0</ele><time>2026-05-02T09:29:09.658Z</time></trkpt><trkpt lat="42.221064" lon="13.8368165"><ele>632.0</ele><time>2026-05-02T09:29:10.656Z</time></trkpt><trkpt lat="42.2209569" lon="13.8369022"><ele>629.0</ele><time>2026-05-02T09:29:11.662Z</time></trkpt><trkpt lat="42.2208618" lon="13.8370011"><ele>629.0</ele><time>2026-05-02T09:29:12.667Z</time></trkpt><trkpt lat="42.2207643" lon="13.8371275"><ele>629.0</ele><time>2026-05-02T09:29:13.667Z</time></trkpt><trkpt lat="42.2206717" lon="13.8372843"><ele>629.0</ele><time>2026-05-02T09:29:14.65Z</time></trkpt><trkpt lat="42.2205844" lon="13.8374363"><ele>629.0</ele><time>2026-05-02T09:29:15.652Z</time></trkpt><trkpt lat="42.2205058" lon="13.8375925"><ele>618.25</ele><time>2026-05-02T09:29:16.658Z</time></trkpt><trkpt lat="42.2204452" lon="13.837756"><ele>607.5</ele><time>2026-05-02T09:29:17.668Z</time></trkpt><trkpt lat="42.2203954" lon="13.8379346"><ele>596.75</ele><time>2026-05-02T09:29:18.656Z</time></trkpt><trkpt lat="42.2203464" lon="13.8381201"><ele>586.0</ele><time>2026-05-02T09:29:19.655Z</time></trkpt><trkpt lat="42.220298" lon="13.8383013"><ele>586.0</ele><time>2026-05-02T09:29:20.665Z</time></trkpt><trkpt lat="42.2202667" lon="13.8384665"><ele>586.0</ele><time>2026-05-02T09:29:21.652Z</time></trkpt><trkpt lat="42.220262" lon="13.838606"><ele>586.0</ele><time>2026-05-02T09:29:22.668Z</time></trkpt><trkpt lat="42.2202752" lon="13.838737"><ele>586.0</ele><time>2026-05-02T09:29:23.673Z</time></trkpt><trkpt lat="42.2202891" lon="13.8388615"><ele>586.0</ele><time>2026-05-02T09:29:24.678Z</time></trkpt><trkpt lat="42.2202713" lon="13.8389535"><ele>589.25</ele><time>2026-05-02T09:29:25.656Z</time></trkpt><trkpt lat="42.2202206" lon="13.839048"><ele>592.5</ele><time>2026-05-02T09:29:26.659Z</time></trkpt><trkpt lat="42.2201489" lon="13.8391477"><ele>595.75</ele><time>2026-05-02T09:29:27.677Z</time></trkpt><trkpt lat="42.2200728" lon="13.8392644"><ele>599.0</ele><time>2026-05-02T09:29:28.644Z</time></trkpt><trkpt lat="42.2199804" lon="13.8394156"><ele>606.6666666666666</ele><time>2026-05-02T09:29:29.659Z</time></trkpt><trkpt lat="42.2198712" lon="13.8395793"><ele>614.3333333333334</ele><time>2026-05-02T09:29:30.679Z</time></trkpt><trkpt lat="42.2197558" lon="13.8397394"><ele>622.0</ele><time>2026-05-02T09:29:31.652Z</time></trkpt><trkpt lat="42.2196373" lon="13.8399041"><ele>617.0</ele><time>2026-05-02T09:29:32.665Z</time></trkpt><trkpt lat="42.2195252" lon="13.8400595"><ele>612.0</ele><time>2026-05-02T09:29:33.652Z</time></trkpt><trkpt lat="42.2194268" lon="13.8402009"><ele>607.0</ele><time>2026-05-02T09:29:34.655Z</time></trkpt><trkpt lat="42.2193453" lon="13.8403309"><ele>602.0</ele><time>2026-05-02T09:29:35.652Z</time></trkpt><trkpt lat="42.2192651" lon="13.8404489"><ele>602.0</ele><time>2026-05-02T09:29:36.66Z</time></trkpt><trkpt lat="42.2191931" lon="13.8405567"><ele>602.0</ele><time>2026-05-02T09:29:37.654Z</time></trkpt><trkpt lat="42.2191281" lon="13.8406374"><ele>602.0</ele><time>2026-05-02T09:29:38.644Z</time></trkpt><trkpt lat="42.2190707" lon="13.8406759"><ele>602.0</ele><time>2026-05-02T09:29:39.655Z</time></trkpt><trkpt lat="42.2190083" lon="13.8405757"><ele>602.0</ele><time>2026-05-02T09:29:41.649Z</time></trkpt><trkpt lat="42.2190458" lon="13.8404557"><ele>602.0</ele><time>2026-05-02T09:29:43.641Z</time></trkpt><trkpt lat="42.2191447" lon="13.8402997"><ele>602.0</ele><time>2026-05-02T09:29:45.647Z</time></trkpt><trkpt lat="42.2192082" lon="13.8401685"><ele>602.0</ele><time>2026-05-02T09:29:46.649Z</time></trkpt><trkpt lat="42.2192722" lon="13.8399901"><ele>602.0</ele><time>2026-05-02T09:29:47.651Z</time></trkpt><trkpt lat="42.2193464" lon="13.8398149"><ele>594.75</ele><time>2026-05-02T09:29:48.646Z</time></trkpt><trkpt lat="42.2194116" lon="13.839633"><ele>587.5</ele><time>2026-05-02T09:29:49.644Z</time></trkpt><trkpt lat="42.2194808" lon="13.8394714"><ele>580.25</ele><time>2026-05-02T09:29:50.654Z</time></trkpt><trkpt lat="42.2195454" lon="13.8393146"><ele>573.0</ele><time>2026-05-02T09:29:51.655Z</time></trkpt><trkpt lat="42.2196009" lon="13.8391724"><ele>569.0</ele><time>2026-05-02T09:29:52.657Z</time></trkpt><trkpt lat="42.2196539" lon="13.8390386"><ele>565.0</ele><time>2026-05-02T09:29:53.646Z</time></trkpt><trkpt lat="42.2197023" lon="13.8389175"><ele>561.0</ele><time>2026-05-02T09:29:54.647Z</time></trkpt><trkpt lat="42.2197417" lon="13.8387904"><ele>557.0</ele><time>2026-05-02T09:29:55.639Z</time></trkpt><trkpt lat="42.2197419" lon="13.8386531"><ele>553.0</ele><time>2026-05-02T09:29:56.657Z</time></trkpt><trkpt lat="42.2197191" lon="13.8385153"><ele>548.25</ele><time>2026-05-02T09:29:57.646Z</time></trkpt><trkpt lat="42.2196928" lon="13.8383401"><ele>543.5</ele><time>2026-05-02T09:29:58.651Z</time></trkpt><trkpt lat="42.2196732" lon="13.8381505"><ele>538.75</ele><time>2026-05-02T09:29:59.663Z</time></trkpt><trkpt lat="42.2196616" lon="13.8379434"><ele>534.0</ele><time>2026-05-02T09:30:00.639Z</time></trkpt><trkpt lat="42.2196562" lon="13.8377343"><ele>531.75</ele><time>2026-05-02T09:30:01.652Z</time></trkpt><trkpt lat="42.2196538" lon="13.837539"><ele>529.5</ele><time>2026-05-02T09:30:02.655Z</time></trkpt><trkpt lat="42.2196631" lon="13.8373591"><ele>527.25</ele><time>2026-05-02T09:30:03.662Z</time></trkpt><trkpt lat="42.2196821" lon="13.8371923"><ele>525.0</ele><time>2026-05-02T09:30:04.674Z</time></trkpt><trkpt lat="42.2197109" lon="13.8370326"><ele>525.0</ele><time>2026-05-02T09:30:05.649Z</time></trkpt><trkpt lat="42.219739" lon="13.8368748"><ele>525.0</ele><time>2026-05-02T09:30:06.669Z</time></trkpt><trkpt lat="42.2197685" lon="13.8367303"><ele>525.0</ele><time>2026-05-02T09:30:07.654Z</time></trkpt><trkpt lat="42.2198218" lon="13.8365705"><ele>525.0</ele><time>2026-05-02T09:30:08.667Z</time></trkpt><trkpt lat="42.2198846" lon="13.8363986"><ele>527.2</ele><time>2026-05-02T09:30:09.659Z</time></trkpt><trkpt lat="42.2199462" lon="13.8362299"><ele>529.4</ele><time>2026-05-02T09:30:10.672Z</time></trkpt><trkpt lat="42.2200039" lon="13.8360956"><ele>531.6</ele><time>2026-05-02T09:30:11.656Z</time></trkpt><trkpt lat="42.2200589" lon="13.8359964"><ele>533.8</ele><time>2026-05-02T09:30:12.67Z</time></trkpt><trkpt lat="42.2201098" lon="13.8359265"><ele>536.0</ele><time>2026-05-02T09:30:13.659Z</time></trkpt><trkpt lat="42.2201476" lon="13.8358548"><ele>536.0</ele><time>2026-05-02T09:30:14.658Z</time></trkpt><trkpt lat="42.2201009" lon="13.8357788"><ele>536.0</ele><time>2026-05-02T09:30:16.648Z</time></trkpt><trkpt lat="42.2199794" lon="13.8358807"><ele>536.0</ele><time>2026-05-02T09:30:18.654Z</time></trkpt><trkpt lat="42.2198989" lon="13.8359875"><ele>536.0</ele><time>2026-05-02T09:30:19.673Z</time></trkpt><trkpt lat="42.2198164" lon="13.8361036"><ele>536.0</ele><time>2026-05-02T09:30:20.673Z</time></trkpt><trkpt lat="42.2197288" lon="13.8362249"><ele>533.25</ele><time>2026-05-02T09:30:21.666Z</time></trkpt><trkpt lat="42.2196339" lon="13.8363696"><ele>530.5</ele><time>2026-05-02T09:30:22.666Z</time></trkpt><trkpt lat="42.2195351" lon="13.8365269"><ele>527.75</ele><time>2026-05-02T09:30:23.652Z</time></trkpt><trkpt lat="42.2194474" lon="13.8366939"><ele>525.0</ele><time>2026-05-02T09:30:24.66Z</time></trkpt><trkpt lat="42.2193703" lon="13.8368587"><ele>525.0</ele><time>2026-05-02T09:30:25.671Z</time></trkpt><trkpt lat="42.2192975" lon="13.8370294"><ele>525.0</ele><time>2026-05-02T09:30:26.652Z</time></trkpt><trkpt lat="42.2192245" lon="13.8372005"><ele>525.0</ele><time>2026-05-02T09:30:27.666Z</time></trkpt><trkpt lat="42.2191548" lon="13.8373722"><ele>525.0</ele><time>2026-05-02T09:30:28.647Z</time></trkpt><trkpt lat="42.2190882" lon="13.8375449"><ele>527.25</ele><time>2026-05-02T09:30:29.659Z</time></trkpt><trkpt lat="42.2190306" lon="13.8377179"><ele>529.5</ele><time>2026-05-02T09:30:30.656Z</time></trkpt><trkpt lat="42.2189891" lon="13.8378934"><ele>531.75</ele><time>2026-05-02T09:30:31.663Z</time></trkpt><trkpt lat="42.2189656" lon="13.8380641"><ele>534.0</ele><time>2026-05-02T09:30:32.65Z</time></trkpt><trkpt lat="42.2189484" lon="13.838214"><ele>528.2</ele><time>2026-05-02T09:30:33.66Z</time></trkpt><trkpt lat="42.2189231" lon="13.8383496"><ele>522.4</ele><time>2026-05-02T09:30:34.677Z</time></trkpt><trkpt lat="42.2188753" lon="13.8384609"><ele>516.6</ele><time>2026-05-02T09:30:35.656Z</time></trkpt><trkpt lat="42.2188264" lon="13.8385601"><ele>510.8</ele><time>2026-05-02T09:30:36.658Z</time></trkpt><trkpt lat="42.2187428" lon="13.8386475"><ele>505.0</ele><time>2026-05-02T09:30:37.651Z</time></trkpt><trkpt lat="42.218635" lon="13.8387492"><ele>505.0</ele><time>2026-05-02T09:30:38.648Z</time></trkpt><trkpt lat="42.2185204" lon="13.838869"><ele>505.0</ele><time>2026-05-02T09:30:39.658Z</time></trkpt><trkpt lat="42.2183987" lon="13.8390185"><ele>505.0</ele><time>2026-05-02T09:30:40.661Z</time></trkpt><trkpt lat="42.2182732" lon="13.8391907"><ele>500.33333333333337</ele><time>2026-05-02T09:30:41.668Z</time></trkpt><trkpt lat="42.2181482" lon="13.8393556"><ele>495.66666666666663</ele><time>2026-05-02T09:30:42.648Z</time></trkpt><trkpt lat="42.2180327" lon="13.8395137"><ele>491.0</ele><time>2026-05-02T09:30:43.667Z</time></trkpt><trkpt lat="42.2179275" lon="13.8396587"><ele>491.0</ele><time>2026-05-02T09:30:44.657Z</time></trkpt><trkpt lat="42.2178235" lon="13.839787"><ele>491.0</ele><time>2026-05-02T09:30:45.652Z</time></trkpt><trkpt lat="42.2177075" lon="13.8399178"><ele>491.0</ele><time>2026-05-02T09:30:46.659Z</time></trkpt><trkpt lat="42.2175841" lon="13.8400358"><ele>491.0</ele><time>2026-05-02T09:30:47.657Z</time></trkpt><trkpt lat="42.217451" lon="13.8401566"><ele>487.3333333333333</ele><time>2026-05-02T09:30:48.679Z</time></trkpt><trkpt lat="42.2173071" lon="13.84029"><ele>483.66666666666663</ele><time>2026-05-02T09:30:49.656Z</time></trkpt><trkpt lat="42.2171703" lon="13.8404138"><ele>480.0</ele><time>2026-05-02T09:30:50.653Z</time></trkpt><trkpt lat="42.2170413" lon="13.8405177"><ele>480.0</ele><time>2026-05-02T09:30:51.66Z</time></trkpt><trkpt lat="42.2169162" lon="13.8406173"><ele>480.0</ele><time>2026-05-02T09:30:52.663Z</time></trkpt><trkpt lat="42.2167878" lon="13.8407016"><ele>480.0</ele><time>2026-05-02T09:30:53.655Z</time></trkpt><trkpt lat="42.2166578" lon="13.8407789"><ele>480.0</ele><time>2026-05-02T09:30:54.662Z</time></trkpt><trkpt lat="42.2165293" lon="13.8408555"><ele>477.5</ele><time>2026-05-02T09:30:55.671Z</time></trkpt><trkpt lat="42.2163982" lon="13.8409272"><ele>475.0</ele><time>2026-05-02T09:30:56.649Z</time></trkpt><trkpt lat="42.2162606" lon="13.8410101"><ele>472.5</ele><time>2026-05-02T09:30:57.652Z</time></trkpt><trkpt lat="42.2161354" lon="13.8410862"><ele>470.0</ele><time>2026-05-02T09:30:58.648Z</time></trkpt><trkpt lat="42.2160096" lon="13.8411536"><ele>470.0</ele><time>2026-05-02T09:30:59.657Z</time></trkpt><trkpt lat="42.2158825" lon="13.8412052"><ele>470.0</ele><time>2026-05-02T09:31:00.638Z</time></trkpt><trkpt lat="42.2157613" lon="13.8412483"><ele>470.0</ele><time>2026-05-02T09:31:01.665Z</time></trkpt><trkpt lat="42.2156454" lon="13.8412683"><ele>470.0</ele><time>2026-05-02T09:31:02.649Z</time></trkpt><trkpt lat="42.215546" lon="13.8412696"><ele>465.6</ele><time>2026-05-02T09:31:03.648Z</time></trkpt><trkpt lat="42.2154604" lon="13.8412232"><ele>461.2</ele><time>2026-05-02T09:31:04.657Z</time></trkpt><trkpt lat="42.215392" lon="13.8411357"><ele>456.79999999999995</ele><time>2026-05-02T09:31:05.671Z</time></trkpt><trkpt lat="42.215327" lon="13.8410325"><ele>452.4</ele><time>2026-05-02T09:31:06.656Z</time></trkpt><trkpt lat="42.2152673" lon="13.8408873"><ele>448.0</ele><time>2026-05-02T09:31:07.668Z</time></trkpt><trkpt lat="42.2152122" lon="13.8407205"><ele>446.59999999999997</ele><time>2026-05-02T09:31:08.663Z</time></trkpt><trkpt lat="42.2151656" lon="13.8405584"><ele>445.19999999999993</ele><time>2026-05-02T09:31:09.65Z</time></trkpt><trkpt lat="42.2151431" lon="13.8404302"><ele>443.8</ele><time>2026-05-02T09:31:10.667Z</time></trkpt><trkpt lat="42.2151597" lon="13.8403171"><ele>442.4</ele><time>2026-05-02T09:31:11.669Z</time></trkpt><trkpt lat="42.2152092" lon="13.8402176"><ele>441.0</ele><time>2026-05-02T09:31:12.664Z</time></trkpt><trkpt lat="42.2152912" lon="13.8401228"><ele>440.6</ele><time>2026-05-02T09:31:13.665Z</time></trkpt><trkpt lat="42.2153856" lon="13.840035"><ele>440.20000000000005</ele><time>2026-05-02T09:31:14.674Z</time></trkpt><trkpt lat="42.2154807" lon="13.8399633"><ele>439.79999999999995</ele><time>2026-05-02T09:31:15.657Z</time></trkpt><trkpt lat="42.2155754" lon="13.8398849"><ele>439.4</ele><time>2026-05-02T09:31:16.671Z</time></trkpt><trkpt lat="42.2156601" lon="13.8398095"><ele>439.0</ele><time>2026-05-02T09:31:17.645Z</time></trkpt><trkpt lat="42.2157492" lon="13.8397317"><ele>438.0</ele><time>2026-05-02T09:31:18.655Z</time></trkpt><trkpt lat="42.215824" lon="13.8396397"><ele>437.0</ele><time>2026-05-02T09:31:19.665Z</time></trkpt><trkpt lat="42.2158829" lon="13.8395358"><ele>436.0</ele><time>2026-05-02T09:31:20.668Z</time></trkpt><trkpt lat="42.2159222" lon="13.8394201"><ele>435.0</ele><time>2026-05-02T09:31:21.665Z</time></trkpt><trkpt lat="42.2159694" lon="13.8393037"><ele>434.0</ele><time>2026-05-02T09:31:22.656Z</time></trkpt><trkpt lat="42.2160188" lon="13.8391827"><ele>434.0</ele><time>2026-05-02T09:31:23.672Z</time></trkpt><trkpt lat="42.2160776" lon="13.8390343"><ele>434.0</ele><time>2026-05-02T09:31:24.654Z</time></trkpt><trkpt lat="42.2161372" lon="13.838877"><ele>434.0</ele><time>2026-05-02T09:31:25.673Z</time></trkpt><trkpt lat="42.2161952" lon="13.8387304"><ele>434.0</ele><time>2026-05-02T09:31:26.667Z</time></trkpt><trkpt lat="42.2162409" lon="13.83858"><ele>431.25</ele><time>2026-05-02T09:31:27.653Z</time></trkpt><trkpt lat="42.2162875" lon="13.8384376"><ele>428.5</ele><time>2026-05-02T09:31:28.655Z</time></trkpt><trkpt lat="42.2163327" lon="13.8382713"><ele>425.75</ele><time>2026-05-02T09:31:29.668Z</time></trkpt><trkpt lat="42.2163766" lon="13.8381067"><ele>423.0</ele><time>2026-05-02T09:31:30.666Z</time></trkpt><trkpt lat="42.2164283" lon="13.8379089"><ele>423.0</ele><time>2026-05-02T09:31:31.655Z</time></trkpt><trkpt lat="42.2164824" lon="13.8376905"><ele>423.0</ele><time>2026-05-02T09:31:32.66Z</time></trkpt><trkpt lat="42.2165345" lon="13.8374585"><ele>423.0</ele><time>2026-05-02T09:31:33.665Z</time></trkpt><trkpt lat="42.21659" lon="13.8372475"><ele>423.0</ele><time>2026-05-02T09:31:34.668Z</time></trkpt><trkpt lat="42.2166422" lon="13.8370468"><ele>423.0</ele><time>2026-05-02T09:31:35.657Z</time></trkpt><trkpt lat="42.2166881" lon="13.8368549"><ele>423.0</ele><time>2026-05-02T09:31:36.655Z</time></trkpt><trkpt lat="42.2167359" lon="13.8366727"><ele>420.0</ele><time>2026-05-02T09:31:37.65Z</time></trkpt><trkpt lat="42.2167901" lon="13.8364943"><ele>417.0</ele><time>2026-05-02T09:31:38.65Z</time></trkpt><trkpt lat="42.2168551" lon="13.8363195"><ele>414.0</ele><time>2026-05-02T09:31:39.657Z</time></trkpt><trkpt lat="42.2169412" lon="13.8361403"><ele>411.0</ele><time>2026-05-02T09:31:40.664Z</time></trkpt><trkpt lat="42.2170338" lon="13.8359544"><ele>407.33333333333337</ele><time>2026-05-02T09:31:41.664Z</time></trkpt><trkpt lat="42.2171308" lon="13.8357742"><ele>403.6666666666667</ele><time>2026-05-02T09:31:42.667Z</time></trkpt><trkpt lat="42.2172248" lon="13.8356003"><ele>400.0</ele><time>2026-05-02T09:31:43.664Z</time></trkpt><trkpt lat="42.2173092" lon="13.8354461"><ele>399.75</ele><time>2026-05-02T09:31:44.675Z</time></trkpt><trkpt lat="42.2173917" lon="13.8353041"><ele>399.5</ele><time>2026-05-02T09:31:45.649Z</time></trkpt><trkpt lat="42.2174602" lon="13.8351845"><ele>399.25</ele><time>2026-05-02T09:31:46.651Z</time></trkpt><trkpt lat="42.2175191" lon="13.8350561"><ele>399.0</ele><time>2026-05-02T09:31:47.659Z</time></trkpt><trkpt lat="42.2175627" lon="13.8349294"><ele>399.0</ele><time>2026-05-02T09:31:48.653Z</time></trkpt><trkpt lat="42.2175705" lon="13.8347802"><ele>399.0</ele><time>2026-05-02T09:31:49.663Z</time></trkpt><trkpt lat="42.2175586" lon="13.8346077"><ele>399.0</ele><time>2026-05-02T09:31:50.653Z</time></trkpt><trkpt lat="42.2175308" lon="13.8344215"><ele>399.0</ele><time>2026-05-02T09:31:51.655Z</time></trkpt><trkpt lat="42.2175049" lon="13.8342247"><ele>396.33333333333337</ele><time>2026-05-02T09:31:52.654Z</time></trkpt><trkpt lat="42.217475" lon="13.8340152"><ele>393.6666666666667</ele><time>2026-05-02T09:31:53.654Z</time></trkpt><trkpt lat="42.2174458" lon="13.8337929"><ele>391.0</ele><time>2026-05-02T09:31:54.667Z</time></trkpt><trkpt lat="42.2174245" lon="13.8335745"><ele>389.0</ele><time>2026-05-02T09:31:55.658Z</time></trkpt><trkpt lat="42.2174028" lon="13.833369"><ele>387.0</ele><time>2026-05-02T09:31:56.659Z</time></trkpt><trkpt lat="42.2173878" lon="13.8331808"><ele>385.0</ele><time>2026-05-02T09:31:57.652Z</time></trkpt><trkpt lat="42.2173877" lon="13.8330067"><ele>383.0</ele><time>2026-05-02T09:31:58.652Z</time></trkpt><trkpt lat="42.217407" lon="13.8328151"><ele>380.6666666666667</ele><time>2026-05-02T09:31:59.649Z</time></trkpt><trkpt lat="42.2174256" lon="13.8326267"><ele>378.3333333333333</ele><time>2026-05-02T09:32:00.665Z</time></trkpt><trkpt lat="42.2174441" lon="13.8324079"><ele>376.0</ele><time>2026-05-02T09:32:01.653Z</time></trkpt><trkpt lat="42.2174625" lon="13.8321777"><ele>376.0</ele><time>2026-05-02T09:32:02.655Z</time></trkpt><trkpt lat="42.2174792" lon="13.8319474"><ele>376.0</ele><time>2026-05-02T09:32:03.656Z</time></trkpt><trkpt lat="42.2175003" lon="13.8317278"><ele>376.0</ele><time>2026-05-02T09:32:04.662Z</time></trkpt><trkpt lat="42.2175166" lon="13.8315334"><ele>375.0</ele><time>2026-05-02T09:32:05.676Z</time></trkpt><trkpt lat="42.2175344" lon="13.8313465"><ele>374.0</ele><time>2026-05-02T09:32:06.664Z</time></trkpt><trkpt lat="42.2175653" lon="13.8311738"><ele>373.0</ele><time>2026-05-02T09:32:07.652Z</time></trkpt><trkpt lat="42.2176146" lon="13.8310067"><ele>372.0</ele><time>2026-05-02T09:32:08.657Z</time></trkpt><trkpt lat="42.2176668" lon="13.8308364"><ele>371.25</ele><time>2026-05-02T09:32:09.662Z</time></trkpt><trkpt lat="42.2177186" lon="13.830671"><ele>370.5</ele><time>2026-05-02T09:32:10.674Z</time></trkpt><trkpt lat="42.21777" lon="13.8305189"><ele>369.75</ele><time>2026-05-02T09:32:11.676Z</time></trkpt><trkpt lat="42.217819" lon="13.8303861"><ele>369.0</ele><time>2026-05-02T09:32:12.657Z</time></trkpt><trkpt lat="42.2178665" lon="13.8302709"><ele>369.0</ele><time>2026-05-02T09:32:13.655Z</time></trkpt><trkpt lat="42.2179123" lon="13.8301595"><ele>369.0</ele><time>2026-05-02T09:32:14.659Z</time></trkpt><trkpt lat="42.2179606" lon="13.8300524"><ele>369.0</ele><time>2026-05-02T09:32:15.663Z</time></trkpt><trkpt lat="42.2180003" lon="13.8299197"><ele>369.0</ele><time>2026-05-02T09:32:16.661Z</time></trkpt><trkpt lat="42.2180206" lon="13.8297691"><ele>369.0</ele><time>2026-05-02T09:32:17.677Z</time></trkpt><trkpt lat="42.2180227" lon="13.8296248"><ele>367.75</ele><time>2026-05-02T09:32:18.657Z</time></trkpt><trkpt lat="42.218019" lon="13.8294712"><ele>366.5</ele><time>2026-05-02T09:32:19.666Z</time></trkpt><trkpt lat="42.218006" lon="13.8293088"><ele>365.25</ele><time>2026-05-02T09:32:20.654Z</time></trkpt><trkpt lat="42.2179857" lon="13.8291481"><ele>364.0</ele><time>2026-05-02T09:32:21.666Z</time></trkpt><trkpt lat="42.2179663" lon="13.8289834"><ele>363.25</ele><time>2026-05-02T09:32:22.673Z</time></trkpt><trkpt lat="42.2179524" lon="13.828813"><ele>362.5</ele><time>2026-05-02T09:32:23.655Z</time></trkpt><trkpt lat="42.2179388" lon="13.8286375"><ele>361.75</ele><time>2026-05-02T09:32:24.684Z</time></trkpt><trkpt lat="42.2179235" lon="13.8284534"><ele>361.0</ele><time>2026-05-02T09:32:25.663Z</time></trkpt><trkpt lat="42.2179027" lon="13.8282738"><ele>359.75</ele><time>2026-05-02T09:32:26.655Z</time></trkpt><trkpt lat="42.2178911" lon="13.8280939"><ele>358.5</ele><time>2026-05-02T09:32:27.664Z</time></trkpt><trkpt lat="42.2178792" lon="13.8279219"><ele>357.25</ele><time>2026-05-02T09:32:28.663Z</time></trkpt><trkpt lat="42.2178704" lon="13.8277462"><ele>356.0</ele><time>2026-05-02T09:32:29.659Z</time></trkpt><trkpt lat="42.2178624" lon="13.8275707"><ele>354.6</ele><time>2026-05-02T09:32:30.642Z</time></trkpt><trkpt lat="42.2178548" lon="13.8274127"><ele>353.20000000000005</ele><time>2026-05-02T09:32:31.652Z</time></trkpt><trkpt lat="42.217855" lon="13.8272607"><ele>351.79999999999995</ele><time>2026-05-02T09:32:32.659Z</time></trkpt><trkpt lat="42.217858" lon="13.8271098"><ele>350.4</ele><time>2026-05-02T09:32:33.662Z</time></trkpt><trkpt lat="42.2178547" lon="13.8269824"><ele>349.0</ele><time>2026-05-02T09:32:34.679Z</time></trkpt><trkpt lat="42.2178295" lon="13.8268675"><ele>347.6</ele><time>2026-05-02T09:32:35.651Z</time></trkpt><trkpt lat="42.2177743" lon="13.8267656"><ele>346.2</ele><time>2026-05-02T09:32:36.652Z</time></trkpt><trkpt lat="42.2176912" lon="13.8266943"><ele>344.8</ele><time>2026-05-02T09:32:37.659Z</time></trkpt><trkpt lat="42.2175907" lon="13.8266322"><ele>343.40000000000003</ele><time>2026-05-02T09:32:38.651Z</time></trkpt><trkpt lat="42.2175023" lon="13.8265723"><ele>342.0</ele><time>2026-05-02T09:32:39.657Z</time></trkpt><trkpt lat="42.2174285" lon="13.8265203"><ele>342.0</ele><time>2026-05-02T09:32:40.654Z</time></trkpt><trkpt lat="42.2173804" lon="13.8264561"><ele>342.0</ele><time>2026-05-02T09:32:41.659Z</time></trkpt><trkpt lat="42.2173423" lon="13.8263048"><ele>342.0</ele><time>2026-05-02T09:32:43.655Z</time></trkpt><trkpt lat="42.2173729" lon="13.8262172"><ele>342.0</ele><time>2026-05-02T09:32:44.673Z</time></trkpt><trkpt lat="42.2174284" lon="13.8261276"><ele>342.0</ele><time>2026-05-02T09:32:45.664Z</time></trkpt><trkpt lat="42.2175092" lon="13.8260267"><ele>339.8</ele><time>2026-05-02T09:32:46.656Z</time></trkpt><trkpt lat="42.2175938" lon="13.8259078"><ele>337.6</ele><time>2026-05-02T09:32:47.652Z</time></trkpt><trkpt lat="42.2176674" lon="13.8257934"><ele>335.40000000000003</ele><time>2026-05-02T09:32:48.646Z</time></trkpt><trkpt lat="42.2177277" lon="13.8256693"><ele>333.20000000000005</ele><time>2026-05-02T09:32:49.661Z</time></trkpt><trkpt lat="42.2177585" lon="13.8255504"><ele>331.0</ele><time>2026-05-02T09:32:50.658Z</time></trkpt><trkpt lat="42.2177435" lon="13.8254267"><ele>331.0</ele><time>2026-05-02T09:32:51.663Z</time></trkpt><trkpt lat="42.2177058" lon="13.8253085"><ele>331.0</ele><time>2026-05-02T09:32:52.66Z</time></trkpt><trkpt lat="42.2176444" lon="13.8252204"><ele>331.0</ele><time>2026-05-02T09:32:53.661Z</time></trkpt><trkpt lat="42.2175492" lon="13.8251667"><ele>331.0</ele><time>2026-05-02T09:32:54.669Z</time></trkpt><trkpt lat="42.2174376" lon="13.8251294"><ele>331.0</ele><time>2026-05-02T09:32:55.67Z</time></trkpt><trkpt lat="42.2173209" lon="13.8251152"><ele>329.20000000000005</ele><time>2026-05-02T09:32:56.669Z</time></trkpt><trkpt lat="42.2172224" lon="13.8250922"><ele>327.40000000000003</ele><time>2026-05-02T09:32:57.674Z</time></trkpt><trkpt lat="42.2171576" lon="13.8250427"><ele>325.6</ele><time>2026-05-02T09:32:58.648Z</time></trkpt><trkpt lat="42.2170601" lon="13.8249224"><ele>323.8</ele><time>2026-05-02T09:33:00.655Z</time></trkpt><trkpt lat="42.2169957" lon="13.8248252"><ele>322.0</ele><time>2026-05-02T09:33:01.656Z</time></trkpt><trkpt lat="42.2169289" lon="13.8246844"><ele>322.0</ele><time>2026-05-02T09:33:02.648Z</time></trkpt><trkpt lat="42.2168644" lon="13.8245258"><ele>322.0</ele><time>2026-05-02T09:33:03.662Z</time></trkpt><trkpt lat="42.2167981" lon="13.8243698"><ele>322.0</ele><time>2026-05-02T09:33:04.659Z</time></trkpt><trkpt lat="42.2167243" lon="13.8241948"><ele>322.0</ele><time>2026-05-02T09:33:05.66Z</time></trkpt><trkpt lat="42.2166426" lon="13.8240036"><ele>321.0</ele><time>2026-05-02T09:33:06.665Z</time></trkpt><trkpt lat="42.2165663" lon="13.8238134"><ele>320.0</ele><time>2026-05-02T09:33:07.655Z</time></trkpt><trkpt lat="42.2164886" lon="13.8236332"><ele>319.0</ele><time>2026-05-02T09:33:08.646Z</time></trkpt><trkpt lat="42.2164161" lon="13.8234706"><ele>317.5</ele><time>2026-05-02T09:33:09.663Z</time></trkpt><trkpt lat="42.2163475" lon="13.8233057"><ele>316.0</ele><time>2026-05-02T09:33:10.668Z</time></trkpt><trkpt lat="42.2162794" lon="13.8231341"><ele>314.5</ele><time>2026-05-02T09:33:11.675Z</time></trkpt><trkpt lat="42.2162046" lon="13.8229662"><ele>313.0</ele><time>2026-05-02T09:33:12.676Z</time></trkpt><trkpt lat="42.2161378" lon="13.8228094"><ele>313.0</ele><time>2026-05-02T09:33:13.668Z</time></trkpt><trkpt lat="42.2160745" lon="13.8226694"><ele>313.0</ele><time>2026-05-02T09:33:14.653Z</time></trkpt><trkpt lat="42.2160124" lon="13.8225393"><ele>313.0</ele><time>2026-05-02T09:33:15.673Z</time></trkpt><trkpt lat="42.2159392" lon="13.8224197"><ele>313.0</ele><time>2026-05-02T09:33:16.653Z</time></trkpt><trkpt lat="42.2158598" lon="13.8223516"><ele>313.0</ele><time>2026-05-02T09:33:17.667Z</time></trkpt><trkpt lat="42.2157624" lon="13.8222876"><ele>314.0</ele><time>2026-05-02T09:33:18.673Z</time></trkpt><trkpt lat="42.2156534" lon="13.8222664"><ele>315.0</ele><time>2026-05-02T09:33:19.657Z</time></trkpt><trkpt lat="42.2155353" lon="13.8222669"><ele>316.0</ele><time>2026-05-02T09:33:20.659Z</time></trkpt><trkpt lat="42.2154169" lon="13.8223017"><ele>317.0</ele><time>2026-05-02T09:33:21.676Z</time></trkpt><trkpt lat="42.2153039" lon="13.8223679"><ele>317.0</ele><time>2026-05-02T09:33:22.654Z</time></trkpt><trkpt lat="42.2151937" lon="13.8224487"><ele>317.0</ele><time>2026-05-02T09:33:23.673Z</time></trkpt><trkpt lat="42.2150812" lon="13.8225238"><ele>317.0</ele><time>2026-05-02T09:33:24.673Z</time></trkpt><trkpt lat="42.2149801" lon="13.8225768"><ele>317.0</ele><time>2026-05-02T09:33:25.661Z</time></trkpt><trkpt lat="42.2148884" lon="13.8226326"><ele>317.0</ele><time>2026-05-02T09:33:26.677Z</time></trkpt><trkpt lat="42.2147978" lon="13.8226807"><ele>317.0</ele><time>2026-05-02T09:33:27.673Z</time></trkpt><trkpt lat="42.2147298" lon="13.8227184"><ele>317.0</ele><time>2026-05-02T09:33:28.657Z</time></trkpt><trkpt lat="42.2146655" lon="13.8227496"><ele>317.0</ele><time>2026-05-02T09:33:33.654Z</time></trkpt><trkpt lat="42.2145769" lon="13.8227674"><ele>317.0</ele><time>2026-05-02T09:33:40.663Z</time></trkpt><trkpt lat="42.2144961" lon="13.8227621"><ele>317.0</ele><time>2026-05-02T09:33:42.671Z</time></trkpt><trkpt lat="42.2144111" lon="13.822749"><ele>317.0</ele><time>2026-05-02T09:33:44.681Z</time></trkpt><trkpt lat="42.2143227" lon="13.82267"><ele>317.0</ele><time>2026-05-02T09:33:46.655Z</time></trkpt><trkpt lat="42.2142468" lon="13.8225791"><ele>317.0</ele><time>2026-05-02T09:33:48.67Z</time></trkpt><trkpt lat="42.2141918" lon="13.8224684"><ele>317.0</ele><time>2026-05-02T09:33:50.658Z</time></trkpt><trkpt lat="42.2141506" lon="13.8223819"><ele>317.0</ele><time>2026-05-02T09:33:52.675Z</time></trkpt><trkpt lat="42.2141058" lon="13.8223085"><ele>317.0</ele><time>2026-05-02T09:33:54.65Z</time></trkpt><trkpt lat="42.2140528" lon="13.8222247"><ele>317.0</ele><time>2026-05-02T09:33:56.661Z</time></trkpt><trkpt lat="42.2140279" lon="13.8221064"><ele>317.0</ele><time>2026-05-02T09:33:59.66Z</time></trkpt><trkpt lat="42.2140535" lon="13.8220106"><ele>317.0</ele><time>2026-05-02T09:34:03.659Z</time></trkpt><trkpt lat="42.2141438" lon="13.821944"><ele>317.0</ele><time>2026-05-02T09:34:05.665Z</time></trkpt><trkpt lat="42.2142032" lon="13.8218822"><ele>317.0</ele><time>2026-05-02T09:34:06.662Z</time></trkpt><trkpt lat="42.2142653" lon="13.8218048"><ele>317.33333333333337</ele><time>2026-05-02T09:34:07.673Z</time></trkpt><trkpt lat="42.2143324" lon="13.8217235"><ele>317.6666666666667</ele><time>2026-05-02T09:34:08.659Z</time></trkpt><trkpt lat="42.214401" lon="13.8216389"><ele>318.0</ele><time>2026-05-02T09:34:09.682Z</time></trkpt><trkpt lat="42.214458" lon="13.8215619"><ele>318.3333333333333</ele><time>2026-05-02T09:34:10.672Z</time></trkpt><trkpt lat="42.2145055" lon="13.82149"><ele>318.66666666666663</ele><time>2026-05-02T09:34:11.664Z</time></trkpt><trkpt lat="42.214548" lon="13.8214221"><ele>319.0</ele><time>2026-05-02T09:34:12.65Z</time></trkpt><trkpt lat="42.2145922" lon="13.821343"><ele>319.0</ele><time>2026-05-02T09:34:13.656Z</time></trkpt><trkpt lat="42.2146421" lon="13.8212666"><ele>319.0</ele><time>2026-05-02T09:34:14.658Z</time></trkpt><trkpt lat="42.214695" lon="13.8211877"><ele>319.0</ele><time>2026-05-02T09:34:15.659Z</time></trkpt><trkpt lat="42.2147525" lon="13.821095"><ele>319.0</ele><time>2026-05-02T09:34:16.662Z</time></trkpt><trkpt lat="42.2148134" lon="13.8210056"><ele>319.0</ele><time>2026-05-02T09:34:17.661Z</time></trkpt><trkpt lat="42.2148648" lon="13.8209228"><ele>319.0</ele><time>2026-05-02T09:34:18.66Z</time></trkpt><trkpt lat="42.2149136" lon="13.8208517"><ele>319.0</ele><time>2026-05-02T09:34:19.661Z</time></trkpt><trkpt lat="42.214964" lon="13.8207332"><ele>319.0</ele><time>2026-05-02T09:34:21.657Z</time></trkpt><trkpt lat="42.2149668" lon="13.8206461"><ele>319.0</ele><time>2026-05-02T09:34:23.653Z</time></trkpt><trkpt lat="42.2149308" lon="13.820543"><ele>319.0</ele><time>2026-05-02T09:34:26.671Z</time></trkpt><trkpt lat="42.2149002" lon="13.8204615"><ele>319.0</ele><time>2026-05-02T09:37:47.675Z</time></trkpt><trkpt lat="42.2149328" lon="13.8203886"><ele>319.0</ele><time>2026-05-02T09:47:14.701Z</time></trkpt><trkpt lat="42.2149908" lon="13.8203335"><ele>319.0</ele><time>2026-05-02T09:49:25.702Z</time></trkpt><trkpt lat="42.2150799" lon="13.8202861"><ele>319.0</ele><time>2026-05-02T09:53:35.68Z</time></trkpt><trkpt lat="42.2151602" lon="13.8203108"><ele>319.0</ele><time>2026-05-02T09:53:37.681Z</time></trkpt><trkpt lat="42.2152419" lon="13.8203244"><ele>319.0</ele><time>2026-05-02T09:53:40.646Z</time></trkpt><trkpt lat="42.2153414" lon="13.8202271"><ele>319.0</ele><time>2026-05-02T09:53:47.679Z</time></trkpt><trkpt lat="42.2154124" lon="13.8201386"><ele>319.0</ele><time>2026-05-02T09:53:48.666Z</time></trkpt><trkpt lat="42.2155073" lon="13.8199978"><ele>319.0</ele><time>2026-05-02T09:53:49.677Z</time></trkpt><trkpt lat="42.2156067" lon="13.8198466"><ele>319.0</ele><time>2026-05-02T09:53:50.66Z</time></trkpt><trkpt lat="42.2157172" lon="13.8196665"><ele>319.0</ele><time>2026-05-02T09:53:51.673Z</time></trkpt><trkpt lat="42.2158453" lon="13.8194785"><ele>319.0</ele><time>2026-05-02T09:53:52.667Z</time></trkpt><trkpt lat="42.2159582" lon="13.8193079"><ele>319.0</ele><time>2026-05-02T09:53:53.649Z</time></trkpt><trkpt lat="42.2160569" lon="13.8191647"><ele>319.2</ele><time>2026-05-02T09:53:54.682Z</time></trkpt><trkpt lat="42.2161373" lon="13.8190471"><ele>319.4</ele><time>2026-05-02T09:53:55.718Z</time></trkpt><trkpt lat="42.2161954" lon="13.8189065"><ele>319.6</ele><time>2026-05-02T09:53:56.667Z</time></trkpt><trkpt lat="42.2162185" lon="13.8187895"><ele>319.8</ele><time>2026-05-02T09:53:57.676Z</time></trkpt><trkpt lat="42.2162087" lon="13.8186383"><ele>320.0</ele><time>2026-05-02T09:53:58.669Z</time></trkpt><trkpt lat="42.2161954" lon="13.8184989"><ele>319.6</ele><time>2026-05-02T09:53:59.652Z</time></trkpt><trkpt lat="42.2161989" lon="13.8183812"><ele>319.2</ele><time>2026-05-02T09:54:00.671Z</time></trkpt><trkpt lat="42.2162291" lon="13.8183004"><ele>318.8</ele><time>2026-05-02T09:54:01.657Z</time></trkpt><trkpt lat="42.2163323" lon="13.8181674"><ele>318.4</ele><time>2026-05-02T09:54:03.671Z</time></trkpt><trkpt lat="42.216427" lon="13.8180893"><ele>318.0</ele><time>2026-05-02T09:54:04.671Z</time></trkpt><trkpt lat="42.2165362" lon="13.8179876"><ele>318.0</ele><time>2026-05-02T09:54:05.69Z</time></trkpt><trkpt lat="42.2166536" lon="13.8178796"><ele>318.0</ele><time>2026-05-02T09:54:06.673Z</time></trkpt><trkpt lat="42.2167852" lon="13.8177588"><ele>318.0</ele><time>2026-05-02T09:54:07.667Z</time></trkpt><trkpt lat="42.2169235" lon="13.8176623"><ele>318.3333333333333</ele><time>2026-05-02T09:54:08.674Z</time></trkpt><trkpt lat="42.2170702" lon="13.8175798"><ele>318.66666666666663</ele><time>2026-05-02T09:54:09.672Z</time></trkpt><trkpt lat="42.2172389" lon="13.817497"><ele>319.0</ele><time>2026-05-02T09:54:10.667Z</time></trkpt><trkpt lat="42.2174111" lon="13.8174339"><ele>319.0</ele><time>2026-05-02T09:54:11.672Z</time></trkpt><trkpt lat="42.2175856" lon="13.8173825"><ele>319.0</ele><time>2026-05-02T09:54:12.68Z</time></trkpt><trkpt lat="42.2177483" lon="13.8173415"><ele>319.0</ele><time>2026-05-02T09:54:13.67Z</time></trkpt><trkpt lat="42.2179153" lon="13.8173054"><ele>319.0</ele><time>2026-05-02T09:54:14.671Z</time></trkpt><trkpt lat="42.2180833" lon="13.8172762"><ele>319.0</ele><time>2026-05-02T09:54:15.66Z</time></trkpt><trkpt lat="42.218256" lon="13.8172434"><ele>319.0</ele><time>2026-05-02T09:54:16.657Z</time></trkpt><trkpt lat="42.2184282" lon="13.8172066"><ele>319.0</ele><time>2026-05-02T09:54:17.671Z</time></trkpt><trkpt lat="42.2186127" lon="13.8171775"><ele>319.0</ele><time>2026-05-02T09:54:18.658Z</time></trkpt><trkpt lat="42.2188028" lon="13.8171461"><ele>319.0</ele><time>2026-05-02T09:54:19.646Z</time></trkpt><trkpt lat="42.2190029" lon="13.8171125"><ele>319.0</ele><time>2026-05-02T09:54:20.672Z</time></trkpt><trkpt lat="42.2192076" lon="13.8170816"><ele>319.0</ele><time>2026-05-02T09:54:21.657Z</time></trkpt><trkpt lat="42.2194182" lon="13.8170635"><ele>319.0</ele><time>2026-05-02T09:54:22.672Z</time></trkpt><trkpt lat="42.2196248" lon="13.817049"><ele>318.66666666666663</ele><time>2026-05-02T09:54:23.68Z</time></trkpt><trkpt lat="42.2198365" lon="13.8170519"><ele>318.3333333333333</ele><time>2026-05-02T09:54:24.68Z</time></trkpt><trkpt lat="42.2200632" lon="13.81708"><ele>318.0</ele><time>2026-05-02T09:54:25.666Z</time></trkpt><trkpt lat="42.2203063" lon="13.8171248"><ele>318.0</ele><time>2026-05-02T09:54:26.667Z</time></trkpt><trkpt lat="42.2205419" lon="13.8171858"><ele>318.0</ele><time>2026-05-02T09:54:27.676Z</time></trkpt><trkpt lat="42.2207645" lon="13.8172571"><ele>317.6666666666667</ele><time>2026-05-02T09:54:28.669Z</time></trkpt><trkpt lat="42.2209785" lon="13.8173259"><ele>317.33333333333337</ele><time>2026-05-02T09:54:29.675Z</time></trkpt><trkpt lat="42.2211662" lon="13.817379"><ele>317.0</ele><time>2026-05-02T09:54:30.687Z</time></trkpt><trkpt lat="42.2213426" lon="13.8174196"><ele>317.0</ele><time>2026-05-02T09:54:31.668Z</time></trkpt><trkpt lat="42.2215122" lon="13.8174489"><ele>317.0</ele><time>2026-05-02T09:54:32.667Z</time></trkpt><trkpt lat="42.221678" lon="13.8174651"><ele>317.0</ele><time>2026-05-02T09:54:33.656Z</time></trkpt><trkpt lat="42.2218453" lon="13.8174665"><ele>317.0</ele><time>2026-05-02T09:54:34.674Z</time></trkpt><trkpt lat="42.2220136" lon="13.8174541"><ele>317.0</ele><time>2026-05-02T09:54:35.657Z</time></trkpt><trkpt lat="42.2221823" lon="13.8174316"><ele>317.0</ele><time>2026-05-02T09:54:36.679Z</time></trkpt><trkpt lat="42.222347" lon="13.8173936"><ele>318.0</ele><time>2026-05-02T09:54:37.68Z</time></trkpt><trkpt lat="42.2225094" lon="13.8173372"><ele>319.0</ele><time>2026-05-02T09:54:38.669Z</time></trkpt><trkpt lat="42.2226735" lon="13.8172717"><ele>320.0</ele><time>2026-05-02T09:54:39.666Z</time></trkpt><trkpt lat="42.2228337" lon="13.8171929"><ele>320.0</ele><time>2026-05-02T09:54:40.66Z</time></trkpt><trkpt lat="42.2229956" lon="13.8171037"><ele>320.0</ele><time>2026-05-02T09:54:41.663Z</time></trkpt><trkpt lat="42.223158" lon="13.8170031"><ele>320.0</ele><time>2026-05-02T09:54:42.675Z</time></trkpt><trkpt lat="42.2233117" lon="13.816891"><ele>320.33333333333337</ele><time>2026-05-02T09:54:43.665Z</time></trkpt><trkpt lat="42.2234579" lon="13.8167726"><ele>320.6666666666667</ele><time>2026-05-02T09:54:44.672Z</time></trkpt><trkpt lat="42.22361" lon="13.8166442"><ele>321.0</ele><time>2026-05-02T09:54:45.674Z</time></trkpt><trkpt lat="42.2237571" lon="13.8165119"><ele>321.0</ele><time>2026-05-02T09:54:46.684Z</time></trkpt><trkpt lat="42.2239058" lon="13.8163818"><ele>321.0</ele><time>2026-05-02T09:54:47.675Z</time></trkpt><trkpt lat="42.2240555" lon="13.8162604"><ele>321.0</ele><time>2026-05-02T09:54:48.672Z</time></trkpt><trkpt lat="42.2242071" lon="13.8161356"><ele>320.6666666666667</ele><time>2026-05-02T09:54:49.666Z</time></trkpt><trkpt lat="42.2243492" lon="13.816015"><ele>320.33333333333337</ele><time>2026-05-02T09:54:50.674Z</time></trkpt><trkpt lat="42.2244939" lon="13.8158958"><ele>320.0</ele><time>2026-05-02T09:54:51.671Z</time></trkpt><trkpt lat="42.224638" lon="13.8157887"><ele>320.0</ele><time>2026-05-02T09:54:52.677Z</time></trkpt><trkpt lat="42.2247828" lon="13.815697"><ele>320.0</ele><time>2026-05-02T09:54:53.663Z</time></trkpt><trkpt lat="42.2249345" lon="13.8156044"><ele>320.0</ele><time>2026-05-02T09:54:54.65Z</time></trkpt><trkpt lat="42.2250883" lon="13.8155261"><ele>319.0</ele><time>2026-05-02T09:54:55.676Z</time></trkpt><trkpt lat="42.2252498" lon="13.8154697"><ele>318.0</ele><time>2026-05-02T09:54:56.673Z</time></trkpt><trkpt lat="42.2254185" lon="13.815416"><ele>317.0</ele><time>2026-05-02T09:54:57.666Z</time></trkpt><trkpt lat="42.2255939" lon="13.8153721"><ele>317.0</ele><time>2026-05-02T09:54:58.673Z</time></trkpt><trkpt lat="42.2257768" lon="13.8153217"><ele>317.0</ele><time>2026-05-02T09:54:59.672Z</time></trkpt><trkpt lat="42.2259673" lon="13.8152727"><ele>317.0</ele><time>2026-05-02T09:55:00.674Z</time></trkpt><trkpt lat="42.2261573" lon="13.8152182"><ele>317.0</ele><time>2026-05-02T09:55:01.68Z</time></trkpt><trkpt lat="42.2263362" lon="13.8151718"><ele>317.0</ele><time>2026-05-02T09:55:02.67Z</time></trkpt><trkpt lat="42.2265021" lon="13.8151269"><ele>317.0</ele><time>2026-05-02T09:55:03.666Z</time></trkpt><trkpt lat="42.2266684" lon="13.8150842"><ele>319.0</ele><time>2026-05-02T09:55:04.682Z</time></trkpt><trkpt lat="42.226841" lon="13.8150434"><ele>321.0</ele><time>2026-05-02T09:55:05.68Z</time></trkpt><trkpt lat="42.2270173" lon="13.8150008"><ele>323.0</ele><time>2026-05-02T09:55:06.67Z</time></trkpt><trkpt lat="42.2271982" lon="13.8149576"><ele>321.6666666666667</ele><time>2026-05-02T09:55:07.671Z</time></trkpt><trkpt lat="42.2273811" lon="13.8149212"><ele>320.3333333333333</ele><time>2026-05-02T09:55:08.666Z</time></trkpt><trkpt lat="42.227557" lon="13.814891"><ele>319.0</ele><time>2026-05-02T09:55:09.674Z</time></trkpt><trkpt lat="42.227738" lon="13.8148647"><ele>319.0</ele><time>2026-05-02T09:55:10.695Z</time></trkpt><trkpt lat="42.2279092" lon="13.8148403"><ele>319.0</ele><time>2026-05-02T09:55:11.685Z</time></trkpt><trkpt lat="42.2280619" lon="13.8148302"><ele>319.0</ele><time>2026-05-02T09:55:12.678Z</time></trkpt><trkpt lat="42.2281966" lon="13.814827"><ele>319.0</ele><time>2026-05-02T09:55:13.669Z</time></trkpt><trkpt lat="42.2283215" lon="13.8148089"><ele>319.0</ele><time>2026-05-02T09:55:14.67Z</time></trkpt><trkpt lat="42.2284479" lon="13.8147942"><ele>319.0</ele><time>2026-05-02T09:55:15.682Z</time></trkpt><trkpt lat="42.2285627" lon="13.8147876"><ele>319.0</ele><time>2026-05-02T09:55:16.676Z</time></trkpt><trkpt lat="42.2286803" lon="13.8148015"><ele>319.0</ele><time>2026-05-02T09:55:17.671Z</time></trkpt><trkpt lat="42.2287981" lon="13.8148326"><ele>319.0</ele><time>2026-05-02T09:55:18.675Z</time></trkpt><trkpt lat="42.2289205" lon="13.8148821"><ele>319.0</ele><time>2026-05-02T09:55:19.664Z</time></trkpt><trkpt lat="42.2290386" lon="13.8149499"><ele>319.0</ele><time>2026-05-02T09:55:20.667Z</time></trkpt><trkpt lat="42.2291544" lon="13.8150189"><ele>318.8</ele><time>2026-05-02T09:55:21.655Z</time></trkpt><trkpt lat="42.2292637" lon="13.8150802"><ele>318.59999999999997</ele><time>2026-05-02T09:55:22.67Z</time></trkpt><trkpt lat="42.2293551" lon="13.8151227"><ele>318.4</ele><time>2026-05-02T09:55:23.663Z</time></trkpt><trkpt lat="42.2294525" lon="13.8151749"><ele>318.2</ele><time>2026-05-02T09:55:25.65Z</time></trkpt><trkpt lat="42.2295158" lon="13.8152448"><ele>318.0</ele><time>2026-05-02T09:55:30.689Z</time></trkpt><trkpt lat="42.229573" lon="13.815325"><ele>318.0</ele><time>2026-05-02T09:55:32.652Z</time></trkpt><trkpt lat="42.2296202" lon="13.8154022"><ele>318.0</ele><time>2026-05-02T09:55:33.664Z</time></trkpt><trkpt lat="42.2296661" lon="13.8154965"><ele>318.0</ele><time>2026-05-02T09:55:34.678Z</time></trkpt><trkpt lat="42.2297204" lon="13.8155885"><ele>318.0</ele><time>2026-05-02T09:55:35.671Z</time></trkpt><trkpt lat="42.2297662" lon="13.8156812"><ele>318.0</ele><time>2026-05-02T09:55:36.665Z</time></trkpt><trkpt lat="42.2298192" lon="13.8157659"><ele>318.0</ele><time>2026-05-02T09:55:37.663Z</time></trkpt><trkpt lat="42.2298688" lon="13.8158538"><ele>318.0</ele><time>2026-05-02T09:55:38.669Z</time></trkpt><trkpt lat="42.2299136" lon="13.8159344"><ele>318.0</ele><time>2026-05-02T09:55:39.666Z</time></trkpt><trkpt lat="42.2299488" lon="13.8160744"><ele>318.0</ele><time>2026-05-02T09:55:41.662Z</time></trkpt><trkpt lat="42.2299385" lon="13.8161631"><ele>318.0</ele><time>2026-05-02T09:55:42.667Z</time></trkpt><trkpt lat="42.2299213" lon="13.816277"><ele>318.0</ele><time>2026-05-02T09:55:43.647Z</time></trkpt><trkpt lat="42.2298999" lon="13.8163944"><ele>318.0</ele><time>2026-05-02T09:55:44.674Z</time></trkpt><trkpt lat="42.2298872" lon="13.8165027"><ele>317.6666666666667</ele><time>2026-05-02T09:55:45.659Z</time></trkpt><trkpt lat="42.2298901" lon="13.8165881"><ele>317.3333333333333</ele><time>2026-05-02T09:55:46.658Z</time></trkpt><trkpt lat="42.2299086" lon="13.8166866"><ele>317.0</ele><time>2026-05-02T09:55:48.663Z</time></trkpt><trkpt lat="42.2299217" lon="13.8168128"><ele>316.66666666666663</ele><time>2026-05-02T09:55:50.677Z</time></trkpt><trkpt lat="42.2299388" lon="13.81697"><ele>316.3333333333333</ele><time>2026-05-02T09:55:52.67Z</time></trkpt><trkpt lat="42.2299479" lon="13.8170742"><ele>316.0</ele><time>2026-05-02T09:55:53.665Z</time></trkpt><trkpt lat="42.2299654" lon="13.8172194"><ele>315.66666666666663</ele><time>2026-05-02T09:55:54.651Z</time></trkpt><trkpt lat="42.2299845" lon="13.817397"><ele>315.3333333333333</ele><time>2026-05-02T09:55:55.658Z</time></trkpt><trkpt lat="42.230014" lon="13.817638"><ele>315.0</ele><time>2026-05-02T09:55:56.657Z</time></trkpt><trkpt lat="42.2300364" lon="13.8178939"><ele>315.0</ele><time>2026-05-02T09:55:57.654Z</time></trkpt><trkpt lat="42.2300598" lon="13.8181653"><ele>315.0</ele><time>2026-05-02T09:55:58.646Z</time></trkpt><trkpt lat="42.2300768" lon="13.8184274"><ele>315.0</ele><time>2026-05-02T09:55:59.662Z</time></trkpt><trkpt lat="42.2301003" lon="13.8186989"><ele>315.0</ele><time>2026-05-02T09:56:00.657Z</time></trkpt><trkpt lat="42.2301087" lon="13.8189408"><ele>315.0</ele><time>2026-05-02T09:56:01.68Z</time></trkpt><trkpt lat="42.2301102" lon="13.8191543"><ele>315.0</ele><time>2026-05-02T09:56:02.672Z</time></trkpt><trkpt lat="42.2301089" lon="13.8193276"><ele>315.5</ele><time>2026-05-02T09:56:03.658Z</time></trkpt><trkpt lat="42.2301198" lon="13.8194617"><ele>316.0</ele><time>2026-05-02T09:56:04.662Z</time></trkpt><trkpt lat="42.2301304" lon="13.8195544"><ele>316.5</ele><time>2026-05-02T09:56:05.669Z</time></trkpt><trkpt lat="42.2301582" lon="13.8196443"><ele>317.0</ele><time>2026-05-02T09:56:08.67Z</time></trkpt><trkpt lat="42.2302522" lon="13.8196494"><ele>317.5</ele><time>2026-05-02T09:56:13.657Z</time></trkpt><trkpt lat="42.2303242" lon="13.8196428"><ele>318.0</ele><time>2026-05-02T09:56:15.658Z</time></trkpt><trkpt lat="42.2304306" lon="13.8196276"><ele>318.0</ele><time>2026-05-02T09:56:17.656Z</time></trkpt><trkpt lat="42.2305525" lon="13.8195971"><ele>318.0</ele><time>2026-05-02T09:56:19.675Z</time></trkpt><trkpt lat="42.2306186" lon="13.8195867"><ele>318.0</ele><time>2026-05-02T09:56:20.653Z</time></trkpt><trkpt lat="42.2306902" lon="13.8195813"><ele>318.0</ele><time>2026-05-02T09:56:21.667Z</time></trkpt><trkpt lat="42.2307648" lon="13.8195808"><ele>318.0</ele><time>2026-05-02T09:56:22.655Z</time></trkpt><trkpt lat="42.2308469" lon="13.8195758"><ele>318.0</ele><time>2026-05-02T09:56:23.653Z</time></trkpt><trkpt lat="42.2309269" lon="13.8195586"><ele>319.4</ele><time>2026-05-02T09:56:24.682Z</time></trkpt><trkpt lat="42.2309961" lon="13.819541"><ele>320.8</ele><time>2026-05-02T09:56:25.656Z</time></trkpt><trkpt lat="42.231077" lon="13.8194988"><ele>322.2</ele><time>2026-05-02T09:56:26.661Z</time></trkpt><trkpt lat="42.2311587" lon="13.8194499"><ele>323.6</ele><time>2026-05-02T09:56:27.664Z</time></trkpt><trkpt lat="42.2312553" lon="13.8193896"><ele>325.0</ele><time>2026-05-02T09:56:28.645Z</time></trkpt><trkpt lat="42.2313576" lon="13.8193282"><ele>324.0</ele><time>2026-05-02T09:56:29.673Z</time></trkpt><trkpt lat="42.2314619" lon="13.8192776"><ele>323.0</ele><time>2026-05-02T09:56:30.667Z</time></trkpt><trkpt lat="42.2315594" lon="13.8192257"><ele>322.0</ele><time>2026-05-02T09:56:31.664Z</time></trkpt><trkpt lat="42.2316512" lon="13.8191802"><ele>321.0</ele><time>2026-05-02T09:56:32.658Z</time></trkpt><trkpt lat="42.2317527" lon="13.8191384"><ele>320.0</ele><time>2026-05-02T09:56:33.643Z</time></trkpt><trkpt lat="42.2318568" lon="13.8190996"><ele>320.0</ele><time>2026-05-02T09:56:34.66Z</time></trkpt><trkpt lat="42.2319784" lon="13.8190726"><ele>320.0</ele><time>2026-05-02T09:56:35.654Z</time></trkpt><trkpt lat="42.2321167" lon="13.8190553"><ele>320.0</ele><time>2026-05-02T09:56:36.674Z</time></trkpt><trkpt lat="42.2322736" lon="13.8190503"><ele>320.0</ele><time>2026-05-02T09:56:37.66Z</time></trkpt><trkpt lat="42.2324511" lon="13.8190478"><ele>320.33333333333337</ele><time>2026-05-02T09:56:38.651Z</time></trkpt><trkpt lat="42.2326264" lon="13.8190402"><ele>320.6666666666667</ele><time>2026-05-02T09:56:39.65Z</time></trkpt><trkpt lat="42.2327932" lon="13.819027"><ele>321.0</ele><time>2026-05-02T09:56:40.663Z</time></trkpt><trkpt lat="42.2329567" lon="13.8189814"><ele>321.0</ele><time>2026-05-02T09:56:41.657Z</time></trkpt><trkpt lat="42.2331066" lon="13.8189166"><ele>321.0</ele><time>2026-05-02T09:56:42.655Z</time></trkpt><trkpt lat="42.2332571" lon="13.8188486"><ele>321.0</ele><time>2026-05-02T09:56:43.671Z</time></trkpt><trkpt lat="42.2334061" lon="13.8187809"><ele>324.3333333333333</ele><time>2026-05-02T09:56:44.658Z</time></trkpt><trkpt lat="42.2335522" lon="13.8187003"><ele>327.66666666666663</ele><time>2026-05-02T09:56:45.67Z</time></trkpt><trkpt lat="42.233695" lon="13.8186115"><ele>331.0</ele><time>2026-05-02T09:56:46.667Z</time></trkpt><trkpt lat="42.2338395" lon="13.8185237"><ele>329.3333333333333</ele><time>2026-05-02T09:56:47.648Z</time></trkpt><trkpt lat="42.2339883" lon="13.818439"><ele>327.6666666666667</ele><time>2026-05-02T09:56:48.668Z</time></trkpt><trkpt lat="42.2341392" lon="13.8183439"><ele>326.0</ele><time>2026-05-02T09:56:49.648Z</time></trkpt><trkpt lat="42.2342794" lon="13.8182458"><ele>326.0</ele><time>2026-05-02T09:56:50.662Z</time></trkpt><trkpt lat="42.2344239" lon="13.818122"><ele>326.0</ele><time>2026-05-02T09:56:51.664Z</time></trkpt><trkpt lat="42.2345562" lon="13.8179906"><ele>326.0</ele><time>2026-05-02T09:56:52.653Z</time></trkpt><trkpt lat="42.2346706" lon="13.8178426"><ele>326.0</ele><time>2026-05-02T09:56:53.652Z</time></trkpt><trkpt lat="42.234779" lon="13.8176838"><ele>326.0</ele><time>2026-05-02T09:56:54.664Z</time></trkpt><trkpt lat="42.2348803" lon="13.8175308"><ele>326.0</ele><time>2026-05-02T09:56:55.664Z</time></trkpt><trkpt lat="42.2349679" lon="13.8173854"><ele>324.75</ele><time>2026-05-02T09:56:56.66Z</time></trkpt><trkpt lat="42.2350374" lon="13.8172396"><ele>323.5</ele><time>2026-05-02T09:56:57.664Z</time></trkpt><trkpt lat="42.2351002" lon="13.81709"><ele>322.25</ele><time>2026-05-02T09:56:58.674Z</time></trkpt><trkpt lat="42.2351616" lon="13.8169589"><ele>321.0</ele><time>2026-05-02T09:56:59.654Z</time></trkpt><trkpt lat="42.2352167" lon="13.8168347"><ele>320.5</ele><time>2026-05-02T09:57:00.664Z</time></trkpt><trkpt lat="42.2352678" lon="13.8167211"><ele>320.0</ele><time>2026-05-02T09:57:01.66Z</time></trkpt><trkpt lat="42.2353167" lon="13.8166267"><ele>319.5</ele><time>2026-05-02T09:57:02.662Z</time></trkpt><trkpt lat="42.23537" lon="13.8165282"><ele>319.0</ele><time>2026-05-02T09:57:03.655Z</time></trkpt><trkpt lat="42.2354231" lon="13.8164435"><ele>318.5</ele><time>2026-05-02T09:57:04.658Z</time></trkpt><trkpt lat="42.2354914" lon="13.8163717"><ele>318.0</ele><time>2026-05-02T09:57:05.652Z</time></trkpt><trkpt lat="42.2355613" lon="13.8163082"><ele>318.8</ele><time>2026-05-02T09:57:06.666Z</time></trkpt><trkpt lat="42.235652" lon="13.8162616"><ele>319.6</ele><time>2026-05-02T09:57:07.666Z</time></trkpt><trkpt lat="42.2357467" lon="13.8162318"><ele>320.40000000000003</ele><time>2026-05-02T09:57:08.66Z</time></trkpt><trkpt lat="42.2358496" lon="13.8162171"><ele>321.20000000000005</ele><time>2026-05-02T09:57:09.661Z</time></trkpt><trkpt lat="42.2359514" lon="13.8162292"><ele>322.0</ele><time>2026-05-02T09:57:10.662Z</time></trkpt><trkpt lat="42.2360521" lon="13.8162691"><ele>322.0</ele><time>2026-05-02T09:57:11.662Z</time></trkpt><trkpt lat="42.2361448" lon="13.8163415"><ele>322.0</ele><time>2026-05-02T09:57:12.647Z</time></trkpt><trkpt lat="42.2362467" lon="13.8164547"><ele>322.0</ele><time>2026-05-02T09:57:13.672Z</time></trkpt><trkpt lat="42.2363605" lon="13.8165521"><ele>322.0</ele><time>2026-05-02T09:57:14.66Z</time></trkpt><trkpt lat="42.2364978" lon="13.8166355"><ele>321.5</ele><time>2026-05-02T09:57:15.653Z</time></trkpt><trkpt lat="42.2366404" lon="13.81669"><ele>321.0</ele><time>2026-05-02T09:57:16.659Z</time></trkpt><trkpt lat="42.2367907" lon="13.8167373"><ele>320.5</ele><time>2026-05-02T09:57:17.664Z</time></trkpt><trkpt lat="42.2369335" lon="13.8167569"><ele>320.0</ele><time>2026-05-02T09:57:18.655Z</time></trkpt><trkpt lat="42.237063" lon="13.8167548"><ele>320.0</ele><time>2026-05-02T09:57:19.65Z</time></trkpt><trkpt lat="42.2371795" lon="13.816729"><ele>320.0</ele><time>2026-05-02T09:57:20.663Z</time></trkpt><trkpt lat="42.2373159" lon="13.8166844"><ele>320.0</ele><time>2026-05-02T09:57:21.657Z</time></trkpt><trkpt lat="42.2374646" lon="13.8166085"><ele>320.0</ele><time>2026-05-02T09:57:22.689Z</time></trkpt><trkpt lat="42.2376304" lon="13.8165181"><ele>319.6666666666667</ele><time>2026-05-02T09:57:23.66Z</time></trkpt><trkpt lat="42.2378105" lon="13.8164253"><ele>319.3333333333333</ele><time>2026-05-02T09:57:24.657Z</time></trkpt><trkpt lat="42.2379851" lon="13.8163512"><ele>319.0</ele><time>2026-05-02T09:57:25.662Z</time></trkpt><trkpt lat="42.2381466" lon="13.8162817"><ele>319.0</ele><time>2026-05-02T09:57:26.66Z</time></trkpt><trkpt lat="42.2382827" lon="13.8162186"><ele>319.0</ele><time>2026-05-02T09:57:27.652Z</time></trkpt><trkpt lat="42.2384084" lon="13.8161439"><ele>319.0</ele><time>2026-05-02T09:57:28.653Z</time></trkpt><trkpt lat="42.238534" lon="13.8161064"><ele>319.0</ele><time>2026-05-02T09:57:29.656Z</time></trkpt><trkpt lat="42.2386567" lon="13.8160937"><ele>319.0</ele><time>2026-05-02T09:57:30.653Z</time></trkpt><trkpt lat="42.2387796" lon="13.8161026"><ele>319.0</ele><time>2026-05-02T09:57:31.671Z</time></trkpt><trkpt lat="42.2388988" lon="13.8161244"><ele>319.0</ele><time>2026-05-02T09:57:32.653Z</time></trkpt><trkpt lat="42.2390024" lon="13.8161436"><ele>319.0</ele><time>2026-05-02T09:57:33.651Z</time></trkpt><trkpt lat="42.239094" lon="13.8161589"><ele>319.0</ele><time>2026-05-02T09:57:34.652Z</time></trkpt><trkpt lat="42.2391777" lon="13.8161678"><ele>319.66666666666663</ele><time>2026-05-02T09:57:35.657Z</time></trkpt><trkpt lat="42.2392476" lon="13.8161852"><ele>320.3333333333333</ele><time>2026-05-02T09:57:36.655Z</time></trkpt><trkpt lat="42.2393367" lon="13.8162226"><ele>321.0</ele><time>2026-05-02T09:57:38.654Z</time></trkpt><trkpt lat="42.2393932" lon="13.8162803"><ele>321.6666666666667</ele><time>2026-05-02T09:57:40.653Z</time></trkpt><trkpt lat="42.2394341" lon="13.8164006"><ele>322.33333333333337</ele><time>2026-05-02T09:57:42.661Z</time></trkpt><trkpt lat="42.2395075" lon="13.8164832"><ele>323.0</ele><time>2026-05-02T09:57:44.668Z</time></trkpt><trkpt lat="42.2396136" lon="13.8164904"><ele>323.0</ele><time>2026-05-02T09:57:46.671Z</time></trkpt><trkpt lat="42.2397466" lon="13.8164709"><ele>323.0</ele><time>2026-05-02T09:57:48.663Z</time></trkpt><trkpt lat="42.2398187" lon="13.8164414"><ele>323.0</ele><time>2026-05-02T09:57:49.655Z</time></trkpt><trkpt lat="42.2398979" lon="13.8163982"><ele>323.0</ele><time>2026-05-02T09:57:50.654Z</time></trkpt><trkpt lat="42.2400016" lon="13.8163552"><ele>323.0</ele><time>2026-05-02T09:57:51.655Z</time></trkpt><trkpt lat="42.2401039" lon="13.8163236"><ele>324.0</ele><time>2026-05-02T09:57:52.659Z</time></trkpt><trkpt lat="42.2402189" lon="13.8163225"><ele>325.0</ele><time>2026-05-02T09:57:53.65Z</time></trkpt><trkpt lat="42.2403531" lon="13.8163218"><ele>326.0</ele><time>2026-05-02T09:57:54.653Z</time></trkpt><trkpt lat="42.240488" lon="13.8163198"><ele>327.0</ele><time>2026-05-02T09:57:55.66Z</time></trkpt><trkpt lat="42.2406318" lon="13.8163133"><ele>327.5</ele><time>2026-05-02T09:57:56.653Z</time></trkpt><trkpt lat="42.240782" lon="13.816315"><ele>328.0</ele><time>2026-05-02T09:57:57.668Z</time></trkpt><trkpt lat="42.2409255" lon="13.8163088"><ele>328.5</ele><time>2026-05-02T09:57:58.652Z</time></trkpt><trkpt lat="42.241052" lon="13.8162923"><ele>329.0</ele><time>2026-05-02T09:57:59.656Z</time></trkpt><trkpt lat="42.2411789" lon="13.8162697"><ele>329.0</ele><time>2026-05-02T09:58:00.646Z</time></trkpt><trkpt lat="42.2412894" lon="13.8162288"><ele>329.0</ele><time>2026-05-02T09:58:01.653Z</time></trkpt><trkpt lat="42.2413793" lon="13.8161715"><ele>329.0</ele><time>2026-05-02T09:58:02.669Z</time></trkpt><trkpt lat="42.2414672" lon="13.8160921"><ele>329.0</ele><time>2026-05-02T09:58:03.663Z</time></trkpt><trkpt lat="42.2415514" lon="13.8160059"><ele>329.0</ele><time>2026-05-02T09:58:04.651Z</time></trkpt><trkpt lat="42.2416069" lon="13.815918"><ele>327.4</ele><time>2026-05-02T09:58:05.66Z</time></trkpt><trkpt lat="42.2416504" lon="13.8157938"><ele>325.79999999999995</ele><time>2026-05-02T09:58:07.659Z</time></trkpt><trkpt lat="42.2416607" lon="13.8156878"><ele>324.20000000000005</ele><time>2026-05-02T09:58:09.656Z</time></trkpt><trkpt lat="42.241668" lon="13.8155302"><ele>322.6</ele><time>2026-05-02T09:58:11.663Z</time></trkpt><trkpt lat="42.2416871" lon="13.815409"><ele>321.0</ele><time>2026-05-02T09:58:13.66Z</time></trkpt><trkpt lat="42.2417146" lon="13.8153004"><ele>321.0</ele><time>2026-05-02T09:58:15.662Z</time></trkpt><trkpt lat="42.2417394" lon="13.8151794"><ele>321.0</ele><time>2026-05-02T09:58:17.646Z</time></trkpt><trkpt lat="42.241778" lon="13.8150359"><ele>321.0</ele><time>2026-05-02T09:58:19.667Z</time></trkpt><trkpt lat="42.2418167" lon="13.8148903"><ele>321.0</ele><time>2026-05-02T09:58:21.676Z</time></trkpt><trkpt lat="42.2418317" lon="13.8147869"><ele>321.0</ele><time>2026-05-02T09:58:23.666Z</time></trkpt><trkpt lat="42.2418554" lon="13.8147073"><ele>320.6</ele><time>2026-05-02T09:58:24.649Z</time></trkpt><trkpt lat="42.2419244" lon="13.8145729"><ele>320.20000000000005</ele><time>2026-05-02T09:58:26.67Z</time></trkpt><trkpt lat="42.2420361" lon="13.8145312"><ele>319.79999999999995</ele><time>2026-05-02T09:58:28.646Z</time></trkpt><trkpt lat="42.2421607" lon="13.8145258"><ele>319.4</ele><time>2026-05-02T09:58:30.649Z</time></trkpt><trkpt lat="42.242239" lon="13.8145057"><ele>319.0</ele><time>2026-05-02T09:58:31.661Z</time></trkpt><trkpt lat="42.2423272" lon="13.8144346"><ele>319.25</ele><time>2026-05-02T09:58:32.663Z</time></trkpt><trkpt lat="42.2424282" lon="13.8143571"><ele>319.5</ele><time>2026-05-02T09:58:33.656Z</time></trkpt><trkpt lat="42.2425215" lon="13.8142669"><ele>319.75</ele><time>2026-05-02T09:58:34.653Z</time></trkpt><trkpt lat="42.2426177" lon="13.8141626"><ele>320.0</ele><time>2026-05-02T09:58:35.661Z</time></trkpt><trkpt lat="42.2427265" lon="13.8140553"><ele>320.0</ele><time>2026-05-02T09:58:36.673Z</time></trkpt><trkpt lat="42.2428385" lon="13.8139425"><ele>320.0</ele><time>2026-05-02T09:58:37.678Z</time></trkpt><trkpt lat="42.2429556" lon="13.813812"><ele>320.0</ele><time>2026-05-02T09:58:38.661Z</time></trkpt><trkpt lat="42.2430724" lon="13.8136774"><ele>320.0</ele><time>2026-05-02T09:58:39.652Z</time></trkpt><trkpt lat="42.2431834" lon="13.8135433"><ele>321.25</ele><time>2026-05-02T09:58:40.664Z</time></trkpt><trkpt lat="42.2432747" lon="13.8134126"><ele>322.5</ele><time>2026-05-02T09:58:41.664Z</time></trkpt><trkpt lat="42.2433524" lon="13.8132976"><ele>323.75</ele><time>2026-05-02T09:58:42.677Z</time></trkpt><trkpt lat="42.2434299" lon="13.8131946"><ele>325.0</ele><time>2026-05-02T09:58:43.668Z</time></trkpt><trkpt lat="42.2435069" lon="13.8131049"><ele>325.0</ele><time>2026-05-02T09:58:44.67Z</time></trkpt><trkpt lat="42.2436013" lon="13.8130238"><ele>325.0</ele><time>2026-05-02T09:58:45.655Z</time></trkpt><trkpt lat="42.2437111" lon="13.8129626"><ele>325.0</ele><time>2026-05-02T09:58:46.656Z</time></trkpt><trkpt lat="42.2438303" lon="13.8129096"><ele>325.0</ele><time>2026-05-02T09:58:47.646Z</time></trkpt><trkpt lat="42.2439512" lon="13.8128761"><ele>326.5</ele><time>2026-05-02T09:58:48.654Z</time></trkpt><trkpt lat="42.2440694" lon="13.8128424"><ele>328.0</ele><time>2026-05-02T09:58:49.639Z</time></trkpt><trkpt lat="42.2441795" lon="13.8127938"><ele>329.5</ele><time>2026-05-02T09:58:50.642Z</time></trkpt><trkpt lat="42.2442862" lon="13.8127407"><ele>331.0</ele><time>2026-05-02T09:58:51.652Z</time></trkpt><trkpt lat="42.2443877" lon="13.8126988"><ele>331.0</ele><time>2026-05-02T09:58:52.65Z</time></trkpt><trkpt lat="42.2444985" lon="13.8126644"><ele>331.0</ele><time>2026-05-02T09:58:53.664Z</time></trkpt><trkpt lat="42.2446152" lon="13.8126288"><ele>331.0</ele><time>2026-05-02T09:58:54.658Z</time></trkpt><trkpt lat="42.2447314" lon="13.8125635"><ele>331.0</ele><time>2026-05-02T09:58:55.664Z</time></trkpt><trkpt lat="42.2448274" lon="13.8124971"><ele>330.4</ele><time>2026-05-02T09:58:56.657Z</time></trkpt><trkpt lat="42.2449043" lon="13.8124061"><ele>329.8</ele><time>2026-05-02T09:58:57.663Z</time></trkpt><trkpt lat="42.244968" lon="13.8122689"><ele>329.2</ele><time>2026-05-02T09:58:58.658Z</time></trkpt><trkpt lat="42.2450126" lon="13.8121357"><ele>328.59999999999997</ele><time>2026-05-02T09:58:59.656Z</time></trkpt><trkpt lat="42.2450417" lon="13.8119821"><ele>328.0</ele><time>2026-05-02T09:59:00.659Z</time></trkpt><trkpt lat="42.2450702" lon="13.8118263"><ele>327.0</ele><time>2026-05-02T09:59:01.649Z</time></trkpt><trkpt lat="42.245125" lon="13.8116743"><ele>326.0</ele><time>2026-05-02T09:59:02.647Z</time></trkpt><trkpt lat="42.2451878" lon="13.8115322"><ele>325.0</ele><time>2026-05-02T09:59:03.649Z</time></trkpt><trkpt lat="42.2452688" lon="13.8114081"><ele>324.0</ele><time>2026-05-02T09:59:04.663Z</time></trkpt><trkpt lat="42.2453754" lon="13.8112929"><ele>324.0</ele><time>2026-05-02T09:59:05.656Z</time></trkpt><trkpt lat="42.245483" lon="13.8111904"><ele>324.0</ele><time>2026-05-02T09:59:06.659Z</time></trkpt><trkpt lat="42.2455951" lon="13.8110628"><ele>324.0</ele><time>2026-05-02T09:59:07.652Z</time></trkpt><trkpt lat="42.2457083" lon="13.8109044"><ele>324.0</ele><time>2026-05-02T09:59:08.661Z</time></trkpt><trkpt lat="42.2458238" lon="13.8107381"><ele>324.3333333333333</ele><time>2026-05-02T09:59:09.657Z</time></trkpt><trkpt lat="42.2459446" lon="13.8105738"><ele>324.66666666666663</ele><time>2026-05-02T09:59:10.649Z</time></trkpt><trkpt lat="42.2460698" lon="13.8104256"><ele>325.0</ele><time>2026-05-02T09:59:11.667Z</time></trkpt><trkpt lat="42.2462017" lon="13.8102768"><ele>325.0</ele><time>2026-05-02T09:59:12.665Z</time></trkpt><trkpt lat="42.2462987" lon="13.8101409"><ele>325.0</ele><time>2026-05-02T09:59:13.647Z</time></trkpt><trkpt lat="42.2463683" lon="13.8100171"><ele>325.0</ele><time>2026-05-02T09:59:14.646Z</time></trkpt><trkpt lat="42.2464202" lon="13.8098679"><ele>325.0</ele><time>2026-05-02T09:59:15.658Z</time></trkpt><trkpt lat="42.2464802" lon="13.8097233"><ele>325.0</ele><time>2026-05-02T09:59:16.663Z</time></trkpt><trkpt lat="42.2465387" lon="13.8095575"><ele>325.0</ele><time>2026-05-02T09:59:17.665Z</time></trkpt><trkpt lat="42.2466031" lon="13.8093465"><ele>325.0</ele><time>2026-05-02T09:59:18.655Z</time></trkpt><trkpt lat="42.246673" lon="13.809112"><ele>325.0</ele><time>2026-05-02T09:59:19.651Z</time></trkpt><trkpt lat="42.2467248" lon="13.8088812"><ele>325.0</ele><time>2026-05-02T09:59:20.646Z</time></trkpt><trkpt lat="42.2467657" lon="13.808676"><ele>325.0</ele><time>2026-05-02T09:59:21.672Z</time></trkpt><trkpt lat="42.2468039" lon="13.8084797"><ele>325.0</ele><time>2026-05-02T09:59:22.672Z</time></trkpt><trkpt lat="42.2468397" lon="13.8082925"><ele>325.0</ele><time>2026-05-02T09:59:23.67Z</time></trkpt><trkpt lat="42.2468841" lon="13.8081409"><ele>325.0</ele><time>2026-05-02T09:59:24.656Z</time></trkpt><trkpt lat="42.2469525" lon="13.8080017"><ele>325.0</ele><time>2026-05-02T09:59:25.66Z</time></trkpt><trkpt lat="42.2470247" lon="13.8078962"><ele>325.0</ele><time>2026-05-02T09:59:26.657Z</time></trkpt><trkpt lat="42.2471336" lon="13.8077681"><ele>325.0</ele><time>2026-05-02T09:59:27.661Z</time></trkpt><trkpt lat="42.2472442" lon="13.8076545"><ele>325.0</ele><time>2026-05-02T09:59:28.657Z</time></trkpt><trkpt lat="42.247357" lon="13.8075526"><ele>325.0</ele><time>2026-05-02T09:59:29.671Z</time></trkpt><trkpt lat="42.2474705" lon="13.807458"><ele>325.6</ele><time>2026-05-02T09:59:30.659Z</time></trkpt><trkpt lat="42.2475754" lon="13.8073717"><ele>326.2</ele><time>2026-05-02T09:59:31.658Z</time></trkpt><trkpt lat="42.2476532" lon="13.8072815"><ele>326.79999999999995</ele><time>2026-05-02T09:59:32.66Z</time></trkpt><trkpt lat="42.2476999" lon="13.8071598"><ele>327.4</ele><time>2026-05-02T09:59:33.648Z</time></trkpt><trkpt lat="42.2477256" lon="13.8070501"><ele>328.0</ele><time>2026-05-02T09:59:34.65Z</time></trkpt><trkpt lat="42.2477495" lon="13.8068861"><ele>327.5</ele><time>2026-05-02T09:59:35.666Z</time></trkpt><trkpt lat="42.2477732" lon="13.8066955"><ele>327.0</ele><time>2026-05-02T09:59:36.657Z</time></trkpt><trkpt lat="42.2477948" lon="13.8065368"><ele>326.5</ele><time>2026-05-02T09:59:37.658Z</time></trkpt><trkpt lat="42.2478451" lon="13.8064065"><ele>326.0</ele><time>2026-05-02T09:59:38.659Z</time></trkpt><trkpt lat="42.2479197" lon="13.8062735"><ele>326.0</ele><time>2026-05-02T09:59:39.649Z</time></trkpt><trkpt lat="42.2480096" lon="13.80614"><ele>326.0</ele><time>2026-05-02T09:59:40.648Z</time></trkpt><trkpt lat="42.2480931" lon="13.8059961"><ele>326.0</ele><time>2026-05-02T09:59:41.671Z</time></trkpt><trkpt lat="42.2481716" lon="13.8058585"><ele>326.0</ele><time>2026-05-02T09:59:42.67Z</time></trkpt><trkpt lat="42.2482423" lon="13.8057324"><ele>327.8</ele><time>2026-05-02T09:59:43.66Z</time></trkpt><trkpt lat="42.2483007" lon="13.8056246"><ele>329.6</ele><time>2026-05-02T09:59:44.662Z</time></trkpt><trkpt lat="42.2483576" lon="13.805531"><ele>331.4</ele><time>2026-05-02T09:59:45.662Z</time></trkpt><trkpt lat="42.248414" lon="13.8054291"><ele>333.2</ele><time>2026-05-02T09:59:46.666Z</time></trkpt><trkpt lat="42.2484751" lon="13.8053728"><ele>335.0</ele><time>2026-05-02T09:59:47.66Z</time></trkpt><trkpt lat="42.2485612" lon="13.8053089"><ele>335.0</ele><time>2026-05-02T09:59:49.645Z</time></trkpt><trkpt lat="42.2486248" lon="13.8052761"><ele>335.0</ele><time>2026-05-02T09:59:51.659Z</time></trkpt><trkpt lat="42.2487482" lon="13.8052416"><ele>335.0</ele><time>2026-05-02T09:59:53.663Z</time></trkpt><trkpt lat="42.2488192" lon="13.8052051"><ele>335.0</ele><time>2026-05-02T09:59:54.657Z</time></trkpt><trkpt lat="42.2488841" lon="13.8051728"><ele>335.0</ele><time>2026-05-02T09:59:55.661Z</time></trkpt><trkpt lat="42.2490019" lon="13.8051286"><ele>335.33333333333337</ele><time>2026-05-02T09:59:57.674Z</time></trkpt><trkpt lat="42.2490616" lon="13.8050984"><ele>335.6666666666667</ele><time>2026-05-02T09:59:58.656Z</time></trkpt><trkpt lat="42.2491174" lon="13.8050507"><ele>336.0</ele><time>2026-05-02T09:59:59.68Z</time></trkpt><trkpt lat="42.2491713" lon="13.8049918"><ele>336.3333333333333</ele><time>2026-05-02T10:00:00.663Z</time></trkpt><trkpt lat="42.2492304" lon="13.8049331"><ele>336.66666666666663</ele><time>2026-05-02T10:00:01.672Z</time></trkpt><trkpt lat="42.2492848" lon="13.8048696"><ele>337.0</ele><time>2026-05-02T10:00:02.653Z</time></trkpt><trkpt lat="42.2493846" lon="13.8047889"><ele>337.0</ele><time>2026-05-02T10:00:04.658Z</time></trkpt><trkpt lat="42.2494844" lon="13.8048412"><ele>337.0</ele><time>2026-05-02T10:00:06.67Z</time></trkpt><trkpt lat="42.2495522" lon="13.8049017"><ele>337.0</ele><time>2026-05-02T10:00:07.659Z</time></trkpt><trkpt lat="42.2496309" lon="13.8049615"><ele>337.0</ele><time>2026-05-02T10:00:08.669Z</time></trkpt><trkpt lat="42.2497156" lon="13.8050131"><ele>337.0</ele><time>2026-05-02T10:00:09.669Z</time></trkpt><trkpt lat="42.2498195" lon="13.8050374"><ele>337.66666666666663</ele><time>2026-05-02T10:00:10.653Z</time></trkpt><trkpt lat="42.2499461" lon="13.805033"><ele>338.3333333333333</ele><time>2026-05-02T10:00:11.653Z</time></trkpt><trkpt lat="42.2500976" lon="13.8050177"><ele>339.0</ele><time>2026-05-02T10:00:12.648Z</time></trkpt><trkpt lat="42.2502918" lon="13.8050028"><ele>339.0</ele><time>2026-05-02T10:00:13.651Z</time></trkpt><trkpt lat="42.2504905" lon="13.8049938"><ele>339.0</ele><time>2026-05-02T10:00:14.656Z</time></trkpt><trkpt lat="42.2506663" lon="13.8049773"><ele>339.0</ele><time>2026-05-02T10:00:15.656Z</time></trkpt><trkpt lat="42.2508149" lon="13.8049601"><ele>340.6666666666667</ele><time>2026-05-02T10:00:16.656Z</time></trkpt><trkpt lat="42.2509319" lon="13.804971"><ele>342.3333333333333</ele><time>2026-05-02T10:00:17.661Z</time></trkpt><trkpt lat="42.2510175" lon="13.8050167"><ele>344.0</ele><time>2026-05-02T10:00:18.652Z</time></trkpt><trkpt lat="42.251079" lon="13.8050603"><ele>345.66666666666663</ele><time>2026-05-02T10:00:19.652Z</time></trkpt><trkpt lat="42.251128" lon="13.8051191"><ele>347.3333333333333</ele><time>2026-05-02T10:00:20.651Z</time></trkpt><trkpt lat="42.2511585" lon="13.8051997"><ele>349.0</ele><time>2026-05-02T10:00:21.659Z</time></trkpt><trkpt lat="42.2511946" lon="13.8053802"><ele>349.0</ele><time>2026-05-02T10:00:23.664Z</time></trkpt><trkpt lat="42.2512064" lon="13.8055198"><ele>349.0</ele><time>2026-05-02T10:00:24.664Z</time></trkpt><trkpt lat="42.2512239" lon="13.8056927"><ele>349.0</ele><time>2026-05-02T10:00:25.672Z</time></trkpt><trkpt lat="42.2512512" lon="13.805869"><ele>349.0</ele><time>2026-05-02T10:00:26.672Z</time></trkpt><trkpt lat="42.2512853" lon="13.8060417"><ele>349.0</ele><time>2026-05-02T10:00:27.649Z</time></trkpt><trkpt lat="42.2513453" lon="13.8062205"><ele>349.0</ele><time>2026-05-02T10:00:28.666Z</time></trkpt><trkpt lat="42.2514345" lon="13.8064224"><ele>349.0</ele><time>2026-05-02T10:00:29.668Z</time></trkpt><trkpt lat="42.2515329" lon="13.8066409"><ele>351.66666666666663</ele><time>2026-05-02T10:00:30.649Z</time></trkpt><trkpt lat="42.2516353" lon="13.8068786"><ele>354.3333333333333</ele><time>2026-05-02T10:00:31.656Z</time></trkpt><trkpt lat="42.2517413" lon="13.8071258"><ele>357.0</ele><time>2026-05-02T10:00:32.656Z</time></trkpt><trkpt lat="42.2518446" lon="13.8073625"><ele>357.0</ele><time>2026-05-02T10:00:33.661Z</time></trkpt><trkpt lat="42.2519404" lon="13.8075702"><ele>357.0</ele><time>2026-05-02T10:00:34.665Z</time></trkpt><trkpt lat="42.2520264" lon="13.8077598"><ele>357.0</ele><time>2026-05-02T10:00:35.666Z</time></trkpt><trkpt lat="42.2520996" lon="13.8079211"><ele>357.0</ele><time>2026-05-02T10:00:36.657Z</time></trkpt><trkpt lat="42.2521649" lon="13.8080584"><ele>357.0</ele><time>2026-05-02T10:00:37.655Z</time></trkpt><trkpt lat="42.2522343" lon="13.8081825"><ele>357.0</ele><time>2026-05-02T10:00:38.664Z</time></trkpt><trkpt lat="42.2523139" lon="13.808312"><ele>357.0</ele><time>2026-05-02T10:00:39.68Z</time></trkpt><trkpt lat="42.2523945" lon="13.8084443"><ele>359.25</ele><time>2026-05-02T10:00:40.657Z</time></trkpt><trkpt lat="42.2524854" lon="13.8085902"><ele>361.5</ele><time>2026-05-02T10:00:41.677Z</time></trkpt><trkpt lat="42.2525757" lon="13.8087345"><ele>363.75</ele><time>2026-05-02T10:00:42.646Z</time></trkpt><trkpt lat="42.252651" lon="13.8088592"><ele>366.0</ele><time>2026-05-02T10:00:43.663Z</time></trkpt><trkpt lat="42.2526943" lon="13.8089483"><ele>366.0</ele><time>2026-05-02T10:00:44.661Z</time></trkpt><trkpt lat="42.2527207" lon="13.8090267"><ele>366.0</ele><time>2026-05-02T10:00:45.65Z</time></trkpt><trkpt lat="42.2527783" lon="13.8091751"><ele>366.0</ele><time>2026-05-02T10:00:47.66Z</time></trkpt><trkpt lat="42.252824" lon="13.8092466"><ele>366.0</ele><time>2026-05-02T10:00:48.653Z</time></trkpt><trkpt lat="42.2528816" lon="13.809342"><ele>366.0</ele><time>2026-05-02T10:00:49.675Z</time></trkpt><trkpt lat="42.2529421" lon="13.8094404"><ele>366.0</ele><time>2026-05-02T10:00:50.68Z</time></trkpt><trkpt lat="42.253027" lon="13.8095488"><ele>368.25</ele><time>2026-05-02T10:00:51.652Z</time></trkpt><trkpt lat="42.2531394" lon="13.809655"><ele>370.5</ele><time>2026-05-02T10:00:52.668Z</time></trkpt><trkpt lat="42.2532461" lon="13.8097868"><ele>372.75</ele><time>2026-05-02T10:00:53.655Z</time></trkpt><trkpt lat="42.2533481" lon="13.8099194"><ele>375.0</ele><time>2026-05-02T10:00:54.658Z</time></trkpt><trkpt lat="42.2534722" lon="13.810048"><ele>374.75</ele><time>2026-05-02T10:00:55.649Z</time></trkpt><trkpt lat="42.253594" lon="13.8101586"><ele>374.5</ele><time>2026-05-02T10:00:56.66Z</time></trkpt><trkpt lat="42.2537154" lon="13.8102749"><ele>374.25</ele><time>2026-05-02T10:00:57.664Z</time></trkpt><trkpt lat="42.2538291" lon="13.8103969"><ele>374.0</ele><time>2026-05-02T10:00:58.659Z</time></trkpt><trkpt lat="42.2539348" lon="13.8105467"><ele>376.0</ele><time>2026-05-02T10:00:59.648Z</time></trkpt><trkpt lat="42.254049" lon="13.8106932"><ele>378.0</ele><time>2026-05-02T10:01:00.673Z</time></trkpt><trkpt lat="42.254164" lon="13.8108349"><ele>380.0</ele><time>2026-05-02T10:01:01.664Z</time></trkpt><trkpt lat="42.2542885" lon="13.8109618"><ele>380.25</ele><time>2026-05-02T10:01:02.666Z</time></trkpt><trkpt lat="42.2544102" lon="13.8111022"><ele>380.5</ele><time>2026-05-02T10:01:03.657Z</time></trkpt><trkpt lat="42.2545091" lon="13.8112416"><ele>380.75</ele><time>2026-05-02T10:01:04.662Z</time></trkpt><trkpt lat="42.254573" lon="13.8113945"><ele>381.0</ele><time>2026-05-02T10:01:05.654Z</time></trkpt><trkpt lat="42.254624" lon="13.8115578"><ele>381.0</ele><time>2026-05-02T10:01:06.655Z</time></trkpt><trkpt lat="42.2546631" lon="13.8117099"><ele>381.0</ele><time>2026-05-02T10:01:07.66Z</time></trkpt><trkpt lat="42.2546854" lon="13.8118069"><ele>381.0</ele><time>2026-05-02T10:01:08.662Z</time></trkpt><trkpt lat="42.2547279" lon="13.8118795"><ele>381.0</ele><time>2026-05-02T10:01:10.658Z</time></trkpt><trkpt lat="42.2547915" lon="13.811827"><ele>381.0</ele><time>2026-05-02T10:01:12.658Z</time></trkpt><trkpt lat="42.2548364" lon="13.8117176"><ele>381.0</ele><time>2026-05-02T10:01:14.659Z</time></trkpt><trkpt lat="42.2548704" lon="13.8115832"><ele>383.0</ele><time>2026-05-02T10:01:16.663Z</time></trkpt><trkpt lat="42.2549192" lon="13.8114983"><ele>385.0</ele><time>2026-05-02T10:01:17.659Z</time></trkpt><trkpt lat="42.2549952" lon="13.8113696"><ele>387.0</ele><time>2026-05-02T10:01:18.668Z</time></trkpt><trkpt lat="42.2550659" lon="13.8112432"><ele>389.0</ele><time>2026-05-02T10:01:19.676Z</time></trkpt><trkpt lat="42.2551438" lon="13.8110941"><ele>388.6</ele><time>2026-05-02T10:01:20.663Z</time></trkpt><trkpt lat="42.2552044" lon="13.8109697"><ele>388.2</ele><time>2026-05-02T10:01:21.665Z</time></trkpt><trkpt lat="42.2552455" lon="13.8108483"><ele>387.8</ele><time>2026-05-02T10:01:22.667Z</time></trkpt><trkpt lat="42.2552889" lon="13.8107459"><ele>387.40000000000003</ele><time>2026-05-02T10:01:23.672Z</time></trkpt><trkpt lat="42.2553262" lon="13.8106393"><ele>387.0</ele><time>2026-05-02T10:01:24.661Z</time></trkpt><trkpt lat="42.2553782" lon="13.8105078"><ele>387.0</ele><time>2026-05-02T10:01:25.672Z</time></trkpt><trkpt lat="42.255452" lon="13.8103641"><ele>387.0</ele><time>2026-05-02T10:01:26.663Z</time></trkpt><trkpt lat="42.2555517" lon="13.8102246"><ele>387.0</ele><time>2026-05-02T10:01:27.657Z</time></trkpt><trkpt lat="42.255669" lon="13.8100676"><ele>387.0</ele><time>2026-05-02T10:01:28.665Z</time></trkpt><trkpt lat="42.255782" lon="13.8098921"><ele>387.33333333333337</ele><time>2026-05-02T10:01:29.652Z</time></trkpt><trkpt lat="42.2559043" lon="13.8096703"><ele>387.6666666666667</ele><time>2026-05-02T10:01:30.678Z</time></trkpt><trkpt lat="42.2560243" lon="13.8094588"><ele>388.0</ele><time>2026-05-02T10:01:31.681Z</time></trkpt><trkpt lat="42.2561233" lon="13.809276"><ele>387.75</ele><time>2026-05-02T10:01:32.665Z</time></trkpt><trkpt lat="42.2562123" lon="13.8091355"><ele>387.5</ele><time>2026-05-02T10:01:33.654Z</time></trkpt><trkpt lat="42.2562989" lon="13.8090133"><ele>387.25</ele><time>2026-05-02T10:01:34.66Z</time></trkpt><trkpt lat="42.2563873" lon="13.8089024"><ele>387.0</ele><time>2026-05-02T10:01:35.664Z</time></trkpt><trkpt lat="42.2564844" lon="13.8087945"><ele>387.0</ele><time>2026-05-02T10:01:36.675Z</time></trkpt><trkpt lat="42.2565868" lon="13.8086958"><ele>387.0</ele><time>2026-05-02T10:01:37.658Z</time></trkpt><trkpt lat="42.2566734" lon="13.8086022"><ele>387.0</ele><time>2026-05-02T10:01:38.653Z</time></trkpt><trkpt lat="42.2567591" lon="13.8085498"><ele>387.0</ele><time>2026-05-02T10:01:39.669Z</time></trkpt><trkpt lat="42.2568549" lon="13.808528"><ele>387.0</ele><time>2026-05-02T10:01:40.649Z</time></trkpt><trkpt lat="42.2569644" lon="13.8084902"><ele>386.25</ele><time>2026-05-02T10:01:41.666Z</time></trkpt><trkpt lat="42.2570782" lon="13.8084081"><ele>385.5</ele><time>2026-05-02T10:01:42.657Z</time></trkpt><trkpt lat="42.2572025" lon="13.8082993"><ele>384.75</ele><time>2026-05-02T10:01:43.657Z</time></trkpt><trkpt lat="42.2573362" lon="13.8081781"><ele>384.0</ele><time>2026-05-02T10:01:44.66Z</time></trkpt><trkpt lat="42.2574796" lon="13.8080628"><ele>384.0</ele><time>2026-05-02T10:01:45.662Z</time></trkpt><trkpt lat="42.2576289" lon="13.8079468"><ele>384.0</ele><time>2026-05-02T10:01:46.68Z</time></trkpt><trkpt lat="42.257781" lon="13.8078167"><ele>384.0</ele><time>2026-05-02T10:01:47.65Z</time></trkpt><trkpt lat="42.2579326" lon="13.8076781"><ele>382.5</ele><time>2026-05-02T10:01:48.667Z</time></trkpt><trkpt lat="42.2580573" lon="13.8075609"><ele>381.0</ele><time>2026-05-02T10:01:49.652Z</time></trkpt><trkpt lat="42.2581854" lon="13.807474"><ele>379.5</ele><time>2026-05-02T10:01:50.651Z</time></trkpt><trkpt lat="42.2583204" lon="13.8074"><ele>378.0</ele><time>2026-05-02T10:01:51.659Z</time></trkpt><trkpt lat="42.2584562" lon="13.8073407"><ele>378.0</ele><time>2026-05-02T10:01:52.654Z</time></trkpt><trkpt lat="42.2586077" lon="13.8073016"><ele>378.0</ele><time>2026-05-02T10:01:53.67Z</time></trkpt><trkpt lat="42.2587632" lon="13.8072649"><ele>378.0</ele><time>2026-05-02T10:01:54.673Z</time></trkpt><trkpt lat="42.2589167" lon="13.8072018"><ele>379.0</ele><time>2026-05-02T10:01:55.658Z</time></trkpt><trkpt lat="42.2590605" lon="13.8071272"><ele>380.0</ele><time>2026-05-02T10:01:56.653Z</time></trkpt><trkpt lat="42.2591913" lon="13.8070457"><ele>381.0</ele><time>2026-05-02T10:01:57.661Z</time></trkpt><trkpt lat="42.2593143" lon="13.8069705"><ele>382.0</ele><time>2026-05-02T10:01:58.658Z</time></trkpt><trkpt lat="42.2594326" lon="13.8068862"><ele>380.3333333333333</ele><time>2026-05-02T10:01:59.646Z</time></trkpt><trkpt lat="42.259578" lon="13.806797"><ele>378.6666666666667</ele><time>2026-05-02T10:02:00.661Z</time></trkpt><trkpt lat="42.2597412" lon="13.8067094"><ele>377.0</ele><time>2026-05-02T10:02:01.666Z</time></trkpt><trkpt lat="42.2599016" lon="13.8066346"><ele>377.0</ele><time>2026-05-02T10:02:02.651Z</time></trkpt><trkpt lat="42.2600424" lon="13.8065535"><ele>377.0</ele><time>2026-05-02T10:02:03.656Z</time></trkpt><trkpt lat="42.260168" lon="13.8064605"><ele>377.0</ele><time>2026-05-02T10:02:04.661Z</time></trkpt><trkpt lat="42.2603053" lon="13.8063492"><ele>377.0</ele><time>2026-05-02T10:02:05.649Z</time></trkpt><trkpt lat="42.2604656" lon="13.806232"><ele>377.0</ele><time>2026-05-02T10:02:06.674Z</time></trkpt><trkpt lat="42.2606137" lon="13.8061143"><ele>377.0</ele><time>2026-05-02T10:02:07.662Z</time></trkpt><trkpt lat="42.2607394" lon="13.8060242"><ele>376.40000000000003</ele><time>2026-05-02T10:02:08.657Z</time></trkpt><trkpt lat="42.2608431" lon="13.8059569"><ele>375.8</ele><time>2026-05-02T10:02:09.649Z</time></trkpt><trkpt lat="42.2609222" lon="13.8058942"><ele>375.2</ele><time>2026-05-02T10:02:10.653Z</time></trkpt><trkpt lat="42.260977" lon="13.8058334"><ele>374.6</ele><time>2026-05-02T10:02:11.656Z</time></trkpt><trkpt lat="42.2610654" lon="13.805712"><ele>374.0</ele><time>2026-05-02T10:02:13.681Z</time></trkpt><trkpt lat="42.2611215" lon="13.8056607"><ele>374.0</ele><time>2026-05-02T10:02:14.659Z</time></trkpt><trkpt lat="42.2611983" lon="13.8056269"><ele>374.0</ele><time>2026-05-02T10:02:15.652Z</time></trkpt><trkpt lat="42.2612933" lon="13.8055891"><ele>374.0</ele><time>2026-05-02T10:02:16.66Z</time></trkpt><trkpt lat="42.2614038" lon="13.8055579"><ele>374.0</ele><time>2026-05-02T10:02:17.654Z</time></trkpt><trkpt lat="42.2615185" lon="13.8055069"><ele>374.0</ele><time>2026-05-02T10:02:18.652Z</time></trkpt><trkpt lat="42.2616465" lon="13.8054548"><ele>373.25</ele><time>2026-05-02T10:02:19.658Z</time></trkpt><trkpt lat="42.2617741" lon="13.8054029"><ele>372.5</ele><time>2026-05-02T10:02:20.649Z</time></trkpt><trkpt lat="42.2618961" lon="13.805351"><ele>371.75</ele><time>2026-05-02T10:02:21.659Z</time></trkpt><trkpt lat="42.2620019" lon="13.8053116"><ele>371.0</ele><time>2026-05-02T10:02:22.659Z</time></trkpt><trkpt lat="42.262089" lon="13.8052819"><ele>371.0</ele><time>2026-05-02T10:02:23.65Z</time></trkpt><trkpt lat="42.2621594" lon="13.8052578"><ele>371.0</ele><time>2026-05-02T10:02:24.649Z</time></trkpt><trkpt lat="42.2622573" lon="13.8052424"><ele>371.0</ele><time>2026-05-02T10:02:26.655Z</time></trkpt><trkpt lat="42.2623232" lon="13.8052684"><ele>371.0</ele><time>2026-05-02T10:02:29.652Z</time></trkpt><trkpt lat="42.2624485" lon="13.8052878"><ele>371.0</ele><time>2026-05-02T10:02:31.648Z</time></trkpt><trkpt lat="42.2625199" lon="13.8053009"><ele>371.0</ele><time>2026-05-02T10:02:32.669Z</time></trkpt><trkpt lat="42.2626084" lon="13.8052822"><ele>370.75</ele><time>2026-05-02T10:02:33.658Z</time></trkpt><trkpt lat="42.2627195" lon="13.8052579"><ele>370.5</ele><time>2026-05-02T10:02:34.652Z</time></trkpt><trkpt lat="42.2628441" lon="13.8052219"><ele>370.25</ele><time>2026-05-02T10:02:35.648Z</time></trkpt><trkpt lat="42.2629867" lon="13.8051847"><ele>370.0</ele><time>2026-05-02T10:02:36.646Z</time></trkpt><trkpt lat="42.2631369" lon="13.805151"><ele>368.3333333333333</ele><time>2026-05-02T10:02:37.654Z</time></trkpt><trkpt lat="42.2632934" lon="13.805124"><ele>366.6666666666667</ele><time>2026-05-02T10:02:38.663Z</time></trkpt><trkpt lat="42.2634452" lon="13.8050917"><ele>365.0</ele><time>2026-05-02T10:02:39.649Z</time></trkpt><trkpt lat="42.2635995" lon="13.8050679"><ele>365.0</ele><time>2026-05-02T10:02:40.656Z</time></trkpt><trkpt lat="42.2637491" lon="13.8050356"><ele>365.0</ele><time>2026-05-02T10:02:41.655Z</time></trkpt><trkpt lat="42.2638988" lon="13.805022"><ele>365.0</ele><time>2026-05-02T10:02:42.662Z</time></trkpt><trkpt lat="42.2640395" lon="13.8050082"><ele>365.0</ele><time>2026-05-02T10:02:43.647Z</time></trkpt><trkpt lat="42.2641789" lon="13.8050071"><ele>364.0</ele><time>2026-05-02T10:02:44.66Z</time></trkpt><trkpt lat="42.2643214" lon="13.8050006"><ele>363.0</ele><time>2026-05-02T10:02:45.657Z</time></trkpt><trkpt lat="42.2644839" lon="13.8049915"><ele>362.0</ele><time>2026-05-02T10:02:46.656Z</time></trkpt><trkpt lat="42.2646622" lon="13.8049622"><ele>360.6666666666667</ele><time>2026-05-02T10:02:47.665Z</time></trkpt><trkpt lat="42.2648593" lon="13.8049117"><ele>359.3333333333333</ele><time>2026-05-02T10:02:48.663Z</time></trkpt><trkpt lat="42.2650651" lon="13.804852"><ele>358.0</ele><time>2026-05-02T10:02:49.665Z</time></trkpt><trkpt lat="42.2652732" lon="13.8047836"><ele>358.0</ele><time>2026-05-02T10:02:50.665Z</time></trkpt><trkpt lat="42.2654702" lon="13.8047184"><ele>358.0</ele><time>2026-05-02T10:02:51.653Z</time></trkpt><trkpt lat="42.2656594" lon="13.8046475"><ele>358.0</ele><time>2026-05-02T10:02:52.645Z</time></trkpt><trkpt lat="42.2658357" lon="13.8045779"><ele>357.3333333333333</ele><time>2026-05-02T10:02:53.669Z</time></trkpt><trkpt lat="42.2660034" lon="13.8045178"><ele>356.6666666666667</ele><time>2026-05-02T10:02:54.655Z</time></trkpt><trkpt lat="42.266152" lon="13.8044658"><ele>356.0</ele><time>2026-05-02T10:02:55.664Z</time></trkpt><trkpt lat="42.2662859" lon="13.8043927"><ele>355.75</ele><time>2026-05-02T10:02:56.658Z</time></trkpt><trkpt lat="42.2664138" lon="13.8042977"><ele>355.5</ele><time>2026-05-02T10:02:57.648Z</time></trkpt><trkpt lat="42.2665454" lon="13.8041972"><ele>355.25</ele><time>2026-05-02T10:02:58.658Z</time></trkpt><trkpt lat="42.266663" lon="13.8040886"><ele>355.0</ele><time>2026-05-02T10:02:59.652Z</time></trkpt><trkpt lat="42.2667659" lon="13.8039779"><ele>355.0</ele><time>2026-05-02T10:03:00.651Z</time></trkpt><trkpt lat="42.2668496" lon="13.8038594"><ele>355.0</ele><time>2026-05-02T10:03:01.648Z</time></trkpt><trkpt lat="42.2669202" lon="13.8037336"><ele>355.0</ele><time>2026-05-02T10:03:02.649Z</time></trkpt><trkpt lat="42.2669717" lon="13.8035936"><ele>355.0</ele><time>2026-05-02T10:03:03.666Z</time></trkpt><trkpt lat="42.2670057" lon="13.8034503"><ele>354.2</ele><time>2026-05-02T10:03:04.652Z</time></trkpt><trkpt lat="42.2670334" lon="13.8033119"><ele>353.4</ele><time>2026-05-02T10:03:05.664Z</time></trkpt><trkpt lat="42.267071" lon="13.8031975"><ele>352.6</ele><time>2026-05-02T10:03:06.658Z</time></trkpt><trkpt lat="42.2671319" lon="13.8030949"><ele>351.8</ele><time>2026-05-02T10:03:07.655Z</time></trkpt><trkpt lat="42.2672002" lon="13.8030068"><ele>351.0</ele><time>2026-05-02T10:03:08.66Z</time></trkpt><trkpt lat="42.267266" lon="13.8029177"><ele>351.6</ele><time>2026-05-02T10:03:09.665Z</time></trkpt><trkpt lat="42.2673351" lon="13.8028337"><ele>352.20000000000005</ele><time>2026-05-02T10:03:10.66Z</time></trkpt><trkpt lat="42.2673938" lon="13.8027675"><ele>352.79999999999995</ele><time>2026-05-02T10:03:11.658Z</time></trkpt><trkpt lat="42.267452" lon="13.8027027"><ele>353.4</ele><time>2026-05-02T10:03:13.654Z</time></trkpt><trkpt lat="42.2674684" lon="13.8025641"><ele>354.0</ele><time>2026-05-02T10:03:16.656Z</time></trkpt><trkpt lat="42.2675461" lon="13.8024057"><ele>354.0</ele><time>2026-05-02T10:03:18.69Z</time></trkpt><trkpt lat="42.2676022" lon="13.8023132"><ele>354.0</ele><time>2026-05-02T10:03:19.651Z</time></trkpt><trkpt lat="42.2676762" lon="13.802219"><ele>354.0</ele><time>2026-05-02T10:03:20.658Z</time></trkpt><trkpt lat="42.2677625" lon="13.8021114"><ele>354.0</ele><time>2026-05-02T10:03:21.653Z</time></trkpt><trkpt lat="42.2678622" lon="13.8020194"><ele>354.0</ele><time>2026-05-02T10:03:22.666Z</time></trkpt><trkpt lat="42.2679683" lon="13.8018956"><ele>353.6666666666667</ele><time>2026-05-02T10:03:23.657Z</time></trkpt><trkpt lat="42.268085" lon="13.801755"><ele>353.33333333333337</ele><time>2026-05-02T10:03:24.657Z</time></trkpt><trkpt lat="42.2682163" lon="13.801612"><ele>353.0</ele><time>2026-05-02T10:03:25.656Z</time></trkpt><trkpt lat="42.2683542" lon="13.8014647"><ele>353.0</ele><time>2026-05-02T10:03:26.652Z</time></trkpt><trkpt lat="42.2684903" lon="13.8013088"><ele>353.0</ele><time>2026-05-02T10:03:27.645Z</time></trkpt><trkpt lat="42.2686221" lon="13.8011612"><ele>353.0</ele><time>2026-05-02T10:03:28.665Z</time></trkpt><trkpt lat="42.2687532" lon="13.8010295"><ele>352.75</ele><time>2026-05-02T10:03:29.658Z</time></trkpt><trkpt lat="42.2688698" lon="13.8009172"><ele>352.5</ele><time>2026-05-02T10:03:30.655Z</time></trkpt><trkpt lat="42.2689806" lon="13.8008219"><ele>352.25</ele><time>2026-05-02T10:03:31.659Z</time></trkpt><trkpt lat="42.2690911" lon="13.8007271"><ele>352.0</ele><time>2026-05-02T10:03:32.647Z</time></trkpt><trkpt lat="42.2692019" lon="13.8006571"><ele>352.0</ele><time>2026-05-02T10:03:33.647Z</time></trkpt><trkpt lat="42.269321" lon="13.800598"><ele>352.0</ele><time>2026-05-02T10:03:34.657Z</time></trkpt><trkpt lat="42.2694432" lon="13.8005541"><ele>352.0</ele><time>2026-05-02T10:03:35.653Z</time></trkpt><trkpt lat="42.2695607" lon="13.800503"><ele>352.0</ele><time>2026-05-02T10:03:36.675Z</time></trkpt><trkpt lat="42.2696593" lon="13.8004367"><ele>352.0</ele><time>2026-05-02T10:03:37.661Z</time></trkpt><trkpt lat="42.2697679" lon="13.8003246"><ele>352.0</ele><time>2026-05-02T10:03:38.658Z</time></trkpt><trkpt lat="42.2698947" lon="13.8001894"><ele>352.0</ele><time>2026-05-02T10:03:39.664Z</time></trkpt><trkpt lat="42.2700224" lon="13.8000361"><ele>350.75</ele><time>2026-05-02T10:03:40.652Z</time></trkpt><trkpt lat="42.2701368" lon="13.7998978"><ele>349.5</ele><time>2026-05-02T10:03:41.656Z</time></trkpt><trkpt lat="42.2702511" lon="13.7997915"><ele>348.25</ele><time>2026-05-02T10:03:42.653Z</time></trkpt><trkpt lat="42.2703808" lon="13.799688"><ele>347.0</ele><time>2026-05-02T10:03:43.653Z</time></trkpt><trkpt lat="42.2705083" lon="13.7995852"><ele>347.75</ele><time>2026-05-02T10:03:44.675Z</time></trkpt><trkpt lat="42.270628" lon="13.7995206"><ele>348.5</ele><time>2026-05-02T10:03:45.653Z</time></trkpt><trkpt lat="42.2707472" lon="13.7994643"><ele>349.25</ele><time>2026-05-02T10:03:46.666Z</time></trkpt><trkpt lat="42.2708702" lon="13.7994218"><ele>350.0</ele><time>2026-05-02T10:03:47.647Z</time></trkpt><trkpt lat="42.2710086" lon="13.7993753"><ele>349.33333333333337</ele><time>2026-05-02T10:03:48.656Z</time></trkpt><trkpt lat="42.2711526" lon="13.7993217"><ele>348.6666666666667</ele><time>2026-05-02T10:03:49.653Z</time></trkpt><trkpt lat="42.2713054" lon="13.7992426"><ele>348.0</ele><time>2026-05-02T10:03:50.657Z</time></trkpt><trkpt lat="42.2714663" lon="13.7991643"><ele>348.0</ele><time>2026-05-02T10:03:51.67Z</time></trkpt><trkpt lat="42.2716325" lon="13.7990803"><ele>348.0</ele><time>2026-05-02T10:03:52.674Z</time></trkpt><trkpt lat="42.2718054" lon="13.7989917"><ele>348.0</ele><time>2026-05-02T10:03:53.658Z</time></trkpt><trkpt lat="42.2719825" lon="13.7988893"><ele>348.0</ele><time>2026-05-02T10:03:54.664Z</time></trkpt><trkpt lat="42.2721524" lon="13.7987935"><ele>348.0</ele><time>2026-05-02T10:03:55.668Z</time></trkpt><trkpt lat="42.272289" lon="13.7987044"><ele>348.0</ele><time>2026-05-02T10:03:56.659Z</time></trkpt><trkpt lat="42.2724021" lon="13.7986192"><ele>347.6666666666667</ele><time>2026-05-02T10:03:57.669Z</time></trkpt><trkpt lat="42.2725236" lon="13.7985042"><ele>347.33333333333337</ele><time>2026-05-02T10:03:58.647Z</time></trkpt><trkpt lat="42.272662" lon="13.7983892"><ele>347.0</ele><time>2026-05-02T10:03:59.656Z</time></trkpt><trkpt lat="42.2727993" lon="13.7982803"><ele>347.0</ele><time>2026-05-02T10:04:00.662Z</time></trkpt><trkpt lat="42.272917" lon="13.7981831"><ele>347.0</ele><time>2026-05-02T10:04:01.655Z</time></trkpt><trkpt lat="42.2730461" lon="13.7980913"><ele>347.0</ele><time>2026-05-02T10:04:02.661Z</time></trkpt><trkpt lat="42.2731906" lon="13.7980177"><ele>347.0</ele><time>2026-05-02T10:04:03.655Z</time></trkpt><trkpt lat="42.2733446" lon="13.7979377"><ele>346.33333333333337</ele><time>2026-05-02T10:04:04.671Z</time></trkpt><trkpt lat="42.2735084" lon="13.797844"><ele>345.6666666666667</ele><time>2026-05-02T10:04:05.665Z</time></trkpt><trkpt lat="42.2736813" lon="13.7977293"><ele>345.0</ele><time>2026-05-02T10:04:06.66Z</time></trkpt><trkpt lat="42.2738682" lon="13.7975912"><ele>345.6666666666667</ele><time>2026-05-02T10:04:07.667Z</time></trkpt><trkpt lat="42.2740392" lon="13.7974653"><ele>346.33333333333337</ele><time>2026-05-02T10:04:08.665Z</time></trkpt><trkpt lat="42.2741739" lon="13.7973476"><ele>347.0</ele><time>2026-05-02T10:04:09.656Z</time></trkpt><trkpt lat="42.2742829" lon="13.7972379"><ele>347.0</ele><time>2026-05-02T10:04:10.657Z</time></trkpt><trkpt lat="42.2743985" lon="13.797118"><ele>347.0</ele><time>2026-05-02T10:04:11.664Z</time></trkpt><trkpt lat="42.2745353" lon="13.7969984"><ele>347.0</ele><time>2026-05-02T10:04:12.656Z</time></trkpt><trkpt lat="42.2746833" lon="13.7968917"><ele>347.0</ele><time>2026-05-02T10:04:13.653Z</time></trkpt><trkpt lat="42.274817" lon="13.7967976"><ele>347.0</ele><time>2026-05-02T10:04:14.644Z</time></trkpt><trkpt lat="42.2749378" lon="13.7967213"><ele>347.0</ele><time>2026-05-02T10:04:15.653Z</time></trkpt><trkpt lat="42.2750415" lon="13.7966423"><ele>347.0</ele><time>2026-05-02T10:04:16.646Z</time></trkpt><trkpt lat="42.2751405" lon="13.7965403"><ele>347.0</ele><time>2026-05-02T10:04:17.661Z</time></trkpt><trkpt lat="42.2752255" lon="13.7964226"><ele>347.0</ele><time>2026-05-02T10:04:18.646Z</time></trkpt><trkpt lat="42.2753182" lon="13.7963307"><ele>347.0</ele><time>2026-05-02T10:04:19.652Z</time></trkpt><trkpt lat="42.2754184" lon="13.7962884"><ele>347.0</ele><time>2026-05-02T10:04:20.65Z</time></trkpt><trkpt lat="42.2755311" lon="13.796248"><ele>347.0</ele><time>2026-05-02T10:04:21.655Z</time></trkpt><trkpt lat="42.2756437" lon="13.7962134"><ele>347.0</ele><time>2026-05-02T10:04:22.662Z</time></trkpt><trkpt lat="42.275753" lon="13.7961473"><ele>347.0</ele><time>2026-05-02T10:04:23.653Z</time></trkpt><trkpt lat="42.2758468" lon="13.7960633"><ele>347.0</ele><time>2026-05-02T10:04:24.654Z</time></trkpt><trkpt lat="42.2759454" lon="13.7959594"><ele>347.0</ele><time>2026-05-02T10:04:25.653Z</time></trkpt><trkpt lat="42.2760639" lon="13.7958291"><ele>347.0</ele><time>2026-05-02T10:04:26.661Z</time></trkpt><trkpt lat="42.2761855" lon="13.7956882"><ele>347.0</ele><time>2026-05-02T10:04:27.658Z</time></trkpt><trkpt lat="42.2762999" lon="13.7955504"><ele>347.0</ele><time>2026-05-02T10:04:28.651Z</time></trkpt><trkpt lat="42.2764058" lon="13.7954309"><ele>347.0</ele><time>2026-05-02T10:04:29.662Z</time></trkpt><trkpt lat="42.2765257" lon="13.7953506"><ele>347.0</ele><time>2026-05-02T10:04:30.667Z</time></trkpt><trkpt lat="42.2766515" lon="13.7952886"><ele>347.0</ele><time>2026-05-02T10:04:31.665Z</time></trkpt><trkpt lat="42.2767919" lon="13.7952256"><ele>347.33333333333337</ele><time>2026-05-02T10:04:32.653Z</time></trkpt><trkpt lat="42.2769495" lon="13.795165"><ele>347.6666666666667</ele><time>2026-05-02T10:04:33.644Z</time></trkpt><trkpt lat="42.2771142" lon="13.7951239"><ele>348.0</ele><time>2026-05-02T10:04:34.669Z</time></trkpt><trkpt lat="42.2772786" lon="13.7950985"><ele>348.25</ele><time>2026-05-02T10:04:35.651Z</time></trkpt><trkpt lat="42.2774412" lon="13.79508"><ele>348.5</ele><time>2026-05-02T10:04:36.666Z</time></trkpt><trkpt lat="42.2775878" lon="13.7950693"><ele>348.75</ele><time>2026-05-02T10:04:37.671Z</time></trkpt><trkpt lat="42.2777125" lon="13.7950771"><ele>349.0</ele><time>2026-05-02T10:04:38.654Z</time></trkpt><trkpt lat="42.2778584" lon="13.795101"><ele>349.0</ele><time>2026-05-02T10:04:39.656Z</time></trkpt><trkpt lat="42.2780116" lon="13.79514"><ele>349.0</ele><time>2026-05-02T10:04:40.66Z</time></trkpt><trkpt lat="42.2781743" lon="13.7951946"><ele>349.0</ele><time>2026-05-02T10:04:41.649Z</time></trkpt><trkpt lat="42.2783451" lon="13.7952388"><ele>350.5</ele><time>2026-05-02T10:04:42.657Z</time></trkpt><trkpt lat="42.2785061" lon="13.7952685"><ele>352.0</ele><time>2026-05-02T10:04:43.642Z</time></trkpt><trkpt lat="42.2786524" lon="13.7952878"><ele>353.5</ele><time>2026-05-02T10:04:44.659Z</time></trkpt><trkpt lat="42.2787755" lon="13.7952895"><ele>355.0</ele><time>2026-05-02T10:04:45.657Z</time></trkpt><trkpt lat="42.2788856" lon="13.7952637"><ele>354.25</ele><time>2026-05-02T10:04:46.658Z</time></trkpt><trkpt lat="42.2790078" lon="13.7952269"><ele>353.5</ele><time>2026-05-02T10:04:47.664Z</time></trkpt><trkpt lat="42.2791269" lon="13.7951884"><ele>352.75</ele><time>2026-05-02T10:04:48.664Z</time></trkpt><trkpt lat="42.2792486" lon="13.7951589"><ele>352.0</ele><time>2026-05-02T10:04:49.649Z</time></trkpt><trkpt lat="42.2793714" lon="13.7951145"><ele>349.5</ele><time>2026-05-02T10:04:50.654Z</time></trkpt><trkpt lat="42.2794829" lon="13.7950459"><ele>347.0</ele><time>2026-05-02T10:04:51.65Z</time></trkpt><trkpt lat="42.2795807" lon="13.7949689"><ele>344.5</ele><time>2026-05-02T10:04:52.675Z</time></trkpt><trkpt lat="42.2796733" lon="13.7948876"><ele>342.0</ele><time>2026-05-02T10:04:53.658Z</time></trkpt><trkpt lat="42.2797645" lon="13.7947897"><ele>342.0</ele><time>2026-05-02T10:04:54.649Z</time></trkpt><trkpt lat="42.2798817" lon="13.7946797"><ele>342.0</ele><time>2026-05-02T10:04:55.652Z</time></trkpt><trkpt lat="42.2800053" lon="13.794575"><ele>342.0</ele><time>2026-05-02T10:04:56.661Z</time></trkpt><trkpt lat="42.2801414" lon="13.7944592"><ele>342.0</ele><time>2026-05-02T10:04:57.66Z</time></trkpt><trkpt lat="42.2802812" lon="13.7943276"><ele>342.0</ele><time>2026-05-02T10:04:58.665Z</time></trkpt><trkpt lat="42.2804163" lon="13.7942001"><ele>342.0</ele><time>2026-05-02T10:04:59.666Z</time></trkpt><trkpt lat="42.2805518" lon="13.7940828"><ele>342.0</ele><time>2026-05-02T10:05:00.649Z</time></trkpt><trkpt lat="42.2806819" lon="13.7939746"><ele>342.0</ele><time>2026-05-02T10:05:01.668Z</time></trkpt><trkpt lat="42.2808089" lon="13.7938848"><ele>342.0</ele><time>2026-05-02T10:05:02.653Z</time></trkpt><trkpt lat="42.2809381" lon="13.7938072"><ele>342.0</ele><time>2026-05-02T10:05:03.666Z</time></trkpt><trkpt lat="42.2810649" lon="13.7937482"><ele>342.0</ele><time>2026-05-02T10:05:04.666Z</time></trkpt><trkpt lat="42.2811913" lon="13.7936873"><ele>342.0</ele><time>2026-05-02T10:05:05.649Z</time></trkpt><trkpt lat="42.2813167" lon="13.7936162"><ele>342.0</ele><time>2026-05-02T10:05:06.657Z</time></trkpt><trkpt lat="42.2814429" lon="13.7935439"><ele>342.0</ele><time>2026-05-02T10:05:07.657Z</time></trkpt><trkpt lat="42.2815645" lon="13.7934735"><ele>342.0</ele><time>2026-05-02T10:05:08.648Z</time></trkpt><trkpt lat="42.2816748" lon="13.793406"><ele>342.0</ele><time>2026-05-02T10:05:09.662Z</time></trkpt><trkpt lat="42.2817718" lon="13.7933401"><ele>342.0</ele><time>2026-05-02T10:05:10.649Z</time></trkpt><trkpt lat="42.2818664" lon="13.7932734"><ele>342.0</ele><time>2026-05-02T10:05:11.654Z</time></trkpt><trkpt lat="42.2819591" lon="13.7932039"><ele>342.0</ele><time>2026-05-02T10:05:12.647Z</time></trkpt><trkpt lat="42.2820347" lon="13.7931399"><ele>342.0</ele><time>2026-05-02T10:05:13.654Z</time></trkpt><trkpt lat="42.2821094" lon="13.7930749"><ele>342.0</ele><time>2026-05-02T10:05:14.646Z</time></trkpt><trkpt lat="42.282184" lon="13.7929983"><ele>342.0</ele><time>2026-05-02T10:05:15.65Z</time></trkpt><trkpt lat="42.2822662" lon="13.7929126"><ele>342.0</ele><time>2026-05-02T10:05:16.643Z</time></trkpt><trkpt lat="42.282347" lon="13.79282"><ele>342.0</ele><time>2026-05-02T10:05:17.643Z</time></trkpt><trkpt lat="42.282429" lon="13.7927157"><ele>342.0</ele><time>2026-05-02T10:05:18.663Z</time></trkpt><trkpt lat="42.2825039" lon="13.7925975"><ele>342.1666666666667</ele><time>2026-05-02T10:05:19.662Z</time></trkpt><trkpt lat="42.2825541" lon="13.7924775"><ele>342.3333333333333</ele><time>2026-05-02T10:05:20.674Z</time></trkpt><trkpt lat="42.2825839" lon="13.7923601"><ele>342.5</ele><time>2026-05-02T10:05:21.661Z</time></trkpt><trkpt lat="42.2825973" lon="13.7922613"><ele>342.66666666666663</ele><time>2026-05-02T10:05:22.653Z</time></trkpt><trkpt lat="42.2826117" lon="13.7921277"><ele>342.8333333333333</ele><time>2026-05-02T10:05:24.661Z</time></trkpt><trkpt lat="42.2826815" lon="13.7920822"><ele>343.0</ele><time>2026-05-02T10:05:27.649Z</time></trkpt><trkpt lat="42.2827499" lon="13.7920827"><ele>343.0</ele><time>2026-05-02T10:05:28.65Z</time></trkpt><trkpt lat="42.2828211" lon="13.7920232"><ele>343.0</ele><time>2026-05-02T10:05:29.664Z</time></trkpt><trkpt lat="42.2828911" lon="13.7919505"><ele>343.0</ele><time>2026-05-02T10:05:30.656Z</time></trkpt><trkpt lat="42.282992" lon="13.7918486"><ele>343.0</ele><time>2026-05-02T10:05:31.662Z</time></trkpt><trkpt lat="42.283107" lon="13.7917444"><ele>343.0</ele><time>2026-05-02T10:05:32.646Z</time></trkpt><trkpt lat="42.2832362" lon="13.7916375"><ele>344.0</ele><time>2026-05-02T10:05:33.654Z</time></trkpt><trkpt lat="42.2833649" lon="13.7915363"><ele>345.0</ele><time>2026-05-02T10:05:34.659Z</time></trkpt><trkpt lat="42.2834688" lon="13.7914495"><ele>346.0</ele><time>2026-05-02T10:05:35.645Z</time></trkpt><trkpt lat="42.2835594" lon="13.7913773"><ele>347.0</ele><time>2026-05-02T10:05:36.663Z</time></trkpt><trkpt lat="42.283628" lon="13.7913256"><ele>347.0</ele><time>2026-05-02T10:05:37.655Z</time></trkpt><trkpt lat="42.2837039" lon="13.7912343"><ele>347.0</ele><time>2026-05-02T10:05:39.658Z</time></trkpt><trkpt lat="42.2836384" lon="13.7911003"><ele>347.0</ele><time>2026-05-02T10:05:41.66Z</time></trkpt><trkpt lat="42.2835481" lon="13.7910185"><ele>347.0</ele><time>2026-05-02T10:05:42.647Z</time></trkpt><trkpt lat="42.2834423" lon="13.7909027"><ele>347.25</ele><time>2026-05-02T10:05:43.648Z</time></trkpt><trkpt lat="42.2833329" lon="13.7907856"><ele>347.5</ele><time>2026-05-02T10:05:44.647Z</time></trkpt><trkpt lat="42.2832482" lon="13.7906673"><ele>347.75</ele><time>2026-05-02T10:05:45.665Z</time></trkpt><trkpt lat="42.2831765" lon="13.7905652"><ele>348.0</ele><time>2026-05-02T10:05:46.657Z</time></trkpt><trkpt lat="42.2831222" lon="13.7904749"><ele>347.1428571428571</ele><time>2026-05-02T10:05:47.652Z</time></trkpt><trkpt lat="42.2830791" lon="13.7904069"><ele>346.2857142857143</ele><time>2026-05-02T10:05:48.662Z</time></trkpt><trkpt lat="42.2830496" lon="13.7903253"><ele>345.42857142857144</ele><time>2026-05-02T10:05:49.671Z</time></trkpt><trkpt lat="42.283032" lon="13.7902394"><ele>344.57142857142856</ele><time>2026-05-02T10:05:50.645Z</time></trkpt><trkpt lat="42.2830438" lon="13.7901382"><ele>343.7142857142857</ele><time>2026-05-02T10:05:51.652Z</time></trkpt><trkpt lat="42.2830594" lon="13.79004"><ele>342.85714285714283</ele><time>2026-05-02T10:05:52.645Z</time></trkpt><trkpt lat="42.2830719" lon="13.789954"><ele>342.0</ele><time>2026-05-02T10:05:53.655Z</time></trkpt><trkpt lat="42.2830793" lon="13.7898006"><ele>342.5</ele><time>2026-05-02T10:05:55.652Z</time></trkpt><trkpt lat="42.2831226" lon="13.7896891"><ele>343.0</ele><time>2026-05-02T10:05:57.643Z</time></trkpt><trkpt lat="42.2831666" lon="13.7895868"><ele>343.5</ele><time>2026-05-02T10:05:59.655Z</time></trkpt><trkpt lat="42.28318" lon="13.7895005"><ele>344.0</ele><time>2026-05-02T10:06:00.655Z</time></trkpt><trkpt lat="42.2831959" lon="13.7894007"><ele>344.5</ele><time>2026-05-02T10:06:01.649Z</time></trkpt><trkpt lat="42.2832025" lon="13.789301"><ele>345.0</ele><time>2026-05-02T10:06:02.659Z</time></trkpt><trkpt lat="42.2832156" lon="13.7892016"><ele>345.0</ele><time>2026-05-02T10:06:03.659Z</time></trkpt><trkpt lat="42.2832363" lon="13.7891002"><ele>345.0</ele><time>2026-05-02T10:06:04.655Z</time></trkpt><trkpt lat="42.283263" lon="13.7889936"><ele>345.0</ele><time>2026-05-02T10:06:05.666Z</time></trkpt><trkpt lat="42.2832948" lon="13.7888904"><ele>345.0</ele><time>2026-05-02T10:06:06.647Z</time></trkpt><trkpt lat="42.2833226" lon="13.788761"><ele>345.0</ele><time>2026-05-02T10:06:07.65Z</time></trkpt><trkpt lat="42.2833508" lon="13.7886134"><ele>344.2</ele><time>2026-05-02T10:06:08.65Z</time></trkpt><trkpt lat="42.2833736" lon="13.7884732"><ele>343.4</ele><time>2026-05-02T10:06:09.658Z</time></trkpt><trkpt lat="42.2833812" lon="13.7883367"><ele>342.6</ele><time>2026-05-02T10:06:10.658Z</time></trkpt><trkpt lat="42.2833751" lon="13.7881992"><ele>341.8</ele><time>2026-05-02T10:06:11.659Z</time></trkpt><trkpt lat="42.2833609" lon="13.7880535"><ele>341.0</ele><time>2026-05-02T10:06:12.666Z</time></trkpt><trkpt lat="42.2833274" lon="13.7878964"><ele>341.0</ele><time>2026-05-02T10:06:13.66Z</time></trkpt><trkpt lat="42.2832793" lon="13.7877415"><ele>341.0</ele><time>2026-05-02T10:06:14.656Z</time></trkpt><trkpt lat="42.2832138" lon="13.7875996"><ele>341.0</ele><time>2026-05-02T10:06:15.662Z</time></trkpt><trkpt lat="42.2831438" lon="13.7874787"><ele>341.0</ele><time>2026-05-02T10:06:16.665Z</time></trkpt><trkpt lat="42.2830795" lon="13.7873765"><ele>341.0</ele><time>2026-05-02T10:06:17.669Z</time></trkpt><trkpt lat="42.2830337" lon="13.7872899"><ele>341.0</ele><time>2026-05-02T10:06:18.646Z</time></trkpt><trkpt lat="42.2829741" lon="13.7871835"><ele>341.0</ele><time>2026-05-02T10:06:20.653Z</time></trkpt><trkpt lat="42.2828873" lon="13.7870157"><ele>341.0</ele><time>2026-05-02T10:06:22.656Z</time></trkpt><trkpt lat="42.2828334" lon="13.7868984"><ele>341.0</ele><time>2026-05-02T10:06:23.666Z</time></trkpt><trkpt lat="42.2827659" lon="13.7867475"><ele>341.0</ele><time>2026-05-02T10:06:24.649Z</time></trkpt><trkpt lat="42.2826977" lon="13.786588"><ele>341.0</ele><time>2026-05-02T10:06:25.667Z</time></trkpt><trkpt lat="42.2826331" lon="13.7864052"><ele>341.0</ele><time>2026-05-02T10:06:26.659Z</time></trkpt><trkpt lat="42.2825688" lon="13.7862157"><ele>341.0</ele><time>2026-05-02T10:06:27.654Z</time></trkpt><trkpt lat="42.2825008" lon="13.7860211"><ele>340.6666666666667</ele><time>2026-05-02T10:06:28.667Z</time></trkpt><trkpt lat="42.2824311" lon="13.7858115"><ele>340.3333333333333</ele><time>2026-05-02T10:06:29.66Z</time></trkpt><trkpt lat="42.2823635" lon="13.7855866"><ele>340.0</ele><time>2026-05-02T10:06:30.668Z</time></trkpt><trkpt lat="42.2822943" lon="13.7853504"><ele>340.0</ele><time>2026-05-02T10:06:31.648Z</time></trkpt><trkpt lat="42.2822276" lon="13.7851079"><ele>340.0</ele><time>2026-05-02T10:06:32.66Z</time></trkpt><trkpt lat="42.2821606" lon="13.784864"><ele>340.0</ele><time>2026-05-02T10:06:33.656Z</time></trkpt><trkpt lat="42.2820901" lon="13.7845995"><ele>340.0</ele><time>2026-05-02T10:06:34.659Z</time></trkpt><trkpt lat="42.2820192" lon="13.7843179"><ele>340.0</ele><time>2026-05-02T10:06:35.658Z</time></trkpt><trkpt lat="42.2819525" lon="13.784034"><ele>340.0</ele><time>2026-05-02T10:06:36.655Z</time></trkpt><trkpt lat="42.2818848" lon="13.7837725"><ele>339.66666666666663</ele><time>2026-05-02T10:06:37.653Z</time></trkpt><trkpt lat="42.2818169" lon="13.7835106"><ele>339.3333333333333</ele><time>2026-05-02T10:06:38.647Z</time></trkpt><trkpt lat="42.2817471" lon="13.7832551"><ele>339.0</ele><time>2026-05-02T10:06:39.666Z</time></trkpt><trkpt lat="42.2816696" lon="13.7829974"><ele>339.0</ele><time>2026-05-02T10:06:40.649Z</time></trkpt><trkpt lat="42.2815829" lon="13.7827415"><ele>339.0</ele><time>2026-05-02T10:06:41.664Z</time></trkpt><trkpt lat="42.2814943" lon="13.7824874"><ele>339.0</ele><time>2026-05-02T10:06:42.646Z</time></trkpt><trkpt lat="42.2813947" lon="13.7822263"><ele>340.0</ele><time>2026-05-02T10:06:43.657Z</time></trkpt><trkpt lat="42.2813015" lon="13.7819657"><ele>341.0</ele><time>2026-05-02T10:06:44.649Z</time></trkpt><trkpt lat="42.2812268" lon="13.7817197"><ele>342.0</ele><time>2026-05-02T10:06:45.661Z</time></trkpt><trkpt lat="42.2811522" lon="13.7814912"><ele>342.0</ele><time>2026-05-02T10:06:46.659Z</time></trkpt><trkpt lat="42.2810834" lon="13.7812858"><ele>342.0</ele><time>2026-05-02T10:06:47.655Z</time></trkpt><trkpt lat="42.281023" lon="13.7810903"><ele>342.0</ele><time>2026-05-02T10:06:48.653Z</time></trkpt><trkpt lat="42.2809642" lon="13.7808817"><ele>341.6666666666667</ele><time>2026-05-02T10:06:49.644Z</time></trkpt><trkpt lat="42.280908" lon="13.7806568"><ele>341.33333333333337</ele><time>2026-05-02T10:06:50.653Z</time></trkpt><trkpt lat="42.2808507" lon="13.7804324"><ele>341.0</ele><time>2026-05-02T10:06:51.664Z</time></trkpt><trkpt lat="42.2808031" lon="13.780224"><ele>342.0</ele><time>2026-05-02T10:06:52.646Z</time></trkpt><trkpt lat="42.2807632" lon="13.7800252"><ele>343.0</ele><time>2026-05-02T10:06:53.652Z</time></trkpt><trkpt lat="42.2806986" lon="13.7798238"><ele>344.0</ele><time>2026-05-02T10:06:54.648Z</time></trkpt><trkpt lat="42.2806204" lon="13.7796219"><ele>344.0</ele><time>2026-05-02T10:06:55.655Z</time></trkpt><trkpt lat="42.2805338" lon="13.7794196"><ele>344.0</ele><time>2026-05-02T10:06:56.655Z</time></trkpt><trkpt lat="42.2804646" lon="13.7792244"><ele>344.0</ele><time>2026-05-02T10:06:57.654Z</time></trkpt><trkpt lat="42.2804165" lon="13.779044"><ele>344.33333333333337</ele><time>2026-05-02T10:06:58.659Z</time></trkpt><trkpt lat="42.2803859" lon="13.7788471"><ele>344.6666666666667</ele><time>2026-05-02T10:06:59.649Z</time></trkpt><trkpt lat="42.2803566" lon="13.778622"><ele>345.0</ele><time>2026-05-02T10:07:00.654Z</time></trkpt><trkpt lat="42.2803239" lon="13.7783685"><ele>345.0</ele><time>2026-05-02T10:07:01.653Z</time></trkpt><trkpt lat="42.2802932" lon="13.7780936"><ele>345.0</ele><time>2026-05-02T10:07:02.649Z</time></trkpt><trkpt lat="42.2802562" lon="13.7777955"><ele>345.0</ele><time>2026-05-02T10:07:03.693Z</time></trkpt><trkpt lat="42.2802264" lon="13.7775119"><ele>345.3333333333333</ele><time>2026-05-02T10:07:04.66Z</time></trkpt><trkpt lat="42.280187" lon="13.7772731"><ele>345.66666666666663</ele><time>2026-05-02T10:07:05.654Z</time></trkpt><trkpt lat="42.2801484" lon="13.7770514"><ele>346.0</ele><time>2026-05-02T10:07:06.664Z</time></trkpt><trkpt lat="42.2801003" lon="13.7768167"><ele>346.0</ele><time>2026-05-02T10:07:07.665Z</time></trkpt><trkpt lat="42.2800551" lon="13.7765746"><ele>346.0</ele><time>2026-05-02T10:07:08.668Z</time></trkpt><trkpt lat="42.2800146" lon="13.7763412"><ele>346.0</ele><time>2026-05-02T10:07:09.665Z</time></trkpt><trkpt lat="42.2799842" lon="13.7761013"><ele>346.25</ele><time>2026-05-02T10:07:10.66Z</time></trkpt><trkpt lat="42.2799619" lon="13.7758776"><ele>346.5</ele><time>2026-05-02T10:07:11.666Z</time></trkpt><trkpt lat="42.2799539" lon="13.775681"><ele>346.75</ele><time>2026-05-02T10:07:12.667Z</time></trkpt><trkpt lat="42.2799534" lon="13.7755275"><ele>347.0</ele><time>2026-05-02T10:07:13.68Z</time></trkpt><trkpt lat="42.2799548" lon="13.7754409"><ele>347.0</ele><time>2026-05-02T10:07:14.663Z</time></trkpt><trkpt lat="42.280018" lon="13.775376"><ele>347.0</ele><time>2026-05-02T10:07:16.656Z</time></trkpt><trkpt lat="42.2800854" lon="13.7753362"><ele>347.0</ele><time>2026-05-02T10:07:17.669Z</time></trkpt><trkpt lat="42.2801862" lon="13.7752654"><ele>347.0</ele><time>2026-05-02T10:07:18.673Z</time></trkpt><trkpt lat="42.2802955" lon="13.775198"><ele>347.0</ele><time>2026-05-02T10:07:19.684Z</time></trkpt><trkpt lat="42.2804154" lon="13.7751197"><ele>347.0</ele><time>2026-05-02T10:07:20.653Z</time></trkpt><trkpt lat="42.2805573" lon="13.7750254"><ele>347.0</ele><time>2026-05-02T10:07:21.652Z</time></trkpt><trkpt lat="42.2807111" lon="13.7749155"><ele>347.0</ele><time>2026-05-02T10:07:22.651Z</time></trkpt><trkpt lat="42.2808925" lon="13.7747917"><ele>347.0</ele><time>2026-05-02T10:07:23.67Z</time></trkpt><trkpt lat="42.2810726" lon="13.774677"><ele>347.0</ele><time>2026-05-02T10:07:24.649Z</time></trkpt><trkpt lat="42.2812241" lon="13.7745852"><ele>347.0</ele><time>2026-05-02T10:07:25.674Z</time></trkpt><trkpt lat="42.2813308" lon="13.7745239"><ele>347.0</ele><time>2026-05-02T10:07:26.651Z</time></trkpt><trkpt lat="42.2814092" lon="13.7744823"><ele>347.0</ele><time>2026-05-02T10:07:27.66Z</time></trkpt><trkpt lat="42.2814706" lon="13.7744507"><ele>347.0</ele><time>2026-05-02T10:07:28.659Z</time></trkpt><trkpt lat="42.2815321" lon="13.774375"><ele>347.0</ele><time>2026-05-02T10:07:30.675Z</time></trkpt><trkpt lat="42.2816109" lon="13.7743965"><ele>347.0</ele><time>2026-05-02T10:32:30.682Z</time></trkpt><trkpt lat="42.2816712" lon="13.7744541"><ele>347.0</ele><time>2026-05-02T10:32:31.672Z</time></trkpt><trkpt lat="42.2817583" lon="13.7745156"><ele>347.20000000000005</ele><time>2026-05-02T10:32:32.671Z</time></trkpt><trkpt lat="42.2818571" lon="13.7745595"><ele>347.4</ele><time>2026-05-02T10:32:33.668Z</time></trkpt><trkpt lat="42.2819622" lon="13.7745825"><ele>347.6</ele><time>2026-05-02T10:32:34.654Z</time></trkpt><trkpt lat="42.2820661" lon="13.7745989"><ele>347.79999999999995</ele><time>2026-05-02T10:32:35.659Z</time></trkpt><trkpt lat="42.2821797" lon="13.7746315"><ele>348.0</ele><time>2026-05-02T10:32:36.662Z</time></trkpt><trkpt lat="42.2822933" lon="13.774668"><ele>348.0</ele><time>2026-05-02T10:32:37.648Z</time></trkpt><trkpt lat="42.2824007" lon="13.7746963"><ele>348.0</ele><time>2026-05-02T10:32:38.644Z</time></trkpt><trkpt lat="42.2824935" lon="13.7747017"><ele>348.0</ele><time>2026-05-02T10:32:39.65Z</time></trkpt><trkpt lat="42.2825802" lon="13.7746753"><ele>348.0</ele><time>2026-05-02T10:32:40.647Z</time></trkpt><trkpt lat="42.2826709" lon="13.7746198"><ele>348.0</ele><time>2026-05-02T10:32:41.648Z</time></trkpt><trkpt lat="42.2827585" lon="13.7745594"><ele>348.0</ele><time>2026-05-02T10:32:42.655Z</time></trkpt><trkpt lat="42.2828346" lon="13.774508"><ele>348.0</ele><time>2026-05-02T10:32:43.654Z</time></trkpt><trkpt lat="42.2828991" lon="13.7744607"><ele>348.0</ele><time>2026-05-02T10:32:44.645Z</time></trkpt><trkpt lat="42.2829578" lon="13.7744243"><ele>348.0</ele><time>2026-05-02T10:32:45.651Z</time></trkpt><trkpt lat="42.2830726" lon="13.7743386"><ele>348.0</ele><time>2026-05-02T10:32:47.658Z</time></trkpt><trkpt lat="42.2831416" lon="13.7742734"><ele>348.0</ele><time>2026-05-02T10:32:48.664Z</time></trkpt><trkpt lat="42.2832212" lon="13.7741962"><ele>348.75</ele><time>2026-05-02T10:32:49.655Z</time></trkpt><trkpt lat="42.2833044" lon="13.7741148"><ele>349.5</ele><time>2026-05-02T10:32:50.657Z</time></trkpt><trkpt lat="42.2833872" lon="13.7740355"><ele>350.25</ele><time>2026-05-02T10:32:51.654Z</time></trkpt><trkpt lat="42.2834998" lon="13.7739312"><ele>351.0</ele><time>2026-05-02T10:32:52.654Z</time></trkpt><trkpt lat="42.2836293" lon="13.7738331"><ele>351.0</ele><time>2026-05-02T10:32:53.66Z</time></trkpt><trkpt lat="42.2837427" lon="13.7737434"><ele>351.0</ele><time>2026-05-02T10:32:54.667Z</time></trkpt><trkpt lat="42.2838618" lon="13.7736731"><ele>351.0</ele><time>2026-05-02T10:32:55.664Z</time></trkpt><trkpt lat="42.2839819" lon="13.7736278"><ele>351.0</ele><time>2026-05-02T10:32:56.663Z</time></trkpt><trkpt lat="42.2840747" lon="13.7735843"><ele>351.3333333333333</ele><time>2026-05-02T10:32:57.657Z</time></trkpt><trkpt lat="42.2841563" lon="13.773518"><ele>351.6666666666667</ele><time>2026-05-02T10:32:58.661Z</time></trkpt><trkpt lat="42.284225" lon="13.7734421"><ele>352.0</ele><time>2026-05-02T10:32:59.668Z</time></trkpt><trkpt lat="42.2842877" lon="13.7733709"><ele>352.33333333333337</ele><time>2026-05-02T10:33:00.662Z</time></trkpt><trkpt lat="42.2843505" lon="13.7733217"><ele>352.6666666666667</ele><time>2026-05-02T10:33:01.679Z</time></trkpt><trkpt lat="42.2844322" lon="13.7732691"><ele>353.0</ele><time>2026-05-02T10:33:03.653Z</time></trkpt><trkpt lat="42.2844554" lon="13.7731698"><ele>353.0</ele><time>2026-05-02T10:33:06.654Z</time></trkpt><trkpt lat="42.2843702" lon="13.773216"><ele>353.0</ele><time>2026-05-02T10:33:09.654Z</time></trkpt><trkpt lat="42.2842813" lon="13.7733602"><ele>353.0</ele><time>2026-05-02T10:33:11.66Z</time></trkpt><trkpt lat="42.2842011" lon="13.7734332"><ele>353.0</ele><time>2026-05-02T10:33:12.646Z</time></trkpt><trkpt lat="42.2841233" lon="13.7735076"><ele>353.0</ele><time>2026-05-02T10:33:13.655Z</time></trkpt><trkpt lat="42.2840565" lon="13.7735665"><ele>352.59999999999997</ele><time>2026-05-02T10:33:14.654Z</time></trkpt><trkpt lat="42.2839704" lon="13.7736171"><ele>352.2</ele><time>2026-05-02T10:33:15.649Z</time></trkpt><trkpt lat="42.2838709" lon="13.7736457"><ele>351.8</ele><time>2026-05-02T10:33:16.674Z</time></trkpt><trkpt lat="42.2837596" lon="13.7736834"><ele>351.4</ele><time>2026-05-02T10:33:17.651Z</time></trkpt><trkpt lat="42.2836538" lon="13.7737571"><ele>351.0</ele><time>2026-05-02T10:33:18.661Z</time></trkpt><trkpt lat="42.2835574" lon="13.7738449"><ele>351.0</ele><time>2026-05-02T10:33:19.654Z</time></trkpt><trkpt lat="42.28346" lon="13.7739278"><ele>351.0</ele><time>2026-05-02T10:33:20.656Z</time></trkpt><trkpt lat="42.2833616" lon="13.7740065"><ele>351.0</ele><time>2026-05-02T10:33:21.654Z</time></trkpt><trkpt lat="42.2832893" lon="13.7740785"><ele>351.0</ele><time>2026-05-02T10:33:22.662Z</time></trkpt><trkpt lat="42.2832324" lon="13.7741464"><ele>351.0</ele><time>2026-05-02T10:33:23.645Z</time></trkpt><trkpt lat="42.2831844" lon="13.7742079"><ele>351.0</ele><time>2026-05-02T10:33:24.655Z</time></trkpt><trkpt lat="42.2831047" lon="13.774293"><ele>351.0</ele><time>2026-05-02T10:33:26.653Z</time></trkpt><trkpt lat="42.2830453" lon="13.7743325"><ele>351.0</ele><time>2026-05-02T10:33:28.651Z</time></trkpt><trkpt lat="42.2829703" lon="13.774387"><ele>351.0</ele><time>2026-05-02T10:33:30.652Z</time></trkpt><trkpt lat="42.2828834" lon="13.7744615"><ele>351.0</ele><time>2026-05-02T10:33:32.647Z</time></trkpt><trkpt lat="42.2828715" lon="13.7745585"><ele>351.0</ele><time>2026-05-02T10:33:34.65Z</time></trkpt><trkpt lat="42.2829431" lon="13.7745207"><ele>351.00000000000006</ele><time>2026-05-02T10:33:38.656Z</time></trkpt><trkpt lat="42.2829787" lon="13.7744203"><ele>351.0</ele><time>2026-05-02T10:33:41.645Z</time></trkpt><trkpt lat="42.283006" lon="13.7743308"><ele>351.0</ele><time>2026-05-02T10:33:42.647Z</time></trkpt><trkpt lat="42.2830261" lon="13.7742383"><ele>351.0</ele><time>2026-05-02T10:33:43.66Z</time></trkpt><trkpt lat="42.2830456" lon="13.7741496"><ele>351.0</ele><time>2026-05-02T10:33:44.681Z</time></trkpt><trkpt lat="42.2830715" lon="13.7740557"><ele>351.00000000000006</ele><time>2026-05-02T10:33:45.678Z</time></trkpt><trkpt lat="42.2830903" lon="13.7739548"><ele>351.0</ele><time>2026-05-02T10:33:46.666Z</time></trkpt><trkpt lat="42.2831105" lon="13.7738596"><ele>351.0</ele><time>2026-05-02T10:33:47.657Z</time></trkpt><trkpt lat="42.2831572" lon="13.773709"><ele>351.0</ele><time>2026-05-02T10:33:49.655Z</time></trkpt><trkpt lat="42.2831791" lon="13.7736118"><ele>351.0</ele><time>2026-05-02T10:33:50.66Z</time></trkpt><trkpt lat="42.2832095" lon="13.7735069"><ele>351.0</ele><time>2026-05-02T10:33:51.662Z</time></trkpt><trkpt lat="42.2832338" lon="13.7733985"><ele>351.0</ele><time>2026-05-02T10:33:52.643Z</time></trkpt><trkpt lat="42.2832651" lon="13.7733061"><ele>351.0</ele><time>2026-05-02T10:33:53.652Z</time></trkpt><trkpt lat="42.2832958" lon="13.7732003"><ele>353.5</ele><time>2026-05-02T10:33:54.679Z</time></trkpt><trkpt lat="42.2833217" lon="13.773094"><ele>356.0</ele><time>2026-05-02T10:33:55.656Z</time></trkpt><trkpt lat="42.2833495" lon="13.772992"><ele>358.5</ele><time>2026-05-02T10:33:56.668Z</time></trkpt><trkpt lat="42.2833824" lon="13.7728784"><ele>361.0</ele><time>2026-05-02T10:33:57.656Z</time></trkpt><trkpt lat="42.283408" lon="13.7727643"><ele>363.5</ele><time>2026-05-02T10:33:58.65Z</time></trkpt><trkpt lat="42.2834293" lon="13.7726659"><ele>366.0</ele><time>2026-05-02T10:33:59.651Z</time></trkpt><trkpt lat="42.2834497" lon="13.7725546"><ele>367.8333333333333</ele><time>2026-05-02T10:34:00.662Z</time></trkpt><trkpt lat="42.2834732" lon="13.7724206"><ele>369.6666666666667</ele><time>2026-05-02T10:34:01.656Z</time></trkpt><trkpt lat="42.283501" lon="13.7723006"><ele>371.5</ele><time>2026-05-02T10:34:02.65Z</time></trkpt><trkpt lat="42.2835207" lon="13.7722005"><ele>373.33333333333337</ele><time>2026-05-02T10:34:03.654Z</time></trkpt><trkpt lat="42.2835275" lon="13.7721008"><ele>375.1666666666667</ele><time>2026-05-02T10:34:04.653Z</time></trkpt><trkpt lat="42.2835348" lon="13.7719944"><ele>377.0</ele><time>2026-05-02T10:34:05.64Z</time></trkpt><trkpt lat="42.283538" lon="13.7718899"><ele>378.20000000000005</ele><time>2026-05-02T10:34:06.671Z</time></trkpt><trkpt lat="42.2835454" lon="13.7717673"><ele>379.4</ele><time>2026-05-02T10:34:07.654Z</time></trkpt><trkpt lat="42.2835572" lon="13.7716433"><ele>380.6</ele><time>2026-05-02T10:34:08.647Z</time></trkpt><trkpt lat="42.2835552" lon="13.771519"><ele>381.79999999999995</ele><time>2026-05-02T10:34:09.651Z</time></trkpt><trkpt lat="42.2835402" lon="13.7713881"><ele>383.0</ele><time>2026-05-02T10:34:10.66Z</time></trkpt><trkpt lat="42.2835287" lon="13.7712593"><ele>383.0</ele><time>2026-05-02T10:34:11.657Z</time></trkpt><trkpt lat="42.2835147" lon="13.7711327"><ele>383.0</ele><time>2026-05-02T10:34:12.658Z</time></trkpt><trkpt lat="42.2834983" lon="13.7710155"><ele>383.0</ele><time>2026-05-02T10:34:13.651Z</time></trkpt><trkpt lat="42.2834847" lon="13.7709059"><ele>383.0</ele><time>2026-05-02T10:34:14.657Z</time></trkpt><trkpt lat="42.2834754" lon="13.7707907"><ele>383.0</ele><time>2026-05-02T10:34:15.659Z</time></trkpt><trkpt lat="42.2834748" lon="13.7706828"><ele>383.0</ele><time>2026-05-02T10:34:16.654Z</time></trkpt><trkpt lat="42.2834899" lon="13.7705033"><ele>382.5</ele><time>2026-05-02T10:34:18.644Z</time></trkpt><trkpt lat="42.2834909" lon="13.7704033"><ele>382.0</ele><time>2026-05-02T10:34:19.651Z</time></trkpt><trkpt lat="42.2834956" lon="13.7702942"><ele>381.5</ele><time>2026-05-02T10:34:20.664Z</time></trkpt><trkpt lat="42.2834857" lon="13.7701788"><ele>381.0</ele><time>2026-05-02T10:34:21.656Z</time></trkpt><trkpt lat="42.2834407" lon="13.7700567"><ele>380.5</ele><time>2026-05-02T10:34:22.668Z</time></trkpt><trkpt lat="42.2834114" lon="13.7699385"><ele>380.0</ele><time>2026-05-02T10:34:23.657Z</time></trkpt><trkpt lat="42.2834082" lon="13.7698246"><ele>379.6</ele><time>2026-05-02T10:34:24.659Z</time></trkpt><trkpt lat="42.2834147" lon="13.7696761"><ele>379.2</ele><time>2026-05-02T10:34:25.655Z</time></trkpt><trkpt lat="42.283406" lon="13.7695418"><ele>378.79999999999995</ele><time>2026-05-02T10:34:26.651Z</time></trkpt><trkpt lat="42.2833969" lon="13.7693993"><ele>378.4</ele><time>2026-05-02T10:34:27.669Z</time></trkpt><trkpt lat="42.2833868" lon="13.7692476"><ele>378.0</ele><time>2026-05-02T10:34:28.652Z</time></trkpt><trkpt lat="42.283375" lon="13.7690878"><ele>380.0</ele><time>2026-05-02T10:34:29.665Z</time></trkpt><trkpt lat="42.2833553" lon="13.7689753"><ele>382.0</ele><time>2026-05-02T10:34:30.649Z</time></trkpt><trkpt lat="42.2833271" lon="13.7688199"><ele>384.0</ele><time>2026-05-02T10:34:32.667Z</time></trkpt><trkpt lat="42.2833174" lon="13.7687194"><ele>386.0</ele><time>2026-05-02T10:34:33.65Z</time></trkpt><trkpt lat="42.2833037" lon="13.7686082"><ele>388.0</ele><time>2026-05-02T10:34:34.66Z</time></trkpt><trkpt lat="42.2833014" lon="13.7684836"><ele>390.59999999999997</ele><time>2026-05-02T10:34:35.662Z</time></trkpt><trkpt lat="42.2833054" lon="13.7683594"><ele>393.2</ele><time>2026-05-02T10:34:36.665Z</time></trkpt><trkpt lat="42.2833047" lon="13.7682154"><ele>395.8</ele><time>2026-05-02T10:34:37.658Z</time></trkpt><trkpt lat="42.2833105" lon="13.768054"><ele>398.4</ele><time>2026-05-02T10:34:38.656Z</time></trkpt><trkpt lat="42.2833281" lon="13.7678836"><ele>401.0</ele><time>2026-05-02T10:34:39.66Z</time></trkpt><trkpt lat="42.2833448" lon="13.7676917"><ele>402.0</ele><time>2026-05-02T10:34:40.676Z</time></trkpt><trkpt lat="42.2833636" lon="13.7675237"><ele>403.0</ele><time>2026-05-02T10:34:41.649Z</time></trkpt><trkpt lat="42.2833849" lon="13.7673736"><ele>404.0</ele><time>2026-05-02T10:34:42.666Z</time></trkpt><trkpt lat="42.2834084" lon="13.7672196"><ele>405.0</ele><time>2026-05-02T10:34:43.663Z</time></trkpt><trkpt lat="42.2834274" lon="13.7670655"><ele>405.0</ele><time>2026-05-02T10:34:44.676Z</time></trkpt><trkpt lat="42.283448" lon="13.7669203"><ele>405.0</ele><time>2026-05-02T10:34:45.651Z</time></trkpt><trkpt lat="42.2834663" lon="13.7667926"><ele>405.0</ele><time>2026-05-02T10:34:46.645Z</time></trkpt><trkpt lat="42.283492" lon="13.7666419"><ele>405.0</ele><time>2026-05-02T10:34:47.669Z</time></trkpt><trkpt lat="42.2835121" lon="13.7664771"><ele>405.0</ele><time>2026-05-02T10:34:48.652Z</time></trkpt><trkpt lat="42.2835284" lon="13.7663012"><ele>403.5</ele><time>2026-05-02T10:34:49.669Z</time></trkpt><trkpt lat="42.2835396" lon="13.7661427"><ele>402.0</ele><time>2026-05-02T10:34:50.682Z</time></trkpt><trkpt lat="42.2835488" lon="13.7659886"><ele>400.5</ele><time>2026-05-02T10:34:51.673Z</time></trkpt><trkpt lat="42.283556" lon="13.7658423"><ele>399.0</ele><time>2026-05-02T10:34:52.668Z</time></trkpt><trkpt lat="42.2835697" lon="13.7656955"><ele>397.2</ele><time>2026-05-02T10:34:53.642Z</time></trkpt><trkpt lat="42.2835828" lon="13.7655521"><ele>395.4</ele><time>2026-05-02T10:34:54.692Z</time></trkpt><trkpt lat="42.2835927" lon="13.7654094"><ele>393.6</ele><time>2026-05-02T10:34:55.665Z</time></trkpt><trkpt lat="42.283605" lon="13.7652666"><ele>391.8</ele><time>2026-05-02T10:34:56.66Z</time></trkpt><trkpt lat="42.283618" lon="13.7651337"><ele>390.0</ele><time>2026-05-02T10:34:57.663Z</time></trkpt><trkpt lat="42.2836402" lon="13.765025"><ele>388.75</ele><time>2026-05-02T10:34:58.663Z</time></trkpt><trkpt lat="42.2836776" lon="13.7649093"><ele>387.5</ele><time>2026-05-02T10:34:59.657Z</time></trkpt><trkpt lat="42.2837323" lon="13.7647728"><ele>386.25</ele><time>2026-05-02T10:35:00.657Z</time></trkpt><trkpt lat="42.2838107" lon="13.7646251"><ele>385.0</ele><time>2026-05-02T10:35:01.674Z</time></trkpt><trkpt lat="42.2839046" lon="13.7644708"><ele>385.5</ele><time>2026-05-02T10:35:02.662Z</time></trkpt><trkpt lat="42.2840117" lon="13.7643144"><ele>386.0</ele><time>2026-05-02T10:35:03.659Z</time></trkpt><trkpt lat="42.2840936" lon="13.7641726"><ele>386.5</ele><time>2026-05-02T10:35:04.667Z</time></trkpt><trkpt lat="42.2841582" lon="13.7640652"><ele>387.0</ele><time>2026-05-02T10:35:05.663Z</time></trkpt><trkpt lat="42.2842041" lon="13.7639682"><ele>387.0</ele><time>2026-05-02T10:35:06.681Z</time></trkpt><trkpt lat="42.2842413" lon="13.7638491"><ele>387.0</ele><time>2026-05-02T10:35:08.676Z</time></trkpt><trkpt lat="42.2841961" lon="13.7637874"><ele>387.0</ele><time>2026-05-02T10:35:11.664Z</time></trkpt><trkpt lat="42.2841255" lon="13.7637831"><ele>387.0</ele><time>2026-05-02T10:35:13.658Z</time></trkpt><trkpt lat="42.2839888" lon="13.7637739"><ele>387.0</ele><time>2026-05-02T10:35:15.668Z</time></trkpt><trkpt lat="42.2839108" lon="13.7637563"><ele>387.0</ele><time>2026-05-02T10:35:16.667Z</time></trkpt><trkpt lat="42.2838057" lon="13.7637466"><ele>387.0</ele><time>2026-05-02T10:35:17.667Z</time></trkpt><trkpt lat="42.2837014" lon="13.7637411"><ele>387.0</ele><time>2026-05-02T10:35:18.667Z</time></trkpt><trkpt lat="42.2836011" lon="13.7637261"><ele>387.0</ele><time>2026-05-02T10:35:19.664Z</time></trkpt><trkpt lat="42.2834927" lon="13.7637133"><ele>387.0</ele><time>2026-05-02T10:35:20.657Z</time></trkpt><trkpt lat="42.2833863" lon="13.7637067"><ele>387.0</ele><time>2026-05-02T10:35:21.651Z</time></trkpt><trkpt lat="42.2832993" lon="13.7637063"><ele>387.0</ele><time>2026-05-02T10:35:22.672Z</time></trkpt><trkpt lat="42.2832158" lon="13.7636986"><ele>387.0</ele><time>2026-05-02T10:35:23.662Z</time></trkpt><trkpt lat="42.283127" lon="13.7636899"><ele>387.0</ele><time>2026-05-02T10:35:24.657Z</time></trkpt><trkpt lat="42.2830448" lon="13.7636805"><ele>387.0</ele><time>2026-05-02T10:35:25.657Z</time></trkpt><trkpt lat="42.2829685" lon="13.7636774"><ele>387.0</ele><time>2026-05-02T10:35:26.659Z</time></trkpt><trkpt lat="42.2828687" lon="13.7636984"><ele>387.0</ele><time>2026-05-02T10:35:28.654Z</time></trkpt><trkpt lat="42.282752" lon="13.7637123"><ele>387.8</ele><time>2026-05-02T10:35:30.673Z</time></trkpt><trkpt lat="42.2826296" lon="13.7636733"><ele>388.6</ele><time>2026-05-02T10:35:32.648Z</time></trkpt><trkpt lat="42.2825606" lon="13.7636399"><ele>389.40000000000003</ele><time>2026-05-02T10:35:33.659Z</time></trkpt><trkpt lat="42.2824913" lon="13.7636114"><ele>390.20000000000005</ele><time>2026-05-02T10:35:34.662Z</time></trkpt><trkpt lat="42.2824137" lon="13.7635707"><ele>391.0</ele><time>2026-05-02T10:35:35.679Z</time></trkpt><trkpt lat="42.2823204" lon="13.7635318"><ele>393.8</ele><time>2026-05-02T10:35:36.667Z</time></trkpt><trkpt lat="42.2822285" lon="13.7635162"><ele>396.6</ele><time>2026-05-02T10:35:37.657Z</time></trkpt><trkpt lat="42.2821531" lon="13.7635251"><ele>399.4</ele><time>2026-05-02T10:35:38.677Z</time></trkpt><trkpt lat="42.2820609" lon="13.7635496"><ele>402.2</ele><time>2026-05-02T10:35:39.664Z</time></trkpt><trkpt lat="42.281964" lon="13.7635705"><ele>405.0</ele><time>2026-05-02T10:35:40.684Z</time></trkpt><trkpt lat="42.2818693" lon="13.7635682"><ele>405.0</ele><time>2026-05-02T10:35:41.664Z</time></trkpt><trkpt lat="42.2817688" lon="13.763561"><ele>405.0</ele><time>2026-05-02T10:35:42.659Z</time></trkpt><trkpt lat="42.28167" lon="13.763562"><ele>405.0</ele><time>2026-05-02T10:35:43.649Z</time></trkpt><trkpt lat="42.2815673" lon="13.7635764"><ele>405.0</ele><time>2026-05-02T10:35:44.675Z</time></trkpt><trkpt lat="42.2814533" lon="13.7635982"><ele>405.0</ele><time>2026-05-02T10:35:45.655Z</time></trkpt><trkpt lat="42.2813351" lon="13.7636339"><ele>407.4</ele><time>2026-05-02T10:35:46.654Z</time></trkpt><trkpt lat="42.2812142" lon="13.7636541"><ele>409.8</ele><time>2026-05-02T10:35:47.659Z</time></trkpt><trkpt lat="42.2811018" lon="13.7636399"><ele>412.20000000000005</ele><time>2026-05-02T10:35:48.656Z</time></trkpt><trkpt lat="42.281001" lon="13.7635945"><ele>414.6</ele><time>2026-05-02T10:35:49.662Z</time></trkpt><trkpt lat="42.2809063" lon="13.763552"><ele>417.0</ele><time>2026-05-02T10:35:50.656Z</time></trkpt><trkpt lat="42.2808056" lon="13.7635223"><ele>417.0</ele><time>2026-05-02T10:35:51.669Z</time></trkpt><trkpt lat="42.2807029" lon="13.7634843"><ele>417.0</ele><time>2026-05-02T10:35:52.652Z</time></trkpt><trkpt lat="42.2805968" lon="13.7634409"><ele>417.0</ele><time>2026-05-02T10:35:53.667Z</time></trkpt><trkpt lat="42.2805059" lon="13.763411"><ele>417.0</ele><time>2026-05-02T10:35:54.655Z</time></trkpt><trkpt lat="42.2804167" lon="13.7633883"><ele>417.0</ele><time>2026-05-02T10:35:55.675Z</time></trkpt><trkpt lat="42.2803152" lon="13.7633641"><ele>423.75</ele><time>2026-05-02T10:35:56.654Z</time></trkpt><trkpt lat="42.2802035" lon="13.7633214"><ele>430.5</ele><time>2026-05-02T10:35:57.668Z</time></trkpt><trkpt lat="42.2801095" lon="13.7632409"><ele>437.25</ele><time>2026-05-02T10:35:58.649Z</time></trkpt><trkpt lat="42.2800205" lon="13.7631398"><ele>444.0</ele><time>2026-05-02T10:35:59.646Z</time></trkpt><trkpt lat="42.2799287" lon="13.7630398"><ele>444.0</ele><time>2026-05-02T10:36:00.664Z</time></trkpt><trkpt lat="42.2798353" lon="13.7629304"><ele>444.0</ele><time>2026-05-02T10:36:01.647Z</time></trkpt><trkpt lat="42.2797613" lon="13.762831"><ele>444.0</ele><time>2026-05-02T10:36:02.646Z</time></trkpt><trkpt lat="42.279698" lon="13.7627517"><ele>444.0</ele><time>2026-05-02T10:36:03.648Z</time></trkpt><trkpt lat="42.2796177" lon="13.7626757"><ele>444.0</ele><time>2026-05-02T10:36:04.67Z</time></trkpt><trkpt lat="42.2795245" lon="13.7626122"><ele>448.0</ele><time>2026-05-02T10:36:05.658Z</time></trkpt><trkpt lat="42.2794279" lon="13.7625626"><ele>452.0</ele><time>2026-05-02T10:36:06.694Z</time></trkpt><trkpt lat="42.2793221" lon="13.7625194"><ele>456.0</ele><time>2026-05-02T10:36:07.667Z</time></trkpt><trkpt lat="42.2792089" lon="13.76248"><ele>460.0</ele><time>2026-05-02T10:36:08.665Z</time></trkpt><trkpt lat="42.2790951" lon="13.7624331"><ele>460.0</ele><time>2026-05-02T10:36:09.66Z</time></trkpt><trkpt lat="42.278983" lon="13.7623706"><ele>460.0</ele><time>2026-05-02T10:36:10.656Z</time></trkpt><trkpt lat="42.2788666" lon="13.7623071"><ele>460.0</ele><time>2026-05-02T10:36:11.666Z</time></trkpt><trkpt lat="42.2787593" lon="13.7622688"><ele>460.0</ele><time>2026-05-02T10:36:12.664Z</time></trkpt><trkpt lat="42.2786615" lon="13.7622429"><ele>461.8</ele><time>2026-05-02T10:36:13.645Z</time></trkpt><trkpt lat="42.2785734" lon="13.7622084"><ele>463.6</ele><time>2026-05-02T10:36:14.671Z</time></trkpt><trkpt lat="42.2784897" lon="13.7621723"><ele>465.4</ele><time>2026-05-02T10:36:15.653Z</time></trkpt><trkpt lat="42.278409" lon="13.7621086"><ele>467.2</ele><time>2026-05-02T10:36:16.679Z</time></trkpt><trkpt lat="42.2783346" lon="13.7620242"><ele>469.0</ele><time>2026-05-02T10:36:17.651Z</time></trkpt><trkpt lat="42.2782699" lon="13.7619356"><ele>469.0</ele><time>2026-05-02T10:36:18.674Z</time></trkpt><trkpt lat="42.278203" lon="13.7618643"><ele>469.0</ele><time>2026-05-02T10:36:19.656Z</time></trkpt><trkpt lat="42.2781384" lon="13.7618113"><ele>469.0</ele><time>2026-05-02T10:36:20.661Z</time></trkpt><trkpt lat="42.2780463" lon="13.7617575"><ele>469.0</ele><time>2026-05-02T10:36:21.659Z</time></trkpt><trkpt lat="42.2779308" lon="13.761712"><ele>469.0</ele><time>2026-05-02T10:36:22.673Z</time></trkpt><trkpt lat="42.2778135" lon="13.7616863"><ele>470.6</ele><time>2026-05-02T10:36:23.659Z</time></trkpt><trkpt lat="42.2777053" lon="13.7616805"><ele>472.2</ele><time>2026-05-02T10:36:24.672Z</time></trkpt><trkpt lat="42.2776133" lon="13.7616961"><ele>473.80000000000007</ele><time>2026-05-02T10:36:25.677Z</time></trkpt><trkpt lat="42.2775198" lon="13.7617313"><ele>475.40000000000003</ele><time>2026-05-02T10:36:26.656Z</time></trkpt><trkpt lat="42.2774125" lon="13.7617625"><ele>477.0</ele><time>2026-05-02T10:36:27.657Z</time></trkpt><trkpt lat="42.2773044" lon="13.7617688"><ele>479.25</ele><time>2026-05-02T10:36:28.654Z</time></trkpt><trkpt lat="42.2771842" lon="13.7617505"><ele>481.5</ele><time>2026-05-02T10:36:29.654Z</time></trkpt><trkpt lat="42.2770673" lon="13.7617286"><ele>483.75</ele><time>2026-05-02T10:36:30.646Z</time></trkpt><trkpt lat="42.2769509" lon="13.7617289"><ele>486.0</ele><time>2026-05-02T10:36:31.654Z</time></trkpt><trkpt lat="42.2768347" lon="13.7617428"><ele>486.0</ele><time>2026-05-02T10:36:32.67Z</time></trkpt><trkpt lat="42.2767217" lon="13.7617469"><ele>486.0</ele><time>2026-05-02T10:36:33.66Z</time></trkpt><trkpt lat="42.2766168" lon="13.7617281"><ele>486.0</ele><time>2026-05-02T10:36:34.671Z</time></trkpt><trkpt lat="42.2765181" lon="13.761686"><ele>486.0</ele><time>2026-05-02T10:36:35.648Z</time></trkpt><trkpt lat="42.2764209" lon="13.7616276"><ele>486.0</ele><time>2026-05-02T10:36:36.666Z</time></trkpt><trkpt lat="42.2763123" lon="13.7615711"><ele>489.25</ele><time>2026-05-02T10:36:37.676Z</time></trkpt><trkpt lat="42.2761786" lon="13.7615105"><ele>492.5</ele><time>2026-05-02T10:36:38.67Z</time></trkpt><trkpt lat="42.2760441" lon="13.7614419"><ele>495.75</ele><time>2026-05-02T10:36:39.67Z</time></trkpt><trkpt lat="42.2759186" lon="13.7613484"><ele>499.0</ele><time>2026-05-02T10:36:40.649Z</time></trkpt><trkpt lat="42.2757964" lon="13.7612407"><ele>499.0</ele><time>2026-05-02T10:36:41.656Z</time></trkpt><trkpt lat="42.2756777" lon="13.7611343"><ele>499.0</ele><time>2026-05-02T10:36:42.652Z</time></trkpt><trkpt lat="42.2755559" lon="13.7610436"><ele>499.0</ele><time>2026-05-02T10:36:43.667Z</time></trkpt><trkpt lat="42.275424" lon="13.7609513"><ele>499.0</ele><time>2026-05-02T10:36:44.659Z</time></trkpt><trkpt lat="42.2752904" lon="13.7608626"><ele>500.0</ele><time>2026-05-02T10:36:45.668Z</time></trkpt><trkpt lat="42.2751678" lon="13.7607717"><ele>501.0</ele><time>2026-05-02T10:36:46.66Z</time></trkpt><trkpt lat="42.2750511" lon="13.7606992"><ele>502.0</ele><time>2026-05-02T10:36:47.658Z</time></trkpt><trkpt lat="42.2749553" lon="13.7606505"><ele>503.0</ele><time>2026-05-02T10:36:48.673Z</time></trkpt><trkpt lat="42.2748717" lon="13.7606028"><ele>502.99999999999994</ele><time>2026-05-02T10:36:49.672Z</time></trkpt><trkpt lat="42.274802" lon="13.7605628"><ele>503.0</ele><time>2026-05-02T10:36:50.657Z</time></trkpt><trkpt lat="42.274733" lon="13.7604984"><ele>503.0</ele><time>2026-05-02T10:36:52.676Z</time></trkpt><trkpt lat="42.2747645" lon="13.7603776"><ele>503.0</ele><time>2026-05-02T10:44:06.66Z</time></trkpt><trkpt lat="42.2748164" lon="13.7602986"><ele>502.99999999999994</ele><time>2026-05-02T10:44:07.67Z</time></trkpt><trkpt lat="42.2748704" lon="13.7602205"><ele>503.0</ele><time>2026-05-02T10:44:08.664Z</time></trkpt><trkpt lat="42.2749444" lon="13.760127"><ele>503.0</ele><time>2026-05-02T10:44:09.662Z</time></trkpt><trkpt lat="42.2750287" lon="13.760007"><ele>503.0</ele><time>2026-05-02T10:44:10.685Z</time></trkpt><trkpt lat="42.2751253" lon="13.7598749"><ele>503.0</ele><time>2026-05-02T10:44:11.673Z</time></trkpt><trkpt lat="42.2752247" lon="13.7597245"><ele>503.0</ele><time>2026-05-02T10:44:12.669Z</time></trkpt><trkpt lat="42.275316" lon="13.7595717"><ele>503.0</ele><time>2026-05-02T10:44:13.668Z</time></trkpt><trkpt lat="42.2754035" lon="13.7594229"><ele>503.0</ele><time>2026-05-02T10:44:14.66Z</time></trkpt><trkpt lat="42.2754851" lon="13.7592806"><ele>503.0</ele><time>2026-05-02T10:44:15.675Z</time></trkpt><trkpt lat="42.2755689" lon="13.7591516"><ele>503.0</ele><time>2026-05-02T10:44:16.671Z</time></trkpt><trkpt lat="42.2756483" lon="13.7590411"><ele>500.59999999999997</ele><time>2026-05-02T10:44:17.683Z</time></trkpt><trkpt lat="42.2757214" lon="13.7589409"><ele>498.19999999999993</ele><time>2026-05-02T10:44:18.675Z</time></trkpt><trkpt lat="42.275789" lon="13.7588489"><ele>495.8</ele><time>2026-05-02T10:44:19.652Z</time></trkpt><trkpt lat="42.2758476" lon="13.758778"><ele>493.4</ele><time>2026-05-02T10:44:20.661Z</time></trkpt><trkpt lat="42.2759106" lon="13.7586833"><ele>491.0</ele><time>2026-05-02T10:44:22.683Z</time></trkpt><trkpt lat="42.2758155" lon="13.7586343"><ele>490.99999999999994</ele><time>2026-05-02T10:44:26.666Z</time></trkpt><trkpt lat="42.2757472" lon="13.7586445"><ele>491.0</ele><time>2026-05-02T10:44:27.661Z</time></trkpt><trkpt lat="42.2756836" lon="13.7586558"><ele>491.0</ele><time>2026-05-02T10:44:28.654Z</time></trkpt><trkpt lat="42.2755639" lon="13.7586782"><ele>491.0</ele><time>2026-05-02T10:44:30.661Z</time></trkpt><trkpt lat="42.2754949" lon="13.7586968"><ele>490.99999999999994</ele><time>2026-05-02T10:44:31.682Z</time></trkpt><trkpt lat="42.2754195" lon="13.758713"><ele>491.0</ele><time>2026-05-02T10:44:32.652Z</time></trkpt><trkpt lat="42.275333" lon="13.7587318"><ele>494.0</ele><time>2026-05-02T10:44:33.651Z</time></trkpt><trkpt lat="42.275247" lon="13.7587416"><ele>497.0</ele><time>2026-05-02T10:44:34.66Z</time></trkpt><trkpt lat="42.2751536" lon="13.7587644"><ele>500.0</ele><time>2026-05-02T10:44:35.67Z</time></trkpt><trkpt lat="42.2750527" lon="13.7587864"><ele>503.0</ele><time>2026-05-02T10:44:36.662Z</time></trkpt><trkpt lat="42.2749354" lon="13.7588076"><ele>506.0</ele><time>2026-05-02T10:44:37.661Z</time></trkpt><trkpt lat="42.2748232" lon="13.758825"><ele>507.8</ele><time>2026-05-02T10:44:38.652Z</time></trkpt><trkpt lat="42.2747228" lon="13.7588519"><ele>509.6</ele><time>2026-05-02T10:44:39.668Z</time></trkpt><trkpt lat="42.2746272" lon="13.7588708"><ele>511.4</ele><time>2026-05-02T10:44:40.65Z</time></trkpt><trkpt lat="42.2745275" lon="13.7589051"><ele>513.2</ele><time>2026-05-02T10:44:41.662Z</time></trkpt><trkpt lat="42.2744222" lon="13.7589255"><ele>515.0</ele><time>2026-05-02T10:44:42.645Z</time></trkpt><trkpt lat="42.2743312" lon="13.7589402"><ele>515.0</ele><time>2026-05-02T10:44:43.645Z</time></trkpt><trkpt lat="42.2742507" lon="13.7589614"><ele>515.0</ele><time>2026-05-02T10:44:44.657Z</time></trkpt><trkpt lat="42.2741652" lon="13.7590044"><ele>515.0</ele><time>2026-05-02T10:44:45.651Z</time></trkpt><trkpt lat="42.2740757" lon="13.7590572"><ele>515.0</ele><time>2026-05-02T10:44:46.671Z</time></trkpt><trkpt lat="42.2740169" lon="13.7591233"><ele>515.0</ele><time>2026-05-02T10:44:47.657Z</time></trkpt><trkpt lat="42.2739771" lon="13.7592553"><ele>515.0</ele><time>2026-05-02T10:44:49.657Z</time></trkpt><trkpt lat="42.2739597" lon="13.759339"><ele>515.0</ele><time>2026-05-02T10:44:50.659Z</time></trkpt><trkpt lat="42.2738975" lon="13.7594836"><ele>515.0</ele><time>2026-05-02T10:44:52.645Z</time></trkpt><trkpt lat="42.273865" lon="13.7595566"><ele>515.0</ele><time>2026-05-02T10:44:53.665Z</time></trkpt><trkpt lat="42.273824" lon="13.7596414"><ele>515.0</ele><time>2026-05-02T10:44:54.676Z</time></trkpt><trkpt lat="42.273729" lon="13.7597307"><ele>515.0</ele><time>2026-05-02T10:44:56.659Z</time></trkpt><trkpt lat="42.2736134" lon="13.7597504"><ele>516.8</ele><time>2026-05-02T10:44:58.654Z</time></trkpt><trkpt lat="42.2735425" lon="13.7597493"><ele>518.6</ele><time>2026-05-02T10:44:59.656Z</time></trkpt><trkpt lat="42.2734633" lon="13.7597213"><ele>520.4</ele><time>2026-05-02T10:45:00.66Z</time></trkpt><trkpt lat="42.27337" lon="13.7597111"><ele>522.2</ele><time>2026-05-02T10:45:01.669Z</time></trkpt><trkpt lat="42.2732672" lon="13.7597261"><ele>524.0</ele><time>2026-05-02T10:45:02.668Z</time></trkpt><trkpt lat="42.2731544" lon="13.7597481"><ele>524.75</ele><time>2026-05-02T10:45:03.654Z</time></trkpt><trkpt lat="42.2730422" lon="13.7597796"><ele>525.5</ele><time>2026-05-02T10:45:04.664Z</time></trkpt><trkpt lat="42.2729271" lon="13.7597788"><ele>526.25</ele><time>2026-05-02T10:45:05.666Z</time></trkpt><trkpt lat="42.27279" lon="13.7597415"><ele>527.0</ele><time>2026-05-02T10:45:06.668Z</time></trkpt><trkpt lat="42.2726483" lon="13.7596805"><ele>527.0</ele><time>2026-05-02T10:45:07.674Z</time></trkpt><trkpt lat="42.2725078" lon="13.7596105"><ele>527.0</ele><time>2026-05-02T10:45:08.653Z</time></trkpt><trkpt lat="42.272362" lon="13.7595405"><ele>527.0</ele><time>2026-05-02T10:45:09.668Z</time></trkpt><trkpt lat="42.2722274" lon="13.7594738"><ele>527.0</ele><time>2026-05-02T10:45:10.656Z</time></trkpt><trkpt lat="42.2721137" lon="13.7594121"><ele>528.2</ele><time>2026-05-02T10:45:11.668Z</time></trkpt><trkpt lat="42.2720329" lon="13.7593368"><ele>529.4000000000001</ele><time>2026-05-02T10:45:12.652Z</time></trkpt><trkpt lat="42.2719895" lon="13.7592386"><ele>530.5999999999999</ele><time>2026-05-02T10:45:13.673Z</time></trkpt><trkpt lat="42.2719472" lon="13.7591136"><ele>531.8</ele><time>2026-05-02T10:45:14.653Z</time></trkpt><trkpt lat="42.2718888" lon="13.7589954"><ele>533.0</ele><time>2026-05-02T10:45:15.68Z</time></trkpt><trkpt lat="42.2717983" lon="13.7589042"><ele>533.0</ele><time>2026-05-02T10:45:16.664Z</time></trkpt><trkpt lat="42.2717" lon="13.7588288"><ele>533.0</ele><time>2026-05-02T10:45:17.665Z</time></trkpt><trkpt lat="42.2715785" lon="13.7587703"><ele>533.0</ele><time>2026-05-02T10:45:18.649Z</time></trkpt><trkpt lat="42.2714329" lon="13.7587351"><ele>533.0</ele><time>2026-05-02T10:45:19.653Z</time></trkpt><trkpt lat="42.2712732" lon="13.7587128"><ele>532.3333333333333</ele><time>2026-05-02T10:45:20.657Z</time></trkpt><trkpt lat="42.2710989" lon="13.758706"><ele>531.6666666666666</ele><time>2026-05-02T10:45:21.662Z</time></trkpt><trkpt lat="42.2709206" lon="13.7586991"><ele>531.0</ele><time>2026-05-02T10:45:22.642Z</time></trkpt><trkpt lat="42.2707349" lon="13.7587039"><ele>531.3333333333334</ele><time>2026-05-02T10:45:23.654Z</time></trkpt><trkpt lat="42.2705603" lon="13.7587135"><ele>531.6666666666667</ele><time>2026-05-02T10:45:24.65Z</time></trkpt><trkpt lat="42.2703992" lon="13.758734"><ele>532.0</ele><time>2026-05-02T10:45:25.663Z</time></trkpt><trkpt lat="42.2702531" lon="13.7587589"><ele>532.0</ele><time>2026-05-02T10:45:26.654Z</time></trkpt><trkpt lat="42.2701146" lon="13.7587883"><ele>532.0</ele><time>2026-05-02T10:45:27.66Z</time></trkpt><trkpt lat="42.2699907" lon="13.7588202"><ele>532.0</ele><time>2026-05-02T10:45:28.657Z</time></trkpt><trkpt lat="42.2698721" lon="13.7588668"><ele>532.0</ele><time>2026-05-02T10:45:29.655Z</time></trkpt><trkpt lat="42.2697489" lon="13.7589254"><ele>532.25</ele><time>2026-05-02T10:45:30.673Z</time></trkpt><trkpt lat="42.2696239" lon="13.758989"><ele>532.5</ele><time>2026-05-02T10:45:31.667Z</time></trkpt><trkpt lat="42.2694946" lon="13.75905"><ele>532.75</ele><time>2026-05-02T10:45:32.666Z</time></trkpt><trkpt lat="42.2693573" lon="13.7591105"><ele>533.0</ele><time>2026-05-02T10:45:33.666Z</time></trkpt><trkpt lat="42.2692321" lon="13.7591553"><ele>533.0</ele><time>2026-05-02T10:45:34.656Z</time></trkpt><trkpt lat="42.2691247" lon="13.7591951"><ele>533.0</ele><time>2026-05-02T10:45:35.656Z</time></trkpt><trkpt lat="42.2690467" lon="13.7592406"><ele>533.0</ele><time>2026-05-02T10:45:36.661Z</time></trkpt><trkpt lat="42.2689364" lon="13.7592871"><ele>533.0</ele><time>2026-05-02T10:45:38.668Z</time></trkpt><trkpt lat="42.2688708" lon="13.7593138"><ele>533.0</ele><time>2026-05-02T10:45:39.663Z</time></trkpt><trkpt lat="42.2687677" lon="13.7593619"><ele>534.0</ele><time>2026-05-02T10:45:41.654Z</time></trkpt><trkpt lat="42.268669" lon="13.759442"><ele>535.0</ele><time>2026-05-02T10:45:43.646Z</time></trkpt><trkpt lat="42.2686206" lon="13.7595444"><ele>536.0</ele><time>2026-05-02T10:45:44.675Z</time></trkpt><trkpt lat="42.2685752" lon="13.7596601"><ele>537.0</ele><time>2026-05-02T10:45:45.66Z</time></trkpt><trkpt lat="42.2685256" lon="13.7597783"><ele>538.0</ele><time>2026-05-02T10:45:46.661Z</time></trkpt><trkpt lat="42.2684724" lon="13.7598959"><ele>538.0</ele><time>2026-05-02T10:45:47.65Z</time></trkpt><trkpt lat="42.2684103" lon="13.7600206"><ele>538.0</ele><time>2026-05-02T10:45:48.652Z</time></trkpt><trkpt lat="42.2683321" lon="13.7601514"><ele>538.0</ele><time>2026-05-02T10:45:49.678Z</time></trkpt><trkpt lat="42.2682316" lon="13.7602777"><ele>538.0</ele><time>2026-05-02T10:45:50.67Z</time></trkpt><trkpt lat="42.2681163" lon="13.7604191"><ele>539.3333333333334</ele><time>2026-05-02T10:45:51.668Z</time></trkpt><trkpt lat="42.2679956" lon="13.7605673"><ele>540.6666666666666</ele><time>2026-05-02T10:45:52.668Z</time></trkpt><trkpt lat="42.2678813" lon="13.7607173"><ele>542.0</ele><time>2026-05-02T10:45:53.651Z</time></trkpt><trkpt lat="42.2677656" lon="13.7608643"><ele>542.0</ele><time>2026-05-02T10:45:54.666Z</time></trkpt><trkpt lat="42.2676642" lon="13.760993"><ele>542.0</ele><time>2026-05-02T10:45:55.67Z</time></trkpt><trkpt lat="42.2675781" lon="13.7611296"><ele>542.0</ele><time>2026-05-02T10:45:56.666Z</time></trkpt><trkpt lat="42.2674937" lon="13.7612815"><ele>542.0</ele><time>2026-05-02T10:45:57.658Z</time></trkpt><trkpt lat="42.2674239" lon="13.7614187"><ele>541.8000000000001</ele><time>2026-05-02T10:45:58.686Z</time></trkpt><trkpt lat="42.2673586" lon="13.7615306"><ele>541.6</ele><time>2026-05-02T10:45:59.641Z</time></trkpt><trkpt lat="42.2672707" lon="13.7616069"><ele>541.4000000000001</ele><time>2026-05-02T10:46:00.641Z</time></trkpt><trkpt lat="42.267169" lon="13.7616801"><ele>541.2</ele><time>2026-05-02T10:46:01.648Z</time></trkpt><trkpt lat="42.267094" lon="13.7617304"><ele>541.0</ele><time>2026-05-02T10:46:02.647Z</time></trkpt><trkpt lat="42.2670363" lon="13.7617668"><ele>540.8333333333334</ele><time>2026-05-02T10:46:03.675Z</time></trkpt><trkpt lat="42.2669746" lon="13.7617923"><ele>540.6666666666667</ele><time>2026-05-02T10:46:05.645Z</time></trkpt><trkpt lat="42.2668855" lon="13.7617745"><ele>540.5</ele><time>2026-05-02T10:46:08.66Z</time></trkpt><trkpt lat="42.2667963" lon="13.7618623"><ele>540.3333333333334</ele><time>2026-05-02T10:46:10.657Z</time></trkpt><trkpt lat="42.266738" lon="13.7619388"><ele>540.1666666666666</ele><time>2026-05-02T10:46:11.651Z</time></trkpt><trkpt lat="42.2666814" lon="13.7619974"><ele>540.0</ele><time>2026-05-02T10:46:12.658Z</time></trkpt><trkpt lat="42.266603" lon="13.7620493"><ele>541.6</ele><time>2026-05-02T10:46:13.653Z</time></trkpt><trkpt lat="42.2665058" lon="13.7620815"><ele>543.2</ele><time>2026-05-02T10:46:14.665Z</time></trkpt><trkpt lat="42.2664016" lon="13.762117"><ele>544.8</ele><time>2026-05-02T10:46:15.653Z</time></trkpt><trkpt lat="42.2663154" lon="13.7621317"><ele>546.4</ele><time>2026-05-02T10:46:16.663Z</time></trkpt><trkpt lat="42.2662163" lon="13.7621408"><ele>548.0</ele><time>2026-05-02T10:46:18.664Z</time></trkpt><trkpt lat="42.2661417" lon="13.7621446"><ele>548.0</ele><time>2026-05-02T10:46:20.657Z</time></trkpt><trkpt lat="42.2660725" lon="13.7621715"><ele>548.0</ele><time>2026-05-02T10:46:23.65Z</time></trkpt><trkpt lat="42.2661445" lon="13.7622063"><ele>548.0</ele><time>2026-05-02T10:46:27.654Z</time></trkpt><trkpt lat="42.2662162" lon="13.7621993"><ele>548.0</ele><time>2026-05-02T10:46:28.656Z</time></trkpt><trkpt lat="42.2663099" lon="13.7621866"><ele>548.0</ele><time>2026-05-02T10:46:29.666Z</time></trkpt><trkpt lat="42.2664118" lon="13.7621761"><ele>548.0</ele><time>2026-05-02T10:46:30.649Z</time></trkpt><trkpt lat="42.2664987" lon="13.7621323"><ele>548.0</ele><time>2026-05-02T10:46:31.651Z</time></trkpt><trkpt lat="42.2665747" lon="13.7620916"><ele>548.0</ele><time>2026-05-02T10:46:32.656Z</time></trkpt><trkpt lat="42.2666409" lon="13.7620492"><ele>548.0</ele><time>2026-05-02T10:46:33.669Z</time></trkpt><trkpt lat="42.2667394" lon="13.7620289"><ele>548.0</ele><time>2026-05-02T10:46:35.657Z</time></trkpt><trkpt lat="42.2668087" lon="13.7620774"><ele>548.0</ele><time>2026-05-02T10:46:37.661Z</time></trkpt><trkpt lat="42.2668141" lon="13.762199"><ele>548.0</ele><time>2026-05-02T10:46:40.651Z</time></trkpt><trkpt lat="42.2667521" lon="13.7623385"><ele>548.0</ele><time>2026-05-02T10:46:42.649Z</time></trkpt><trkpt lat="42.2667042" lon="13.762428"><ele>548.0</ele><time>2026-05-02T10:46:43.69Z</time></trkpt><trkpt lat="42.2666411" lon="13.762509"><ele>548.0</ele><time>2026-05-02T10:46:44.661Z</time></trkpt><trkpt lat="42.2665689" lon="13.7626014"><ele>548.0</ele><time>2026-05-02T10:46:45.666Z</time></trkpt><trkpt lat="42.2664891" lon="13.7626723"><ele>548.0</ele><time>2026-05-02T10:46:46.655Z</time></trkpt><trkpt lat="42.2664044" lon="13.7627596"><ele>549.75</ele><time>2026-05-02T10:46:47.653Z</time></trkpt><trkpt lat="42.2663238" lon="13.7628648"><ele>551.5</ele><time>2026-05-02T10:46:48.656Z</time></trkpt><trkpt lat="42.266241" lon="13.7629536"><ele>553.25</ele><time>2026-05-02T10:46:49.666Z</time></trkpt><trkpt lat="42.2661323" lon="13.763022"><ele>555.0</ele><time>2026-05-02T10:46:50.652Z</time></trkpt><trkpt lat="42.2660003" lon="13.7630646"><ele>555.0</ele><time>2026-05-02T10:46:51.673Z</time></trkpt><trkpt lat="42.2658656" lon="13.7630918"><ele>555.0</ele><time>2026-05-02T10:46:52.643Z</time></trkpt><trkpt lat="42.2657326" lon="13.7631255"><ele>555.0</ele><time>2026-05-02T10:46:53.648Z</time></trkpt><trkpt lat="42.2656053" lon="13.7631923"><ele>555.0</ele><time>2026-05-02T10:46:54.659Z</time></trkpt><trkpt lat="42.2654863" lon="13.7632671"><ele>557.0</ele><time>2026-05-02T10:46:55.652Z</time></trkpt><trkpt lat="42.2653633" lon="13.763336"><ele>559.0</ele><time>2026-05-02T10:46:56.679Z</time></trkpt><trkpt lat="42.2652377" lon="13.7633574"><ele>561.0</ele><time>2026-05-02T10:46:57.656Z</time></trkpt><trkpt lat="42.2650965" lon="13.7633376"><ele>563.0</ele><time>2026-05-02T10:46:58.653Z</time></trkpt><trkpt lat="42.2649528" lon="13.7633091"><ele>563.0</ele><time>2026-05-02T10:46:59.64Z</time></trkpt><trkpt lat="42.2648063" lon="13.7633014"><ele>563.0</ele><time>2026-05-02T10:47:00.651Z</time></trkpt><trkpt lat="42.264655" lon="13.763319"><ele>563.0</ele><time>2026-05-02T10:47:01.657Z</time></trkpt><trkpt lat="42.2644984" lon="13.7633688"><ele>563.3333333333333</ele><time>2026-05-02T10:47:02.654Z</time></trkpt><trkpt lat="42.2643461" lon="13.7634398"><ele>563.6666666666666</ele><time>2026-05-02T10:47:03.69Z</time></trkpt><trkpt lat="42.2641996" lon="13.7635184"><ele>564.0</ele><time>2026-05-02T10:47:04.652Z</time></trkpt><trkpt lat="42.2640531" lon="13.7636076"><ele>568.3333333333334</ele><time>2026-05-02T10:47:05.655Z</time></trkpt><trkpt lat="42.2639062" lon="13.763709"><ele>572.6666666666667</ele><time>2026-05-02T10:47:06.66Z</time></trkpt><trkpt lat="42.2637524" lon="13.7638309"><ele>577.0</ele><time>2026-05-02T10:47:07.652Z</time></trkpt><trkpt lat="42.2636002" lon="13.7639587"><ele>577.0</ele><time>2026-05-02T10:47:08.659Z</time></trkpt><trkpt lat="42.2634358" lon="13.7640757"><ele>577.0</ele><time>2026-05-02T10:47:09.645Z</time></trkpt><trkpt lat="42.2632639" lon="13.7641954"><ele>577.0</ele><time>2026-05-02T10:47:10.663Z</time></trkpt><trkpt lat="42.2630943" lon="13.764311"><ele>582.0</ele><time>2026-05-02T10:47:11.653Z</time></trkpt><trkpt lat="42.2629214" lon="13.7644166"><ele>587.0</ele><time>2026-05-02T10:47:12.645Z</time></trkpt><trkpt lat="42.2627741" lon="13.7645026"><ele>592.0</ele><time>2026-05-02T10:47:13.656Z</time></trkpt><trkpt lat="42.2626278" lon="13.7645536"><ele>592.0</ele><time>2026-05-02T10:47:14.652Z</time></trkpt><trkpt lat="42.262473" lon="13.7645907"><ele>592.0</ele><time>2026-05-02T10:47:15.668Z</time></trkpt><trkpt lat="42.2623154" lon="13.7646281"><ele>592.0</ele><time>2026-05-02T10:47:16.669Z</time></trkpt><trkpt lat="42.2621522" lon="13.764686"><ele>592.3333333333334</ele><time>2026-05-02T10:47:17.653Z</time></trkpt><trkpt lat="42.2619836" lon="13.7647586"><ele>592.6666666666666</ele><time>2026-05-02T10:47:18.666Z</time></trkpt><trkpt lat="42.2618145" lon="13.7648282"><ele>593.0</ele><time>2026-05-02T10:47:19.656Z</time></trkpt><trkpt lat="42.2616409" lon="13.7648822"><ele>593.0</ele><time>2026-05-02T10:47:20.678Z</time></trkpt><trkpt lat="42.2614666" lon="13.7649294"><ele>593.0</ele><time>2026-05-02T10:47:21.66Z</time></trkpt><trkpt lat="42.2612902" lon="13.7649783"><ele>593.0</ele><time>2026-05-02T10:47:22.671Z</time></trkpt><trkpt lat="42.261117" lon="13.7650247"><ele>591.0</ele><time>2026-05-02T10:47:23.646Z</time></trkpt><trkpt lat="42.2609478" lon="13.7650684"><ele>589.0</ele><time>2026-05-02T10:47:24.666Z</time></trkpt><trkpt lat="42.260782" lon="13.765115"><ele>587.0</ele><time>2026-05-02T10:47:25.655Z</time></trkpt><trkpt lat="42.2606227" lon="13.7651744"><ele>595.0</ele><time>2026-05-02T10:47:26.656Z</time></trkpt><trkpt lat="42.2604663" lon="13.7652387"><ele>603.0</ele><time>2026-05-02T10:47:27.659Z</time></trkpt><trkpt lat="42.2603128" lon="13.7653032"><ele>611.0</ele><time>2026-05-02T10:47:28.659Z</time></trkpt><trkpt lat="42.2601596" lon="13.7653717"><ele>611.0</ele><time>2026-05-02T10:47:29.657Z</time></trkpt><trkpt lat="42.2600205" lon="13.7654469"><ele>611.0</ele><time>2026-05-02T10:47:30.659Z</time></trkpt><trkpt lat="42.2598913" lon="13.7655215"><ele>611.0</ele><time>2026-05-02T10:47:31.658Z</time></trkpt><trkpt lat="42.2597573" lon="13.7655775"><ele>611.0</ele><time>2026-05-02T10:47:32.658Z</time></trkpt><trkpt lat="42.2596218" lon="13.7656054"><ele>610.5</ele><time>2026-05-02T10:47:33.652Z</time></trkpt><trkpt lat="42.2595098" lon="13.7656157"><ele>610.0</ele><time>2026-05-02T10:47:34.678Z</time></trkpt><trkpt lat="42.2593885" lon="13.7655957"><ele>609.5</ele><time>2026-05-02T10:47:35.642Z</time></trkpt><trkpt lat="42.2592517" lon="13.7655429"><ele>609.0</ele><time>2026-05-02T10:47:36.639Z</time></trkpt><trkpt lat="42.2590999" lon="13.7654895"><ele>608.6666666666666</ele><time>2026-05-02T10:47:37.657Z</time></trkpt><trkpt lat="42.2589464" lon="13.7654515"><ele>608.3333333333333</ele><time>2026-05-02T10:47:38.656Z</time></trkpt><trkpt lat="42.2587974" lon="13.7654248"><ele>608.0</ele><time>2026-05-02T10:47:39.673Z</time></trkpt><trkpt lat="42.2586509" lon="13.7654003"><ele>608.0</ele><time>2026-05-02T10:47:40.651Z</time></trkpt><trkpt lat="42.2585133" lon="13.7653716"><ele>608.0</ele><time>2026-05-02T10:47:41.655Z</time></trkpt><trkpt lat="42.2583819" lon="13.7653485"><ele>608.0</ele><time>2026-05-02T10:47:42.649Z</time></trkpt><trkpt lat="42.2582565" lon="13.7653135"><ele>608.0</ele><time>2026-05-02T10:47:43.657Z</time></trkpt><trkpt lat="42.2581337" lon="13.7652624"><ele>610.0</ele><time>2026-05-02T10:47:44.658Z</time></trkpt><trkpt lat="42.2580022" lon="13.7651876"><ele>612.0</ele><time>2026-05-02T10:47:45.655Z</time></trkpt><trkpt lat="42.2578624" lon="13.7650947"><ele>614.0</ele><time>2026-05-02T10:47:46.66Z</time></trkpt><trkpt lat="42.2577244" lon="13.7650118"><ele>616.0</ele><time>2026-05-02T10:47:47.668Z</time></trkpt><trkpt lat="42.2575734" lon="13.7649404"><ele>616.0</ele><time>2026-05-02T10:47:48.648Z</time></trkpt><trkpt lat="42.2574215" lon="13.7648742"><ele>616.0</ele><time>2026-05-02T10:47:49.665Z</time></trkpt><trkpt lat="42.2572806" lon="13.7648077"><ele>616.0</ele><time>2026-05-02T10:47:50.658Z</time></trkpt><trkpt lat="42.2571663" lon="13.7647433"><ele>616.0</ele><time>2026-05-02T10:47:51.66Z</time></trkpt><trkpt lat="42.2570578" lon="13.7646779"><ele>616.8</ele><time>2026-05-02T10:47:52.652Z</time></trkpt><trkpt lat="42.2569664" lon="13.7646515"><ele>617.6</ele><time>2026-05-02T10:47:53.648Z</time></trkpt><trkpt lat="42.2568803" lon="13.7646585"><ele>618.4</ele><time>2026-05-02T10:47:54.649Z</time></trkpt><trkpt lat="42.2567711" lon="13.7646968"><ele>619.2</ele><time>2026-05-02T10:47:55.65Z</time></trkpt><trkpt lat="42.2566379" lon="13.764741"><ele>620.0</ele><time>2026-05-02T10:47:56.673Z</time></trkpt><trkpt lat="42.2565253" lon="13.7647543"><ele>621.6</ele><time>2026-05-02T10:47:57.655Z</time></trkpt><trkpt lat="42.256426" lon="13.7647652"><ele>623.2</ele><time>2026-05-02T10:47:58.65Z</time></trkpt><trkpt lat="42.2563259" lon="13.7647744"><ele>624.8</ele><time>2026-05-02T10:47:59.652Z</time></trkpt><trkpt lat="42.2562277" lon="13.7647717"><ele>626.4</ele><time>2026-05-02T10:48:00.653Z</time></trkpt><trkpt lat="42.2561182" lon="13.764764"><ele>628.0</ele><time>2026-05-02T10:48:01.662Z</time></trkpt><trkpt lat="42.2559754" lon="13.7647507"><ele>628.0</ele><time>2026-05-02T10:48:02.652Z</time></trkpt><trkpt lat="42.2558207" lon="13.7647362"><ele>628.0</ele><time>2026-05-02T10:48:03.662Z</time></trkpt><trkpt lat="42.2556558" lon="13.7647101"><ele>628.0</ele><time>2026-05-02T10:48:04.659Z</time></trkpt><trkpt lat="42.255489" lon="13.7646863"><ele>629.25</ele><time>2026-05-02T10:48:05.651Z</time></trkpt><trkpt lat="42.2553371" lon="13.7646352"><ele>630.5</ele><time>2026-05-02T10:48:06.644Z</time></trkpt><trkpt lat="42.2552127" lon="13.7645698"><ele>631.75</ele><time>2026-05-02T10:48:07.653Z</time></trkpt><trkpt lat="42.255105" lon="13.7645184"><ele>633.0</ele><time>2026-05-02T10:48:08.66Z</time></trkpt><trkpt lat="42.2550058" lon="13.7645159"><ele>633.0</ele><time>2026-05-02T10:48:09.665Z</time></trkpt><trkpt lat="42.2548887" lon="13.764551"><ele>633.0</ele><time>2026-05-02T10:48:10.644Z</time></trkpt><trkpt lat="42.2547663" lon="13.764566"><ele>633.0</ele><time>2026-05-02T10:48:11.658Z</time></trkpt><trkpt lat="42.2546372" lon="13.7645443"><ele>633.0</ele><time>2026-05-02T10:48:12.652Z</time></trkpt><trkpt lat="42.2545073" lon="13.7645007"><ele>635.75</ele><time>2026-05-02T10:48:13.656Z</time></trkpt><trkpt lat="42.2543491" lon="13.7644808"><ele>638.5</ele><time>2026-05-02T10:48:14.651Z</time></trkpt><trkpt lat="42.2541952" lon="13.7644715"><ele>641.25</ele><time>2026-05-02T10:48:15.653Z</time></trkpt><trkpt lat="42.2540796" lon="13.7644489"><ele>644.0</ele><time>2026-05-02T10:48:16.653Z</time></trkpt><trkpt lat="42.2539848" lon="13.7644225"><ele>644.0</ele><time>2026-05-02T10:48:17.654Z</time></trkpt><trkpt lat="42.2538773" lon="13.7643809"><ele>644.0</ele><time>2026-05-02T10:48:18.652Z</time></trkpt><trkpt lat="42.2537541" lon="13.7643182"><ele>644.0</ele><time>2026-05-02T10:48:19.65Z</time></trkpt><trkpt lat="42.2536509" lon="13.7642513"><ele>644.0</ele><time>2026-05-02T10:48:20.676Z</time></trkpt><trkpt lat="42.2535797" lon="13.7641595"><ele>645.75</ele><time>2026-05-02T10:48:21.649Z</time></trkpt><trkpt lat="42.2535091" lon="13.7640426"><ele>647.5</ele><time>2026-05-02T10:48:22.675Z</time></trkpt><trkpt lat="42.2534307" lon="13.7639027"><ele>649.25</ele><time>2026-05-02T10:48:23.649Z</time></trkpt><trkpt lat="42.2533512" lon="13.7637669"><ele>651.0</ele><time>2026-05-02T10:48:24.655Z</time></trkpt><trkpt lat="42.2532643" lon="13.7636712"><ele>651.0</ele><time>2026-05-02T10:48:25.648Z</time></trkpt><trkpt lat="42.2531695" lon="13.7636023"><ele>651.0</ele><time>2026-05-02T10:48:26.657Z</time></trkpt><trkpt lat="42.2530469" lon="13.7635484"><ele>651.0</ele><time>2026-05-02T10:48:27.659Z</time></trkpt><trkpt lat="42.2529099" lon="13.7634986"><ele>651.0</ele><time>2026-05-02T10:48:28.636Z</time></trkpt><trkpt lat="42.252761" lon="13.7634536"><ele>653.3333333333334</ele><time>2026-05-02T10:48:29.643Z</time></trkpt><trkpt lat="42.2526138" lon="13.7634095"><ele>655.6666666666667</ele><time>2026-05-02T10:48:30.665Z</time></trkpt><trkpt lat="42.2524619" lon="13.7633815"><ele>658.0</ele><time>2026-05-02T10:48:31.657Z</time></trkpt><trkpt lat="42.2523178" lon="13.7633521"><ele>657.25</ele><time>2026-05-02T10:48:32.675Z</time></trkpt><trkpt lat="42.2521832" lon="13.7633091"><ele>656.5</ele><time>2026-05-02T10:48:33.652Z</time></trkpt><trkpt lat="42.2520685" lon="13.7632536"><ele>655.75</ele><time>2026-05-02T10:48:34.666Z</time></trkpt><trkpt lat="42.2519586" lon="13.7631801"><ele>655.0</ele><time>2026-05-02T10:48:35.647Z</time></trkpt><trkpt lat="42.2518646" lon="13.7630968"><ele>655.0</ele><time>2026-05-02T10:48:36.651Z</time></trkpt><trkpt lat="42.2517795" lon="13.7629887"><ele>655.0</ele><time>2026-05-02T10:48:37.647Z</time></trkpt><trkpt lat="42.2516845" lon="13.7628521"><ele>655.0</ele><time>2026-05-02T10:48:38.66Z</time></trkpt><trkpt lat="42.2515839" lon="13.7627243"><ele>655.0</ele><time>2026-05-02T10:48:39.646Z</time></trkpt><trkpt lat="42.2514538" lon="13.7625933"><ele>661.0</ele><time>2026-05-02T10:48:40.656Z</time></trkpt><trkpt lat="42.2513024" lon="13.7624625"><ele>667.0</ele><time>2026-05-02T10:48:41.651Z</time></trkpt><trkpt lat="42.2511683" lon="13.762358"><ele>673.0</ele><time>2026-05-02T10:48:42.652Z</time></trkpt><trkpt lat="42.25104" lon="13.762274"><ele>673.0</ele><time>2026-05-02T10:48:43.645Z</time></trkpt><trkpt lat="42.2509251" lon="13.7622263"><ele>673.0</ele><time>2026-05-02T10:48:44.652Z</time></trkpt><trkpt lat="42.2508286" lon="13.7621956"><ele>673.0</ele><time>2026-05-02T10:48:45.653Z</time></trkpt><trkpt lat="42.2507467" lon="13.7622134"><ele>673.0</ele><time>2026-05-02T10:48:46.643Z</time></trkpt><trkpt lat="42.2506959" lon="13.7622709"><ele>673.0</ele><time>2026-05-02T10:48:47.662Z</time></trkpt><trkpt lat="42.2506678" lon="13.7623549"><ele>673.0</ele><time>2026-05-02T10:48:48.644Z</time></trkpt><trkpt lat="42.2506325" lon="13.7624363"><ele>676.0</ele><time>2026-05-02T10:48:49.665Z</time></trkpt><trkpt lat="42.2505734" lon="13.7625227"><ele>679.0</ele><time>2026-05-02T10:48:50.65Z</time></trkpt><trkpt lat="42.250478" lon="13.7625911"><ele>682.0</ele><time>2026-05-02T10:48:51.641Z</time></trkpt><trkpt lat="42.2503603" lon="13.7626512"><ele>685.0</ele><time>2026-05-02T10:48:52.651Z</time></trkpt><trkpt lat="42.2502198" lon="13.7626855"><ele>684.75</ele><time>2026-05-02T10:48:53.659Z</time></trkpt><trkpt lat="42.2500666" lon="13.7627275"><ele>684.5</ele><time>2026-05-02T10:48:54.647Z</time></trkpt><trkpt lat="42.2499135" lon="13.7627747"><ele>684.25</ele><time>2026-05-02T10:48:55.657Z</time></trkpt><trkpt lat="42.2497916" lon="13.7628281"><ele>684.0</ele><time>2026-05-02T10:48:56.659Z</time></trkpt><trkpt lat="42.249693" lon="13.7628894"><ele>684.0</ele><time>2026-05-02T10:48:57.648Z</time></trkpt><trkpt lat="42.2495993" lon="13.7629614"><ele>684.0</ele><time>2026-05-02T10:48:58.659Z</time></trkpt><trkpt lat="42.2495111" lon="13.7630622"><ele>684.0</ele><time>2026-05-02T10:48:59.655Z</time></trkpt><trkpt lat="42.2494139" lon="13.7631557"><ele>684.0</ele><time>2026-05-02T10:49:00.662Z</time></trkpt><trkpt lat="42.2493144" lon="13.7632446"><ele>684.0</ele><time>2026-05-02T10:49:01.646Z</time></trkpt><trkpt lat="42.2491893" lon="13.7633277"><ele>684.0</ele><time>2026-05-02T10:49:02.676Z</time></trkpt><trkpt lat="42.2490557" lon="13.7634074"><ele>684.0</ele><time>2026-05-02T10:49:03.643Z</time></trkpt><trkpt lat="42.2489259" lon="13.7634806"><ele>684.0</ele><time>2026-05-02T10:49:04.651Z</time></trkpt><trkpt lat="42.2488044" lon="13.7635686"><ele>685.3333333333334</ele><time>2026-05-02T10:49:05.647Z</time></trkpt><trkpt lat="42.248687" lon="13.7636748"><ele>686.6666666666667</ele><time>2026-05-02T10:49:06.647Z</time></trkpt><trkpt lat="42.2485727" lon="13.7637894"><ele>688.0</ele><time>2026-05-02T10:49:07.656Z</time></trkpt><trkpt lat="42.2484483" lon="13.7639378"><ele>688.0</ele><time>2026-05-02T10:49:08.653Z</time></trkpt><trkpt lat="42.2483063" lon="13.7641054"><ele>688.0</ele><time>2026-05-02T10:49:09.671Z</time></trkpt><trkpt lat="42.2481642" lon="13.7642586"><ele>688.0</ele><time>2026-05-02T10:49:10.646Z</time></trkpt><trkpt lat="42.2480393" lon="13.7643928"><ele>690.0</ele><time>2026-05-02T10:49:11.642Z</time></trkpt><trkpt lat="42.2479362" lon="13.7645006"><ele>692.0</ele><time>2026-05-02T10:49:12.648Z</time></trkpt><trkpt lat="42.247847" lon="13.7646079"><ele>694.0</ele><time>2026-05-02T10:49:13.658Z</time></trkpt><trkpt lat="42.2477778" lon="13.7647471"><ele>696.0</ele><time>2026-05-02T10:49:14.644Z</time></trkpt><trkpt lat="42.2477144" lon="13.764888"><ele>696.0</ele><time>2026-05-02T10:49:15.654Z</time></trkpt><trkpt lat="42.2476529" lon="13.7650049"><ele>696.0</ele><time>2026-05-02T10:49:16.658Z</time></trkpt><trkpt lat="42.2475796" lon="13.7650958"><ele>696.0</ele><time>2026-05-02T10:49:17.644Z</time></trkpt><trkpt lat="42.2474936" lon="13.765181"><ele>696.0</ele><time>2026-05-02T10:49:18.65Z</time></trkpt><trkpt lat="42.2473886" lon="13.7652502"><ele>696.0</ele><time>2026-05-02T10:49:19.647Z</time></trkpt><trkpt lat="42.2472748" lon="13.7653194"><ele>699.1999999999999</ele><time>2026-05-02T10:49:20.641Z</time></trkpt><trkpt lat="42.2471711" lon="13.765372"><ele>702.4</ele><time>2026-05-02T10:49:21.647Z</time></trkpt><trkpt lat="42.2470923" lon="13.7654067"><ele>705.6</ele><time>2026-05-02T10:49:22.644Z</time></trkpt><trkpt lat="42.2470045" lon="13.7654594"><ele>708.8</ele><time>2026-05-02T10:49:23.682Z</time></trkpt><trkpt lat="42.2469279" lon="13.7655192"><ele>712.0</ele><time>2026-05-02T10:49:24.648Z</time></trkpt><trkpt lat="42.2468474" lon="13.7655844"><ele>712.0</ele><time>2026-05-02T10:49:25.649Z</time></trkpt><trkpt lat="42.2467686" lon="13.7656436"><ele>712.0</ele><time>2026-05-02T10:49:26.648Z</time></trkpt><trkpt lat="42.246684" lon="13.7657046"><ele>712.0</ele><time>2026-05-02T10:49:27.655Z</time></trkpt><trkpt lat="42.2465965" lon="13.765773"><ele>712.0</ele><time>2026-05-02T10:49:28.649Z</time></trkpt><trkpt lat="42.2465067" lon="13.7658378"><ele>712.0</ele><time>2026-05-02T10:49:29.65Z</time></trkpt><trkpt lat="42.2464319" lon="13.7659426"><ele>713.6</ele><time>2026-05-02T10:49:30.652Z</time></trkpt><trkpt lat="42.2463647" lon="13.7660492"><ele>715.2</ele><time>2026-05-02T10:49:31.64Z</time></trkpt><trkpt lat="42.2462902" lon="13.7661516"><ele>716.8</ele><time>2026-05-02T10:49:32.655Z</time></trkpt><trkpt lat="42.2462177" lon="13.7662568"><ele>718.4</ele><time>2026-05-02T10:49:33.649Z</time></trkpt><trkpt lat="42.2461429" lon="13.7663555"><ele>720.0</ele><time>2026-05-02T10:49:34.665Z</time></trkpt><trkpt lat="42.2460729" lon="13.7664407"><ele>720.0</ele><time>2026-05-02T10:49:35.641Z</time></trkpt><trkpt lat="42.2460045" lon="13.7664938"><ele>720.0</ele><time>2026-05-02T10:49:36.65Z</time></trkpt><trkpt lat="42.2459214" lon="13.7665142"><ele>720.0</ele><time>2026-05-02T10:49:37.648Z</time></trkpt><trkpt lat="42.245822" lon="13.7665273"><ele>720.0</ele><time>2026-05-02T10:49:38.643Z</time></trkpt><trkpt lat="42.2456943" lon="13.7665769"><ele>720.0</ele><time>2026-05-02T10:49:39.647Z</time></trkpt><trkpt lat="42.2455552" lon="13.7666451"><ele>722.25</ele><time>2026-05-02T10:49:40.665Z</time></trkpt><trkpt lat="42.2454205" lon="13.7667243"><ele>724.5</ele><time>2026-05-02T10:49:41.651Z</time></trkpt><trkpt lat="42.2453177" lon="13.7667741"><ele>726.75</ele><time>2026-05-02T10:49:42.654Z</time></trkpt><trkpt lat="42.2452371" lon="13.7668156"><ele>729.0</ele><time>2026-05-02T10:49:43.648Z</time></trkpt><trkpt lat="42.2451203" lon="13.7668482"><ele>729.0</ele><time>2026-05-02T10:49:44.654Z</time></trkpt><trkpt lat="42.2449853" lon="13.7668955"><ele>729.0</ele><time>2026-05-02T10:49:45.652Z</time></trkpt><trkpt lat="42.2448404" lon="13.766941"><ele>729.0</ele><time>2026-05-02T10:49:46.647Z</time></trkpt><trkpt lat="42.2446935" lon="13.7669925"><ele>729.0</ele><time>2026-05-02T10:49:47.662Z</time></trkpt><trkpt lat="42.2445517" lon="13.7670356"><ele>729.0</ele><time>2026-05-02T10:49:48.66Z</time></trkpt><trkpt lat="42.244415" lon="13.7670609"><ele>729.0</ele><time>2026-05-02T10:49:49.66Z</time></trkpt><trkpt lat="42.2442949" lon="13.7670691"><ele>729.0</ele><time>2026-05-02T10:49:50.673Z</time></trkpt><trkpt lat="42.2441668" lon="13.7670794"><ele>729.0</ele><time>2026-05-02T10:49:51.676Z</time></trkpt><trkpt lat="42.2440358" lon="13.7671096"><ele>732.75</ele><time>2026-05-02T10:49:52.653Z</time></trkpt><trkpt lat="42.2439097" lon="13.7671465"><ele>736.5</ele><time>2026-05-02T10:49:53.664Z</time></trkpt><trkpt lat="42.243788" lon="13.7671937"><ele>740.25</ele><time>2026-05-02T10:49:54.651Z</time></trkpt><trkpt lat="42.2436712" lon="13.7672385"><ele>744.0</ele><time>2026-05-02T10:49:55.65Z</time></trkpt><trkpt lat="42.2435462" lon="13.7672582"><ele>744.0</ele><time>2026-05-02T10:49:56.664Z</time></trkpt><trkpt lat="42.2434184" lon="13.767268"><ele>744.0</ele><time>2026-05-02T10:49:57.664Z</time></trkpt><trkpt lat="42.2432899" lon="13.7672839"><ele>744.0</ele><time>2026-05-02T10:49:58.671Z</time></trkpt><trkpt lat="42.2431592" lon="13.7673008"><ele>744.0</ele><time>2026-05-02T10:49:59.644Z</time></trkpt><trkpt lat="42.2430334" lon="13.7673169"><ele>747.25</ele><time>2026-05-02T10:50:00.649Z</time></trkpt><trkpt lat="42.2429076" lon="13.7673156"><ele>750.5</ele><time>2026-05-02T10:50:01.658Z</time></trkpt><trkpt lat="42.2427851" lon="13.7673151"><ele>753.75</ele><time>2026-05-02T10:50:02.654Z</time></trkpt><trkpt lat="42.2426552" lon="13.7673352"><ele>757.0</ele><time>2026-05-02T10:50:03.687Z</time></trkpt><trkpt lat="42.2425275" lon="13.76737"><ele>757.0</ele><time>2026-05-02T10:50:04.648Z</time></trkpt><trkpt lat="42.2424013" lon="13.7674078"><ele>757.0</ele><time>2026-05-02T10:50:05.66Z</time></trkpt><trkpt lat="42.2422846" lon="13.7674417"><ele>757.0</ele><time>2026-05-02T10:50:06.646Z</time></trkpt><trkpt lat="42.2421708" lon="13.7674857"><ele>757.0</ele><time>2026-05-02T10:50:07.637Z</time></trkpt><trkpt lat="42.2420491" lon="13.7675536"><ele>757.0</ele><time>2026-05-02T10:50:08.646Z</time></trkpt><trkpt lat="42.2419224" lon="13.7676352"><ele>757.0</ele><time>2026-05-02T10:50:09.648Z</time></trkpt><trkpt lat="42.241788" lon="13.7677256"><ele>757.0</ele><time>2026-05-02T10:50:10.656Z</time></trkpt><trkpt lat="42.2416564" lon="13.767822"><ele>757.0</ele><time>2026-05-02T10:50:11.658Z</time></trkpt><trkpt lat="42.2415457" lon="13.7679344"><ele>766.6666666666667</ele><time>2026-05-02T10:50:12.642Z</time></trkpt><trkpt lat="42.2414492" lon="13.7680922"><ele>776.3333333333334</ele><time>2026-05-02T10:50:13.648Z</time></trkpt><trkpt lat="42.2413634" lon="13.7682567"><ele>786.0</ele><time>2026-05-02T10:50:14.646Z</time></trkpt><trkpt lat="42.2412748" lon="13.7684286"><ele>782.3333333333333</ele><time>2026-05-02T10:50:15.651Z</time></trkpt><trkpt lat="42.2411759" lon="13.7685941"><ele>778.6666666666666</ele><time>2026-05-02T10:50:16.649Z</time></trkpt><trkpt lat="42.2410669" lon="13.7687516"><ele>775.0</ele><time>2026-05-02T10:50:17.647Z</time></trkpt><trkpt lat="42.2409734" lon="13.7688984"><ele>775.0</ele><time>2026-05-02T10:50:18.645Z</time></trkpt><trkpt lat="42.240916" lon="13.7690386"><ele>775.0</ele><time>2026-05-02T10:50:19.644Z</time></trkpt><trkpt lat="42.2408678" lon="13.7691767"><ele>775.0</ele><time>2026-05-02T10:50:20.65Z</time></trkpt><trkpt lat="42.240826" lon="13.7692526"><ele>775.0</ele><time>2026-05-02T10:50:21.649Z</time></trkpt><trkpt lat="42.2406963" lon="13.7693421"><ele>775.0</ele><time>2026-05-02T10:50:23.651Z</time></trkpt><trkpt lat="42.2406088" lon="13.7693501"><ele>777.8</ele><time>2026-05-02T10:50:24.649Z</time></trkpt><trkpt lat="42.240523" lon="13.7693104"><ele>780.6</ele><time>2026-05-02T10:50:25.64Z</time></trkpt><trkpt lat="42.2404318" lon="13.7692665"><ele>783.4000000000001</ele><time>2026-05-02T10:50:26.649Z</time></trkpt><trkpt lat="42.240327" lon="13.7692277"><ele>786.2</ele><time>2026-05-02T10:50:27.66Z</time></trkpt><trkpt lat="42.2402109" lon="13.7692139"><ele>789.0</ele><time>2026-05-02T10:50:28.643Z</time></trkpt><trkpt lat="42.2400896" lon="13.7692091"><ele>789.0</ele><time>2026-05-02T10:50:29.668Z</time></trkpt><trkpt lat="42.2399643" lon="13.7692049"><ele>789.0</ele><time>2026-05-02T10:50:30.648Z</time></trkpt><trkpt lat="42.2398313" lon="13.7691888"><ele>789.0</ele><time>2026-05-02T10:50:31.653Z</time></trkpt><trkpt lat="42.2397177" lon="13.7691709"><ele>789.0</ele><time>2026-05-02T10:50:32.656Z</time></trkpt><trkpt lat="42.2396185" lon="13.7691352"><ele>792.2</ele><time>2026-05-02T10:50:33.66Z</time></trkpt><trkpt lat="42.2395055" lon="13.7691072"><ele>795.4000000000001</ele><time>2026-05-02T10:50:34.661Z</time></trkpt><trkpt lat="42.2393946" lon="13.769095"><ele>798.6</ele><time>2026-05-02T10:50:35.661Z</time></trkpt><trkpt lat="42.2393159" lon="13.76913"><ele>801.8</ele><time>2026-05-02T10:50:36.663Z</time></trkpt><trkpt lat="42.2392579" lon="13.7692065"><ele>805.0</ele><time>2026-05-02T10:50:37.644Z</time></trkpt><trkpt lat="42.2391847" lon="13.7692684"><ele>804.9999999999999</ele><time>2026-05-02T10:50:38.661Z</time></trkpt><trkpt lat="42.2391177" lon="13.7693206"><ele>805.0</ele><time>2026-05-02T10:50:39.647Z</time></trkpt><trkpt lat="42.2390368" lon="13.7693569"><ele>805.0</ele><time>2026-05-02T10:50:40.669Z</time></trkpt><trkpt lat="42.2389521" lon="13.7693843"><ele>805.0</ele><time>2026-05-02T10:50:41.659Z</time></trkpt><trkpt lat="42.2388615" lon="13.7694076"><ele>804.9999999999999</ele><time>2026-05-02T10:50:42.65Z</time></trkpt><trkpt lat="42.2387588" lon="13.7694086"><ele>805.0</ele><time>2026-05-02T10:50:43.658Z</time></trkpt><trkpt lat="42.2386525" lon="13.7694105"><ele>804.75</ele><time>2026-05-02T10:50:44.658Z</time></trkpt><trkpt lat="42.2385408" lon="13.7694126"><ele>804.5</ele><time>2026-05-02T10:50:45.647Z</time></trkpt><trkpt lat="42.2384167" lon="13.7694453"><ele>804.25</ele><time>2026-05-02T10:50:46.644Z</time></trkpt><trkpt lat="42.2382875" lon="13.7694816"><ele>804.0</ele><time>2026-05-02T10:50:47.667Z</time></trkpt><trkpt lat="42.2381578" lon="13.7695529"><ele>808.25</ele><time>2026-05-02T10:50:48.662Z</time></trkpt><trkpt lat="42.2380198" lon="13.7696234"><ele>812.5</ele><time>2026-05-02T10:50:49.653Z</time></trkpt><trkpt lat="42.2378782" lon="13.7697093"><ele>816.75</ele><time>2026-05-02T10:50:50.645Z</time></trkpt><trkpt lat="42.2377523" lon="13.7698007"><ele>821.0</ele><time>2026-05-02T10:50:51.664Z</time></trkpt><trkpt lat="42.2376268" lon="13.769855"><ele>821.0</ele><time>2026-05-02T10:50:52.665Z</time></trkpt><trkpt lat="42.2374963" lon="13.7698972"><ele>821.0</ele><time>2026-05-02T10:50:53.64Z</time></trkpt><trkpt lat="42.2373733" lon="13.7699205"><ele>821.0</ele><time>2026-05-02T10:50:54.641Z</time></trkpt><trkpt lat="42.2372623" lon="13.7699475"><ele>821.0</ele><time>2026-05-02T10:50:55.648Z</time></trkpt><trkpt lat="42.2371523" lon="13.7699874"><ele>822.4</ele><time>2026-05-02T10:50:56.658Z</time></trkpt><trkpt lat="42.2370487" lon="13.7700531"><ele>823.8</ele><time>2026-05-02T10:50:57.644Z</time></trkpt><trkpt lat="42.236963" lon="13.7701624"><ele>825.1999999999999</ele><time>2026-05-02T10:50:58.651Z</time></trkpt><trkpt lat="42.2368968" lon="13.7702552"><ele>826.5999999999999</ele><time>2026-05-02T10:50:59.66Z</time></trkpt><trkpt lat="42.2368146" lon="13.7703422"><ele>828.0</ele><time>2026-05-02T10:51:00.648Z</time></trkpt><trkpt lat="42.2367084" lon="13.7704074"><ele>828.0</ele><time>2026-05-02T10:51:01.677Z</time></trkpt><trkpt lat="42.2365833" lon="13.7704638"><ele>828.0</ele><time>2026-05-02T10:51:02.658Z</time></trkpt><trkpt lat="42.2364451" lon="13.77051"><ele>828.0</ele><time>2026-05-02T10:51:03.658Z</time></trkpt><trkpt lat="42.2362963" lon="13.7705458"><ele>828.0</ele><time>2026-05-02T10:51:04.658Z</time></trkpt><trkpt lat="42.2361753" lon="13.7705708"><ele>829.1666666666666</ele><time>2026-05-02T10:51:05.655Z</time></trkpt><trkpt lat="42.2360908" lon="13.7706001"><ele>830.3333333333333</ele><time>2026-05-02T10:51:06.663Z</time></trkpt><trkpt lat="42.2360156" lon="13.7706324"><ele>831.5</ele><time>2026-05-02T10:51:07.66Z</time></trkpt><trkpt lat="42.2359389" lon="13.7706603"><ele>832.6666666666666</ele><time>2026-05-02T10:51:09.657Z</time></trkpt><trkpt lat="42.2358771" lon="13.7706973"><ele>833.8333333333333</ele><time>2026-05-02T10:51:11.661Z</time></trkpt><trkpt lat="42.2358525" lon="13.7707926"><ele>835.0</ele><time>2026-05-02T10:56:28.658Z</time></trkpt><trkpt lat="42.2358472" lon="13.7709406"><ele>836.0</ele><time>2026-05-02T10:56:30.649Z</time></trkpt><trkpt lat="42.235864" lon="13.771067"><ele>837.0</ele><time>2026-05-02T10:56:31.659Z</time></trkpt><trkpt lat="42.2358794" lon="13.7712177"><ele>838.0</ele><time>2026-05-02T10:56:32.66Z</time></trkpt><trkpt lat="42.2358977" lon="13.7713652"><ele>839.0</ele><time>2026-05-02T10:56:33.655Z</time></trkpt><trkpt lat="42.2359133" lon="13.7714941"><ele>840.0</ele><time>2026-05-02T10:56:34.648Z</time></trkpt><trkpt lat="42.2359156" lon="13.7715959"><ele>840.0</ele><time>2026-05-02T10:56:35.66Z</time></trkpt><trkpt lat="42.2359048" lon="13.7717775"><ele>840.0</ele><time>2026-05-02T10:56:37.664Z</time></trkpt><trkpt lat="42.235872" lon="13.7718961"><ele>840.0</ele><time>2026-05-02T10:56:38.647Z</time></trkpt><trkpt lat="42.2358295" lon="13.7720125"><ele>840.0</ele><time>2026-05-02T10:56:39.656Z</time></trkpt><trkpt lat="42.2357737" lon="13.7721108"><ele>840.0</ele><time>2026-05-02T10:56:40.643Z</time></trkpt><trkpt lat="42.2357027" lon="13.7722072"><ele>840.0</ele><time>2026-05-02T10:56:41.657Z</time></trkpt><trkpt lat="42.2356313" lon="13.7723051"><ele>840.0</ele><time>2026-05-02T10:56:42.652Z</time></trkpt><trkpt lat="42.2355791" lon="13.7724218"><ele>840.0</ele><time>2026-05-02T10:56:43.657Z</time></trkpt><trkpt lat="42.235532" lon="13.7725537"><ele>840.0</ele><time>2026-05-02T10:56:44.653Z</time></trkpt><trkpt lat="42.2354764" lon="13.7726737"><ele>840.0</ele><time>2026-05-02T10:56:45.653Z</time></trkpt><trkpt lat="42.2353952" lon="13.7727716"><ele>840.0</ele><time>2026-05-02T10:56:46.653Z</time></trkpt><trkpt lat="42.2352714" lon="13.7728866"><ele>840.0</ele><time>2026-05-02T10:56:47.668Z</time></trkpt><trkpt lat="42.2351537" lon="13.7730256"><ele>840.0</ele><time>2026-05-02T10:56:48.653Z</time></trkpt><trkpt lat="42.2350813" lon="13.7731381"><ele>840.0</ele><time>2026-05-02T10:56:49.66Z</time></trkpt><trkpt lat="42.2350457" lon="13.7732489"><ele>840.0</ele><time>2026-05-02T10:56:50.647Z</time></trkpt><trkpt lat="42.2350236" lon="13.7733616"><ele>840.0</ele><time>2026-05-02T10:56:51.656Z</time></trkpt><trkpt lat="42.2350268" lon="13.7734623"><ele>840.0</ele><time>2026-05-02T10:56:52.645Z</time></trkpt><trkpt lat="42.2350398" lon="13.7736019"><ele>840.0</ele><time>2026-05-02T10:56:53.647Z</time></trkpt><trkpt lat="42.2350847" lon="13.7737758"><ele>840.0</ele><time>2026-05-02T10:56:54.641Z</time></trkpt><trkpt lat="42.235131" lon="13.7738975"><ele>840.8</ele><time>2026-05-02T10:56:55.649Z</time></trkpt><trkpt lat="42.2351993" lon="13.7739876"><ele>841.6</ele><time>2026-05-02T10:56:56.653Z</time></trkpt><trkpt lat="42.2352701" lon="13.7740865"><ele>842.4000000000001</ele><time>2026-05-02T10:56:57.651Z</time></trkpt><trkpt lat="42.2353522" lon="13.7741921"><ele>843.2</ele><time>2026-05-02T10:56:58.668Z</time></trkpt><trkpt lat="42.2354133" lon="13.7743036"><ele>844.0</ele><time>2026-05-02T10:56:59.648Z</time></trkpt><trkpt lat="42.2354486" lon="13.7744323"><ele>845.25</ele><time>2026-05-02T10:57:00.651Z</time></trkpt><trkpt lat="42.2354758" lon="13.774567"><ele>846.5</ele><time>2026-05-02T10:57:01.636Z</time></trkpt><trkpt lat="42.2355131" lon="13.7747208"><ele>847.75</ele><time>2026-05-02T10:57:02.649Z</time></trkpt><trkpt lat="42.2355299" lon="13.7749181"><ele>849.0</ele><time>2026-05-02T10:57:03.641Z</time></trkpt><trkpt lat="42.2355342" lon="13.7751101"><ele>847.25</ele><time>2026-05-02T10:57:04.642Z</time></trkpt><trkpt lat="42.2355218" lon="13.7752855"><ele>845.5</ele><time>2026-05-02T10:57:05.65Z</time></trkpt><trkpt lat="42.2354973" lon="13.7754339"><ele>843.75</ele><time>2026-05-02T10:57:06.65Z</time></trkpt><trkpt lat="42.2354668" lon="13.7755653"><ele>842.0</ele><time>2026-05-02T10:57:07.646Z</time></trkpt><trkpt lat="42.2354094" lon="13.7756953"><ele>842.0</ele><time>2026-05-02T10:57:08.651Z</time></trkpt><trkpt lat="42.2353338" lon="13.7758204"><ele>842.0</ele><time>2026-05-02T10:57:09.658Z</time></trkpt><trkpt lat="42.2352418" lon="13.7759189"><ele>842.0</ele><time>2026-05-02T10:57:10.666Z</time></trkpt><trkpt lat="42.2351336" lon="13.7760029"><ele>842.0</ele><time>2026-05-02T10:57:11.649Z</time></trkpt><trkpt lat="42.2350145" lon="13.7760541"><ele>844.5</ele><time>2026-05-02T10:57:12.663Z</time></trkpt><trkpt lat="42.2348835" lon="13.7760944"><ele>847.0</ele><time>2026-05-02T10:57:13.651Z</time></trkpt><trkpt lat="42.2347355" lon="13.7761346"><ele>849.5</ele><time>2026-05-02T10:57:14.654Z</time></trkpt><trkpt lat="42.2346132" lon="13.7761679"><ele>852.0</ele><time>2026-05-02T10:57:15.659Z</time></trkpt><trkpt lat="42.2345129" lon="13.7761899"><ele>852.0</ele><time>2026-05-02T10:57:16.657Z</time></trkpt><trkpt lat="42.2344352" lon="13.7762373"><ele>852.0</ele><time>2026-05-02T10:57:17.652Z</time></trkpt><trkpt lat="42.2343706" lon="13.7763767"><ele>852.0</ele><time>2026-05-02T10:57:19.646Z</time></trkpt><trkpt lat="42.2343422" lon="13.776466"><ele>852.0</ele><time>2026-05-02T10:57:20.656Z</time></trkpt><trkpt lat="42.234355" lon="13.7765552"><ele>852.0</ele><time>2026-05-02T10:57:21.648Z</time></trkpt><trkpt lat="42.2344231" lon="13.776679"><ele>852.0</ele><time>2026-05-02T10:57:22.644Z</time></trkpt><trkpt lat="42.2345167" lon="13.7768343"><ele>852.0</ele><time>2026-05-02T10:57:23.651Z</time></trkpt><trkpt lat="42.2346068" lon="13.7769952"><ele>852.0</ele><time>2026-05-02T10:57:24.641Z</time></trkpt><trkpt lat="42.2346955" lon="13.7771259"><ele>852.0</ele><time>2026-05-02T10:57:25.661Z</time></trkpt><trkpt lat="42.2347931" lon="13.777248"><ele>851.5</ele><time>2026-05-02T10:57:26.652Z</time></trkpt><trkpt lat="42.2348897" lon="13.777376"><ele>851.0</ele><time>2026-05-02T10:57:27.638Z</time></trkpt><trkpt lat="42.2349987" lon="13.7775199"><ele>850.5</ele><time>2026-05-02T10:57:28.643Z</time></trkpt><trkpt lat="42.2351036" lon="13.7776663"><ele>850.0</ele><time>2026-05-02T10:57:29.645Z</time></trkpt><trkpt lat="42.2351904" lon="13.7777891"><ele>850.0</ele><time>2026-05-02T10:57:30.669Z</time></trkpt><trkpt lat="42.2352527" lon="13.7779045"><ele>850.0</ele><time>2026-05-02T10:57:31.651Z</time></trkpt><trkpt lat="42.2352915" lon="13.7780221"><ele>850.0</ele><time>2026-05-02T10:57:32.64Z</time></trkpt><trkpt lat="42.235313" lon="13.778137"><ele>850.0</ele><time>2026-05-02T10:57:33.633Z</time></trkpt><trkpt lat="42.2353219" lon="13.7782889"><ele>850.0</ele><time>2026-05-02T10:57:34.645Z</time></trkpt><trkpt lat="42.2353131" lon="13.7784484"><ele>849.8</ele><time>2026-05-02T10:57:35.645Z</time></trkpt><trkpt lat="42.235296" lon="13.7785947"><ele>849.6</ele><time>2026-05-02T10:57:36.66Z</time></trkpt><trkpt lat="42.2352607" lon="13.7787105"><ele>849.4000000000001</ele><time>2026-05-02T10:57:37.653Z</time></trkpt><trkpt lat="42.2352077" lon="13.778832"><ele>849.2</ele><time>2026-05-02T10:57:38.647Z</time></trkpt><trkpt lat="42.2351313" lon="13.7789357"><ele>849.0</ele><time>2026-05-02T10:57:39.667Z</time></trkpt><trkpt lat="42.2350335" lon="13.779055"><ele>849.0</ele><time>2026-05-02T10:57:40.63Z</time></trkpt><trkpt lat="42.2349268" lon="13.7791792"><ele>849.0</ele><time>2026-05-02T10:57:41.657Z</time></trkpt><trkpt lat="42.2348026" lon="13.7793141"><ele>849.0</ele><time>2026-05-02T10:57:42.647Z</time></trkpt><trkpt lat="42.2346529" lon="13.7794476"><ele>848.6666666666667</ele><time>2026-05-02T10:57:43.659Z</time></trkpt><trkpt lat="42.2345034" lon="13.7795667"><ele>848.3333333333334</ele><time>2026-05-02T10:57:44.656Z</time></trkpt><trkpt lat="42.2343678" lon="13.7796888"><ele>848.0</ele><time>2026-05-02T10:57:45.643Z</time></trkpt><trkpt lat="42.2342558" lon="13.779784"><ele>848.0</ele><time>2026-05-02T10:57:46.654Z</time></trkpt><trkpt lat="42.2341524" lon="13.7798409"><ele>848.0</ele><time>2026-05-02T10:57:47.663Z</time></trkpt><trkpt lat="42.2340481" lon="13.7798896"><ele>848.0</ele><time>2026-05-02T10:57:48.693Z</time></trkpt><trkpt lat="42.2339571" lon="13.779944"><ele>848.0</ele><time>2026-05-02T10:57:49.649Z</time></trkpt><trkpt lat="42.2338804" lon="13.78001"><ele>848.0</ele><time>2026-05-02T10:57:50.664Z</time></trkpt><trkpt lat="42.2338666" lon="13.7801351"><ele>847.0</ele><time>2026-05-02T10:57:52.659Z</time></trkpt><trkpt lat="42.2338902" lon="13.7802215"><ele>846.0</ele><time>2026-05-02T10:57:53.659Z</time></trkpt><trkpt lat="42.2339292" lon="13.7803091"><ele>845.0</ele><time>2026-05-02T10:57:54.649Z</time></trkpt><trkpt lat="42.2339767" lon="13.7804368"><ele>844.0</ele><time>2026-05-02T10:57:55.65Z</time></trkpt><trkpt lat="42.2340114" lon="13.7805712"><ele>843.0</ele><time>2026-05-02T10:57:56.653Z</time></trkpt><trkpt lat="42.2340265" lon="13.780715"><ele>843.0</ele><time>2026-05-02T10:57:57.667Z</time></trkpt><trkpt lat="42.2340244" lon="13.7808891"><ele>843.0</ele><time>2026-05-02T10:57:58.652Z</time></trkpt><trkpt lat="42.2340078" lon="13.7810862"><ele>843.0</ele><time>2026-05-02T10:57:59.65Z</time></trkpt><trkpt lat="42.234003" lon="13.7812842"><ele>843.0</ele><time>2026-05-02T10:58:00.667Z</time></trkpt><trkpt lat="42.2340189" lon="13.7814613"><ele>842.5999999999999</ele><time>2026-05-02T10:58:01.654Z</time></trkpt><trkpt lat="42.2340444" lon="13.7816213"><ele>842.1999999999999</ele><time>2026-05-02T10:58:02.644Z</time></trkpt><trkpt lat="42.2340679" lon="13.7817619"><ele>841.8</ele><time>2026-05-02T10:58:03.636Z</time></trkpt><trkpt lat="42.2340894" lon="13.781883"><ele>841.4</ele><time>2026-05-02T10:58:04.658Z</time></trkpt><trkpt lat="42.234113" lon="13.7819665"><ele>841.0</ele><time>2026-05-02T10:58:05.647Z</time></trkpt><trkpt lat="42.2341422" lon="13.7820585"><ele>840.9999999999999</ele><time>2026-05-02T10:58:07.648Z</time></trkpt><trkpt lat="42.2341704" lon="13.7821585"><ele>841.0</ele><time>2026-05-02T10:58:10.643Z</time></trkpt><trkpt lat="42.2341711" lon="13.7820679"><ele>841.0</ele><time>2026-05-02T10:58:16.634Z</time></trkpt><trkpt lat="42.2341144" lon="13.781981"><ele>841.0</ele><time>2026-05-02T10:58:18.648Z</time></trkpt><trkpt lat="42.2340604" lon="13.7818278"><ele>840.9999999999999</ele><time>2026-05-02T10:58:20.659Z</time></trkpt><trkpt lat="42.2340301" lon="13.7817172"><ele>841.0</ele><time>2026-05-02T10:58:21.669Z</time></trkpt><trkpt lat="42.2339847" lon="13.7816073"><ele>841.75</ele><time>2026-05-02T10:58:22.672Z</time></trkpt><trkpt lat="42.23393" lon="13.7814789"><ele>842.5</ele><time>2026-05-02T10:58:23.67Z</time></trkpt><trkpt lat="42.2338679" lon="13.7813421"><ele>843.25</ele><time>2026-05-02T10:58:24.659Z</time></trkpt><trkpt lat="42.2337977" lon="13.7811967"><ele>844.0</ele><time>2026-05-02T10:58:25.663Z</time></trkpt><trkpt lat="42.233713" lon="13.7810588"><ele>847.6666666666666</ele><time>2026-05-02T10:58:26.688Z</time></trkpt><trkpt lat="42.2336125" lon="13.780899"><ele>851.3333333333333</ele><time>2026-05-02T10:58:27.677Z</time></trkpt><trkpt lat="42.233492" lon="13.7807207"><ele>855.0</ele><time>2026-05-02T10:58:28.666Z</time></trkpt><trkpt lat="42.2333562" lon="13.7805377"><ele>855.0</ele><time>2026-05-02T10:58:29.654Z</time></trkpt><trkpt lat="42.2332353" lon="13.7803904"><ele>855.0</ele><time>2026-05-02T10:58:30.655Z</time></trkpt><trkpt lat="42.2331431" lon="13.7802697"><ele>855.0</ele><time>2026-05-02T10:58:31.657Z</time></trkpt><trkpt lat="42.2330692" lon="13.7801425"><ele>855.0</ele><time>2026-05-02T10:58:32.68Z</time></trkpt><trkpt lat="42.2329829" lon="13.7800003"><ele>859.25</ele><time>2026-05-02T10:58:33.643Z</time></trkpt><trkpt lat="42.2328906" lon="13.7798622"><ele>863.5</ele><time>2026-05-02T10:58:34.651Z</time></trkpt><trkpt lat="42.2328131" lon="13.7797615"><ele>867.75</ele><time>2026-05-02T10:58:35.646Z</time></trkpt><trkpt lat="42.2327306" lon="13.7796823"><ele>872.0</ele><time>2026-05-02T10:58:36.649Z</time></trkpt><trkpt lat="42.2326347" lon="13.7795943"><ele>872.0</ele><time>2026-05-02T10:58:37.657Z</time></trkpt><trkpt lat="42.2325393" lon="13.7795295"><ele>872.0</ele><time>2026-05-02T10:58:38.646Z</time></trkpt><trkpt lat="42.2324455" lon="13.7794772"><ele>872.0</ele><time>2026-05-02T10:58:39.666Z</time></trkpt><trkpt lat="42.2323387" lon="13.7794335"><ele>872.0</ele><time>2026-05-02T10:58:40.653Z</time></trkpt><trkpt lat="42.2322067" lon="13.7793845"><ele>875.75</ele><time>2026-05-02T10:58:41.658Z</time></trkpt><trkpt lat="42.2320639" lon="13.779329"><ele>879.5</ele><time>2026-05-02T10:58:42.652Z</time></trkpt><trkpt lat="42.2319177" lon="13.7792683"><ele>883.25</ele><time>2026-05-02T10:58:43.651Z</time></trkpt><trkpt lat="42.2317872" lon="13.7792037"><ele>887.0</ele><time>2026-05-02T10:58:44.648Z</time></trkpt><trkpt lat="42.2316906" lon="13.7791276"><ele>887.0</ele><time>2026-05-02T10:58:45.651Z</time></trkpt><trkpt lat="42.2315702" lon="13.7790319"><ele>887.0</ele><time>2026-05-02T10:58:46.672Z</time></trkpt><trkpt lat="42.2314494" lon="13.7789527"><ele>887.0</ele><time>2026-05-02T10:58:47.661Z</time></trkpt><trkpt lat="42.2313569" lon="13.7788656"><ele>887.0</ele><time>2026-05-02T10:58:48.653Z</time></trkpt><trkpt lat="42.2312871" lon="13.7787578"><ele>888.4000000000001</ele><time>2026-05-02T10:58:49.642Z</time></trkpt><trkpt lat="42.2311943" lon="13.7786365"><ele>889.8000000000001</ele><time>2026-05-02T10:58:50.649Z</time></trkpt><trkpt lat="42.2311127" lon="13.7785562"><ele>891.2</ele><time>2026-05-02T10:58:51.649Z</time></trkpt><trkpt lat="42.2310232" lon="13.7785168"><ele>892.6</ele><time>2026-05-02T10:58:52.643Z</time></trkpt><trkpt lat="42.2309227" lon="13.7785127"><ele>894.0</ele><time>2026-05-02T10:58:53.641Z</time></trkpt><trkpt lat="42.2308229" lon="13.7784983"><ele>897.0</ele><time>2026-05-02T10:58:54.658Z</time></trkpt><trkpt lat="42.2307294" lon="13.778466"><ele>900.0</ele><time>2026-05-02T10:58:55.648Z</time></trkpt><trkpt lat="42.2306139" lon="13.7784117"><ele>903.0</ele><time>2026-05-02T10:58:56.654Z</time></trkpt><trkpt lat="42.2304806" lon="13.7783558"><ele>906.0</ele><time>2026-05-02T10:58:57.662Z</time></trkpt><trkpt lat="42.2303526" lon="13.7783019"><ele>907.5999999999999</ele><time>2026-05-02T10:58:58.652Z</time></trkpt><trkpt lat="42.2302403" lon="13.7782711"><ele>909.1999999999999</ele><time>2026-05-02T10:58:59.648Z</time></trkpt><trkpt lat="42.2301297" lon="13.7782689"><ele>910.8000000000001</ele><time>2026-05-02T10:59:00.642Z</time></trkpt><trkpt lat="42.2300262" lon="13.7782672"><ele>912.4000000000001</ele><time>2026-05-02T10:59:01.657Z</time></trkpt><trkpt lat="42.2299337" lon="13.7782437"><ele>914.0</ele><time>2026-05-02T10:59:02.661Z</time></trkpt><trkpt lat="42.2298606" lon="13.77821"><ele>914.75</ele><time>2026-05-02T10:59:03.663Z</time></trkpt><trkpt lat="42.2297757" lon="13.7781485"><ele>915.5</ele><time>2026-05-02T10:59:04.654Z</time></trkpt><trkpt lat="42.2296663" lon="13.7780535"><ele>916.25</ele><time>2026-05-02T10:59:05.65Z</time></trkpt><trkpt lat="42.2295544" lon="13.7779651"><ele>917.0</ele><time>2026-05-02T10:59:06.643Z</time></trkpt><trkpt lat="42.2294588" lon="13.777896"><ele>917.0000000000001</ele><time>2026-05-02T10:59:07.655Z</time></trkpt><trkpt lat="42.2293769" lon="13.7778643"><ele>917.0</ele><time>2026-05-02T10:59:08.662Z</time></trkpt><trkpt lat="42.2293125" lon="13.7778631"><ele>917.0</ele><time>2026-05-02T10:59:09.641Z</time></trkpt><trkpt lat="42.2292456" lon="13.7778962"><ele>917.0</ele><time>2026-05-02T10:59:10.65Z</time></trkpt><trkpt lat="42.2291678" lon="13.7779368"><ele>917.0000000000001</ele><time>2026-05-02T10:59:11.655Z</time></trkpt><trkpt lat="42.2290795" lon="13.7779548"><ele>917.0</ele><time>2026-05-02T10:59:12.655Z</time></trkpt><trkpt lat="42.2289931" lon="13.7779521"><ele>917.1666666666667</ele><time>2026-05-02T10:59:13.651Z</time></trkpt><trkpt lat="42.2289036" lon="13.7779069"><ele>917.3333333333334</ele><time>2026-05-02T10:59:14.638Z</time></trkpt><trkpt lat="42.2288371" lon="13.7778519"><ele>917.5</ele><time>2026-05-02T10:59:15.642Z</time></trkpt><trkpt lat="42.2287823" lon="13.7777705"><ele>917.6666666666667</ele><time>2026-05-02T10:59:16.661Z</time></trkpt><trkpt lat="42.2287259" lon="13.7776784"><ele>917.8333333333334</ele><time>2026-05-02T10:59:17.648Z</time></trkpt><trkpt lat="42.2286626" lon="13.777592"><ele>918.0</ele><time>2026-05-02T10:59:18.656Z</time></trkpt><trkpt lat="42.2285998" lon="13.7775381"><ele>918.2</ele><time>2026-05-02T10:59:19.644Z</time></trkpt><trkpt lat="42.2285365" lon="13.7774981"><ele>918.4</ele><time>2026-05-02T10:59:20.639Z</time></trkpt><trkpt lat="42.2284544" lon="13.7774918"><ele>918.6000000000001</ele><time>2026-05-02T10:59:21.651Z</time></trkpt><trkpt lat="42.2283622" lon="13.7774827"><ele>918.8000000000001</ele><time>2026-05-02T10:59:22.64Z</time></trkpt><trkpt lat="42.2282539" lon="13.7774857"><ele>919.0</ele><time>2026-05-02T10:59:23.643Z</time></trkpt><trkpt lat="42.2281435" lon="13.7774906"><ele>919.0</ele><time>2026-05-02T10:59:24.664Z</time></trkpt><trkpt lat="42.2280469" lon="13.7775197"><ele>919.0000000000001</ele><time>2026-05-02T10:59:25.651Z</time></trkpt><trkpt lat="42.2279509" lon="13.7775591"><ele>919.0000000000001</ele><time>2026-05-02T10:59:26.666Z</time></trkpt><trkpt lat="42.2278473" lon="13.7776223"><ele>919.0</ele><time>2026-05-02T10:59:27.656Z</time></trkpt><trkpt lat="42.227738" lon="13.7777115"><ele>919.0</ele><time>2026-05-02T10:59:28.663Z</time></trkpt><trkpt lat="42.2276257" lon="13.7778087"><ele>919.0</ele><time>2026-05-02T10:59:29.653Z</time></trkpt><trkpt lat="42.2275044" lon="13.7779115"><ele>919.0</ele><time>2026-05-02T10:59:30.655Z</time></trkpt><trkpt lat="42.2273886" lon="13.7780121"><ele>919.0</ele><time>2026-05-02T10:59:31.655Z</time></trkpt><trkpt lat="42.2272781" lon="13.7781068"><ele>919.0</ele><time>2026-05-02T10:59:32.655Z</time></trkpt><trkpt lat="42.2271771" lon="13.7782012"><ele>919.0</ele><time>2026-05-02T10:59:33.658Z</time></trkpt><trkpt lat="42.227078" lon="13.7782967"><ele>919.0</ele><time>2026-05-02T10:59:34.644Z</time></trkpt><trkpt lat="42.2269789" lon="13.7783855"><ele>919.0</ele><time>2026-05-02T10:59:35.653Z</time></trkpt><trkpt lat="42.2268633" lon="13.7784813"><ele>919.0</ele><time>2026-05-02T10:59:36.658Z</time></trkpt><trkpt lat="42.2267328" lon="13.778587"><ele>919.6666666666666</ele><time>2026-05-02T10:59:37.685Z</time></trkpt><trkpt lat="42.2265929" lon="13.7787073"><ele>920.3333333333333</ele><time>2026-05-02T10:59:38.655Z</time></trkpt><trkpt lat="42.226444" lon="13.7788323"><ele>921.0</ele><time>2026-05-02T10:59:39.642Z</time></trkpt><trkpt lat="42.2263006" lon="13.7789773"><ele>919.6666666666667</ele><time>2026-05-02T10:59:40.659Z</time></trkpt><trkpt lat="42.2261669" lon="13.7791413"><ele>918.3333333333334</ele><time>2026-05-02T10:59:41.653Z</time></trkpt><trkpt lat="42.226048" lon="13.7792966"><ele>917.0</ele><time>2026-05-02T10:59:42.654Z</time></trkpt><trkpt lat="42.2259332" lon="13.7794599"><ele>917.0</ele><time>2026-05-02T10:59:43.666Z</time></trkpt><trkpt lat="42.225818" lon="13.7796443"><ele>917.0</ele><time>2026-05-02T10:59:44.665Z</time></trkpt><trkpt lat="42.225707" lon="13.779824"><ele>917.0</ele><time>2026-05-02T10:59:45.658Z</time></trkpt><trkpt lat="42.2255902" lon="13.7799896"><ele>914.5</ele><time>2026-05-02T10:59:46.642Z</time></trkpt><trkpt lat="42.225486" lon="13.7801466"><ele>912.0</ele><time>2026-05-02T10:59:47.65Z</time></trkpt><trkpt lat="42.225395" lon="13.7802999"><ele>909.5</ele><time>2026-05-02T10:59:48.656Z</time></trkpt><trkpt lat="42.2253095" lon="13.7804592"><ele>907.0</ele><time>2026-05-02T10:59:49.648Z</time></trkpt><trkpt lat="42.2252283" lon="13.7806232"><ele>907.0</ele><time>2026-05-02T10:59:50.654Z</time></trkpt><trkpt lat="42.2251435" lon="13.7807816"><ele>907.0</ele><time>2026-05-02T10:59:51.664Z</time></trkpt><trkpt lat="42.225059" lon="13.7809179"><ele>907.0</ele><time>2026-05-02T10:59:52.657Z</time></trkpt><trkpt lat="42.2249671" lon="13.781038"><ele>907.0</ele><time>2026-05-02T10:59:53.649Z</time></trkpt><trkpt lat="42.2248723" lon="13.7811457"><ele>903.2</ele><time>2026-05-02T10:59:54.65Z</time></trkpt><trkpt lat="42.2247936" lon="13.7812426"><ele>899.4000000000001</ele><time>2026-05-02T10:59:55.643Z</time></trkpt><trkpt lat="42.2247329" lon="13.7813474"><ele>895.5999999999999</ele><time>2026-05-02T10:59:56.68Z</time></trkpt><trkpt lat="42.2246909" lon="13.7814565"><ele>891.8</ele><time>2026-05-02T10:59:57.648Z</time></trkpt><trkpt lat="42.224664" lon="13.7816047"><ele>888.0</ele><time>2026-05-02T10:59:58.656Z</time></trkpt><trkpt lat="42.2246281" lon="13.7817622"><ele>887.5</ele><time>2026-05-02T10:59:59.66Z</time></trkpt><trkpt lat="42.2245759" lon="13.7819404"><ele>887.0</ele><time>2026-05-02T11:00:00.66Z</time></trkpt><trkpt lat="42.2245085" lon="13.7820938"><ele>886.5</ele><time>2026-05-02T11:00:01.652Z</time></trkpt><trkpt lat="42.2244297" lon="13.7822533"><ele>886.0</ele><time>2026-05-02T11:00:02.649Z</time></trkpt><trkpt lat="42.224364" lon="13.7824089"><ele>885.9999999999999</ele><time>2026-05-02T11:00:03.653Z</time></trkpt><trkpt lat="42.2243258" lon="13.7825563"><ele>886.0</ele><time>2026-05-02T11:00:04.647Z</time></trkpt><trkpt lat="42.2243046" lon="13.7826968"><ele>886.0</ele><time>2026-05-02T11:00:05.665Z</time></trkpt><trkpt lat="42.2243002" lon="13.7828112"><ele>886.0</ele><time>2026-05-02T11:00:06.638Z</time></trkpt><trkpt lat="42.2242858" lon="13.7829059"><ele>885.9999999999999</ele><time>2026-05-02T11:00:07.659Z</time></trkpt><trkpt lat="42.2242194" lon="13.7829222"><ele>886.0</ele><time>2026-05-02T11:00:09.645Z</time></trkpt><trkpt lat="42.2241678" lon="13.7828536"><ele>886.0</ele><time>2026-05-02T11:00:10.639Z</time></trkpt><trkpt lat="42.2241157" lon="13.7827448"><ele>886.0</ele><time>2026-05-02T11:00:11.651Z</time></trkpt><trkpt lat="42.2240522" lon="13.7826103"><ele>886.0</ele><time>2026-05-02T11:00:12.645Z</time></trkpt><trkpt lat="42.2239726" lon="13.7824448"><ele>886.0</ele><time>2026-05-02T11:00:13.645Z</time></trkpt><trkpt lat="42.223897" lon="13.7822716"><ele>880.4</ele><time>2026-05-02T11:00:14.642Z</time></trkpt><trkpt lat="42.2238467" lon="13.7821172"><ele>874.8</ele><time>2026-05-02T11:00:15.646Z</time></trkpt><trkpt lat="42.2238013" lon="13.7819952"><ele>869.1999999999999</ele><time>2026-05-02T11:00:16.632Z</time></trkpt><trkpt lat="42.2237568" lon="13.7819265"><ele>863.5999999999999</ele><time>2026-05-02T11:00:17.641Z</time></trkpt><trkpt lat="42.2236892" lon="13.7819057"><ele>858.0</ele><time>2026-05-02T11:00:19.647Z</time></trkpt><trkpt lat="42.2236534" lon="13.782089"><ele>858.0</ele><time>2026-05-02T11:00:21.643Z</time></trkpt><trkpt lat="42.2236346" lon="13.7822298"><ele>858.0</ele><time>2026-05-02T11:00:22.636Z</time></trkpt><trkpt lat="42.2236087" lon="13.7823861"><ele>858.0</ele><time>2026-05-02T11:00:23.651Z</time></trkpt><trkpt lat="42.2235939" lon="13.7825078"><ele>858.0</ele><time>2026-05-02T11:00:24.654Z</time></trkpt><trkpt lat="42.2235748" lon="13.7825899"><ele>858.0</ele><time>2026-05-02T11:00:25.64Z</time></trkpt><trkpt lat="42.2234926" lon="13.7826007"><ele>858.0</ele><time>2026-05-02T11:00:27.645Z</time></trkpt><trkpt lat="42.2234297" lon="13.7824171"><ele>858.0</ele><time>2026-05-02T11:00:29.653Z</time></trkpt><trkpt lat="42.2233892" lon="13.7822774"><ele>858.0</ele><time>2026-05-02T11:00:30.648Z</time></trkpt><trkpt lat="42.2233538" lon="13.7821485"><ele>858.0</ele><time>2026-05-02T11:00:31.648Z</time></trkpt><trkpt lat="42.2233147" lon="13.782063"><ele>858.0</ele><time>2026-05-02T11:00:32.646Z</time></trkpt><trkpt lat="42.2232413" lon="13.7820061"><ele>856.8</ele><time>2026-05-02T11:00:34.681Z</time></trkpt><trkpt lat="42.2231178" lon="13.7821528"><ele>855.5999999999999</ele><time>2026-05-02T11:00:36.642Z</time></trkpt><trkpt lat="42.223048" lon="13.782264"><ele>854.4000000000001</ele><time>2026-05-02T11:00:37.638Z</time></trkpt><trkpt lat="42.2229832" lon="13.7823522"><ele>853.2</ele><time>2026-05-02T11:00:38.646Z</time></trkpt><trkpt lat="42.2229247" lon="13.7824125"><ele>852.0</ele><time>2026-05-02T11:00:39.645Z</time></trkpt><trkpt lat="42.2228618" lon="13.7824608"><ele>852.0</ele><time>2026-05-02T11:00:40.65Z</time></trkpt><trkpt lat="42.2227584" lon="13.7824615"><ele>852.0</ele><time>2026-05-02T11:00:42.649Z</time></trkpt><trkpt lat="42.2226731" lon="13.7823892"><ele>852.0</ele><time>2026-05-02T11:00:44.669Z</time></trkpt><trkpt lat="42.2226239" lon="13.7823002"><ele>852.0</ele><time>2026-05-02T11:00:46.642Z</time></trkpt><trkpt lat="42.2226708" lon="13.7821764"><ele>852.0</ele><time>2026-05-02T11:00:49.648Z</time></trkpt><trkpt lat="42.2226971" lon="13.7820943"><ele>852.0</ele><time>2026-05-02T11:00:51.652Z</time></trkpt><trkpt lat="42.2226324" lon="13.782131"><ele>852.0</ele><time>2026-05-02T11:00:55.65Z</time></trkpt><trkpt lat="42.2225775" lon="13.7821812"><ele>852.0</ele><time>2026-05-02T11:00:57.636Z</time></trkpt><trkpt lat="42.222502" lon="13.7821729"><ele>852.0</ele><time>2026-05-02T11:00:59.639Z</time></trkpt><trkpt lat="42.2223919" lon="13.7821222"><ele>852.0</ele><time>2026-05-02T11:01:01.641Z</time></trkpt><trkpt lat="42.222335" lon="13.7820745"><ele>852.0</ele><time>2026-05-02T11:01:02.636Z</time></trkpt><trkpt lat="42.2222828" lon="13.7820137"><ele>852.8333333333334</ele><time>2026-05-02T11:01:03.643Z</time></trkpt><trkpt lat="42.2222357" lon="13.7819533"><ele>853.6666666666667</ele><time>2026-05-02T11:01:04.663Z</time></trkpt><trkpt lat="42.2221859" lon="13.78189"><ele>854.5</ele><time>2026-05-02T11:01:05.679Z</time></trkpt><trkpt lat="42.2221361" lon="13.7818274"><ele>855.3333333333334</ele><time>2026-05-02T11:01:06.649Z</time></trkpt><trkpt lat="42.2220764" lon="13.7817614"><ele>856.1666666666667</ele><time>2026-05-02T11:01:07.645Z</time></trkpt><trkpt lat="42.2220135" lon="13.7816802"><ele>857.0</ele><time>2026-05-02T11:01:08.643Z</time></trkpt><trkpt lat="42.2219713" lon="13.7815739"><ele>857.0000000000001</ele><time>2026-05-02T11:01:09.658Z</time></trkpt><trkpt lat="42.2219389" lon="13.78146"><ele>857.0</ele><time>2026-05-02T11:01:10.651Z</time></trkpt><trkpt lat="42.221902" lon="13.7813584"><ele>857.0</ele><time>2026-05-02T11:01:11.651Z</time></trkpt><trkpt lat="42.2218674" lon="13.7812532"><ele>857.0</ele><time>2026-05-02T11:01:12.642Z</time></trkpt><trkpt lat="42.2218402" lon="13.7811483"><ele>857.0000000000001</ele><time>2026-05-02T11:01:13.642Z</time></trkpt><trkpt lat="42.2218152" lon="13.7810416"><ele>857.0</ele><time>2026-05-02T11:01:14.673Z</time></trkpt><trkpt lat="42.2217912" lon="13.7809335"><ele>856.3333333333334</ele><time>2026-05-02T11:01:15.643Z</time></trkpt><trkpt lat="42.2217627" lon="13.7808236"><ele>855.6666666666667</ele><time>2026-05-02T11:01:16.657Z</time></trkpt><trkpt lat="42.2217417" lon="13.780721"><ele>855.0</ele><time>2026-05-02T11:01:17.658Z</time></trkpt><trkpt lat="42.2217184" lon="13.7806235"><ele>854.3333333333333</ele><time>2026-05-02T11:01:18.639Z</time></trkpt><trkpt lat="42.221689" lon="13.7805243"><ele>853.6666666666666</ele><time>2026-05-02T11:01:19.672Z</time></trkpt><trkpt lat="42.221651" lon="13.7804135"><ele>853.0</ele><time>2026-05-02T11:01:20.658Z</time></trkpt><trkpt lat="42.221619" lon="13.7803061"><ele>853.0</ele><time>2026-05-02T11:01:21.644Z</time></trkpt><trkpt lat="42.2215915" lon="13.7802151"><ele>853.0</ele><time>2026-05-02T11:01:22.646Z</time></trkpt><trkpt lat="42.2215355" lon="13.7800838"><ele>853.0</ele><time>2026-05-02T11:01:24.656Z</time></trkpt><trkpt lat="42.2214638" lon="13.7799191"><ele>853.0</ele><time>2026-05-02T11:01:26.641Z</time></trkpt><trkpt lat="42.221432" lon="13.7798238"><ele>853.0</ele><time>2026-05-02T11:01:27.662Z</time></trkpt><trkpt lat="42.2213457" lon="13.7797466"><ele>849.25</ele><time>2026-05-02T11:01:29.656Z</time></trkpt><trkpt lat="42.2212179" lon="13.7798159"><ele>845.5</ele><time>2026-05-02T11:01:31.645Z</time></trkpt><trkpt lat="42.2211279" lon="13.7798809"><ele>841.75</ele><time>2026-05-02T11:01:32.649Z</time></trkpt><trkpt lat="42.2210331" lon="13.7799701"><ele>838.0</ele><time>2026-05-02T11:01:33.648Z</time></trkpt><trkpt lat="42.2209252" lon="13.7800485"><ele>838.0</ele><time>2026-05-02T11:01:34.655Z</time></trkpt><trkpt lat="42.2208079" lon="13.7801242"><ele>838.0</ele><time>2026-05-02T11:01:35.642Z</time></trkpt><trkpt lat="42.2207007" lon="13.7801919"><ele>838.0</ele><time>2026-05-02T11:01:36.643Z</time></trkpt><trkpt lat="42.2205799" lon="13.7802845"><ele>838.0</ele><time>2026-05-02T11:01:37.65Z</time></trkpt><trkpt lat="42.2204425" lon="13.7803621"><ele>837.8</ele><time>2026-05-02T11:01:38.643Z</time></trkpt><trkpt lat="42.2203097" lon="13.7804194"><ele>837.5999999999999</ele><time>2026-05-02T11:01:39.655Z</time></trkpt><trkpt lat="42.2202107" lon="13.7804579"><ele>837.4000000000001</ele><time>2026-05-02T11:01:40.643Z</time></trkpt><trkpt lat="42.220132" lon="13.7804772"><ele>837.2</ele><time>2026-05-02T11:01:41.644Z</time></trkpt><trkpt lat="42.2200108" lon="13.7804366"><ele>837.0</ele><time>2026-05-02T11:01:43.645Z</time></trkpt><trkpt lat="42.2199081" lon="13.7804166"><ele>835.2</ele><time>2026-05-02T11:01:44.642Z</time></trkpt><trkpt lat="42.2197993" lon="13.7803852"><ele>833.4000000000001</ele><time>2026-05-02T11:01:45.638Z</time></trkpt><trkpt lat="42.2197002" lon="13.7803571"><ele>831.5999999999999</ele><time>2026-05-02T11:01:46.629Z</time></trkpt><trkpt lat="42.2196203" lon="13.7803141"><ele>829.8</ele><time>2026-05-02T11:01:47.641Z</time></trkpt><trkpt lat="42.2195434" lon="13.7802786"><ele>828.0</ele><time>2026-05-02T11:01:48.646Z</time></trkpt><trkpt lat="42.2194612" lon="13.7802103"><ele>823.5999999999999</ele><time>2026-05-02T11:01:49.635Z</time></trkpt><trkpt lat="42.2193828" lon="13.7801284"><ele>819.1999999999999</ele><time>2026-05-02T11:01:50.643Z</time></trkpt><trkpt lat="42.2193087" lon="13.7800288"><ele>814.8</ele><time>2026-05-02T11:01:51.635Z</time></trkpt><trkpt lat="42.2192358" lon="13.7799284"><ele>810.4</ele><time>2026-05-02T11:01:52.656Z</time></trkpt><trkpt lat="42.2191686" lon="13.7798337"><ele>806.0</ele><time>2026-05-02T11:01:53.639Z</time></trkpt><trkpt lat="42.2191048" lon="13.7797636"><ele>806.0</ele><time>2026-05-02T11:01:54.654Z</time></trkpt><trkpt lat="42.2190367" lon="13.7797064"><ele>806.0</ele><time>2026-05-02T11:01:55.648Z</time></trkpt><trkpt lat="42.2189629" lon="13.7796549"><ele>806.0</ele><time>2026-05-02T11:01:56.653Z</time></trkpt><trkpt lat="42.2188639" lon="13.7796145"><ele>806.0</ele><time>2026-05-02T11:01:57.645Z</time></trkpt><trkpt lat="42.2187492" lon="13.7795867"><ele>806.0</ele><time>2026-05-02T11:01:58.649Z</time></trkpt><trkpt lat="42.2186191" lon="13.7795946"><ele>802.5</ele><time>2026-05-02T11:01:59.641Z</time></trkpt><trkpt lat="42.2185116" lon="13.7796339"><ele>799.0</ele><time>2026-05-02T11:02:00.651Z</time></trkpt><trkpt lat="42.2183887" lon="13.779689"><ele>795.5</ele><time>2026-05-02T11:02:01.645Z</time></trkpt><trkpt lat="42.2182478" lon="13.779756"><ele>792.0</ele><time>2026-05-02T11:02:02.639Z</time></trkpt><trkpt lat="42.2181001" lon="13.7798188"><ele>790.5</ele><time>2026-05-02T11:02:03.644Z</time></trkpt><trkpt lat="42.2179616" lon="13.7798581"><ele>789.0</ele><time>2026-05-02T11:02:04.642Z</time></trkpt><trkpt lat="42.217831" lon="13.7798892"><ele>787.5</ele><time>2026-05-02T11:02:05.643Z</time></trkpt><trkpt lat="42.2177149" lon="13.7798825"><ele>786.0</ele><time>2026-05-02T11:02:06.636Z</time></trkpt><trkpt lat="42.2176218" lon="13.7798393"><ele>786.0</ele><time>2026-05-02T11:02:07.644Z</time></trkpt><trkpt lat="42.2175535" lon="13.7797476"><ele>786.0</ele><time>2026-05-02T11:02:08.639Z</time></trkpt><trkpt lat="42.2175021" lon="13.7796264"><ele>786.0</ele><time>2026-05-02T11:02:09.641Z</time></trkpt><trkpt lat="42.217465" lon="13.7794815"><ele>786.0</ele><time>2026-05-02T11:02:10.642Z</time></trkpt><trkpt lat="42.2174485" lon="13.7792925"><ele>779.3333333333334</ele><time>2026-05-02T11:02:11.637Z</time></trkpt><trkpt lat="42.2174236" lon="13.7790936"><ele>772.6666666666667</ele><time>2026-05-02T11:02:12.64Z</time></trkpt><trkpt lat="42.2173873" lon="13.7788867"><ele>766.0</ele><time>2026-05-02T11:02:13.642Z</time></trkpt><trkpt lat="42.2173254" lon="13.7786915"><ele>762.6666666666667</ele><time>2026-05-02T11:02:14.641Z</time></trkpt><trkpt lat="42.2172474" lon="13.7784875"><ele>759.3333333333334</ele><time>2026-05-02T11:02:15.627Z</time></trkpt><trkpt lat="42.217168" lon="13.7782926"><ele>756.0</ele><time>2026-05-02T11:02:16.64Z</time></trkpt><trkpt lat="42.2170949" lon="13.7781124"><ele>756.0</ele><time>2026-05-02T11:02:17.645Z</time></trkpt><trkpt lat="42.2170289" lon="13.7779545"><ele>756.0</ele><time>2026-05-02T11:02:18.645Z</time></trkpt><trkpt lat="42.2169667" lon="13.7778152"><ele>756.0</ele><time>2026-05-02T11:02:19.661Z</time></trkpt><trkpt lat="42.2168857" lon="13.7776968"><ele>756.0</ele><time>2026-05-02T11:02:20.65Z</time></trkpt><trkpt lat="42.216785" lon="13.7775891"><ele>750.0</ele><time>2026-05-02T11:02:21.648Z</time></trkpt><trkpt lat="42.2166532" lon="13.7774974"><ele>744.0</ele><time>2026-05-02T11:02:22.648Z</time></trkpt><trkpt lat="42.2165055" lon="13.7774225"><ele>738.0</ele><time>2026-05-02T11:02:23.657Z</time></trkpt><trkpt lat="42.2163556" lon="13.7773524"><ele>735.0</ele><time>2026-05-02T11:02:24.639Z</time></trkpt><trkpt lat="42.2162123" lon="13.7772638"><ele>732.0</ele><time>2026-05-02T11:02:25.644Z</time></trkpt><trkpt lat="42.2160634" lon="13.7771657"><ele>729.0</ele><time>2026-05-02T11:02:26.65Z</time></trkpt><trkpt lat="42.2159164" lon="13.7770695"><ele>729.0</ele><time>2026-05-02T11:02:27.638Z</time></trkpt><trkpt lat="42.2157769" lon="13.776972"><ele>729.0</ele><time>2026-05-02T11:02:28.643Z</time></trkpt><trkpt lat="42.2156405" lon="13.7768845"><ele>729.0</ele><time>2026-05-02T11:02:29.649Z</time></trkpt><trkpt lat="42.2155074" lon="13.7768034"><ele>724.0</ele><time>2026-05-02T11:02:30.647Z</time></trkpt><trkpt lat="42.2153817" lon="13.7767417"><ele>719.0</ele><time>2026-05-02T11:02:31.647Z</time></trkpt><trkpt lat="42.2152503" lon="13.7766987"><ele>714.0</ele><time>2026-05-02T11:02:32.661Z</time></trkpt><trkpt lat="42.2151359" lon="13.7766865"><ele>709.0</ele><time>2026-05-02T11:02:33.672Z</time></trkpt><trkpt lat="42.2150389" lon="13.7767072"><ele>709.0000000000001</ele><time>2026-05-02T11:02:34.659Z</time></trkpt><trkpt lat="42.2149688" lon="13.7767473"><ele>709.0</ele><time>2026-05-02T11:02:35.659Z</time></trkpt><trkpt lat="42.2149255" lon="13.776843"><ele>709.0</ele><time>2026-05-02T11:02:36.655Z</time></trkpt><trkpt lat="42.2148845" lon="13.7769426"><ele>709.0</ele><time>2026-05-02T11:02:37.647Z</time></trkpt><trkpt lat="42.2148465" lon="13.7770187"><ele>709.0</ele><time>2026-05-02T11:02:38.647Z</time></trkpt><trkpt lat="42.2147987" lon="13.7770762"><ele>709.0000000000001</ele><time>2026-05-02T11:02:40.643Z</time></trkpt><trkpt lat="42.214741" lon="13.7770395"><ele>709.0</ele><time>2026-05-02T11:02:42.649Z</time></trkpt><trkpt lat="42.2147876" lon="13.7768895"><ele>709.0</ele><time>2026-05-02T11:02:45.652Z</time></trkpt><trkpt lat="42.2148263" lon="13.7768005"><ele>709.0</ele><time>2026-05-02T11:02:46.649Z</time></trkpt><trkpt lat="42.2148645" lon="13.7766946"><ele>709.0</ele><time>2026-05-02T11:02:47.659Z</time></trkpt><trkpt lat="42.2148991" lon="13.7765707"><ele>709.0</ele><time>2026-05-02T11:02:48.644Z</time></trkpt><trkpt lat="42.2149111" lon="13.7764566"><ele>709.0</ele><time>2026-05-02T11:02:49.643Z</time></trkpt><trkpt lat="42.2148786" lon="13.7763768"><ele>709.0</ele><time>2026-05-02T11:02:50.652Z</time></trkpt><trkpt lat="42.2147661" lon="13.7763996"><ele>707.0</ele><time>2026-05-02T11:02:52.682Z</time></trkpt><trkpt lat="42.2147125" lon="13.7764883"><ele>705.0</ele><time>2026-05-02T11:02:53.649Z</time></trkpt><trkpt lat="42.214649" lon="13.7766245"><ele>703.0</ele><time>2026-05-02T11:02:54.648Z</time></trkpt><trkpt lat="42.2145775" lon="13.7767843"><ele>701.0</ele><time>2026-05-02T11:02:55.645Z</time></trkpt><trkpt lat="42.2145028" lon="13.7769552"><ele>701.0</ele><time>2026-05-02T11:02:56.645Z</time></trkpt><trkpt lat="42.2144275" lon="13.7771282"><ele>701.0</ele><time>2026-05-02T11:02:57.659Z</time></trkpt><trkpt lat="42.21436" lon="13.7772935"><ele>701.0</ele><time>2026-05-02T11:02:58.653Z</time></trkpt><trkpt lat="42.2142986" lon="13.7774135"><ele>701.0</ele><time>2026-05-02T11:02:59.65Z</time></trkpt><trkpt lat="42.2142281" lon="13.7774832"><ele>701.0</ele><time>2026-05-02T11:03:00.651Z</time></trkpt><trkpt lat="42.2141635" lon="13.7774751"><ele>701.0</ele><time>2026-05-02T11:03:01.651Z</time></trkpt><trkpt lat="42.2141475" lon="13.7773301"><ele>701.0</ele><time>2026-05-02T11:03:03.644Z</time></trkpt><trkpt lat="42.2141698" lon="13.7772368"><ele>701.0</ele><time>2026-05-02T11:03:04.645Z</time></trkpt><trkpt lat="42.2142058" lon="13.7771291"><ele>701.0</ele><time>2026-05-02T11:03:05.646Z</time></trkpt><trkpt lat="42.2142427" lon="13.7770095"><ele>701.0</ele><time>2026-05-02T11:03:06.652Z</time></trkpt><trkpt lat="42.214267" lon="13.7768977"><ele>700.1666666666666</ele><time>2026-05-02T11:03:07.659Z</time></trkpt><trkpt lat="42.2142831" lon="13.7767836"><ele>699.3333333333333</ele><time>2026-05-02T11:03:08.647Z</time></trkpt><trkpt lat="42.2142973" lon="13.7766799"><ele>698.5</ele><time>2026-05-02T11:03:09.662Z</time></trkpt><trkpt lat="42.2143119" lon="13.7765932"><ele>697.6666666666666</ele><time>2026-05-02T11:03:10.646Z</time></trkpt><trkpt lat="42.2142906" lon="13.7765124"><ele>696.8333333333334</ele><time>2026-05-02T11:03:12.655Z</time></trkpt><trkpt lat="42.2142254" lon="13.7765404"><ele>696.0</ele><time>2026-05-02T11:03:14.66Z</time></trkpt><trkpt lat="42.2141246" lon="13.7766652"><ele>696.0</ele><time>2026-05-02T11:03:16.645Z</time></trkpt><trkpt lat="42.2140607" lon="13.7767048"><ele>696.0</ele><time>2026-05-02T11:03:17.653Z</time></trkpt><trkpt lat="42.2139714" lon="13.7767111"><ele>696.0</ele><time>2026-05-02T11:03:18.643Z</time></trkpt><trkpt lat="42.2138673" lon="13.7767139"><ele>696.0</ele><time>2026-05-02T11:03:19.642Z</time></trkpt><trkpt lat="42.2137508" lon="13.77671"><ele>696.0</ele><time>2026-05-02T11:03:20.647Z</time></trkpt><trkpt lat="42.213649" lon="13.7767044"><ele>694.5</ele><time>2026-05-02T11:03:21.648Z</time></trkpt><trkpt lat="42.2135485" lon="13.7766802"><ele>693.0</ele><time>2026-05-02T11:03:22.657Z</time></trkpt><trkpt lat="42.2134362" lon="13.7766172"><ele>691.5</ele><time>2026-05-02T11:03:23.639Z</time></trkpt><trkpt lat="42.2133148" lon="13.7765341"><ele>690.0</ele><time>2026-05-02T11:03:24.653Z</time></trkpt><trkpt lat="42.2131971" lon="13.7764496"><ele>690.0</ele><time>2026-05-02T11:03:25.654Z</time></trkpt><trkpt lat="42.2130884" lon="13.7763791"><ele>690.0</ele><time>2026-05-02T11:03:26.65Z</time></trkpt><trkpt lat="42.2130036" lon="13.7763447"><ele>690.0</ele><time>2026-05-02T11:03:27.657Z</time></trkpt><trkpt lat="42.2129201" lon="13.7763528"><ele>690.0</ele><time>2026-05-02T11:03:28.644Z</time></trkpt><trkpt lat="42.2128382" lon="13.7763974"><ele>690.0</ele><time>2026-05-02T11:03:29.658Z</time></trkpt><trkpt lat="42.2127186" lon="13.7764755"><ele>690.0</ele><time>2026-05-02T11:03:30.66Z</time></trkpt><trkpt lat="42.2125893" lon="13.7765961"><ele>690.0</ele><time>2026-05-02T11:03:31.651Z</time></trkpt><trkpt lat="42.2124844" lon="13.7767233"><ele>690.0</ele><time>2026-05-02T11:03:32.658Z</time></trkpt><trkpt lat="42.2123798" lon="13.7768294"><ele>690.0</ele><time>2026-05-02T11:03:33.647Z</time></trkpt><trkpt lat="42.2122688" lon="13.776931"><ele>688.0</ele><time>2026-05-02T11:03:34.65Z</time></trkpt><trkpt lat="42.2121524" lon="13.7770234"><ele>686.0</ele><time>2026-05-02T11:03:35.653Z</time></trkpt><trkpt lat="42.2120521" lon="13.7771099"><ele>684.0</ele><time>2026-05-02T11:03:36.646Z</time></trkpt><trkpt lat="42.2119567" lon="13.7771661"><ele>682.0</ele><time>2026-05-02T11:03:37.676Z</time></trkpt><trkpt lat="42.2118579" lon="13.7771974"><ele>682.0</ele><time>2026-05-02T11:03:38.65Z</time></trkpt><trkpt lat="42.211746" lon="13.7771997"><ele>682.0</ele><time>2026-05-02T11:03:39.646Z</time></trkpt><trkpt lat="42.2116454" lon="13.7771745"><ele>682.0</ele><time>2026-05-02T11:03:40.646Z</time></trkpt><trkpt lat="42.2115379" lon="13.7771181"><ele>682.0</ele><time>2026-05-02T11:03:41.642Z</time></trkpt><trkpt lat="42.2114286" lon="13.7770311"><ele>681.75</ele><time>2026-05-02T11:03:42.64Z</time></trkpt><trkpt lat="42.2113204" lon="13.7769369"><ele>681.5</ele><time>2026-05-02T11:03:43.661Z</time></trkpt><trkpt lat="42.2112143" lon="13.7768208"><ele>681.25</ele><time>2026-05-02T11:03:44.661Z</time></trkpt><trkpt lat="42.2110958" lon="13.7766911"><ele>681.0</ele><time>2026-05-02T11:03:45.651Z</time></trkpt><trkpt lat="42.2109847" lon="13.7765686"><ele>681.0</ele><time>2026-05-02T11:03:46.639Z</time></trkpt><trkpt lat="42.2108856" lon="13.7764495"><ele>681.0</ele><time>2026-05-02T11:03:47.65Z</time></trkpt><trkpt lat="42.2107835" lon="13.7763243"><ele>681.0</ele><time>2026-05-02T11:03:48.652Z</time></trkpt><trkpt lat="42.2106784" lon="13.7762034"><ele>681.0</ele><time>2026-05-02T11:03:49.645Z</time></trkpt><trkpt lat="42.2105473" lon="13.7761111"><ele>680.3333333333334</ele><time>2026-05-02T11:03:50.644Z</time></trkpt><trkpt lat="42.2103872" lon="13.7760315"><ele>679.6666666666667</ele><time>2026-05-02T11:03:51.646Z</time></trkpt><trkpt lat="42.2102071" lon="13.7759448"><ele>679.0</ele><time>2026-05-02T11:03:52.654Z</time></trkpt><trkpt lat="42.2100242" lon="13.7758397"><ele>679.0</ele><time>2026-05-02T11:03:53.645Z</time></trkpt><trkpt lat="42.2098258" lon="13.7757423"><ele>679.0</ele><time>2026-05-02T11:03:54.651Z</time></trkpt><trkpt lat="42.2096248" lon="13.7756569"><ele>679.0</ele><time>2026-05-02T11:03:55.657Z</time></trkpt><trkpt lat="42.2094333" lon="13.7755839"><ele>679.0</ele><time>2026-05-02T11:03:56.649Z</time></trkpt><trkpt lat="42.2092704" lon="13.7755196"><ele>679.0</ele><time>2026-05-02T11:03:57.667Z</time></trkpt><trkpt lat="42.2091156" lon="13.7754822"><ele>679.0</ele><time>2026-05-02T11:03:58.655Z</time></trkpt><trkpt lat="42.2089755" lon="13.7754728"><ele>678.8000000000001</ele><time>2026-05-02T11:03:59.647Z</time></trkpt><trkpt lat="42.2088467" lon="13.775488"><ele>678.6</ele><time>2026-05-02T11:04:00.657Z</time></trkpt><trkpt lat="42.2087245" lon="13.7755264"><ele>678.4</ele><time>2026-05-02T11:04:01.642Z</time></trkpt><trkpt lat="42.2086218" lon="13.7755654"><ele>678.2</ele><time>2026-05-02T11:04:02.683Z</time></trkpt><trkpt lat="42.2085387" lon="13.7755958"><ele>678.0</ele><time>2026-05-02T11:04:03.657Z</time></trkpt><trkpt lat="42.2084756" lon="13.7755932"><ele>678.0</ele><time>2026-05-02T11:04:04.634Z</time></trkpt><trkpt lat="42.2084109" lon="13.7755762"><ele>678.0</ele><time>2026-05-02T11:04:05.643Z</time></trkpt><trkpt lat="42.2083324" lon="13.7755195"><ele>678.0</ele><time>2026-05-02T11:04:06.651Z</time></trkpt><trkpt lat="42.2082235" lon="13.7754282"><ele>678.0</ele><time>2026-05-02T11:04:07.646Z</time></trkpt><trkpt lat="42.2081041" lon="13.7753191"><ele>678.0</ele><time>2026-05-02T11:04:08.642Z</time></trkpt><trkpt lat="42.2079816" lon="13.7752108"><ele>678.0</ele><time>2026-05-02T11:04:09.647Z</time></trkpt><trkpt lat="42.2078484" lon="13.7750943"><ele>678.0</ele><time>2026-05-02T11:04:10.648Z</time></trkpt><trkpt lat="42.2077184" lon="13.7749837"><ele>678.0</ele><time>2026-05-02T11:04:11.652Z</time></trkpt><trkpt lat="42.2076002" lon="13.7748825"><ele>678.0</ele><time>2026-05-02T11:04:12.64Z</time></trkpt><trkpt lat="42.2074976" lon="13.7747923"><ele>678.0</ele><time>2026-05-02T11:04:13.642Z</time></trkpt><trkpt lat="42.2074131" lon="13.7747162"><ele>678.0</ele><time>2026-05-02T11:04:14.64Z</time></trkpt><trkpt lat="42.2073481" lon="13.774652"><ele>678.0</ele><time>2026-05-02T11:04:15.642Z</time></trkpt><trkpt lat="42.2072877" lon="13.7745633"><ele>678.0</ele><time>2026-05-02T11:04:17.647Z</time></trkpt><trkpt lat="42.2072427" lon="13.7744994"><ele>678.5999999999999</ele><time>2026-05-02T11:04:20.65Z</time></trkpt><trkpt lat="42.2071689" lon="13.7744607"><ele>679.1999999999999</ele><time>2026-05-02T11:04:25.645Z</time></trkpt><trkpt lat="42.2070614" lon="13.7745308"><ele>679.8</ele><time>2026-05-02T11:04:27.663Z</time></trkpt><trkpt lat="42.206934" lon="13.7746043"><ele>680.4</ele><time>2026-05-02T11:04:29.658Z</time></trkpt><trkpt lat="42.2068331" lon="13.7746534"><ele>681.0</ele><time>2026-05-02T11:04:30.646Z</time></trkpt><trkpt lat="42.2067164" lon="13.7747157"><ele>681.0</ele><time>2026-05-02T11:04:31.649Z</time></trkpt><trkpt lat="42.2065858" lon="13.7747911"><ele>681.0</ele><time>2026-05-02T11:04:32.652Z</time></trkpt><trkpt lat="42.2064348" lon="13.7748809"><ele>681.0</ele><time>2026-05-02T11:04:33.649Z</time></trkpt><trkpt lat="42.2062735" lon="13.7749871"><ele>681.0</ele><time>2026-05-02T11:04:34.662Z</time></trkpt><trkpt lat="42.2060935" lon="13.7750859"><ele>681.0</ele><time>2026-05-02T11:04:35.648Z</time></trkpt><trkpt lat="42.2059054" lon="13.77519"><ele>681.0</ele><time>2026-05-02T11:04:36.649Z</time></trkpt><trkpt lat="42.2057189" lon="13.7752948"><ele>682.0</ele><time>2026-05-02T11:04:37.644Z</time></trkpt><trkpt lat="42.2055349" lon="13.7754103"><ele>683.0</ele><time>2026-05-02T11:04:38.65Z</time></trkpt><trkpt lat="42.2053466" lon="13.7755177"><ele>684.0</ele><time>2026-05-02T11:04:39.65Z</time></trkpt><trkpt lat="42.2051584" lon="13.775626"><ele>684.0</ele><time>2026-05-02T11:04:40.654Z</time></trkpt><trkpt lat="42.2049733" lon="13.775731"><ele>684.0</ele><time>2026-05-02T11:04:41.653Z</time></trkpt><trkpt lat="42.2047847" lon="13.7758353"><ele>684.0</ele><time>2026-05-02T11:04:42.657Z</time></trkpt><trkpt lat="42.2045941" lon="13.7759408"><ele>684.3333333333334</ele><time>2026-05-02T11:04:43.651Z</time></trkpt><trkpt lat="42.2043982" lon="13.7760533"><ele>684.6666666666667</ele><time>2026-05-02T11:04:44.682Z</time></trkpt><trkpt lat="42.2041799" lon="13.7761736"><ele>685.0</ele><time>2026-05-02T11:04:45.656Z</time></trkpt><trkpt lat="42.2039611" lon="13.7762874"><ele>687.5</ele><time>2026-05-02T11:04:46.65Z</time></trkpt><trkpt lat="42.2037379" lon="13.7764127"><ele>690.0</ele><time>2026-05-02T11:04:47.649Z</time></trkpt><trkpt lat="42.2035181" lon="13.7765343"><ele>690.0</ele><time>2026-05-02T11:04:48.646Z</time></trkpt><trkpt lat="42.2033015" lon="13.7766553"><ele>690.0</ele><time>2026-05-02T11:04:49.665Z</time></trkpt><trkpt lat="42.203092" lon="13.7767692"><ele>694.6666666666666</ele><time>2026-05-02T11:04:50.645Z</time></trkpt><trkpt lat="42.2028909" lon="13.7768798"><ele>699.3333333333333</ele><time>2026-05-02T11:04:51.655Z</time></trkpt><trkpt lat="42.2027159" lon="13.7769793"><ele>704.0</ele><time>2026-05-02T11:04:52.652Z</time></trkpt><trkpt lat="42.2025749" lon="13.7770544"><ele>704.0</ele><time>2026-05-02T11:04:53.656Z</time></trkpt><trkpt lat="42.2024477" lon="13.7771378"><ele>704.0</ele><time>2026-05-02T11:04:54.652Z</time></trkpt><trkpt lat="42.2023508" lon="13.7772401"><ele>704.0</ele><time>2026-05-02T11:04:55.656Z</time></trkpt><trkpt lat="42.2022923" lon="13.7773933"><ele>704.0</ele><time>2026-05-02T11:04:56.658Z</time></trkpt><trkpt lat="42.2022502" lon="13.7775715"><ele>703.0</ele><time>2026-05-02T11:04:57.635Z</time></trkpt><trkpt lat="42.2022169" lon="13.7777875"><ele>702.0</ele><time>2026-05-02T11:04:58.659Z</time></trkpt><trkpt lat="42.2021664" lon="13.7780234"><ele>701.0</ele><time>2026-05-02T11:04:59.644Z</time></trkpt><trkpt lat="42.2021057" lon="13.7782759"><ele>703.0</ele><time>2026-05-02T11:05:00.66Z</time></trkpt><trkpt lat="42.2020497" lon="13.7785506"><ele>705.0</ele><time>2026-05-02T11:05:01.662Z</time></trkpt><trkpt lat="42.2019875" lon="13.7788382"><ele>707.0</ele><time>2026-05-02T11:05:02.658Z</time></trkpt><trkpt lat="42.201926" lon="13.7791333"><ele>711.5</ele><time>2026-05-02T11:05:03.659Z</time></trkpt><trkpt lat="42.2018678" lon="13.779429"><ele>716.0</ele><time>2026-05-02T11:05:04.645Z</time></trkpt><trkpt lat="42.2018133" lon="13.779729"><ele>716.0</ele><time>2026-05-02T11:05:05.639Z</time></trkpt><trkpt lat="42.2017608" lon="13.7800264"><ele>716.0</ele><time>2026-05-02T11:05:06.651Z</time></trkpt><trkpt lat="42.2017169" lon="13.7803221"><ele>719.0</ele><time>2026-05-02T11:05:07.66Z</time></trkpt><trkpt lat="42.2016854" lon="13.7806205"><ele>722.0</ele><time>2026-05-02T11:05:08.668Z</time></trkpt><trkpt lat="42.2016766" lon="13.7809363"><ele>723.3333333333333</ele><time>2026-05-02T11:05:09.65Z</time></trkpt><trkpt lat="42.2016932" lon="13.7812336"><ele>724.6666666666666</ele><time>2026-05-02T11:05:10.653Z</time></trkpt><trkpt lat="42.2017202" lon="13.7815211"><ele>726.0</ele><time>2026-05-02T11:05:11.639Z</time></trkpt><trkpt lat="42.2017389" lon="13.7817775"><ele>728.6666666666666</ele><time>2026-05-02T11:05:12.662Z</time></trkpt><trkpt lat="42.2017216" lon="13.7820134"><ele>731.3333333333333</ele><time>2026-05-02T11:05:13.646Z</time></trkpt><trkpt lat="42.2016801" lon="13.7822542"><ele>734.0</ele><time>2026-05-02T11:05:14.651Z</time></trkpt><trkpt lat="42.2016061" lon="13.782506"><ele>733.3333333333333</ele><time>2026-05-02T11:05:15.637Z</time></trkpt><trkpt lat="42.2015081" lon="13.7827655"><ele>732.6666666666666</ele><time>2026-05-02T11:05:16.637Z</time></trkpt><trkpt lat="42.2014073" lon="13.7830081"><ele>732.0</ele><time>2026-05-02T11:05:17.645Z</time></trkpt><trkpt lat="42.2013108" lon="13.7832371"><ele>732.0</ele><time>2026-05-02T11:05:18.631Z</time></trkpt><trkpt lat="42.2012161" lon="13.783462"><ele>732.0</ele><time>2026-05-02T11:05:19.635Z</time></trkpt><trkpt lat="42.2011182" lon="13.7836799"><ele>732.0</ele><time>2026-05-02T11:05:20.631Z</time></trkpt><trkpt lat="42.2010128" lon="13.7838925"><ele>737.0</ele><time>2026-05-02T11:05:21.676Z</time></trkpt><trkpt lat="42.2009129" lon="13.7841067"><ele>742.0</ele><time>2026-05-02T11:05:22.656Z</time></trkpt><trkpt lat="42.20081" lon="13.7843267"><ele>747.0</ele><time>2026-05-02T11:05:23.635Z</time></trkpt><trkpt lat="42.2006977" lon="13.784543"><ele>750.0</ele><time>2026-05-02T11:05:24.655Z</time></trkpt><trkpt lat="42.2005746" lon="13.7847568"><ele>753.0</ele><time>2026-05-02T11:05:25.643Z</time></trkpt><trkpt lat="42.2004523" lon="13.7849306"><ele>756.0</ele><time>2026-05-02T11:05:26.658Z</time></trkpt><trkpt lat="42.2003484" lon="13.785063"><ele>756.0</ele><time>2026-05-02T11:05:27.651Z</time></trkpt><trkpt lat="42.2002631" lon="13.7851493"><ele>756.0</ele><time>2026-05-02T11:05:28.655Z</time></trkpt><trkpt lat="42.2002038" lon="13.7851937"><ele>756.0</ele><time>2026-05-02T11:05:29.643Z</time></trkpt><trkpt lat="42.2001539" lon="13.7851036"><ele>756.0</ele><time>2026-05-02T11:05:32.64Z</time></trkpt><trkpt lat="42.2001784" lon="13.7849925"><ele>756.0</ele><time>2026-05-02T11:05:35.642Z</time></trkpt><trkpt lat="42.2001597" lon="13.7848785"><ele>756.0</ele><time>2026-05-02T11:05:38.643Z</time></trkpt><trkpt lat="42.2001597" lon="13.7847746"><ele>756.0</ele><time>2026-05-02T11:05:42.635Z</time></trkpt><trkpt lat="42.200138" lon="13.7846578"><ele>756.0</ele><time>2026-05-02T11:05:46.657Z</time></trkpt><trkpt lat="42.2001131" lon="13.7845689"><ele>756.0</ele><time>2026-05-02T11:05:50.65Z</time></trkpt><trkpt lat="42.2000786" lon="13.7844372"><ele>756.0</ele><time>2026-05-02T11:06:10.661Z</time></trkpt><trkpt lat="42.2000389" lon="13.7843244"><ele>756.0</ele><time>2026-05-02T11:06:11.656Z</time></trkpt><trkpt lat="42.199975" lon="13.784178"><ele>755.75</ele><time>2026-05-02T11:06:12.656Z</time></trkpt><trkpt lat="42.1999042" lon="13.784027"><ele>755.5</ele><time>2026-05-02T11:06:13.644Z</time></trkpt><trkpt lat="42.1998336" lon="13.7838663"><ele>755.25</ele><time>2026-05-02T11:06:14.643Z</time></trkpt><trkpt lat="42.1997716" lon="13.7836905"><ele>755.0</ele><time>2026-05-02T11:06:15.661Z</time></trkpt><trkpt lat="42.1997571" lon="13.7835088"><ele>758.25</ele><time>2026-05-02T11:06:16.646Z</time></trkpt><trkpt lat="42.1997517" lon="13.7833462"><ele>761.5</ele><time>2026-05-02T11:06:17.64Z</time></trkpt><trkpt lat="42.1997216" lon="13.7832055"><ele>764.75</ele><time>2026-05-02T11:06:18.642Z</time></trkpt><trkpt lat="42.1996546" lon="13.783099"><ele>768.0</ele><time>2026-05-02T11:06:19.649Z</time></trkpt><trkpt lat="42.1995479" lon="13.7830131"><ele>768.0</ele><time>2026-05-02T11:06:20.64Z</time></trkpt><trkpt lat="42.1994275" lon="13.7829416"><ele>768.0</ele><time>2026-05-02T11:06:21.65Z</time></trkpt><trkpt lat="42.1992778" lon="13.7828863"><ele>768.0</ele><time>2026-05-02T11:06:22.659Z</time></trkpt><trkpt lat="42.1991348" lon="13.7828591"><ele>768.0</ele><time>2026-05-02T11:06:23.666Z</time></trkpt><trkpt lat="42.198983" lon="13.7828606"><ele>769.6666666666667</ele><time>2026-05-02T11:06:24.639Z</time></trkpt><trkpt lat="42.1988322" lon="13.7828469"><ele>771.3333333333334</ele><time>2026-05-02T11:06:25.68Z</time></trkpt><trkpt lat="42.1986858" lon="13.7828086"><ele>773.0</ele><time>2026-05-02T11:06:26.642Z</time></trkpt><trkpt lat="42.1985414" lon="13.7827511"><ele>773.0</ele><time>2026-05-02T11:06:27.65Z</time></trkpt><trkpt lat="42.1983937" lon="13.7826999"><ele>773.0</ele><time>2026-05-02T11:06:28.653Z</time></trkpt><trkpt lat="42.1982462" lon="13.7826723"><ele>773.0</ele><time>2026-05-02T11:06:29.661Z</time></trkpt><trkpt lat="42.1980889" lon="13.7826575"><ele>774.3333333333334</ele><time>2026-05-02T11:06:30.651Z</time></trkpt><trkpt lat="42.197919" lon="13.7826714"><ele>775.6666666666667</ele><time>2026-05-02T11:06:31.644Z</time></trkpt><trkpt lat="42.1977475" lon="13.7826933"><ele>777.0</ele><time>2026-05-02T11:06:32.642Z</time></trkpt><trkpt lat="42.1975743" lon="13.7827136"><ele>777.0</ele><time>2026-05-02T11:06:33.656Z</time></trkpt><trkpt lat="42.1974101" lon="13.7827101"><ele>777.0</ele><time>2026-05-02T11:06:34.647Z</time></trkpt><trkpt lat="42.1972474" lon="13.7826653"><ele>777.0</ele><time>2026-05-02T11:06:35.645Z</time></trkpt><trkpt lat="42.1971158" lon="13.7825853"><ele>776.25</ele><time>2026-05-02T11:06:36.635Z</time></trkpt><trkpt lat="42.1970009" lon="13.7824708"><ele>775.5</ele><time>2026-05-02T11:06:37.646Z</time></trkpt><trkpt lat="42.1969035" lon="13.7823399"><ele>774.75</ele><time>2026-05-02T11:06:38.642Z</time></trkpt><trkpt lat="42.1968169" lon="13.7821937"><ele>774.0</ele><time>2026-05-02T11:06:39.648Z</time></trkpt><trkpt lat="42.1967243" lon="13.7820927"><ele>774.0</ele><time>2026-05-02T11:06:40.647Z</time></trkpt><trkpt lat="42.1966074" lon="13.782019"><ele>774.0</ele><time>2026-05-02T11:06:41.644Z</time></trkpt><trkpt lat="42.1964496" lon="13.7819683"><ele>774.0</ele><time>2026-05-02T11:06:42.65Z</time></trkpt><trkpt lat="42.1962855" lon="13.7819364"><ele>774.6666666666667</ele><time>2026-05-02T11:06:43.654Z</time></trkpt><trkpt lat="42.1961021" lon="13.7818984"><ele>775.3333333333334</ele><time>2026-05-02T11:06:44.668Z</time></trkpt><trkpt lat="42.1959195" lon="13.7818549"><ele>776.0</ele><time>2026-05-02T11:06:45.651Z</time></trkpt><trkpt lat="42.1957297" lon="13.7818079"><ele>777.6666666666667</ele><time>2026-05-02T11:06:46.649Z</time></trkpt><trkpt lat="42.1955405" lon="13.7817654"><ele>779.3333333333333</ele><time>2026-05-02T11:06:47.651Z</time></trkpt><trkpt lat="42.1953508" lon="13.7817249"><ele>781.0</ele><time>2026-05-02T11:06:48.647Z</time></trkpt><trkpt lat="42.1951712" lon="13.7816958"><ele>781.0</ele><time>2026-05-02T11:06:49.669Z</time></trkpt><trkpt lat="42.1949907" lon="13.781691"><ele>781.0</ele><time>2026-05-02T11:06:50.65Z</time></trkpt><trkpt lat="42.1948105" lon="13.7817052"><ele>781.0</ele><time>2026-05-02T11:06:51.649Z</time></trkpt><trkpt lat="42.1946393" lon="13.7817201"><ele>782.5</ele><time>2026-05-02T11:06:52.649Z</time></trkpt><trkpt lat="42.194482" lon="13.7817002"><ele>784.0</ele><time>2026-05-02T11:06:53.643Z</time></trkpt><trkpt lat="42.1943432" lon="13.7816609"><ele>785.5</ele><time>2026-05-02T11:06:54.649Z</time></trkpt><trkpt lat="42.1942246" lon="13.7815902"><ele>787.0</ele><time>2026-05-02T11:06:55.648Z</time></trkpt><trkpt lat="42.1941197" lon="13.7814931"><ele>787.0</ele><time>2026-05-02T11:06:56.667Z</time></trkpt><trkpt lat="42.1940522" lon="13.7813512"><ele>787.0</ele><time>2026-05-02T11:06:57.637Z</time></trkpt><trkpt lat="42.1940078" lon="13.7811866"><ele>787.0</ele><time>2026-05-02T11:06:58.64Z</time></trkpt><trkpt lat="42.1939777" lon="13.7810056"><ele>787.0</ele><time>2026-05-02T11:06:59.639Z</time></trkpt><trkpt lat="42.1939566" lon="13.7808209"><ele>786.3333333333333</ele><time>2026-05-02T11:07:00.64Z</time></trkpt><trkpt lat="42.1939584" lon="13.7806242"><ele>785.6666666666667</ele><time>2026-05-02T11:07:01.647Z</time></trkpt><trkpt lat="42.193978" lon="13.7804235"><ele>785.0</ele><time>2026-05-02T11:07:02.653Z</time></trkpt><trkpt lat="42.1940166" lon="13.7801984"><ele>787.0</ele><time>2026-05-02T11:07:03.649Z</time></trkpt><trkpt lat="42.1940643" lon="13.7799536"><ele>789.0</ele><time>2026-05-02T11:07:04.644Z</time></trkpt><trkpt lat="42.1941122" lon="13.7797036"><ele>791.0</ele><time>2026-05-02T11:07:05.655Z</time></trkpt><trkpt lat="42.1941564" lon="13.7794635"><ele>792.6666666666667</ele><time>2026-05-02T11:07:06.646Z</time></trkpt><trkpt lat="42.1941854" lon="13.779229"><ele>794.3333333333333</ele><time>2026-05-02T11:07:07.632Z</time></trkpt><trkpt lat="42.1941922" lon="13.7789753"><ele>796.0</ele><time>2026-05-02T11:07:08.642Z</time></trkpt><trkpt lat="42.1941629" lon="13.7787188"><ele>799.0</ele><time>2026-05-02T11:07:09.648Z</time></trkpt><trkpt lat="42.1941338" lon="13.7784475"><ele>802.0</ele><time>2026-05-02T11:07:10.652Z</time></trkpt><trkpt lat="42.1941257" lon="13.7781578"><ele>805.0</ele><time>2026-05-02T11:07:11.64Z</time></trkpt><trkpt lat="42.1941486" lon="13.7778631"><ele>808.3333333333333</ele><time>2026-05-02T11:07:12.647Z</time></trkpt><trkpt lat="42.1941982" lon="13.7775653"><ele>811.6666666666667</ele><time>2026-05-02T11:07:13.646Z</time></trkpt><trkpt lat="42.1942525" lon="13.7772821"><ele>815.0</ele><time>2026-05-02T11:07:14.662Z</time></trkpt><trkpt lat="42.1943165" lon="13.777"><ele>817.6666666666667</ele><time>2026-05-02T11:07:15.652Z</time></trkpt><trkpt lat="42.1944063" lon="13.7767393"><ele>820.3333333333333</ele><time>2026-05-02T11:07:16.639Z</time></trkpt><trkpt lat="42.194512" lon="13.776484"><ele>823.0</ele><time>2026-05-02T11:07:17.644Z</time></trkpt><trkpt lat="42.1946159" lon="13.7762449"><ele>820.3333333333333</ele><time>2026-05-02T11:07:18.654Z</time></trkpt><trkpt lat="42.1947015" lon="13.7760186"><ele>817.6666666666667</ele><time>2026-05-02T11:07:19.637Z</time></trkpt><trkpt lat="42.1947812" lon="13.7757859"><ele>815.0</ele><time>2026-05-02T11:07:20.672Z</time></trkpt><trkpt lat="42.1948841" lon="13.7755621"><ele>815.0</ele><time>2026-05-02T11:07:21.663Z</time></trkpt><trkpt lat="42.1950214" lon="13.7753518"><ele>815.0</ele><time>2026-05-02T11:07:22.647Z</time></trkpt><trkpt lat="42.195174" lon="13.7751399"><ele>815.0</ele><time>2026-05-02T11:07:23.644Z</time></trkpt><trkpt lat="42.1953268" lon="13.7749037"><ele>820.5</ele><time>2026-05-02T11:07:24.643Z</time></trkpt><trkpt lat="42.1954739" lon="13.7746651"><ele>826.0</ele><time>2026-05-02T11:07:25.65Z</time></trkpt><trkpt lat="42.1956084" lon="13.774429"><ele>827.0</ele><time>2026-05-02T11:07:26.669Z</time></trkpt><trkpt lat="42.1957368" lon="13.7742044"><ele>828.0</ele><time>2026-05-02T11:07:27.645Z</time></trkpt><trkpt lat="42.1958583" lon="13.7739973"><ele>829.0</ele><time>2026-05-02T11:07:28.659Z</time></trkpt><trkpt lat="42.1959608" lon="13.7738009"><ele>829.0</ele><time>2026-05-02T11:07:29.651Z</time></trkpt><trkpt lat="42.1960386" lon="13.7735976"><ele>829.0</ele><time>2026-05-02T11:07:30.646Z</time></trkpt><trkpt lat="42.1960648" lon="13.7733748"><ele>829.0</ele><time>2026-05-02T11:07:31.658Z</time></trkpt><trkpt lat="42.1960664" lon="13.7731483"><ele>832.6666666666666</ele><time>2026-05-02T11:07:32.651Z</time></trkpt><trkpt lat="42.1960605" lon="13.7728809"><ele>836.3333333333333</ele><time>2026-05-02T11:07:33.642Z</time></trkpt><trkpt lat="42.19607" lon="13.7726138"><ele>840.0</ele><time>2026-05-02T11:07:34.652Z</time></trkpt><trkpt lat="42.1961046" lon="13.7723599"><ele>841.0</ele><time>2026-05-02T11:07:35.654Z</time></trkpt><trkpt lat="42.1961402" lon="13.7721068"><ele>842.0</ele><time>2026-05-02T11:07:36.672Z</time></trkpt><trkpt lat="42.1961562" lon="13.7718749"><ele>843.0</ele><time>2026-05-02T11:07:37.667Z</time></trkpt><trkpt lat="42.196145" lon="13.7716768"><ele>843.0</ele><time>2026-05-02T11:07:38.675Z</time></trkpt><trkpt lat="42.1960983" lon="13.7715351"><ele>843.0</ele><time>2026-05-02T11:07:39.654Z</time></trkpt><trkpt lat="42.1960228" lon="13.7714357"><ele>843.0</ele><time>2026-05-02T11:07:40.644Z</time></trkpt><trkpt lat="42.1959163" lon="13.7713813"><ele>843.0</ele><time>2026-05-02T11:07:41.645Z</time></trkpt><trkpt lat="42.1957827" lon="13.7713575"><ele>846.6666666666667</ele><time>2026-05-02T11:07:42.649Z</time></trkpt><trkpt lat="42.1956388" lon="13.7713517"><ele>850.3333333333334</ele><time>2026-05-02T11:07:43.652Z</time></trkpt><trkpt lat="42.1954742" lon="13.7713608"><ele>854.0</ele><time>2026-05-02T11:07:44.661Z</time></trkpt><trkpt lat="42.1953077" lon="13.771366"><ele>854.0</ele><time>2026-05-02T11:07:45.664Z</time></trkpt><trkpt lat="42.1951613" lon="13.7713476"><ele>854.0</ele><time>2026-05-02T11:07:46.66Z</time></trkpt><trkpt lat="42.1950263" lon="13.7712937"><ele>854.0</ele><time>2026-05-02T11:07:47.637Z</time></trkpt><trkpt lat="42.1949464" lon="13.7711922"><ele>854.0</ele><time>2026-05-02T11:07:48.639Z</time></trkpt><trkpt lat="42.1949104" lon="13.7710851"><ele>853.0</ele><time>2026-05-02T11:07:49.638Z</time></trkpt><trkpt lat="42.194912" lon="13.7709419"><ele>852.0</ele><time>2026-05-02T11:07:50.653Z</time></trkpt><trkpt lat="42.1948962" lon="13.7707837"><ele>851.0</ele><time>2026-05-02T11:07:51.635Z</time></trkpt><trkpt lat="42.1948642" lon="13.7706174"><ele>850.0</ele><time>2026-05-02T11:07:52.672Z</time></trkpt><trkpt lat="42.1948299" lon="13.7704505"><ele>852.75</ele><time>2026-05-02T11:07:53.642Z</time></trkpt><trkpt lat="42.1947752" lon="13.770287"><ele>855.5</ele><time>2026-05-02T11:07:54.649Z</time></trkpt><trkpt lat="42.194703" lon="13.7701167"><ele>858.25</ele><time>2026-05-02T11:07:55.647Z</time></trkpt><trkpt lat="42.1946229" lon="13.769942"><ele>861.0</ele><time>2026-05-02T11:07:56.655Z</time></trkpt><trkpt lat="42.1945557" lon="13.7697909"><ele>861.0</ele><time>2026-05-02T11:07:57.648Z</time></trkpt><trkpt lat="42.1944915" lon="13.7696583"><ele>861.0</ele><time>2026-05-02T11:07:58.653Z</time></trkpt><trkpt lat="42.1943985" lon="13.7695864"><ele>861.0</ele><time>2026-05-02T11:07:59.645Z</time></trkpt><trkpt lat="42.1942679" lon="13.7695517"><ele>861.0</ele><time>2026-05-02T11:08:00.649Z</time></trkpt><trkpt lat="42.1941201" lon="13.7695773"><ele>864.3333333333333</ele><time>2026-05-02T11:08:01.644Z</time></trkpt><trkpt lat="42.1939523" lon="13.769605"><ele>867.6666666666666</ele><time>2026-05-02T11:08:02.645Z</time></trkpt><trkpt lat="42.1937713" lon="13.7696329"><ele>871.0</ele><time>2026-05-02T11:08:03.646Z</time></trkpt><trkpt lat="42.1935741" lon="13.7696293"><ele>871.0</ele><time>2026-05-02T11:08:04.652Z</time></trkpt><trkpt lat="42.1933742" lon="13.7695939"><ele>871.0</ele><time>2026-05-02T11:08:05.65Z</time></trkpt><trkpt lat="42.1931665" lon="13.7695755"><ele>871.0</ele><time>2026-05-02T11:08:06.646Z</time></trkpt><trkpt lat="42.1929601" lon="13.7695662"><ele>872.0</ele><time>2026-05-02T11:08:07.648Z</time></trkpt><trkpt lat="42.1927565" lon="13.7695504"><ele>873.0</ele><time>2026-05-02T11:08:08.639Z</time></trkpt><trkpt lat="42.1925667" lon="13.7695165"><ele>874.0</ele><time>2026-05-02T11:08:09.668Z</time></trkpt><trkpt lat="42.1924043" lon="13.769466"><ele>873.75</ele><time>2026-05-02T11:08:10.649Z</time></trkpt><trkpt lat="42.1922503" lon="13.7694249"><ele>873.5</ele><time>2026-05-02T11:08:11.651Z</time></trkpt><trkpt lat="42.1921111" lon="13.769387"><ele>873.25</ele><time>2026-05-02T11:08:12.637Z</time></trkpt><trkpt lat="42.1919655" lon="13.7693667"><ele>873.0</ele><time>2026-05-02T11:08:13.646Z</time></trkpt><trkpt lat="42.1918034" lon="13.7693596"><ele>873.0</ele><time>2026-05-02T11:08:14.64Z</time></trkpt><trkpt lat="42.1916523" lon="13.7693592"><ele>873.0</ele><time>2026-05-02T11:08:15.645Z</time></trkpt><trkpt lat="42.1915169" lon="13.7693435"><ele>873.0</ele><time>2026-05-02T11:08:16.647Z</time></trkpt><trkpt lat="42.1913887" lon="13.7693097"><ele>873.0</ele><time>2026-05-02T11:08:17.647Z</time></trkpt><trkpt lat="42.1912787" lon="13.7692622"><ele>872.8</ele><time>2026-05-02T11:08:18.653Z</time></trkpt><trkpt lat="42.1912028" lon="13.7691548"><ele>872.5999999999999</ele><time>2026-05-02T11:08:19.645Z</time></trkpt><trkpt lat="42.1911271" lon="13.7690343"><ele>872.4000000000001</ele><time>2026-05-02T11:08:20.651Z</time></trkpt><trkpt lat="42.1910557" lon="13.7689101"><ele>872.2</ele><time>2026-05-02T11:08:21.643Z</time></trkpt><trkpt lat="42.1909845" lon="13.7688099"><ele>872.0</ele><time>2026-05-02T11:08:22.652Z</time></trkpt><trkpt lat="42.1909229" lon="13.7687408"><ele>872.0</ele><time>2026-05-02T11:08:23.643Z</time></trkpt><trkpt lat="42.1908652" lon="13.7686327"><ele>872.0</ele><time>2026-05-02T11:08:25.653Z</time></trkpt><trkpt lat="42.1908991" lon="13.7685548"><ele>872.0</ele><time>2026-05-02T11:08:28.646Z</time></trkpt><trkpt lat="42.1909864" lon="13.7685174"><ele>872.0</ele><time>2026-05-02T11:08:30.648Z</time></trkpt><trkpt lat="42.1910625" lon="13.768444"><ele>872.0</ele><time>2026-05-02T11:08:59.656Z</time></trkpt><trkpt lat="42.1911767" lon="13.7683063"><ele>872.25</ele><time>2026-05-02T11:09:01.652Z</time></trkpt><trkpt lat="42.1912562" lon="13.7681918"><ele>872.5</ele><time>2026-05-02T11:09:02.641Z</time></trkpt><trkpt lat="42.1913299" lon="13.7680675"><ele>872.75</ele><time>2026-05-02T11:09:03.65Z</time></trkpt><trkpt lat="42.1914052" lon="13.767939"><ele>873.0</ele><time>2026-05-02T11:09:04.638Z</time></trkpt><trkpt lat="42.1914802" lon="13.7678432"><ele>873.0</ele><time>2026-05-02T11:09:05.652Z</time></trkpt><trkpt lat="42.1915497" lon="13.767765"><ele>873.0</ele><time>2026-05-02T11:09:06.64Z</time></trkpt><trkpt lat="42.191621" lon="13.7676929"><ele>873.0</ele><time>2026-05-02T11:09:07.661Z</time></trkpt><trkpt lat="42.191696" lon="13.7676242"><ele>873.0</ele><time>2026-05-02T11:09:08.645Z</time></trkpt><trkpt lat="42.1917654" lon="13.7675297"><ele>873.0</ele><time>2026-05-02T11:09:09.652Z</time></trkpt><trkpt lat="42.1918256" lon="13.7674131"><ele>876.0</ele><time>2026-05-02T11:09:10.649Z</time></trkpt><trkpt lat="42.1918898" lon="13.76727"><ele>879.0</ele><time>2026-05-02T11:09:11.648Z</time></trkpt><trkpt lat="42.1919441" lon="13.7671258"><ele>882.0</ele><time>2026-05-02T11:09:12.636Z</time></trkpt><trkpt lat="42.1919845" lon="13.7669847"><ele>885.0</ele><time>2026-05-02T11:09:13.648Z</time></trkpt><trkpt lat="42.1920169" lon="13.7668743"><ele>888.0</ele><time>2026-05-02T11:09:14.663Z</time></trkpt><trkpt lat="42.1920499" lon="13.7667958"><ele>890.8</ele><time>2026-05-02T11:09:15.651Z</time></trkpt><trkpt lat="42.1920955" lon="13.7666687"><ele>893.5999999999999</ele><time>2026-05-02T11:09:17.638Z</time></trkpt><trkpt lat="42.192146" lon="13.7665731"><ele>896.4000000000001</ele><time>2026-05-02T11:09:19.645Z</time></trkpt><trkpt lat="42.1922205" lon="13.766454"><ele>899.2</ele><time>2026-05-02T11:09:21.653Z</time></trkpt><trkpt lat="42.1922903" lon="13.7663238"><ele>902.0</ele><time>2026-05-02T11:09:23.651Z</time></trkpt><trkpt lat="42.1923344" lon="13.7662495"><ele>903.0</ele><time>2026-05-02T11:09:24.652Z</time></trkpt><trkpt lat="42.1923919" lon="13.7661499"><ele>904.0</ele><time>2026-05-02T11:09:25.652Z</time></trkpt><trkpt lat="42.1924646" lon="13.7660403"><ele>905.0</ele><time>2026-05-02T11:09:26.676Z</time></trkpt><trkpt lat="42.1925458" lon="13.7659043"><ele>906.0</ele><time>2026-05-02T11:09:27.644Z</time></trkpt><trkpt lat="42.1926396" lon="13.765756"><ele>906.0</ele><time>2026-05-02T11:09:28.651Z</time></trkpt><trkpt lat="42.1927511" lon="13.765607"><ele>906.0</ele><time>2026-05-02T11:09:29.641Z</time></trkpt><trkpt lat="42.1928742" lon="13.7654464"><ele>906.0</ele><time>2026-05-02T11:09:30.663Z</time></trkpt><trkpt lat="42.1930048" lon="13.7652649"><ele>907.0</ele><time>2026-05-02T11:09:31.65Z</time></trkpt><trkpt lat="42.1931311" lon="13.765088"><ele>908.0</ele><time>2026-05-02T11:09:32.652Z</time></trkpt><trkpt lat="42.1932411" lon="13.7649223"><ele>909.0</ele><time>2026-05-02T11:09:33.645Z</time></trkpt><trkpt lat="42.1933412" lon="13.7647668"><ele>909.0</ele><time>2026-05-02T11:09:34.651Z</time></trkpt><trkpt lat="42.1934389" lon="13.7646396"><ele>909.0</ele><time>2026-05-02T11:09:35.648Z</time></trkpt><trkpt lat="42.1935462" lon="13.7645242"><ele>909.0</ele><time>2026-05-02T11:09:36.642Z</time></trkpt><trkpt lat="42.1936535" lon="13.764451"><ele>909.0</ele><time>2026-05-02T11:09:37.648Z</time></trkpt><trkpt lat="42.1937655" lon="13.764394"><ele>910.0</ele><time>2026-05-02T11:09:38.645Z</time></trkpt><trkpt lat="42.1938785" lon="13.764326"><ele>911.0</ele><time>2026-05-02T11:09:39.656Z</time></trkpt><trkpt lat="42.1939639" lon="13.7642351"><ele>912.0</ele><time>2026-05-02T11:09:40.654Z</time></trkpt><trkpt lat="42.1940413" lon="13.7641086"><ele>913.0</ele><time>2026-05-02T11:09:41.652Z</time></trkpt><trkpt lat="42.1941225" lon="13.7639434"><ele>913.0</ele><time>2026-05-02T11:09:42.643Z</time></trkpt><trkpt lat="42.1942036" lon="13.7637535"><ele>913.0</ele><time>2026-05-02T11:09:43.652Z</time></trkpt><trkpt lat="42.1942794" lon="13.7635839"><ele>913.0</ele><time>2026-05-02T11:09:44.651Z</time></trkpt><trkpt lat="42.1943541" lon="13.7634467"><ele>913.0</ele><time>2026-05-02T11:09:45.655Z</time></trkpt><trkpt lat="42.1944503" lon="13.7633005"><ele>917.0</ele><time>2026-05-02T11:09:46.649Z</time></trkpt><trkpt lat="42.1945707" lon="13.7631363"><ele>921.0</ele><time>2026-05-02T11:09:47.639Z</time></trkpt><trkpt lat="42.1946786" lon="13.7629775"><ele>925.0</ele><time>2026-05-02T11:09:48.672Z</time></trkpt><trkpt lat="42.1947823" lon="13.7628531"><ele>924.25</ele><time>2026-05-02T11:09:49.64Z</time></trkpt><trkpt lat="42.1948957" lon="13.7627671"><ele>923.5</ele><time>2026-05-02T11:09:50.65Z</time></trkpt><trkpt lat="42.1950331" lon="13.7627034"><ele>922.75</ele><time>2026-05-02T11:09:51.676Z</time></trkpt><trkpt lat="42.1951795" lon="13.762639"><ele>922.0</ele><time>2026-05-02T11:09:52.656Z</time></trkpt><trkpt lat="42.1952979" lon="13.7625798"><ele>922.0</ele><time>2026-05-02T11:09:53.657Z</time></trkpt><trkpt lat="42.1953988" lon="13.7625054"><ele>922.0</ele><time>2026-05-02T11:09:54.65Z</time></trkpt><trkpt lat="42.1954972" lon="13.7623892"><ele>922.0</ele><time>2026-05-02T11:09:55.648Z</time></trkpt><trkpt lat="42.195588" lon="13.7622482"><ele>922.0</ele><time>2026-05-02T11:09:56.66Z</time></trkpt><trkpt lat="42.195677" lon="13.7620948"><ele>922.0</ele><time>2026-05-02T11:09:57.648Z</time></trkpt><trkpt lat="42.1957512" lon="13.7619571"><ele>922.0</ele><time>2026-05-02T11:09:58.659Z</time></trkpt><trkpt lat="42.1958168" lon="13.7618236"><ele>922.0</ele><time>2026-05-02T11:09:59.651Z</time></trkpt><trkpt lat="42.1958788" lon="13.7616935"><ele>922.0</ele><time>2026-05-02T11:10:00.654Z</time></trkpt><trkpt lat="42.1959407" lon="13.7615602"><ele>922.0</ele><time>2026-05-02T11:10:01.646Z</time></trkpt><trkpt lat="42.1960102" lon="13.7614451"><ele>922.0</ele><time>2026-05-02T11:10:02.66Z</time></trkpt><trkpt lat="42.196065" lon="13.7613532"><ele>922.0</ele><time>2026-05-02T11:10:03.666Z</time></trkpt><trkpt lat="42.1961082" lon="13.7612867"><ele>922.0</ele><time>2026-05-02T11:10:04.652Z</time></trkpt><trkpt lat="42.1961619" lon="13.7612057"><ele>922.0</ele><time>2026-05-02T11:10:05.646Z</time></trkpt><trkpt lat="42.1962362" lon="13.7610918"><ele>922.0</ele><time>2026-05-02T11:10:06.674Z</time></trkpt><trkpt lat="42.1963092" lon="13.7609635"><ele>922.0</ele><time>2026-05-02T11:10:07.636Z</time></trkpt><trkpt lat="42.1963819" lon="13.7608268"><ele>922.0</ele><time>2026-05-02T11:10:08.649Z</time></trkpt><trkpt lat="42.1964563" lon="13.7606772"><ele>922.0</ele><time>2026-05-02T11:10:09.643Z</time></trkpt><trkpt lat="42.1965336" lon="13.7605229"><ele>922.0</ele><time>2026-05-02T11:10:10.659Z</time></trkpt><trkpt lat="42.1966166" lon="13.7603668"><ele>922.0</ele><time>2026-05-02T11:10:11.652Z</time></trkpt><trkpt lat="42.1966998" lon="13.7602027"><ele>922.0</ele><time>2026-05-02T11:10:12.638Z</time></trkpt><trkpt lat="42.196784" lon="13.7600316"><ele>922.0</ele><time>2026-05-02T11:10:13.647Z</time></trkpt><trkpt lat="42.1968537" lon="13.7598659"><ele>924.25</ele><time>2026-05-02T11:10:14.641Z</time></trkpt><trkpt lat="42.1969089" lon="13.759725"><ele>926.5</ele><time>2026-05-02T11:10:15.646Z</time></trkpt><trkpt lat="42.1969428" lon="13.7595773"><ele>928.75</ele><time>2026-05-02T11:10:16.646Z</time></trkpt><trkpt lat="42.1969462" lon="13.7594008"><ele>931.0</ele><time>2026-05-02T11:10:17.645Z</time></trkpt><trkpt lat="42.1969393" lon="13.7592096"><ele>932.25</ele><time>2026-05-02T11:10:18.638Z</time></trkpt><trkpt lat="42.1969207" lon="13.7590174"><ele>933.5</ele><time>2026-05-02T11:10:19.644Z</time></trkpt><trkpt lat="42.1968841" lon="13.7588246"><ele>934.75</ele><time>2026-05-02T11:10:20.642Z</time></trkpt><trkpt lat="42.1968612" lon="13.7586396"><ele>936.0</ele><time>2026-05-02T11:10:21.633Z</time></trkpt><trkpt lat="42.1968613" lon="13.7585042"><ele>936.4</ele><time>2026-05-02T11:10:22.665Z</time></trkpt><trkpt lat="42.196885" lon="13.7583805"><ele>936.8</ele><time>2026-05-02T11:10:23.646Z</time></trkpt><trkpt lat="42.1969267" lon="13.7582589"><ele>937.1999999999999</ele><time>2026-05-02T11:10:24.64Z</time></trkpt><trkpt lat="42.1969724" lon="13.7581176"><ele>937.5999999999999</ele><time>2026-05-02T11:10:25.639Z</time></trkpt><trkpt lat="42.1970135" lon="13.7579846"><ele>938.0</ele><time>2026-05-02T11:10:26.641Z</time></trkpt><trkpt lat="42.1970659" lon="13.7578658"><ele>938.0</ele><time>2026-05-02T11:10:27.647Z</time></trkpt><trkpt lat="42.1971292" lon="13.7577466"><ele>938.0</ele><time>2026-05-02T11:10:28.664Z</time></trkpt><trkpt lat="42.197193" lon="13.7576157"><ele>938.0</ele><time>2026-05-02T11:10:29.654Z</time></trkpt><trkpt lat="42.197241" lon="13.7574576"><ele>938.0</ele><time>2026-05-02T11:10:30.643Z</time></trkpt><trkpt lat="42.1972517" lon="13.7573046"><ele>940.0</ele><time>2026-05-02T11:10:31.645Z</time></trkpt><trkpt lat="42.1972456" lon="13.7571562"><ele>942.0</ele><time>2026-05-02T11:10:32.644Z</time></trkpt><trkpt lat="42.1972149" lon="13.7569756"><ele>944.0</ele><time>2026-05-02T11:10:33.65Z</time></trkpt><trkpt lat="42.1971699" lon="13.7568133"><ele>946.0</ele><time>2026-05-02T11:10:34.642Z</time></trkpt><trkpt lat="42.197142" lon="13.7567082"><ele>947.1999999999999</ele><time>2026-05-02T11:10:35.654Z</time></trkpt><trkpt lat="42.1971402" lon="13.7565971"><ele>948.3999999999999</ele><time>2026-05-02T11:10:36.655Z</time></trkpt><trkpt lat="42.1971425" lon="13.7564553"><ele>949.6</ele><time>2026-05-02T11:10:37.655Z</time></trkpt><trkpt lat="42.197149" lon="13.7562942"><ele>950.8</ele><time>2026-05-02T11:10:38.654Z</time></trkpt><trkpt lat="42.1971538" lon="13.7561603"><ele>952.0</ele><time>2026-05-02T11:10:39.669Z</time></trkpt><trkpt lat="42.197152" lon="13.7560279"><ele>953.8</ele><time>2026-05-02T11:10:40.654Z</time></trkpt><trkpt lat="42.1971511" lon="13.7559022"><ele>955.6</ele><time>2026-05-02T11:10:41.646Z</time></trkpt><trkpt lat="42.197149" lon="13.755774"><ele>957.3999999999999</ele><time>2026-05-02T11:10:42.652Z</time></trkpt><trkpt lat="42.1971314" lon="13.7556392"><ele>959.1999999999999</ele><time>2026-05-02T11:10:43.659Z</time></trkpt><trkpt lat="42.1971106" lon="13.7554971"><ele>961.0</ele><time>2026-05-02T11:10:44.637Z</time></trkpt><trkpt lat="42.1970842" lon="13.7553845"><ele>961.0</ele><time>2026-05-02T11:10:45.655Z</time></trkpt><trkpt lat="42.1970663" lon="13.7552646"><ele>960.9999999999999</ele><time>2026-05-02T11:10:46.646Z</time></trkpt><trkpt lat="42.1970475" lon="13.7551495"><ele>960.9999999999999</ele><time>2026-05-02T11:10:47.642Z</time></trkpt><trkpt lat="42.1970197" lon="13.7550375"><ele>961.0</ele><time>2026-05-02T11:10:48.665Z</time></trkpt><trkpt lat="42.1969927" lon="13.7549137"><ele>961.0</ele><time>2026-05-02T11:10:49.642Z</time></trkpt><trkpt lat="42.1969643" lon="13.754794"><ele>963.0</ele><time>2026-05-02T11:10:50.652Z</time></trkpt><trkpt lat="42.196932" lon="13.754659"><ele>964.9999999999999</ele><time>2026-05-02T11:10:51.646Z</time></trkpt><trkpt lat="42.1969122" lon="13.7545152"><ele>966.9999999999999</ele><time>2026-05-02T11:10:52.652Z</time></trkpt><trkpt lat="42.1969055" lon="13.7543999"><ele>969.0</ele><time>2026-05-02T11:10:53.652Z</time></trkpt><trkpt lat="42.1968913" lon="13.7542906"><ele>971.0</ele><time>2026-05-02T11:10:54.648Z</time></trkpt><trkpt lat="42.1968681" lon="13.7541725"><ele>972.8333333333334</ele><time>2026-05-02T11:10:55.649Z</time></trkpt><trkpt lat="42.196814" lon="13.754055"><ele>974.6666666666667</ele><time>2026-05-02T11:10:56.642Z</time></trkpt><trkpt lat="42.1967576" lon="13.7539568"><ele>976.5</ele><time>2026-05-02T11:10:57.659Z</time></trkpt><trkpt lat="42.1966986" lon="13.753888"><ele>978.3333333333333</ele><time>2026-05-02T11:10:58.649Z</time></trkpt><trkpt lat="42.1966528" lon="13.7538272"><ele>980.1666666666666</ele><time>2026-05-02T11:10:59.646Z</time></trkpt><trkpt lat="42.1965795" lon="13.7537259"><ele>982.0</ele><time>2026-05-02T11:11:01.647Z</time></trkpt><trkpt lat="42.1965364" lon="13.7536045"><ele>983.8333333333333</ele><time>2026-05-02T11:11:03.641Z</time></trkpt><trkpt lat="42.1965488" lon="13.7534494"><ele>985.6666666666666</ele><time>2026-05-02T11:11:05.63Z</time></trkpt><trkpt lat="42.1965742" lon="13.7533654"><ele>987.5</ele><time>2026-05-02T11:11:06.635Z</time></trkpt><trkpt lat="42.1966021" lon="13.7532692"><ele>989.3333333333333</ele><time>2026-05-02T11:11:07.639Z</time></trkpt><trkpt lat="42.1966359" lon="13.7531714"><ele>991.1666666666666</ele><time>2026-05-02T11:11:08.644Z</time></trkpt><trkpt lat="42.1967081" lon="13.753089"><ele>993.0</ele><time>2026-05-02T11:11:09.637Z</time></trkpt><trkpt lat="42.1967966" lon="13.7530387"><ele>993.0</ele><time>2026-05-02T11:11:10.644Z</time></trkpt><trkpt lat="42.1969012" lon="13.7530032"><ele>993.0</ele><time>2026-05-02T11:11:11.647Z</time></trkpt><trkpt lat="42.1969878" lon="13.7529402"><ele>993.0</ele><time>2026-05-02T11:11:12.646Z</time></trkpt><trkpt lat="42.1970689" lon="13.7528492"><ele>993.0</ele><time>2026-05-02T11:11:13.664Z</time></trkpt><trkpt lat="42.1971445" lon="13.7527387"><ele>993.0</ele><time>2026-05-02T11:11:14.647Z</time></trkpt><trkpt lat="42.1972192" lon="13.7526148"><ele>994.5</ele><time>2026-05-02T11:11:15.64Z</time></trkpt><trkpt lat="42.1972791" lon="13.7524859"><ele>996.0</ele><time>2026-05-02T11:11:16.648Z</time></trkpt><trkpt lat="42.1973374" lon="13.7523552"><ele>997.5</ele><time>2026-05-02T11:11:17.641Z</time></trkpt><trkpt lat="42.1973968" lon="13.7522036"><ele>999.0</ele><time>2026-05-02T11:11:18.664Z</time></trkpt><trkpt lat="42.1974579" lon="13.752048"><ele>999.0</ele><time>2026-05-02T11:11:19.645Z</time></trkpt><trkpt lat="42.1975254" lon="13.7519128"><ele>999.0</ele><time>2026-05-02T11:11:20.647Z</time></trkpt><trkpt lat="42.1975999" lon="13.7517881"><ele>999.0</ele><time>2026-05-02T11:11:21.641Z</time></trkpt><trkpt lat="42.1976913" lon="13.7516553"><ele>999.0</ele><time>2026-05-02T11:11:22.661Z</time></trkpt><trkpt lat="42.1978022" lon="13.7515172"><ele>1003.0</ele><time>2026-05-02T11:11:23.641Z</time></trkpt><trkpt lat="42.1979254" lon="13.7513736"><ele>1007.0</ele><time>2026-05-02T11:11:24.655Z</time></trkpt><trkpt lat="42.1980421" lon="13.7512212"><ele>1011.0</ele><time>2026-05-02T11:11:25.654Z</time></trkpt><trkpt lat="42.1981457" lon="13.7510711"><ele>1013.5</ele><time>2026-05-02T11:11:26.651Z</time></trkpt><trkpt lat="42.1982447" lon="13.7509221"><ele>1016.0</ele><time>2026-05-02T11:11:27.664Z</time></trkpt><trkpt lat="42.1983366" lon="13.7507859"><ele>1018.5</ele><time>2026-05-02T11:11:28.647Z</time></trkpt><trkpt lat="42.1984296" lon="13.7506388"><ele>1021.0</ele><time>2026-05-02T11:11:29.658Z</time></trkpt><trkpt lat="42.1985318" lon="13.7504913"><ele>1021.0</ele><time>2026-05-02T11:11:30.653Z</time></trkpt><trkpt lat="42.1986303" lon="13.7503637"><ele>1020.9999999999999</ele><time>2026-05-02T11:11:31.653Z</time></trkpt><trkpt lat="42.198704" lon="13.7502482"><ele>1020.9999999999999</ele><time>2026-05-02T11:11:32.648Z</time></trkpt><trkpt lat="42.1987516" lon="13.750163"><ele>1021.0</ele><time>2026-05-02T11:11:33.64Z</time></trkpt><trkpt lat="42.1987725" lon="13.7500773"><ele>1021.0</ele><time>2026-05-02T11:11:34.651Z</time></trkpt><trkpt lat="42.1988003" lon="13.7499711"><ele>1023.75</ele><time>2026-05-02T11:11:35.64Z</time></trkpt><trkpt lat="42.1988163" lon="13.7498275"><ele>1026.5</ele><time>2026-05-02T11:11:36.663Z</time></trkpt><trkpt lat="42.1988336" lon="13.7496833"><ele>1029.25</ele><time>2026-05-02T11:11:37.66Z</time></trkpt><trkpt lat="42.1988409" lon="13.7495247"><ele>1032.0</ele><time>2026-05-02T11:11:38.651Z</time></trkpt><trkpt lat="42.1988255" lon="13.7493323"><ele>1033.25</ele><time>2026-05-02T11:11:39.655Z</time></trkpt><trkpt lat="42.1988089" lon="13.7491316"><ele>1034.5</ele><time>2026-05-02T11:11:40.656Z</time></trkpt><trkpt lat="42.1987807" lon="13.748952"><ele>1035.75</ele><time>2026-05-02T11:11:41.648Z</time></trkpt><trkpt lat="42.1987488" lon="13.7487844"><ele>1037.0</ele><time>2026-05-02T11:11:42.647Z</time></trkpt><trkpt lat="42.1987186" lon="13.7486322"><ele>1037.5</ele><time>2026-05-02T11:11:43.642Z</time></trkpt><trkpt lat="42.1987036" lon="13.7484619"><ele>1038.0</ele><time>2026-05-02T11:11:44.645Z</time></trkpt><trkpt lat="42.1987011" lon="13.7482884"><ele>1038.5</ele><time>2026-05-02T11:11:45.655Z</time></trkpt><trkpt lat="42.1987101" lon="13.7481025"><ele>1039.0</ele><time>2026-05-02T11:11:46.652Z</time></trkpt><trkpt lat="42.1987197" lon="13.7478875"><ele>1041.3333333333333</ele><time>2026-05-02T11:11:47.64Z</time></trkpt><trkpt lat="42.1987305" lon="13.7476222"><ele>1043.6666666666667</ele><time>2026-05-02T11:11:48.641Z</time></trkpt><trkpt lat="42.1987278" lon="13.7473855"><ele>1046.0</ele><time>2026-05-02T11:11:49.642Z</time></trkpt><trkpt lat="42.1987326" lon="13.7472073"><ele>1046.0</ele><time>2026-05-02T11:11:50.633Z</time></trkpt><trkpt lat="42.1987614" lon="13.7470525"><ele>1046.0</ele><time>2026-05-02T11:11:51.647Z</time></trkpt><trkpt lat="42.1988029" lon="13.7469"><ele>1046.0</ele><time>2026-05-02T11:11:52.638Z</time></trkpt><trkpt lat="42.1988274" lon="13.7467437"><ele>1046.0</ele><time>2026-05-02T11:11:53.652Z</time></trkpt><trkpt lat="42.1988426" lon="13.7465629"><ele>1047.75</ele><time>2026-05-02T11:11:54.63Z</time></trkpt><trkpt lat="42.1988527" lon="13.7463543"><ele>1049.5</ele><time>2026-05-02T11:11:55.638Z</time></trkpt><trkpt lat="42.1988626" lon="13.7461546"><ele>1051.25</ele><time>2026-05-02T11:11:56.647Z</time></trkpt><trkpt lat="42.1988962" lon="13.7459746"><ele>1053.0</ele><time>2026-05-02T11:11:57.654Z</time></trkpt><trkpt lat="42.1989542" lon="13.7457785"><ele>1054.0</ele><time>2026-05-02T11:11:58.642Z</time></trkpt><trkpt lat="42.1989996" lon="13.7455989"><ele>1055.0</ele><time>2026-05-02T11:11:59.644Z</time></trkpt><trkpt lat="42.1990386" lon="13.7454412"><ele>1056.0</ele><time>2026-05-02T11:12:00.649Z</time></trkpt><trkpt lat="42.1990905" lon="13.7453297"><ele>1057.0</ele><time>2026-05-02T11:12:01.653Z</time></trkpt><trkpt lat="42.1991706" lon="13.7452143"><ele>1057.5</ele><time>2026-05-02T11:12:02.665Z</time></trkpt><trkpt lat="42.199258" lon="13.7450723"><ele>1058.0</ele><time>2026-05-02T11:12:03.649Z</time></trkpt><trkpt lat="42.1993313" lon="13.7449236"><ele>1058.5</ele><time>2026-05-02T11:12:04.646Z</time></trkpt><trkpt lat="42.1993874" lon="13.7447831"><ele>1059.0</ele><time>2026-05-02T11:12:05.649Z</time></trkpt><trkpt lat="42.1994331" lon="13.7446458"><ele>1059.0</ele><time>2026-05-02T11:12:06.646Z</time></trkpt><trkpt lat="42.1994704" lon="13.7445254"><ele>1059.0</ele><time>2026-05-02T11:12:07.655Z</time></trkpt><trkpt lat="42.1995244" lon="13.7444214"><ele>1059.0</ele><time>2026-05-02T11:12:08.648Z</time></trkpt><trkpt lat="42.1995985" lon="13.7443378"><ele>1059.0</ele><time>2026-05-02T11:12:09.656Z</time></trkpt><trkpt lat="42.1996983" lon="13.7442666"><ele>1059.0</ele><time>2026-05-02T11:12:10.64Z</time></trkpt><trkpt lat="42.1998243" lon="13.7441949"><ele>1057.4</ele><time>2026-05-02T11:12:11.65Z</time></trkpt><trkpt lat="42.199942" lon="13.7441277"><ele>1055.8000000000002</ele><time>2026-05-02T11:12:12.635Z</time></trkpt><trkpt lat="42.2000518" lon="13.7440647"><ele>1054.1999999999998</ele><time>2026-05-02T11:12:13.634Z</time></trkpt><trkpt lat="42.2001446" lon="13.7440074"><ele>1052.6</ele><time>2026-05-02T11:12:14.643Z</time></trkpt><trkpt lat="42.2002316" lon="13.7439436"><ele>1051.0</ele><time>2026-05-02T11:12:15.665Z</time></trkpt><trkpt lat="42.2003146" lon="13.7438772"><ele>1051.0</ele><time>2026-05-02T11:12:16.638Z</time></trkpt><trkpt lat="42.2003863" lon="13.7437772"><ele>1051.0</ele><time>2026-05-02T11:12:17.643Z</time></trkpt><trkpt lat="42.2004453" lon="13.7436244"><ele>1051.0</ele><time>2026-05-02T11:12:18.636Z</time></trkpt><trkpt lat="42.2005091" lon="13.7434492"><ele>1051.0</ele><time>2026-05-02T11:12:19.635Z</time></trkpt><trkpt lat="42.2005941" lon="13.7432677"><ele>1052.25</ele><time>2026-05-02T11:12:20.652Z</time></trkpt><trkpt lat="42.2006656" lon="13.7430849"><ele>1053.5</ele><time>2026-05-02T11:12:21.634Z</time></trkpt><trkpt lat="42.2007313" lon="13.7429247"><ele>1054.75</ele><time>2026-05-02T11:12:22.655Z</time></trkpt><trkpt lat="42.2008028" lon="13.7427819"><ele>1056.0</ele><time>2026-05-02T11:12:23.637Z</time></trkpt><trkpt lat="42.2008992" lon="13.7426435"><ele>1051.5</ele><time>2026-05-02T11:12:24.636Z</time></trkpt><trkpt lat="42.2009851" lon="13.7425032"><ele>1047.0</ele><time>2026-05-02T11:12:25.642Z</time></trkpt><trkpt lat="42.2010645" lon="13.7423715"><ele>1042.5</ele><time>2026-05-02T11:12:26.638Z</time></trkpt><trkpt lat="42.2011549" lon="13.7422511"><ele>1038.0</ele><time>2026-05-02T11:12:27.653Z</time></trkpt><trkpt lat="42.2012513" lon="13.7421456"><ele>1038.0</ele><time>2026-05-02T11:12:28.633Z</time></trkpt><trkpt lat="42.2013309" lon="13.7420492"><ele>1038.0</ele><time>2026-05-02T11:12:29.642Z</time></trkpt><trkpt lat="42.2013903" lon="13.7419729"><ele>1038.0</ele><time>2026-05-02T11:12:30.641Z</time></trkpt><trkpt lat="42.2014697" lon="13.7418754"><ele>1038.0</ele><time>2026-05-02T11:12:32.635Z</time></trkpt><trkpt lat="42.2015493" lon="13.7417891"><ele>1038.0</ele><time>2026-05-02T11:12:34.642Z</time></trkpt><trkpt lat="42.2016356" lon="13.7416813"><ele>1035.2</ele><time>2026-05-02T11:12:36.645Z</time></trkpt><trkpt lat="42.201712" lon="13.7415741"><ele>1032.4</ele><time>2026-05-02T11:12:38.664Z</time></trkpt><trkpt lat="42.2017576" lon="13.7415114"><ele>1029.6000000000001</ele><time>2026-05-02T11:12:39.638Z</time></trkpt><trkpt lat="42.2018417" lon="13.7414137"><ele>1026.8</ele><time>2026-05-02T11:12:41.633Z</time></trkpt><trkpt lat="42.2019514" lon="13.7413387"><ele>1024.0</ele><time>2026-05-02T11:12:43.646Z</time></trkpt><trkpt lat="42.2020843" lon="13.7413149"><ele>1024.0</ele><time>2026-05-02T11:12:45.644Z</time></trkpt><trkpt lat="42.20217" lon="13.7413048"><ele>1024.0</ele><time>2026-05-02T11:12:46.645Z</time></trkpt><trkpt lat="42.2022583" lon="13.7412878"><ele>1024.0</ele><time>2026-05-02T11:12:47.64Z</time></trkpt><trkpt lat="42.2023647" lon="13.7412702"><ele>1024.0</ele><time>2026-05-02T11:12:48.649Z</time></trkpt><trkpt lat="42.2024858" lon="13.741242"><ele>1024.0</ele><time>2026-05-02T11:12:49.636Z</time></trkpt><trkpt lat="42.2026181" lon="13.7412032"><ele>1024.2</ele><time>2026-05-02T11:12:50.64Z</time></trkpt><trkpt lat="42.202722" lon="13.7411766"><ele>1024.4</ele><time>2026-05-02T11:12:51.633Z</time></trkpt><trkpt lat="42.2028089" lon="13.7411325"><ele>1024.6</ele><time>2026-05-02T11:12:52.653Z</time></trkpt><trkpt lat="42.2029061" lon="13.7410785"><ele>1024.8</ele><time>2026-05-02T11:12:53.641Z</time></trkpt><trkpt lat="42.2029955" lon="13.7410438"><ele>1025.0</ele><time>2026-05-02T11:12:54.659Z</time></trkpt><trkpt lat="42.2030817" lon="13.7410193"><ele>1021.8333333333334</ele><time>2026-05-02T11:12:55.654Z</time></trkpt><trkpt lat="42.2031679" lon="13.7409939"><ele>1018.6666666666667</ele><time>2026-05-02T11:12:56.64Z</time></trkpt><trkpt lat="42.2032508" lon="13.7409706"><ele>1015.5</ele><time>2026-05-02T11:12:57.666Z</time></trkpt><trkpt lat="42.2033311" lon="13.7409471"><ele>1012.3333333333333</ele><time>2026-05-02T11:12:58.643Z</time></trkpt><trkpt lat="42.203407" lon="13.7409224"><ele>1009.1666666666666</ele><time>2026-05-02T11:12:59.656Z</time></trkpt><trkpt lat="42.203475" lon="13.7409059"><ele>1006.0</ele><time>2026-05-02T11:13:00.655Z</time></trkpt><trkpt lat="42.2035735" lon="13.7408435"><ele>1005.9999999999999</ele><time>2026-05-02T11:13:02.635Z</time></trkpt><trkpt lat="42.2036351" lon="13.7407395"><ele>1006.0</ele><time>2026-05-02T11:13:04.657Z</time></trkpt><trkpt lat="42.2036926" lon="13.7406336"><ele>1006.0</ele><time>2026-05-02T11:13:06.664Z</time></trkpt><trkpt lat="42.2037442" lon="13.740562"><ele>1006.0</ele><time>2026-05-02T11:13:07.646Z</time></trkpt><trkpt lat="42.2037752" lon="13.7404782"><ele>1005.9999999999999</ele><time>2026-05-02T11:13:08.642Z</time></trkpt><trkpt lat="42.2038085" lon="13.7403812"><ele>1006.0</ele><time>2026-05-02T11:13:09.654Z</time></trkpt><trkpt lat="42.2038579" lon="13.7403016"><ele>1006.0</ele><time>2026-05-02T11:13:10.64Z</time></trkpt><trkpt lat="42.2039106" lon="13.7402411"><ele>1005.9999999999999</ele><time>2026-05-02T11:13:11.664Z</time></trkpt><trkpt lat="42.203976" lon="13.7401657"><ele>1005.9999999999999</ele><time>2026-05-02T11:13:12.648Z</time></trkpt><trkpt lat="42.2040507" lon="13.740095"><ele>1006.0</ele><time>2026-05-02T11:13:13.655Z</time></trkpt><trkpt lat="42.2041239" lon="13.7400199"><ele>1006.0</ele><time>2026-05-02T11:13:14.646Z</time></trkpt><trkpt lat="42.2042072" lon="13.7399199"><ele>1004.8</ele><time>2026-05-02T11:13:15.636Z</time></trkpt><trkpt lat="42.2042779" lon="13.7398309"><ele>1003.5999999999999</ele><time>2026-05-02T11:13:16.649Z</time></trkpt><trkpt lat="42.2043539" lon="13.7397698"><ele>1002.4</ele><time>2026-05-02T11:13:17.645Z</time></trkpt><trkpt lat="42.2044403" lon="13.7397235"><ele>1001.2</ele><time>2026-05-02T11:13:18.66Z</time></trkpt><trkpt lat="42.2045292" lon="13.7396785"><ele>1000.0</ele><time>2026-05-02T11:13:19.639Z</time></trkpt><trkpt lat="42.2046348" lon="13.7396364"><ele>1000.0</ele><time>2026-05-02T11:13:20.639Z</time></trkpt><trkpt lat="42.204736" lon="13.7395939"><ele>1000.0</ele><time>2026-05-02T11:13:21.647Z</time></trkpt><trkpt lat="42.2048316" lon="13.7395231"><ele>1000.0</ele><time>2026-05-02T11:13:22.656Z</time></trkpt><trkpt lat="42.2049248" lon="13.7394313"><ele>1000.0</ele><time>2026-05-02T11:13:23.634Z</time></trkpt><trkpt lat="42.2049972" lon="13.739326"><ele>1000.0</ele><time>2026-05-02T11:13:24.64Z</time></trkpt><trkpt lat="42.2050709" lon="13.7392124"><ele>997.8</ele><time>2026-05-02T11:13:25.647Z</time></trkpt><trkpt lat="42.2051481" lon="13.7391171"><ele>995.6</ele><time>2026-05-02T11:13:26.654Z</time></trkpt><trkpt lat="42.2052495" lon="13.7390528"><ele>993.4000000000001</ele><time>2026-05-02T11:13:27.657Z</time></trkpt><trkpt lat="42.2053426" lon="13.7390114"><ele>991.2</ele><time>2026-05-02T11:13:28.64Z</time></trkpt><trkpt lat="42.205449" lon="13.7389885"><ele>989.0</ele><time>2026-05-02T11:13:29.649Z</time></trkpt><trkpt lat="42.2055646" lon="13.7389637"><ele>987.25</ele><time>2026-05-02T11:13:30.647Z</time></trkpt><trkpt lat="42.2056919" lon="13.7389273"><ele>985.5</ele><time>2026-05-02T11:13:31.662Z</time></trkpt><trkpt lat="42.205818" lon="13.7388876"><ele>983.75</ele><time>2026-05-02T11:13:32.644Z</time></trkpt><trkpt lat="42.2059336" lon="13.7388262"><ele>982.0</ele><time>2026-05-02T11:13:33.652Z</time></trkpt><trkpt lat="42.2060347" lon="13.7387466"><ele>982.0</ele><time>2026-05-02T11:13:34.653Z</time></trkpt><trkpt lat="42.2061478" lon="13.7386772"><ele>982.0</ele><time>2026-05-02T11:13:35.649Z</time></trkpt><trkpt lat="42.206246" lon="13.7386642"><ele>982.0</ele><time>2026-05-02T11:13:36.64Z</time></trkpt><trkpt lat="42.2063352" lon="13.7386834"><ele>982.0</ele><time>2026-05-02T11:13:37.643Z</time></trkpt><trkpt lat="42.2064607" lon="13.7387411"><ele>982.0</ele><time>2026-05-02T11:13:38.637Z</time></trkpt><trkpt lat="42.2066001" lon="13.7387867"><ele>982.0</ele><time>2026-05-02T11:13:39.641Z</time></trkpt><trkpt lat="42.2067366" lon="13.7388114"><ele>982.0</ele><time>2026-05-02T11:13:40.66Z</time></trkpt><trkpt lat="42.206878" lon="13.7388251"><ele>982.0</ele><time>2026-05-02T11:13:41.642Z</time></trkpt><trkpt lat="42.2069985" lon="13.7388393"><ele>982.0</ele><time>2026-05-02T11:13:42.64Z</time></trkpt><trkpt lat="42.2070986" lon="13.7388217"><ele>982.0</ele><time>2026-05-02T11:13:43.646Z</time></trkpt><trkpt lat="42.2071923" lon="13.7387721"><ele>982.0</ele><time>2026-05-02T11:13:44.643Z</time></trkpt><trkpt lat="42.207298" lon="13.7386888"><ele>982.0</ele><time>2026-05-02T11:13:45.647Z</time></trkpt><trkpt lat="42.2074177" lon="13.7385816"><ele>982.0</ele><time>2026-05-02T11:13:46.64Z</time></trkpt><trkpt lat="42.207535" lon="13.7384479"><ele>984.75</ele><time>2026-05-02T11:13:47.659Z</time></trkpt><trkpt lat="42.2076393" lon="13.738298"><ele>987.5</ele><time>2026-05-02T11:13:48.661Z</time></trkpt><trkpt lat="42.2077319" lon="13.7381568"><ele>990.25</ele><time>2026-05-02T11:13:49.647Z</time></trkpt><trkpt lat="42.2078249" lon="13.7380451"><ele>993.0</ele><time>2026-05-02T11:13:50.649Z</time></trkpt><trkpt lat="42.2079612" lon="13.7379471"><ele>993.0</ele><time>2026-05-02T11:13:51.64Z</time></trkpt><trkpt lat="42.20811" lon="13.7378284"><ele>993.0</ele><time>2026-05-02T11:13:52.669Z</time></trkpt><trkpt lat="42.2082599" lon="13.7377178"><ele>993.0</ele><time>2026-05-02T11:13:53.635Z</time></trkpt><trkpt lat="42.2084079" lon="13.7376096"><ele>994.3333333333333</ele><time>2026-05-02T11:13:54.636Z</time></trkpt><trkpt lat="42.2085597" lon="13.7375231"><ele>995.6666666666666</ele><time>2026-05-02T11:13:55.642Z</time></trkpt><trkpt lat="42.2087264" lon="13.7374425"><ele>997.0</ele><time>2026-05-02T11:13:56.651Z</time></trkpt><trkpt lat="42.2089029" lon="13.7373552"><ele>993.5</ele><time>2026-05-02T11:13:57.647Z</time></trkpt><trkpt lat="42.2090609" lon="13.7372788"><ele>990.0</ele><time>2026-05-02T11:13:58.635Z</time></trkpt><trkpt lat="42.2091875" lon="13.7372176"><ele>986.5</ele><time>2026-05-02T11:13:59.644Z</time></trkpt><trkpt lat="42.209303" lon="13.7371683"><ele>983.0</ele><time>2026-05-02T11:14:00.644Z</time></trkpt><trkpt lat="42.2094147" lon="13.7371106"><ele>983.0</ele><time>2026-05-02T11:14:01.643Z</time></trkpt><trkpt lat="42.2095079" lon="13.7370575"><ele>983.0</ele><time>2026-05-02T11:14:02.656Z</time></trkpt><trkpt lat="42.2095693" lon="13.7370125"><ele>983.0</ele><time>2026-05-02T11:14:03.645Z</time></trkpt><trkpt lat="42.2096602" lon="13.7368823"><ele>983.0</ele><time>2026-05-02T11:14:05.636Z</time></trkpt><trkpt lat="42.2097454" lon="13.7367818"><ele>983.0</ele><time>2026-05-02T11:14:06.634Z</time></trkpt><trkpt lat="42.2098798" lon="13.7366443"><ele>983.25</ele><time>2026-05-02T11:14:07.646Z</time></trkpt><trkpt lat="42.2100069" lon="13.7365119"><ele>983.5</ele><time>2026-05-02T11:14:08.642Z</time></trkpt><trkpt lat="42.2101169" lon="13.7363917"><ele>983.75</ele><time>2026-05-02T11:14:09.641Z</time></trkpt><trkpt lat="42.2102218" lon="13.7363045"><ele>984.0</ele><time>2026-05-02T11:14:10.648Z</time></trkpt><trkpt lat="42.2103144" lon="13.7362457"><ele>984.0</ele><time>2026-05-02T11:14:11.646Z</time></trkpt><trkpt lat="42.2104128" lon="13.7361963"><ele>984.0</ele><time>2026-05-02T11:14:13.646Z</time></trkpt><trkpt lat="42.2104755" lon="13.7361656"><ele>984.0</ele><time>2026-05-02T11:14:16.645Z</time></trkpt><trkpt lat="42.2104231" lon="13.7361057"><ele>984.0</ele><time>2026-05-02T11:15:35.646Z</time></trkpt><trkpt lat="42.2103507" lon="13.7360675"><ele>984.0</ele><time>2026-05-02T11:21:25.668Z</time></trkpt><trkpt lat="42.2102804" lon="13.7360138"><ele>984.0</ele><time>2026-05-02T11:21:27.647Z</time></trkpt><trkpt lat="42.2101503" lon="13.7359344"><ele>985.4000000000001</ele><time>2026-05-02T11:21:29.646Z</time></trkpt><trkpt lat="42.2100624" lon="13.735872"><ele>986.8000000000001</ele><time>2026-05-02T11:21:30.661Z</time></trkpt><trkpt lat="42.2099639" lon="13.7358154"><ele>988.1999999999999</ele><time>2026-05-02T11:21:31.642Z</time></trkpt><trkpt lat="42.2098627" lon="13.735738"><ele>989.5999999999999</ele><time>2026-05-02T11:21:32.64Z</time></trkpt><trkpt lat="42.2097577" lon="13.7356453"><ele>991.0</ele><time>2026-05-02T11:21:33.642Z</time></trkpt><trkpt lat="42.2096566" lon="13.7355344"><ele>995.0</ele><time>2026-05-02T11:21:34.651Z</time></trkpt><trkpt lat="42.2095584" lon="13.7354108"><ele>999.0</ele><time>2026-05-02T11:21:35.647Z</time></trkpt><trkpt lat="42.2094619" lon="13.7352804"><ele>1003.0</ele><time>2026-05-02T11:21:36.661Z</time></trkpt><trkpt lat="42.209373" lon="13.735174"><ele>1007.0</ele><time>2026-05-02T11:21:37.64Z</time></trkpt><trkpt lat="42.2092948" lon="13.7351014"><ele>1007.0</ele><time>2026-05-02T11:21:38.644Z</time></trkpt><trkpt lat="42.2091937" lon="13.7350601"><ele>1007.0</ele><time>2026-05-02T11:21:39.644Z</time></trkpt><trkpt lat="42.2090863" lon="13.7350397"><ele>1007.0</ele><time>2026-05-02T11:21:40.635Z</time></trkpt><trkpt lat="42.2089698" lon="13.7350287"><ele>1007.0</ele><time>2026-05-02T11:21:41.647Z</time></trkpt><trkpt lat="42.2088355" lon="13.735024"><ele>1014.3333333333334</ele><time>2026-05-02T11:21:42.639Z</time></trkpt><trkpt lat="42.2086864" lon="13.7350384"><ele>1021.6666666666667</ele><time>2026-05-02T11:21:43.657Z</time></trkpt><trkpt lat="42.2085334" lon="13.7350926"><ele>1029.0</ele><time>2026-05-02T11:21:44.64Z</time></trkpt><trkpt lat="42.2084026" lon="13.7351791"><ele>1028.25</ele><time>2026-05-02T11:21:45.658Z</time></trkpt><trkpt lat="42.2082928" lon="13.7352801"><ele>1027.5</ele><time>2026-05-02T11:21:46.651Z</time></trkpt><trkpt lat="42.2082024" lon="13.7354016"><ele>1026.75</ele><time>2026-05-02T11:21:47.646Z</time></trkpt><trkpt lat="42.2081268" lon="13.7355552"><ele>1026.0</ele><time>2026-05-02T11:21:48.641Z</time></trkpt><trkpt lat="42.2080645" lon="13.7357179"><ele>1030.6666666666667</ele><time>2026-05-02T11:21:49.64Z</time></trkpt><trkpt lat="42.2080049" lon="13.7359003"><ele>1035.3333333333335</ele><time>2026-05-02T11:21:50.65Z</time></trkpt><trkpt lat="42.207937" lon="13.7360773"><ele>1040.0</ele><time>2026-05-02T11:21:51.645Z</time></trkpt><trkpt lat="42.2078479" lon="13.7362621"><ele>1040.0</ele><time>2026-05-02T11:21:52.651Z</time></trkpt><trkpt lat="42.2077411" lon="13.7364394"><ele>1040.0</ele><time>2026-05-02T11:21:53.646Z</time></trkpt><trkpt lat="42.2076421" lon="13.7366052"><ele>1040.0</ele><time>2026-05-02T11:21:54.659Z</time></trkpt><trkpt lat="42.2075325" lon="13.736744"><ele>1040.0</ele><time>2026-05-02T11:21:55.645Z</time></trkpt><trkpt lat="42.2074247" lon="13.7368607"><ele>1040.0</ele><time>2026-05-02T11:21:56.646Z</time></trkpt><trkpt lat="42.2073252" lon="13.7369307"><ele>1040.0</ele><time>2026-05-02T11:21:57.652Z</time></trkpt><trkpt lat="42.2072445" lon="13.7369707"><ele>1040.0</ele><time>2026-05-02T11:21:58.653Z</time></trkpt><trkpt lat="42.2071232" lon="13.7369451"><ele>1040.2</ele><time>2026-05-02T11:22:00.63Z</time></trkpt><trkpt lat="42.2070729" lon="13.7368939"><ele>1040.4</ele><time>2026-05-02T11:22:01.641Z</time></trkpt><trkpt lat="42.2070332" lon="13.7368025"><ele>1040.6</ele><time>2026-05-02T11:22:02.65Z</time></trkpt><trkpt lat="42.207002" lon="13.736687"><ele>1040.8</ele><time>2026-05-02T11:22:03.631Z</time></trkpt><trkpt lat="42.2069544" lon="13.7365369"><ele>1041.0</ele><time>2026-05-02T11:22:04.647Z</time></trkpt><trkpt lat="42.2069072" lon="13.7363452"><ele>1041.0</ele><time>2026-05-02T11:22:05.641Z</time></trkpt><trkpt lat="42.2068647" lon="13.736146"><ele>1041.0</ele><time>2026-05-02T11:22:06.645Z</time></trkpt><trkpt lat="42.2068293" lon="13.7359603"><ele>1041.0</ele><time>2026-05-02T11:22:07.656Z</time></trkpt><trkpt lat="42.2068149" lon="13.7357805"><ele>1041.0</ele><time>2026-05-02T11:22:08.635Z</time></trkpt><trkpt lat="42.2068109" lon="13.7356157"><ele>1043.3999999999999</ele><time>2026-05-02T11:22:09.657Z</time></trkpt><trkpt lat="42.2068026" lon="13.7354901"><ele>1045.8</ele><time>2026-05-02T11:22:10.636Z</time></trkpt><trkpt lat="42.2067688" lon="13.7353763"><ele>1048.1999999999998</ele><time>2026-05-02T11:22:11.636Z</time></trkpt><trkpt lat="42.2067163" lon="13.7352526"><ele>1050.6</ele><time>2026-05-02T11:22:12.648Z</time></trkpt><trkpt lat="42.2066504" lon="13.7351009"><ele>1053.0</ele><time>2026-05-02T11:22:13.643Z</time></trkpt><trkpt lat="42.2066089" lon="13.734906"><ele>1057.0</ele><time>2026-05-02T11:22:14.654Z</time></trkpt><trkpt lat="42.2065854" lon="13.7347091"><ele>1061.0</ele><time>2026-05-02T11:22:15.65Z</time></trkpt><trkpt lat="42.2065907" lon="13.7344968"><ele>1065.0</ele><time>2026-05-02T11:22:16.641Z</time></trkpt><trkpt lat="42.2066044" lon="13.7342731"><ele>1067.3333333333333</ele><time>2026-05-02T11:22:17.641Z</time></trkpt><trkpt lat="42.2066337" lon="13.7340316"><ele>1069.6666666666665</ele><time>2026-05-02T11:22:18.636Z</time></trkpt><trkpt lat="42.2066633" lon="13.7338229"><ele>1072.0</ele><time>2026-05-02T11:22:19.652Z</time></trkpt><trkpt lat="42.2066717" lon="13.733643"><ele>1074.0</ele><time>2026-05-02T11:22:20.657Z</time></trkpt><trkpt lat="42.2066538" lon="13.7334567"><ele>1076.0</ele><time>2026-05-02T11:22:21.644Z</time></trkpt><trkpt lat="42.2066074" lon="13.7332656"><ele>1078.0</ele><time>2026-05-02T11:22:22.645Z</time></trkpt><trkpt lat="42.2065523" lon="13.733071"><ele>1080.0</ele><time>2026-05-02T11:22:23.646Z</time></trkpt><trkpt lat="42.2064856" lon="13.7328957"><ele>1082.0</ele><time>2026-05-02T11:22:24.642Z</time></trkpt><trkpt lat="42.2064119" lon="13.7327559"><ele>1084.0</ele><time>2026-05-02T11:22:25.637Z</time></trkpt><trkpt lat="42.2063185" lon="13.7326496"><ele>1086.0</ele><time>2026-05-02T11:22:26.646Z</time></trkpt><trkpt lat="42.2062253" lon="13.7325507"><ele>1088.0</ele><time>2026-05-02T11:22:27.66Z</time></trkpt><trkpt lat="42.2061506" lon="13.7324252"><ele>1089.75</ele><time>2026-05-02T11:22:28.645Z</time></trkpt><trkpt lat="42.2061189" lon="13.7322849"><ele>1091.5</ele><time>2026-05-02T11:22:29.666Z</time></trkpt><trkpt lat="42.2061097" lon="13.7321067"><ele>1093.25</ele><time>2026-05-02T11:22:30.648Z</time></trkpt><trkpt lat="42.2061033" lon="13.7319055"><ele>1095.0</ele><time>2026-05-02T11:22:31.65Z</time></trkpt><trkpt lat="42.2061048" lon="13.7316639"><ele>1099.3333333333333</ele><time>2026-05-02T11:22:32.649Z</time></trkpt><trkpt lat="42.2060789" lon="13.7314214"><ele>1103.6666666666665</ele><time>2026-05-02T11:22:33.65Z</time></trkpt><trkpt lat="42.2060247" lon="13.7312279"><ele>1108.0</ele><time>2026-05-02T11:22:34.671Z</time></trkpt><trkpt lat="42.2059509" lon="13.7310763"><ele>1110.75</ele><time>2026-05-02T11:22:35.636Z</time></trkpt><trkpt lat="42.2058827" lon="13.7309138"><ele>1113.5</ele><time>2026-05-02T11:22:36.659Z</time></trkpt><trkpt lat="42.2058237" lon="13.730744"><ele>1116.25</ele><time>2026-05-02T11:22:37.648Z</time></trkpt><trkpt lat="42.2057714" lon="13.7305865"><ele>1119.0</ele><time>2026-05-02T11:22:38.641Z</time></trkpt><trkpt lat="42.2057351" lon="13.7304488"><ele>1119.0</ele><time>2026-05-02T11:22:39.634Z</time></trkpt><trkpt lat="42.2056835" lon="13.7303362"><ele>1119.0</ele><time>2026-05-02T11:22:40.65Z</time></trkpt><trkpt lat="42.2056192" lon="13.730209"><ele>1119.0</ele><time>2026-05-02T11:22:41.644Z</time></trkpt><trkpt lat="42.2055644" lon="13.7300619"><ele>1119.0</ele><time>2026-05-02T11:22:42.642Z</time></trkpt><trkpt lat="42.2055166" lon="13.729935"><ele>1119.0</ele><time>2026-05-02T11:22:43.651Z</time></trkpt><trkpt lat="42.2054519" lon="13.7298189"><ele>1121.5</ele><time>2026-05-02T11:22:44.65Z</time></trkpt><trkpt lat="42.2053804" lon="13.7297041"><ele>1124.0</ele><time>2026-05-02T11:22:45.648Z</time></trkpt><trkpt lat="42.2052993" lon="13.729574"><ele>1126.5</ele><time>2026-05-02T11:22:46.647Z</time></trkpt><trkpt lat="42.2052014" lon="13.7294245"><ele>1129.0</ele><time>2026-05-02T11:22:47.646Z</time></trkpt><trkpt lat="42.2051085" lon="13.7292823"><ele>1129.0</ele><time>2026-05-02T11:22:48.659Z</time></trkpt><trkpt lat="42.2050224" lon="13.7291572"><ele>1129.0</ele><time>2026-05-02T11:22:49.645Z</time></trkpt><trkpt lat="42.204946" lon="13.7290623"><ele>1129.0</ele><time>2026-05-02T11:22:50.639Z</time></trkpt><trkpt lat="42.2048711" lon="13.7289988"><ele>1129.0</ele><time>2026-05-02T11:22:51.643Z</time></trkpt><trkpt lat="42.2047855" lon="13.7289412"><ele>1129.0</ele><time>2026-05-02T11:22:53.662Z</time></trkpt><trkpt lat="42.2047138" lon="13.7289059"><ele>1130.2</ele><time>2026-05-02T11:23:37.659Z</time></trkpt><trkpt lat="42.2046446" lon="13.7288816"><ele>1131.4</ele><time>2026-05-02T11:23:39.664Z</time></trkpt><trkpt lat="42.2045202" lon="13.728822"><ele>1132.6</ele><time>2026-05-02T11:23:41.639Z</time></trkpt><trkpt lat="42.204424" lon="13.72878"><ele>1133.8</ele><time>2026-05-02T11:23:42.674Z</time></trkpt><trkpt lat="42.2043239" lon="13.7287288"><ele>1135.0</ele><time>2026-05-02T11:23:43.651Z</time></trkpt><trkpt lat="42.2042387" lon="13.7286678"><ele>1135.0</ele><time>2026-05-02T11:23:44.648Z</time></trkpt><trkpt lat="42.2041626" lon="13.7286065"><ele>1135.0</ele><time>2026-05-02T11:23:45.643Z</time></trkpt><trkpt lat="42.2040803" lon="13.7285411"><ele>1135.0</ele><time>2026-05-02T11:23:46.645Z</time></trkpt><trkpt lat="42.2040019" lon="13.7284789"><ele>1135.0</ele><time>2026-05-02T11:23:47.66Z</time></trkpt><trkpt lat="42.2039305" lon="13.7284115"><ele>1135.0</ele><time>2026-05-02T11:23:48.652Z</time></trkpt><trkpt lat="42.2038582" lon="13.7283814"><ele>1135.0</ele><time>2026-05-02T11:23:49.654Z</time></trkpt><trkpt lat="42.2037857" lon="13.7283838"><ele>1134.0</ele><time>2026-05-02T11:23:50.652Z</time></trkpt><trkpt lat="42.2036865" lon="13.7284144"><ele>1133.0</ele><time>2026-05-02T11:23:51.639Z</time></trkpt><trkpt lat="42.2035729" lon="13.7284571"><ele>1132.0</ele><time>2026-05-02T11:23:52.647Z</time></trkpt><trkpt lat="42.2034504" lon="13.7285034"><ele>1131.0</ele><time>2026-05-02T11:23:53.641Z</time></trkpt><trkpt lat="42.2033262" lon="13.7285473"><ele>1132.75</ele><time>2026-05-02T11:23:54.639Z</time></trkpt><trkpt lat="42.2032037" lon="13.7285718"><ele>1134.5</ele><time>2026-05-02T11:23:55.635Z</time></trkpt><trkpt lat="42.20306" lon="13.7285636"><ele>1136.25</ele><time>2026-05-02T11:23:56.645Z</time></trkpt><trkpt lat="42.2028868" lon="13.7285676"><ele>1138.0</ele><time>2026-05-02T11:23:57.649Z</time></trkpt><trkpt lat="42.2026962" lon="13.7285841"><ele>1137.6666666666665</ele><time>2026-05-02T11:23:58.645Z</time></trkpt><trkpt lat="42.2025156" lon="13.7285945"><ele>1137.3333333333333</ele><time>2026-05-02T11:23:59.652Z</time></trkpt><trkpt lat="42.2023646" lon="13.728586"><ele>1137.0</ele><time>2026-05-02T11:24:00.64Z</time></trkpt><trkpt lat="42.2022113" lon="13.7285558"><ele>1137.0</ele><time>2026-05-02T11:24:01.662Z</time></trkpt><trkpt lat="42.2020614" lon="13.7284992"><ele>1137.0</ele><time>2026-05-02T11:24:02.654Z</time></trkpt><trkpt lat="42.2019292" lon="13.7284627"><ele>1137.0</ele><time>2026-05-02T11:24:03.639Z</time></trkpt><trkpt lat="42.2017998" lon="13.7284626"><ele>1137.0</ele><time>2026-05-02T11:24:04.64Z</time></trkpt><trkpt lat="42.2016415" lon="13.7284839"><ele>1138.3333333333333</ele><time>2026-05-02T11:24:05.644Z</time></trkpt><trkpt lat="42.2014635" lon="13.728514"><ele>1139.6666666666665</ele><time>2026-05-02T11:24:06.651Z</time></trkpt><trkpt lat="42.201309" lon="13.7285479"><ele>1141.0</ele><time>2026-05-02T11:24:07.645Z</time></trkpt><trkpt lat="42.2011914" lon="13.7285684"><ele>1141.0</ele><time>2026-05-02T11:24:08.642Z</time></trkpt><trkpt lat="42.2010631" lon="13.7285741"><ele>1141.0</ele><time>2026-05-02T11:24:09.643Z</time></trkpt><trkpt lat="42.2009327" lon="13.7285616"><ele>1141.0</ele><time>2026-05-02T11:24:10.643Z</time></trkpt><trkpt lat="42.2008164" lon="13.7285506"><ele>1141.0</ele><time>2026-05-02T11:24:11.64Z</time></trkpt><trkpt lat="42.2007228" lon="13.7285377"><ele>1136.25</ele><time>2026-05-02T11:24:12.664Z</time></trkpt><trkpt lat="42.2006514" lon="13.7284931"><ele>1131.5</ele><time>2026-05-02T11:24:13.647Z</time></trkpt><trkpt lat="42.2005544" lon="13.7284203"><ele>1126.75</ele><time>2026-05-02T11:24:14.641Z</time></trkpt><trkpt lat="42.2004366" lon="13.7283151"><ele>1122.0</ele><time>2026-05-02T11:24:15.651Z</time></trkpt><trkpt lat="42.2003442" lon="13.7281916"><ele>1122.0</ele><time>2026-05-02T11:24:16.644Z</time></trkpt><trkpt lat="42.200274" lon="13.7280395"><ele>1122.0</ele><time>2026-05-02T11:24:17.642Z</time></trkpt><trkpt lat="42.2002163" lon="13.7279029"><ele>1122.0</ele><time>2026-05-02T11:24:18.645Z</time></trkpt><trkpt lat="42.2001673" lon="13.7278155"><ele>1122.0</ele><time>2026-05-02T11:24:19.65Z</time></trkpt><trkpt lat="42.2000931" lon="13.7277348"><ele>1122.0</ele><time>2026-05-02T11:24:20.643Z</time></trkpt><trkpt lat="42.1999939" lon="13.7276478"><ele>1119.5</ele><time>2026-05-02T11:24:21.634Z</time></trkpt><trkpt lat="42.1998671" lon="13.7275472"><ele>1117.0</ele><time>2026-05-02T11:24:22.647Z</time></trkpt><trkpt lat="42.1997613" lon="13.7274616"><ele>1114.5</ele><time>2026-05-02T11:24:23.654Z</time></trkpt><trkpt lat="42.1996833" lon="13.7273982"><ele>1112.0</ele><time>2026-05-02T11:24:24.651Z</time></trkpt><trkpt lat="42.1996072" lon="13.7273085"><ele>1111.2</ele><time>2026-05-02T11:24:25.64Z</time></trkpt><trkpt lat="42.1995401" lon="13.7272022"><ele>1110.4</ele><time>2026-05-02T11:24:26.644Z</time></trkpt><trkpt lat="42.1994675" lon="13.7271194"><ele>1109.6</ele><time>2026-05-02T11:24:27.638Z</time></trkpt><trkpt lat="42.1993621" lon="13.7270431"><ele>1108.8</ele><time>2026-05-02T11:24:29.647Z</time></trkpt><trkpt lat="42.1992569" lon="13.7270077"><ele>1108.0</ele><time>2026-05-02T11:24:30.641Z</time></trkpt><trkpt lat="42.1991431" lon="13.7269848"><ele>1108.0</ele><time>2026-05-02T11:24:31.656Z</time></trkpt><trkpt lat="42.1990325" lon="13.7269924"><ele>1108.0</ele><time>2026-05-02T11:24:32.643Z</time></trkpt><trkpt lat="42.1989441" lon="13.7270075"><ele>1108.0</ele><time>2026-05-02T11:24:33.659Z</time></trkpt><trkpt lat="42.1988628" lon="13.7270117"><ele>1108.0</ele><time>2026-05-02T11:24:34.637Z</time></trkpt><trkpt lat="42.1987897" lon="13.7270073"><ele>1108.0</ele><time>2026-05-02T11:24:35.642Z</time></trkpt><trkpt lat="42.1987007" lon="13.7269534"><ele>1104.75</ele><time>2026-05-02T11:24:36.647Z</time></trkpt><trkpt lat="42.1985842" lon="13.726856"><ele>1101.5</ele><time>2026-05-02T11:24:37.641Z</time></trkpt><trkpt lat="42.1984662" lon="13.7267705"><ele>1098.25</ele><time>2026-05-02T11:24:38.648Z</time></trkpt><trkpt lat="42.1983477" lon="13.7266936"><ele>1095.0</ele><time>2026-05-02T11:24:39.65Z</time></trkpt><trkpt lat="42.1982459" lon="13.7266335"><ele>1094.142857142857</ele><time>2026-05-02T11:24:40.675Z</time></trkpt><trkpt lat="42.1981677" lon="13.7265975"><ele>1093.2857142857142</ele><time>2026-05-02T11:24:41.647Z</time></trkpt><trkpt lat="42.1981012" lon="13.7265703"><ele>1092.4285714285716</ele><time>2026-05-02T11:24:42.659Z</time></trkpt><trkpt lat="42.1980434" lon="13.7265351"><ele>1091.5714285714284</ele><time>2026-05-02T11:24:43.646Z</time></trkpt><trkpt lat="42.1979921" lon="13.7264648"><ele>1090.7142857142858</ele><time>2026-05-02T11:24:44.646Z</time></trkpt><trkpt lat="42.1979481" lon="13.7263944"><ele>1089.857142857143</ele><time>2026-05-02T11:24:45.646Z</time></trkpt><trkpt lat="42.197865" lon="13.7263446"><ele>1089.0</ele><time>2026-05-02T11:24:47.636Z</time></trkpt><trkpt lat="42.1977548" lon="13.7263973"><ele>1089.0</ele><time>2026-05-02T11:24:49.643Z</time></trkpt><trkpt lat="42.1976901" lon="13.7264885"><ele>1089.0</ele><time>2026-05-02T11:24:50.647Z</time></trkpt><trkpt lat="42.197645" lon="13.7266269"><ele>1089.0</ele><time>2026-05-02T11:24:51.632Z</time></trkpt><trkpt lat="42.1976101" lon="13.7267648"><ele>1089.0</ele><time>2026-05-02T11:24:52.663Z</time></trkpt><trkpt lat="42.1975527" lon="13.7268531"><ele>1089.0</ele><time>2026-05-02T11:24:53.648Z</time></trkpt><trkpt lat="42.197467" lon="13.7269085"><ele>1090.3333333333333</ele><time>2026-05-02T11:24:54.655Z</time></trkpt><trkpt lat="42.1973471" lon="13.7269718"><ele>1091.6666666666665</ele><time>2026-05-02T11:24:55.646Z</time></trkpt><trkpt lat="42.1972021" lon="13.7270251"><ele>1093.0</ele><time>2026-05-02T11:24:56.653Z</time></trkpt><trkpt lat="42.1970356" lon="13.7270774"><ele>1089.6666666666665</ele><time>2026-05-02T11:24:57.642Z</time></trkpt><trkpt lat="42.1968613" lon="13.7271448"><ele>1086.3333333333333</ele><time>2026-05-02T11:24:58.661Z</time></trkpt><trkpt lat="42.1967085" lon="13.7272002"><ele>1083.0</ele><time>2026-05-02T11:24:59.649Z</time></trkpt><trkpt lat="42.1965916" lon="13.7272499"><ele>1083.0</ele><time>2026-05-02T11:25:00.654Z</time></trkpt><trkpt lat="42.1965074" lon="13.7272972"><ele>1083.0</ele><time>2026-05-02T11:25:01.641Z</time></trkpt><trkpt lat="42.1964385" lon="13.7273095"><ele>1083.0</ele><time>2026-05-02T11:25:04.642Z</time></trkpt><trkpt lat="42.1964251" lon="13.7271841"><ele>1083.0</ele><time>2026-05-02T11:25:08.679Z</time></trkpt><trkpt lat="42.1964215" lon="13.7270979"><ele>1083.0</ele><time>2026-05-02T11:25:09.65Z</time></trkpt><trkpt lat="42.1964189" lon="13.7269766"><ele>1083.0</ele><time>2026-05-02T11:25:10.646Z</time></trkpt><trkpt lat="42.1964295" lon="13.7268555"><ele>1084.0</ele><time>2026-05-02T11:25:11.641Z</time></trkpt><trkpt lat="42.1964416" lon="13.7267443"><ele>1085.0</ele><time>2026-05-02T11:25:12.646Z</time></trkpt><trkpt lat="42.1964677" lon="13.7266084"><ele>1086.0</ele><time>2026-05-02T11:25:13.643Z</time></trkpt><trkpt lat="42.1965059" lon="13.7264632"><ele>1087.0</ele><time>2026-05-02T11:25:14.638Z</time></trkpt><trkpt lat="42.1965385" lon="13.726307"><ele>1088.0</ele><time>2026-05-02T11:25:15.646Z</time></trkpt><trkpt lat="42.1965686" lon="13.7261459"><ele>1089.0</ele><time>2026-05-02T11:25:16.635Z</time></trkpt><trkpt lat="42.1966201" lon="13.7260124"><ele>1090.0</ele><time>2026-05-02T11:25:17.662Z</time></trkpt><trkpt lat="42.196687" lon="13.7259025"><ele>1091.0</ele><time>2026-05-02T11:25:18.646Z</time></trkpt><trkpt lat="42.1967578" lon="13.7258144"><ele>1092.0</ele><time>2026-05-02T11:25:19.645Z</time></trkpt><trkpt lat="42.1968265" lon="13.7257595"><ele>1093.0</ele><time>2026-05-02T11:25:20.637Z</time></trkpt><trkpt lat="42.1968851" lon="13.7257057"><ele>1093.0</ele><time>2026-05-02T11:25:21.641Z</time></trkpt><trkpt lat="42.1969549" lon="13.7256103"><ele>1093.0</ele><time>2026-05-02T11:25:23.639Z</time></trkpt><trkpt lat="42.1969919" lon="13.7255342"><ele>1093.0</ele><time>2026-05-02T11:25:24.676Z</time></trkpt><trkpt lat="42.1970235" lon="13.7254388"><ele>1093.0</ele><time>2026-05-02T11:25:25.644Z</time></trkpt><trkpt lat="42.1970481" lon="13.7253248"><ele>1093.0</ele><time>2026-05-02T11:25:26.656Z</time></trkpt><trkpt lat="42.1970789" lon="13.7251958"><ele>1093.0</ele><time>2026-05-02T11:25:27.659Z</time></trkpt><trkpt lat="42.1971139" lon="13.725069"><ele>1093.2</ele><time>2026-05-02T11:25:28.634Z</time></trkpt><trkpt lat="42.1971537" lon="13.724949"><ele>1093.4</ele><time>2026-05-02T11:25:29.646Z</time></trkpt><trkpt lat="42.1971969" lon="13.7248254"><ele>1093.6000000000001</ele><time>2026-05-02T11:25:30.642Z</time></trkpt><trkpt lat="42.1972265" lon="13.7246852"><ele>1093.8</ele><time>2026-05-02T11:25:31.67Z</time></trkpt><trkpt lat="42.197251" lon="13.7245449"><ele>1094.0</ele><time>2026-05-02T11:25:32.64Z</time></trkpt><trkpt lat="42.1972577" lon="13.7244059"><ele>1095.2</ele><time>2026-05-02T11:25:33.648Z</time></trkpt><trkpt lat="42.197243" lon="13.7242753"><ele>1096.4</ele><time>2026-05-02T11:25:34.656Z</time></trkpt><trkpt lat="42.1972259" lon="13.7241404"><ele>1097.6</ele><time>2026-05-02T11:25:35.642Z</time></trkpt><trkpt lat="42.1972086" lon="13.7240059"><ele>1098.8</ele><time>2026-05-02T11:25:36.637Z</time></trkpt><trkpt lat="42.197188" lon="13.7238813"><ele>1100.0</ele><time>2026-05-02T11:25:37.66Z</time></trkpt><trkpt lat="42.1971764" lon="13.7237658"><ele>1100.0</ele><time>2026-05-02T11:25:38.643Z</time></trkpt><trkpt lat="42.1971676" lon="13.7236385"><ele>1100.0</ele><time>2026-05-02T11:25:39.637Z</time></trkpt><trkpt lat="42.1971835" lon="13.7235093"><ele>1100.0</ele><time>2026-05-02T11:25:40.65Z</time></trkpt><trkpt lat="42.1971963" lon="13.7234055"><ele>1100.0</ele><time>2026-05-02T11:25:41.676Z</time></trkpt><trkpt lat="42.1972166" lon="13.7232531"><ele>1100.0</ele><time>2026-05-02T11:25:43.647Z</time></trkpt><trkpt lat="42.197256" lon="13.7230987"><ele>1100.0</ele><time>2026-05-02T11:25:45.663Z</time></trkpt><trkpt lat="42.1973205" lon="13.722953"><ele>1100.0</ele><time>2026-05-02T11:25:47.654Z</time></trkpt><trkpt lat="42.1973602" lon="13.7228838"><ele>1100.0</ele><time>2026-05-02T11:25:48.658Z</time></trkpt><trkpt lat="42.1974241" lon="13.7227513"><ele>1100.0</ele><time>2026-05-02T11:25:50.673Z</time></trkpt><trkpt lat="42.1974601" lon="13.7226645"><ele>1100.0</ele><time>2026-05-02T11:25:51.643Z</time></trkpt><trkpt lat="42.197507" lon="13.7225748"><ele>1098.6</ele><time>2026-05-02T11:25:52.669Z</time></trkpt><trkpt lat="42.1975492" lon="13.7225017"><ele>1097.2</ele><time>2026-05-02T11:25:53.64Z</time></trkpt><trkpt lat="42.1976117" lon="13.7223947"><ele>1095.8</ele><time>2026-05-02T11:25:55.642Z</time></trkpt><trkpt lat="42.1976657" lon="13.7222652"><ele>1094.4</ele><time>2026-05-02T11:25:57.645Z</time></trkpt><trkpt lat="42.1977123" lon="13.7221537"><ele>1093.0</ele><time>2026-05-02T11:25:59.639Z</time></trkpt><trkpt lat="42.1977578" lon="13.7220661"><ele>1093.0</ele><time>2026-05-02T11:26:01.646Z</time></trkpt><trkpt lat="42.1978084" lon="13.7219734"><ele>1093.0</ele><time>2026-05-02T11:26:03.642Z</time></trkpt><trkpt lat="42.1978634" lon="13.7218921"><ele>1093.0</ele><time>2026-05-02T11:26:05.643Z</time></trkpt><trkpt lat="42.1979451" lon="13.7217946"><ele>1093.0</ele><time>2026-05-02T11:26:07.652Z</time></trkpt><trkpt lat="42.1980384" lon="13.7217101"><ele>1093.0</ele><time>2026-05-02T11:26:09.655Z</time></trkpt><trkpt lat="42.1981245" lon="13.721611"><ele>1092.0</ele><time>2026-05-02T11:26:11.639Z</time></trkpt><trkpt lat="42.1982076" lon="13.7215238"><ele>1091.0</ele><time>2026-05-02T11:26:13.659Z</time></trkpt><trkpt lat="42.1982888" lon="13.7214266"><ele>1090.0</ele><time>2026-05-02T11:26:15.654Z</time></trkpt><trkpt lat="42.1983296" lon="13.7213618"><ele>1089.0</ele><time>2026-05-02T11:26:16.671Z</time></trkpt><trkpt lat="42.1983996" lon="13.7212767"><ele>1088.0</ele><time>2026-05-02T11:26:18.659Z</time></trkpt><trkpt lat="42.198478" lon="13.7211834"><ele>1088.0</ele><time>2026-05-02T11:26:20.64Z</time></trkpt><trkpt lat="42.1985767" lon="13.72107"><ele>1088.0</ele><time>2026-05-02T11:26:22.648Z</time></trkpt><trkpt lat="42.1986332" lon="13.7210224"><ele>1088.0</ele><time>2026-05-02T11:26:23.65Z</time></trkpt><trkpt lat="42.1986891" lon="13.7209695"><ele>1088.0</ele><time>2026-05-02T11:26:24.646Z</time></trkpt><trkpt lat="42.1987463" lon="13.7209289"><ele>1088.0</ele><time>2026-05-02T11:26:25.662Z</time></trkpt><trkpt lat="42.1988452" lon="13.7208676"><ele>1088.0</ele><time>2026-05-02T11:26:27.677Z</time></trkpt><trkpt lat="42.1989322" lon="13.7207835"><ele>1083.0</ele><time>2026-05-02T11:26:29.636Z</time></trkpt><trkpt lat="42.1990174" lon="13.7206813"><ele>1078.0</ele><time>2026-05-02T11:26:31.646Z</time></trkpt><trkpt lat="42.1990966" lon="13.7205831"><ele>1073.0</ele><time>2026-05-02T11:26:33.65Z</time></trkpt><trkpt lat="42.1991782" lon="13.7204829"><ele>1068.0</ele><time>2026-05-02T11:26:35.641Z</time></trkpt><trkpt lat="42.1992717" lon="13.7203862"><ele>1068.0</ele><time>2026-05-02T11:26:37.644Z</time></trkpt><trkpt lat="42.1993487" lon="13.7202523"><ele>1068.0</ele><time>2026-05-02T11:26:39.641Z</time></trkpt><trkpt lat="42.1993783" lon="13.7201617"><ele>1068.0</ele><time>2026-05-02T11:26:40.636Z</time></trkpt><trkpt lat="42.1993912" lon="13.7200607"><ele>1068.0</ele><time>2026-05-02T11:26:41.65Z</time></trkpt><trkpt lat="42.1994079" lon="13.7199545"><ele>1068.0</ele><time>2026-05-02T11:26:42.653Z</time></trkpt><trkpt lat="42.19943" lon="13.7198572"><ele>1068.0</ele><time>2026-05-02T11:26:43.663Z</time></trkpt><trkpt lat="42.1994511" lon="13.7197569"><ele>1068.1666666666667</ele><time>2026-05-02T11:26:44.633Z</time></trkpt><trkpt lat="42.1994833" lon="13.7196794"><ele>1068.3333333333333</ele><time>2026-05-02T11:26:45.644Z</time></trkpt><trkpt lat="42.1995332" lon="13.7195766"><ele>1068.5</ele><time>2026-05-02T11:26:47.644Z</time></trkpt><trkpt lat="42.199591" lon="13.719484"><ele>1068.6666666666665</ele><time>2026-05-02T11:26:49.661Z</time></trkpt><trkpt lat="42.1995787" lon="13.7193957"><ele>1068.8333333333333</ele><time>2026-05-02T11:28:45.654Z</time></trkpt><trkpt lat="42.1996085" lon="13.7193158"><ele>1069.0</ele><time>2026-05-02T11:28:48.641Z</time></trkpt><trkpt lat="42.1996521" lon="13.7192063"><ele>1069.0</ele><time>2026-05-02T11:28:52.638Z</time></trkpt><trkpt lat="42.199683" lon="13.7191182"><ele>1069.0</ele><time>2026-05-02T11:28:54.645Z</time></trkpt><trkpt lat="42.1997001" lon="13.7190322"><ele>1069.0</ele><time>2026-05-02T11:28:56.683Z</time></trkpt><trkpt lat="42.1997367" lon="13.7189473"><ele>1069.0</ele><time>2026-05-02T11:28:58.635Z</time></trkpt><trkpt lat="42.1998085" lon="13.7188448"><ele>1069.0</ele><time>2026-05-02T11:29:00.644Z</time></trkpt><trkpt lat="42.1998724" lon="13.718768"><ele>1069.0</ele><time>2026-05-02T11:29:01.656Z</time></trkpt><trkpt lat="42.1999536" lon="13.7186489"><ele>1066.5</ele><time>2026-05-02T11:29:02.646Z</time></trkpt><trkpt lat="42.2000405" lon="13.7184807"><ele>1064.0</ele><time>2026-05-02T11:29:03.654Z</time></trkpt><trkpt lat="42.2001144" lon="13.7183182"><ele>1061.5</ele><time>2026-05-02T11:29:04.639Z</time></trkpt><trkpt lat="42.200183" lon="13.7182077"><ele>1059.0</ele><time>2026-05-02T11:29:05.657Z</time></trkpt><trkpt lat="42.2002398" lon="13.7181322"><ele>1059.0</ele><time>2026-05-02T11:29:06.633Z</time></trkpt><trkpt lat="42.2002699" lon="13.7179718"><ele>1059.0</ele><time>2026-05-02T11:29:08.634Z</time></trkpt><trkpt lat="42.2002814" lon="13.7178472"><ele>1059.0</ele><time>2026-05-02T11:29:09.65Z</time></trkpt><trkpt lat="42.2002897" lon="13.7177218"><ele>1059.0</ele><time>2026-05-02T11:29:10.631Z</time></trkpt><trkpt lat="42.2002842" lon="13.7176002"><ele>1059.0</ele><time>2026-05-02T11:29:11.631Z</time></trkpt><trkpt lat="42.2002572" lon="13.7174629"><ele>1059.0</ele><time>2026-05-02T11:29:12.645Z</time></trkpt><trkpt lat="42.2002159" lon="13.7173283"><ele>1059.0</ele><time>2026-05-02T11:29:13.65Z</time></trkpt><trkpt lat="42.2001518" lon="13.7171695"><ele>1059.0</ele><time>2026-05-02T11:29:14.664Z</time></trkpt><trkpt lat="42.200088" lon="13.7169705"><ele>1059.0</ele><time>2026-05-02T11:29:15.639Z</time></trkpt><trkpt lat="42.2000266" lon="13.7167538"><ele>1059.0</ele><time>2026-05-02T11:29:16.649Z</time></trkpt><trkpt lat="42.1999758" lon="13.7165615"><ele>1059.0</ele><time>2026-05-02T11:29:17.642Z</time></trkpt><trkpt lat="42.1999351" lon="13.7163698"><ele>1059.0</ele><time>2026-05-02T11:29:18.646Z</time></trkpt><trkpt lat="42.1999377" lon="13.7162411"><ele>1059.0</ele><time>2026-05-02T11:29:19.645Z</time></trkpt><trkpt lat="42.199975" lon="13.7160927"><ele>1059.25</ele><time>2026-05-02T11:29:20.651Z</time></trkpt><trkpt lat="42.2000519" lon="13.7159225"><ele>1059.5</ele><time>2026-05-02T11:29:21.646Z</time></trkpt><trkpt lat="42.2001384" lon="13.7157507"><ele>1059.75</ele><time>2026-05-02T11:29:22.633Z</time></trkpt><trkpt lat="42.2002085" lon="13.7155812"><ele>1060.0</ele><time>2026-05-02T11:29:23.632Z</time></trkpt><trkpt lat="42.2002669" lon="13.7154072"><ele>1060.25</ele><time>2026-05-02T11:29:24.639Z</time></trkpt><trkpt lat="42.2003106" lon="13.7152189"><ele>1060.5</ele><time>2026-05-02T11:29:25.635Z</time></trkpt><trkpt lat="42.2003293" lon="13.7150453"><ele>1060.75</ele><time>2026-05-02T11:29:26.659Z</time></trkpt><trkpt lat="42.2003562" lon="13.7148654"><ele>1061.0</ele><time>2026-05-02T11:29:27.643Z</time></trkpt><trkpt lat="42.2003798" lon="13.7147"><ele>1061.0</ele><time>2026-05-02T11:29:28.637Z</time></trkpt><trkpt lat="42.2004176" lon="13.7145556"><ele>1061.0</ele><time>2026-05-02T11:29:29.637Z</time></trkpt><trkpt lat="42.2004485" lon="13.7144043"><ele>1061.0</ele><time>2026-05-02T11:29:30.642Z</time></trkpt><trkpt lat="42.2004729" lon="13.7141904"><ele>1061.0</ele><time>2026-05-02T11:29:31.647Z</time></trkpt><trkpt lat="42.2004865" lon="13.7139127"><ele>1060.6666666666667</ele><time>2026-05-02T11:29:32.631Z</time></trkpt><trkpt lat="42.2005241" lon="13.7136068"><ele>1060.3333333333333</ele><time>2026-05-02T11:29:33.644Z</time></trkpt><trkpt lat="42.2005629" lon="13.7133558"><ele>1060.0</ele><time>2026-05-02T11:29:34.653Z</time></trkpt><trkpt lat="42.2005917" lon="13.7131689"><ele>1059.0</ele><time>2026-05-02T11:29:35.636Z</time></trkpt><trkpt lat="42.2006274" lon="13.7129774"><ele>1058.0</ele><time>2026-05-02T11:29:36.657Z</time></trkpt><trkpt lat="42.2007188" lon="13.7127823"><ele>1057.0</ele><time>2026-05-02T11:29:37.639Z</time></trkpt><trkpt lat="42.2008244" lon="13.7125968"><ele>1050.0</ele><time>2026-05-02T11:29:38.647Z</time></trkpt><trkpt lat="42.2009168" lon="13.7124092"><ele>1043.0</ele><time>2026-05-02T11:29:39.643Z</time></trkpt><trkpt lat="42.2009873" lon="13.7122398"><ele>1036.0</ele><time>2026-05-02T11:29:40.634Z</time></trkpt><trkpt lat="42.2010322" lon="13.7120442"><ele>1035.25</ele><time>2026-05-02T11:29:41.644Z</time></trkpt><trkpt lat="42.2010745" lon="13.711851"><ele>1034.5</ele><time>2026-05-02T11:29:42.635Z</time></trkpt><trkpt lat="42.2011154" lon="13.7116919"><ele>1033.75</ele><time>2026-05-02T11:29:43.659Z</time></trkpt><trkpt lat="42.2011478" lon="13.711542"><ele>1033.0</ele><time>2026-05-02T11:29:44.64Z</time></trkpt><trkpt lat="42.2011552" lon="13.7113926"><ele>1033.0</ele><time>2026-05-02T11:29:45.639Z</time></trkpt><trkpt lat="42.2011467" lon="13.7112459"><ele>1033.0</ele><time>2026-05-02T11:29:46.633Z</time></trkpt><trkpt lat="42.201118" lon="13.7110734"><ele>1033.0</ele><time>2026-05-02T11:29:47.637Z</time></trkpt><trkpt lat="42.2010906" lon="13.7109051"><ele>1033.0</ele><time>2026-05-02T11:29:48.631Z</time></trkpt><trkpt lat="42.2010765" lon="13.7107292"><ele>1032.0</ele><time>2026-05-02T11:29:49.645Z</time></trkpt><trkpt lat="42.2010607" lon="13.7105621"><ele>1031.0</ele><time>2026-05-02T11:29:50.64Z</time></trkpt><trkpt lat="42.201078" lon="13.7103863"><ele>1030.0</ele><time>2026-05-02T11:29:51.64Z</time></trkpt><trkpt lat="42.2011186" lon="13.7101952"><ele>1029.0</ele><time>2026-05-02T11:29:52.645Z</time></trkpt><trkpt lat="42.20116" lon="13.7100105"><ele>1028.75</ele><time>2026-05-02T11:29:53.652Z</time></trkpt><trkpt lat="42.2012018" lon="13.7098349"><ele>1028.5</ele><time>2026-05-02T11:29:54.642Z</time></trkpt><trkpt lat="42.201242" lon="13.709638"><ele>1028.25</ele><time>2026-05-02T11:29:55.637Z</time></trkpt><trkpt lat="42.201287" lon="13.7094418"><ele>1028.0</ele><time>2026-05-02T11:29:56.641Z</time></trkpt><trkpt lat="42.201326" lon="13.7092495"><ele>1028.5</ele><time>2026-05-02T11:29:57.631Z</time></trkpt><trkpt lat="42.2013506" lon="13.709074"><ele>1029.0</ele><time>2026-05-02T11:29:58.635Z</time></trkpt><trkpt lat="42.2013819" lon="13.708913"><ele>1029.5</ele><time>2026-05-02T11:29:59.645Z</time></trkpt><trkpt lat="42.2014148" lon="13.7087616"><ele>1030.0</ele><time>2026-05-02T11:30:00.63Z</time></trkpt><trkpt lat="42.2014516" lon="13.7086206"><ele>1030.25</ele><time>2026-05-02T11:30:01.66Z</time></trkpt><trkpt lat="42.2014925" lon="13.7084619"><ele>1030.5</ele><time>2026-05-02T11:30:02.647Z</time></trkpt><trkpt lat="42.2015269" lon="13.7083135"><ele>1030.75</ele><time>2026-05-02T11:30:03.639Z</time></trkpt><trkpt lat="42.2015541" lon="13.7081633"><ele>1031.0</ele><time>2026-05-02T11:30:04.63Z</time></trkpt><trkpt lat="42.201567" lon="13.7080038"><ele>1026.0</ele><time>2026-05-02T11:30:05.652Z</time></trkpt><trkpt lat="42.201575" lon="13.7078406"><ele>1020.9999999999999</ele><time>2026-05-02T11:30:06.644Z</time></trkpt><trkpt lat="42.2016007" lon="13.7077084"><ele>1015.9999999999999</ele><time>2026-05-02T11:30:07.633Z</time></trkpt><trkpt lat="42.201645" lon="13.7075785"><ele>1011.0</ele><time>2026-05-02T11:30:08.639Z</time></trkpt><trkpt lat="42.2016822" lon="13.7074677"><ele>1006.0</ele><time>2026-05-02T11:30:09.648Z</time></trkpt><trkpt lat="42.2017139" lon="13.7073616"><ele>1004.6666666666666</ele><time>2026-05-02T11:30:10.639Z</time></trkpt><trkpt lat="42.2017453" lon="13.707259"><ele>1003.3333333333333</ele><time>2026-05-02T11:30:11.658Z</time></trkpt><trkpt lat="42.2017657" lon="13.7071583"><ele>1002.0</ele><time>2026-05-02T11:30:12.64Z</time></trkpt><trkpt lat="42.2017802" lon="13.7070177"><ele>1000.6666666666667</ele><time>2026-05-02T11:30:14.632Z</time></trkpt><trkpt lat="42.2018172" lon="13.7068972"><ele>999.3333333333334</ele><time>2026-05-02T11:30:16.633Z</time></trkpt><trkpt lat="42.2018554" lon="13.7068082"><ele>998.0</ele><time>2026-05-02T11:30:18.652Z</time></trkpt><trkpt lat="42.2018753" lon="13.7067208"><ele>996.5999999999999</ele><time>2026-05-02T11:30:20.626Z</time></trkpt><trkpt lat="42.2018745" lon="13.7065992"><ele>995.1999999999999</ele><time>2026-05-02T11:30:22.638Z</time></trkpt><trkpt lat="42.2018441" lon="13.7064841"><ele>993.8</ele><time>2026-05-02T11:30:24.638Z</time></trkpt><trkpt lat="42.2018156" lon="13.7063541"><ele>992.4</ele><time>2026-05-02T11:30:26.639Z</time></trkpt><trkpt lat="42.2017914" lon="13.7062498"><ele>991.0</ele><time>2026-05-02T11:30:28.635Z</time></trkpt><trkpt lat="42.2016912" lon="13.7061386"><ele>990.9999999999999</ele><time>2026-05-02T11:30:30.639Z</time></trkpt><trkpt lat="42.2016293" lon="13.7060931"><ele>991.0</ele><time>2026-05-02T11:30:31.625Z</time></trkpt><trkpt lat="42.2015693" lon="13.7060629"><ele>991.0</ele><time>2026-05-02T11:30:32.63Z</time></trkpt><trkpt lat="42.2015254" lon="13.7059433"><ele>991.0</ele><time>2026-05-02T11:30:34.618Z</time></trkpt><trkpt lat="42.201527" lon="13.7058567"><ele>990.9999999999999</ele><time>2026-05-02T11:30:35.639Z</time></trkpt><trkpt lat="42.2015352" lon="13.7057698"><ele>991.0</ele><time>2026-05-02T11:30:36.636Z</time></trkpt><trkpt lat="42.2015036" lon="13.7056"><ele>992.4</ele><time>2026-05-02T11:30:38.628Z</time></trkpt><trkpt lat="42.2014615" lon="13.7055015"><ele>993.8</ele><time>2026-05-02T11:30:39.624Z</time></trkpt><trkpt lat="42.201415" lon="13.705382"><ele>995.1999999999999</ele><time>2026-05-02T11:30:40.649Z</time></trkpt><trkpt lat="42.2013813" lon="13.7052472"><ele>996.5999999999999</ele><time>2026-05-02T11:30:41.634Z</time></trkpt><trkpt lat="42.201351" lon="13.7051067"><ele>998.0</ele><time>2026-05-02T11:30:42.635Z</time></trkpt><trkpt lat="42.2013407" lon="13.7049717"><ele>993.0</ele><time>2026-05-02T11:30:43.631Z</time></trkpt><trkpt lat="42.2013531" lon="13.704822"><ele>988.0</ele><time>2026-05-02T11:30:44.641Z</time></trkpt><trkpt lat="42.2013591" lon="13.7046616"><ele>983.0</ele><time>2026-05-02T11:30:45.626Z</time></trkpt><trkpt lat="42.2013708" lon="13.7044913"><ele>978.0</ele><time>2026-05-02T11:30:46.633Z</time></trkpt><trkpt lat="42.2013775" lon="13.7043401"><ele>973.8</ele><time>2026-05-02T11:30:47.636Z</time></trkpt><trkpt lat="42.2013833" lon="13.7041974"><ele>969.5999999999999</ele><time>2026-05-02T11:30:48.638Z</time></trkpt><trkpt lat="42.2013937" lon="13.7040617"><ele>965.4000000000001</ele><time>2026-05-02T11:30:49.648Z</time></trkpt><trkpt lat="42.2014149" lon="13.7039221"><ele>961.2</ele><time>2026-05-02T11:30:50.642Z</time></trkpt><trkpt lat="42.2014495" lon="13.7037694"><ele>957.0</ele><time>2026-05-02T11:30:51.641Z</time></trkpt><trkpt lat="42.2014737" lon="13.703625"><ele>960.4000000000001</ele><time>2026-05-02T11:30:52.647Z</time></trkpt><trkpt lat="42.2014888" lon="13.7034809"><ele>963.8000000000001</ele><time>2026-05-02T11:30:53.631Z</time></trkpt><trkpt lat="42.2015038" lon="13.7033365"><ele>967.2</ele><time>2026-05-02T11:30:54.624Z</time></trkpt><trkpt lat="42.2015089" lon="13.703203"><ele>970.6</ele><time>2026-05-02T11:30:55.626Z</time></trkpt><trkpt lat="42.2015002" lon="13.7031049"><ele>974.0</ele><time>2026-05-02T11:30:56.63Z</time></trkpt><trkpt lat="42.2014734" lon="13.7030252"><ele>967.8333333333334</ele><time>2026-05-02T11:30:57.627Z</time></trkpt><trkpt lat="42.2014289" lon="13.7029565"><ele>961.6666666666667</ele><time>2026-05-02T11:30:58.642Z</time></trkpt><trkpt lat="42.2013819" lon="13.70289"><ele>955.5</ele><time>2026-05-02T11:30:59.639Z</time></trkpt><trkpt lat="42.2013179" lon="13.7028111"><ele>949.3333333333333</ele><time>2026-05-02T11:31:00.657Z</time></trkpt><trkpt lat="42.2012481" lon="13.7027306"><ele>943.1666666666666</ele><time>2026-05-02T11:31:01.64Z</time></trkpt><trkpt lat="42.201177" lon="13.7026582"><ele>937.0</ele><time>2026-05-02T11:31:02.629Z</time></trkpt><trkpt lat="42.201106" lon="13.7026078"><ele>937.0</ele><time>2026-05-02T11:31:03.636Z</time></trkpt><trkpt lat="42.2010252" lon="13.7025443"><ele>937.0</ele><time>2026-05-02T11:31:04.637Z</time></trkpt><trkpt lat="42.2009335" lon="13.7024552"><ele>937.0</ele><time>2026-05-02T11:31:05.639Z</time></trkpt><trkpt lat="42.2008195" lon="13.7023677"><ele>937.0</ele><time>2026-05-02T11:31:06.631Z</time></trkpt><trkpt lat="42.2007093" lon="13.7023069"><ele>931.0</ele><time>2026-05-02T11:31:07.63Z</time></trkpt><trkpt lat="42.2006017" lon="13.702261"><ele>925.0</ele><time>2026-05-02T11:31:08.643Z</time></trkpt><trkpt lat="42.2004998" lon="13.7022246"><ele>919.0</ele><time>2026-05-02T11:31:09.639Z</time></trkpt><trkpt lat="42.2004083" lon="13.7022036"><ele>913.0</ele><time>2026-05-02T11:31:10.665Z</time></trkpt><trkpt lat="42.2003321" lon="13.7021989"><ele>907.0</ele><time>2026-05-02T11:31:11.637Z</time></trkpt><trkpt lat="42.2002625" lon="13.7021986"><ele>907.0</ele><time>2026-05-02T11:31:12.64Z</time></trkpt><trkpt lat="42.2001831" lon="13.702126"><ele>907.0</ele><time>2026-05-02T11:31:14.633Z</time></trkpt><trkpt lat="42.2001438" lon="13.701965"><ele>907.0</ele><time>2026-05-02T11:31:16.63Z</time></trkpt><trkpt lat="42.200126" lon="13.701841"><ele>907.0</ele><time>2026-05-02T11:31:17.651Z</time></trkpt><trkpt lat="42.2000931" lon="13.701727"><ele>907.0</ele><time>2026-05-02T11:31:18.646Z</time></trkpt><trkpt lat="42.2000636" lon="13.7016363"><ele>907.6</ele><time>2026-05-02T11:31:19.648Z</time></trkpt><trkpt lat="42.2000261" lon="13.7015451"><ele>908.2</ele><time>2026-05-02T11:31:20.649Z</time></trkpt><trkpt lat="42.1999879" lon="13.7014322"><ele>908.8</ele><time>2026-05-02T11:31:22.639Z</time></trkpt><trkpt lat="42.2000115" lon="13.7012832"><ele>909.4</ele><time>2026-05-02T11:31:24.64Z</time></trkpt><trkpt lat="42.2000296" lon="13.7011619"><ele>910.0</ele><time>2026-05-02T11:31:25.637Z</time></trkpt><trkpt lat="42.2000457" lon="13.7010162"><ele>908.8</ele><time>2026-05-02T11:31:26.649Z</time></trkpt><trkpt lat="42.2000566" lon="13.7008672"><ele>907.6</ele><time>2026-05-02T11:31:27.632Z</time></trkpt><trkpt lat="42.2000789" lon="13.7007515"><ele>906.4000000000001</ele><time>2026-05-02T11:31:28.64Z</time></trkpt><trkpt lat="42.2000435" lon="13.7005674"><ele>905.2</ele><time>2026-05-02T11:31:30.628Z</time></trkpt><trkpt lat="42.2000258" lon="13.7004416"><ele>904.0</ele><time>2026-05-02T11:31:31.63Z</time></trkpt><trkpt lat="42.200027" lon="13.7003134"><ele>903.8000000000001</ele><time>2026-05-02T11:31:32.638Z</time></trkpt><trkpt lat="42.2000309" lon="13.7001836"><ele>903.6000000000001</ele><time>2026-05-02T11:31:33.643Z</time></trkpt><trkpt lat="42.2000483" lon="13.7000813"><ele>903.4</ele><time>2026-05-02T11:31:34.651Z</time></trkpt><trkpt lat="42.2000495" lon="13.6999951"><ele>903.2</ele><time>2026-05-02T11:31:35.646Z</time></trkpt><trkpt lat="42.1999417" lon="13.6998839"><ele>903.0</ele><time>2026-05-02T11:31:37.639Z</time></trkpt><trkpt lat="42.1998762" lon="13.6998294"><ele>894.3333333333334</ele><time>2026-05-02T11:31:38.631Z</time></trkpt><trkpt lat="42.1998136" lon="13.6997782"><ele>885.6666666666667</ele><time>2026-05-02T11:31:39.656Z</time></trkpt><trkpt lat="42.1997655" lon="13.6996892"><ele>877.0</ele><time>2026-05-02T11:31:40.638Z</time></trkpt><trkpt lat="42.1997302" lon="13.6995833"><ele>868.3333333333334</ele><time>2026-05-02T11:31:41.63Z</time></trkpt><trkpt lat="42.199698" lon="13.6994529"><ele>859.6666666666667</ele><time>2026-05-02T11:31:42.643Z</time></trkpt><trkpt lat="42.1996722" lon="13.6993341"><ele>851.0</ele><time>2026-05-02T11:31:43.637Z</time></trkpt><trkpt lat="42.1996426" lon="13.6992256"><ele>851.0</ele><time>2026-05-02T11:31:44.65Z</time></trkpt><trkpt lat="42.1995917" lon="13.699114"><ele>851.0</ele><time>2026-05-02T11:31:45.645Z</time></trkpt><trkpt lat="42.1995385" lon="13.6990189"><ele>851.0</ele><time>2026-05-02T11:31:46.662Z</time></trkpt><trkpt lat="42.1995146" lon="13.698902"><ele>851.0</ele><time>2026-05-02T11:31:47.643Z</time></trkpt><trkpt lat="42.1995098" lon="13.6987859"><ele>851.0</ele><time>2026-05-02T11:31:48.637Z</time></trkpt><trkpt lat="42.1995025" lon="13.6986636"><ele>851.6666666666667</ele><time>2026-05-02T11:31:49.634Z</time></trkpt><trkpt lat="42.1994968" lon="13.6985331"><ele>852.3333333333334</ele><time>2026-05-02T11:31:50.65Z</time></trkpt><trkpt lat="42.1994852" lon="13.6984112"><ele>853.0</ele><time>2026-05-02T11:31:51.638Z</time></trkpt><trkpt lat="42.1994712" lon="13.6983069"><ele>853.6666666666667</ele><time>2026-05-02T11:31:52.652Z</time></trkpt><trkpt lat="42.1994715" lon="13.6982022"><ele>854.3333333333334</ele><time>2026-05-02T11:31:53.64Z</time></trkpt><trkpt lat="42.199483" lon="13.6980848"><ele>855.0</ele><time>2026-05-02T11:31:54.638Z</time></trkpt><trkpt lat="42.1995032" lon="13.6979576"><ele>855.0</ele><time>2026-05-02T11:31:55.641Z</time></trkpt><trkpt lat="42.1995343" lon="13.6978202"><ele>855.0</ele><time>2026-05-02T11:31:56.644Z</time></trkpt><trkpt lat="42.1995788" lon="13.6977016"><ele>855.0</ele><time>2026-05-02T11:31:57.634Z</time></trkpt><trkpt lat="42.1996179" lon="13.6975831"><ele>855.0</ele><time>2026-05-02T11:31:58.645Z</time></trkpt><trkpt lat="42.1996576" lon="13.6974974"><ele>855.0</ele><time>2026-05-02T11:31:59.634Z</time></trkpt><trkpt lat="42.1997525" lon="13.6973542"><ele>852.6</ele><time>2026-05-02T11:32:01.634Z</time></trkpt><trkpt lat="42.1998025" lon="13.6972702"><ele>850.2</ele><time>2026-05-02T11:32:02.646Z</time></trkpt><trkpt lat="42.1998413" lon="13.697198"><ele>847.8</ele><time>2026-05-02T11:32:03.63Z</time></trkpt><trkpt lat="42.1999603" lon="13.6971291"><ele>845.4</ele><time>2026-05-02T11:32:05.629Z</time></trkpt><trkpt lat="42.200056" lon="13.697105"><ele>843.0</ele><time>2026-05-02T11:32:06.632Z</time></trkpt><trkpt lat="42.2001411" lon="13.6970717"><ele>843.5</ele><time>2026-05-02T11:32:07.637Z</time></trkpt><trkpt lat="42.2002345" lon="13.6970118"><ele>844.0</ele><time>2026-05-02T11:32:08.625Z</time></trkpt><trkpt lat="42.2003107" lon="13.6969754"><ele>844.5</ele><time>2026-05-02T11:32:09.637Z</time></trkpt><trkpt lat="42.2003782" lon="13.6969608"><ele>845.0</ele><time>2026-05-02T11:32:10.636Z</time></trkpt><trkpt lat="42.2004509" lon="13.6969489"><ele>845.5</ele><time>2026-05-02T11:32:11.645Z</time></trkpt><trkpt lat="42.2005341" lon="13.6969092"><ele>846.0</ele><time>2026-05-02T11:32:12.64Z</time></trkpt><trkpt lat="42.2006381" lon="13.6968386"><ele>849.4</ele><time>2026-05-02T11:32:13.633Z</time></trkpt><trkpt lat="42.2007462" lon="13.6967583"><ele>852.8</ele><time>2026-05-02T11:32:14.636Z</time></trkpt><trkpt lat="42.2008218" lon="13.6966837"><ele>856.1999999999999</ele><time>2026-05-02T11:32:15.639Z</time></trkpt><trkpt lat="42.2008309" lon="13.6965569"><ele>859.5999999999999</ele><time>2026-05-02T11:32:17.632Z</time></trkpt><trkpt lat="42.2007709" lon="13.6964906"><ele>863.0</ele><time>2026-05-02T11:32:19.636Z</time></trkpt><trkpt lat="42.2007058" lon="13.6965149"><ele>859.5999999999999</ele><time>2026-05-02T11:32:21.648Z</time></trkpt><trkpt lat="42.2006126" lon="13.6965217"><ele>856.1999999999999</ele><time>2026-05-02T11:32:23.634Z</time></trkpt><trkpt lat="42.2005344" lon="13.6964397"><ele>852.8</ele><time>2026-05-02T11:32:25.625Z</time></trkpt><trkpt lat="42.2004328" lon="13.6964706"><ele>849.4</ele><time>2026-05-02T11:32:28.627Z</time></trkpt><trkpt lat="42.2003445" lon="13.6964695"><ele>846.0</ele><time>2026-05-02T11:32:30.648Z</time></trkpt><trkpt lat="42.2002351" lon="13.6963485"><ele>846.0</ele><time>2026-05-02T11:32:32.63Z</time></trkpt><trkpt lat="42.2001697" lon="13.6962813"><ele>846.0</ele><time>2026-05-02T11:32:33.634Z</time></trkpt><trkpt lat="42.2001117" lon="13.6962385"><ele>846.0</ele><time>2026-05-02T11:32:34.629Z</time></trkpt><trkpt lat="42.1999982" lon="13.6962568"><ele>846.0</ele><time>2026-05-02T11:32:36.627Z</time></trkpt><trkpt lat="42.1999352" lon="13.6963174"><ele>846.0</ele><time>2026-05-02T11:32:37.619Z</time></trkpt><trkpt lat="42.1998819" lon="13.6963768"><ele>846.0</ele><time>2026-05-02T11:32:38.635Z</time></trkpt><trkpt lat="42.1997693" lon="13.6963677"><ele>840.8</ele><time>2026-05-02T11:32:40.64Z</time></trkpt><trkpt lat="42.1997098" lon="13.6963069"><ele>835.5999999999999</ele><time>2026-05-02T11:32:41.624Z</time></trkpt><trkpt lat="42.1996465" lon="13.696225"><ele>830.4</ele><time>2026-05-02T11:32:42.633Z</time></trkpt><trkpt lat="42.1995983" lon="13.6961093"><ele>825.2</ele><time>2026-05-02T11:32:43.635Z</time></trkpt><trkpt lat="42.1995211" lon="13.6959641"><ele>820.0</ele><time>2026-05-02T11:32:44.628Z</time></trkpt><trkpt lat="42.1994278" lon="13.6958203"><ele>817.8</ele><time>2026-05-02T11:32:45.668Z</time></trkpt><trkpt lat="42.1993536" lon="13.6956912"><ele>815.6</ele><time>2026-05-02T11:32:46.636Z</time></trkpt><trkpt lat="42.1992928" lon="13.695564"><ele>813.4000000000001</ele><time>2026-05-02T11:32:47.637Z</time></trkpt><trkpt lat="42.1992419" lon="13.6954445"><ele>811.2</ele><time>2026-05-02T11:32:48.65Z</time></trkpt><trkpt lat="42.1991995" lon="13.6953132"><ele>809.0</ele><time>2026-05-02T11:32:49.631Z</time></trkpt><trkpt lat="42.1991603" lon="13.6951768"><ele>809.0</ele><time>2026-05-02T11:32:50.664Z</time></trkpt><trkpt lat="42.1991173" lon="13.6950566"><ele>809.0</ele><time>2026-05-02T11:32:51.626Z</time></trkpt><trkpt lat="42.1990572" lon="13.6949698"><ele>809.0</ele><time>2026-05-02T11:32:52.634Z</time></trkpt><trkpt lat="42.1989936" lon="13.6949104"><ele>809.0</ele><time>2026-05-02T11:32:53.638Z</time></trkpt><trkpt lat="42.198878" lon="13.6949193"><ele>809.0</ele><time>2026-05-02T11:32:55.635Z</time></trkpt><trkpt lat="42.1988339" lon="13.6949955"><ele>803.8000000000001</ele><time>2026-05-02T11:32:56.643Z</time></trkpt><trkpt lat="42.1987936" lon="13.6950972"><ele>798.6</ele><time>2026-05-02T11:32:57.633Z</time></trkpt><trkpt lat="42.1987232" lon="13.6952344"><ele>793.4</ele><time>2026-05-02T11:32:58.635Z</time></trkpt><trkpt lat="42.1986563" lon="13.695374"><ele>788.2</ele><time>2026-05-02T11:32:59.643Z</time></trkpt><trkpt lat="42.198603" lon="13.6954873"><ele>783.0</ele><time>2026-05-02T11:33:00.637Z</time></trkpt><trkpt lat="42.1985294" lon="13.6955852"><ele>783.0</ele><time>2026-05-02T11:33:02.64Z</time></trkpt><trkpt lat="42.1984439" lon="13.6955572"><ele>783.0</ele><time>2026-05-02T11:33:04.633Z</time></trkpt><trkpt lat="42.19839" lon="13.695491"><ele>783.0</ele><time>2026-05-02T11:33:05.631Z</time></trkpt><trkpt lat="42.1983233" lon="13.6954603"><ele>783.0</ele><time>2026-05-02T11:33:06.638Z</time></trkpt><trkpt lat="42.198248" lon="13.6954563"><ele>783.0</ele><time>2026-05-02T11:33:07.629Z</time></trkpt><trkpt lat="42.1981785" lon="13.6954832"><ele>783.0</ele><time>2026-05-02T11:33:08.637Z</time></trkpt><trkpt lat="42.1981072" lon="13.6955446"><ele>779.8333333333334</ele><time>2026-05-02T11:33:09.64Z</time></trkpt><trkpt lat="42.1980413" lon="13.6956183"><ele>776.6666666666666</ele><time>2026-05-02T11:33:10.636Z</time></trkpt><trkpt lat="42.1979741" lon="13.6956693"><ele>773.5</ele><time>2026-05-02T11:33:11.638Z</time></trkpt><trkpt lat="42.1979029" lon="13.6956883"><ele>770.3333333333333</ele><time>2026-05-02T11:33:12.639Z</time></trkpt><trkpt lat="42.1978095" lon="13.6957057"><ele>767.1666666666666</ele><time>2026-05-02T11:33:13.649Z</time></trkpt><trkpt lat="42.1976996" lon="13.6957321"><ele>764.0</ele><time>2026-05-02T11:33:14.629Z</time></trkpt><trkpt lat="42.1975782" lon="13.6957637"><ele>764.0</ele><time>2026-05-02T11:33:15.653Z</time></trkpt><trkpt lat="42.197455" lon="13.6957991"><ele>764.0</ele><time>2026-05-02T11:33:16.635Z</time></trkpt><trkpt lat="42.197333" lon="13.695835"><ele>764.0</ele><time>2026-05-02T11:33:17.634Z</time></trkpt><trkpt lat="42.1971979" lon="13.6958803"><ele>764.0</ele><time>2026-05-02T11:33:18.639Z</time></trkpt><trkpt lat="42.1970746" lon="13.6959298"><ele>759.5</ele><time>2026-05-02T11:33:19.635Z</time></trkpt><trkpt lat="42.1969542" lon="13.6959623"><ele>755.0</ele><time>2026-05-02T11:33:20.624Z</time></trkpt><trkpt lat="42.1968373" lon="13.696"><ele>750.5</ele><time>2026-05-02T11:33:21.632Z</time></trkpt><trkpt lat="42.1967304" lon="13.6960413"><ele>746.0</ele><time>2026-05-02T11:33:22.64Z</time></trkpt><trkpt lat="42.1966313" lon="13.6960755"><ele>745.3333333333333</ele><time>2026-05-02T11:33:23.644Z</time></trkpt><trkpt lat="42.1965509" lon="13.6961149"><ele>744.6666666666666</ele><time>2026-05-02T11:33:24.65Z</time></trkpt><trkpt lat="42.1965007" lon="13.6962073"><ele>744.0</ele><time>2026-05-02T11:33:26.647Z</time></trkpt><trkpt lat="42.1965246" lon="13.6962905"><ele>743.3333333333334</ele><time>2026-05-02T11:33:28.635Z</time></trkpt><trkpt lat="42.1965026" lon="13.6963823"><ele>742.6666666666667</ele><time>2026-05-02T11:33:30.636Z</time></trkpt><trkpt lat="42.1964937" lon="13.6964742"><ele>742.0</ele><time>2026-05-02T11:33:33.645Z</time></trkpt><trkpt lat="42.1965096" lon="13.6963701"><ele>742.0</ele><time>2026-05-02T11:33:38.636Z</time></trkpt><trkpt lat="42.1965066" lon="13.6962827"><ele>742.0</ele><time>2026-05-02T11:34:41.65Z</time></trkpt><trkpt lat="42.1964804" lon="13.6961922"><ele>742.0</ele><time>2026-05-02T11:34:45.642Z</time></trkpt><trkpt lat="42.1964661" lon="13.6960973"><ele>742.0</ele><time>2026-05-02T11:48:22.648Z</time></trkpt><trkpt lat="42.1964352" lon="13.6959809"><ele>742.0</ele><time>2026-05-02T11:48:24.65Z</time></trkpt><trkpt lat="42.1964162" lon="13.6958185"><ele>742.0</ele><time>2026-05-02T11:48:26.654Z</time></trkpt><trkpt lat="42.1964067" lon="13.6957197"><ele>740.5</ele><time>2026-05-02T11:48:27.65Z</time></trkpt><trkpt lat="42.1963926" lon="13.695621"><ele>739.0</ele><time>2026-05-02T11:48:28.649Z</time></trkpt><trkpt lat="42.1963693" lon="13.6955062"><ele>737.5</ele><time>2026-05-02T11:48:30.634Z</time></trkpt><trkpt lat="42.1963537" lon="13.6953673"><ele>736.0</ele><time>2026-05-02T11:48:32.656Z</time></trkpt><trkpt lat="42.1963431" lon="13.69528"><ele>734.5</ele><time>2026-05-02T11:48:33.639Z</time></trkpt><trkpt lat="42.1963249" lon="13.6951829"><ele>733.0</ele><time>2026-05-02T11:48:34.641Z</time></trkpt><trkpt lat="42.1962996" lon="13.6950963"><ele>732.9999999999999</ele><time>2026-05-02T11:48:35.646Z</time></trkpt><trkpt lat="42.1962806" lon="13.6950079"><ele>733.0</ele><time>2026-05-02T11:48:36.653Z</time></trkpt><trkpt lat="42.196273" lon="13.6949175"><ele>733.0</ele><time>2026-05-02T11:48:37.646Z</time></trkpt><trkpt lat="42.1962596" lon="13.6948315"><ele>733.0</ele><time>2026-05-02T11:48:38.649Z</time></trkpt><trkpt lat="42.1962471" lon="13.6947464"><ele>733.0</ele><time>2026-05-02T11:48:39.654Z</time></trkpt><trkpt lat="42.1962225" lon="13.6946445"><ele>732.9999999999999</ele><time>2026-05-02T11:48:40.639Z</time></trkpt><trkpt lat="42.1961933" lon="13.6945218"><ele>733.0</ele><time>2026-05-02T11:48:41.668Z</time></trkpt><trkpt lat="42.1961551" lon="13.6943916"><ele>732.5999999999999</ele><time>2026-05-02T11:48:42.636Z</time></trkpt><trkpt lat="42.1961168" lon="13.6942796"><ele>732.1999999999999</ele><time>2026-05-02T11:48:43.656Z</time></trkpt><trkpt lat="42.1960813" lon="13.6941678"><ele>731.8</ele><time>2026-05-02T11:48:44.644Z</time></trkpt><trkpt lat="42.1960493" lon="13.69405"><ele>731.4</ele><time>2026-05-02T11:48:45.654Z</time></trkpt><trkpt lat="42.1960267" lon="13.6939242"><ele>731.0</ele><time>2026-05-02T11:48:46.643Z</time></trkpt><trkpt lat="42.1960074" lon="13.6937935"><ele>731.0</ele><time>2026-05-02T11:48:47.648Z</time></trkpt><trkpt lat="42.1959844" lon="13.6936609"><ele>731.0</ele><time>2026-05-02T11:48:48.645Z</time></trkpt><trkpt lat="42.195961" lon="13.6935228"><ele>731.0</ele><time>2026-05-02T11:48:49.638Z</time></trkpt><trkpt lat="42.195943" lon="13.6933891"><ele>731.0</ele><time>2026-05-02T11:48:50.652Z</time></trkpt><trkpt lat="42.1959294" lon="13.693255"><ele>731.0</ele><time>2026-05-02T11:48:51.638Z</time></trkpt><trkpt lat="42.1959104" lon="13.6931383"><ele>729.5999999999999</ele><time>2026-05-02T11:48:52.666Z</time></trkpt><trkpt lat="42.1958897" lon="13.6930307"><ele>728.2</ele><time>2026-05-02T11:48:53.637Z</time></trkpt><trkpt lat="42.1958801" lon="13.6929259"><ele>726.8</ele><time>2026-05-02T11:48:54.649Z</time></trkpt><trkpt lat="42.1958608" lon="13.6927908"><ele>725.4000000000001</ele><time>2026-05-02T11:48:55.649Z</time></trkpt><trkpt lat="42.1958429" lon="13.6926488"><ele>724.0</ele><time>2026-05-02T11:48:56.655Z</time></trkpt><trkpt lat="42.1958362" lon="13.6924914"><ele>721.5</ele><time>2026-05-02T11:48:57.642Z</time></trkpt><trkpt lat="42.1958353" lon="13.6923298"><ele>719.0</ele><time>2026-05-02T11:48:58.641Z</time></trkpt><trkpt lat="42.1958343" lon="13.6921608"><ele>716.5</ele><time>2026-05-02T11:48:59.653Z</time></trkpt><trkpt lat="42.1958345" lon="13.6919992"><ele>714.0</ele><time>2026-05-02T11:49:00.655Z</time></trkpt><trkpt lat="42.1958376" lon="13.6918633"><ele>712.8333333333334</ele><time>2026-05-02T11:49:01.646Z</time></trkpt><trkpt lat="42.1958423" lon="13.6917346"><ele>711.6666666666666</ele><time>2026-05-02T11:49:02.658Z</time></trkpt><trkpt lat="42.19585" lon="13.6916163"><ele>710.5</ele><time>2026-05-02T11:49:03.68Z</time></trkpt><trkpt lat="42.1958459" lon="13.6915177"><ele>709.3333333333333</ele><time>2026-05-02T11:49:04.648Z</time></trkpt><trkpt lat="42.1958164" lon="13.6914274"><ele>708.1666666666666</ele><time>2026-05-02T11:49:05.64Z</time></trkpt><trkpt lat="42.195777" lon="13.6913606"><ele>707.0</ele><time>2026-05-02T11:49:06.651Z</time></trkpt><trkpt lat="42.1957441" lon="13.6912854"><ele>707.0</ele><time>2026-05-02T11:49:07.648Z</time></trkpt><trkpt lat="42.1957128" lon="13.6912026"><ele>707.0</ele><time>2026-05-02T11:49:08.641Z</time></trkpt><trkpt lat="42.1956573" lon="13.6910383"><ele>707.0</ele><time>2026-05-02T11:49:10.65Z</time></trkpt><trkpt lat="42.1956142" lon="13.6909644"><ele>707.0</ele><time>2026-05-02T11:49:11.641Z</time></trkpt><trkpt lat="42.1955659" lon="13.6908896"><ele>707.0</ele><time>2026-05-02T11:49:12.668Z</time></trkpt><trkpt lat="42.1955094" lon="13.6908278"><ele>707.0</ele><time>2026-05-02T11:49:13.638Z</time></trkpt><trkpt lat="42.1954442" lon="13.6907795"><ele>704.5</ele><time>2026-05-02T11:49:14.632Z</time></trkpt><trkpt lat="42.1953684" lon="13.6907394"><ele>702.0</ele><time>2026-05-02T11:49:15.635Z</time></trkpt><trkpt lat="42.1952858" lon="13.6907084"><ele>699.5</ele><time>2026-05-02T11:49:16.648Z</time></trkpt><trkpt lat="42.195201" lon="13.6906883"><ele>697.0</ele><time>2026-05-02T11:49:17.65Z</time></trkpt><trkpt lat="42.1951189" lon="13.6906602"><ele>694.5</ele><time>2026-05-02T11:49:18.638Z</time></trkpt><trkpt lat="42.1950351" lon="13.6906281"><ele>692.0</ele><time>2026-05-02T11:49:19.637Z</time></trkpt><trkpt lat="42.194946" lon="13.6905904"><ele>692.0</ele><time>2026-05-02T11:49:20.65Z</time></trkpt><trkpt lat="42.1948513" lon="13.6905511"><ele>692.0</ele><time>2026-05-02T11:49:21.638Z</time></trkpt><trkpt lat="42.1947612" lon="13.6905192"><ele>692.0</ele><time>2026-05-02T11:49:22.656Z</time></trkpt><trkpt lat="42.1946738" lon="13.69049"><ele>692.0</ele><time>2026-05-02T11:49:23.641Z</time></trkpt><trkpt lat="42.1945839" lon="13.6904698"><ele>692.0</ele><time>2026-05-02T11:49:24.649Z</time></trkpt><trkpt lat="42.1945028" lon="13.6904511"><ele>690.0</ele><time>2026-05-02T11:49:25.642Z</time></trkpt><trkpt lat="42.1944285" lon="13.6904016"><ele>688.0</ele><time>2026-05-02T11:49:26.631Z</time></trkpt><trkpt lat="42.1943591" lon="13.6903428"><ele>686.0</ele><time>2026-05-02T11:49:27.643Z</time></trkpt><trkpt lat="42.1943001" lon="13.6902857"><ele>684.0</ele><time>2026-05-02T11:49:28.656Z</time></trkpt><trkpt lat="42.1942409" lon="13.6902126"><ele>682.0</ele><time>2026-05-02T11:49:29.651Z</time></trkpt><trkpt lat="42.1941889" lon="13.6901277"><ele>680.0</ele><time>2026-05-02T11:49:30.659Z</time></trkpt><trkpt lat="42.1941401" lon="13.6900355"><ele>679.5</ele><time>2026-05-02T11:49:31.642Z</time></trkpt><trkpt lat="42.1940791" lon="13.6899568"><ele>679.0</ele><time>2026-05-02T11:49:32.649Z</time></trkpt><trkpt lat="42.1940269" lon="13.689863"><ele>678.5</ele><time>2026-05-02T11:49:33.643Z</time></trkpt><trkpt lat="42.1939874" lon="13.6897499"><ele>678.0</ele><time>2026-05-02T11:49:34.645Z</time></trkpt><trkpt lat="42.1939492" lon="13.6896434"><ele>677.5</ele><time>2026-05-02T11:49:35.657Z</time></trkpt><trkpt lat="42.1939087" lon="13.689561"><ele>677.0</ele><time>2026-05-02T11:49:36.657Z</time></trkpt><trkpt lat="42.1938046" lon="13.6894738"><ele>675.8</ele><time>2026-05-02T11:49:38.665Z</time></trkpt><trkpt lat="42.1936824" lon="13.689421"><ele>674.6</ele><time>2026-05-02T11:49:40.644Z</time></trkpt><trkpt lat="42.1935907" lon="13.6894188"><ele>673.4</ele><time>2026-05-02T11:49:42.664Z</time></trkpt><trkpt lat="42.1935151" lon="13.6894214"><ele>672.1999999999999</ele><time>2026-05-02T11:49:44.644Z</time></trkpt><trkpt lat="42.1934246" lon="13.6893524"><ele>671.0</ele><time>2026-05-02T11:49:46.652Z</time></trkpt><trkpt lat="42.1933869" lon="13.6892834"><ele>671.0</ele><time>2026-05-02T11:49:47.648Z</time></trkpt><trkpt lat="42.1933355" lon="13.6891845"><ele>671.0</ele><time>2026-05-02T11:49:48.655Z</time></trkpt><trkpt lat="42.1932659" lon="13.6890861"><ele>671.0</ele><time>2026-05-02T11:49:49.643Z</time></trkpt><trkpt lat="42.1931892" lon="13.6889811"><ele>671.0</ele><time>2026-05-02T11:49:50.645Z</time></trkpt><trkpt lat="42.1931316" lon="13.6888842"><ele>671.0</ele><time>2026-05-02T11:49:51.645Z</time></trkpt><trkpt lat="42.1930971" lon="13.6887659"><ele>669.75</ele><time>2026-05-02T11:49:52.647Z</time></trkpt><trkpt lat="42.1930625" lon="13.6886152"><ele>668.5</ele><time>2026-05-02T11:49:53.636Z</time></trkpt><trkpt lat="42.1930413" lon="13.6884512"><ele>667.25</ele><time>2026-05-02T11:49:54.645Z</time></trkpt><trkpt lat="42.1930264" lon="13.6882945"><ele>666.0</ele><time>2026-05-02T11:49:55.645Z</time></trkpt><trkpt lat="42.1930268" lon="13.6881407"><ele>668.0</ele><time>2026-05-02T11:49:56.636Z</time></trkpt><trkpt lat="42.1930391" lon="13.6879967"><ele>670.0</ele><time>2026-05-02T11:49:57.656Z</time></trkpt><trkpt lat="42.1930655" lon="13.6878762"><ele>672.0</ele><time>2026-05-02T11:49:58.652Z</time></trkpt><trkpt lat="42.1930761" lon="13.6877555"><ele>674.0</ele><time>2026-05-02T11:49:59.646Z</time></trkpt><trkpt lat="42.1930636" lon="13.6876496"><ele>676.0</ele><time>2026-05-02T11:50:00.648Z</time></trkpt><trkpt lat="42.193028" lon="13.6875169"><ele>676.1999999999999</ele><time>2026-05-02T11:50:01.648Z</time></trkpt><trkpt lat="42.1929906" lon="13.6873769"><ele>676.4</ele><time>2026-05-02T11:50:02.645Z</time></trkpt><trkpt lat="42.1929653" lon="13.6872653"><ele>676.6</ele><time>2026-05-02T11:50:03.644Z</time></trkpt><trkpt lat="42.1929677" lon="13.6871212"><ele>676.8</ele><time>2026-05-02T11:50:04.639Z</time></trkpt><trkpt lat="42.1930029" lon="13.6869821"><ele>677.0</ele><time>2026-05-02T11:50:05.637Z</time></trkpt><trkpt lat="42.1930453" lon="13.6868047"><ele>676.3333333333333</ele><time>2026-05-02T11:50:06.659Z</time></trkpt><trkpt lat="42.1931058" lon="13.6866146"><ele>675.6666666666666</ele><time>2026-05-02T11:50:07.635Z</time></trkpt><trkpt lat="42.1931549" lon="13.686414"><ele>675.0</ele><time>2026-05-02T11:50:08.646Z</time></trkpt><trkpt lat="42.193203" lon="13.6862175"><ele>675.0</ele><time>2026-05-02T11:50:09.637Z</time></trkpt><trkpt lat="42.1932439" lon="13.6860391"><ele>675.0</ele><time>2026-05-02T11:50:10.642Z</time></trkpt><trkpt lat="42.1932577" lon="13.6858895"><ele>675.0</ele><time>2026-05-02T11:50:11.646Z</time></trkpt><trkpt lat="42.1932409" lon="13.6857406"><ele>675.0</ele><time>2026-05-02T11:50:12.623Z</time></trkpt><trkpt lat="42.1932127" lon="13.6855837"><ele>675.0</ele><time>2026-05-02T11:50:13.642Z</time></trkpt><trkpt lat="42.1932014" lon="13.6854107"><ele>675.0</ele><time>2026-05-02T11:50:14.641Z</time></trkpt><trkpt lat="42.193202" lon="13.6852204"><ele>675.0</ele><time>2026-05-02T11:50:15.628Z</time></trkpt><trkpt lat="42.1932123" lon="13.6850405"><ele>675.0</ele><time>2026-05-02T11:50:16.653Z</time></trkpt><trkpt lat="42.1932149" lon="13.684856"><ele>674.75</ele><time>2026-05-02T11:50:17.642Z</time></trkpt><trkpt lat="42.1931977" lon="13.6846792"><ele>674.5</ele><time>2026-05-02T11:50:18.641Z</time></trkpt><trkpt lat="42.1931571" lon="13.6844954"><ele>674.25</ele><time>2026-05-02T11:50:19.631Z</time></trkpt><trkpt lat="42.1931076" lon="13.6843029"><ele>674.0</ele><time>2026-05-02T11:50:20.649Z</time></trkpt><trkpt lat="42.193057" lon="13.6840876"><ele>670.6666666666666</ele><time>2026-05-02T11:50:21.625Z</time></trkpt><trkpt lat="42.1930082" lon="13.6838686"><ele>667.3333333333334</ele><time>2026-05-02T11:50:22.646Z</time></trkpt><trkpt lat="42.1929581" lon="13.6836487"><ele>664.0</ele><time>2026-05-02T11:50:23.633Z</time></trkpt><trkpt lat="42.1929173" lon="13.683446"><ele>664.0</ele><time>2026-05-02T11:50:24.644Z</time></trkpt><trkpt lat="42.1928786" lon="13.6832508"><ele>664.0</ele><time>2026-05-02T11:50:25.657Z</time></trkpt><trkpt lat="42.1928496" lon="13.683049"><ele>664.0</ele><time>2026-05-02T11:50:26.643Z</time></trkpt><trkpt lat="42.1928152" lon="13.6828431"><ele>665.0</ele><time>2026-05-02T11:50:27.663Z</time></trkpt><trkpt lat="42.1927856" lon="13.6826648"><ele>666.0</ele><time>2026-05-02T11:50:28.645Z</time></trkpt><trkpt lat="42.1927637" lon="13.6825274"><ele>667.0</ele><time>2026-05-02T11:50:29.642Z</time></trkpt><trkpt lat="42.1927386" lon="13.682415"><ele>668.0</ele><time>2026-05-02T11:50:30.633Z</time></trkpt><trkpt lat="42.1927201" lon="13.6823203"><ele>669.0</ele><time>2026-05-02T11:50:31.643Z</time></trkpt><trkpt lat="42.1927065" lon="13.6822271"><ele>669.0</ele><time>2026-05-02T11:50:32.643Z</time></trkpt><trkpt lat="42.1926665" lon="13.6820609"><ele>669.0</ele><time>2026-05-02T11:50:34.663Z</time></trkpt><trkpt lat="42.1926819" lon="13.6819487"><ele>669.0</ele><time>2026-05-02T11:50:35.637Z</time></trkpt><trkpt lat="42.192714" lon="13.6818348"><ele>669.0</ele><time>2026-05-02T11:50:36.632Z</time></trkpt><trkpt lat="42.1927337" lon="13.6817204"><ele>669.0</ele><time>2026-05-02T11:50:37.633Z</time></trkpt><trkpt lat="42.1927498" lon="13.6816293"><ele>668.4285714285714</ele><time>2026-05-02T11:50:38.65Z</time></trkpt><trkpt lat="42.1927599" lon="13.6815384"><ele>667.8571428571429</ele><time>2026-05-02T11:50:39.638Z</time></trkpt><trkpt lat="42.1927529" lon="13.6814511"><ele>667.2857142857142</ele><time>2026-05-02T11:50:40.633Z</time></trkpt><trkpt lat="42.1927518" lon="13.6813495"><ele>666.7142857142858</ele><time>2026-05-02T11:50:41.629Z</time></trkpt><trkpt lat="42.1927514" lon="13.6812448"><ele>666.1428571428571</ele><time>2026-05-02T11:50:42.627Z</time></trkpt><trkpt lat="42.1927648" lon="13.6811418"><ele>665.5714285714286</ele><time>2026-05-02T11:50:43.621Z</time></trkpt><trkpt lat="42.1927862" lon="13.6810604"><ele>665.0</ele><time>2026-05-02T11:50:44.627Z</time></trkpt><trkpt lat="42.1929187" lon="13.6809169"><ele>662.4</ele><time>2026-05-02T11:50:46.622Z</time></trkpt><trkpt lat="42.192996" lon="13.6808413"><ele>659.8</ele><time>2026-05-02T11:50:47.647Z</time></trkpt><trkpt lat="42.1930499" lon="13.6807776"><ele>657.2</ele><time>2026-05-02T11:50:48.639Z</time></trkpt><trkpt lat="42.19305" lon="13.6806228"><ele>654.6</ele><time>2026-05-02T11:50:50.624Z</time></trkpt><trkpt lat="42.1930295" lon="13.6805089"><ele>652.0</ele><time>2026-05-02T11:50:51.64Z</time></trkpt><trkpt lat="42.1929998" lon="13.6803949"><ele>652.0</ele><time>2026-05-02T11:50:52.642Z</time></trkpt><trkpt lat="42.1929779" lon="13.6802772"><ele>652.0</ele><time>2026-05-02T11:50:53.63Z</time></trkpt><trkpt lat="42.1929641" lon="13.6801736"><ele>652.0</ele><time>2026-05-02T11:50:54.635Z</time></trkpt><trkpt lat="42.1929547" lon="13.6800366"><ele>652.0</ele><time>2026-05-02T11:50:56.632Z</time></trkpt><trkpt lat="42.1929516" lon="13.6799158"><ele>652.0</ele><time>2026-05-02T11:50:58.639Z</time></trkpt><trkpt lat="42.1929659" lon="13.6798201"><ele>652.0</ele><time>2026-05-02T11:50:59.627Z</time></trkpt><trkpt lat="42.1929889" lon="13.6796973"><ele>651.0</ele><time>2026-05-02T11:51:00.638Z</time></trkpt><trkpt lat="42.1930406" lon="13.679556"><ele>650.0</ele><time>2026-05-02T11:51:01.643Z</time></trkpt><trkpt lat="42.1931073" lon="13.6794003"><ele>649.0</ele><time>2026-05-02T11:51:02.646Z</time></trkpt><trkpt lat="42.193197" lon="13.6792504"><ele>648.0</ele><time>2026-05-02T11:51:03.623Z</time></trkpt><trkpt lat="42.1933077" lon="13.6790968"><ele>648.0</ele><time>2026-05-02T11:51:04.628Z</time></trkpt><trkpt lat="42.1934315" lon="13.6789231"><ele>648.0</ele><time>2026-05-02T11:51:05.63Z</time></trkpt><trkpt lat="42.1935459" lon="13.6787489"><ele>648.0</ele><time>2026-05-02T11:51:06.625Z</time></trkpt><trkpt lat="42.1936613" lon="13.678572"><ele>645.0</ele><time>2026-05-02T11:51:07.63Z</time></trkpt><trkpt lat="42.1937789" lon="13.6783902"><ele>642.0</ele><time>2026-05-02T11:51:08.627Z</time></trkpt><trkpt lat="42.1938928" lon="13.6782184"><ele>639.0</ele><time>2026-05-02T11:51:09.633Z</time></trkpt><trkpt lat="42.1940039" lon="13.6780397"><ele>640.3333333333334</ele><time>2026-05-02T11:51:10.624Z</time></trkpt><trkpt lat="42.194116" lon="13.6778676"><ele>641.6666666666667</ele><time>2026-05-02T11:51:11.619Z</time></trkpt><trkpt lat="42.1942278" lon="13.6776994"><ele>643.0</ele><time>2026-05-02T11:51:12.627Z</time></trkpt><trkpt lat="42.1943353" lon="13.6775305"><ele>643.0</ele><time>2026-05-02T11:51:13.64Z</time></trkpt><trkpt lat="42.1944341" lon="13.6773707"><ele>643.0</ele><time>2026-05-02T11:51:14.628Z</time></trkpt><trkpt lat="42.1945265" lon="13.6772223"><ele>643.0</ele><time>2026-05-02T11:51:15.639Z</time></trkpt><trkpt lat="42.1946138" lon="13.6770609"><ele>643.0</ele><time>2026-05-02T11:51:16.633Z</time></trkpt><trkpt lat="42.1946993" lon="13.6768913"><ele>644.6666666666667</ele><time>2026-05-02T11:51:17.633Z</time></trkpt><trkpt lat="42.1947894" lon="13.6767159"><ele>646.3333333333334</ele><time>2026-05-02T11:51:18.628Z</time></trkpt><trkpt lat="42.1948829" lon="13.6765196"><ele>648.0</ele><time>2026-05-02T11:51:19.629Z</time></trkpt><trkpt lat="42.1949731" lon="13.6763041"><ele>645.3333333333334</ele><time>2026-05-02T11:51:20.658Z</time></trkpt><trkpt lat="42.1950646" lon="13.6760961"><ele>642.6666666666667</ele><time>2026-05-02T11:51:21.634Z</time></trkpt><trkpt lat="42.1951522" lon="13.675926"><ele>640.0</ele><time>2026-05-02T11:51:22.644Z</time></trkpt><trkpt lat="42.1952406" lon="13.6757866"><ele>640.0</ele><time>2026-05-02T11:51:23.647Z</time></trkpt><trkpt lat="42.1953416" lon="13.6756515"><ele>640.0</ele><time>2026-05-02T11:51:24.65Z</time></trkpt><trkpt lat="42.1954718" lon="13.67553"><ele>640.0</ele><time>2026-05-02T11:51:25.653Z</time></trkpt><trkpt lat="42.1956131" lon="13.6754035"><ele>639.6666666666667</ele><time>2026-05-02T11:51:26.628Z</time></trkpt><trkpt lat="42.1957668" lon="13.6752724"><ele>639.3333333333334</ele><time>2026-05-02T11:51:27.635Z</time></trkpt><trkpt lat="42.1959155" lon="13.6751388"><ele>639.0</ele><time>2026-05-02T11:51:28.632Z</time></trkpt><trkpt lat="42.1960516" lon="13.6749938"><ele>639.0</ele><time>2026-05-02T11:51:29.625Z</time></trkpt><trkpt lat="42.1961774" lon="13.6748341"><ele>639.0</ele><time>2026-05-02T11:51:30.629Z</time></trkpt><trkpt lat="42.196293" lon="13.674659"><ele>639.0</ele><time>2026-05-02T11:51:31.633Z</time></trkpt><trkpt lat="42.1964059" lon="13.6744818"><ele>638.0</ele><time>2026-05-02T11:51:32.631Z</time></trkpt><trkpt lat="42.196525" lon="13.674293"><ele>637.0</ele><time>2026-05-02T11:51:33.629Z</time></trkpt><trkpt lat="42.1966461" lon="13.6740953"><ele>636.0</ele><time>2026-05-02T11:51:34.642Z</time></trkpt><trkpt lat="42.1967675" lon="13.6738886"><ele>636.0</ele><time>2026-05-02T11:51:35.641Z</time></trkpt><trkpt lat="42.1968817" lon="13.6736853"><ele>636.0</ele><time>2026-05-02T11:51:36.641Z</time></trkpt><trkpt lat="42.1969917" lon="13.6734813"><ele>636.0</ele><time>2026-05-02T11:51:37.641Z</time></trkpt><trkpt lat="42.1970884" lon="13.6732668"><ele>633.0</ele><time>2026-05-02T11:51:38.639Z</time></trkpt><trkpt lat="42.1971646" lon="13.6730441"><ele>630.0</ele><time>2026-05-02T11:51:39.636Z</time></trkpt><trkpt lat="42.1972277" lon="13.672844"><ele>627.0</ele><time>2026-05-02T11:51:40.643Z</time></trkpt><trkpt lat="42.1973052" lon="13.6726583"><ele>628.0</ele><time>2026-05-02T11:51:41.646Z</time></trkpt><trkpt lat="42.1973993" lon="13.6725117"><ele>629.0</ele><time>2026-05-02T11:51:42.632Z</time></trkpt><trkpt lat="42.1975079" lon="13.6723989"><ele>630.0</ele><time>2026-05-02T11:51:43.637Z</time></trkpt><trkpt lat="42.1976418" lon="13.6723306"><ele>631.0</ele><time>2026-05-02T11:51:44.653Z</time></trkpt><trkpt lat="42.1977688" lon="13.6722999"><ele>631.0</ele><time>2026-05-02T11:51:45.636Z</time></trkpt><trkpt lat="42.1979088" lon="13.6723165"><ele>631.0</ele><time>2026-05-02T11:51:46.644Z</time></trkpt><trkpt lat="42.1980267" lon="13.6723761"><ele>631.0</ele><time>2026-05-02T11:51:47.638Z</time></trkpt><trkpt lat="42.1981536" lon="13.6724519"><ele>631.0</ele><time>2026-05-02T11:51:48.632Z</time></trkpt><trkpt lat="42.1982989" lon="13.6724968"><ele>632.5</ele><time>2026-05-02T11:51:49.641Z</time></trkpt><trkpt lat="42.1984462" lon="13.6724865"><ele>634.0</ele><time>2026-05-02T11:51:50.634Z</time></trkpt><trkpt lat="42.1985693" lon="13.6724323"><ele>635.5</ele><time>2026-05-02T11:51:51.633Z</time></trkpt><trkpt lat="42.19866" lon="13.6723653"><ele>637.0</ele><time>2026-05-02T11:51:52.638Z</time></trkpt><trkpt lat="42.1987088" lon="13.6722618"><ele>637.0</ele><time>2026-05-02T11:51:53.637Z</time></trkpt><trkpt lat="42.1987237" lon="13.6721166"><ele>637.0</ele><time>2026-05-02T11:51:54.632Z</time></trkpt><trkpt lat="42.1987127" lon="13.6719742"><ele>637.0</ele><time>2026-05-02T11:51:55.644Z</time></trkpt><trkpt lat="42.1986959" lon="13.6718338"><ele>637.0</ele><time>2026-05-02T11:51:56.636Z</time></trkpt><trkpt lat="42.1986973" lon="13.6716675"><ele>637.0</ele><time>2026-05-02T11:51:57.637Z</time></trkpt><trkpt lat="42.1987375" lon="13.6714868"><ele>636.25</ele><time>2026-05-02T11:51:58.631Z</time></trkpt><trkpt lat="42.1987969" lon="13.6713219"><ele>635.5</ele><time>2026-05-02T11:51:59.637Z</time></trkpt><trkpt lat="42.1988952" lon="13.6711665"><ele>634.75</ele><time>2026-05-02T11:52:00.657Z</time></trkpt><trkpt lat="42.199013" lon="13.671034"><ele>634.0</ele><time>2026-05-02T11:52:01.645Z</time></trkpt><trkpt lat="42.1991428" lon="13.6708948"><ele>634.0</ele><time>2026-05-02T11:52:02.635Z</time></trkpt><trkpt lat="42.1992651" lon="13.6707175"><ele>634.0</ele><time>2026-05-02T11:52:03.641Z</time></trkpt><trkpt lat="42.1993599" lon="13.6705074"><ele>634.0</ele><time>2026-05-02T11:52:04.635Z</time></trkpt><trkpt lat="42.1994479" lon="13.6702962"><ele>629.3333333333334</ele><time>2026-05-02T11:52:05.647Z</time></trkpt><trkpt lat="42.1995406" lon="13.6700901"><ele>624.6666666666666</ele><time>2026-05-02T11:52:06.635Z</time></trkpt><trkpt lat="42.1996525" lon="13.6698915"><ele>620.0</ele><time>2026-05-02T11:52:07.634Z</time></trkpt><trkpt lat="42.1997835" lon="13.6697141"><ele>623.3333333333333</ele><time>2026-05-02T11:52:08.644Z</time></trkpt><trkpt lat="42.19992" lon="13.6695529"><ele>626.6666666666666</ele><time>2026-05-02T11:52:09.641Z</time></trkpt><trkpt lat="42.2000499" lon="13.6694056"><ele>630.0</ele><time>2026-05-02T11:52:10.653Z</time></trkpt><trkpt lat="42.2001725" lon="13.6692614"><ele>630.0</ele><time>2026-05-02T11:52:11.642Z</time></trkpt><trkpt lat="42.2002661" lon="13.6691113"><ele>630.0</ele><time>2026-05-02T11:52:12.65Z</time></trkpt><trkpt lat="42.2003313" lon="13.6689613"><ele>630.0</ele><time>2026-05-02T11:52:13.647Z</time></trkpt><trkpt lat="42.200377" lon="13.6688185"><ele>630.0</ele><time>2026-05-02T11:52:14.635Z</time></trkpt><trkpt lat="42.200422" lon="13.6686952"><ele>627.6</ele><time>2026-05-02T11:52:15.638Z</time></trkpt><trkpt lat="42.2004525" lon="13.6685881"><ele>625.2</ele><time>2026-05-02T11:52:16.648Z</time></trkpt><trkpt lat="42.2004695" lon="13.6684618"><ele>622.8</ele><time>2026-05-02T11:52:18.64Z</time></trkpt><trkpt lat="42.2003595" lon="13.6684562"><ele>620.4</ele><time>2026-05-02T11:52:20.641Z</time></trkpt><trkpt lat="42.2002782" lon="13.6685091"><ele>618.0</ele><time>2026-05-02T11:52:21.636Z</time></trkpt><trkpt lat="42.2001667" lon="13.6685766"><ele>621.0</ele><time>2026-05-02T11:52:22.649Z</time></trkpt><trkpt lat="42.2000507" lon="13.6686864"><ele>624.0</ele><time>2026-05-02T11:52:23.647Z</time></trkpt><trkpt lat="42.1999444" lon="13.6688205"><ele>627.0</ele><time>2026-05-02T11:52:24.636Z</time></trkpt><trkpt lat="42.1998392" lon="13.6689769"><ele>630.0</ele><time>2026-05-02T11:52:25.634Z</time></trkpt><trkpt lat="42.1997446" lon="13.6691223"><ele>628.0</ele><time>2026-05-02T11:52:26.642Z</time></trkpt><trkpt lat="42.1996639" lon="13.669267"><ele>626.0</ele><time>2026-05-02T11:52:27.651Z</time></trkpt><trkpt lat="42.1995991" lon="13.6693947"><ele>624.0</ele><time>2026-05-02T11:52:28.657Z</time></trkpt><trkpt lat="42.1995383" lon="13.6694776"><ele>622.0</ele><time>2026-05-02T11:52:29.637Z</time></trkpt><trkpt lat="42.1994448" lon="13.6695124"><ele>620.0</ele><time>2026-05-02T11:52:31.633Z</time></trkpt><trkpt lat="42.1994037" lon="13.6694398"><ele>616.5</ele><time>2026-05-02T11:52:32.64Z</time></trkpt><trkpt lat="42.1993811" lon="13.6693339"><ele>613.0</ele><time>2026-05-02T11:52:33.64Z</time></trkpt><trkpt lat="42.1994017" lon="13.6691861"><ele>609.5</ele><time>2026-05-02T11:52:34.644Z</time></trkpt><trkpt lat="42.1994388" lon="13.6690072"><ele>606.0</ele><time>2026-05-02T11:52:35.653Z</time></trkpt><trkpt lat="42.1994528" lon="13.6687902"><ele>604.6666666666666</ele><time>2026-05-02T11:52:36.633Z</time></trkpt><trkpt lat="42.1994269" lon="13.6685513"><ele>603.3333333333333</ele><time>2026-05-02T11:52:37.635Z</time></trkpt><trkpt lat="42.1993881" lon="13.6683257"><ele>602.0</ele><time>2026-05-02T11:52:38.644Z</time></trkpt><trkpt lat="42.1993324" lon="13.6681058"><ele>602.0</ele><time>2026-05-02T11:52:39.662Z</time></trkpt><trkpt lat="42.1992775" lon="13.6678997"><ele>602.0</ele><time>2026-05-02T11:52:40.655Z</time></trkpt><trkpt lat="42.1992428" lon="13.6677213"><ele>602.0</ele><time>2026-05-02T11:52:41.633Z</time></trkpt><trkpt lat="42.1992162" lon="13.6675992"><ele>602.0</ele><time>2026-05-02T11:52:42.65Z</time></trkpt><trkpt lat="42.1991962" lon="13.6675073"><ele>603.2</ele><time>2026-05-02T11:52:43.647Z</time></trkpt><trkpt lat="42.1991465" lon="13.6674052"><ele>604.4000000000001</ele><time>2026-05-02T11:52:45.649Z</time></trkpt><trkpt lat="42.199108" lon="13.6673166"><ele>605.5999999999999</ele><time>2026-05-02T11:52:47.657Z</time></trkpt><trkpt lat="42.1990648" lon="13.6671853"><ele>606.8</ele><time>2026-05-02T11:52:49.648Z</time></trkpt><trkpt lat="42.1990492" lon="13.6670657"><ele>608.0</ele><time>2026-05-02T11:52:51.641Z</time></trkpt><trkpt lat="42.1990607" lon="13.6669492"><ele>608.1666666666666</ele><time>2026-05-02T11:52:53.643Z</time></trkpt><trkpt lat="42.1991146" lon="13.6668405"><ele>608.3333333333333</ele><time>2026-05-02T11:52:55.641Z</time></trkpt><trkpt lat="42.199175" lon="13.6668149"><ele>608.5</ele><time>2026-05-02T11:52:56.649Z</time></trkpt><trkpt lat="42.1992583" lon="13.6667883"><ele>608.6666666666666</ele><time>2026-05-02T11:52:58.659Z</time></trkpt><trkpt lat="42.1992945" lon="13.6666831"><ele>608.8333333333334</ele><time>2026-05-02T11:53:01.645Z</time></trkpt><trkpt lat="42.1993128" lon="13.6665573"><ele>609.0</ele><time>2026-05-02T11:53:03.648Z</time></trkpt><trkpt lat="42.1993334" lon="13.6664669"><ele>609.0</ele><time>2026-05-02T11:53:04.64Z</time></trkpt><trkpt lat="42.1993654" lon="13.6663784"><ele>609.0</ele><time>2026-05-02T11:53:05.648Z</time></trkpt><trkpt lat="42.1994057" lon="13.6662601"><ele>609.0</ele><time>2026-05-02T11:53:06.659Z</time></trkpt><trkpt lat="42.1994448" lon="13.6661207"><ele>609.0</ele><time>2026-05-02T11:53:07.659Z</time></trkpt><trkpt lat="42.1994841" lon="13.6659847"><ele>609.0</ele><time>2026-05-02T11:53:08.646Z</time></trkpt><trkpt lat="42.1995303" lon="13.6658524"><ele>608.0</ele><time>2026-05-02T11:53:09.65Z</time></trkpt><trkpt lat="42.1995858" lon="13.6657093"><ele>607.0</ele><time>2026-05-02T11:53:10.65Z</time></trkpt><trkpt lat="42.1996449" lon="13.6655426"><ele>606.0</ele><time>2026-05-02T11:53:11.65Z</time></trkpt><trkpt lat="42.1996851" lon="13.6653844"><ele>605.0</ele><time>2026-05-02T11:53:12.649Z</time></trkpt><trkpt lat="42.1997469" lon="13.665275"><ele>605.0</ele><time>2026-05-02T11:53:13.646Z</time></trkpt><trkpt lat="42.1998271" lon="13.6651738"><ele>605.0</ele><time>2026-05-02T11:53:14.632Z</time></trkpt><trkpt lat="42.1999087" lon="13.6650722"><ele>605.0</ele><time>2026-05-02T11:53:15.662Z</time></trkpt><trkpt lat="42.1999956" lon="13.6649931"><ele>605.0</ele><time>2026-05-02T11:53:16.634Z</time></trkpt><trkpt lat="42.2000775" lon="13.6649229"><ele>605.0</ele><time>2026-05-02T11:53:17.648Z</time></trkpt><trkpt lat="42.2001622" lon="13.6648574"><ele>605.0</ele><time>2026-05-02T11:53:18.649Z</time></trkpt><trkpt lat="42.2002578" lon="13.6648123"><ele>605.0</ele><time>2026-05-02T11:53:19.638Z</time></trkpt><trkpt lat="42.2003587" lon="13.6647714"><ele>605.0</ele><time>2026-05-02T11:53:20.649Z</time></trkpt><trkpt lat="42.2004645" lon="13.6647289"><ele>605.0</ele><time>2026-05-02T11:53:21.646Z</time></trkpt><trkpt lat="42.2005666" lon="13.6646735"><ele>605.0</ele><time>2026-05-02T11:53:22.637Z</time></trkpt><trkpt lat="42.2006668" lon="13.6646209"><ele>604.0</ele><time>2026-05-02T11:53:23.636Z</time></trkpt><trkpt lat="42.2007576" lon="13.6645602"><ele>603.0</ele><time>2026-05-02T11:53:24.631Z</time></trkpt><trkpt lat="42.2008487" lon="13.6644909"><ele>602.0</ele><time>2026-05-02T11:53:25.655Z</time></trkpt><trkpt lat="42.20093" lon="13.6644073"><ele>601.0</ele><time>2026-05-02T11:53:26.657Z</time></trkpt><trkpt lat="42.2009939" lon="13.6643029"><ele>600.0</ele><time>2026-05-02T11:53:27.643Z</time></trkpt><trkpt lat="42.2010667" lon="13.6642075"><ele>596.25</ele><time>2026-05-02T11:53:28.635Z</time></trkpt><trkpt lat="42.2011488" lon="13.6641254"><ele>592.5</ele><time>2026-05-02T11:53:29.652Z</time></trkpt><trkpt lat="42.2012468" lon="13.6640645"><ele>588.75</ele><time>2026-05-02T11:53:30.644Z</time></trkpt><trkpt lat="42.2013558" lon="13.6640252"><ele>585.0</ele><time>2026-05-02T11:53:31.657Z</time></trkpt><trkpt lat="42.2014784" lon="13.6639815"><ele>584.2</ele><time>2026-05-02T11:53:32.648Z</time></trkpt><trkpt lat="42.2016164" lon="13.6639512"><ele>583.4</ele><time>2026-05-02T11:53:33.645Z</time></trkpt><trkpt lat="42.201751" lon="13.6638937"><ele>582.6</ele><time>2026-05-02T11:53:34.637Z</time></trkpt><trkpt lat="42.2018379" lon="13.6638405"><ele>581.8</ele><time>2026-05-02T11:53:35.647Z</time></trkpt><trkpt lat="42.2018932" lon="13.6637856"><ele>581.0</ele><time>2026-05-02T11:53:36.634Z</time></trkpt><trkpt lat="42.2019753" lon="13.6636388"><ele>578.0</ele><time>2026-05-02T11:53:38.641Z</time></trkpt><trkpt lat="42.2020409" lon="13.6635246"><ele>575.0</ele><time>2026-05-02T11:53:39.652Z</time></trkpt><trkpt lat="42.202106" lon="13.6633818"><ele>572.0</ele><time>2026-05-02T11:53:40.635Z</time></trkpt><trkpt lat="42.2021727" lon="13.6632373"><ele>569.0</ele><time>2026-05-02T11:53:41.643Z</time></trkpt><trkpt lat="42.2022386" lon="13.6630717"><ele>569.0</ele><time>2026-05-02T11:53:42.645Z</time></trkpt><trkpt lat="42.2023106" lon="13.662875"><ele>569.0</ele><time>2026-05-02T11:53:43.636Z</time></trkpt><trkpt lat="42.2023699" lon="13.6626599"><ele>569.0</ele><time>2026-05-02T11:53:44.643Z</time></trkpt><trkpt lat="42.2024343" lon="13.6624409"><ele>569.0</ele><time>2026-05-02T11:53:45.641Z</time></trkpt><trkpt lat="42.202496" lon="13.6622117"><ele>569.0</ele><time>2026-05-02T11:53:46.655Z</time></trkpt><trkpt lat="42.2025719" lon="13.6619708"><ele>569.0</ele><time>2026-05-02T11:53:47.654Z</time></trkpt><trkpt lat="42.2026291" lon="13.6617472"><ele>568.0</ele><time>2026-05-02T11:53:48.653Z</time></trkpt><trkpt lat="42.202658" lon="13.661569"><ele>567.0</ele><time>2026-05-02T11:53:49.633Z</time></trkpt><trkpt lat="42.2027015" lon="13.661421"><ele>566.0</ele><time>2026-05-02T11:53:50.652Z</time></trkpt><trkpt lat="42.2027579" lon="13.6612596"><ele>565.0</ele><time>2026-05-02T11:53:51.651Z</time></trkpt><trkpt lat="42.2028218" lon="13.6610556"><ele>563.6666666666667</ele><time>2026-05-02T11:53:52.647Z</time></trkpt><trkpt lat="42.20288" lon="13.6608379"><ele>562.3333333333334</ele><time>2026-05-02T11:53:53.637Z</time></trkpt><trkpt lat="42.2029114" lon="13.660626"><ele>561.0</ele><time>2026-05-02T11:53:54.634Z</time></trkpt><trkpt lat="42.2029432" lon="13.6604447"><ele>558.5</ele><time>2026-05-02T11:53:55.634Z</time></trkpt><trkpt lat="42.2029774" lon="13.6602636"><ele>556.0</ele><time>2026-05-02T11:53:56.645Z</time></trkpt><trkpt lat="42.2030086" lon="13.6600892"><ele>553.5</ele><time>2026-05-02T11:53:57.643Z</time></trkpt><trkpt lat="42.2030601" lon="13.6599211"><ele>551.0</ele><time>2026-05-02T11:53:58.648Z</time></trkpt><trkpt lat="42.2031275" lon="13.6597531"><ele>552.25</ele><time>2026-05-02T11:53:59.663Z</time></trkpt><trkpt lat="42.2031838" lon="13.6595841"><ele>553.5</ele><time>2026-05-02T11:54:00.642Z</time></trkpt><trkpt lat="42.203241" lon="13.6594126"><ele>554.75</ele><time>2026-05-02T11:54:01.636Z</time></trkpt><trkpt lat="42.203305" lon="13.6592457"><ele>556.0</ele><time>2026-05-02T11:54:02.648Z</time></trkpt><trkpt lat="42.2033698" lon="13.6591093"><ele>554.0</ele><time>2026-05-02T11:54:03.644Z</time></trkpt><trkpt lat="42.2034198" lon="13.6590072"><ele>552.0</ele><time>2026-05-02T11:54:04.644Z</time></trkpt><trkpt lat="42.2034718" lon="13.6589259"><ele>550.0</ele><time>2026-05-02T11:54:05.634Z</time></trkpt><trkpt lat="42.2035203" lon="13.6588365"><ele>548.0</ele><time>2026-05-02T11:54:06.644Z</time></trkpt><trkpt lat="42.2035476" lon="13.658752"><ele>546.0</ele><time>2026-05-02T11:54:07.663Z</time></trkpt><trkpt lat="42.203558" lon="13.6586486"><ele>544.0</ele><time>2026-05-02T11:54:09.624Z</time></trkpt><trkpt lat="42.2035211" lon="13.6585679"><ele>542.0</ele><time>2026-05-02T11:54:11.651Z</time></trkpt><trkpt lat="42.203463" lon="13.6585115"><ele>540.0</ele><time>2026-05-02T11:54:13.653Z</time></trkpt><trkpt lat="42.2033755" lon="13.6584762"><ele>538.0</ele><time>2026-05-02T11:54:15.65Z</time></trkpt><trkpt lat="42.2032568" lon="13.6584385"><ele>536.0</ele><time>2026-05-02T11:54:17.639Z</time></trkpt><trkpt lat="42.203181" lon="13.6584084"><ele>534.0</ele><time>2026-05-02T11:54:18.631Z</time></trkpt><trkpt lat="42.2031091" lon="13.6583766"><ele>532.0</ele><time>2026-05-02T11:54:19.643Z</time></trkpt><trkpt lat="42.2030409" lon="13.6583416"><ele>531.8333333333334</ele><time>2026-05-02T11:54:20.639Z</time></trkpt><trkpt lat="42.202962" lon="13.6583041"><ele>531.6666666666667</ele><time>2026-05-02T11:54:21.64Z</time></trkpt><trkpt lat="42.2028792" lon="13.6582603"><ele>531.5</ele><time>2026-05-02T11:54:22.64Z</time></trkpt><trkpt lat="42.2028031" lon="13.6582065"><ele>531.3333333333334</ele><time>2026-05-02T11:54:23.632Z</time></trkpt><trkpt lat="42.202742" lon="13.6581494"><ele>531.1666666666666</ele><time>2026-05-02T11:54:24.654Z</time></trkpt><trkpt lat="42.20268" lon="13.6580754"><ele>531.0</ele><time>2026-05-02T11:54:25.638Z</time></trkpt><trkpt lat="42.2026135" lon="13.6579928"><ele>531.0</ele><time>2026-05-02T11:54:26.659Z</time></trkpt><trkpt lat="42.202539" lon="13.6579145"><ele>531.0</ele><time>2026-05-02T11:54:27.643Z</time></trkpt><trkpt lat="42.2024645" lon="13.6578347"><ele>531.0</ele><time>2026-05-02T11:54:28.642Z</time></trkpt><trkpt lat="42.2023877" lon="13.6577592"><ele>531.0</ele><time>2026-05-02T11:54:29.643Z</time></trkpt><trkpt lat="42.2023083" lon="13.6576754"><ele>531.0</ele><time>2026-05-02T11:54:30.634Z</time></trkpt><trkpt lat="42.2022281" lon="13.6575957"><ele>527.5</ele><time>2026-05-02T11:54:31.642Z</time></trkpt><trkpt lat="42.2021402" lon="13.6575206"><ele>524.0</ele><time>2026-05-02T11:54:32.644Z</time></trkpt><trkpt lat="42.2020307" lon="13.6574649"><ele>520.5</ele><time>2026-05-02T11:54:33.632Z</time></trkpt><trkpt lat="42.2019082" lon="13.6574429"><ele>517.0</ele><time>2026-05-02T11:54:34.646Z</time></trkpt><trkpt lat="42.201775" lon="13.6574483"><ele>517.0</ele><time>2026-05-02T11:54:35.642Z</time></trkpt><trkpt lat="42.2016263" lon="13.6574656"><ele>517.0</ele><time>2026-05-02T11:54:36.629Z</time></trkpt><trkpt lat="42.2014819" lon="13.657493"><ele>517.0</ele><time>2026-05-02T11:54:37.645Z</time></trkpt><trkpt lat="42.2013493" lon="13.6575278"><ele>517.0</ele><time>2026-05-02T11:54:38.643Z</time></trkpt><trkpt lat="42.2012251" lon="13.6575712"><ele>517.75</ele><time>2026-05-02T11:54:39.647Z</time></trkpt><trkpt lat="42.2011038" lon="13.6576421"><ele>518.5</ele><time>2026-05-02T11:54:40.634Z</time></trkpt><trkpt lat="42.2009935" lon="13.6577623"><ele>519.25</ele><time>2026-05-02T11:54:41.641Z</time></trkpt><trkpt lat="42.2008847" lon="13.6579065"><ele>520.0</ele><time>2026-05-02T11:54:42.639Z</time></trkpt><trkpt lat="42.2007844" lon="13.6580372"><ele>520.0</ele><time>2026-05-02T11:54:43.639Z</time></trkpt><trkpt lat="42.2006759" lon="13.6581525"><ele>520.0</ele><time>2026-05-02T11:54:44.656Z</time></trkpt><trkpt lat="42.200553" lon="13.6582355"><ele>520.0</ele><time>2026-05-02T11:54:45.656Z</time></trkpt><trkpt lat="42.2004031" lon="13.6582858"><ele>520.0</ele><time>2026-05-02T11:54:46.633Z</time></trkpt><trkpt lat="42.2002234" lon="13.6583043"><ele>516.0</ele><time>2026-05-02T11:54:47.641Z</time></trkpt><trkpt lat="42.2000495" lon="13.6583359"><ele>512.0</ele><time>2026-05-02T11:54:48.631Z</time></trkpt><trkpt lat="42.1998806" lon="13.6583734"><ele>508.0</ele><time>2026-05-02T11:54:49.641Z</time></trkpt><trkpt lat="42.1997172" lon="13.6584236"><ele>508.0</ele><time>2026-05-02T11:54:50.634Z</time></trkpt><trkpt lat="42.1995603" lon="13.6585105"><ele>508.0</ele><time>2026-05-02T11:54:51.647Z</time></trkpt><trkpt lat="42.1994109" lon="13.6586452"><ele>508.0</ele><time>2026-05-02T11:54:52.641Z</time></trkpt><trkpt lat="42.1992677" lon="13.6588045"><ele>508.0</ele><time>2026-05-02T11:54:53.643Z</time></trkpt><trkpt lat="42.1991328" lon="13.6589551"><ele>508.0</ele><time>2026-05-02T11:54:54.637Z</time></trkpt><trkpt lat="42.1990015" lon="13.6590923"><ele>508.0</ele><time>2026-05-02T11:54:55.638Z</time></trkpt><trkpt lat="42.1988918" lon="13.659197"><ele>505.79999999999995</ele><time>2026-05-02T11:54:56.643Z</time></trkpt><trkpt lat="42.198798" lon="13.6592633"><ele>503.59999999999997</ele><time>2026-05-02T11:54:57.632Z</time></trkpt><trkpt lat="42.1987222" lon="13.6592947"><ele>501.40000000000003</ele><time>2026-05-02T11:54:58.637Z</time></trkpt><trkpt lat="42.1986072" lon="13.6592943"><ele>499.20000000000005</ele><time>2026-05-02T11:55:00.627Z</time></trkpt><trkpt lat="42.1984985" lon="13.6592548"><ele>497.0</ele><time>2026-05-02T11:55:02.647Z</time></trkpt><trkpt lat="42.1984011" lon="13.6592208"><ele>497.0</ele><time>2026-05-02T11:55:04.632Z</time></trkpt><trkpt lat="42.19832" lon="13.6592093"><ele>497.0</ele><time>2026-05-02T11:55:06.635Z</time></trkpt><trkpt lat="42.1982572" lon="13.6591931"><ele>497.0</ele><time>2026-05-02T11:55:08.641Z</time></trkpt><trkpt lat="42.1982036" lon="13.659146"><ele>497.0</ele><time>2026-05-02T11:55:10.629Z</time></trkpt><trkpt lat="42.1981669" lon="13.6590727"><ele>497.0</ele><time>2026-05-02T11:55:12.631Z</time></trkpt><trkpt lat="42.1981451" lon="13.6589864"><ele>497.0</ele><time>2026-05-02T11:55:14.634Z</time></trkpt><trkpt lat="42.1981177" lon="13.6588835"><ele>497.0</ele><time>2026-05-02T11:55:16.639Z</time></trkpt><trkpt lat="42.1980697" lon="13.6587282"><ele>496.66666666666663</ele><time>2026-05-02T11:55:18.636Z</time></trkpt><trkpt lat="42.1980432" lon="13.6586413"><ele>496.3333333333333</ele><time>2026-05-02T11:55:19.635Z</time></trkpt><trkpt lat="42.1980112" lon="13.6585607"><ele>496.0</ele><time>2026-05-02T11:55:20.623Z</time></trkpt><trkpt lat="42.1979691" lon="13.6584728"><ele>495.66666666666663</ele><time>2026-05-02T11:55:21.623Z</time></trkpt><trkpt lat="42.1979174" lon="13.6583812"><ele>495.3333333333333</ele><time>2026-05-02T11:55:22.654Z</time></trkpt><trkpt lat="42.197868" lon="13.6582871"><ele>495.0</ele><time>2026-05-02T11:55:23.66Z</time></trkpt><trkpt lat="42.1978151" lon="13.658192"><ele>494.6</ele><time>2026-05-02T11:55:24.631Z</time></trkpt><trkpt lat="42.197757" lon="13.6580935"><ele>494.2</ele><time>2026-05-02T11:55:25.635Z</time></trkpt><trkpt lat="42.1976944" lon="13.657992"><ele>493.79999999999995</ele><time>2026-05-02T11:55:26.651Z</time></trkpt><trkpt lat="42.1976211" lon="13.6578802"><ele>493.4</ele><time>2026-05-02T11:55:27.641Z</time></trkpt><trkpt lat="42.1975468" lon="13.6577586"><ele>493.0</ele><time>2026-05-02T11:55:28.618Z</time></trkpt><trkpt lat="42.197474" lon="13.6576397"><ele>493.0</ele><time>2026-05-02T11:55:29.63Z</time></trkpt><trkpt lat="42.1973952" lon="13.6575185"><ele>493.0</ele><time>2026-05-02T11:55:30.628Z</time></trkpt><trkpt lat="42.1973201" lon="13.6573949"><ele>493.0</ele><time>2026-05-02T11:55:31.636Z</time></trkpt><trkpt lat="42.1972454" lon="13.6572777"><ele>493.0</ele><time>2026-05-02T11:55:32.635Z</time></trkpt><trkpt lat="42.19717" lon="13.6571564"><ele>493.0</ele><time>2026-05-02T11:55:33.646Z</time></trkpt><trkpt lat="42.1970908" lon="13.65703"><ele>493.0</ele><time>2026-05-02T11:55:34.644Z</time></trkpt><trkpt lat="42.1970118" lon="13.6569062"><ele>493.0</ele><time>2026-05-02T11:55:35.635Z</time></trkpt><trkpt lat="42.1969325" lon="13.6567781"><ele>493.0</ele><time>2026-05-02T11:55:36.639Z</time></trkpt><trkpt lat="42.1968506" lon="13.6566464"><ele>493.0</ele><time>2026-05-02T11:55:37.643Z</time></trkpt><trkpt lat="42.1967618" lon="13.6565084"><ele>493.0</ele><time>2026-05-02T11:55:38.63Z</time></trkpt><trkpt lat="42.1966671" lon="13.6563654"><ele>493.0</ele><time>2026-05-02T11:55:39.639Z</time></trkpt><trkpt lat="42.1965626" lon="13.656212"><ele>493.0</ele><time>2026-05-02T11:55:40.643Z</time></trkpt><trkpt lat="42.1964473" lon="13.6560172"><ele>495.6666666666667</ele><time>2026-05-02T11:55:41.647Z</time></trkpt><trkpt lat="42.196322" lon="13.6558111"><ele>498.33333333333337</ele><time>2026-05-02T11:55:42.648Z</time></trkpt><trkpt lat="42.196187" lon="13.6556106"><ele>501.0</ele><time>2026-05-02T11:55:43.635Z</time></trkpt><trkpt lat="42.1960486" lon="13.6554019"><ele>502.33333333333337</ele><time>2026-05-02T11:55:44.659Z</time></trkpt><trkpt lat="42.1959169" lon="13.6551959"><ele>503.6666666666667</ele><time>2026-05-02T11:55:45.632Z</time></trkpt><trkpt lat="42.1957979" lon="13.6550026"><ele>505.0</ele><time>2026-05-02T11:55:46.632Z</time></trkpt><trkpt lat="42.1957042" lon="13.6547999"><ele>509.33333333333337</ele><time>2026-05-02T11:55:47.649Z</time></trkpt><trkpt lat="42.1956523" lon="13.654586"><ele>513.6666666666666</ele><time>2026-05-02T11:55:48.649Z</time></trkpt><trkpt lat="42.1956289" lon="13.6543511"><ele>518.0</ele><time>2026-05-02T11:55:49.659Z</time></trkpt><trkpt lat="42.1956361" lon="13.6540916"><ele>519.0</ele><time>2026-05-02T11:55:50.635Z</time></trkpt><trkpt lat="42.1956668" lon="13.6538101"><ele>520.0</ele><time>2026-05-02T11:55:51.647Z</time></trkpt><trkpt lat="42.1957158" lon="13.6535144"><ele>521.0</ele><time>2026-05-02T11:55:52.649Z</time></trkpt><trkpt lat="42.1957663" lon="13.6532236"><ele>521.0</ele><time>2026-05-02T11:55:53.629Z</time></trkpt><trkpt lat="42.1958233" lon="13.6529213"><ele>521.0</ele><time>2026-05-02T11:55:54.643Z</time></trkpt><trkpt lat="42.1958702" lon="13.6526202"><ele>522.6666666666666</ele><time>2026-05-02T11:55:55.65Z</time></trkpt><trkpt lat="42.1959179" lon="13.6523203"><ele>524.3333333333334</ele><time>2026-05-02T11:55:56.641Z</time></trkpt><trkpt lat="42.1959647" lon="13.6520291"><ele>526.0</ele><time>2026-05-02T11:55:57.635Z</time></trkpt><trkpt lat="42.1960118" lon="13.6517318"><ele>528.5</ele><time>2026-05-02T11:55:58.622Z</time></trkpt><trkpt lat="42.1960604" lon="13.6514415"><ele>531.0</ele><time>2026-05-02T11:55:59.623Z</time></trkpt><trkpt lat="42.1961074" lon="13.6511337"><ele>533.0</ele><time>2026-05-02T11:56:00.636Z</time></trkpt><trkpt lat="42.1961591" lon="13.6508183"><ele>535.0</ele><time>2026-05-02T11:56:01.638Z</time></trkpt><trkpt lat="42.1962097" lon="13.6505046"><ele>538.5</ele><time>2026-05-02T11:56:02.629Z</time></trkpt><trkpt lat="42.1962593" lon="13.6501966"><ele>542.0</ele><time>2026-05-02T11:56:03.665Z</time></trkpt><trkpt lat="42.1963045" lon="13.649911"><ele>542.0</ele><time>2026-05-02T11:56:04.644Z</time></trkpt><trkpt lat="42.1963496" lon="13.6496441"><ele>542.0</ele><time>2026-05-02T11:56:05.654Z</time></trkpt><trkpt lat="42.1963891" lon="13.6493977"><ele>542.0</ele><time>2026-05-02T11:56:06.626Z</time></trkpt><trkpt lat="42.1964208" lon="13.6491835"><ele>542.5</ele><time>2026-05-02T11:56:07.637Z</time></trkpt><trkpt lat="42.1964569" lon="13.6489812"><ele>543.0</ele><time>2026-05-02T11:56:08.648Z</time></trkpt><trkpt lat="42.1964945" lon="13.648801"><ele>543.5</ele><time>2026-05-02T11:56:09.628Z</time></trkpt><trkpt lat="42.1965263" lon="13.6486336"><ele>544.0</ele><time>2026-05-02T11:56:10.64Z</time></trkpt><trkpt lat="42.1965568" lon="13.6484823"><ele>544.5</ele><time>2026-05-02T11:56:11.651Z</time></trkpt><trkpt lat="42.1965831" lon="13.6483396"><ele>545.0</ele><time>2026-05-02T11:56:12.649Z</time></trkpt><trkpt lat="42.1965976" lon="13.6482192"><ele>545.5</ele><time>2026-05-02T11:56:13.63Z</time></trkpt><trkpt lat="42.1966011" lon="13.648113"><ele>546.0</ele><time>2026-05-02T11:56:14.629Z</time></trkpt><trkpt lat="42.1965796" lon="13.648025"><ele>546.5</ele><time>2026-05-02T11:56:15.644Z</time></trkpt><trkpt lat="42.196506" lon="13.6479334"><ele>547.0</ele><time>2026-05-02T11:56:17.637Z</time></trkpt><trkpt lat="42.1964024" lon="13.6479047"><ele>549.2</ele><time>2026-05-02T11:56:19.628Z</time></trkpt><trkpt lat="42.196331" lon="13.6479393"><ele>551.4000000000001</ele><time>2026-05-02T11:56:20.638Z</time></trkpt><trkpt lat="42.1962541" lon="13.6480265"><ele>553.5999999999999</ele><time>2026-05-02T11:56:21.631Z</time></trkpt><trkpt lat="42.1961754" lon="13.6481477"><ele>555.8</ele><time>2026-05-02T11:56:22.665Z</time></trkpt><trkpt lat="42.1960678" lon="13.6482691"><ele>558.0</ele><time>2026-05-02T11:56:23.637Z</time></trkpt><trkpt lat="42.1959462" lon="13.6483817"><ele>558.0</ele><time>2026-05-02T11:56:24.638Z</time></trkpt><trkpt lat="42.1957989" lon="13.6484906"><ele>558.0</ele><time>2026-05-02T11:56:25.636Z</time></trkpt><trkpt lat="42.1956291" lon="13.6485919"><ele>558.0</ele><time>2026-05-02T11:56:26.625Z</time></trkpt><trkpt lat="42.1954613" lon="13.6486903"><ele>561.6666666666666</ele><time>2026-05-02T11:56:27.642Z</time></trkpt><trkpt lat="42.1953087" lon="13.6488349"><ele>565.3333333333333</ele><time>2026-05-02T11:56:28.638Z</time></trkpt><trkpt lat="42.1951708" lon="13.6490175"><ele>569.0</ele><time>2026-05-02T11:56:29.634Z</time></trkpt><trkpt lat="42.1950467" lon="13.64926"><ele>566.3333333333333</ele><time>2026-05-02T11:56:30.636Z</time></trkpt><trkpt lat="42.194929" lon="13.6494862"><ele>563.6666666666666</ele><time>2026-05-02T11:56:31.636Z</time></trkpt><trkpt lat="42.1948247" lon="13.6497109"><ele>561.0</ele><time>2026-05-02T11:56:32.636Z</time></trkpt><trkpt lat="42.1947232" lon="13.6499094"><ele>564.0</ele><time>2026-05-02T11:56:33.643Z</time></trkpt><trkpt lat="42.1946098" lon="13.6500766"><ele>567.0</ele><time>2026-05-02T11:56:34.645Z</time></trkpt><trkpt lat="42.1944601" lon="13.6502297"><ele>570.0</ele><time>2026-05-02T11:56:35.647Z</time></trkpt><trkpt lat="42.1942758" lon="13.6503547"><ele>570.0</ele><time>2026-05-02T11:56:36.638Z</time></trkpt><trkpt lat="42.1940792" lon="13.6504742"><ele>570.0</ele><time>2026-05-02T11:56:37.643Z</time></trkpt><trkpt lat="42.1938869" lon="13.6505928"><ele>570.0</ele><time>2026-05-02T11:56:38.645Z</time></trkpt><trkpt lat="42.1937139" lon="13.6507297"><ele>573.6666666666666</ele><time>2026-05-02T11:56:39.646Z</time></trkpt><trkpt lat="42.1935496" lon="13.650874"><ele>577.3333333333333</ele><time>2026-05-02T11:56:40.636Z</time></trkpt><trkpt lat="42.1934159" lon="13.6510534"><ele>581.0</ele><time>2026-05-02T11:56:41.634Z</time></trkpt><trkpt lat="42.1933122" lon="13.6512528"><ele>581.0</ele><time>2026-05-02T11:56:42.635Z</time></trkpt><trkpt lat="42.1932595" lon="13.6514439"><ele>581.0</ele><time>2026-05-02T11:56:43.651Z</time></trkpt><trkpt lat="42.1932608" lon="13.6516267"><ele>581.0</ele><time>2026-05-02T11:56:44.629Z</time></trkpt><trkpt lat="42.1932777" lon="13.6518253"><ele>581.0</ele><time>2026-05-02T11:56:45.635Z</time></trkpt><trkpt lat="42.1933116" lon="13.6520339"><ele>583.0</ele><time>2026-05-02T11:56:46.635Z</time></trkpt><trkpt lat="42.1933307" lon="13.6522431"><ele>585.0</ele><time>2026-05-02T11:56:47.638Z</time></trkpt><trkpt lat="42.1933327" lon="13.6524602"><ele>587.0</ele><time>2026-05-02T11:56:48.626Z</time></trkpt><trkpt lat="42.1933242" lon="13.6526775"><ele>585.75</ele><time>2026-05-02T11:56:49.633Z</time></trkpt><trkpt lat="42.193301" lon="13.6528747"><ele>584.5</ele><time>2026-05-02T11:56:50.644Z</time></trkpt><trkpt lat="42.1932546" lon="13.6530355"><ele>583.25</ele><time>2026-05-02T11:56:51.641Z</time></trkpt><trkpt lat="42.193182" lon="13.6531441"><ele>582.0</ele><time>2026-05-02T11:56:52.649Z</time></trkpt><trkpt lat="42.1930917" lon="13.6531796"><ele>584.2</ele><time>2026-05-02T11:56:53.637Z</time></trkpt><trkpt lat="42.1930324" lon="13.653145"><ele>586.4000000000001</ele><time>2026-05-02T11:56:54.643Z</time></trkpt><trkpt lat="42.1929938" lon="13.6529571"><ele>588.5999999999999</ele><time>2026-05-02T11:56:56.638Z</time></trkpt><trkpt lat="42.193012" lon="13.6528184"><ele>590.8</ele><time>2026-05-02T11:56:57.628Z</time></trkpt><trkpt lat="42.1930424" lon="13.6526746"><ele>593.0</ele><time>2026-05-02T11:56:58.644Z</time></trkpt><trkpt lat="42.1930836" lon="13.6525095"><ele>596.3333333333333</ele><time>2026-05-02T11:56:59.638Z</time></trkpt><trkpt lat="42.1930999" lon="13.6523557"><ele>599.6666666666666</ele><time>2026-05-02T11:57:00.633Z</time></trkpt><trkpt lat="42.1930824" lon="13.6522234"><ele>603.0</ele><time>2026-05-02T11:57:01.633Z</time></trkpt><trkpt lat="42.1930467" lon="13.6521369"><ele>606.3333333333334</ele><time>2026-05-02T11:57:02.639Z</time></trkpt><trkpt lat="42.1929723" lon="13.6521102"><ele>609.6666666666667</ele><time>2026-05-02T11:57:03.643Z</time></trkpt><trkpt lat="42.1929073" lon="13.6521265"><ele>613.0</ele><time>2026-05-02T11:57:04.639Z</time></trkpt><trkpt lat="42.1928798" lon="13.652223"><ele>613.0</ele><time>2026-05-02T11:57:05.649Z</time></trkpt><trkpt lat="42.1928556" lon="13.6523733"><ele>613.0</ele><time>2026-05-02T11:57:06.652Z</time></trkpt><trkpt lat="42.1928303" lon="13.6525223"><ele>613.0</ele><time>2026-05-02T11:57:07.649Z</time></trkpt><trkpt lat="42.1927741" lon="13.6526503"><ele>613.0</ele><time>2026-05-02T11:57:08.643Z</time></trkpt><trkpt lat="42.192681" lon="13.6527772"><ele>613.0</ele><time>2026-05-02T11:57:09.637Z</time></trkpt><trkpt lat="42.1925698" lon="13.6528567"><ele>613.0</ele><time>2026-05-02T11:57:10.642Z</time></trkpt><trkpt lat="42.1924799" lon="13.652873"><ele>613.0</ele><time>2026-05-02T11:57:11.632Z</time></trkpt><trkpt lat="42.1924076" lon="13.6527879"><ele>613.0</ele><time>2026-05-02T11:57:13.644Z</time></trkpt><trkpt lat="42.1924629" lon="13.6526198"><ele>613.0</ele><time>2026-05-02T11:57:15.637Z</time></trkpt><trkpt lat="42.1925428" lon="13.6525469"><ele>613.0</ele><time>2026-05-02T11:57:16.65Z</time></trkpt><trkpt lat="42.1926297" lon="13.6524796"><ele>613.0</ele><time>2026-05-02T11:57:17.655Z</time></trkpt><trkpt lat="42.1926764" lon="13.6523925"><ele>613.0</ele><time>2026-05-02T11:57:18.65Z</time></trkpt><trkpt lat="42.1926754" lon="13.6522859"><ele>613.0</ele><time>2026-05-02T11:57:19.635Z</time></trkpt><trkpt lat="42.1926226" lon="13.6522104"><ele>613.0</ele><time>2026-05-02T11:57:20.64Z</time></trkpt><trkpt lat="42.1925522" lon="13.6521839"><ele>613.0</ele><time>2026-05-02T11:57:21.644Z</time></trkpt><trkpt lat="42.1924598" lon="13.6522276"><ele>613.0</ele><time>2026-05-02T11:57:22.63Z</time></trkpt><trkpt lat="42.1923615" lon="13.6523016"><ele>613.0</ele><time>2026-05-02T11:57:23.652Z</time></trkpt><trkpt lat="42.1922541" lon="13.6524311"><ele>613.0</ele><time>2026-05-02T11:57:24.63Z</time></trkpt><trkpt lat="42.1921354" lon="13.6525598"><ele>613.0</ele><time>2026-05-02T11:57:25.638Z</time></trkpt><trkpt lat="42.1919987" lon="13.6526631"><ele>617.6666666666667</ele><time>2026-05-02T11:57:26.624Z</time></trkpt><trkpt lat="42.191834" lon="13.6527176"><ele>622.3333333333334</ele><time>2026-05-02T11:57:27.655Z</time></trkpt><trkpt lat="42.1916544" lon="13.6527408"><ele>627.0</ele><time>2026-05-02T11:57:28.635Z</time></trkpt><trkpt lat="42.1914822" lon="13.6527688"><ele>628.0</ele><time>2026-05-02T11:57:29.626Z</time></trkpt><trkpt lat="42.1913177" lon="13.6528432"><ele>629.0</ele><time>2026-05-02T11:57:30.633Z</time></trkpt><trkpt lat="42.1911599" lon="13.6529678"><ele>630.0</ele><time>2026-05-02T11:57:31.62Z</time></trkpt><trkpt lat="42.1909999" lon="13.6531239"><ele>630.0</ele><time>2026-05-02T11:57:32.639Z</time></trkpt><trkpt lat="42.1908246" lon="13.6532761"><ele>630.0</ele><time>2026-05-02T11:57:33.638Z</time></trkpt><trkpt lat="42.1906446" lon="13.6533988"><ele>630.0</ele><time>2026-05-02T11:57:34.659Z</time></trkpt><trkpt lat="42.1904379" lon="13.6534951"><ele>632.3333333333334</ele><time>2026-05-02T11:57:35.624Z</time></trkpt><trkpt lat="42.1902325" lon="13.6535643"><ele>634.6666666666667</ele><time>2026-05-02T11:57:36.636Z</time></trkpt><trkpt lat="42.1900553" lon="13.653631"><ele>637.0</ele><time>2026-05-02T11:57:37.628Z</time></trkpt><trkpt lat="42.1898964" lon="13.6537058"><ele>640.0</ele><time>2026-05-02T11:57:38.622Z</time></trkpt><trkpt lat="42.1897754" lon="13.6537919"><ele>643.0</ele><time>2026-05-02T11:57:39.647Z</time></trkpt><trkpt lat="42.1897148" lon="13.6539066"><ele>646.0</ele><time>2026-05-02T11:57:40.634Z</time></trkpt><trkpt lat="42.1896933" lon="13.6540224"><ele>649.0</ele><time>2026-05-02T11:57:41.649Z</time></trkpt><trkpt lat="42.1897137" lon="13.654145"><ele>652.0</ele><time>2026-05-02T11:57:42.631Z</time></trkpt><trkpt lat="42.1897603" lon="13.6542898"><ele>652.0</ele><time>2026-05-02T11:57:43.637Z</time></trkpt><trkpt lat="42.189831" lon="13.6544532"><ele>652.0</ele><time>2026-05-02T11:57:44.632Z</time></trkpt><trkpt lat="42.1898983" lon="13.6546248"><ele>652.0</ele><time>2026-05-02T11:57:45.633Z</time></trkpt><trkpt lat="42.1899527" lon="13.6547917"><ele>652.0</ele><time>2026-05-02T11:57:46.633Z</time></trkpt><trkpt lat="42.1899881" lon="13.6549455"><ele>652.0</ele><time>2026-05-02T11:57:47.642Z</time></trkpt><trkpt lat="42.1899903" lon="13.6550886"><ele>652.0</ele><time>2026-05-02T11:57:48.641Z</time></trkpt><trkpt lat="42.1899305" lon="13.6551937"><ele>652.0</ele><time>2026-05-02T11:57:49.638Z</time></trkpt><trkpt lat="42.1898457" lon="13.6552655"><ele>652.0</ele><time>2026-05-02T11:57:50.642Z</time></trkpt><trkpt lat="42.1897334" lon="13.6553315"><ele>652.0</ele><time>2026-05-02T11:57:51.625Z</time></trkpt><trkpt lat="42.1896068" lon="13.6553884"><ele>652.0</ele><time>2026-05-02T11:57:52.634Z</time></trkpt><trkpt lat="42.1894606" lon="13.6554548"><ele>652.0</ele><time>2026-05-02T11:57:53.642Z</time></trkpt><trkpt lat="42.1893085" lon="13.65553"><ele>652.0</ele><time>2026-05-02T11:57:54.631Z</time></trkpt><trkpt lat="42.1891395" lon="13.6556161"><ele>654.3333333333334</ele><time>2026-05-02T11:57:55.637Z</time></trkpt><trkpt lat="42.188945" lon="13.6557231"><ele>656.6666666666666</ele><time>2026-05-02T11:57:56.642Z</time></trkpt><trkpt lat="42.1887408" lon="13.6558134"><ele>659.0</ele><time>2026-05-02T11:57:57.629Z</time></trkpt><trkpt lat="42.1885603" lon="13.655877"><ele>659.0</ele><time>2026-05-02T11:57:58.637Z</time></trkpt><trkpt lat="42.1884069" lon="13.6559454"><ele>659.0</ele><time>2026-05-02T11:57:59.629Z</time></trkpt><trkpt lat="42.1882743" lon="13.656007"><ele>659.0</ele><time>2026-05-02T11:58:00.643Z</time></trkpt><trkpt lat="42.188186" lon="13.6560846"><ele>659.0</ele><time>2026-05-02T11:58:01.635Z</time></trkpt><trkpt lat="42.1881417" lon="13.6561701"><ele>660.5</ele><time>2026-05-02T11:58:02.635Z</time></trkpt><trkpt lat="42.1881877" lon="13.6563106"><ele>662.0</ele><time>2026-05-02T11:58:04.65Z</time></trkpt><trkpt lat="42.1882897" lon="13.6563359"><ele>663.5</ele><time>2026-05-02T11:58:05.644Z</time></trkpt><trkpt lat="42.1884309" lon="13.6563339"><ele>665.0</ele><time>2026-05-02T11:58:06.63Z</time></trkpt><trkpt lat="42.1885857" lon="13.6563214"><ele>665.0</ele><time>2026-05-02T11:58:07.646Z</time></trkpt><trkpt lat="42.1887639" lon="13.6563017"><ele>665.0</ele><time>2026-05-02T11:58:08.632Z</time></trkpt><trkpt lat="42.1889579" lon="13.6562782"><ele>665.0</ele><time>2026-05-02T11:58:09.653Z</time></trkpt><trkpt lat="42.189135" lon="13.6562599"><ele>664.0</ele><time>2026-05-02T11:58:10.649Z</time></trkpt><trkpt lat="42.1892863" lon="13.6562371"><ele>663.0</ele><time>2026-05-02T11:58:11.632Z</time></trkpt><trkpt lat="42.1893982" lon="13.6562475"><ele>662.0</ele><time>2026-05-02T11:58:12.658Z</time></trkpt><trkpt lat="42.189467" lon="13.6563335"><ele>661.0</ele><time>2026-05-02T11:58:13.634Z</time></trkpt><trkpt lat="42.1895008" lon="13.6564111"><ele>660.0</ele><time>2026-05-02T11:58:14.636Z</time></trkpt><trkpt lat="42.1894149" lon="13.6565458"><ele>660.0</ele><time>2026-05-02T11:58:16.655Z</time></trkpt><trkpt lat="42.1893153" lon="13.6565596"><ele>660.0</ele><time>2026-05-02T11:58:17.644Z</time></trkpt><trkpt lat="42.1891703" lon="13.6565684"><ele>660.0</ele><time>2026-05-02T11:58:18.647Z</time></trkpt><trkpt lat="42.1890085" lon="13.6565414"><ele>660.0</ele><time>2026-05-02T11:58:19.665Z</time></trkpt><trkpt lat="42.1888199" lon="13.6565257"><ele>661.6666666666666</ele><time>2026-05-02T11:58:20.632Z</time></trkpt><trkpt lat="42.188617" lon="13.6565341"><ele>663.3333333333333</ele><time>2026-05-02T11:58:21.644Z</time></trkpt><trkpt lat="42.1884017" lon="13.6565509"><ele>665.0</ele><time>2026-05-02T11:58:22.638Z</time></trkpt><trkpt lat="42.1881663" lon="13.6565744"><ele>667.0</ele><time>2026-05-02T11:58:23.638Z</time></trkpt><trkpt lat="42.1879113" lon="13.6566057"><ele>669.0</ele><time>2026-05-02T11:58:24.659Z</time></trkpt><trkpt lat="42.1876423" lon="13.6566527"><ele>669.0</ele><time>2026-05-02T11:58:25.657Z</time></trkpt><trkpt lat="42.1873695" lon="13.6567133"><ele>669.0</ele><time>2026-05-02T11:58:26.653Z</time></trkpt><trkpt lat="42.1871005" lon="13.6567817"><ele>672.5</ele><time>2026-05-02T11:58:27.629Z</time></trkpt><trkpt lat="42.186816" lon="13.6568488"><ele>676.0</ele><time>2026-05-02T11:58:28.648Z</time></trkpt><trkpt lat="42.1865237" lon="13.6569135"><ele>686.0</ele><time>2026-05-02T11:58:29.623Z</time></trkpt><trkpt lat="42.1862331" lon="13.6569901"><ele>696.0</ele><time>2026-05-02T11:58:30.643Z</time></trkpt><trkpt lat="42.1859643" lon="13.6570535"><ele>696.0</ele><time>2026-05-02T11:58:31.631Z</time></trkpt><trkpt lat="42.1857252" lon="13.6571247"><ele>696.0</ele><time>2026-05-02T11:58:32.643Z</time></trkpt><trkpt lat="42.1855152" lon="13.6571861"><ele>694.0</ele><time>2026-05-02T11:58:33.646Z</time></trkpt><trkpt lat="42.1853308" lon="13.6572662"><ele>692.0</ele><time>2026-05-02T11:58:34.633Z</time></trkpt><trkpt lat="42.185142" lon="13.6573982"><ele>690.0</ele><time>2026-05-02T11:58:35.63Z</time></trkpt><trkpt lat="42.1849521" lon="13.6575571"><ele>689.3333333333334</ele><time>2026-05-02T11:58:36.631Z</time></trkpt><trkpt lat="42.1847738" lon="13.6577532"><ele>688.6666666666667</ele><time>2026-05-02T11:58:37.652Z</time></trkpt><trkpt lat="42.1846037" lon="13.6579366"><ele>688.0</ele><time>2026-05-02T11:58:38.629Z</time></trkpt><trkpt lat="42.1844447" lon="13.6581019"><ele>688.3333333333334</ele><time>2026-05-02T11:58:39.644Z</time></trkpt><trkpt lat="42.1842846" lon="13.6582623"><ele>688.6666666666666</ele><time>2026-05-02T11:58:40.64Z</time></trkpt><trkpt lat="42.1841064" lon="13.6584242"><ele>689.0</ele><time>2026-05-02T11:58:41.635Z</time></trkpt><trkpt lat="42.1839067" lon="13.6585789"><ele>685.0</ele><time>2026-05-02T11:58:42.635Z</time></trkpt><trkpt lat="42.1836818" lon="13.658738"><ele>681.0</ele><time>2026-05-02T11:58:43.638Z</time></trkpt><trkpt lat="42.183428" lon="13.6588762"><ele>684.5</ele><time>2026-05-02T11:58:44.636Z</time></trkpt><trkpt lat="42.1831675" lon="13.6590168"><ele>688.0</ele><time>2026-05-02T11:58:45.628Z</time></trkpt><trkpt lat="42.182913" lon="13.6591398"><ele>688.0</ele><time>2026-05-02T11:58:46.641Z</time></trkpt><trkpt lat="42.1826735" lon="13.6592571"><ele>688.0</ele><time>2026-05-02T11:58:47.632Z</time></trkpt><trkpt lat="42.1824491" lon="13.659374"><ele>686.5</ele><time>2026-05-02T11:58:48.657Z</time></trkpt><trkpt lat="42.182221" lon="13.6595258"><ele>685.0</ele><time>2026-05-02T11:58:49.635Z</time></trkpt><trkpt lat="42.1819948" lon="13.6597387"><ele>685.0</ele><time>2026-05-02T11:58:50.655Z</time></trkpt><trkpt lat="42.1817714" lon="13.659966"><ele>685.0</ele><time>2026-05-02T11:58:51.633Z</time></trkpt><trkpt lat="42.1815461" lon="13.6602033"><ele>687.0</ele><time>2026-05-02T11:58:52.639Z</time></trkpt><trkpt lat="42.1813458" lon="13.6604404"><ele>689.0</ele><time>2026-05-02T11:58:53.641Z</time></trkpt><trkpt lat="42.1811599" lon="13.6606835"><ele>689.0</ele><time>2026-05-02T11:58:54.631Z</time></trkpt><trkpt lat="42.1809804" lon="13.6609423"><ele>689.0</ele><time>2026-05-02T11:58:55.649Z</time></trkpt><trkpt lat="42.1808011" lon="13.6611891"><ele>689.5</ele><time>2026-05-02T11:58:56.63Z</time></trkpt><trkpt lat="42.1806351" lon="13.661415"><ele>690.0</ele><time>2026-05-02T11:58:57.643Z</time></trkpt><trkpt lat="42.1804549" lon="13.6616263"><ele>690.0</ele><time>2026-05-02T11:58:58.643Z</time></trkpt><trkpt lat="42.1802467" lon="13.6618387"><ele>690.0</ele><time>2026-05-02T11:58:59.633Z</time></trkpt><trkpt lat="42.1800326" lon="13.6620456"><ele>688.0</ele><time>2026-05-02T11:59:00.636Z</time></trkpt><trkpt lat="42.1798287" lon="13.6622733"><ele>686.0</ele><time>2026-05-02T11:59:01.635Z</time></trkpt><trkpt lat="42.1796277" lon="13.6625224"><ele>686.0</ele><time>2026-05-02T11:59:02.652Z</time></trkpt><trkpt lat="42.1794369" lon="13.662781"><ele>686.0</ele><time>2026-05-02T11:59:03.637Z</time></trkpt><trkpt lat="42.1792512" lon="13.6630418"><ele>686.5</ele><time>2026-05-02T11:59:04.653Z</time></trkpt><trkpt lat="42.1790823" lon="13.6632731"><ele>687.0</ele><time>2026-05-02T11:59:05.632Z</time></trkpt><trkpt lat="42.1789215" lon="13.6634715"><ele>689.3333333333334</ele><time>2026-05-02T11:59:06.633Z</time></trkpt><trkpt lat="42.1787554" lon="13.6636724"><ele>691.6666666666667</ele><time>2026-05-02T11:59:07.633Z</time></trkpt><trkpt lat="42.1785848" lon="13.6638634"><ele>694.0</ele><time>2026-05-02T11:59:08.637Z</time></trkpt><trkpt lat="42.1783969" lon="13.6640351"><ele>694.0</ele><time>2026-05-02T11:59:09.627Z</time></trkpt><trkpt lat="42.1781942" lon="13.66419"><ele>694.0</ele><time>2026-05-02T11:59:10.621Z</time></trkpt><trkpt lat="42.1779897" lon="13.6643314"><ele>696.6666666666667</ele><time>2026-05-02T11:59:11.63Z</time></trkpt><trkpt lat="42.1778011" lon="13.6644811"><ele>699.3333333333334</ele><time>2026-05-02T11:59:12.637Z</time></trkpt><trkpt lat="42.1776245" lon="13.6646152"><ele>702.0</ele><time>2026-05-02T11:59:13.629Z</time></trkpt><trkpt lat="42.1774569" lon="13.6647594"><ele>705.0</ele><time>2026-05-02T11:59:14.623Z</time></trkpt><trkpt lat="42.1773033" lon="13.664933"><ele>708.0</ele><time>2026-05-02T11:59:15.614Z</time></trkpt><trkpt lat="42.177166" lon="13.6651239"><ele>711.0</ele><time>2026-05-02T11:59:16.618Z</time></trkpt><trkpt lat="42.1770396" lon="13.665304"><ele>712.0</ele><time>2026-05-02T11:59:17.633Z</time></trkpt><trkpt lat="42.1769173" lon="13.6654736"><ele>713.0</ele><time>2026-05-02T11:59:18.617Z</time></trkpt><trkpt lat="42.1767943" lon="13.6656238"><ele>714.0</ele><time>2026-05-02T11:59:19.628Z</time></trkpt><trkpt lat="42.1766679" lon="13.6657635"><ele>714.0</ele><time>2026-05-02T11:59:20.633Z</time></trkpt><trkpt lat="42.1765477" lon="13.665887"><ele>714.0</ele><time>2026-05-02T11:59:21.628Z</time></trkpt><trkpt lat="42.1764436" lon="13.6659824"><ele>714.0</ele><time>2026-05-02T11:59:22.634Z</time></trkpt><trkpt lat="42.1763508" lon="13.6660548"><ele>714.0</ele><time>2026-05-02T11:59:23.643Z</time></trkpt><trkpt lat="42.1762532" lon="13.6660819"><ele>717.25</ele><time>2026-05-02T11:59:24.648Z</time></trkpt><trkpt lat="42.1761411" lon="13.666074"><ele>720.5</ele><time>2026-05-02T11:59:25.644Z</time></trkpt><trkpt lat="42.175996" lon="13.6660418"><ele>723.75</ele><time>2026-05-02T11:59:26.649Z</time></trkpt><trkpt lat="42.1758292" lon="13.6659825"><ele>727.0</ele><time>2026-05-02T11:59:27.632Z</time></trkpt><trkpt lat="42.1756613" lon="13.6659267"><ele>730.0</ele><time>2026-05-02T11:59:28.637Z</time></trkpt><trkpt lat="42.1755027" lon="13.6658553"><ele>733.0</ele><time>2026-05-02T11:59:29.653Z</time></trkpt><trkpt lat="42.1753484" lon="13.6657556"><ele>736.0</ele><time>2026-05-02T11:59:30.639Z</time></trkpt><trkpt lat="42.1751784" lon="13.6656378"><ele>736.0</ele><time>2026-05-02T11:59:31.623Z</time></trkpt><trkpt lat="42.174987" lon="13.6655114"><ele>736.0</ele><time>2026-05-02T11:59:32.65Z</time></trkpt><trkpt lat="42.1747672" lon="13.6653672"><ele>742.5</ele><time>2026-05-02T11:59:33.627Z</time></trkpt><trkpt lat="42.174546" lon="13.665228"><ele>749.0</ele><time>2026-05-02T11:59:34.646Z</time></trkpt><trkpt lat="42.1743277" lon="13.6650763"><ele>749.0</ele><time>2026-05-02T11:59:35.635Z</time></trkpt><trkpt lat="42.1741192" lon="13.6649333"><ele>749.0</ele><time>2026-05-02T11:59:36.627Z</time></trkpt><trkpt lat="42.173931" lon="13.6648142"><ele>749.0</ele><time>2026-05-02T11:59:37.641Z</time></trkpt><trkpt lat="42.1737657" lon="13.664712"><ele>754.0</ele><time>2026-05-02T11:59:38.629Z</time></trkpt><trkpt lat="42.1736069" lon="13.6646131"><ele>759.0</ele><time>2026-05-02T11:59:39.649Z</time></trkpt><trkpt lat="42.1734579" lon="13.6645158"><ele>764.0</ele><time>2026-05-02T11:59:40.627Z</time></trkpt><trkpt lat="42.1733088" lon="13.6644173"><ele>768.6666666666666</ele><time>2026-05-02T11:59:41.622Z</time></trkpt><trkpt lat="42.1731635" lon="13.6643132"><ele>773.3333333333333</ele><time>2026-05-02T11:59:42.629Z</time></trkpt><trkpt lat="42.1730156" lon="13.6641886"><ele>778.0</ele><time>2026-05-02T11:59:43.638Z</time></trkpt><trkpt lat="42.1728691" lon="13.6640545"><ele>778.0</ele><time>2026-05-02T11:59:44.621Z</time></trkpt><trkpt lat="42.1727299" lon="13.6639194"><ele>778.0</ele><time>2026-05-02T11:59:45.637Z</time></trkpt><trkpt lat="42.1725937" lon="13.6637874"><ele>778.0</ele><time>2026-05-02T11:59:46.623Z</time></trkpt><trkpt lat="42.1724689" lon="13.6636521"><ele>781.6666666666666</ele><time>2026-05-02T11:59:47.639Z</time></trkpt><trkpt lat="42.1723553" lon="13.6635138"><ele>785.3333333333333</ele><time>2026-05-02T11:59:48.626Z</time></trkpt><trkpt lat="42.1722583" lon="13.6633532"><ele>789.0</ele><time>2026-05-02T11:59:49.637Z</time></trkpt><trkpt lat="42.1721771" lon="13.6631725"><ele>789.0</ele><time>2026-05-02T11:59:50.622Z</time></trkpt><trkpt lat="42.1721024" lon="13.6629633"><ele>789.0</ele><time>2026-05-02T11:59:51.641Z</time></trkpt><trkpt lat="42.1720198" lon="13.6627513"><ele>789.0</ele><time>2026-05-02T11:59:52.624Z</time></trkpt><trkpt lat="42.1719263" lon="13.6625248"><ele>790.0</ele><time>2026-05-02T11:59:53.649Z</time></trkpt><trkpt lat="42.1718242" lon="13.6623008"><ele>791.0</ele><time>2026-05-02T11:59:54.638Z</time></trkpt><trkpt lat="42.171718" lon="13.6620707"><ele>792.0</ele><time>2026-05-02T11:59:55.662Z</time></trkpt><trkpt lat="42.1716133" lon="13.6618435"><ele>801.3333333333333</ele><time>2026-05-02T11:59:56.647Z</time></trkpt><trkpt lat="42.1715103" lon="13.6616232"><ele>810.6666666666666</ele><time>2026-05-02T11:59:57.626Z</time></trkpt><trkpt lat="42.1714249" lon="13.6614286"><ele>820.0</ele><time>2026-05-02T11:59:58.635Z</time></trkpt><trkpt lat="42.171356" lon="13.6612703"><ele>820.0</ele><time>2026-05-02T11:59:59.645Z</time></trkpt><trkpt lat="42.1713" lon="13.661132"><ele>820.0</ele><time>2026-05-02T12:00:00.619Z</time></trkpt><trkpt lat="42.1712321" lon="13.6610095"><ele>820.0</ele><time>2026-05-02T12:00:01.641Z</time></trkpt><trkpt lat="42.1711461" lon="13.6609064"><ele>820.0</ele><time>2026-05-02T12:00:02.644Z</time></trkpt><trkpt lat="42.1710377" lon="13.6608209"><ele>819.6666666666666</ele><time>2026-05-02T12:00:03.635Z</time></trkpt><trkpt lat="42.1708903" lon="13.6607669"><ele>819.3333333333333</ele><time>2026-05-02T12:00:04.631Z</time></trkpt><trkpt lat="42.1707249" lon="13.6607239"><ele>819.0</ele><time>2026-05-02T12:00:05.639Z</time></trkpt><trkpt lat="42.1705471" lon="13.6606585"><ele>825.3333333333333</ele><time>2026-05-02T12:00:06.622Z</time></trkpt><trkpt lat="42.1703736" lon="13.6605707"><ele>831.6666666666666</ele><time>2026-05-02T12:00:07.625Z</time></trkpt><trkpt lat="42.1701977" lon="13.6604735"><ele>838.0</ele><time>2026-05-02T12:00:08.627Z</time></trkpt><trkpt lat="42.1700466" lon="13.6603784"><ele>838.0</ele><time>2026-05-02T12:00:09.64Z</time></trkpt><trkpt lat="42.1699129" lon="13.660295"><ele>838.0</ele><time>2026-05-02T12:00:10.631Z</time></trkpt><trkpt lat="42.169783" lon="13.660242"><ele>838.0</ele><time>2026-05-02T12:00:11.629Z</time></trkpt><trkpt lat="42.1696356" lon="13.6602086"><ele>838.0</ele><time>2026-05-02T12:00:12.626Z</time></trkpt><trkpt lat="42.169464" lon="13.660179"><ele>844.6666666666666</ele><time>2026-05-02T12:00:13.64Z</time></trkpt><trkpt lat="42.1692974" lon="13.6601269"><ele>851.3333333333333</ele><time>2026-05-02T12:00:14.624Z</time></trkpt><trkpt lat="42.1691427" lon="13.660059"><ele>858.0</ele><time>2026-05-02T12:00:15.634Z</time></trkpt><trkpt lat="42.1690037" lon="13.6599976"><ele>861.5</ele><time>2026-05-02T12:00:16.622Z</time></trkpt><trkpt lat="42.168892" lon="13.6599379"><ele>865.0</ele><time>2026-05-02T12:00:17.635Z</time></trkpt><trkpt lat="42.1687799" lon="13.6599122"><ele>868.5</ele><time>2026-05-02T12:00:18.623Z</time></trkpt><trkpt lat="42.1686798" lon="13.6599423"><ele>872.0</ele><time>2026-05-02T12:00:19.626Z</time></trkpt><trkpt lat="42.1685647" lon="13.660006"><ele>872.0</ele><time>2026-05-02T12:00:20.63Z</time></trkpt><trkpt lat="42.1684252" lon="13.6601019"><ele>872.0</ele><time>2026-05-02T12:00:21.62Z</time></trkpt><trkpt lat="42.1682612" lon="13.6602006"><ele>872.0</ele><time>2026-05-02T12:00:22.627Z</time></trkpt><trkpt lat="42.1680948" lon="13.6603134"><ele>876.3333333333334</ele><time>2026-05-02T12:00:23.633Z</time></trkpt><trkpt lat="42.1679374" lon="13.6604492"><ele>880.6666666666667</ele><time>2026-05-02T12:00:24.632Z</time></trkpt><trkpt lat="42.1677832" lon="13.6605929"><ele>885.0</ele><time>2026-05-02T12:00:25.629Z</time></trkpt><trkpt lat="42.1676233" lon="13.6607365"><ele>885.0</ele><time>2026-05-02T12:00:26.624Z</time></trkpt><trkpt lat="42.1674637" lon="13.6608704"><ele>885.0</ele><time>2026-05-02T12:00:27.627Z</time></trkpt><trkpt lat="42.167301" lon="13.6609907"><ele>885.0</ele><time>2026-05-02T12:00:28.637Z</time></trkpt><trkpt lat="42.1671471" lon="13.6611073"><ele>888.6666666666667</ele><time>2026-05-02T12:00:29.627Z</time></trkpt><trkpt lat="42.1669963" lon="13.6612349"><ele>892.3333333333334</ele><time>2026-05-02T12:00:30.63Z</time></trkpt><trkpt lat="42.1668558" lon="13.6613756"><ele>896.0</ele><time>2026-05-02T12:00:31.637Z</time></trkpt><trkpt lat="42.1667344" lon="13.6615491"><ele>896.0</ele><time>2026-05-02T12:00:32.626Z</time></trkpt><trkpt lat="42.166621" lon="13.6617496"><ele>896.0</ele><time>2026-05-02T12:00:33.652Z</time></trkpt><trkpt lat="42.1665093" lon="13.6619377"><ele>896.0</ele><time>2026-05-02T12:00:34.629Z</time></trkpt><trkpt lat="42.1663946" lon="13.6621186"><ele>897.25</ele><time>2026-05-02T12:00:35.645Z</time></trkpt><trkpt lat="42.1662857" lon="13.6622874"><ele>898.5</ele><time>2026-05-02T12:00:36.644Z</time></trkpt><trkpt lat="42.1661836" lon="13.6624266"><ele>899.75</ele><time>2026-05-02T12:00:37.639Z</time></trkpt><trkpt lat="42.1660948" lon="13.6625147"><ele>901.0</ele><time>2026-05-02T12:00:38.641Z</time></trkpt><trkpt lat="42.1660153" lon="13.6625572"><ele>900.9999999999999</ele><time>2026-05-02T12:00:39.628Z</time></trkpt><trkpt lat="42.1659308" lon="13.6626191"><ele>901.0</ele><time>2026-05-02T12:00:40.631Z</time></trkpt><trkpt lat="42.1658647" lon="13.6626771"><ele>901.0</ele><time>2026-05-02T12:00:41.635Z</time></trkpt><trkpt lat="42.1658038" lon="13.6627359"><ele>901.0</ele><time>2026-05-02T12:00:42.651Z</time></trkpt><trkpt lat="42.1657425" lon="13.662796"><ele>900.9999999999999</ele><time>2026-05-02T12:00:43.651Z</time></trkpt><trkpt lat="42.165661" lon="13.6628363"><ele>901.0</ele><time>2026-05-02T12:00:44.634Z</time></trkpt><trkpt lat="42.1655856" lon="13.6628554"><ele>904.0</ele><time>2026-05-02T12:00:45.629Z</time></trkpt><trkpt lat="42.165512" lon="13.6628653"><ele>906.9999999999999</ele><time>2026-05-02T12:00:46.635Z</time></trkpt><trkpt lat="42.1654324" lon="13.6628721"><ele>909.9999999999999</ele><time>2026-05-02T12:00:47.643Z</time></trkpt><trkpt lat="42.1653498" lon="13.6628801"><ele>913.0</ele><time>2026-05-02T12:00:48.639Z</time></trkpt><trkpt lat="42.1652504" lon="13.6628975"><ele>916.0</ele><time>2026-05-02T12:00:49.645Z</time></trkpt><trkpt lat="42.1651326" lon="13.6629442"><ele>916.0</ele><time>2026-05-02T12:00:50.642Z</time></trkpt><trkpt lat="42.1650005" lon="13.6630208"><ele>916.0</ele><time>2026-05-02T12:00:51.64Z</time></trkpt><trkpt lat="42.1648702" lon="13.6631063"><ele>916.0</ele><time>2026-05-02T12:00:52.655Z</time></trkpt><trkpt lat="42.1647601" lon="13.663173"><ele>916.0</ele><time>2026-05-02T12:00:53.626Z</time></trkpt><trkpt lat="42.1646748" lon="13.6632236"><ele>917.1999999999999</ele><time>2026-05-02T12:00:54.624Z</time></trkpt><trkpt lat="42.1646008" lon="13.663293"><ele>918.3999999999999</ele><time>2026-05-02T12:00:55.626Z</time></trkpt><trkpt lat="42.1645265" lon="13.6633835"><ele>919.6</ele><time>2026-05-02T12:00:56.643Z</time></trkpt><trkpt lat="42.1644346" lon="13.6634958"><ele>920.8</ele><time>2026-05-02T12:00:57.641Z</time></trkpt><trkpt lat="42.1643459" lon="13.6636015"><ele>922.0</ele><time>2026-05-02T12:00:58.659Z</time></trkpt><trkpt lat="42.1642536" lon="13.6636772"><ele>923.1666666666666</ele><time>2026-05-02T12:00:59.635Z</time></trkpt><trkpt lat="42.164168" lon="13.6637315"><ele>924.3333333333333</ele><time>2026-05-02T12:01:00.64Z</time></trkpt><trkpt lat="42.1640967" lon="13.6637942"><ele>925.5</ele><time>2026-05-02T12:01:01.638Z</time></trkpt><trkpt lat="42.1640404" lon="13.6638598"><ele>926.6666666666667</ele><time>2026-05-02T12:01:02.63Z</time></trkpt><trkpt lat="42.1639837" lon="13.6639218"><ele>927.8333333333334</ele><time>2026-05-02T12:01:03.643Z</time></trkpt><trkpt lat="42.1639207" lon="13.6639834"><ele>929.0</ele><time>2026-05-02T12:01:04.631Z</time></trkpt><trkpt lat="42.1638052" lon="13.6640979"><ele>930.2</ele><time>2026-05-02T12:01:06.633Z</time></trkpt><trkpt lat="42.1637228" lon="13.6641625"><ele>931.4000000000001</ele><time>2026-05-02T12:01:07.649Z</time></trkpt><trkpt lat="42.1636383" lon="13.6642255"><ele>932.6</ele><time>2026-05-02T12:01:08.634Z</time></trkpt><trkpt lat="42.1635641" lon="13.6642838"><ele>933.8</ele><time>2026-05-02T12:01:09.634Z</time></trkpt><trkpt lat="42.1634754" lon="13.6643694"><ele>935.0</ele><time>2026-05-02T12:01:11.632Z</time></trkpt><trkpt lat="42.1634289" lon="13.6644464"><ele>935.6</ele><time>2026-05-02T12:01:13.636Z</time></trkpt><trkpt lat="42.1633422" lon="13.664555"><ele>936.2</ele><time>2026-05-02T12:01:15.636Z</time></trkpt><trkpt lat="42.1632792" lon="13.6646338"><ele>936.8</ele><time>2026-05-02T12:01:16.646Z</time></trkpt><trkpt lat="42.1632084" lon="13.6647264"><ele>937.4</ele><time>2026-05-02T12:01:17.633Z</time></trkpt><trkpt lat="42.1631362" lon="13.6648245"><ele>938.0</ele><time>2026-05-02T12:01:18.633Z</time></trkpt><trkpt lat="42.1630646" lon="13.6649365"><ele>937.8</ele><time>2026-05-02T12:01:19.628Z</time></trkpt><trkpt lat="42.1629944" lon="13.6650509"><ele>937.5999999999999</ele><time>2026-05-02T12:01:20.628Z</time></trkpt><trkpt lat="42.1629397" lon="13.6651617"><ele>937.4000000000001</ele><time>2026-05-02T12:01:21.637Z</time></trkpt><trkpt lat="42.1628908" lon="13.6652587"><ele>937.2</ele><time>2026-05-02T12:01:22.636Z</time></trkpt><trkpt lat="42.1628424" lon="13.6653877"><ele>937.0</ele><time>2026-05-02T12:01:23.647Z</time></trkpt><trkpt lat="42.1627736" lon="13.6655688"><ele>937.0</ele><time>2026-05-02T12:01:24.623Z</time></trkpt><trkpt lat="42.1627096" lon="13.6657571"><ele>937.0</ele><time>2026-05-02T12:01:25.621Z</time></trkpt><trkpt lat="42.1626426" lon="13.665904"><ele>937.0</ele><time>2026-05-02T12:01:26.625Z</time></trkpt><trkpt lat="42.1625869" lon="13.6660261"><ele>937.0</ele><time>2026-05-02T12:01:27.636Z</time></trkpt><trkpt lat="42.1625021" lon="13.6661229"><ele>939.25</ele><time>2026-05-02T12:01:28.639Z</time></trkpt><trkpt lat="42.1623985" lon="13.6661978"><ele>941.5</ele><time>2026-05-02T12:01:29.638Z</time></trkpt><trkpt lat="42.162289" lon="13.6662681"><ele>943.75</ele><time>2026-05-02T12:01:30.645Z</time></trkpt><trkpt lat="42.1621657" lon="13.6663238"><ele>946.0</ele><time>2026-05-02T12:01:31.649Z</time></trkpt><trkpt lat="42.1620381" lon="13.6663881"><ele>946.5</ele><time>2026-05-02T12:01:32.639Z</time></trkpt><trkpt lat="42.1619069" lon="13.666479"><ele>947.0</ele><time>2026-05-02T12:01:33.639Z</time></trkpt><trkpt lat="42.1617867" lon="13.6666006"><ele>947.5</ele><time>2026-05-02T12:01:34.628Z</time></trkpt><trkpt lat="42.1616711" lon="13.6667177"><ele>948.0</ele><time>2026-05-02T12:01:35.626Z</time></trkpt><trkpt lat="42.1615423" lon="13.6668225"><ele>950.3333333333333</ele><time>2026-05-02T12:01:36.632Z</time></trkpt><trkpt lat="42.1613939" lon="13.666938"><ele>952.6666666666666</ele><time>2026-05-02T12:01:37.63Z</time></trkpt><trkpt lat="42.1612646" lon="13.6670652"><ele>955.0</ele><time>2026-05-02T12:01:38.631Z</time></trkpt><trkpt lat="42.1611468" lon="13.6671842"><ele>955.0</ele><time>2026-05-02T12:01:39.629Z</time></trkpt><trkpt lat="42.161048" lon="13.667334"><ele>955.0</ele><time>2026-05-02T12:01:40.652Z</time></trkpt><trkpt lat="42.1609376" lon="13.6674954"><ele>955.0</ele><time>2026-05-02T12:01:41.645Z</time></trkpt><trkpt lat="42.1608283" lon="13.6676199"><ele>954.9999999999999</ele><time>2026-05-02T12:01:42.635Z</time></trkpt><trkpt lat="42.1607407" lon="13.6677103"><ele>955.0</ele><time>2026-05-02T12:01:43.631Z</time></trkpt><trkpt lat="42.1606655" lon="13.667766"><ele>955.0</ele><time>2026-05-02T12:01:44.649Z</time></trkpt><trkpt lat="42.1605976" lon="13.6678082"><ele>955.0</ele><time>2026-05-02T12:01:45.622Z</time></trkpt><trkpt lat="42.1605386" lon="13.667854"><ele>954.9999999999999</ele><time>2026-05-02T12:01:46.636Z</time></trkpt><trkpt lat="42.1604806" lon="13.667911"><ele>955.0</ele><time>2026-05-02T12:01:47.632Z</time></trkpt><trkpt lat="42.1604056" lon="13.6679783"><ele>954.25</ele><time>2026-05-02T12:01:48.636Z</time></trkpt><trkpt lat="42.1603255" lon="13.6680685"><ele>953.5</ele><time>2026-05-02T12:01:49.637Z</time></trkpt><trkpt lat="42.1602251" lon="13.6681755"><ele>952.75</ele><time>2026-05-02T12:01:50.635Z</time></trkpt><trkpt lat="42.1601201" lon="13.6683026"><ele>952.0</ele><time>2026-05-02T12:01:51.64Z</time></trkpt><trkpt lat="42.1600251" lon="13.6684242"><ele>952.0</ele><time>2026-05-02T12:01:52.63Z</time></trkpt><trkpt lat="42.1599297" lon="13.6685335"><ele>952.0</ele><time>2026-05-02T12:01:53.628Z</time></trkpt><trkpt lat="42.1598223" lon="13.6686194"><ele>952.0</ele><time>2026-05-02T12:01:54.629Z</time></trkpt><trkpt lat="42.1597223" lon="13.6687148"><ele>952.0</ele><time>2026-05-02T12:01:55.639Z</time></trkpt><trkpt lat="42.159631" lon="13.6688094"><ele>950.1666666666666</ele><time>2026-05-02T12:01:56.637Z</time></trkpt><trkpt lat="42.1595606" lon="13.6688918"><ele>948.3333333333333</ele><time>2026-05-02T12:01:57.639Z</time></trkpt><trkpt lat="42.1595272" lon="13.6689712"><ele>946.5</ele><time>2026-05-02T12:01:58.654Z</time></trkpt><trkpt lat="42.1595126" lon="13.669069"><ele>944.6666666666667</ele><time>2026-05-02T12:01:59.633Z</time></trkpt><trkpt lat="42.1595148" lon="13.6692001"><ele>942.8333333333334</ele><time>2026-05-02T12:02:00.642Z</time></trkpt><trkpt lat="42.1595204" lon="13.6693523"><ele>941.0</ele><time>2026-05-02T12:02:01.637Z</time></trkpt><trkpt lat="42.1595131" lon="13.6694937"><ele>939.5999999999999</ele><time>2026-05-02T12:02:02.638Z</time></trkpt><trkpt lat="42.159492" lon="13.6696426"><ele>938.1999999999999</ele><time>2026-05-02T12:02:03.631Z</time></trkpt><trkpt lat="42.1594651" lon="13.6697846"><ele>936.8000000000001</ele><time>2026-05-02T12:02:04.643Z</time></trkpt><trkpt lat="42.1594224" lon="13.6699008"><ele>935.4000000000001</ele><time>2026-05-02T12:02:05.636Z</time></trkpt><trkpt lat="42.1593629" lon="13.6700176"><ele>934.0</ele><time>2026-05-02T12:02:06.647Z</time></trkpt><trkpt lat="42.1593007" lon="13.6701287"><ele>934.0</ele><time>2026-05-02T12:02:07.622Z</time></trkpt><trkpt lat="42.159242" lon="13.6702352"><ele>934.0000000000001</ele><time>2026-05-02T12:02:08.622Z</time></trkpt><trkpt lat="42.1591948" lon="13.670371"><ele>934.0000000000001</ele><time>2026-05-02T12:02:09.631Z</time></trkpt><trkpt lat="42.1591721" lon="13.6705151"><ele>934.0</ele><time>2026-05-02T12:02:10.639Z</time></trkpt><trkpt lat="42.1591817" lon="13.6706537"><ele>934.0</ele><time>2026-05-02T12:02:11.646Z</time></trkpt><trkpt lat="42.1591841" lon="13.6708251"><ele>936.0</ele><time>2026-05-02T12:02:12.638Z</time></trkpt><trkpt lat="42.1591949" lon="13.6710044"><ele>938.0</ele><time>2026-05-02T12:02:13.625Z</time></trkpt><trkpt lat="42.1592099" lon="13.6711964"><ele>940.0</ele><time>2026-05-02T12:02:14.639Z</time></trkpt><trkpt lat="42.1592213" lon="13.6713918"><ele>942.0</ele><time>2026-05-02T12:02:15.643Z</time></trkpt><trkpt lat="42.1592312" lon="13.6715578"><ele>942.1666666666666</ele><time>2026-05-02T12:02:16.63Z</time></trkpt><trkpt lat="42.1592422" lon="13.6716852"><ele>942.3333333333333</ele><time>2026-05-02T12:02:17.634Z</time></trkpt><trkpt lat="42.1592746" lon="13.6717963"><ele>942.5</ele><time>2026-05-02T12:02:18.63Z</time></trkpt><trkpt lat="42.1593399" lon="13.6718907"><ele>942.6666666666666</ele><time>2026-05-02T12:02:19.652Z</time></trkpt><trkpt lat="42.1594122" lon="13.6719455"><ele>942.8333333333333</ele><time>2026-05-02T12:02:20.645Z</time></trkpt><trkpt lat="42.1594865" lon="13.6719938"><ele>943.0</ele><time>2026-05-02T12:02:21.632Z</time></trkpt><trkpt lat="42.1595549" lon="13.6720946"><ele>941.8</ele><time>2026-05-02T12:02:23.654Z</time></trkpt><trkpt lat="42.1595748" lon="13.6721961"><ele>940.5999999999999</ele><time>2026-05-02T12:02:24.646Z</time></trkpt><trkpt lat="42.159591" lon="13.6723337"><ele>939.4000000000001</ele><time>2026-05-02T12:02:25.645Z</time></trkpt><trkpt lat="42.159623" lon="13.6724844"><ele>938.2</ele><time>2026-05-02T12:02:26.64Z</time></trkpt><trkpt lat="42.1596732" lon="13.6726382"><ele>937.0</ele><time>2026-05-02T12:02:27.641Z</time></trkpt><trkpt lat="42.1597388" lon="13.6728133"><ele>934.75</ele><time>2026-05-02T12:02:28.65Z</time></trkpt><trkpt lat="42.1598065" lon="13.6729889"><ele>932.5</ele><time>2026-05-02T12:02:29.634Z</time></trkpt><trkpt lat="42.1598777" lon="13.6731548"><ele>930.25</ele><time>2026-05-02T12:02:30.651Z</time></trkpt><trkpt lat="42.1599517" lon="13.6733164"><ele>928.0</ele><time>2026-05-02T12:02:31.633Z</time></trkpt><trkpt lat="42.1600222" lon="13.6734827"><ele>935.3333333333333</ele><time>2026-05-02T12:02:32.65Z</time></trkpt><trkpt lat="42.1601001" lon="13.6736826"><ele>942.6666666666667</ele><time>2026-05-02T12:02:33.651Z</time></trkpt><trkpt lat="42.160169" lon="13.6738751"><ele>950.0</ele><time>2026-05-02T12:02:34.648Z</time></trkpt><trkpt lat="42.1602338" lon="13.6740389"><ele>950.0000000000001</ele><time>2026-05-02T12:02:35.671Z</time></trkpt><trkpt lat="42.1602899" lon="13.6741697"><ele>950.0</ele><time>2026-05-02T12:02:36.645Z</time></trkpt><trkpt lat="42.1603399" lon="13.6742637"><ele>950.0</ele><time>2026-05-02T12:02:37.649Z</time></trkpt><trkpt lat="42.160394" lon="13.6743326"><ele>950.0</ele><time>2026-05-02T12:02:38.645Z</time></trkpt><trkpt lat="42.1604475" lon="13.674378"><ele>950.0000000000001</ele><time>2026-05-02T12:02:39.64Z</time></trkpt><trkpt lat="42.1605321" lon="13.6744206"><ele>950.0</ele><time>2026-05-02T12:02:40.649Z</time></trkpt><trkpt lat="42.16065" lon="13.6744689"><ele>952.75</ele><time>2026-05-02T12:02:41.633Z</time></trkpt><trkpt lat="42.1607457" lon="13.6745289"><ele>955.5</ele><time>2026-05-02T12:02:42.645Z</time></trkpt><trkpt lat="42.1608238" lon="13.6746225"><ele>958.25</ele><time>2026-05-02T12:02:43.629Z</time></trkpt><trkpt lat="42.160902" lon="13.6747576"><ele>961.0</ele><time>2026-05-02T12:02:44.644Z</time></trkpt><trkpt lat="42.1609941" lon="13.6749121"><ele>961.0</ele><time>2026-05-02T12:02:45.644Z</time></trkpt><trkpt lat="42.1610981" lon="13.6750827"><ele>961.0</ele><time>2026-05-02T12:02:46.631Z</time></trkpt><trkpt lat="42.1611904" lon="13.6752499"><ele>961.0</ele><time>2026-05-02T12:02:47.633Z</time></trkpt><trkpt lat="42.161273" lon="13.6754266"><ele>962.75</ele><time>2026-05-02T12:02:48.642Z</time></trkpt><trkpt lat="42.1613633" lon="13.6756064"><ele>964.5</ele><time>2026-05-02T12:02:49.645Z</time></trkpt><trkpt lat="42.1614582" lon="13.6757859"><ele>966.25</ele><time>2026-05-02T12:02:50.628Z</time></trkpt><trkpt lat="42.1615192" lon="13.6759195"><ele>968.0</ele><time>2026-05-02T12:02:51.637Z</time></trkpt><trkpt lat="42.1615546" lon="13.6760373"><ele>968.0</ele><time>2026-05-02T12:02:52.637Z</time></trkpt><trkpt lat="42.1615903" lon="13.6761808"><ele>968.0</ele><time>2026-05-02T12:02:53.665Z</time></trkpt><trkpt lat="42.1616272" lon="13.6763323"><ele>968.0</ele><time>2026-05-02T12:02:54.649Z</time></trkpt><trkpt lat="42.1616643" lon="13.6764867"><ele>968.0</ele><time>2026-05-02T12:02:55.649Z</time></trkpt><trkpt lat="42.1616943" lon="13.6766094"><ele>968.0</ele><time>2026-05-02T12:02:56.646Z</time></trkpt><trkpt lat="42.1617142" lon="13.6767184"><ele>968.0</ele><time>2026-05-02T12:02:57.656Z</time></trkpt><trkpt lat="42.1617402" lon="13.6768299"><ele>968.0</ele><time>2026-05-02T12:02:58.648Z</time></trkpt><trkpt lat="42.1617703" lon="13.676942"><ele>968.0</ele><time>2026-05-02T12:02:59.647Z</time></trkpt><trkpt lat="42.1618072" lon="13.6770727"><ele>968.0</ele><time>2026-05-02T12:03:00.646Z</time></trkpt><trkpt lat="42.1618334" lon="13.67726"><ele>968.0</ele><time>2026-05-02T12:03:01.652Z</time></trkpt><trkpt lat="42.1618469" lon="13.6774845"><ele>965.6666666666667</ele><time>2026-05-02T12:03:02.647Z</time></trkpt><trkpt lat="42.1618488" lon="13.6776895"><ele>963.3333333333333</ele><time>2026-05-02T12:03:03.631Z</time></trkpt><trkpt lat="42.16185" lon="13.6779021"><ele>961.0</ele><time>2026-05-02T12:03:04.627Z</time></trkpt><trkpt lat="42.1618539" lon="13.6781366"><ele>956.6666666666666</ele><time>2026-05-02T12:03:05.63Z</time></trkpt><trkpt lat="42.1618714" lon="13.6783962"><ele>952.3333333333333</ele><time>2026-05-02T12:03:06.629Z</time></trkpt><trkpt lat="42.1618908" lon="13.6786224"><ele>948.0</ele><time>2026-05-02T12:03:07.621Z</time></trkpt><trkpt lat="42.1619028" lon="13.6788148"><ele>946.0</ele><time>2026-05-02T12:03:08.621Z</time></trkpt><trkpt lat="42.161902" lon="13.6789692"><ele>944.0</ele><time>2026-05-02T12:03:09.642Z</time></trkpt><trkpt lat="42.1618877" lon="13.6791163"><ele>942.0</ele><time>2026-05-02T12:03:10.636Z</time></trkpt><trkpt lat="42.1618662" lon="13.6792521"><ele>940.0</ele><time>2026-05-02T12:03:11.637Z</time></trkpt><trkpt lat="42.1618357" lon="13.6793944"><ele>938.0</ele><time>2026-05-02T12:03:12.623Z</time></trkpt><trkpt lat="42.1618124" lon="13.6795355"><ele>936.6666666666667</ele><time>2026-05-02T12:03:13.635Z</time></trkpt><trkpt lat="42.1617943" lon="13.6796566"><ele>935.3333333333334</ele><time>2026-05-02T12:03:14.631Z</time></trkpt><trkpt lat="42.1617751" lon="13.6797601"><ele>934.0</ele><time>2026-05-02T12:03:15.65Z</time></trkpt><trkpt lat="42.1617561" lon="13.6798658"><ele>932.6666666666667</ele><time>2026-05-02T12:03:16.632Z</time></trkpt><trkpt lat="42.1617477" lon="13.6799588"><ele>931.3333333333334</ele><time>2026-05-02T12:03:17.639Z</time></trkpt><trkpt lat="42.1617225" lon="13.6800398"><ele>930.0</ele><time>2026-05-02T12:03:18.633Z</time></trkpt><trkpt lat="42.1616398" lon="13.6801281"><ele>930.0</ele><time>2026-05-02T12:03:20.644Z</time></trkpt><trkpt lat="42.1615669" lon="13.6801723"><ele>930.0</ele><time>2026-05-02T12:03:23.636Z</time></trkpt><trkpt lat="42.1614908" lon="13.6802079"><ele>930.0</ele><time>2026-05-02T12:03:26.649Z</time></trkpt><trkpt lat="42.1615667" lon="13.6802152"><ele>930.0</ele><time>2026-05-02T12:03:36.642Z</time></trkpt><trkpt lat="42.1616215" lon="13.6801432"><ele>930.0</ele><time>2026-05-02T12:03:38.646Z</time></trkpt><trkpt lat="42.1615933" lon="13.6800575"><ele>930.0</ele><time>2026-05-02T12:03:40.652Z</time></trkpt><trkpt lat="42.1615629" lon="13.6798704"><ele>930.0</ele><time>2026-05-02T12:03:42.637Z</time></trkpt><trkpt lat="42.1615394" lon="13.6797323"><ele>930.0</ele><time>2026-05-02T12:03:43.658Z</time></trkpt><trkpt lat="42.1615212" lon="13.6795909"><ele>930.0</ele><time>2026-05-02T12:03:44.642Z</time></trkpt><trkpt lat="42.1615088" lon="13.6794797"><ele>930.0</ele><time>2026-05-02T12:03:45.635Z</time></trkpt><trkpt lat="42.1614998" lon="13.6793868"><ele>930.0</ele><time>2026-05-02T12:03:46.645Z</time></trkpt><trkpt lat="42.1614298" lon="13.6792717"><ele>931.5</ele><time>2026-05-02T12:03:48.634Z</time></trkpt><trkpt lat="42.1613578" lon="13.67926"><ele>933.0</ele><time>2026-05-02T12:03:49.644Z</time></trkpt><trkpt lat="42.1612476" lon="13.6792966"><ele>934.5</ele><time>2026-05-02T12:03:50.633Z</time></trkpt><trkpt lat="42.1611161" lon="13.679349"><ele>936.0</ele><time>2026-05-02T12:03:51.636Z</time></trkpt><trkpt lat="42.1609703" lon="13.6793904"><ele>936.0</ele><time>2026-05-02T12:03:52.624Z</time></trkpt><trkpt lat="42.1608176" lon="13.6794205"><ele>936.0</ele><time>2026-05-02T12:03:53.637Z</time></trkpt><trkpt lat="42.1606584" lon="13.6794367"><ele>936.0</ele><time>2026-05-02T12:03:54.642Z</time></trkpt><trkpt lat="42.1605264" lon="13.6794575"><ele>936.0</ele><time>2026-05-02T12:03:55.644Z</time></trkpt><trkpt lat="42.1604016" lon="13.6795196"><ele>930.25</ele><time>2026-05-02T12:03:56.652Z</time></trkpt><trkpt lat="42.1602615" lon="13.6796001"><ele>924.5</ele><time>2026-05-02T12:03:57.651Z</time></trkpt><trkpt lat="42.1601239" lon="13.679687"><ele>918.75</ele><time>2026-05-02T12:03:58.636Z</time></trkpt><trkpt lat="42.1600046" lon="13.6797572"><ele>913.0</ele><time>2026-05-02T12:03:59.637Z</time></trkpt><trkpt lat="42.1598932" lon="13.679878"><ele>908.0</ele><time>2026-05-02T12:04:00.649Z</time></trkpt><trkpt lat="42.1598138" lon="13.6800091"><ele>903.0</ele><time>2026-05-02T12:04:01.632Z</time></trkpt><trkpt lat="42.1597511" lon="13.6800504"><ele>898.0</ele><time>2026-05-02T12:04:02.652Z</time></trkpt><trkpt lat="42.1596617" lon="13.6800442"><ele>893.0</ele><time>2026-05-02T12:04:04.649Z</time></trkpt><trkpt lat="42.15956" lon="13.6799011"><ele>888.0</ele><time>2026-05-02T12:04:06.643Z</time></trkpt><trkpt lat="42.1595129" lon="13.679815"><ele>888.0</ele><time>2026-05-02T12:04:07.638Z</time></trkpt><trkpt lat="42.1594768" lon="13.6797378"><ele>888.0</ele><time>2026-05-02T12:04:08.644Z</time></trkpt><trkpt lat="42.1594101" lon="13.6795929"><ele>888.0</ele><time>2026-05-02T12:04:10.643Z</time></trkpt><trkpt lat="42.1593796" lon="13.6794921"><ele>888.0</ele><time>2026-05-02T12:04:11.651Z</time></trkpt><trkpt lat="42.1593362" lon="13.6793765"><ele>888.0</ele><time>2026-05-02T12:04:12.627Z</time></trkpt><trkpt lat="42.1593034" lon="13.6792621"><ele>889.8</ele><time>2026-05-02T12:04:13.652Z</time></trkpt><trkpt lat="42.1592826" lon="13.6791398"><ele>891.5999999999999</ele><time>2026-05-02T12:04:14.625Z</time></trkpt><trkpt lat="42.1592519" lon="13.6790047"><ele>893.4000000000001</ele><time>2026-05-02T12:04:15.658Z</time></trkpt><trkpt lat="42.1592139" lon="13.6788673"><ele>895.2</ele><time>2026-05-02T12:04:16.636Z</time></trkpt><trkpt lat="42.1591744" lon="13.6787092"><ele>897.0</ele><time>2026-05-02T12:04:17.632Z</time></trkpt><trkpt lat="42.159126" lon="13.6785608"><ele>899.5</ele><time>2026-05-02T12:04:18.632Z</time></trkpt><trkpt lat="42.1590761" lon="13.6784189"><ele>902.0</ele><time>2026-05-02T12:04:19.649Z</time></trkpt><trkpt lat="42.159026" lon="13.6782456"><ele>904.5</ele><time>2026-05-02T12:04:20.634Z</time></trkpt><trkpt lat="42.1589703" lon="13.678037"><ele>907.0</ele><time>2026-05-02T12:04:21.646Z</time></trkpt><trkpt lat="42.1589192" lon="13.6778523"><ele>898.0</ele><time>2026-05-02T12:04:22.647Z</time></trkpt><trkpt lat="42.1588513" lon="13.6776908"><ele>889.0</ele><time>2026-05-02T12:04:23.63Z</time></trkpt><trkpt lat="42.1588104" lon="13.6775369"><ele>880.0</ele><time>2026-05-02T12:04:24.65Z</time></trkpt><trkpt lat="42.1587699" lon="13.6773904"><ele>871.0</ele><time>2026-05-02T12:04:25.633Z</time></trkpt><trkpt lat="42.1587204" lon="13.6772535"><ele>871.0</ele><time>2026-05-02T12:04:26.634Z</time></trkpt><trkpt lat="42.1586603" lon="13.6771196"><ele>871.0</ele><time>2026-05-02T12:04:27.646Z</time></trkpt><trkpt lat="42.1585869" lon="13.6769687"><ele>871.0</ele><time>2026-05-02T12:04:28.629Z</time></trkpt><trkpt lat="42.1585069" lon="13.6768058"><ele>871.0</ele><time>2026-05-02T12:04:29.635Z</time></trkpt><trkpt lat="42.1584169" lon="13.6766271"><ele>874.75</ele><time>2026-05-02T12:04:30.647Z</time></trkpt><trkpt lat="42.1583258" lon="13.6764579"><ele>878.5</ele><time>2026-05-02T12:04:31.646Z</time></trkpt><trkpt lat="42.1582357" lon="13.6763045"><ele>882.25</ele><time>2026-05-02T12:04:32.652Z</time></trkpt><trkpt lat="42.1581542" lon="13.6761563"><ele>886.0</ele><time>2026-05-02T12:04:33.637Z</time></trkpt><trkpt lat="42.1580822" lon="13.6760044"><ele>878.5999999999999</ele><time>2026-05-02T12:04:34.652Z</time></trkpt><trkpt lat="42.1580157" lon="13.6758726"><ele>871.1999999999999</ele><time>2026-05-02T12:04:35.64Z</time></trkpt><trkpt lat="42.1579582" lon="13.675754"><ele>863.8</ele><time>2026-05-02T12:04:36.643Z</time></trkpt><trkpt lat="42.1579055" lon="13.6756426"><ele>856.4000000000001</ele><time>2026-05-02T12:04:37.645Z</time></trkpt><trkpt lat="42.1578532" lon="13.6755476"><ele>849.0</ele><time>2026-05-02T12:04:38.641Z</time></trkpt><trkpt lat="42.1577979" lon="13.6754485"><ele>849.0</ele><time>2026-05-02T12:04:39.637Z</time></trkpt><trkpt lat="42.1577495" lon="13.6753441"><ele>849.0</ele><time>2026-05-02T12:04:40.638Z</time></trkpt><trkpt lat="42.1577067" lon="13.6752356"><ele>849.0</ele><time>2026-05-02T12:04:41.643Z</time></trkpt><trkpt lat="42.157665" lon="13.6751316"><ele>849.0</ele><time>2026-05-02T12:04:42.633Z</time></trkpt><trkpt lat="42.1576322" lon="13.6750225"><ele>849.0</ele><time>2026-05-02T12:04:43.644Z</time></trkpt><trkpt lat="42.1576092" lon="13.6749124"><ele>849.0</ele><time>2026-05-02T12:04:44.645Z</time></trkpt><trkpt lat="42.1576021" lon="13.6748059"><ele>849.3333333333334</ele><time>2026-05-02T12:04:45.648Z</time></trkpt><trkpt lat="42.1576008" lon="13.674704"><ele>849.6666666666667</ele><time>2026-05-02T12:04:46.632Z</time></trkpt><trkpt lat="42.1576026" lon="13.6745829"><ele>850.0</ele><time>2026-05-02T12:04:47.646Z</time></trkpt><trkpt lat="42.1576023" lon="13.6744796"><ele>850.3333333333334</ele><time>2026-05-02T12:04:48.638Z</time></trkpt><trkpt lat="42.1576416" lon="13.6743409"><ele>850.6666666666667</ele><time>2026-05-02T12:04:50.648Z</time></trkpt><trkpt lat="42.1576484" lon="13.6742439"><ele>851.0</ele><time>2026-05-02T12:04:52.647Z</time></trkpt><trkpt lat="42.1575743" lon="13.6742717"><ele>851.0000000000001</ele><time>2026-05-02T12:04:54.632Z</time></trkpt><trkpt lat="42.1575366" lon="13.6743457"><ele>851.0</ele><time>2026-05-02T12:04:55.628Z</time></trkpt><trkpt lat="42.1575028" lon="13.6744359"><ele>851.0</ele><time>2026-05-02T12:04:56.631Z</time></trkpt><trkpt lat="42.1574569" lon="13.674536"><ele>851.0</ele><time>2026-05-02T12:04:57.638Z</time></trkpt><trkpt lat="42.157419" lon="13.6746377"><ele>851.0000000000001</ele><time>2026-05-02T12:04:58.641Z</time></trkpt><trkpt lat="42.157389" lon="13.6747555"><ele>851.0</ele><time>2026-05-02T12:04:59.622Z</time></trkpt><trkpt lat="42.1573752" lon="13.674877"><ele>844.3333333333334</ele><time>2026-05-02T12:05:00.643Z</time></trkpt><trkpt lat="42.1573609" lon="13.674972"><ele>837.6666666666667</ele><time>2026-05-02T12:05:01.633Z</time></trkpt><trkpt lat="42.1573243" lon="13.6750758"><ele>831.0</ele><time>2026-05-02T12:05:03.62Z</time></trkpt><trkpt lat="42.1572656" lon="13.674992"><ele>824.3333333333333</ele><time>2026-05-02T12:05:05.621Z</time></trkpt><trkpt lat="42.1572359" lon="13.6749155"><ele>817.6666666666666</ele><time>2026-05-02T12:05:06.645Z</time></trkpt><trkpt lat="42.1572165" lon="13.674814"><ele>811.0</ele><time>2026-05-02T12:05:07.631Z</time></trkpt><trkpt lat="42.1571968" lon="13.6746855"><ele>810.9999999999999</ele><time>2026-05-02T12:05:08.626Z</time></trkpt><trkpt lat="42.1571845" lon="13.6745522"><ele>811.0</ele><time>2026-05-02T12:05:09.631Z</time></trkpt><trkpt lat="42.1571783" lon="13.6744374"><ele>811.0</ele><time>2026-05-02T12:05:10.645Z</time></trkpt><trkpt lat="42.157173" lon="13.6743185"><ele>811.0</ele><time>2026-05-02T12:05:11.62Z</time></trkpt><trkpt lat="42.1571716" lon="13.6742096"><ele>810.9999999999999</ele><time>2026-05-02T12:05:12.645Z</time></trkpt><trkpt lat="42.1571837" lon="13.6741133"><ele>811.0</ele><time>2026-05-02T12:05:13.633Z</time></trkpt><trkpt lat="42.1572023" lon="13.6739768"><ele>813.0</ele><time>2026-05-02T12:05:15.635Z</time></trkpt><trkpt lat="42.1571474" lon="13.6739125"><ele>815.0</ele><time>2026-05-02T12:05:17.637Z</time></trkpt><trkpt lat="42.1570369" lon="13.6739262"><ele>817.0</ele><time>2026-05-02T12:05:19.635Z</time></trkpt><trkpt lat="42.1569473" lon="13.6740068"><ele>819.0</ele><time>2026-05-02T12:05:21.642Z</time></trkpt><trkpt lat="42.1568708" lon="13.6741082"><ele>821.0</ele><time>2026-05-02T12:05:23.636Z</time></trkpt><trkpt lat="42.1568218" lon="13.6742313"><ele>821.0000000000001</ele><time>2026-05-02T12:05:25.638Z</time></trkpt><trkpt lat="42.1568356" lon="13.6743766"><ele>821.0</ele><time>2026-05-02T12:05:27.653Z</time></trkpt><trkpt lat="42.1568486" lon="13.6744689"><ele>821.0</ele><time>2026-05-02T12:05:28.638Z</time></trkpt><trkpt lat="42.1568401" lon="13.6745555"><ele>821.0</ele><time>2026-05-02T12:05:29.631Z</time></trkpt><trkpt lat="42.1568132" lon="13.6746462"><ele>821.0000000000001</ele><time>2026-05-02T12:05:30.638Z</time></trkpt><trkpt lat="42.1567796" lon="13.6747387"><ele>821.0</ele><time>2026-05-02T12:05:31.639Z</time></trkpt><trkpt lat="42.1567552" lon="13.6748366"><ele>819.0</ele><time>2026-05-02T12:05:32.643Z</time></trkpt><trkpt lat="42.1567137" lon="13.6749179"><ele>817.0</ele><time>2026-05-02T12:05:33.632Z</time></trkpt><trkpt lat="42.1566602" lon="13.6750557"><ele>815.0</ele><time>2026-05-02T12:05:35.626Z</time></trkpt><trkpt lat="42.156631" lon="13.6751433"><ele>813.0</ele><time>2026-05-02T12:05:36.632Z</time></trkpt><trkpt lat="42.1565978" lon="13.675229"><ele>811.0</ele><time>2026-05-02T12:05:37.63Z</time></trkpt><trkpt lat="42.1565463" lon="13.6753751"><ele>812.5999999999999</ele><time>2026-05-02T12:05:39.626Z</time></trkpt><trkpt lat="42.1564988" lon="13.6755198"><ele>814.2</ele><time>2026-05-02T12:05:41.634Z</time></trkpt><trkpt lat="42.1564555" lon="13.6756754"><ele>815.8</ele><time>2026-05-02T12:05:43.63Z</time></trkpt><trkpt lat="42.1564239" lon="13.6757938"><ele>817.4000000000001</ele><time>2026-05-02T12:05:45.628Z</time></trkpt><trkpt lat="42.1563887" lon="13.6759187"><ele>819.0</ele><time>2026-05-02T12:05:48.628Z</time></trkpt><trkpt lat="42.156376" lon="13.6760142"><ele>818.4000000000001</ele><time>2026-05-02T12:05:50.64Z</time></trkpt><trkpt lat="42.15639" lon="13.6761063"><ele>817.8</ele><time>2026-05-02T12:05:53.619Z</time></trkpt><trkpt lat="42.1564049" lon="13.6762295"><ele>817.2</ele><time>2026-05-02T12:05:59.634Z</time></trkpt><trkpt lat="42.1564329" lon="13.6763789"><ele>816.5999999999999</ele><time>2026-05-02T12:06:01.621Z</time></trkpt><trkpt lat="42.1564578" lon="13.6765134"><ele>816.0</ele><time>2026-05-02T12:06:02.648Z</time></trkpt><trkpt lat="42.1564853" lon="13.6766946"><ele>816.0</ele><time>2026-05-02T12:06:03.622Z</time></trkpt><trkpt lat="42.1565147" lon="13.676861"><ele>816.0</ele><time>2026-05-02T12:06:04.621Z</time></trkpt><trkpt lat="42.1565345" lon="13.6769914"><ele>816.0</ele><time>2026-05-02T12:06:05.629Z</time></trkpt><trkpt lat="42.1565521" lon="13.677105"><ele>816.0</ele><time>2026-05-02T12:06:07.629Z</time></trkpt><trkpt lat="42.1566446" lon="13.6771991"><ele>816.0</ele><time>2026-05-02T12:06:09.62Z</time></trkpt><trkpt lat="42.1566799" lon="13.6772723"><ele>810.1666666666666</ele><time>2026-05-02T12:06:10.618Z</time></trkpt><trkpt lat="42.1567116" lon="13.6773599"><ele>804.3333333333333</ele><time>2026-05-02T12:06:11.615Z</time></trkpt><trkpt lat="42.1567362" lon="13.6774616"><ele>798.5</ele><time>2026-05-02T12:06:12.618Z</time></trkpt><trkpt lat="42.1567603" lon="13.6775658"><ele>792.6666666666666</ele><time>2026-05-02T12:06:13.614Z</time></trkpt><trkpt lat="42.1567839" lon="13.6776741"><ele>786.8333333333333</ele><time>2026-05-02T12:06:14.619Z</time></trkpt><trkpt lat="42.1568085" lon="13.6777994"><ele>781.0</ele><time>2026-05-02T12:06:15.622Z</time></trkpt><trkpt lat="42.1568397" lon="13.6779368"><ele>780.25</ele><time>2026-05-02T12:06:16.634Z</time></trkpt><trkpt lat="42.1568727" lon="13.6780873"><ele>779.5</ele><time>2026-05-02T12:06:17.627Z</time></trkpt><trkpt lat="42.1569102" lon="13.6782492"><ele>778.75</ele><time>2026-05-02T12:06:18.616Z</time></trkpt><trkpt lat="42.1569535" lon="13.6784191"><ele>778.0</ele><time>2026-05-02T12:06:19.618Z</time></trkpt><trkpt lat="42.1569974" lon="13.6786216"><ele>778.0</ele><time>2026-05-02T12:06:20.621Z</time></trkpt><trkpt lat="42.1570432" lon="13.6788341"><ele>778.0</ele><time>2026-05-02T12:06:21.624Z</time></trkpt><trkpt lat="42.1570877" lon="13.6790158"><ele>778.0</ele><time>2026-05-02T12:06:22.623Z</time></trkpt><trkpt lat="42.1571413" lon="13.6791632"><ele>778.0</ele><time>2026-05-02T12:06:23.625Z</time></trkpt><trkpt lat="42.1571926" lon="13.6792933"><ele>778.0</ele><time>2026-05-02T12:06:24.635Z</time></trkpt><trkpt lat="42.1572239" lon="13.6794257"><ele>778.0</ele><time>2026-05-02T12:06:25.657Z</time></trkpt><trkpt lat="42.1572164" lon="13.6795906"><ele>778.0</ele><time>2026-05-02T12:06:26.627Z</time></trkpt><trkpt lat="42.157185" lon="13.6797835"><ele>778.0</ele><time>2026-05-02T12:06:27.627Z</time></trkpt><trkpt lat="42.1571552" lon="13.6799851"><ele>773.3333333333333</ele><time>2026-05-02T12:06:28.629Z</time></trkpt><trkpt lat="42.1571396" lon="13.6801851"><ele>768.6666666666666</ele><time>2026-05-02T12:06:29.626Z</time></trkpt><trkpt lat="42.1571034" lon="13.6803887"><ele>764.0</ele><time>2026-05-02T12:06:30.624Z</time></trkpt><trkpt lat="42.1570505" lon="13.6805922"><ele>757.6666666666666</ele><time>2026-05-02T12:06:31.635Z</time></trkpt><trkpt lat="42.156986" lon="13.6807859"><ele>751.3333333333334</ele><time>2026-05-02T12:06:32.63Z</time></trkpt><trkpt lat="42.1568986" lon="13.6809589"><ele>745.0</ele><time>2026-05-02T12:06:33.616Z</time></trkpt><trkpt lat="42.1567978" lon="13.6811268"><ele>743.0</ele><time>2026-05-02T12:06:34.635Z</time></trkpt><trkpt lat="42.1566742" lon="13.6812779"><ele>741.0</ele><time>2026-05-02T12:06:35.63Z</time></trkpt><trkpt lat="42.1565497" lon="13.6814388"><ele>739.0</ele><time>2026-05-02T12:06:36.622Z</time></trkpt><trkpt lat="42.1564091" lon="13.6816005"><ele>736.6666666666667</ele><time>2026-05-02T12:06:37.625Z</time></trkpt><trkpt lat="42.1562498" lon="13.6817715"><ele>734.3333333333334</ele><time>2026-05-02T12:06:38.62Z</time></trkpt><trkpt lat="42.1560796" lon="13.6819401"><ele>732.0</ele><time>2026-05-02T12:06:39.621Z</time></trkpt><trkpt lat="42.1559049" lon="13.6821064"><ele>731.0</ele><time>2026-05-02T12:06:40.624Z</time></trkpt><trkpt lat="42.1557315" lon="13.6822526"><ele>730.0</ele><time>2026-05-02T12:06:41.62Z</time></trkpt><trkpt lat="42.1555638" lon="13.6824039"><ele>729.0</ele><time>2026-05-02T12:06:42.624Z</time></trkpt><trkpt lat="42.1554002" lon="13.6825442"><ele>724.3333333333334</ele><time>2026-05-02T12:06:43.622Z</time></trkpt><trkpt lat="42.1552373" lon="13.6826843"><ele>719.6666666666667</ele><time>2026-05-02T12:06:44.62Z</time></trkpt><trkpt lat="42.1550883" lon="13.6828304"><ele>715.0</ele><time>2026-05-02T12:06:45.629Z</time></trkpt><trkpt lat="42.1549625" lon="13.6829865"><ele>712.25</ele><time>2026-05-02T12:06:46.62Z</time></trkpt><trkpt lat="42.1548505" lon="13.6831219"><ele>709.5</ele><time>2026-05-02T12:06:47.629Z</time></trkpt><trkpt lat="42.154747" lon="13.6832634"><ele>706.75</ele><time>2026-05-02T12:06:48.622Z</time></trkpt><trkpt lat="42.1546573" lon="13.6833712"><ele>704.0</ele><time>2026-05-02T12:06:49.618Z</time></trkpt><trkpt lat="42.1545774" lon="13.6834656"><ele>704.0</ele><time>2026-05-02T12:06:50.626Z</time></trkpt><trkpt lat="42.1545087" lon="13.6835526"><ele>704.0</ele><time>2026-05-02T12:06:51.62Z</time></trkpt><trkpt lat="42.1544466" lon="13.6836189"><ele>704.0</ele><time>2026-05-02T12:06:52.646Z</time></trkpt><trkpt lat="42.154373" lon="13.6836595"><ele>704.0</ele><time>2026-05-02T12:06:53.625Z</time></trkpt><trkpt lat="42.154301" lon="13.6836543"><ele>704.0</ele><time>2026-05-02T12:06:54.624Z</time></trkpt><trkpt lat="42.1542107" lon="13.6836511"><ele>704.0</ele><time>2026-05-02T12:06:55.631Z</time></trkpt><trkpt lat="42.1541262" lon="13.6836728"><ele>703.0</ele><time>2026-05-02T12:06:56.639Z</time></trkpt><trkpt lat="42.1540619" lon="13.6837412"><ele>702.0</ele><time>2026-05-02T12:06:57.65Z</time></trkpt><trkpt lat="42.1540275" lon="13.683833"><ele>701.0</ele><time>2026-05-02T12:06:58.636Z</time></trkpt><trkpt lat="42.1540267" lon="13.6839205"><ele>700.0</ele><time>2026-05-02T12:06:59.625Z</time></trkpt><trkpt lat="42.1540597" lon="13.6839983"><ele>699.0</ele><time>2026-05-02T12:07:01.631Z</time></trkpt><trkpt lat="42.1540972" lon="13.6840707"><ele>698.0</ele><time>2026-05-02T12:07:03.63Z</time></trkpt><trkpt lat="42.1541314" lon="13.6842255"><ele>698.0</ele><time>2026-05-02T12:07:05.634Z</time></trkpt><trkpt lat="42.1541228" lon="13.6843331"><ele>698.0</ele><time>2026-05-02T12:07:06.627Z</time></trkpt><trkpt lat="42.1540927" lon="13.6844599"><ele>698.0</ele><time>2026-05-02T12:07:07.629Z</time></trkpt><trkpt lat="42.1540452" lon="13.6846126"><ele>698.0</ele><time>2026-05-02T12:07:08.632Z</time></trkpt><trkpt lat="42.1539946" lon="13.6847972"><ele>698.0</ele><time>2026-05-02T12:07:09.633Z</time></trkpt><trkpt lat="42.1539492" lon="13.6849914"><ele>696.3333333333333</ele><time>2026-05-02T12:07:10.642Z</time></trkpt><trkpt lat="42.1539021" lon="13.6852041"><ele>694.6666666666666</ele><time>2026-05-02T12:07:11.628Z</time></trkpt><trkpt lat="42.1538524" lon="13.6854212"><ele>693.0</ele><time>2026-05-02T12:07:12.632Z</time></trkpt><trkpt lat="42.153799" lon="13.6856454"><ele>693.0</ele><time>2026-05-02T12:07:13.632Z</time></trkpt><trkpt lat="42.1537413" lon="13.6858802"><ele>693.0</ele><time>2026-05-02T12:07:14.637Z</time></trkpt><trkpt lat="42.1536822" lon="13.686117"><ele>693.0</ele><time>2026-05-02T12:07:15.654Z</time></trkpt><trkpt lat="42.1536252" lon="13.6863648"><ele>689.3333333333334</ele><time>2026-05-02T12:07:16.635Z</time></trkpt><trkpt lat="42.1535697" lon="13.6866146"><ele>685.6666666666667</ele><time>2026-05-02T12:07:17.637Z</time></trkpt><trkpt lat="42.1535207" lon="13.6868669"><ele>682.0</ele><time>2026-05-02T12:07:18.625Z</time></trkpt><trkpt lat="42.1534724" lon="13.6870988"><ele>679.6666666666667</ele><time>2026-05-02T12:07:19.644Z</time></trkpt><trkpt lat="42.1534279" lon="13.6873177"><ele>677.3333333333334</ele><time>2026-05-02T12:07:20.621Z</time></trkpt><trkpt lat="42.1533916" lon="13.687543"><ele>675.0</ele><time>2026-05-02T12:07:21.625Z</time></trkpt><trkpt lat="42.153353" lon="13.6877371"><ele>674.2</ele><time>2026-05-02T12:07:22.637Z</time></trkpt><trkpt lat="42.1533261" lon="13.6879003"><ele>673.4</ele><time>2026-05-02T12:07:23.626Z</time></trkpt><trkpt lat="42.1533005" lon="13.6880279"><ele>672.5999999999999</ele><time>2026-05-02T12:07:24.65Z</time></trkpt><trkpt lat="42.1532796" lon="13.6881417"><ele>671.8</ele><time>2026-05-02T12:07:25.638Z</time></trkpt><trkpt lat="42.1532647" lon="13.6882272"><ele>671.0</ele><time>2026-05-02T12:07:26.631Z</time></trkpt><trkpt lat="42.1532534" lon="13.6883673"><ele>671.0</ele><time>2026-05-02T12:07:28.638Z</time></trkpt><trkpt lat="42.1533193" lon="13.6883397"><ele>671.0</ele><time>2026-05-02T12:07:33.632Z</time></trkpt><trkpt lat="42.1533132" lon="13.6882236"><ele>671.0</ele><time>2026-05-02T12:07:34.64Z</time></trkpt><trkpt lat="42.1533097" lon="13.6880602"><ele>671.0</ele><time>2026-05-02T12:07:35.624Z</time></trkpt><trkpt lat="42.1533221" lon="13.6879093"><ele>671.0</ele><time>2026-05-02T12:07:36.635Z</time></trkpt><trkpt lat="42.153329" lon="13.687788"><ele>671.8</ele><time>2026-05-02T12:07:37.634Z</time></trkpt><trkpt lat="42.1532727" lon="13.6877045"><ele>672.5999999999999</ele><time>2026-05-02T12:07:39.634Z</time></trkpt><trkpt lat="42.1531367" lon="13.6876895"><ele>673.4</ele><time>2026-05-02T12:07:41.639Z</time></trkpt><trkpt lat="42.1530453" lon="13.6877234"><ele>674.2</ele><time>2026-05-02T12:07:42.637Z</time></trkpt><trkpt lat="42.1529394" lon="13.6877848"><ele>675.0</ele><time>2026-05-02T12:07:43.639Z</time></trkpt><trkpt lat="42.1528146" lon="13.68786"><ele>673.0</ele><time>2026-05-02T12:07:44.638Z</time></trkpt><trkpt lat="42.1526964" lon="13.6879307"><ele>671.0</ele><time>2026-05-02T12:07:45.641Z</time></trkpt><trkpt lat="42.1526057" lon="13.688006"><ele>669.0</ele><time>2026-05-02T12:07:46.626Z</time></trkpt><trkpt lat="42.1525371" lon="13.6880972"><ele>667.0</ele><time>2026-05-02T12:07:47.63Z</time></trkpt><trkpt lat="42.1524727" lon="13.6882321"><ele>667.0</ele><time>2026-05-02T12:07:48.628Z</time></trkpt><trkpt lat="42.1524149" lon="13.6883805"><ele>667.0</ele><time>2026-05-02T12:07:49.638Z</time></trkpt><trkpt lat="42.152344" lon="13.6885234"><ele>667.0</ele><time>2026-05-02T12:07:50.661Z</time></trkpt><trkpt lat="42.1522571" lon="13.6886606"><ele>667.0</ele><time>2026-05-02T12:07:51.63Z</time></trkpt><trkpt lat="42.1521558" lon="13.6887887"><ele>666.0</ele><time>2026-05-02T12:07:52.632Z</time></trkpt><trkpt lat="42.1520425" lon="13.688886"><ele>665.0</ele><time>2026-05-02T12:07:53.62Z</time></trkpt><trkpt lat="42.1519189" lon="13.6889742"><ele>664.0</ele><time>2026-05-02T12:07:54.644Z</time></trkpt><trkpt lat="42.1518005" lon="13.6890642"><ele>663.0</ele><time>2026-05-02T12:07:55.632Z</time></trkpt><trkpt lat="42.1516801" lon="13.6891564"><ele>663.0</ele><time>2026-05-02T12:07:56.639Z</time></trkpt><trkpt lat="42.1515617" lon="13.6892495"><ele>663.0</ele><time>2026-05-02T12:07:57.631Z</time></trkpt><trkpt lat="42.1514624" lon="13.6893329"><ele>663.0</ele><time>2026-05-02T12:07:58.634Z</time></trkpt><trkpt lat="42.1513745" lon="13.6893812"><ele>663.0</ele><time>2026-05-02T12:07:59.637Z</time></trkpt><trkpt lat="42.1512976" lon="13.6894332"><ele>663.0</ele><time>2026-05-02T12:08:00.637Z</time></trkpt><trkpt lat="42.1512352" lon="13.6894828"><ele>662.5999999999999</ele><time>2026-05-02T12:08:01.624Z</time></trkpt><trkpt lat="42.1511822" lon="13.6895412"><ele>662.1999999999999</ele><time>2026-05-02T12:08:02.625Z</time></trkpt><trkpt lat="42.15114" lon="13.6896363"><ele>661.8</ele><time>2026-05-02T12:08:03.628Z</time></trkpt><trkpt lat="42.1511086" lon="13.6897726"><ele>661.4</ele><time>2026-05-02T12:08:04.648Z</time></trkpt><trkpt lat="42.1510761" lon="13.6899221"><ele>661.0</ele><time>2026-05-02T12:08:05.631Z</time></trkpt><trkpt lat="42.1510432" lon="13.6900808"><ele>661.3333333333334</ele><time>2026-05-02T12:08:06.638Z</time></trkpt><trkpt lat="42.1509978" lon="13.6902762"><ele>661.6666666666666</ele><time>2026-05-02T12:08:07.638Z</time></trkpt><trkpt lat="42.1509464" lon="13.6904744"><ele>662.0</ele><time>2026-05-02T12:08:08.635Z</time></trkpt><trkpt lat="42.1508826" lon="13.6906919"><ele>662.0</ele><time>2026-05-02T12:08:09.627Z</time></trkpt><trkpt lat="42.150807" lon="13.6909409"><ele>662.0</ele><time>2026-05-02T12:08:10.641Z</time></trkpt><trkpt lat="42.1507313" lon="13.6911866"><ele>662.0</ele><time>2026-05-02T12:08:11.637Z</time></trkpt><trkpt lat="42.1506573" lon="13.6914212"><ele>661.3333333333333</ele><time>2026-05-02T12:08:12.632Z</time></trkpt><trkpt lat="42.1505869" lon="13.6916313"><ele>660.6666666666666</ele><time>2026-05-02T12:08:13.627Z</time></trkpt><trkpt lat="42.1505157" lon="13.6918139"><ele>660.0</ele><time>2026-05-02T12:08:14.66Z</time></trkpt><trkpt lat="42.150445" lon="13.6919796"><ele>660.0</ele><time>2026-05-02T12:08:15.65Z</time></trkpt><trkpt lat="42.1503727" lon="13.692138"><ele>660.0</ele><time>2026-05-02T12:08:16.643Z</time></trkpt><trkpt lat="42.1503132" lon="13.692292"><ele>660.0</ele><time>2026-05-02T12:08:17.64Z</time></trkpt><trkpt lat="42.1502557" lon="13.6924497"><ele>660.0</ele><time>2026-05-02T12:08:18.643Z</time></trkpt><trkpt lat="42.150209" lon="13.6925882"><ele>660.0</ele><time>2026-05-02T12:08:19.651Z</time></trkpt><trkpt lat="42.1501615" lon="13.6926898"><ele>660.0</ele><time>2026-05-02T12:08:20.641Z</time></trkpt><trkpt lat="42.1501" lon="13.6927706"><ele>660.0</ele><time>2026-05-02T12:08:21.662Z</time></trkpt><trkpt lat="42.1500244" lon="13.6928292"><ele>660.0</ele><time>2026-05-02T12:08:22.65Z</time></trkpt><trkpt lat="42.149937" lon="13.6928801"><ele>660.0</ele><time>2026-05-02T12:08:23.627Z</time></trkpt><trkpt lat="42.1498627" lon="13.6929341"><ele>660.0</ele><time>2026-05-02T12:08:24.645Z</time></trkpt><trkpt lat="42.1498107" lon="13.6930205"><ele>657.5</ele><time>2026-05-02T12:08:25.647Z</time></trkpt><trkpt lat="42.1497483" lon="13.6931526"><ele>655.0</ele><time>2026-05-02T12:08:26.658Z</time></trkpt><trkpt lat="42.1496888" lon="13.6933238"><ele>652.5</ele><time>2026-05-02T12:08:27.634Z</time></trkpt><trkpt lat="42.1496032" lon="13.6935106"><ele>650.0</ele><time>2026-05-02T12:08:28.633Z</time></trkpt><trkpt lat="42.14952" lon="13.6937084"><ele>650.0</ele><time>2026-05-02T12:08:29.645Z</time></trkpt><trkpt lat="42.1494208" lon="13.6939242"><ele>650.0</ele><time>2026-05-02T12:08:30.647Z</time></trkpt><trkpt lat="42.1493156" lon="13.6941289"><ele>650.0</ele><time>2026-05-02T12:08:31.634Z</time></trkpt><trkpt lat="42.1492253" lon="13.6943148"><ele>650.0</ele><time>2026-05-02T12:08:32.649Z</time></trkpt><trkpt lat="42.1491335" lon="13.6944784"><ele>650.0</ele><time>2026-05-02T12:08:33.645Z</time></trkpt><trkpt lat="42.1490367" lon="13.6946274"><ele>650.0</ele><time>2026-05-02T12:08:34.639Z</time></trkpt><trkpt lat="42.1489483" lon="13.694765"><ele>650.0</ele><time>2026-05-02T12:08:35.644Z</time></trkpt><trkpt lat="42.1488689" lon="13.6949131"><ele>650.0</ele><time>2026-05-02T12:08:36.647Z</time></trkpt><trkpt lat="42.1488035" lon="13.6950407"><ele>650.0</ele><time>2026-05-02T12:08:37.648Z</time></trkpt><trkpt lat="42.1487197" lon="13.6951467"><ele>650.0</ele><time>2026-05-02T12:08:38.66Z</time></trkpt><trkpt lat="42.1486268" lon="13.6952232"><ele>650.0</ele><time>2026-05-02T12:08:39.625Z</time></trkpt><trkpt lat="42.1485154" lon="13.6952915"><ele>649.75</ele><time>2026-05-02T12:08:40.658Z</time></trkpt><trkpt lat="42.1484191" lon="13.6953669"><ele>649.5</ele><time>2026-05-02T12:08:41.64Z</time></trkpt><trkpt lat="42.1483245" lon="13.6954776"><ele>649.25</ele><time>2026-05-02T12:08:42.637Z</time></trkpt><trkpt lat="42.148264" lon="13.695604"><ele>649.0</ele><time>2026-05-02T12:08:43.639Z</time></trkpt><trkpt lat="42.1482097" lon="13.6957403"><ele>649.0</ele><time>2026-05-02T12:08:44.642Z</time></trkpt><trkpt lat="42.1481492" lon="13.6958566"><ele>649.0</ele><time>2026-05-02T12:08:45.637Z</time></trkpt><trkpt lat="42.1480812" lon="13.6959367"><ele>649.0</ele><time>2026-05-02T12:08:46.649Z</time></trkpt><trkpt lat="42.1479892" lon="13.6959784"><ele>649.0</ele><time>2026-05-02T12:08:47.643Z</time></trkpt><trkpt lat="42.1478826" lon="13.6959972"><ele>649.0</ele><time>2026-05-02T12:08:48.639Z</time></trkpt><trkpt lat="42.1477497" lon="13.6960268"><ele>649.0</ele><time>2026-05-02T12:08:49.638Z</time></trkpt><trkpt lat="42.1476006" lon="13.6960486"><ele>649.0</ele><time>2026-05-02T12:08:50.639Z</time></trkpt><trkpt lat="42.1474513" lon="13.696078"><ele>649.0</ele><time>2026-05-02T12:08:51.655Z</time></trkpt><trkpt lat="42.147313" lon="13.6961062"><ele>649.0</ele><time>2026-05-02T12:08:52.635Z</time></trkpt><trkpt lat="42.1472007" lon="13.6961294"><ele>648.0</ele><time>2026-05-02T12:08:53.637Z</time></trkpt><trkpt lat="42.1471149" lon="13.6961257"><ele>647.0</ele><time>2026-05-02T12:08:54.631Z</time></trkpt><trkpt lat="42.1470327" lon="13.6961026"><ele>646.0</ele><time>2026-05-02T12:08:55.636Z</time></trkpt><trkpt lat="42.1469545" lon="13.6960486"><ele>645.0</ele><time>2026-05-02T12:08:56.624Z</time></trkpt><trkpt lat="42.1468544" lon="13.6959793"><ele>644.0</ele><time>2026-05-02T12:08:57.628Z</time></trkpt><trkpt lat="42.1467247" lon="13.6959176"><ele>644.0</ele><time>2026-05-02T12:08:58.634Z</time></trkpt><trkpt lat="42.1465901" lon="13.6958888"><ele>644.0</ele><time>2026-05-02T12:08:59.636Z</time></trkpt><trkpt lat="42.1464517" lon="13.6958471"><ele>644.0</ele><time>2026-05-02T12:09:00.633Z</time></trkpt><trkpt lat="42.1463261" lon="13.6958219"><ele>644.0</ele><time>2026-05-02T12:09:01.638Z</time></trkpt><trkpt lat="42.1461975" lon="13.6958187"><ele>640.0</ele><time>2026-05-02T12:09:02.637Z</time></trkpt><trkpt lat="42.1460698" lon="13.6958594"><ele>636.0</ele><time>2026-05-02T12:09:03.633Z</time></trkpt><trkpt lat="42.1459201" lon="13.6959359"><ele>632.0</ele><time>2026-05-02T12:09:04.629Z</time></trkpt><trkpt lat="42.1457458" lon="13.6960175"><ele>628.0</ele><time>2026-05-02T12:09:05.643Z</time></trkpt><trkpt lat="42.1455805" lon="13.6960846"><ele>624.0</ele><time>2026-05-02T12:09:06.655Z</time></trkpt><trkpt lat="42.1454114" lon="13.6961506"><ele>620.0</ele><time>2026-05-02T12:09:07.639Z</time></trkpt><trkpt lat="42.1452208" lon="13.6962172"><ele>620.0</ele><time>2026-05-02T12:09:08.635Z</time></trkpt><trkpt lat="42.1450347" lon="13.6962657"><ele>620.0</ele><time>2026-05-02T12:09:09.627Z</time></trkpt><trkpt lat="42.1448589" lon="13.6962873"><ele>620.0</ele><time>2026-05-02T12:09:10.631Z</time></trkpt><trkpt lat="42.1446915" lon="13.6963111"><ele>617.25</ele><time>2026-05-02T12:09:11.622Z</time></trkpt><trkpt lat="42.1445457" lon="13.6963387"><ele>614.5</ele><time>2026-05-02T12:09:12.641Z</time></trkpt><trkpt lat="42.1444074" lon="13.6963723"><ele>611.75</ele><time>2026-05-02T12:09:13.635Z</time></trkpt><trkpt lat="42.1442781" lon="13.6964252"><ele>609.0</ele><time>2026-05-02T12:09:14.635Z</time></trkpt><trkpt lat="42.1441465" lon="13.6965195"><ele>605.3333333333334</ele><time>2026-05-02T12:09:15.635Z</time></trkpt><trkpt lat="42.1440066" lon="13.6966402"><ele>601.6666666666667</ele><time>2026-05-02T12:09:16.625Z</time></trkpt><trkpt lat="42.1438674" lon="13.69678"><ele>598.0</ele><time>2026-05-02T12:09:17.662Z</time></trkpt><trkpt lat="42.1437276" lon="13.6968907"><ele>597.0</ele><time>2026-05-02T12:09:18.632Z</time></trkpt><trkpt lat="42.1435845" lon="13.6969764"><ele>596.0</ele><time>2026-05-02T12:09:19.625Z</time></trkpt><trkpt lat="42.1434313" lon="13.697049"><ele>595.0</ele><time>2026-05-02T12:09:20.63Z</time></trkpt><trkpt lat="42.1432731" lon="13.6971594"><ele>593.3333333333334</ele><time>2026-05-02T12:09:21.639Z</time></trkpt><trkpt lat="42.1431076" lon="13.6972942"><ele>591.6666666666666</ele><time>2026-05-02T12:09:22.644Z</time></trkpt><trkpt lat="42.1429331" lon="13.6974424"><ele>590.0</ele><time>2026-05-02T12:09:23.629Z</time></trkpt><trkpt lat="42.1427656" lon="13.697583"><ele>590.0</ele><time>2026-05-02T12:09:24.657Z</time></trkpt><trkpt lat="42.1425934" lon="13.6977042"><ele>590.0</ele><time>2026-05-02T12:09:25.644Z</time></trkpt><trkpt lat="42.1424334" lon="13.6978099"><ele>590.0</ele><time>2026-05-02T12:09:26.636Z</time></trkpt><trkpt lat="42.1422731" lon="13.6979063"><ele>585.6666666666666</ele><time>2026-05-02T12:09:27.639Z</time></trkpt><trkpt lat="42.1421112" lon="13.6979994"><ele>581.3333333333334</ele><time>2026-05-02T12:09:28.643Z</time></trkpt><trkpt lat="42.1419567" lon="13.6980625"><ele>577.0</ele><time>2026-05-02T12:09:29.643Z</time></trkpt><trkpt lat="42.1417989" lon="13.6980923"><ele>577.0</ele><time>2026-05-02T12:09:30.625Z</time></trkpt><trkpt lat="42.1416577" lon="13.6980921"><ele>577.0</ele><time>2026-05-02T12:09:31.636Z</time></trkpt><trkpt lat="42.1415344" lon="13.6980751"><ele>577.0</ele><time>2026-05-02T12:09:32.637Z</time></trkpt><trkpt lat="42.1414122" lon="13.6980485"><ele>577.0</ele><time>2026-05-02T12:09:33.64Z</time></trkpt><trkpt lat="42.1412967" lon="13.6980125"><ele>574.6</ele><time>2026-05-02T12:09:34.626Z</time></trkpt><trkpt lat="42.1411982" lon="13.6979691"><ele>572.2</ele><time>2026-05-02T12:09:35.643Z</time></trkpt><trkpt lat="42.1411098" lon="13.6979088"><ele>569.8</ele><time>2026-05-02T12:09:36.65Z</time></trkpt><trkpt lat="42.1410319" lon="13.6978278"><ele>567.4</ele><time>2026-05-02T12:09:37.649Z</time></trkpt><trkpt lat="42.140974" lon="13.69775"><ele>565.0</ele><time>2026-05-02T12:09:38.634Z</time></trkpt><trkpt lat="42.1409336" lon="13.6976293"><ele>565.0</ele><time>2026-05-02T12:09:40.65Z</time></trkpt><trkpt lat="42.1408588" lon="13.6976346"><ele>565.0</ele><time>2026-05-02T12:09:45.63Z</time></trkpt><trkpt lat="42.1408243" lon="13.6977342"><ele>565.0</ele><time>2026-05-02T12:10:47.631Z</time></trkpt><trkpt lat="42.1407424" lon="13.697888"><ele>565.0</ele><time>2026-05-02T12:10:49.628Z</time></trkpt><trkpt lat="42.1406884" lon="13.6979963"><ele>565.0</ele><time>2026-05-02T12:10:50.64Z</time></trkpt><trkpt lat="42.140638" lon="13.6980761"><ele>565.4</ele><time>2026-05-02T12:10:51.643Z</time></trkpt><trkpt lat="42.1405642" lon="13.6981429"><ele>565.8</ele><time>2026-05-02T12:10:53.636Z</time></trkpt><trkpt lat="42.1405111" lon="13.6980862"><ele>566.2</ele><time>2026-05-02T12:10:55.631Z</time></trkpt><trkpt lat="42.1404482" lon="13.6979414"><ele>566.6</ele><time>2026-05-02T12:10:57.625Z</time></trkpt><trkpt lat="42.1403928" lon="13.6978254"><ele>567.0</ele><time>2026-05-02T12:10:58.624Z</time></trkpt><trkpt lat="42.1403388" lon="13.6977026"><ele>567.0</ele><time>2026-05-02T12:10:59.62Z</time></trkpt><trkpt lat="42.1402718" lon="13.6976017"><ele>567.0</ele><time>2026-05-02T12:11:00.641Z</time></trkpt><trkpt lat="42.1402021" lon="13.6975076"><ele>567.0</ele><time>2026-05-02T12:11:01.643Z</time></trkpt><trkpt lat="42.140125" lon="13.6974354"><ele>567.0</ele><time>2026-05-02T12:11:02.632Z</time></trkpt><trkpt lat="42.1400534" lon="13.6974006"><ele>567.0</ele><time>2026-05-02T12:11:03.636Z</time></trkpt><trkpt lat="42.1399855" lon="13.6973903"><ele>567.0</ele><time>2026-05-02T12:11:04.628Z</time></trkpt><trkpt lat="42.1399115" lon="13.6974121"><ele>568.1666666666666</ele><time>2026-05-02T12:11:05.631Z</time></trkpt><trkpt lat="42.139833" lon="13.697434"><ele>569.3333333333334</ele><time>2026-05-02T12:11:06.632Z</time></trkpt><trkpt lat="42.1397508" lon="13.6974498"><ele>570.5</ele><time>2026-05-02T12:11:07.635Z</time></trkpt><trkpt lat="42.1396567" lon="13.697412"><ele>571.6666666666667</ele><time>2026-05-02T12:11:09.634Z</time></trkpt><trkpt lat="42.1395921" lon="13.6973794"><ele>572.8333333333334</ele><time>2026-05-02T12:11:10.634Z</time></trkpt><trkpt lat="42.1395098" lon="13.697328"><ele>574.0</ele><time>2026-05-02T12:11:11.635Z</time></trkpt><trkpt lat="42.1394219" lon="13.6973016"><ele>574.0</ele><time>2026-05-02T12:11:12.634Z</time></trkpt><trkpt lat="42.1393309" lon="13.6973021"><ele>574.0</ele><time>2026-05-02T12:11:13.63Z</time></trkpt><trkpt lat="42.1392246" lon="13.6972942"><ele>574.0</ele><time>2026-05-02T12:11:14.64Z</time></trkpt><trkpt lat="42.1391391" lon="13.6972712"><ele>574.0</ele><time>2026-05-02T12:11:15.626Z</time></trkpt><trkpt lat="42.1390722" lon="13.6972201"><ele>574.0</ele><time>2026-05-02T12:11:16.665Z</time></trkpt><trkpt lat="42.1389922" lon="13.6971514"><ele>576.2</ele><time>2026-05-02T12:11:17.63Z</time></trkpt><trkpt lat="42.1389149" lon="13.6970863"><ele>578.4</ele><time>2026-05-02T12:11:18.634Z</time></trkpt><trkpt lat="42.1388472" lon="13.6970111"><ele>580.6</ele><time>2026-05-02T12:11:19.627Z</time></trkpt><trkpt lat="42.1387818" lon="13.6969163"><ele>582.8</ele><time>2026-05-02T12:11:20.634Z</time></trkpt><trkpt lat="42.1387198" lon="13.6968234"><ele>585.0</ele><time>2026-05-02T12:11:21.637Z</time></trkpt><trkpt lat="42.1386255" lon="13.6967552"><ele>585.0</ele><time>2026-05-02T12:11:22.65Z</time></trkpt><trkpt lat="42.1385255" lon="13.6966976"><ele>585.0</ele><time>2026-05-02T12:11:23.646Z</time></trkpt><trkpt lat="42.1384152" lon="13.6966387"><ele>585.0</ele><time>2026-05-02T12:11:24.635Z</time></trkpt><trkpt lat="42.1383025" lon="13.6965836"><ele>585.0</ele><time>2026-05-02T12:11:25.639Z</time></trkpt><trkpt lat="42.1382043" lon="13.696535"><ele>586.0</ele><time>2026-05-02T12:11:26.631Z</time></trkpt><trkpt lat="42.1381033" lon="13.6964965"><ele>587.0</ele><time>2026-05-02T12:11:27.623Z</time></trkpt><trkpt lat="42.1379956" lon="13.6964573"><ele>588.0</ele><time>2026-05-02T12:11:28.632Z</time></trkpt><trkpt lat="42.137883" lon="13.6964154"><ele>589.0</ele><time>2026-05-02T12:11:29.64Z</time></trkpt><trkpt lat="42.1377827" lon="13.6963729"><ele>590.0</ele><time>2026-05-02T12:11:30.63Z</time></trkpt><trkpt lat="42.1377002" lon="13.6963171"><ele>590.0</ele><time>2026-05-02T12:11:31.644Z</time></trkpt><trkpt lat="42.1376235" lon="13.6962537"><ele>590.0</ele><time>2026-05-02T12:11:32.635Z</time></trkpt><trkpt lat="42.1375553" lon="13.6961964"><ele>590.0</ele><time>2026-05-02T12:11:33.632Z</time></trkpt><trkpt lat="42.1374827" lon="13.6961391"><ele>590.0</ele><time>2026-05-02T12:11:34.622Z</time></trkpt><trkpt lat="42.1373991" lon="13.6960988"><ele>590.0</ele><time>2026-05-02T12:11:35.642Z</time></trkpt><trkpt lat="42.1373252" lon="13.6960743"><ele>590.0</ele><time>2026-05-02T12:11:36.633Z</time></trkpt><trkpt lat="42.1372538" lon="13.6960569"><ele>590.5</ele><time>2026-05-02T12:11:37.632Z</time></trkpt><trkpt lat="42.1371566" lon="13.6960526"><ele>591.0</ele><time>2026-05-02T12:11:39.652Z</time></trkpt><trkpt lat="42.137061" lon="13.6960674"><ele>591.5</ele><time>2026-05-02T12:11:41.647Z</time></trkpt><trkpt lat="42.1369508" lon="13.6960929"><ele>592.0</ele><time>2026-05-02T12:11:43.625Z</time></trkpt><trkpt lat="42.136887" lon="13.6961012"><ele>592.5</ele><time>2026-05-02T12:11:44.648Z</time></trkpt><trkpt lat="42.1368236" lon="13.6961005"><ele>593.0</ele><time>2026-05-02T12:11:45.628Z</time></trkpt><trkpt lat="42.1366933" lon="13.6960914"><ele>593.0</ele><time>2026-05-02T12:11:47.636Z</time></trkpt><trkpt lat="42.1365902" lon="13.6960818"><ele>593.0</ele><time>2026-05-02T12:11:49.633Z</time></trkpt><trkpt lat="42.1364993" lon="13.6960745"><ele>593.0</ele><time>2026-05-02T12:11:51.627Z</time></trkpt><trkpt lat="42.1363729" lon="13.6960672"><ele>593.0</ele><time>2026-05-02T12:11:53.622Z</time></trkpt><trkpt lat="42.1362786" lon="13.6960777"><ele>593.0</ele><time>2026-05-02T12:11:54.635Z</time></trkpt><trkpt lat="42.1361757" lon="13.6960843"><ele>594.1999999999999</ele><time>2026-05-02T12:11:55.636Z</time></trkpt><trkpt lat="42.1360678" lon="13.696096"><ele>595.4</ele><time>2026-05-02T12:11:56.652Z</time></trkpt><trkpt lat="42.1359609" lon="13.6960952"><ele>596.5999999999999</ele><time>2026-05-02T12:11:57.635Z</time></trkpt><trkpt lat="42.1358661" lon="13.6960913"><ele>597.8</ele><time>2026-05-02T12:11:58.641Z</time></trkpt><trkpt lat="42.1357666" lon="13.6960674"><ele>599.0</ele><time>2026-05-02T12:11:59.636Z</time></trkpt><trkpt lat="42.135654" lon="13.6960337"><ele>602.5</ele><time>2026-05-02T12:12:00.637Z</time></trkpt><trkpt lat="42.1355327" lon="13.6959809"><ele>606.0</ele><time>2026-05-02T12:12:01.633Z</time></trkpt><trkpt lat="42.1354125" lon="13.6959317"><ele>609.5</ele><time>2026-05-02T12:12:02.639Z</time></trkpt><trkpt lat="42.1352982" lon="13.6958922"><ele>613.0</ele><time>2026-05-02T12:12:03.624Z</time></trkpt><trkpt lat="42.1351958" lon="13.6958796"><ele>613.0</ele><time>2026-05-02T12:12:04.631Z</time></trkpt><trkpt lat="42.1351" lon="13.6958751"><ele>613.0</ele><time>2026-05-02T12:12:05.627Z</time></trkpt><trkpt lat="42.1350236" lon="13.6958989"><ele>613.0</ele><time>2026-05-02T12:12:06.636Z</time></trkpt><trkpt lat="42.1349335" lon="13.6959245"><ele>613.0</ele><time>2026-05-02T12:12:07.639Z</time></trkpt><trkpt lat="42.1348275" lon="13.69595"><ele>613.0</ele><time>2026-05-02T12:12:08.648Z</time></trkpt><trkpt lat="42.1347188" lon="13.6959608"><ele>613.0</ele><time>2026-05-02T12:12:09.624Z</time></trkpt><trkpt lat="42.1346334" lon="13.695975"><ele>613.0</ele><time>2026-05-02T12:12:10.632Z</time></trkpt><trkpt lat="42.1345561" lon="13.6959907"><ele>613.0</ele><time>2026-05-02T12:12:11.629Z</time></trkpt><trkpt lat="42.1344786" lon="13.6960168"><ele>613.0</ele><time>2026-05-02T12:12:12.644Z</time></trkpt><trkpt lat="42.134412" lon="13.6960639"><ele>613.0</ele><time>2026-05-02T12:12:13.639Z</time></trkpt><trkpt lat="42.1343511" lon="13.6961102"><ele>613.0</ele><time>2026-05-02T12:12:14.616Z</time></trkpt><trkpt lat="42.1342806" lon="13.6961933"><ele>613.0</ele><time>2026-05-02T12:12:15.621Z</time></trkpt><trkpt lat="42.1342078" lon="13.6963054"><ele>613.0</ele><time>2026-05-02T12:12:16.627Z</time></trkpt><trkpt lat="42.1341356" lon="13.6964304"><ele>613.0</ele><time>2026-05-02T12:12:17.639Z</time></trkpt><trkpt lat="42.1340535" lon="13.6965565"><ele>613.0</ele><time>2026-05-02T12:12:18.632Z</time></trkpt><trkpt lat="42.1339483" lon="13.6966624"><ele>613.25</ele><time>2026-05-02T12:12:19.639Z</time></trkpt><trkpt lat="42.1338456" lon="13.6967686"><ele>613.5</ele><time>2026-05-02T12:12:20.622Z</time></trkpt><trkpt lat="42.1337515" lon="13.6968909"><ele>613.75</ele><time>2026-05-02T12:12:21.631Z</time></trkpt><trkpt lat="42.1336484" lon="13.697024"><ele>614.0</ele><time>2026-05-02T12:12:22.622Z</time></trkpt><trkpt lat="42.1335466" lon="13.6971666"><ele>615.0</ele><time>2026-05-02T12:12:23.632Z</time></trkpt><trkpt lat="42.13344" lon="13.6973131"><ele>616.0</ele><time>2026-05-02T12:12:24.628Z</time></trkpt><trkpt lat="42.1333302" lon="13.6974541"><ele>617.0</ele><time>2026-05-02T12:12:25.624Z</time></trkpt><trkpt lat="42.1332121" lon="13.6975943"><ele>615.6666666666666</ele><time>2026-05-02T12:12:26.628Z</time></trkpt><trkpt lat="42.1330874" lon="13.6977533"><ele>614.3333333333334</ele><time>2026-05-02T12:12:27.633Z</time></trkpt><trkpt lat="42.1329648" lon="13.6979159"><ele>613.0</ele><time>2026-05-02T12:12:28.64Z</time></trkpt><trkpt lat="42.1328451" lon="13.6980698"><ele>613.0</ele><time>2026-05-02T12:12:29.632Z</time></trkpt><trkpt lat="42.132733" lon="13.6981799"><ele>613.0</ele><time>2026-05-02T12:12:30.627Z</time></trkpt><trkpt lat="42.1326427" lon="13.6982781"><ele>613.0</ele><time>2026-05-02T12:12:31.643Z</time></trkpt><trkpt lat="42.1325717" lon="13.6983714"><ele>613.0</ele><time>2026-05-02T12:12:32.638Z</time></trkpt><trkpt lat="42.13252" lon="13.6985048"><ele>612.75</ele><time>2026-05-02T12:12:33.656Z</time></trkpt><trkpt lat="42.1324745" lon="13.6986544"><ele>612.5</ele><time>2026-05-02T12:12:34.635Z</time></trkpt><trkpt lat="42.1324335" lon="13.6987954"><ele>612.25</ele><time>2026-05-02T12:12:35.629Z</time></trkpt><trkpt lat="42.1323908" lon="13.6989337"><ele>612.0</ele><time>2026-05-02T12:12:36.627Z</time></trkpt><trkpt lat="42.1323317" lon="13.6990809"><ele>612.75</ele><time>2026-05-02T12:12:37.636Z</time></trkpt><trkpt lat="42.1322559" lon="13.6992321"><ele>613.5</ele><time>2026-05-02T12:12:38.644Z</time></trkpt><trkpt lat="42.1321673" lon="13.6993856"><ele>614.25</ele><time>2026-05-02T12:12:39.632Z</time></trkpt><trkpt lat="42.1320722" lon="13.6995327"><ele>615.0</ele><time>2026-05-02T12:12:40.647Z</time></trkpt><trkpt lat="42.1319589" lon="13.6996856"><ele>615.0</ele><time>2026-05-02T12:12:41.644Z</time></trkpt><trkpt lat="42.131838" lon="13.6998492"><ele>615.0</ele><time>2026-05-02T12:12:42.631Z</time></trkpt><trkpt lat="42.1317194" lon="13.7000034"><ele>615.0</ele><time>2026-05-02T12:12:43.648Z</time></trkpt><trkpt lat="42.1315967" lon="13.7001214"><ele>615.5</ele><time>2026-05-02T12:12:44.63Z</time></trkpt><trkpt lat="42.1314788" lon="13.7002098"><ele>616.0</ele><time>2026-05-02T12:12:45.662Z</time></trkpt><trkpt lat="42.131372" lon="13.7002982"><ele>616.5</ele><time>2026-05-02T12:12:46.645Z</time></trkpt><trkpt lat="42.1312833" lon="13.7004051"><ele>617.0</ele><time>2026-05-02T12:12:47.65Z</time></trkpt><trkpt lat="42.1312032" lon="13.7005584"><ele>617.0</ele><time>2026-05-02T12:12:48.631Z</time></trkpt><trkpt lat="42.1311073" lon="13.7007292"><ele>617.0</ele><time>2026-05-02T12:12:49.637Z</time></trkpt><trkpt lat="42.1309911" lon="13.7008739"><ele>617.0</ele><time>2026-05-02T12:12:50.634Z</time></trkpt><trkpt lat="42.130862" lon="13.7010121"><ele>621.0</ele><time>2026-05-02T12:12:51.636Z</time></trkpt><trkpt lat="42.1307221" lon="13.7011434"><ele>625.0</ele><time>2026-05-02T12:12:52.644Z</time></trkpt><trkpt lat="42.1305904" lon="13.7012726"><ele>629.0</ele><time>2026-05-02T12:12:53.634Z</time></trkpt><trkpt lat="42.1304786" lon="13.7014108"><ele>629.0</ele><time>2026-05-02T12:12:54.635Z</time></trkpt><trkpt lat="42.1303714" lon="13.7015368"><ele>629.0</ele><time>2026-05-02T12:12:55.632Z</time></trkpt><trkpt lat="42.1302866" lon="13.701627"><ele>629.0</ele><time>2026-05-02T12:12:56.644Z</time></trkpt><trkpt lat="42.1302209" lon="13.7016762"><ele>629.0</ele><time>2026-05-02T12:12:57.639Z</time></trkpt><trkpt lat="42.1301575" lon="13.7016896"><ele>629.0</ele><time>2026-05-02T12:12:59.643Z</time></trkpt><trkpt lat="42.1301164" lon="13.7015872"><ele>629.0</ele><time>2026-05-02T12:13:01.624Z</time></trkpt><trkpt lat="42.1300581" lon="13.7014308"><ele>629.0</ele><time>2026-05-02T12:13:03.641Z</time></trkpt><trkpt lat="42.1300013" lon="13.7013194"><ele>629.0</ele><time>2026-05-02T12:13:04.645Z</time></trkpt><trkpt lat="42.1299367" lon="13.7011848"><ele>629.0</ele><time>2026-05-02T12:13:05.64Z</time></trkpt><trkpt lat="42.1298768" lon="13.7010441"><ele>633.0</ele><time>2026-05-02T12:13:06.622Z</time></trkpt><trkpt lat="42.129818" lon="13.7009034"><ele>637.0</ele><time>2026-05-02T12:13:07.639Z</time></trkpt><trkpt lat="42.1297581" lon="13.7007673"><ele>641.0</ele><time>2026-05-02T12:13:08.642Z</time></trkpt><trkpt lat="42.129694" lon="13.7006445"><ele>645.0</ele><time>2026-05-02T12:13:09.645Z</time></trkpt><trkpt lat="42.129636" lon="13.7005287"><ele>645.0</ele><time>2026-05-02T12:13:10.631Z</time></trkpt><trkpt lat="42.1295805" lon="13.7004273"><ele>645.0</ele><time>2026-05-02T12:13:11.626Z</time></trkpt><trkpt lat="42.1295386" lon="13.700345"><ele>645.0</ele><time>2026-05-02T12:13:12.63Z</time></trkpt><trkpt lat="42.1294897" lon="13.7002564"><ele>645.0</ele><time>2026-05-02T12:13:13.637Z</time></trkpt><trkpt lat="42.1294494" lon="13.7001589"><ele>645.0</ele><time>2026-05-02T12:13:14.623Z</time></trkpt><trkpt lat="42.1294096" lon="13.7000678"><ele>645.0</ele><time>2026-05-02T12:13:15.651Z</time></trkpt><trkpt lat="42.1293675" lon="13.6999772"><ele>647.0</ele><time>2026-05-02T12:13:16.639Z</time></trkpt><trkpt lat="42.1293266" lon="13.6999052"><ele>649.0</ele><time>2026-05-02T12:13:17.646Z</time></trkpt><trkpt lat="42.1292205" lon="13.6998643"><ele>651.0</ele><time>2026-05-02T12:13:19.639Z</time></trkpt><trkpt lat="42.1291171" lon="13.6998883"><ele>653.0</ele><time>2026-05-02T12:13:21.645Z</time></trkpt><trkpt lat="42.1290506" lon="13.6999277"><ele>655.0</ele><time>2026-05-02T12:13:23.635Z</time></trkpt><trkpt lat="42.1289488" lon="13.6999875"><ele>656.6</ele><time>2026-05-02T12:13:25.635Z</time></trkpt><trkpt lat="42.1288718" lon="13.7000289"><ele>658.2</ele><time>2026-05-02T12:13:27.636Z</time></trkpt><trkpt lat="42.1288066" lon="13.7000438"><ele>659.8</ele><time>2026-05-02T12:13:29.647Z</time></trkpt><trkpt lat="42.1287388" lon="13.6999738"><ele>661.4</ele><time>2026-05-02T12:13:31.626Z</time></trkpt><trkpt lat="42.1286557" lon="13.6998933"><ele>663.0</ele><time>2026-05-02T12:13:33.629Z</time></trkpt><trkpt lat="42.1285389" lon="13.6999114"><ele>663.0</ele><time>2026-05-02T12:13:35.632Z</time></trkpt><trkpt lat="42.1284567" lon="13.6999416"><ele>663.0</ele><time>2026-05-02T12:13:36.621Z</time></trkpt><trkpt lat="42.1283589" lon="13.699965"><ele>663.0</ele><time>2026-05-02T12:13:37.64Z</time></trkpt><trkpt lat="42.128247" lon="13.6999953"><ele>663.0</ele><time>2026-05-02T12:13:38.627Z</time></trkpt><trkpt lat="42.1281427" lon="13.700033"><ele>663.0</ele><time>2026-05-02T12:13:39.635Z</time></trkpt><trkpt lat="42.1280445" lon="13.7000637"><ele>665.1666666666666</ele><time>2026-05-02T12:13:40.632Z</time></trkpt><trkpt lat="42.1279568" lon="13.7000891"><ele>667.3333333333334</ele><time>2026-05-02T12:13:41.641Z</time></trkpt><trkpt lat="42.1278688" lon="13.7001126"><ele>669.5</ele><time>2026-05-02T12:13:42.642Z</time></trkpt><trkpt lat="42.1277872" lon="13.7001284"><ele>671.6666666666667</ele><time>2026-05-02T12:13:43.628Z</time></trkpt><trkpt lat="42.1276987" lon="13.7001362"><ele>673.8333333333334</ele><time>2026-05-02T12:13:44.634Z</time></trkpt><trkpt lat="42.1276164" lon="13.7001369"><ele>676.0</ele><time>2026-05-02T12:13:45.639Z</time></trkpt><trkpt lat="42.1275341" lon="13.700135"><ele>676.0</ele><time>2026-05-02T12:13:46.635Z</time></trkpt><trkpt lat="42.1274663" lon="13.7001193"><ele>676.0</ele><time>2026-05-02T12:13:47.647Z</time></trkpt><trkpt lat="42.1273471" lon="13.7001109"><ele>676.0</ele><time>2026-05-02T12:13:49.633Z</time></trkpt><trkpt lat="42.127275" lon="13.7001252"><ele>676.0</ele><time>2026-05-02T12:13:51.637Z</time></trkpt><trkpt lat="42.1271897" lon="13.7001296"><ele>676.0</ele><time>2026-05-02T12:14:00.645Z</time></trkpt><trkpt lat="42.1270858" lon="13.7001154"><ele>674.0</ele><time>2026-05-02T12:14:02.637Z</time></trkpt><trkpt lat="42.1269833" lon="13.7000654"><ele>672.0</ele><time>2026-05-02T12:14:04.641Z</time></trkpt><trkpt lat="42.126888" lon="13.6999761"><ele>670.0</ele><time>2026-05-02T12:14:06.649Z</time></trkpt><trkpt lat="42.1268458" lon="13.6998676"><ele>668.0</ele><time>2026-05-02T12:14:08.62Z</time></trkpt><trkpt lat="42.1267989" lon="13.6997361"><ele>666.0</ele><time>2026-05-02T12:14:10.636Z</time></trkpt><trkpt lat="42.1267815" lon="13.6995953"><ele>666.0</ele><time>2026-05-02T12:14:12.652Z</time></trkpt><trkpt lat="42.1267579" lon="13.6994708"><ele>666.0</ele><time>2026-05-02T12:14:14.62Z</time></trkpt><trkpt lat="42.1267063" lon="13.6993671"><ele>666.0</ele><time>2026-05-02T12:14:16.636Z</time></trkpt><trkpt lat="42.1266117" lon="13.6993588"><ele>666.0</ele><time>2026-05-02T12:14:18.638Z</time></trkpt><trkpt lat="42.1264986" lon="13.6993735"><ele>666.0</ele><time>2026-05-02T12:14:20.637Z</time></trkpt><trkpt lat="42.12643" lon="13.6993939"><ele>665.1428571428572</ele><time>2026-05-02T12:14:21.639Z</time></trkpt><trkpt lat="42.1263632" lon="13.6994126"><ele>664.2857142857142</ele><time>2026-05-02T12:14:22.633Z</time></trkpt><trkpt lat="42.126296" lon="13.6994045"><ele>663.4285714285714</ele><time>2026-05-02T12:14:24.632Z</time></trkpt><trkpt lat="42.1262179" lon="13.6994179"><ele>662.5714285714287</ele><time>2026-05-02T12:14:28.634Z</time></trkpt><trkpt lat="42.1261634" lon="13.6994678"><ele>661.7142857142858</ele><time>2026-05-02T12:14:32.631Z</time></trkpt><trkpt lat="42.1260888" lon="13.6994688"><ele>660.8571428571429</ele><time>2026-05-02T12:14:34.636Z</time></trkpt><trkpt lat="42.1260218" lon="13.6994383"><ele>660.0</ele><time>2026-05-02T12:14:35.648Z</time></trkpt><trkpt lat="42.1259522" lon="13.6994334"><ele>660.0</ele><time>2026-05-02T12:14:36.645Z</time></trkpt><trkpt lat="42.125835" lon="13.6993882"><ele>660.0</ele><time>2026-05-02T12:14:38.625Z</time></trkpt><trkpt lat="42.1257172" lon="13.6993519"><ele>660.0</ele><time>2026-05-02T12:14:40.624Z</time></trkpt><trkpt lat="42.1255994" lon="13.6993151"><ele>660.0</ele><time>2026-05-02T12:14:42.646Z</time></trkpt><trkpt lat="42.1255134" lon="13.6992882"><ele>660.0</ele><time>2026-05-02T12:14:44.651Z</time></trkpt><trkpt lat="42.1254373" lon="13.6992777"><ele>660.0</ele><time>2026-05-02T12:14:47.627Z</time></trkpt><trkpt lat="42.1255236" lon="13.6993125"><ele>660.0</ele><time>2026-05-02T12:14:58.639Z</time></trkpt><trkpt lat="42.1256189" lon="13.6993414"><ele>660.0</ele><time>2026-05-02T12:14:59.62Z</time></trkpt><trkpt lat="42.125723" lon="13.6993711"><ele>660.0</ele><time>2026-05-02T12:15:00.637Z</time></trkpt><trkpt lat="42.1258291" lon="13.6993932"><ele>659.0</ele><time>2026-05-02T12:15:01.637Z</time></trkpt><trkpt lat="42.12592" lon="13.6994238"><ele>658.0</ele><time>2026-05-02T12:15:02.632Z</time></trkpt><trkpt lat="42.1259982" lon="13.6994415"><ele>657.0</ele><time>2026-05-02T12:15:03.647Z</time></trkpt><trkpt lat="42.1260711" lon="13.6994532"><ele>656.0</ele><time>2026-05-02T12:15:04.63Z</time></trkpt><trkpt lat="42.1261473" lon="13.6994621"><ele>655.0</ele><time>2026-05-02T12:15:05.63Z</time></trkpt><trkpt lat="42.1262132" lon="13.6994738"><ele>654.0</ele><time>2026-05-02T12:15:06.627Z</time></trkpt><trkpt lat="42.1263108" lon="13.6994475"><ele>655.0</ele><time>2026-05-02T12:15:08.636Z</time></trkpt><trkpt lat="42.126322" lon="13.6993377"><ele>656.0</ele><time>2026-05-02T12:15:11.625Z</time></trkpt><trkpt lat="42.126279" lon="13.6992049"><ele>657.0</ele><time>2026-05-02T12:15:19.639Z</time></trkpt><trkpt lat="42.1262467" lon="13.6991101"><ele>658.0</ele><time>2026-05-02T12:15:20.647Z</time></trkpt><trkpt lat="42.1262094" lon="13.6990372"><ele>659.0</ele><time>2026-05-02T12:15:21.632Z</time></trkpt><trkpt lat="42.1261316" lon="13.6989867"><ele>660.0</ele><time>2026-05-02T12:15:23.626Z</time></trkpt><trkpt lat="42.1261026" lon="13.698865"><ele>660.0</ele><time>2026-05-02T12:15:25.648Z</time></trkpt><trkpt lat="42.1260933" lon="13.6987022"><ele>660.0</ele><time>2026-05-02T12:15:27.614Z</time></trkpt><trkpt lat="42.1260954" lon="13.6985551"><ele>660.0</ele><time>2026-05-02T12:15:29.646Z</time></trkpt><trkpt lat="42.1261062" lon="13.6984349"><ele>660.0</ele><time>2026-05-02T12:15:30.631Z</time></trkpt><trkpt lat="42.1261174" lon="13.6982941"><ele>660.0</ele><time>2026-05-02T12:15:31.635Z</time></trkpt><trkpt lat="42.1261241" lon="13.6981536"><ele>661.5</ele><time>2026-05-02T12:15:32.623Z</time></trkpt><trkpt lat="42.1261333" lon="13.698006"><ele>663.0</ele><time>2026-05-02T12:15:33.644Z</time></trkpt><trkpt lat="42.1261324" lon="13.6978547"><ele>664.5</ele><time>2026-05-02T12:15:34.625Z</time></trkpt><trkpt lat="42.1261296" lon="13.6976989"><ele>666.0</ele><time>2026-05-02T12:15:35.628Z</time></trkpt><trkpt lat="42.1261091" lon="13.6975393"><ele>668.1999999999999</ele><time>2026-05-02T12:15:36.64Z</time></trkpt><trkpt lat="42.1260747" lon="13.6973946"><ele>670.4</ele><time>2026-05-02T12:15:37.633Z</time></trkpt><trkpt lat="42.1260311" lon="13.6972698"><ele>672.6</ele><time>2026-05-02T12:15:38.641Z</time></trkpt><trkpt lat="42.1259972" lon="13.6971424"><ele>674.8</ele><time>2026-05-02T12:15:39.633Z</time></trkpt><trkpt lat="42.1259622" lon="13.6970137"><ele>677.0</ele><time>2026-05-02T12:15:40.643Z</time></trkpt><trkpt lat="42.1259273" lon="13.69689"><ele>679.4000000000001</ele><time>2026-05-02T12:15:41.64Z</time></trkpt><trkpt lat="42.1258976" lon="13.6967739"><ele>681.8000000000001</ele><time>2026-05-02T12:15:42.631Z</time></trkpt><trkpt lat="42.1258718" lon="13.6966461"><ele>684.2</ele><time>2026-05-02T12:15:43.633Z</time></trkpt><trkpt lat="42.1258507" lon="13.696509"><ele>686.6</ele><time>2026-05-02T12:15:44.639Z</time></trkpt><trkpt lat="42.1258275" lon="13.6963721"><ele>689.0</ele><time>2026-05-02T12:15:45.629Z</time></trkpt><trkpt lat="42.1257964" lon="13.6962315"><ele>693.6666666666666</ele><time>2026-05-02T12:15:46.629Z</time></trkpt><trkpt lat="42.1257658" lon="13.6960533"><ele>698.3333333333334</ele><time>2026-05-02T12:15:47.647Z</time></trkpt><trkpt lat="42.1257253" lon="13.6958386"><ele>703.0</ele><time>2026-05-02T12:15:48.643Z</time></trkpt><trkpt lat="42.1256748" lon="13.6955981"><ele>705.3333333333334</ele><time>2026-05-02T12:15:49.641Z</time></trkpt><trkpt lat="42.1256258" lon="13.695342"><ele>707.6666666666666</ele><time>2026-05-02T12:15:50.641Z</time></trkpt><trkpt lat="42.1255825" lon="13.6950733"><ele>710.0</ele><time>2026-05-02T12:15:51.624Z</time></trkpt><trkpt lat="42.1255352" lon="13.6948087"><ele>716.3333333333333</ele><time>2026-05-02T12:15:52.626Z</time></trkpt><trkpt lat="42.1254857" lon="13.6945815"><ele>722.6666666666666</ele><time>2026-05-02T12:15:53.635Z</time></trkpt><trkpt lat="42.1254465" lon="13.6943969"><ele>729.0</ele><time>2026-05-02T12:15:54.632Z</time></trkpt><trkpt lat="42.1253998" lon="13.6942277"><ele>729.8333333333334</ele><time>2026-05-02T12:15:55.629Z</time></trkpt><trkpt lat="42.1253506" lon="13.6941"><ele>730.6666666666666</ele><time>2026-05-02T12:15:56.622Z</time></trkpt><trkpt lat="42.1253059" lon="13.6940101"><ele>731.5</ele><time>2026-05-02T12:15:57.629Z</time></trkpt><trkpt lat="42.125268" lon="13.693932"><ele>732.3333333333333</ele><time>2026-05-02T12:15:58.632Z</time></trkpt><trkpt lat="42.1252333" lon="13.6938408"><ele>733.1666666666666</ele><time>2026-05-02T12:15:59.641Z</time></trkpt><trkpt lat="42.125203" lon="13.6937399"><ele>734.0</ele><time>2026-05-02T12:16:00.634Z</time></trkpt><trkpt lat="42.1251684" lon="13.6936285"><ele>735.6</ele><time>2026-05-02T12:16:01.632Z</time></trkpt><trkpt lat="42.1251313" lon="13.6935325"><ele>737.2</ele><time>2026-05-02T12:16:02.627Z</time></trkpt><trkpt lat="42.1250775" lon="13.6934296"><ele>738.8000000000001</ele><time>2026-05-02T12:16:03.628Z</time></trkpt><trkpt lat="42.1250257" lon="13.6933213"><ele>740.4000000000001</ele><time>2026-05-02T12:16:04.63Z</time></trkpt><trkpt lat="42.1249731" lon="13.6932147"><ele>742.0</ele><time>2026-05-02T12:16:05.617Z</time></trkpt><trkpt lat="42.1249039" lon="13.6931141"><ele>748.0</ele><time>2026-05-02T12:16:06.618Z</time></trkpt><trkpt lat="42.1248245" lon="13.6930198"><ele>754.0</ele><time>2026-05-02T12:16:07.612Z</time></trkpt><trkpt lat="42.1247384" lon="13.6929133"><ele>760.0</ele><time>2026-05-02T12:16:08.622Z</time></trkpt><trkpt lat="42.1246558" lon="13.6928037"><ele>766.0</ele><time>2026-05-02T12:16:09.622Z</time></trkpt><trkpt lat="42.1245755" lon="13.6926976"><ele>766.25</ele><time>2026-05-02T12:16:10.634Z</time></trkpt><trkpt lat="42.1245017" lon="13.6925821"><ele>766.5</ele><time>2026-05-02T12:16:11.635Z</time></trkpt><trkpt lat="42.1244406" lon="13.6924521"><ele>766.75</ele><time>2026-05-02T12:16:12.629Z</time></trkpt><trkpt lat="42.124389" lon="13.6923161"><ele>767.0</ele><time>2026-05-02T12:16:13.646Z</time></trkpt><trkpt lat="42.1243388" lon="13.6921774"><ele>767.0</ele><time>2026-05-02T12:16:14.623Z</time></trkpt><trkpt lat="42.1243042" lon="13.6920698"><ele>767.0</ele><time>2026-05-02T12:16:15.614Z</time></trkpt><trkpt lat="42.1242422" lon="13.6919895"><ele>767.0</ele><time>2026-05-02T12:16:17.633Z</time></trkpt><trkpt lat="42.1241283" lon="13.6920216"><ele>767.0</ele><time>2026-05-02T12:16:19.633Z</time></trkpt><trkpt lat="42.1240826" lon="13.6921222"><ele>767.0</ele><time>2026-05-02T12:16:21.63Z</time></trkpt><trkpt lat="42.1240705" lon="13.692212"><ele>767.0</ele><time>2026-05-02T12:16:22.619Z</time></trkpt><trkpt lat="42.1240629" lon="13.6923141"><ele>771.0</ele><time>2026-05-02T12:16:23.633Z</time></trkpt><trkpt lat="42.1240571" lon="13.6924235"><ele>775.0</ele><time>2026-05-02T12:16:24.622Z</time></trkpt><trkpt lat="42.1240481" lon="13.6925412"><ele>779.0</ele><time>2026-05-02T12:16:25.624Z</time></trkpt><trkpt lat="42.1240467" lon="13.6926623"><ele>783.0</ele><time>2026-05-02T12:16:26.637Z</time></trkpt><trkpt lat="42.124046" lon="13.6928043"><ele>787.0</ele><time>2026-05-02T12:16:27.64Z</time></trkpt><trkpt lat="42.1240467" lon="13.6929459"><ele>787.0</ele><time>2026-05-02T12:16:28.647Z</time></trkpt><trkpt lat="42.1240399" lon="13.6930952"><ele>787.0</ele><time>2026-05-02T12:16:29.625Z</time></trkpt><trkpt lat="42.1240405" lon="13.6932439"><ele>787.0</ele><time>2026-05-02T12:16:30.633Z</time></trkpt><trkpt lat="42.1240244" lon="13.6933729"><ele>787.0</ele><time>2026-05-02T12:16:31.637Z</time></trkpt><trkpt lat="42.1239843" lon="13.6934689"><ele>787.0</ele><time>2026-05-02T12:16:32.627Z</time></trkpt><trkpt lat="42.1239347" lon="13.6935499"><ele>784.6</ele><time>2026-05-02T12:16:33.635Z</time></trkpt><trkpt lat="42.1238556" lon="13.6936514"><ele>782.2</ele><time>2026-05-02T12:16:34.634Z</time></trkpt><trkpt lat="42.1237673" lon="13.6937245"><ele>779.8</ele><time>2026-05-02T12:16:35.646Z</time></trkpt><trkpt lat="42.1236739" lon="13.6937859"><ele>777.4</ele><time>2026-05-02T12:16:36.622Z</time></trkpt><trkpt lat="42.1235644" lon="13.6938324"><ele>775.0</ele><time>2026-05-02T12:16:37.631Z</time></trkpt><trkpt lat="42.1234429" lon="13.6938735"><ele>775.0</ele><time>2026-05-02T12:16:38.625Z</time></trkpt><trkpt lat="42.1233254" lon="13.6939237"><ele>775.0</ele><time>2026-05-02T12:16:39.64Z</time></trkpt><trkpt lat="42.1232336" lon="13.693998"><ele>775.0</ele><time>2026-05-02T12:16:40.628Z</time></trkpt><trkpt lat="42.1231406" lon="13.6941009"><ele>775.0</ele><time>2026-05-02T12:16:41.644Z</time></trkpt><trkpt lat="42.1230452" lon="13.6942248"><ele>779.0</ele><time>2026-05-02T12:16:42.625Z</time></trkpt><trkpt lat="42.1229543" lon="13.6943317"><ele>783.0</ele><time>2026-05-02T12:16:43.641Z</time></trkpt><trkpt lat="42.1228609" lon="13.694435"><ele>787.0</ele><time>2026-05-02T12:16:44.625Z</time></trkpt><trkpt lat="42.1227548" lon="13.6945137"><ele>791.0</ele><time>2026-05-02T12:16:45.63Z</time></trkpt><trkpt lat="42.1226426" lon="13.6945731"><ele>791.0</ele><time>2026-05-02T12:16:46.625Z</time></trkpt><trkpt lat="42.1225233" lon="13.694616"><ele>791.0</ele><time>2026-05-02T12:16:47.635Z</time></trkpt><trkpt lat="42.122412" lon="13.6946299"><ele>791.0</ele><time>2026-05-02T12:16:48.625Z</time></trkpt><trkpt lat="42.1223034" lon="13.6946355"><ele>791.0</ele><time>2026-05-02T12:16:49.634Z</time></trkpt><trkpt lat="42.1222081" lon="13.6946219"><ele>791.0</ele><time>2026-05-02T12:16:50.635Z</time></trkpt><trkpt lat="42.1221313" lon="13.694594"><ele>792.0</ele><time>2026-05-02T12:16:51.631Z</time></trkpt><trkpt lat="42.1220698" lon="13.6945641"><ele>793.0</ele><time>2026-05-02T12:16:53.652Z</time></trkpt><trkpt lat="42.1220755" lon="13.6944626"><ele>794.0</ele><time>2026-05-02T12:16:56.626Z</time></trkpt><trkpt lat="42.1221652" lon="13.6942942"><ele>795.0</ele><time>2026-05-02T12:16:58.644Z</time></trkpt><trkpt lat="42.1222154" lon="13.6941547"><ele>796.0</ele><time>2026-05-02T12:16:59.649Z</time></trkpt><trkpt lat="42.1222779" lon="13.6939946"><ele>796.3333333333333</ele><time>2026-05-02T12:17:00.636Z</time></trkpt><trkpt lat="42.1223432" lon="13.6938142"><ele>796.6666666666667</ele><time>2026-05-02T12:17:01.638Z</time></trkpt><trkpt lat="42.1224006" lon="13.6936268"><ele>797.0</ele><time>2026-05-02T12:17:02.634Z</time></trkpt><trkpt lat="42.1224666" lon="13.6934421"><ele>799.0</ele><time>2026-05-02T12:17:03.636Z</time></trkpt><trkpt lat="42.1225354" lon="13.6932632"><ele>801.0</ele><time>2026-05-02T12:17:04.626Z</time></trkpt><trkpt lat="42.1225814" lon="13.6931127"><ele>803.0</ele><time>2026-05-02T12:17:05.641Z</time></trkpt><trkpt lat="42.1226068" lon="13.6929905"><ele>805.0</ele><time>2026-05-02T12:17:06.622Z</time></trkpt><trkpt lat="42.1226137" lon="13.6928841"><ele>807.0</ele><time>2026-05-02T12:17:07.627Z</time></trkpt><trkpt lat="42.1225278" lon="13.6927768"><ele>807.0</ele><time>2026-05-02T12:17:09.632Z</time></trkpt><trkpt lat="42.1224583" lon="13.6927716"><ele>807.0</ele><time>2026-05-02T12:17:10.616Z</time></trkpt><trkpt lat="42.1223753" lon="13.6928032"><ele>807.0</ele><time>2026-05-02T12:17:11.64Z</time></trkpt><trkpt lat="42.122279" lon="13.6928556"><ele>807.0</ele><time>2026-05-02T12:17:12.628Z</time></trkpt><trkpt lat="42.1221903" lon="13.6929074"><ele>807.0</ele><time>2026-05-02T12:17:13.61Z</time></trkpt><trkpt lat="42.1220895" lon="13.6929892"><ele>812.0</ele><time>2026-05-02T12:17:14.652Z</time></trkpt><trkpt lat="42.1219733" lon="13.6930793"><ele>817.0</ele><time>2026-05-02T12:17:15.632Z</time></trkpt><trkpt lat="42.1218361" lon="13.6931843"><ele>822.0</ele><time>2026-05-02T12:17:16.629Z</time></trkpt><trkpt lat="42.1216933" lon="13.6932625"><ele>827.0</ele><time>2026-05-02T12:17:17.618Z</time></trkpt><trkpt lat="42.1215529" lon="13.6933421"><ele>832.25</ele><time>2026-05-02T12:17:18.65Z</time></trkpt><trkpt lat="42.1214265" lon="13.6934048"><ele>837.5</ele><time>2026-05-02T12:17:19.633Z</time></trkpt><trkpt lat="42.1212999" lon="13.6934684"><ele>842.75</ele><time>2026-05-02T12:17:20.652Z</time></trkpt><trkpt lat="42.1211608" lon="13.6935237"><ele>848.0</ele><time>2026-05-02T12:17:21.631Z</time></trkpt><trkpt lat="42.1210081" lon="13.6935774"><ele>845.0</ele><time>2026-05-02T12:17:22.637Z</time></trkpt><trkpt lat="42.1208399" lon="13.6936333"><ele>842.0</ele><time>2026-05-02T12:17:23.627Z</time></trkpt><trkpt lat="42.1206628" lon="13.6937014"><ele>839.0</ele><time>2026-05-02T12:17:24.631Z</time></trkpt><trkpt lat="42.1204858" lon="13.6937652"><ele>839.0</ele><time>2026-05-02T12:17:25.628Z</time></trkpt><trkpt lat="42.1202996" lon="13.6938397"><ele>839.0</ele><time>2026-05-02T12:17:26.627Z</time></trkpt><trkpt lat="42.1201098" lon="13.6939209"><ele>839.0</ele><time>2026-05-02T12:17:27.619Z</time></trkpt><trkpt lat="42.1199246" lon="13.6939996"><ele>847.3333333333334</ele><time>2026-05-02T12:17:28.637Z</time></trkpt><trkpt lat="42.1197503" lon="13.6940833"><ele>855.6666666666667</ele><time>2026-05-02T12:17:29.626Z</time></trkpt><trkpt lat="42.119594" lon="13.6941553"><ele>864.0</ele><time>2026-05-02T12:17:30.622Z</time></trkpt><trkpt lat="42.119442" lon="13.6942132"><ele>864.0</ele><time>2026-05-02T12:17:31.619Z</time></trkpt><trkpt lat="42.1192858" lon="13.6942486"><ele>864.0</ele><time>2026-05-02T12:17:32.626Z</time></trkpt><trkpt lat="42.1191373" lon="13.6942853"><ele>864.0</ele><time>2026-05-02T12:17:33.637Z</time></trkpt><trkpt lat="42.1189915" lon="13.6943298"><ele>861.6666666666667</ele><time>2026-05-02T12:17:34.618Z</time></trkpt><trkpt lat="42.1188635" lon="13.6943806"><ele>859.3333333333334</ele><time>2026-05-02T12:17:35.629Z</time></trkpt><trkpt lat="42.1187173" lon="13.6944675"><ele>857.0</ele><time>2026-05-02T12:17:36.639Z</time></trkpt><trkpt lat="42.1185508" lon="13.6945697"><ele>857.0</ele><time>2026-05-02T12:17:37.629Z</time></trkpt><trkpt lat="42.1183769" lon="13.6946853"><ele>857.0</ele><time>2026-05-02T12:17:38.631Z</time></trkpt><trkpt lat="42.1182032" lon="13.6948042"><ele>857.0</ele><time>2026-05-02T12:17:39.646Z</time></trkpt><trkpt lat="42.1180346" lon="13.6949151"><ele>867.0</ele><time>2026-05-02T12:17:40.628Z</time></trkpt><trkpt lat="42.1178715" lon="13.6950245"><ele>877.0</ele><time>2026-05-02T12:17:41.64Z</time></trkpt><trkpt lat="42.1177056" lon="13.6951186"><ele>887.0</ele><time>2026-05-02T12:17:42.628Z</time></trkpt><trkpt lat="42.1175418" lon="13.695185"><ele>894.0</ele><time>2026-05-02T12:17:43.644Z</time></trkpt><trkpt lat="42.1173693" lon="13.6952259"><ele>901.0</ele><time>2026-05-02T12:17:44.627Z</time></trkpt><trkpt lat="42.1171692" lon="13.6952542"><ele>908.0</ele><time>2026-05-02T12:17:45.638Z</time></trkpt><trkpt lat="42.1169587" lon="13.6952899"><ele>900.0</ele><time>2026-05-02T12:17:46.635Z</time></trkpt><trkpt lat="42.1167499" lon="13.6953306"><ele>892.0</ele><time>2026-05-02T12:17:47.64Z</time></trkpt><trkpt lat="42.1165555" lon="13.6953699"><ele>884.0</ele><time>2026-05-02T12:17:48.622Z</time></trkpt><trkpt lat="42.116375" lon="13.6954104"><ele>884.0</ele><time>2026-05-02T12:17:49.63Z</time></trkpt><trkpt lat="42.1161992" lon="13.6954556"><ele>884.0</ele><time>2026-05-02T12:17:50.631Z</time></trkpt><trkpt lat="42.1160305" lon="13.6955034"><ele>884.0</ele><time>2026-05-02T12:17:51.622Z</time></trkpt><trkpt lat="42.1158597" lon="13.6955605"><ele>890.6666666666667</ele><time>2026-05-02T12:17:52.635Z</time></trkpt><trkpt lat="42.1156847" lon="13.6956084"><ele>897.3333333333333</ele><time>2026-05-02T12:17:53.634Z</time></trkpt><trkpt lat="42.1154979" lon="13.695662"><ele>904.0</ele><time>2026-05-02T12:17:54.641Z</time></trkpt><trkpt lat="42.1153033" lon="13.6957151"><ele>904.0</ele><time>2026-05-02T12:17:55.623Z</time></trkpt><trkpt lat="42.115081" lon="13.6957641"><ele>904.0</ele><time>2026-05-02T12:17:56.633Z</time></trkpt><trkpt lat="42.1148527" lon="13.6958198"><ele>910.0</ele><time>2026-05-02T12:17:57.629Z</time></trkpt><trkpt lat="42.1146261" lon="13.6958639"><ele>916.0</ele><time>2026-05-02T12:17:58.622Z</time></trkpt><trkpt lat="42.1144204" lon="13.6959106"><ele>922.0</ele><time>2026-05-02T12:17:59.62Z</time></trkpt><trkpt lat="42.1142231" lon="13.6959567"><ele>927.3333333333333</ele><time>2026-05-02T12:18:00.625Z</time></trkpt><trkpt lat="42.1140287" lon="13.6960116"><ele>932.6666666666667</ele><time>2026-05-02T12:18:01.62Z</time></trkpt><trkpt lat="42.1138363" lon="13.6960691"><ele>938.0</ele><time>2026-05-02T12:18:02.644Z</time></trkpt><trkpt lat="42.1136402" lon="13.6961299"><ele>931.3333333333334</ele><time>2026-05-02T12:18:03.643Z</time></trkpt><trkpt lat="42.1134448" lon="13.6961859"><ele>924.6666666666667</ele><time>2026-05-02T12:18:04.621Z</time></trkpt><trkpt lat="42.1132713" lon="13.6962314"><ele>918.0</ele><time>2026-05-02T12:18:05.63Z</time></trkpt><trkpt lat="42.1131169" lon="13.6962711"><ele>918.0</ele><time>2026-05-02T12:18:06.627Z</time></trkpt><trkpt lat="42.1129675" lon="13.6963241"><ele>918.0</ele><time>2026-05-02T12:18:07.65Z</time></trkpt><trkpt lat="42.1128104" lon="13.6963893"><ele>918.0</ele><time>2026-05-02T12:18:08.631Z</time></trkpt><trkpt lat="42.1126422" lon="13.6964879"><ele>918.0</ele><time>2026-05-02T12:18:09.638Z</time></trkpt><trkpt lat="42.1124453" lon="13.696605"><ele>918.0</ele><time>2026-05-02T12:18:10.623Z</time></trkpt><trkpt lat="42.1122463" lon="13.6967282"><ele>918.0</ele><time>2026-05-02T12:18:11.636Z</time></trkpt><trkpt lat="42.1120526" lon="13.6968442"><ele>914.6666666666667</ele><time>2026-05-02T12:18:12.636Z</time></trkpt><trkpt lat="42.1118639" lon="13.6969688"><ele>911.3333333333334</ele><time>2026-05-02T12:18:13.632Z</time></trkpt><trkpt lat="42.1116914" lon="13.6970691"><ele>908.0</ele><time>2026-05-02T12:18:14.636Z</time></trkpt><trkpt lat="42.1115176" lon="13.6971617"><ele>918.0</ele><time>2026-05-02T12:18:15.633Z</time></trkpt><trkpt lat="42.1113475" lon="13.6972464"><ele>928.0</ele><time>2026-05-02T12:18:16.642Z</time></trkpt><trkpt lat="42.1111803" lon="13.6973209"><ele>938.0</ele><time>2026-05-02T12:18:17.633Z</time></trkpt><trkpt lat="42.1110159" lon="13.697404"><ele>938.0</ele><time>2026-05-02T12:18:18.621Z</time></trkpt><trkpt lat="42.1108532" lon="13.6974964"><ele>938.0</ele><time>2026-05-02T12:18:19.633Z</time></trkpt><trkpt lat="42.1106906" lon="13.697603"><ele>938.0</ele><time>2026-05-02T12:18:20.618Z</time></trkpt><trkpt lat="42.1105212" lon="13.6977176"><ele>936.3333333333334</ele><time>2026-05-02T12:18:21.642Z</time></trkpt><trkpt lat="42.1103584" lon="13.6978347"><ele>934.6666666666667</ele><time>2026-05-02T12:18:22.627Z</time></trkpt><trkpt lat="42.1101969" lon="13.6979297"><ele>933.0</ele><time>2026-05-02T12:18:23.622Z</time></trkpt><trkpt lat="42.1100249" lon="13.6980188"><ele>941.3333333333333</ele><time>2026-05-02T12:18:24.629Z</time></trkpt><trkpt lat="42.1098318" lon="13.6981238"><ele>949.6666666666666</ele><time>2026-05-02T12:18:25.636Z</time></trkpt><trkpt lat="42.1096339" lon="13.698218"><ele>958.0</ele><time>2026-05-02T12:18:26.621Z</time></trkpt><trkpt lat="42.1094413" lon="13.6983102"><ele>958.0</ele><time>2026-05-02T12:18:27.633Z</time></trkpt><trkpt lat="42.1092598" lon="13.6983889"><ele>958.0</ele><time>2026-05-02T12:18:28.625Z</time></trkpt><trkpt lat="42.1090866" lon="13.6984426"><ele>958.0</ele><time>2026-05-02T12:18:29.638Z</time></trkpt><trkpt lat="42.108926" lon="13.698488"><ele>957.75</ele><time>2026-05-02T12:18:30.624Z</time></trkpt><trkpt lat="42.1087787" lon="13.6985258"><ele>957.5</ele><time>2026-05-02T12:18:31.634Z</time></trkpt><trkpt lat="42.1086546" lon="13.6985451"><ele>957.25</ele><time>2026-05-02T12:18:32.638Z</time></trkpt><trkpt lat="42.1085472" lon="13.698542"><ele>957.0</ele><time>2026-05-02T12:18:33.621Z</time></trkpt><trkpt lat="42.1084418" lon="13.6984858"><ele>957.0</ele><time>2026-05-02T12:18:34.643Z</time></trkpt><trkpt lat="42.1083773" lon="13.6984065"><ele>957.0</ele><time>2026-05-02T12:18:35.636Z</time></trkpt><trkpt lat="42.1083372" lon="13.6983047"><ele>957.0</ele><time>2026-05-02T12:18:36.664Z</time></trkpt><trkpt lat="42.1083018" lon="13.6981595"><ele>957.0</ele><time>2026-05-02T12:18:37.627Z</time></trkpt><trkpt lat="42.108269" lon="13.6980102"><ele>957.0</ele><time>2026-05-02T12:18:38.646Z</time></trkpt><trkpt lat="42.1082159" lon="13.6978615"><ele>955.8</ele><time>2026-05-02T12:18:39.638Z</time></trkpt><trkpt lat="42.1081477" lon="13.6977174"><ele>954.6</ele><time>2026-05-02T12:18:40.629Z</time></trkpt><trkpt lat="42.108091" lon="13.6975964"><ele>953.3999999999999</ele><time>2026-05-02T12:18:41.648Z</time></trkpt><trkpt lat="42.1080672" lon="13.6974867"><ele>952.1999999999999</ele><time>2026-05-02T12:18:42.659Z</time></trkpt><trkpt lat="42.1080586" lon="13.6973701"><ele>951.0</ele><time>2026-05-02T12:18:43.64Z</time></trkpt><trkpt lat="42.1080721" lon="13.6972475"><ele>951.0</ele><time>2026-05-02T12:18:44.652Z</time></trkpt><trkpt lat="42.108092" lon="13.6971167"><ele>950.9999999999999</ele><time>2026-05-02T12:18:45.658Z</time></trkpt><trkpt lat="42.1081247" lon="13.6969813"><ele>950.9999999999999</ele><time>2026-05-02T12:18:46.652Z</time></trkpt><trkpt lat="42.1081772" lon="13.6968321"><ele>951.0</ele><time>2026-05-02T12:18:47.621Z</time></trkpt><trkpt lat="42.1082376" lon="13.6966973"><ele>951.0</ele><time>2026-05-02T12:18:48.62Z</time></trkpt><trkpt lat="42.1082925" lon="13.696589"><ele>954.3333333333334</ele><time>2026-05-02T12:18:49.621Z</time></trkpt><trkpt lat="42.1083236" lon="13.6965035"><ele>957.6666666666667</ele><time>2026-05-02T12:18:50.636Z</time></trkpt><trkpt lat="42.1083703" lon="13.6963649"><ele>961.0</ele><time>2026-05-02T12:18:52.632Z</time></trkpt><trkpt lat="42.1084096" lon="13.6962665"><ele>964.3333333333334</ele><time>2026-05-02T12:18:54.634Z</time></trkpt><trkpt lat="42.1084409" lon="13.6961579"><ele>967.6666666666667</ele><time>2026-05-02T12:18:56.635Z</time></trkpt><trkpt lat="42.1084696" lon="13.6960688"><ele>971.0</ele><time>2026-05-02T12:18:58.622Z</time></trkpt><trkpt lat="42.1084719" lon="13.6961631"><ele>971.1999999999999</ele><time>2026-05-02T12:19:02.642Z</time></trkpt><trkpt lat="42.1084392" lon="13.6962527"><ele>971.3999999999999</ele><time>2026-05-02T12:19:03.637Z</time></trkpt><trkpt lat="42.1083827" lon="13.6963676"><ele>971.6</ele><time>2026-05-02T12:19:04.622Z</time></trkpt><trkpt lat="42.1083294" lon="13.6964968"><ele>971.8</ele><time>2026-05-02T12:19:05.642Z</time></trkpt><trkpt lat="42.1082686" lon="13.6966272"><ele>972.0</ele><time>2026-05-02T12:19:06.633Z</time></trkpt><trkpt lat="42.108214" lon="13.6967484"><ele>967.8</ele><time>2026-05-02T12:19:07.632Z</time></trkpt><trkpt lat="42.1081685" lon="13.6968702"><ele>963.6</ele><time>2026-05-02T12:19:08.624Z</time></trkpt><trkpt lat="42.1081304" lon="13.6969914"><ele>959.3999999999999</ele><time>2026-05-02T12:19:09.641Z</time></trkpt><trkpt lat="42.1080946" lon="13.6971215"><ele>955.1999999999999</ele><time>2026-05-02T12:19:10.635Z</time></trkpt><trkpt lat="42.1080733" lon="13.6972354"><ele>951.0</ele><time>2026-05-02T12:19:11.657Z</time></trkpt><trkpt lat="42.1080601" lon="13.6973385"><ele>951.0</ele><time>2026-05-02T12:19:12.627Z</time></trkpt><trkpt lat="42.1080403" lon="13.6974477"><ele>950.9999999999999</ele><time>2026-05-02T12:19:14.628Z</time></trkpt><trkpt lat="42.1079743" lon="13.6974435"><ele>950.9999999999999</ele><time>2026-05-02T12:19:17.642Z</time></trkpt><trkpt lat="42.1079151" lon="13.6973157"><ele>951.0</ele><time>2026-05-02T12:19:19.622Z</time></trkpt><trkpt lat="42.107895" lon="13.6972095"><ele>951.0</ele><time>2026-05-02T12:19:20.626Z</time></trkpt><trkpt lat="42.1078802" lon="13.697066"><ele>950.5</ele><time>2026-05-02T12:19:21.62Z</time></trkpt><trkpt lat="42.1078584" lon="13.6968997"><ele>950.0</ele><time>2026-05-02T12:19:22.626Z</time></trkpt><trkpt lat="42.10783" lon="13.6967085"><ele>949.5</ele><time>2026-05-02T12:19:23.633Z</time></trkpt><trkpt lat="42.1078027" lon="13.6965039"><ele>949.0</ele><time>2026-05-02T12:19:24.634Z</time></trkpt><trkpt lat="42.1077666" lon="13.6962952"><ele>947.6666666666666</ele><time>2026-05-02T12:19:25.642Z</time></trkpt><trkpt lat="42.1077257" lon="13.6960548"><ele>946.3333333333333</ele><time>2026-05-02T12:19:26.641Z</time></trkpt><trkpt lat="42.1076796" lon="13.6958044"><ele>945.0</ele><time>2026-05-02T12:19:27.627Z</time></trkpt><trkpt lat="42.1076362" lon="13.6955611"><ele>945.0</ele><time>2026-05-02T12:19:28.646Z</time></trkpt><trkpt lat="42.1075962" lon="13.6953141"><ele>945.0</ele><time>2026-05-02T12:19:29.63Z</time></trkpt><trkpt lat="42.1075529" lon="13.6950851"><ele>945.0</ele><time>2026-05-02T12:19:30.646Z</time></trkpt><trkpt lat="42.1075198" lon="13.6948809"><ele>944.6</ele><time>2026-05-02T12:19:31.625Z</time></trkpt><trkpt lat="42.1074917" lon="13.6947192"><ele>944.2</ele><time>2026-05-02T12:19:32.621Z</time></trkpt><trkpt lat="42.1074628" lon="13.694591"><ele>943.8</ele><time>2026-05-02T12:19:33.626Z</time></trkpt><trkpt lat="42.107425" lon="13.69449"><ele>943.4</ele><time>2026-05-02T12:19:34.635Z</time></trkpt><trkpt lat="42.1073767" lon="13.6944133"><ele>943.0</ele><time>2026-05-02T12:19:35.639Z</time></trkpt><trkpt lat="42.1072887" lon="13.6943609"><ele>938.75</ele><time>2026-05-02T12:19:36.647Z</time></trkpt><trkpt lat="42.1071749" lon="13.6943459"><ele>934.5</ele><time>2026-05-02T12:19:37.63Z</time></trkpt><trkpt lat="42.1070261" lon="13.6943396"><ele>930.25</ele><time>2026-05-02T12:19:38.632Z</time></trkpt><trkpt lat="42.1068685" lon="13.6943223"><ele>926.0</ele><time>2026-05-02T12:19:39.64Z</time></trkpt><trkpt lat="42.1067269" lon="13.6942936"><ele>926.0</ele><time>2026-05-02T12:19:40.637Z</time></trkpt><trkpt lat="42.106585" lon="13.6942413"><ele>926.0</ele><time>2026-05-02T12:19:41.649Z</time></trkpt><trkpt lat="42.1064264" lon="13.6941879"><ele>926.0</ele><time>2026-05-02T12:19:42.625Z</time></trkpt><trkpt lat="42.1062372" lon="13.6941487"><ele>922.0</ele><time>2026-05-02T12:19:43.641Z</time></trkpt><trkpt lat="42.1060395" lon="13.6941076"><ele>918.0</ele><time>2026-05-02T12:19:44.641Z</time></trkpt><trkpt lat="42.1058535" lon="13.6940655"><ele>914.0</ele><time>2026-05-02T12:19:45.636Z</time></trkpt><trkpt lat="42.1056805" lon="13.6940284"><ele>912.0</ele><time>2026-05-02T12:19:46.634Z</time></trkpt><trkpt lat="42.1055173" lon="13.6939827"><ele>910.0</ele><time>2026-05-02T12:19:47.632Z</time></trkpt><trkpt lat="42.1053663" lon="13.6939419"><ele>908.0</ele><time>2026-05-02T12:19:48.626Z</time></trkpt><trkpt lat="42.1052474" lon="13.6939069"><ele>906.0</ele><time>2026-05-02T12:19:49.634Z</time></trkpt><trkpt lat="42.1051626" lon="13.6938722"><ele>906.0</ele><time>2026-05-02T12:19:50.648Z</time></trkpt><trkpt lat="42.1051002" lon="13.6938115"><ele>905.9999999999999</ele><time>2026-05-02T12:19:51.637Z</time></trkpt><trkpt lat="42.1050281" lon="13.6936528"><ele>905.9999999999999</ele><time>2026-05-02T12:19:53.626Z</time></trkpt><trkpt lat="42.1049741" lon="13.693549"><ele>906.0</ele><time>2026-05-02T12:19:54.632Z</time></trkpt><trkpt lat="42.1049201" lon="13.6934446"><ele>906.0</ele><time>2026-05-02T12:19:55.638Z</time></trkpt><trkpt lat="42.1048653" lon="13.693359"><ele>908.1666666666666</ele><time>2026-05-02T12:19:56.629Z</time></trkpt><trkpt lat="42.104813" lon="13.6932862"><ele>910.3333333333333</ele><time>2026-05-02T12:19:57.645Z</time></trkpt><trkpt lat="42.1047403" lon="13.6932682"><ele>912.5</ele><time>2026-05-02T12:19:58.628Z</time></trkpt><trkpt lat="42.1046642" lon="13.6932889"><ele>914.6666666666666</ele><time>2026-05-02T12:19:59.651Z</time></trkpt><trkpt lat="42.1045751" lon="13.693315"><ele>916.8333333333333</ele><time>2026-05-02T12:20:00.643Z</time></trkpt><trkpt lat="42.1044629" lon="13.6932997"><ele>919.0</ele><time>2026-05-02T12:20:01.651Z</time></trkpt><trkpt lat="42.1043472" lon="13.6932674"><ele>919.0</ele><time>2026-05-02T12:20:02.628Z</time></trkpt><trkpt lat="42.1042522" lon="13.6932461"><ele>919.0000000000001</ele><time>2026-05-02T12:20:03.641Z</time></trkpt><trkpt lat="42.1041773" lon="13.6932715"><ele>919.0000000000001</ele><time>2026-05-02T12:20:04.643Z</time></trkpt><trkpt lat="42.1041264" lon="13.6933351"><ele>919.0</ele><time>2026-05-02T12:20:05.629Z</time></trkpt><trkpt lat="42.1040683" lon="13.6934477"><ele>919.0</ele><time>2026-05-02T12:20:06.641Z</time></trkpt><trkpt lat="42.1040294" lon="13.6935891"><ele>919.6666666666666</ele><time>2026-05-02T12:20:07.641Z</time></trkpt><trkpt lat="42.1040084" lon="13.6937471"><ele>920.3333333333333</ele><time>2026-05-02T12:20:08.635Z</time></trkpt><trkpt lat="42.1039935" lon="13.6938543"><ele>921.0</ele><time>2026-05-02T12:20:09.631Z</time></trkpt><trkpt lat="42.1039538" lon="13.6939468"><ele>921.6666666666667</ele><time>2026-05-02T12:20:10.642Z</time></trkpt><trkpt lat="42.1038938" lon="13.6940235"><ele>922.3333333333334</ele><time>2026-05-02T12:20:11.639Z</time></trkpt><trkpt lat="42.1038282" lon="13.6940825"><ele>923.0</ele><time>2026-05-02T12:20:12.649Z</time></trkpt><trkpt lat="42.1037557" lon="13.6941176"><ele>923.0</ele><time>2026-05-02T12:20:13.632Z</time></trkpt><trkpt lat="42.1036543" lon="13.6941278"><ele>923.0</ele><time>2026-05-02T12:20:14.639Z</time></trkpt><trkpt lat="42.1035337" lon="13.6941164"><ele>923.0</ele><time>2026-05-02T12:20:15.64Z</time></trkpt><trkpt lat="42.1033985" lon="13.6940762"><ele>923.0</ele><time>2026-05-02T12:20:16.642Z</time></trkpt><trkpt lat="42.1032518" lon="13.6940651"><ele>924.3333333333334</ele><time>2026-05-02T12:20:17.628Z</time></trkpt><trkpt lat="42.103102" lon="13.6940896"><ele>925.6666666666667</ele><time>2026-05-02T12:20:18.634Z</time></trkpt><trkpt lat="42.1029469" lon="13.6941269"><ele>927.0</ele><time>2026-05-02T12:20:19.641Z</time></trkpt><trkpt lat="42.10279" lon="13.6941646"><ele>927.0</ele><time>2026-05-02T12:20:20.628Z</time></trkpt><trkpt lat="42.1026395" lon="13.6942115"><ele>927.0</ele><time>2026-05-02T12:20:21.644Z</time></trkpt><trkpt lat="42.1025063" lon="13.6942485"><ele>927.0</ele><time>2026-05-02T12:20:22.623Z</time></trkpt><trkpt lat="42.1023758" lon="13.694275"><ele>927.0</ele><time>2026-05-02T12:20:23.632Z</time></trkpt><trkpt lat="42.1022447" lon="13.6942647"><ele>928.2</ele><time>2026-05-02T12:20:24.624Z</time></trkpt><trkpt lat="42.1021428" lon="13.6942218"><ele>929.4000000000001</ele><time>2026-05-02T12:20:25.64Z</time></trkpt><trkpt lat="42.1020672" lon="13.6941674"><ele>930.5999999999999</ele><time>2026-05-02T12:20:26.626Z</time></trkpt><trkpt lat="42.1019869" lon="13.6940677"><ele>931.8</ele><time>2026-05-02T12:20:27.63Z</time></trkpt><trkpt lat="42.1019013" lon="13.6939459"><ele>933.0</ele><time>2026-05-02T12:20:28.633Z</time></trkpt><trkpt lat="42.1018097" lon="13.6938058"><ele>933.0</ele><time>2026-05-02T12:20:29.635Z</time></trkpt><trkpt lat="42.101731" lon="13.6936724"><ele>933.0</ele><time>2026-05-02T12:20:30.637Z</time></trkpt><trkpt lat="42.1016647" lon="13.6935941"><ele>933.0</ele><time>2026-05-02T12:20:31.624Z</time></trkpt><trkpt lat="42.1015273" lon="13.6935228"><ele>933.0</ele><time>2026-05-02T12:20:33.638Z</time></trkpt><trkpt lat="42.1014662" lon="13.6934891"><ele>933.0</ele><time>2026-05-02T12:20:34.627Z</time></trkpt><trkpt lat="42.1013862" lon="13.6934947"><ele>935.3333333333334</ele><time>2026-05-02T12:20:35.633Z</time></trkpt><trkpt lat="42.1012743" lon="13.6935635"><ele>937.6666666666667</ele><time>2026-05-02T12:20:37.638Z</time></trkpt><trkpt lat="42.1012265" lon="13.6936559"><ele>940.0</ele><time>2026-05-02T12:20:38.628Z</time></trkpt><trkpt lat="42.1011753" lon="13.6937508"><ele>942.3333333333334</ele><time>2026-05-02T12:20:39.629Z</time></trkpt><trkpt lat="42.1011334" lon="13.6938229"><ele>944.6666666666667</ele><time>2026-05-02T12:20:40.631Z</time></trkpt><trkpt lat="42.1010753" lon="13.6939057"><ele>947.0</ele><time>2026-05-02T12:20:41.632Z</time></trkpt><trkpt lat="42.1010223" lon="13.6939944"><ele>947.0</ele><time>2026-05-02T12:20:42.642Z</time></trkpt><trkpt lat="42.1009485" lon="13.6940698"><ele>947.0</ele><time>2026-05-02T12:20:43.627Z</time></trkpt><trkpt lat="42.1008656" lon="13.6941568"><ele>947.0</ele><time>2026-05-02T12:20:44.642Z</time></trkpt><trkpt lat="42.1007707" lon="13.6942481"><ele>947.0</ele><time>2026-05-02T12:20:45.634Z</time></trkpt><trkpt lat="42.1006819" lon="13.6943113"><ele>947.0</ele><time>2026-05-02T12:20:46.628Z</time></trkpt><trkpt lat="42.1006103" lon="13.694346"><ele>949.3333333333334</ele><time>2026-05-02T12:20:47.628Z</time></trkpt><trkpt lat="42.1005345" lon="13.6943428"><ele>951.6666666666667</ele><time>2026-05-02T12:20:48.623Z</time></trkpt><trkpt lat="42.1004563" lon="13.6943227"><ele>954.0</ele><time>2026-05-02T12:20:49.638Z</time></trkpt><trkpt lat="42.100361" lon="13.6942806"><ele>956.3333333333333</ele><time>2026-05-02T12:20:50.633Z</time></trkpt><trkpt lat="42.100265" lon="13.6942468"><ele>958.6666666666666</ele><time>2026-05-02T12:20:51.643Z</time></trkpt><trkpt lat="42.1001969" lon="13.6942435"><ele>961.0</ele><time>2026-05-02T12:20:52.626Z</time></trkpt><trkpt lat="42.1001302" lon="13.6942558"><ele>961.0</ele><time>2026-05-02T12:20:53.633Z</time></trkpt><trkpt lat="42.1000051" lon="13.6941935"><ele>960.9999999999999</ele><time>2026-05-02T12:20:55.616Z</time></trkpt><trkpt lat="42.0999076" lon="13.6941441"><ele>960.9999999999999</ele><time>2026-05-02T12:20:56.628Z</time></trkpt><trkpt lat="42.0998118" lon="13.6940927"><ele>961.0</ele><time>2026-05-02T12:20:57.625Z</time></trkpt><trkpt lat="42.0997428" lon="13.6940372"><ele>961.0</ele><time>2026-05-02T12:20:58.65Z</time></trkpt><trkpt lat="42.0997079" lon="13.6939589"><ele>964.4</ele><time>2026-05-02T12:20:59.628Z</time></trkpt><trkpt lat="42.0996869" lon="13.6938569"><ele>967.8</ele><time>2026-05-02T12:21:00.642Z</time></trkpt><trkpt lat="42.0996587" lon="13.6937344"><ele>971.1999999999999</ele><time>2026-05-02T12:21:01.616Z</time></trkpt><trkpt lat="42.0996184" lon="13.6936028"><ele>974.5999999999999</ele><time>2026-05-02T12:21:02.637Z</time></trkpt><trkpt lat="42.0995747" lon="13.693474"><ele>978.0</ele><time>2026-05-02T12:21:03.626Z</time></trkpt><trkpt lat="42.0995168" lon="13.693372"><ele>979.5</ele><time>2026-05-02T12:21:04.634Z</time></trkpt><trkpt lat="42.0994328" lon="13.6932901"><ele>981.0</ele><time>2026-05-02T12:21:05.622Z</time></trkpt><trkpt lat="42.0993544" lon="13.6932145"><ele>982.5</ele><time>2026-05-02T12:21:06.623Z</time></trkpt><trkpt lat="42.0992815" lon="13.6931543"><ele>984.0</ele><time>2026-05-02T12:21:07.641Z</time></trkpt><trkpt lat="42.0992177" lon="13.6931388"><ele>985.5</ele><time>2026-05-02T12:21:08.633Z</time></trkpt><trkpt lat="42.0991517" lon="13.6931576"><ele>987.0</ele><time>2026-05-02T12:21:09.618Z</time></trkpt><trkpt lat="42.0990687" lon="13.6931967"><ele>990.4000000000001</ele><time>2026-05-02T12:21:10.63Z</time></trkpt><trkpt lat="42.0990001" lon="13.6932481"><ele>993.8000000000001</ele><time>2026-05-02T12:21:11.63Z</time></trkpt><trkpt lat="42.0989468" lon="13.6933406"><ele>997.2</ele><time>2026-05-02T12:21:12.633Z</time></trkpt><trkpt lat="42.0989219" lon="13.6934364"><ele>1000.6</ele><time>2026-05-02T12:21:13.627Z</time></trkpt><trkpt lat="42.0989143" lon="13.6935664"><ele>1004.0</ele><time>2026-05-02T12:21:14.624Z</time></trkpt><trkpt lat="42.0989188" lon="13.6937261"><ele>1004.0000000000001</ele><time>2026-05-02T12:21:15.633Z</time></trkpt><trkpt lat="42.0989092" lon="13.6938903"><ele>1004.0</ele><time>2026-05-02T12:21:16.616Z</time></trkpt><trkpt lat="42.0988716" lon="13.6940179"><ele>1004.0</ele><time>2026-05-02T12:21:17.627Z</time></trkpt><trkpt lat="42.0988242" lon="13.694105"><ele>1004.0</ele><time>2026-05-02T12:21:18.621Z</time></trkpt><trkpt lat="42.0987727" lon="13.6941668"><ele>1004.0000000000001</ele><time>2026-05-02T12:21:19.632Z</time></trkpt><trkpt lat="42.098711" lon="13.6942073"><ele>1004.0</ele><time>2026-05-02T12:21:20.628Z</time></trkpt><trkpt lat="42.0986195" lon="13.6942412"><ele>1004.0</ele><time>2026-05-02T12:21:21.629Z</time></trkpt><trkpt lat="42.0985351" lon="13.6943157"><ele>1004.0</ele><time>2026-05-02T12:21:22.634Z</time></trkpt><trkpt lat="42.0984495" lon="13.6944157"><ele>1004.0</ele><time>2026-05-02T12:21:23.632Z</time></trkpt><trkpt lat="42.0983608" lon="13.6945474"><ele>1004.0</ele><time>2026-05-02T12:21:24.648Z</time></trkpt><trkpt lat="42.0982926" lon="13.6946883"><ele>1004.0</ele><time>2026-05-02T12:21:25.643Z</time></trkpt><trkpt lat="42.0982345" lon="13.6948371"><ele>1004.0</ele><time>2026-05-02T12:21:26.632Z</time></trkpt><trkpt lat="42.0981742" lon="13.6949911"><ele>1004.0</ele><time>2026-05-02T12:21:27.624Z</time></trkpt><trkpt lat="42.0980963" lon="13.6951461"><ele>1004.0</ele><time>2026-05-02T12:21:28.63Z</time></trkpt><trkpt lat="42.0980091" lon="13.6952994"><ele>1002.0</ele><time>2026-05-02T12:21:29.625Z</time></trkpt><trkpt lat="42.0979188" lon="13.6954397"><ele>1000.0</ele><time>2026-05-02T12:21:30.633Z</time></trkpt><trkpt lat="42.0978383" lon="13.6955226"><ele>998.0</ele><time>2026-05-02T12:21:31.632Z</time></trkpt><trkpt lat="42.0977462" lon="13.6955591"><ele>996.0</ele><time>2026-05-02T12:21:32.63Z</time></trkpt><trkpt lat="42.0976334" lon="13.6955923"><ele>996.0</ele><time>2026-05-02T12:21:33.637Z</time></trkpt><trkpt lat="42.0974912" lon="13.6956431"><ele>996.0</ele><time>2026-05-02T12:21:34.62Z</time></trkpt><trkpt lat="42.0973369" lon="13.6957064"><ele>996.0</ele><time>2026-05-02T12:21:35.632Z</time></trkpt><trkpt lat="42.0971889" lon="13.6957798"><ele>996.5</ele><time>2026-05-02T12:21:36.631Z</time></trkpt><trkpt lat="42.0970506" lon="13.6958453"><ele>997.0</ele><time>2026-05-02T12:21:37.629Z</time></trkpt><trkpt lat="42.0969239" lon="13.6958725"><ele>997.5</ele><time>2026-05-02T12:21:38.649Z</time></trkpt><trkpt lat="42.0968115" lon="13.6958709"><ele>998.0</ele><time>2026-05-02T12:21:39.625Z</time></trkpt><trkpt lat="42.0967117" lon="13.6958525"><ele>998.0000000000001</ele><time>2026-05-02T12:21:40.641Z</time></trkpt><trkpt lat="42.0966277" lon="13.695807"><ele>998.0</ele><time>2026-05-02T12:21:41.636Z</time></trkpt><trkpt lat="42.0965584" lon="13.6957452"><ele>998.0</ele><time>2026-05-02T12:21:42.648Z</time></trkpt><trkpt lat="42.0964852" lon="13.695689"><ele>998.0</ele><time>2026-05-02T12:21:43.632Z</time></trkpt><trkpt lat="42.0963767" lon="13.6956624"><ele>998.0000000000001</ele><time>2026-05-02T12:21:45.634Z</time></trkpt><trkpt lat="42.0963122" lon="13.695689"><ele>998.0</ele><time>2026-05-02T12:21:46.626Z</time></trkpt><trkpt lat="42.0962209" lon="13.6957536"><ele>997.5999999999999</ele><time>2026-05-02T12:21:47.651Z</time></trkpt><trkpt lat="42.096124" lon="13.6958196"><ele>997.1999999999999</ele><time>2026-05-02T12:21:48.634Z</time></trkpt><trkpt lat="42.0960127" lon="13.6958695"><ele>996.8</ele><time>2026-05-02T12:21:49.631Z</time></trkpt><trkpt lat="42.0959049" lon="13.6958911"><ele>996.4</ele><time>2026-05-02T12:21:50.638Z</time></trkpt><trkpt lat="42.0958151" lon="13.6958671"><ele>996.0</ele><time>2026-05-02T12:21:51.63Z</time></trkpt><trkpt lat="42.0957241" lon="13.6958102"><ele>997.4</ele><time>2026-05-02T12:21:52.634Z</time></trkpt><trkpt lat="42.0956276" lon="13.695751"><ele>998.8</ele><time>2026-05-02T12:21:53.632Z</time></trkpt><trkpt lat="42.0955231" lon="13.6957161"><ele>1000.1999999999999</ele><time>2026-05-02T12:21:54.649Z</time></trkpt><trkpt lat="42.0954177" lon="13.6957146"><ele>1001.5999999999999</ele><time>2026-05-02T12:21:55.629Z</time></trkpt><trkpt lat="42.0953067" lon="13.6957383"><ele>1003.0</ele><time>2026-05-02T12:21:56.644Z</time></trkpt><trkpt lat="42.0952078" lon="13.6957729"><ele>1003.0</ele><time>2026-05-02T12:21:57.639Z</time></trkpt><trkpt lat="42.0951153" lon="13.6958236"><ele>1003.0</ele><time>2026-05-02T12:21:59.646Z</time></trkpt><trkpt lat="42.0950436" lon="13.695907"><ele>1003.0</ele><time>2026-05-02T12:22:02.624Z</time></trkpt><trkpt lat="42.0949567" lon="13.6959616"><ele>1003.0</ele><time>2026-05-02T12:22:03.627Z</time></trkpt><trkpt lat="42.0948358" lon="13.6960062"><ele>1003.0</ele><time>2026-05-02T12:22:04.641Z</time></trkpt><trkpt lat="42.0947182" lon="13.696063"><ele>1001.75</ele><time>2026-05-02T12:22:05.619Z</time></trkpt><trkpt lat="42.0945934" lon="13.6961254"><ele>1000.5</ele><time>2026-05-02T12:22:06.638Z</time></trkpt><trkpt lat="42.0944688" lon="13.6961937"><ele>999.25</ele><time>2026-05-02T12:22:07.629Z</time></trkpt><trkpt lat="42.0943553" lon="13.6962545"><ele>998.0</ele><time>2026-05-02T12:22:08.649Z</time></trkpt><trkpt lat="42.0942287" lon="13.6962993"><ele>998.0</ele><time>2026-05-02T12:22:09.643Z</time></trkpt><trkpt lat="42.094089" lon="13.6963362"><ele>998.0</ele><time>2026-05-02T12:22:10.633Z</time></trkpt><trkpt lat="42.093943" lon="13.6963775"><ele>998.0</ele><time>2026-05-02T12:22:11.621Z</time></trkpt><trkpt lat="42.0938234" lon="13.6964344"><ele>998.0</ele><time>2026-05-02T12:22:12.646Z</time></trkpt><trkpt lat="42.0937322" lon="13.6965077"><ele>999.5</ele><time>2026-05-02T12:22:13.632Z</time></trkpt><trkpt lat="42.0936517" lon="13.6966145"><ele>1001.0</ele><time>2026-05-02T12:22:14.635Z</time></trkpt><trkpt lat="42.0935589" lon="13.696751"><ele>1002.5</ele><time>2026-05-02T12:22:15.629Z</time></trkpt><trkpt lat="42.0934645" lon="13.6969187"><ele>1004.0</ele><time>2026-05-02T12:22:16.628Z</time></trkpt><trkpt lat="42.0933719" lon="13.6970865"><ele>1004.0</ele><time>2026-05-02T12:22:17.632Z</time></trkpt><trkpt lat="42.0932901" lon="13.6972257"><ele>1004.0</ele><time>2026-05-02T12:22:18.657Z</time></trkpt><trkpt lat="42.093222" lon="13.6973435"><ele>1004.0</ele><time>2026-05-02T12:22:19.633Z</time></trkpt><trkpt lat="42.0931564" lon="13.6974747"><ele>1004.0</ele><time>2026-05-02T12:22:20.634Z</time></trkpt><trkpt lat="42.0930806" lon="13.6976071"><ele>1003.8333333333334</ele><time>2026-05-02T12:22:21.638Z</time></trkpt><trkpt lat="42.0930123" lon="13.6977067"><ele>1003.6666666666667</ele><time>2026-05-02T12:22:22.639Z</time></trkpt><trkpt lat="42.092942" lon="13.6977762"><ele>1003.5</ele><time>2026-05-02T12:22:23.659Z</time></trkpt><trkpt lat="42.0928653" lon="13.6977843"><ele>1003.3333333333333</ele><time>2026-05-02T12:22:24.631Z</time></trkpt><trkpt lat="42.0927857" lon="13.6977684"><ele>1003.1666666666666</ele><time>2026-05-02T12:22:25.636Z</time></trkpt><trkpt lat="42.0926993" lon="13.6977222"><ele>1003.0</ele><time>2026-05-02T12:22:26.631Z</time></trkpt><trkpt lat="42.0926034" lon="13.6976834"><ele>1003.0</ele><time>2026-05-02T12:22:27.628Z</time></trkpt><trkpt lat="42.0924998" lon="13.6976859"><ele>1003.0</ele><time>2026-05-02T12:22:28.632Z</time></trkpt><trkpt lat="42.0923622" lon="13.6977223"><ele>1003.0</ele><time>2026-05-02T12:22:29.639Z</time></trkpt><trkpt lat="42.0922103" lon="13.697778"><ele>1003.0</ele><time>2026-05-02T12:22:30.636Z</time></trkpt><trkpt lat="42.0920699" lon="13.6978102"><ele>1001.0</ele><time>2026-05-02T12:22:31.632Z</time></trkpt><trkpt lat="42.0919342" lon="13.6978103"><ele>999.0</ele><time>2026-05-02T12:22:32.635Z</time></trkpt><trkpt lat="42.0917952" lon="13.6978033"><ele>997.0</ele><time>2026-05-02T12:22:33.634Z</time></trkpt><trkpt lat="42.0916803" lon="13.6978461"><ele>995.0</ele><time>2026-05-02T12:22:34.64Z</time></trkpt><trkpt lat="42.091558" lon="13.6979172"><ele>994.0</ele><time>2026-05-02T12:22:35.628Z</time></trkpt><trkpt lat="42.0914252" lon="13.6980128"><ele>993.0</ele><time>2026-05-02T12:22:36.624Z</time></trkpt><trkpt lat="42.0912782" lon="13.698115"><ele>992.0</ele><time>2026-05-02T12:22:37.633Z</time></trkpt><trkpt lat="42.091121" lon="13.698203"><ele>992.0</ele><time>2026-05-02T12:22:38.66Z</time></trkpt><trkpt lat="42.0909911" lon="13.6982847"><ele>992.0</ele><time>2026-05-02T12:22:39.623Z</time></trkpt><trkpt lat="42.09091" lon="13.698326"><ele>992.0</ele><time>2026-05-02T12:22:40.624Z</time></trkpt><trkpt lat="42.0908399" lon="13.6984638"><ele>992.0</ele><time>2026-05-02T12:22:42.623Z</time></trkpt><trkpt lat="42.0908286" lon="13.6985568"><ele>992.0</ele><time>2026-05-02T12:22:43.622Z</time></trkpt><trkpt lat="42.0908279" lon="13.6986776"><ele>992.6</ele><time>2026-05-02T12:22:44.617Z</time></trkpt><trkpt lat="42.0908331" lon="13.69879"><ele>993.2</ele><time>2026-05-02T12:22:45.626Z</time></trkpt><trkpt lat="42.0908015" lon="13.6988705"><ele>993.8</ele><time>2026-05-02T12:22:46.623Z</time></trkpt><trkpt lat="42.090751" lon="13.6989604"><ele>994.4</ele><time>2026-05-02T12:22:47.626Z</time></trkpt><trkpt lat="42.090685" lon="13.6990348"><ele>995.0</ele><time>2026-05-02T12:22:48.618Z</time></trkpt><trkpt lat="42.0905598" lon="13.6991552"><ele>995.5</ele><time>2026-05-02T12:22:50.618Z</time></trkpt><trkpt lat="42.0904528" lon="13.6992371"><ele>996.0</ele><time>2026-05-02T12:22:51.62Z</time></trkpt><trkpt lat="42.0903274" lon="13.6993146"><ele>996.5</ele><time>2026-05-02T12:22:52.625Z</time></trkpt><trkpt lat="42.0901838" lon="13.6994051"><ele>997.0</ele><time>2026-05-02T12:22:53.641Z</time></trkpt><trkpt lat="42.090044" lon="13.6995136"><ele>997.4999999999999</ele><time>2026-05-02T12:22:54.64Z</time></trkpt><trkpt lat="42.0899489" lon="13.6995969"><ele>998.0</ele><time>2026-05-02T12:22:55.661Z</time></trkpt><trkpt lat="42.0898493" lon="13.6996273"><ele>998.5</ele><time>2026-05-02T12:22:56.636Z</time></trkpt><trkpt lat="42.0897822" lon="13.6996046"><ele>999.0</ele><time>2026-05-02T12:22:57.631Z</time></trkpt><trkpt lat="42.0897165" lon="13.6995366"><ele>999.4999999999999</ele><time>2026-05-02T12:22:58.635Z</time></trkpt><trkpt lat="42.0896759" lon="13.6994592"><ele>1000.0</ele><time>2026-05-02T12:22:59.64Z</time></trkpt><trkpt lat="42.0896434" lon="13.6993615"><ele>1000.0</ele><time>2026-05-02T12:23:00.629Z</time></trkpt><trkpt lat="42.0896007" lon="13.6992155"><ele>1000.0</ele><time>2026-05-02T12:23:01.625Z</time></trkpt><trkpt lat="42.0895599" lon="13.6990269"><ele>1000.0</ele><time>2026-05-02T12:23:02.63Z</time></trkpt><trkpt lat="42.0895339" lon="13.6988267"><ele>1000.0</ele><time>2026-05-02T12:23:03.622Z</time></trkpt><trkpt lat="42.0895174" lon="13.6986378"><ele>999.0</ele><time>2026-05-02T12:23:04.635Z</time></trkpt><trkpt lat="42.0895142" lon="13.6984914"><ele>998.0</ele><time>2026-05-02T12:23:05.644Z</time></trkpt><trkpt lat="42.0895168" lon="13.6983725"><ele>997.0</ele><time>2026-05-02T12:23:06.629Z</time></trkpt><trkpt lat="42.0894924" lon="13.6982618"><ele>996.0</ele><time>2026-05-02T12:23:07.635Z</time></trkpt><trkpt lat="42.0894384" lon="13.6981476"><ele>995.0</ele><time>2026-05-02T12:23:08.635Z</time></trkpt><trkpt lat="42.0893822" lon="13.6980585"><ele>995.0</ele><time>2026-05-02T12:23:09.632Z</time></trkpt><trkpt lat="42.0893245" lon="13.6980164"><ele>995.0</ele><time>2026-05-02T12:23:10.648Z</time></trkpt><trkpt lat="42.0891998" lon="13.6980077"><ele>995.0</ele><time>2026-05-02T12:23:12.623Z</time></trkpt><trkpt lat="42.0891231" lon="13.6980431"><ele>995.0</ele><time>2026-05-02T12:23:13.635Z</time></trkpt><trkpt lat="42.0890223" lon="13.698114"><ele>995.0</ele><time>2026-05-02T12:23:14.652Z</time></trkpt><trkpt lat="42.0889278" lon="13.6982077"><ele>995.0</ele><time>2026-05-02T12:23:15.64Z</time></trkpt><trkpt lat="42.0888373" lon="13.698311"><ele>995.0</ele><time>2026-05-02T12:23:16.657Z</time></trkpt><trkpt lat="42.088753" lon="13.6983967"><ele>995.0</ele><time>2026-05-02T12:23:17.636Z</time></trkpt><trkpt lat="42.0886527" lon="13.6984683"><ele>995.0</ele><time>2026-05-02T12:23:18.634Z</time></trkpt><trkpt lat="42.0885097" lon="13.6985487"><ele>994.75</ele><time>2026-05-02T12:23:19.635Z</time></trkpt><trkpt lat="42.0883741" lon="13.6986261"><ele>994.5</ele><time>2026-05-02T12:23:20.625Z</time></trkpt><trkpt lat="42.0882516" lon="13.69869"><ele>994.25</ele><time>2026-05-02T12:23:21.644Z</time></trkpt><trkpt lat="42.0881494" lon="13.6987648"><ele>994.0</ele><time>2026-05-02T12:23:22.616Z</time></trkpt><trkpt lat="42.088053" lon="13.6988944"><ele>993.25</ele><time>2026-05-02T12:23:23.631Z</time></trkpt><trkpt lat="42.087959" lon="13.6990577"><ele>992.5</ele><time>2026-05-02T12:23:24.623Z</time></trkpt><trkpt lat="42.0878898" lon="13.6991969"><ele>991.75</ele><time>2026-05-02T12:23:25.647Z</time></trkpt><trkpt lat="42.0878693" lon="13.6993284"><ele>991.0</ele><time>2026-05-02T12:23:26.642Z</time></trkpt><trkpt lat="42.0878693" lon="13.6994728"><ele>989.0</ele><time>2026-05-02T12:23:27.622Z</time></trkpt><trkpt lat="42.0878895" lon="13.6996336"><ele>986.9999999999999</ele><time>2026-05-02T12:23:28.63Z</time></trkpt><trkpt lat="42.0878866" lon="13.6997964"><ele>984.9999999999999</ele><time>2026-05-02T12:23:29.634Z</time></trkpt><trkpt lat="42.0878541" lon="13.6999273"><ele>983.0</ele><time>2026-05-02T12:23:30.652Z</time></trkpt><trkpt lat="42.0877931" lon="13.7000202"><ele>981.0</ele><time>2026-05-02T12:23:31.616Z</time></trkpt><trkpt lat="42.087707" lon="13.700084"><ele>981.0</ele><time>2026-05-02T12:23:32.63Z</time></trkpt><trkpt lat="42.0875948" lon="13.7001256"><ele>981.0</ele><time>2026-05-02T12:23:33.626Z</time></trkpt><trkpt lat="42.0874614" lon="13.7001783"><ele>981.0</ele><time>2026-05-02T12:23:34.644Z</time></trkpt><trkpt lat="42.0873483" lon="13.7002405"><ele>981.0</ele><time>2026-05-02T12:23:35.62Z</time></trkpt><trkpt lat="42.0872394" lon="13.7003138"><ele>980.0</ele><time>2026-05-02T12:23:36.64Z</time></trkpt><trkpt lat="42.0870994" lon="13.7004234"><ele>979.0</ele><time>2026-05-02T12:23:37.634Z</time></trkpt><trkpt lat="42.0869577" lon="13.7005468"><ele>978.0</ele><time>2026-05-02T12:23:38.626Z</time></trkpt><trkpt lat="42.0868231" lon="13.7006615"><ele>978.0</ele><time>2026-05-02T12:23:39.637Z</time></trkpt><trkpt lat="42.086703" lon="13.7007574"><ele>978.0</ele><time>2026-05-02T12:23:40.626Z</time></trkpt><trkpt lat="42.0865996" lon="13.7008615"><ele>978.0</ele><time>2026-05-02T12:23:41.629Z</time></trkpt><trkpt lat="42.0865067" lon="13.7009755"><ele>978.0</ele><time>2026-05-02T12:23:42.644Z</time></trkpt><trkpt lat="42.0864321" lon="13.7010987"><ele>977.0</ele><time>2026-05-02T12:23:43.625Z</time></trkpt><trkpt lat="42.0863759" lon="13.7012313"><ele>976.0</ele><time>2026-05-02T12:23:44.629Z</time></trkpt><trkpt lat="42.0863236" lon="13.7013929"><ele>975.0</ele><time>2026-05-02T12:23:45.637Z</time></trkpt><trkpt lat="42.0862611" lon="13.7015696"><ele>974.0</ele><time>2026-05-02T12:23:46.64Z</time></trkpt><trkpt lat="42.0861832" lon="13.7017396"><ele>973.0</ele><time>2026-05-02T12:23:47.635Z</time></trkpt><trkpt lat="42.0860952" lon="13.7019213"><ele>972.0</ele><time>2026-05-02T12:23:48.631Z</time></trkpt><trkpt lat="42.0860061" lon="13.7021207"><ele>971.0</ele><time>2026-05-02T12:23:49.631Z</time></trkpt><trkpt lat="42.0859095" lon="13.702344"><ele>971.0</ele><time>2026-05-02T12:23:50.639Z</time></trkpt><trkpt lat="42.0858324" lon="13.7025534"><ele>971.0</ele><time>2026-05-02T12:23:51.644Z</time></trkpt><trkpt lat="42.0857592" lon="13.702732"><ele>971.0</ele><time>2026-05-02T12:23:52.636Z</time></trkpt><trkpt lat="42.0856735" lon="13.7028846"><ele>969.0</ele><time>2026-05-02T12:23:53.644Z</time></trkpt><trkpt lat="42.0855671" lon="13.7030519"><ele>967.0</ele><time>2026-05-02T12:23:54.635Z</time></trkpt><trkpt lat="42.0854339" lon="13.7032297"><ele>965.0</ele><time>2026-05-02T12:23:55.625Z</time></trkpt><trkpt lat="42.0852938" lon="13.703401"><ele>965.0</ele><time>2026-05-02T12:23:56.624Z</time></trkpt><trkpt lat="42.0851676" lon="13.7035412"><ele>965.0</ele><time>2026-05-02T12:23:57.635Z</time></trkpt><trkpt lat="42.0850298" lon="13.7036517"><ele>965.0</ele><time>2026-05-02T12:23:58.639Z</time></trkpt><trkpt lat="42.08489" lon="13.7037627"><ele>965.3333333333334</ele><time>2026-05-02T12:23:59.637Z</time></trkpt><trkpt lat="42.0847396" lon="13.7038916"><ele>965.6666666666667</ele><time>2026-05-02T12:24:00.629Z</time></trkpt><trkpt lat="42.084599" lon="13.7040243"><ele>966.0</ele><time>2026-05-02T12:24:01.634Z</time></trkpt><trkpt lat="42.0844639" lon="13.7041607"><ele>966.0</ele><time>2026-05-02T12:24:02.644Z</time></trkpt><trkpt lat="42.0843302" lon="13.7043082"><ele>966.0</ele><time>2026-05-02T12:24:03.627Z</time></trkpt><trkpt lat="42.0842036" lon="13.7044587"><ele>966.0</ele><time>2026-05-02T12:24:04.632Z</time></trkpt><trkpt lat="42.0840876" lon="13.7045963"><ele>966.6666666666667</ele><time>2026-05-02T12:24:05.637Z</time></trkpt><trkpt lat="42.0839755" lon="13.7047441"><ele>967.3333333333334</ele><time>2026-05-02T12:24:06.626Z</time></trkpt><trkpt lat="42.0838528" lon="13.7048978"><ele>968.0</ele><time>2026-05-02T12:24:07.633Z</time></trkpt><trkpt lat="42.0837223" lon="13.7050319"><ele>968.0</ele><time>2026-05-02T12:24:08.631Z</time></trkpt><trkpt lat="42.0835855" lon="13.7051329"><ele>968.0</ele><time>2026-05-02T12:24:09.635Z</time></trkpt><trkpt lat="42.0834727" lon="13.7052232"><ele>968.0</ele><time>2026-05-02T12:24:10.637Z</time></trkpt><trkpt lat="42.0833841" lon="13.70531"><ele>968.0</ele><time>2026-05-02T12:24:11.624Z</time></trkpt><trkpt lat="42.0832965" lon="13.7054135"><ele>973.0</ele><time>2026-05-02T12:24:12.635Z</time></trkpt><trkpt lat="42.0832257" lon="13.7055306"><ele>978.0</ele><time>2026-05-02T12:24:13.637Z</time></trkpt><trkpt lat="42.0831352" lon="13.7056921"><ele>983.0</ele><time>2026-05-02T12:24:14.623Z</time></trkpt><trkpt lat="42.0830534" lon="13.7058706"><ele>988.0</ele><time>2026-05-02T12:24:15.636Z</time></trkpt><trkpt lat="42.0829829" lon="13.7060142"><ele>984.8333333333333</ele><time>2026-05-02T12:24:16.623Z</time></trkpt><trkpt lat="42.08292" lon="13.7061177"><ele>981.6666666666666</ele><time>2026-05-02T12:24:17.64Z</time></trkpt><trkpt lat="42.0828709" lon="13.7062023"><ele>978.5</ele><time>2026-05-02T12:24:18.638Z</time></trkpt><trkpt lat="42.0828343" lon="13.7062793"><ele>975.3333333333333</ele><time>2026-05-02T12:24:19.651Z</time></trkpt><trkpt lat="42.0827857" lon="13.7063425"><ele>972.1666666666666</ele><time>2026-05-02T12:24:20.629Z</time></trkpt><trkpt lat="42.082731" lon="13.7064092"><ele>969.0</ele><time>2026-05-02T12:24:21.635Z</time></trkpt><trkpt lat="42.0826857" lon="13.7064777"><ele>969.0</ele><time>2026-05-02T12:24:22.627Z</time></trkpt><trkpt lat="42.0826394" lon="13.7065485"><ele>969.0</ele><time>2026-05-02T12:24:23.63Z</time></trkpt><trkpt lat="42.0825935" lon="13.7066249"><ele>969.0</ele><time>2026-05-02T12:24:24.619Z</time></trkpt><trkpt lat="42.0825271" lon="13.7067276"><ele>969.0</ele><time>2026-05-02T12:24:26.618Z</time></trkpt><trkpt lat="42.0824854" lon="13.7068173"><ele>969.0</ele><time>2026-05-02T12:24:59.631Z</time></trkpt><trkpt lat="42.0824303" lon="13.7068719"><ele>969.0</ele><time>2026-05-02T12:25:03.634Z</time></trkpt><trkpt lat="42.0823663" lon="13.7069983"><ele>973.25</ele><time>2026-05-02T12:28:49.625Z</time></trkpt><trkpt lat="42.0823224" lon="13.7070912"><ele>977.5</ele><time>2026-05-02T12:28:50.616Z</time></trkpt><trkpt lat="42.0822365" lon="13.7072114"><ele>981.75</ele><time>2026-05-02T12:28:51.629Z</time></trkpt><trkpt lat="42.0821414" lon="13.7073559"><ele>986.0</ele><time>2026-05-02T12:28:52.624Z</time></trkpt><trkpt lat="42.082032" lon="13.7075225"><ele>986.0</ele><time>2026-05-02T12:28:53.629Z</time></trkpt><trkpt lat="42.0819197" lon="13.7076954"><ele>986.0</ele><time>2026-05-02T12:28:54.621Z</time></trkpt><trkpt lat="42.0817866" lon="13.7078797"><ele>986.0</ele><time>2026-05-02T12:28:55.631Z</time></trkpt><trkpt lat="42.0816549" lon="13.7080561"><ele>987.3333333333334</ele><time>2026-05-02T12:28:56.633Z</time></trkpt><trkpt lat="42.0815335" lon="13.7081941"><ele>988.6666666666667</ele><time>2026-05-02T12:28:57.624Z</time></trkpt><trkpt lat="42.0814096" lon="13.7083163"><ele>990.0</ele><time>2026-05-02T12:28:58.627Z</time></trkpt><trkpt lat="42.0812623" lon="13.7084217"><ele>990.0</ele><time>2026-05-02T12:28:59.622Z</time></trkpt><trkpt lat="42.0810991" lon="13.7085145"><ele>990.0</ele><time>2026-05-02T12:29:00.642Z</time></trkpt><trkpt lat="42.0809293" lon="13.7086206"><ele>990.0</ele><time>2026-05-02T12:29:01.64Z</time></trkpt><trkpt lat="42.0807488" lon="13.7087192"><ele>985.6666666666667</ele><time>2026-05-02T12:29:02.64Z</time></trkpt><trkpt lat="42.0805688" lon="13.7088206"><ele>981.3333333333334</ele><time>2026-05-02T12:29:03.632Z</time></trkpt><trkpt lat="42.0803829" lon="13.7089307"><ele>977.0</ele><time>2026-05-02T12:29:04.628Z</time></trkpt><trkpt lat="42.0801928" lon="13.7090453"><ele>977.0</ele><time>2026-05-02T12:29:05.63Z</time></trkpt><trkpt lat="42.0800069" lon="13.7091558"><ele>977.0</ele><time>2026-05-02T12:29:06.625Z</time></trkpt><trkpt lat="42.0798227" lon="13.7092652"><ele>977.0</ele><time>2026-05-02T12:29:07.63Z</time></trkpt><trkpt lat="42.0796755" lon="13.7093725"><ele>973.25</ele><time>2026-05-02T12:29:08.631Z</time></trkpt><trkpt lat="42.0795383" lon="13.7094535"><ele>969.5</ele><time>2026-05-02T12:29:09.625Z</time></trkpt><trkpt lat="42.0794198" lon="13.7094848"><ele>965.75</ele><time>2026-05-02T12:29:10.627Z</time></trkpt><trkpt lat="42.0793095" lon="13.7094759"><ele>962.0</ele><time>2026-05-02T12:29:11.631Z</time></trkpt><trkpt lat="42.0791963" lon="13.7094414"><ele>961.0</ele><time>2026-05-02T12:29:12.623Z</time></trkpt><trkpt lat="42.0791012" lon="13.7093926"><ele>960.0</ele><time>2026-05-02T12:29:13.633Z</time></trkpt><trkpt lat="42.0790199" lon="13.7093092"><ele>959.0</ele><time>2026-05-02T12:29:14.63Z</time></trkpt><trkpt lat="42.0789419" lon="13.7091809"><ele>958.0</ele><time>2026-05-02T12:29:15.632Z</time></trkpt><trkpt lat="42.0788679" lon="13.7090189"><ele>958.0</ele><time>2026-05-02T12:29:16.635Z</time></trkpt><trkpt lat="42.0787989" lon="13.7088276"><ele>958.0</ele><time>2026-05-02T12:29:17.628Z</time></trkpt><trkpt lat="42.0787342" lon="13.7086171"><ele>958.0</ele><time>2026-05-02T12:29:18.634Z</time></trkpt><trkpt lat="42.0786712" lon="13.7083905"><ele>963.6666666666666</ele><time>2026-05-02T12:29:19.632Z</time></trkpt><trkpt lat="42.0786171" lon="13.7081519"><ele>969.3333333333333</ele><time>2026-05-02T12:29:20.635Z</time></trkpt><trkpt lat="42.0785775" lon="13.707913"><ele>975.0</ele><time>2026-05-02T12:29:21.626Z</time></trkpt><trkpt lat="42.078539" lon="13.7076653"><ele>979.6666666666667</ele><time>2026-05-02T12:29:22.637Z</time></trkpt><trkpt lat="42.0784971" lon="13.7074226"><ele>984.3333333333334</ele><time>2026-05-02T12:29:23.65Z</time></trkpt><trkpt lat="42.0784568" lon="13.7072066"><ele>989.0</ele><time>2026-05-02T12:29:24.635Z</time></trkpt><trkpt lat="42.0784203" lon="13.7070268"><ele>992.6</ele><time>2026-05-02T12:29:25.621Z</time></trkpt><trkpt lat="42.0783799" lon="13.7068757"><ele>996.2</ele><time>2026-05-02T12:29:26.624Z</time></trkpt><trkpt lat="42.0783107" lon="13.706794"><ele>999.8000000000001</ele><time>2026-05-02T12:29:27.638Z</time></trkpt><trkpt lat="42.0782333" lon="13.7067527"><ele>1003.4000000000001</ele><time>2026-05-02T12:29:28.624Z</time></trkpt><trkpt lat="42.0781534" lon="13.7067704"><ele>1007.0</ele><time>2026-05-02T12:29:29.625Z</time></trkpt><trkpt lat="42.0780722" lon="13.7068512"><ele>1005.5</ele><time>2026-05-02T12:29:30.627Z</time></trkpt><trkpt lat="42.0779822" lon="13.7069705"><ele>1004.0</ele><time>2026-05-02T12:29:31.627Z</time></trkpt><trkpt lat="42.0778871" lon="13.7071231"><ele>1002.5</ele><time>2026-05-02T12:29:32.628Z</time></trkpt><trkpt lat="42.0777772" lon="13.7072965"><ele>1001.0</ele><time>2026-05-02T12:29:33.63Z</time></trkpt><trkpt lat="42.0776613" lon="13.7074661"><ele>1001.0</ele><time>2026-05-02T12:29:34.629Z</time></trkpt><trkpt lat="42.077548" lon="13.7076443"><ele>1001.0</ele><time>2026-05-02T12:29:35.629Z</time></trkpt><trkpt lat="42.0774473" lon="13.7077991"><ele>1001.0</ele><time>2026-05-02T12:29:36.631Z</time></trkpt><trkpt lat="42.0773508" lon="13.707891"><ele>1001.0</ele><time>2026-05-02T12:29:37.633Z</time></trkpt><trkpt lat="42.0772486" lon="13.7079323"><ele>995.75</ele><time>2026-05-02T12:29:38.625Z</time></trkpt><trkpt lat="42.0771424" lon="13.707944"><ele>990.5</ele><time>2026-05-02T12:29:39.614Z</time></trkpt><trkpt lat="42.0770127" lon="13.7079144"><ele>985.25</ele><time>2026-05-02T12:29:40.634Z</time></trkpt><trkpt lat="42.0768677" lon="13.7078765"><ele>980.0</ele><time>2026-05-02T12:29:41.624Z</time></trkpt><trkpt lat="42.0767048" lon="13.7078385"><ele>977.6666666666667</ele><time>2026-05-02T12:29:42.624Z</time></trkpt><trkpt lat="42.0765267" lon="13.707779"><ele>975.3333333333333</ele><time>2026-05-02T12:29:43.642Z</time></trkpt><trkpt lat="42.0763369" lon="13.70772"><ele>973.0</ele><time>2026-05-02T12:29:44.636Z</time></trkpt><trkpt lat="42.0761323" lon="13.7076598"><ele>980.6666666666666</ele><time>2026-05-02T12:29:45.62Z</time></trkpt><trkpt lat="42.0759423" lon="13.7076097"><ele>988.3333333333333</ele><time>2026-05-02T12:29:46.624Z</time></trkpt><trkpt lat="42.0757709" lon="13.7075538"><ele>996.0</ele><time>2026-05-02T12:29:47.637Z</time></trkpt><trkpt lat="42.0756044" lon="13.707476"><ele>996.0</ele><time>2026-05-02T12:29:48.626Z</time></trkpt><trkpt lat="42.0754291" lon="13.7073715"><ele>996.0</ele><time>2026-05-02T12:29:49.628Z</time></trkpt><trkpt lat="42.0752476" lon="13.7072384"><ele>996.0</ele><time>2026-05-02T12:29:50.632Z</time></trkpt><trkpt lat="42.0750662" lon="13.7070755"><ele>998.3333333333333</ele><time>2026-05-02T12:29:51.64Z</time></trkpt><trkpt lat="42.0748913" lon="13.7069081"><ele>1000.6666666666666</ele><time>2026-05-02T12:29:52.631Z</time></trkpt><trkpt lat="42.0747171" lon="13.7067208"><ele>1003.0</ele><time>2026-05-02T12:29:53.623Z</time></trkpt><trkpt lat="42.0745396" lon="13.7065035"><ele>1003.0</ele><time>2026-05-02T12:29:54.624Z</time></trkpt><trkpt lat="42.0743653" lon="13.706269"><ele>1003.0</ele><time>2026-05-02T12:29:55.624Z</time></trkpt><trkpt lat="42.0742024" lon="13.7060299"><ele>1006.6666666666666</ele><time>2026-05-02T12:29:56.635Z</time></trkpt><trkpt lat="42.0740529" lon="13.7058091"><ele>1010.3333333333333</ele><time>2026-05-02T12:29:57.634Z</time></trkpt><trkpt lat="42.0739204" lon="13.7056102"><ele>1014.0</ele><time>2026-05-02T12:29:58.629Z</time></trkpt><trkpt lat="42.0737938" lon="13.7054397"><ele>1014.0</ele><time>2026-05-02T12:29:59.628Z</time></trkpt><trkpt lat="42.0736774" lon="13.7052956"><ele>1014.0</ele><time>2026-05-02T12:30:00.624Z</time></trkpt><trkpt lat="42.0735689" lon="13.7052045"><ele>1014.0</ele><time>2026-05-02T12:30:01.617Z</time></trkpt><trkpt lat="42.0734373" lon="13.7051822"><ele>1014.0</ele><time>2026-05-02T12:30:02.628Z</time></trkpt><trkpt lat="42.0732836" lon="13.7051915"><ele>1020.6666666666667</ele><time>2026-05-02T12:30:03.631Z</time></trkpt><trkpt lat="42.073106" lon="13.7052033"><ele>1027.3333333333335</ele><time>2026-05-02T12:30:04.625Z</time></trkpt><trkpt lat="42.0729108" lon="13.7052149"><ele>1034.0</ele><time>2026-05-02T12:30:05.62Z</time></trkpt><trkpt lat="42.0726947" lon="13.7052276"><ele>1034.0</ele><time>2026-05-02T12:30:06.633Z</time></trkpt><trkpt lat="42.0724776" lon="13.7052438"><ele>1034.0</ele><time>2026-05-02T12:30:07.629Z</time></trkpt><trkpt lat="42.0722599" lon="13.7052707"><ele>1034.0</ele><time>2026-05-02T12:30:08.626Z</time></trkpt><trkpt lat="42.0720628" lon="13.7052967"><ele>1036.3333333333335</ele><time>2026-05-02T12:30:09.63Z</time></trkpt><trkpt lat="42.0718768" lon="13.7053199"><ele>1038.6666666666667</ele><time>2026-05-02T12:30:10.627Z</time></trkpt><trkpt lat="42.0717232" lon="13.7053659"><ele>1041.0</ele><time>2026-05-02T12:30:11.635Z</time></trkpt><trkpt lat="42.0715877" lon="13.7054668"><ele>1041.0</ele><time>2026-05-02T12:30:12.627Z</time></trkpt><trkpt lat="42.0714673" lon="13.7056168"><ele>1041.0</ele><time>2026-05-02T12:30:13.618Z</time></trkpt><trkpt lat="42.071363" lon="13.7057799"><ele>1041.0</ele><time>2026-05-02T12:30:14.632Z</time></trkpt><trkpt lat="42.071276" lon="13.7059369"><ele>1041.0</ele><time>2026-05-02T12:30:15.633Z</time></trkpt><trkpt lat="42.0711746" lon="13.7060775"><ele>1041.0</ele><time>2026-05-02T12:30:16.644Z</time></trkpt><trkpt lat="42.0710454" lon="13.7062042"><ele>1041.0</ele><time>2026-05-02T12:30:17.633Z</time></trkpt><trkpt lat="42.0708894" lon="13.7062669"><ele>1036.6666666666667</ele><time>2026-05-02T12:30:18.621Z</time></trkpt><trkpt lat="42.0707037" lon="13.7062967"><ele>1032.3333333333335</ele><time>2026-05-02T12:30:19.628Z</time></trkpt><trkpt lat="42.0705244" lon="13.7063"><ele>1028.0</ele><time>2026-05-02T12:30:20.62Z</time></trkpt><trkpt lat="42.0703665" lon="13.706287"><ele>1028.0</ele><time>2026-05-02T12:30:21.626Z</time></trkpt><trkpt lat="42.0702533" lon="13.7062482"><ele>1028.0</ele><time>2026-05-02T12:30:22.626Z</time></trkpt><trkpt lat="42.0701737" lon="13.7061596"><ele>1028.0</ele><time>2026-05-02T12:30:23.627Z</time></trkpt><trkpt lat="42.0701309" lon="13.7060631"><ele>1028.0</ele><time>2026-05-02T12:30:24.645Z</time></trkpt><trkpt lat="42.0701498" lon="13.7059709"><ele>1028.0</ele><time>2026-05-02T12:30:25.621Z</time></trkpt><trkpt lat="42.0701986" lon="13.7058896"><ele>1032.75</ele><time>2026-05-02T12:30:26.636Z</time></trkpt><trkpt lat="42.0702812" lon="13.7058418"><ele>1037.5</ele><time>2026-05-02T12:30:27.63Z</time></trkpt><trkpt lat="42.0703835" lon="13.7058181"><ele>1042.25</ele><time>2026-05-02T12:30:28.629Z</time></trkpt><trkpt lat="42.0705244" lon="13.7058287"><ele>1047.0</ele><time>2026-05-02T12:30:29.647Z</time></trkpt><trkpt lat="42.0706764" lon="13.7058493"><ele>1045.0</ele><time>2026-05-02T12:30:30.63Z</time></trkpt><trkpt lat="42.0708308" lon="13.7058418"><ele>1043.0</ele><time>2026-05-02T12:30:31.635Z</time></trkpt><trkpt lat="42.0709779" lon="13.7057912"><ele>1041.0</ele><time>2026-05-02T12:30:32.629Z</time></trkpt><trkpt lat="42.0711158" lon="13.705686"><ele>1041.0</ele><time>2026-05-02T12:30:33.626Z</time></trkpt><trkpt lat="42.0712243" lon="13.7055225"><ele>1041.0</ele><time>2026-05-02T12:30:34.627Z</time></trkpt><trkpt lat="42.0713362" lon="13.7053228"><ele>1041.0</ele><time>2026-05-02T12:30:35.631Z</time></trkpt><trkpt lat="42.0714736" lon="13.7051153"><ele>1042.6666666666667</ele><time>2026-05-02T12:30:36.635Z</time></trkpt><trkpt lat="42.0716484" lon="13.7049491"><ele>1044.3333333333335</ele><time>2026-05-02T12:30:37.626Z</time></trkpt><trkpt lat="42.0718366" lon="13.7047963"><ele>1046.0</ele><time>2026-05-02T12:30:38.634Z</time></trkpt><trkpt lat="42.0720066" lon="13.704652"><ele>1046.0</ele><time>2026-05-02T12:30:39.638Z</time></trkpt><trkpt lat="42.0721612" lon="13.7044969"><ele>1046.0</ele><time>2026-05-02T12:30:40.636Z</time></trkpt><trkpt lat="42.0722979" lon="13.7043437"><ele>1046.0</ele><time>2026-05-02T12:30:41.626Z</time></trkpt><trkpt lat="42.0724196" lon="13.7041549"><ele>1047.5</ele><time>2026-05-02T12:30:42.634Z</time></trkpt><trkpt lat="42.0725197" lon="13.7039738"><ele>1049.0</ele><time>2026-05-02T12:30:43.624Z</time></trkpt><trkpt lat="42.0726052" lon="13.7038156"><ele>1050.5</ele><time>2026-05-02T12:30:44.616Z</time></trkpt><trkpt lat="42.0726711" lon="13.7036773"><ele>1052.0</ele><time>2026-05-02T12:30:45.625Z</time></trkpt><trkpt lat="42.0727126" lon="13.7035597"><ele>1054.8</ele><time>2026-05-02T12:30:46.643Z</time></trkpt><trkpt lat="42.072701" lon="13.7034434"><ele>1057.6</ele><time>2026-05-02T12:30:47.635Z</time></trkpt><trkpt lat="42.0726424" lon="13.703363"><ele>1060.3999999999999</ele><time>2026-05-02T12:30:48.631Z</time></trkpt><trkpt lat="42.0725576" lon="13.7033309"><ele>1063.2</ele><time>2026-05-02T12:30:49.62Z</time></trkpt><trkpt lat="42.0724602" lon="13.7033751"><ele>1066.0</ele><time>2026-05-02T12:30:50.635Z</time></trkpt><trkpt lat="42.0723657" lon="13.7034621"><ele>1065.3333333333333</ele><time>2026-05-02T12:30:51.617Z</time></trkpt><trkpt lat="42.0722666" lon="13.7035978"><ele>1064.6666666666667</ele><time>2026-05-02T12:30:52.623Z</time></trkpt><trkpt lat="42.07215" lon="13.7037355"><ele>1064.0</ele><time>2026-05-02T12:30:53.626Z</time></trkpt><trkpt lat="42.0720264" lon="13.7038861"><ele>1064.0</ele><time>2026-05-02T12:30:54.616Z</time></trkpt><trkpt lat="42.0718918" lon="13.704048"><ele>1064.0</ele><time>2026-05-02T12:30:55.631Z</time></trkpt><trkpt lat="42.0717608" lon="13.7041945"><ele>1064.0</ele><time>2026-05-02T12:30:56.623Z</time></trkpt><trkpt lat="42.0716238" lon="13.7043135"><ele>1067.3333333333335</ele><time>2026-05-02T12:30:57.619Z</time></trkpt><trkpt lat="42.071472" lon="13.7043461"><ele>1070.6666666666667</ele><time>2026-05-02T12:30:58.63Z</time></trkpt><trkpt lat="42.0712801" lon="13.7043651"><ele>1074.0</ele><time>2026-05-02T12:30:59.621Z</time></trkpt><trkpt lat="42.0710746" lon="13.7043433"><ele>1074.0</ele><time>2026-05-02T12:31:00.639Z</time></trkpt><trkpt lat="42.0708664" lon="13.7043137"><ele>1074.0</ele><time>2026-05-02T12:31:01.634Z</time></trkpt><trkpt lat="42.0706607" lon="13.7042974"><ele>1074.0</ele><time>2026-05-02T12:31:02.642Z</time></trkpt><trkpt lat="42.070466" lon="13.7043168"><ele>1072.3333333333333</ele><time>2026-05-02T12:31:03.621Z</time></trkpt><trkpt lat="42.07028" lon="13.7043731"><ele>1070.6666666666665</ele><time>2026-05-02T12:31:04.627Z</time></trkpt><trkpt lat="42.0701" lon="13.7044867"><ele>1069.0</ele><time>2026-05-02T12:31:05.629Z</time></trkpt><trkpt lat="42.0699327" lon="13.7046455"><ele>1069.6666666666665</ele><time>2026-05-02T12:31:06.628Z</time></trkpt><trkpt lat="42.0697789" lon="13.7048548"><ele>1070.3333333333333</ele><time>2026-05-02T12:31:07.623Z</time></trkpt><trkpt lat="42.0696198" lon="13.7050688"><ele>1071.0</ele><time>2026-05-02T12:31:08.631Z</time></trkpt><trkpt lat="42.0694419" lon="13.7052659"><ele>1071.0</ele><time>2026-05-02T12:31:09.639Z</time></trkpt><trkpt lat="42.0692632" lon="13.7054345"><ele>1071.0</ele><time>2026-05-02T12:31:10.62Z</time></trkpt><trkpt lat="42.0690753" lon="13.7055631"><ele>1071.0</ele><time>2026-05-02T12:31:11.637Z</time></trkpt><trkpt lat="42.068893" lon="13.7056784"><ele>1077.0</ele><time>2026-05-02T12:31:12.636Z</time></trkpt><trkpt lat="42.0687044" lon="13.7057739"><ele>1083.0</ele><time>2026-05-02T12:31:13.637Z</time></trkpt><trkpt lat="42.0684881" lon="13.7058502"><ele>1089.0</ele><time>2026-05-02T12:31:14.63Z</time></trkpt><trkpt lat="42.0682585" lon="13.7058968"><ele>1096.0</ele><time>2026-05-02T12:31:15.636Z</time></trkpt><trkpt lat="42.0680363" lon="13.7059358"><ele>1103.0</ele><time>2026-05-02T12:31:16.619Z</time></trkpt><trkpt lat="42.0678121" lon="13.7059774"><ele>1103.0</ele><time>2026-05-02T12:31:17.617Z</time></trkpt><trkpt lat="42.0675798" lon="13.7060065"><ele>1103.0</ele><time>2026-05-02T12:31:18.63Z</time></trkpt><trkpt lat="42.0673478" lon="13.7060301"><ele>1106.0</ele><time>2026-05-02T12:31:19.634Z</time></trkpt><trkpt lat="42.067107" lon="13.7060405"><ele>1109.0</ele><time>2026-05-02T12:31:20.626Z</time></trkpt><trkpt lat="42.0668715" lon="13.7060519"><ele>1109.0</ele><time>2026-05-02T12:31:21.634Z</time></trkpt><trkpt lat="42.0666423" lon="13.7060614"><ele>1109.0</ele><time>2026-05-02T12:31:22.632Z</time></trkpt><trkpt lat="42.066421" lon="13.7060938"><ele>1100.3333333333335</ele><time>2026-05-02T12:31:23.63Z</time></trkpt><trkpt lat="42.0662157" lon="13.7061364"><ele>1091.6666666666667</ele><time>2026-05-02T12:31:24.64Z</time></trkpt><trkpt lat="42.0660283" lon="13.706178"><ele>1083.0</ele><time>2026-05-02T12:31:25.637Z</time></trkpt><trkpt lat="42.0658517" lon="13.706209"><ele>1086.6666666666667</ele><time>2026-05-02T12:31:26.646Z</time></trkpt><trkpt lat="42.0656654" lon="13.7062304"><ele>1090.3333333333335</ele><time>2026-05-02T12:31:27.633Z</time></trkpt><trkpt lat="42.0654831" lon="13.706215"><ele>1094.0</ele><time>2026-05-02T12:31:28.637Z</time></trkpt><trkpt lat="42.0653085" lon="13.7061868"><ele>1094.0</ele><time>2026-05-02T12:31:29.63Z</time></trkpt><trkpt lat="42.0651416" lon="13.7061642"><ele>1094.0</ele><time>2026-05-02T12:31:30.637Z</time></trkpt><trkpt lat="42.0649761" lon="13.7061368"><ele>1094.0</ele><time>2026-05-02T12:31:31.63Z</time></trkpt><trkpt lat="42.0648185" lon="13.7061167"><ele>1099.5</ele><time>2026-05-02T12:31:32.627Z</time></trkpt><trkpt lat="42.0646641" lon="13.7061058"><ele>1105.0</ele><time>2026-05-02T12:31:33.621Z</time></trkpt><trkpt lat="42.0645238" lon="13.7060983"><ele>1110.5</ele><time>2026-05-02T12:31:34.631Z</time></trkpt><trkpt lat="42.0643916" lon="13.7060944"><ele>1116.0</ele><time>2026-05-02T12:31:35.624Z</time></trkpt><trkpt lat="42.0642742" lon="13.7060824"><ele>1115.3333333333333</ele><time>2026-05-02T12:31:36.63Z</time></trkpt><trkpt lat="42.064169" lon="13.7060555"><ele>1114.6666666666667</ele><time>2026-05-02T12:31:37.628Z</time></trkpt><trkpt lat="42.0640808" lon="13.7060046"><ele>1114.0</ele><time>2026-05-02T12:31:38.632Z</time></trkpt><trkpt lat="42.0640063" lon="13.705933"><ele>1113.3333333333335</ele><time>2026-05-02T12:31:39.631Z</time></trkpt><trkpt lat="42.0639409" lon="13.705868"><ele>1112.6666666666667</ele><time>2026-05-02T12:31:40.626Z</time></trkpt><trkpt lat="42.0638769" lon="13.7058238"><ele>1112.0</ele><time>2026-05-02T12:31:41.637Z</time></trkpt><trkpt lat="42.0637902" lon="13.7057875"><ele>1112.0</ele><time>2026-05-02T12:31:43.629Z</time></trkpt><trkpt lat="42.0637248" lon="13.7057618"><ele>1112.0</ele><time>2026-05-02T12:31:47.621Z</time></trkpt><trkpt lat="42.063642" lon="13.7057171"><ele>1112.0</ele><time>2026-05-02T12:32:51.634Z</time></trkpt><trkpt lat="42.0635877" lon="13.7056724"><ele>1112.0</ele><time>2026-05-02T12:32:52.633Z</time></trkpt><trkpt lat="42.0635097" lon="13.7055802"><ele>1112.0</ele><time>2026-05-02T12:32:53.626Z</time></trkpt><trkpt lat="42.0634022" lon="13.7054598"><ele>1112.0</ele><time>2026-05-02T12:32:54.62Z</time></trkpt><trkpt lat="42.0632953" lon="13.7053592"><ele>1112.0</ele><time>2026-05-02T12:32:55.623Z</time></trkpt><trkpt lat="42.0631996" lon="13.7052676"><ele>1112.0</ele><time>2026-05-02T12:32:56.623Z</time></trkpt><trkpt lat="42.0631149" lon="13.7051961"><ele>1112.0</ele><time>2026-05-02T12:32:57.632Z</time></trkpt><trkpt lat="42.0630247" lon="13.7051391"><ele>1112.0</ele><time>2026-05-02T12:32:58.636Z</time></trkpt><trkpt lat="42.0629348" lon="13.7050787"><ele>1106.4</ele><time>2026-05-02T12:32:59.634Z</time></trkpt><trkpt lat="42.0628479" lon="13.7050281"><ele>1100.8000000000002</ele><time>2026-05-02T12:33:00.626Z</time></trkpt><trkpt lat="42.0627635" lon="13.7049914"><ele>1095.2</ele><time>2026-05-02T12:33:01.621Z</time></trkpt><trkpt lat="42.0626597" lon="13.7049645"><ele>1089.6000000000001</ele><time>2026-05-02T12:33:02.635Z</time></trkpt><trkpt lat="42.0625212" lon="13.7049384"><ele>1084.0</ele><time>2026-05-02T12:33:03.621Z</time></trkpt><trkpt lat="42.0623631" lon="13.7049174"><ele>1081.5</ele><time>2026-05-02T12:33:04.634Z</time></trkpt><trkpt lat="42.0622165" lon="13.7048996"><ele>1079.0</ele><time>2026-05-02T12:33:05.63Z</time></trkpt><trkpt lat="42.0620887" lon="13.7048943"><ele>1076.5</ele><time>2026-05-02T12:33:06.626Z</time></trkpt><trkpt lat="42.0619581" lon="13.7048754"><ele>1074.0</ele><time>2026-05-02T12:33:07.63Z</time></trkpt><trkpt lat="42.0618585" lon="13.7048644"><ele>1074.0</ele><time>2026-05-02T12:33:08.627Z</time></trkpt><trkpt lat="42.0617874" lon="13.7048361"><ele>1074.0</ele><time>2026-05-02T12:33:09.633Z</time></trkpt><trkpt lat="42.0617228" lon="13.7047812"><ele>1074.0</ele><time>2026-05-02T12:33:10.645Z</time></trkpt><trkpt lat="42.061652" lon="13.704687"><ele>1074.0</ele><time>2026-05-02T12:33:11.628Z</time></trkpt><trkpt lat="42.0615643" lon="13.704573"><ele>1074.0</ele><time>2026-05-02T12:33:12.635Z</time></trkpt><trkpt lat="42.0614783" lon="13.7044503"><ele>1072.5</ele><time>2026-05-02T12:33:13.635Z</time></trkpt><trkpt lat="42.061394" lon="13.7043029"><ele>1071.0</ele><time>2026-05-02T12:33:14.623Z</time></trkpt><trkpt lat="42.0613079" lon="13.7041508"><ele>1069.5</ele><time>2026-05-02T12:33:15.628Z</time></trkpt><trkpt lat="42.0612409" lon="13.7040239"><ele>1068.0</ele><time>2026-05-02T12:33:16.625Z</time></trkpt><trkpt lat="42.0611703" lon="13.7039099"><ele>1068.0</ele><time>2026-05-02T12:33:17.643Z</time></trkpt><trkpt lat="42.0611165" lon="13.7038257"><ele>1068.0</ele><time>2026-05-02T12:33:18.625Z</time></trkpt><trkpt lat="42.0610558" lon="13.7037414"><ele>1068.0</ele><time>2026-05-02T12:33:19.638Z</time></trkpt><trkpt lat="42.0610116" lon="13.7036663"><ele>1068.0</ele><time>2026-05-02T12:33:20.63Z</time></trkpt><trkpt lat="42.0609634" lon="13.7035868"><ele>1068.0</ele><time>2026-05-02T12:33:21.633Z</time></trkpt><trkpt lat="42.0609058" lon="13.7034953"><ele>1068.0</ele><time>2026-05-02T12:33:22.631Z</time></trkpt><trkpt lat="42.0608426" lon="13.7033841"><ele>1068.75</ele><time>2026-05-02T12:33:23.628Z</time></trkpt><trkpt lat="42.0607744" lon="13.70326"><ele>1069.5</ele><time>2026-05-02T12:33:24.632Z</time></trkpt><trkpt lat="42.0606978" lon="13.7031208"><ele>1070.25</ele><time>2026-05-02T12:33:25.635Z</time></trkpt><trkpt lat="42.0606157" lon="13.7029594"><ele>1071.0</ele><time>2026-05-02T12:33:26.635Z</time></trkpt><trkpt lat="42.0605288" lon="13.7027991"><ele>1069.0</ele><time>2026-05-02T12:33:27.634Z</time></trkpt><trkpt lat="42.0604469" lon="13.702628"><ele>1067.0</ele><time>2026-05-02T12:33:28.643Z</time></trkpt><trkpt lat="42.0603582" lon="13.7024613"><ele>1065.0</ele><time>2026-05-02T12:33:29.641Z</time></trkpt><trkpt lat="42.0602632" lon="13.7022984"><ele>1065.0</ele><time>2026-05-02T12:33:30.631Z</time></trkpt><trkpt lat="42.0601645" lon="13.7021365"><ele>1065.0</ele><time>2026-05-02T12:33:31.633Z</time></trkpt><trkpt lat="42.0600623" lon="13.7019721"><ele>1065.0</ele><time>2026-05-02T12:33:32.646Z</time></trkpt><trkpt lat="42.0599743" lon="13.7018192"><ele>1067.2</ele><time>2026-05-02T12:33:33.643Z</time></trkpt><trkpt lat="42.0598999" lon="13.7016825"><ele>1069.4</ele><time>2026-05-02T12:33:34.635Z</time></trkpt><trkpt lat="42.0598355" lon="13.701563"><ele>1071.6</ele><time>2026-05-02T12:33:35.637Z</time></trkpt><trkpt lat="42.0597726" lon="13.7014582"><ele>1073.8</ele><time>2026-05-02T12:33:36.629Z</time></trkpt><trkpt lat="42.0597072" lon="13.701353"><ele>1076.0</ele><time>2026-05-02T12:33:37.643Z</time></trkpt><trkpt lat="42.0596459" lon="13.7012533"><ele>1076.0</ele><time>2026-05-02T12:33:38.642Z</time></trkpt><trkpt lat="42.0595967" lon="13.7011674"><ele>1076.0</ele><time>2026-05-02T12:33:39.634Z</time></trkpt><trkpt lat="42.0595499" lon="13.7010852"><ele>1076.0</ele><time>2026-05-02T12:33:40.644Z</time></trkpt><trkpt lat="42.0594949" lon="13.7009904"><ele>1076.0</ele><time>2026-05-02T12:33:41.635Z</time></trkpt><trkpt lat="42.0594335" lon="13.7008965"><ele>1076.0</ele><time>2026-05-02T12:33:42.634Z</time></trkpt><trkpt lat="42.0593714" lon="13.7008062"><ele>1076.0</ele><time>2026-05-02T12:33:43.641Z</time></trkpt><trkpt lat="42.0593095" lon="13.7007355"><ele>1073.5</ele><time>2026-05-02T12:33:44.637Z</time></trkpt><trkpt lat="42.0592427" lon="13.7006732"><ele>1071.0</ele><time>2026-05-02T12:33:45.632Z</time></trkpt><trkpt lat="42.0591757" lon="13.7006205"><ele>1068.5</ele><time>2026-05-02T12:33:46.638Z</time></trkpt><trkpt lat="42.0590995" lon="13.7005734"><ele>1066.0</ele><time>2026-05-02T12:33:47.629Z</time></trkpt><trkpt lat="42.0590107" lon="13.7005211"><ele>1063.5</ele><time>2026-05-02T12:33:48.627Z</time></trkpt><trkpt lat="42.0589125" lon="13.7004795"><ele>1061.0</ele><time>2026-05-02T12:33:49.638Z</time></trkpt><trkpt lat="42.0588001" lon="13.7004437"><ele>1060.0</ele><time>2026-05-02T12:33:50.631Z</time></trkpt><trkpt lat="42.0586795" lon="13.7004213"><ele>1059.0</ele><time>2026-05-02T12:33:51.649Z</time></trkpt><trkpt lat="42.0585469" lon="13.7003994"><ele>1058.0</ele><time>2026-05-02T12:33:52.639Z</time></trkpt><trkpt lat="42.0584117" lon="13.7003798"><ele>1057.0</ele><time>2026-05-02T12:33:53.634Z</time></trkpt><trkpt lat="42.0582853" lon="13.7003667"><ele>1056.0</ele><time>2026-05-02T12:33:54.65Z</time></trkpt><trkpt lat="42.0581587" lon="13.7003595"><ele>1055.0</ele><time>2026-05-02T12:33:55.627Z</time></trkpt><trkpt lat="42.0580342" lon="13.7003517"><ele>1054.0</ele><time>2026-05-02T12:33:56.655Z</time></trkpt><trkpt lat="42.057936" lon="13.7003443"><ele>1053.0</ele><time>2026-05-02T12:33:57.626Z</time></trkpt><trkpt lat="42.0578656" lon="13.70033"><ele>1052.0</ele><time>2026-05-02T12:33:58.633Z</time></trkpt><trkpt lat="42.0577893" lon="13.7003182"><ele>1052.0</ele><time>2026-05-02T12:33:59.635Z</time></trkpt><trkpt lat="42.0576927" lon="13.700298"><ele>1052.0</ele><time>2026-05-02T12:34:00.645Z</time></trkpt><trkpt lat="42.0575929" lon="13.7002988"><ele>1052.0</ele><time>2026-05-02T12:34:01.625Z</time></trkpt><trkpt lat="42.0575047" lon="13.7002827"><ele>1052.0</ele><time>2026-05-02T12:34:02.643Z</time></trkpt><trkpt lat="42.0574077" lon="13.7002766"><ele>1052.0</ele><time>2026-05-02T12:34:03.644Z</time></trkpt><trkpt lat="42.0573035" lon="13.7002683"><ele>1051.8</ele><time>2026-05-02T12:34:04.637Z</time></trkpt><trkpt lat="42.0571882" lon="13.7002519"><ele>1051.6</ele><time>2026-05-02T12:34:05.635Z</time></trkpt><trkpt lat="42.0570826" lon="13.7002409"><ele>1051.3999999999999</ele><time>2026-05-02T12:34:06.629Z</time></trkpt><trkpt lat="42.056976" lon="13.7002253"><ele>1051.2</ele><time>2026-05-02T12:34:07.641Z</time></trkpt><trkpt lat="42.0568606" lon="13.7002067"><ele>1051.0</ele><time>2026-05-02T12:34:08.644Z</time></trkpt><trkpt lat="42.0567328" lon="13.7001813"><ele>1051.25</ele><time>2026-05-02T12:34:09.637Z</time></trkpt><trkpt lat="42.0566017" lon="13.7001533"><ele>1051.5</ele><time>2026-05-02T12:34:10.634Z</time></trkpt><trkpt lat="42.0564704" lon="13.7001336"><ele>1051.75</ele><time>2026-05-02T12:34:11.627Z</time></trkpt><trkpt lat="42.0563293" lon="13.7001114"><ele>1052.0</ele><time>2026-05-02T12:34:12.628Z</time></trkpt><trkpt lat="42.056187" lon="13.7000867"><ele>1052.0</ele><time>2026-05-02T12:34:13.63Z</time></trkpt><trkpt lat="42.0560541" lon="13.7000658"><ele>1052.0</ele><time>2026-05-02T12:34:14.64Z</time></trkpt><trkpt lat="42.0559406" lon="13.700038"><ele>1052.0</ele><time>2026-05-02T12:34:15.638Z</time></trkpt><trkpt lat="42.055834" lon="13.7000212"><ele>1052.0</ele><time>2026-05-02T12:34:16.633Z</time></trkpt><trkpt lat="42.0556978" lon="13.6999949"><ele>1051.5</ele><time>2026-05-02T12:34:17.635Z</time></trkpt><trkpt lat="42.0555547" lon="13.6999724"><ele>1051.0</ele><time>2026-05-02T12:34:18.639Z</time></trkpt><trkpt lat="42.0554245" lon="13.6999555"><ele>1050.5</ele><time>2026-05-02T12:34:19.63Z</time></trkpt><trkpt lat="42.0553035" lon="13.6999375"><ele>1050.0</ele><time>2026-05-02T12:34:20.627Z</time></trkpt><trkpt lat="42.0551997" lon="13.6999135"><ele>1050.0</ele><time>2026-05-02T12:34:21.64Z</time></trkpt><trkpt lat="42.0550854" lon="13.6998714"><ele>1050.0</ele><time>2026-05-02T12:34:22.66Z</time></trkpt><trkpt lat="42.054971" lon="13.6998222"><ele>1050.0</ele><time>2026-05-02T12:34:23.628Z</time></trkpt><trkpt lat="42.0548561" lon="13.6997658"><ele>1050.0</ele><time>2026-05-02T12:34:24.622Z</time></trkpt><trkpt lat="42.0547351" lon="13.699699"><ele>1049.6</ele><time>2026-05-02T12:34:25.622Z</time></trkpt><trkpt lat="42.0546185" lon="13.6996333"><ele>1049.2</ele><time>2026-05-02T12:34:26.627Z</time></trkpt><trkpt lat="42.0545285" lon="13.6995964"><ele>1048.8</ele><time>2026-05-02T12:34:27.622Z</time></trkpt><trkpt lat="42.0544373" lon="13.699577"><ele>1048.4</ele><time>2026-05-02T12:34:28.629Z</time></trkpt><trkpt lat="42.0543409" lon="13.69956"><ele>1048.0</ele><time>2026-05-02T12:34:29.628Z</time></trkpt><trkpt lat="42.0542263" lon="13.6995083"><ele>1049.0</ele><time>2026-05-02T12:34:30.631Z</time></trkpt><trkpt lat="42.0541096" lon="13.6994499"><ele>1050.0</ele><time>2026-05-02T12:34:31.628Z</time></trkpt><trkpt lat="42.0539835" lon="13.6993804"><ele>1051.0</ele><time>2026-05-02T12:34:32.625Z</time></trkpt><trkpt lat="42.0538616" lon="13.6993162"><ele>1052.0</ele><time>2026-05-02T12:34:33.624Z</time></trkpt><trkpt lat="42.0537373" lon="13.6992566"><ele>1052.0</ele><time>2026-05-02T12:34:34.616Z</time></trkpt><trkpt lat="42.0535961" lon="13.699187"><ele>1052.0</ele><time>2026-05-02T12:34:35.613Z</time></trkpt><trkpt lat="42.0534595" lon="13.6991123"><ele>1052.0</ele><time>2026-05-02T12:34:36.621Z</time></trkpt><trkpt lat="42.053333" lon="13.6990547"><ele>1052.0</ele><time>2026-05-02T12:34:37.625Z</time></trkpt><trkpt lat="42.0532175" lon="13.6989899"><ele>1052.5</ele><time>2026-05-02T12:34:38.62Z</time></trkpt><trkpt lat="42.0531114" lon="13.6989124"><ele>1053.0</ele><time>2026-05-02T12:34:39.615Z</time></trkpt><trkpt lat="42.0529883" lon="13.6987922"><ele>1053.5</ele><time>2026-05-02T12:34:40.617Z</time></trkpt><trkpt lat="42.0528547" lon="13.6986476"><ele>1054.0</ele><time>2026-05-02T12:34:41.622Z</time></trkpt><trkpt lat="42.0527254" lon="13.6984993"><ele>1054.6666666666665</ele><time>2026-05-02T12:34:42.62Z</time></trkpt><trkpt lat="42.0525995" lon="13.6983692"><ele>1055.3333333333333</ele><time>2026-05-02T12:34:43.627Z</time></trkpt><trkpt lat="42.0524675" lon="13.6982375"><ele>1056.0</ele><time>2026-05-02T12:34:44.608Z</time></trkpt><trkpt lat="42.0523357" lon="13.698105"><ele>1056.0</ele><time>2026-05-02T12:34:45.618Z</time></trkpt><trkpt lat="42.0522152" lon="13.6979804"><ele>1056.0</ele><time>2026-05-02T12:34:46.621Z</time></trkpt><trkpt lat="42.0521093" lon="13.6978533"><ele>1056.0</ele><time>2026-05-02T12:34:47.629Z</time></trkpt><trkpt lat="42.0520084" lon="13.6977094"><ele>1056.0</ele><time>2026-05-02T12:34:48.612Z</time></trkpt><trkpt lat="42.0519001" lon="13.6975648"><ele>1056.0</ele><time>2026-05-02T12:34:49.624Z</time></trkpt><trkpt lat="42.0517671" lon="13.697425"><ele>1056.0</ele><time>2026-05-02T12:34:50.622Z</time></trkpt><trkpt lat="42.0516404" lon="13.6972886"><ele>1056.0</ele><time>2026-05-02T12:34:51.616Z</time></trkpt><trkpt lat="42.0515215" lon="13.6971522"><ele>1055.6666666666667</ele><time>2026-05-02T12:34:52.618Z</time></trkpt><trkpt lat="42.0514031" lon="13.6970152"><ele>1055.3333333333335</ele><time>2026-05-02T12:34:53.616Z</time></trkpt><trkpt lat="42.0512797" lon="13.696875"><ele>1055.0</ele><time>2026-05-02T12:34:54.618Z</time></trkpt><trkpt lat="42.0511569" lon="13.6967277"><ele>1055.0</ele><time>2026-05-02T12:34:55.613Z</time></trkpt><trkpt lat="42.0510335" lon="13.6965787"><ele>1055.0</ele><time>2026-05-02T12:34:56.622Z</time></trkpt><trkpt lat="42.0509097" lon="13.6964293"><ele>1055.0</ele><time>2026-05-02T12:34:57.625Z</time></trkpt><trkpt lat="42.0507836" lon="13.6962764"><ele>1053.6666666666667</ele><time>2026-05-02T12:34:58.622Z</time></trkpt><trkpt lat="42.0506631" lon="13.6961126"><ele>1052.3333333333333</ele><time>2026-05-02T12:34:59.624Z</time></trkpt><trkpt lat="42.0505502" lon="13.6959543"><ele>1051.0</ele><time>2026-05-02T12:35:00.62Z</time></trkpt><trkpt lat="42.0504554" lon="13.6958193"><ele>1051.0</ele><time>2026-05-02T12:35:01.627Z</time></trkpt><trkpt lat="42.0503606" lon="13.6957145"><ele>1051.0</ele><time>2026-05-02T12:35:02.623Z</time></trkpt><trkpt lat="42.0502711" lon="13.6956154"><ele>1051.0</ele><time>2026-05-02T12:35:03.613Z</time></trkpt><trkpt lat="42.0501693" lon="13.6954727"><ele>1051.0</ele><time>2026-05-02T12:35:04.616Z</time></trkpt><trkpt lat="42.0500541" lon="13.6953132"><ele>1052.6666666666665</ele><time>2026-05-02T12:35:05.617Z</time></trkpt><trkpt lat="42.0499395" lon="13.6951471"><ele>1054.3333333333333</ele><time>2026-05-02T12:35:06.627Z</time></trkpt><trkpt lat="42.049831" lon="13.6949993"><ele>1056.0</ele><time>2026-05-02T12:35:07.621Z</time></trkpt><trkpt lat="42.049732" lon="13.694866"><ele>1056.0</ele><time>2026-05-02T12:35:08.62Z</time></trkpt><trkpt lat="42.0496369" lon="13.6947327"><ele>1056.0</ele><time>2026-05-02T12:35:09.621Z</time></trkpt><trkpt lat="42.0495447" lon="13.694603"><ele>1056.0</ele><time>2026-05-02T12:35:10.625Z</time></trkpt><trkpt lat="42.0494638" lon="13.6944789"><ele>1056.0</ele><time>2026-05-02T12:35:11.619Z</time></trkpt><trkpt lat="42.0493742" lon="13.6943551"><ele>1055.75</ele><time>2026-05-02T12:35:12.623Z</time></trkpt><trkpt lat="42.0492855" lon="13.6942363"><ele>1055.5</ele><time>2026-05-02T12:35:13.62Z</time></trkpt><trkpt lat="42.0491759" lon="13.694116"><ele>1055.25</ele><time>2026-05-02T12:35:14.613Z</time></trkpt><trkpt lat="42.0490451" lon="13.6939921"><ele>1055.0</ele><time>2026-05-02T12:35:15.62Z</time></trkpt><trkpt lat="42.0489191" lon="13.6938608"><ele>1055.0</ele><time>2026-05-02T12:35:16.624Z</time></trkpt><trkpt lat="42.0488069" lon="13.6937253"><ele>1055.0</ele><time>2026-05-02T12:35:17.612Z</time></trkpt><trkpt lat="42.0486995" lon="13.6936009"><ele>1055.0</ele><time>2026-05-02T12:35:18.617Z</time></trkpt><trkpt lat="42.0486035" lon="13.6934957"><ele>1055.0</ele><time>2026-05-02T12:35:19.622Z</time></trkpt><trkpt lat="42.0485213" lon="13.6934188"><ele>1054.5</ele><time>2026-05-02T12:35:20.624Z</time></trkpt><trkpt lat="42.0484371" lon="13.6933404"><ele>1054.0</ele><time>2026-05-02T12:35:21.618Z</time></trkpt><trkpt lat="42.0483327" lon="13.6932464"><ele>1053.5</ele><time>2026-05-02T12:35:22.627Z</time></trkpt><trkpt lat="42.0482216" lon="13.6931308"><ele>1053.0</ele><time>2026-05-02T12:35:23.623Z</time></trkpt><trkpt lat="42.0481012" lon="13.6929984"><ele>1053.0</ele><time>2026-05-02T12:35:24.611Z</time></trkpt><trkpt lat="42.0479759" lon="13.6928625"><ele>1053.0</ele><time>2026-05-02T12:35:25.612Z</time></trkpt><trkpt lat="42.0478406" lon="13.6927133"><ele>1053.0</ele><time>2026-05-02T12:35:26.618Z</time></trkpt><trkpt lat="42.0477062" lon="13.6925623"><ele>1048.3333333333333</ele><time>2026-05-02T12:35:27.617Z</time></trkpt><trkpt lat="42.0475635" lon="13.6924128"><ele>1043.6666666666665</ele><time>2026-05-02T12:35:28.62Z</time></trkpt><trkpt lat="42.0474167" lon="13.6922619"><ele>1039.0</ele><time>2026-05-02T12:35:29.617Z</time></trkpt><trkpt lat="42.0472727" lon="13.6921242"><ele>1039.0</ele><time>2026-05-02T12:35:30.618Z</time></trkpt><trkpt lat="42.0471374" lon="13.6920018"><ele>1039.0</ele><time>2026-05-02T12:35:31.616Z</time></trkpt><trkpt lat="42.0469921" lon="13.6918875"><ele>1039.0</ele><time>2026-05-02T12:35:32.617Z</time></trkpt><trkpt lat="42.0468468" lon="13.6917757"><ele>1035.0</ele><time>2026-05-02T12:35:33.624Z</time></trkpt><trkpt lat="42.0467103" lon="13.6916749"><ele>1031.0</ele><time>2026-05-02T12:35:34.616Z</time></trkpt><trkpt lat="42.0465801" lon="13.6915875"><ele>1027.0</ele><time>2026-05-02T12:35:35.612Z</time></trkpt><trkpt lat="42.0464764" lon="13.6915028"><ele>1023.0</ele><time>2026-05-02T12:35:36.62Z</time></trkpt><trkpt lat="42.0463689" lon="13.691423"><ele>1023.0</ele><time>2026-05-02T12:35:37.623Z</time></trkpt><trkpt lat="42.0462578" lon="13.6913326"><ele>1023.0</ele><time>2026-05-02T12:35:38.617Z</time></trkpt><trkpt lat="42.046132" lon="13.6912296"><ele>1023.0</ele><time>2026-05-02T12:35:39.618Z</time></trkpt><trkpt lat="42.0460168" lon="13.6911126"><ele>1023.0</ele><time>2026-05-02T12:35:40.623Z</time></trkpt><trkpt lat="42.0459024" lon="13.6909968"><ele>1021.0</ele><time>2026-05-02T12:35:41.621Z</time></trkpt><trkpt lat="42.0457923" lon="13.6908756"><ele>1019.0</ele><time>2026-05-02T12:35:42.621Z</time></trkpt><trkpt lat="42.045673" lon="13.6907424"><ele>1017.0</ele><time>2026-05-02T12:35:43.614Z</time></trkpt><trkpt lat="42.0455572" lon="13.6905998"><ele>1017.0</ele><time>2026-05-02T12:35:44.613Z</time></trkpt><trkpt lat="42.0454494" lon="13.6904553"><ele>1017.0</ele><time>2026-05-02T12:35:45.621Z</time></trkpt><trkpt lat="42.0453604" lon="13.6903002"><ele>1017.0</ele><time>2026-05-02T12:35:46.627Z</time></trkpt><trkpt lat="42.0452822" lon="13.6901464"><ele>1017.0</ele><time>2026-05-02T12:35:47.622Z</time></trkpt><trkpt lat="42.0452107" lon="13.6900011"><ele>1017.75</ele><time>2026-05-02T12:35:48.614Z</time></trkpt><trkpt lat="42.0451388" lon="13.6898614"><ele>1018.5</ele><time>2026-05-02T12:35:49.617Z</time></trkpt><trkpt lat="42.0450792" lon="13.6897184"><ele>1019.25</ele><time>2026-05-02T12:35:50.625Z</time></trkpt><trkpt lat="42.0450179" lon="13.6895667"><ele>1020.0</ele><time>2026-05-02T12:35:51.62Z</time></trkpt><trkpt lat="42.0449544" lon="13.6893924"><ele>1020.0</ele><time>2026-05-02T12:35:52.613Z</time></trkpt><trkpt lat="42.0448963" lon="13.6892165"><ele>1020.0</ele><time>2026-05-02T12:35:53.624Z</time></trkpt><trkpt lat="42.0448376" lon="13.6890438"><ele>1020.0</ele><time>2026-05-02T12:35:54.618Z</time></trkpt><trkpt lat="42.0447799" lon="13.688877"><ele>1020.0</ele><time>2026-05-02T12:35:55.621Z</time></trkpt><trkpt lat="42.0447154" lon="13.6887334"><ele>1014.5</ele><time>2026-05-02T12:35:56.628Z</time></trkpt><trkpt lat="42.0446546" lon="13.6885922"><ele>1009.0</ele><time>2026-05-02T12:35:57.628Z</time></trkpt><trkpt lat="42.044595" lon="13.6884228"><ele>1003.5</ele><time>2026-05-02T12:35:58.628Z</time></trkpt><trkpt lat="42.0445361" lon="13.6882546"><ele>998.0</ele><time>2026-05-02T12:35:59.613Z</time></trkpt><trkpt lat="42.0444589" lon="13.6880984"><ele>998.0</ele><time>2026-05-02T12:36:00.615Z</time></trkpt><trkpt lat="42.044378" lon="13.6879685"><ele>998.0</ele><time>2026-05-02T12:36:01.633Z</time></trkpt><trkpt lat="42.0442984" lon="13.6878448"><ele>998.0</ele><time>2026-05-02T12:36:02.621Z</time></trkpt><trkpt lat="42.0442279" lon="13.6877169"><ele>998.0</ele><time>2026-05-02T12:36:03.61Z</time></trkpt><trkpt lat="42.044176" lon="13.6875755"><ele>997.5999999999999</ele><time>2026-05-02T12:36:04.627Z</time></trkpt><trkpt lat="42.0441194" lon="13.687433"><ele>997.1999999999999</ele><time>2026-05-02T12:36:05.616Z</time></trkpt><trkpt lat="42.0440561" lon="13.6873125"><ele>996.8</ele><time>2026-05-02T12:36:06.613Z</time></trkpt><trkpt lat="42.0439924" lon="13.6872026"><ele>996.4</ele><time>2026-05-02T12:36:07.623Z</time></trkpt><trkpt lat="42.0439342" lon="13.6871126"><ele>996.0</ele><time>2026-05-02T12:36:08.616Z</time></trkpt><trkpt lat="42.043875" lon="13.687024"><ele>996.0</ele><time>2026-05-02T12:36:09.615Z</time></trkpt><trkpt lat="42.0438232" lon="13.6869558"><ele>996.0</ele><time>2026-05-02T12:36:10.625Z</time></trkpt><trkpt lat="42.0437803" lon="13.6868791"><ele>996.0</ele><time>2026-05-02T12:36:11.615Z</time></trkpt><trkpt lat="42.0437411" lon="13.6868083"><ele>996.0</ele><time>2026-05-02T12:36:12.619Z</time></trkpt><trkpt lat="42.0436979" lon="13.6867329"><ele>996.0</ele><time>2026-05-02T12:36:13.626Z</time></trkpt><trkpt lat="42.0436548" lon="13.6866694"><ele>996.0</ele><time>2026-05-02T12:36:14.612Z</time></trkpt><trkpt lat="42.0435693" lon="13.6865848"><ele>991.1999999999999</ele><time>2026-05-02T12:36:16.613Z</time></trkpt><trkpt lat="42.0435031" lon="13.686457"><ele>986.3999999999999</ele><time>2026-05-02T12:36:18.614Z</time></trkpt><trkpt lat="42.04347" lon="13.6863188"><ele>981.6</ele><time>2026-05-02T12:36:20.618Z</time></trkpt><trkpt lat="42.0434333" lon="13.6861976"><ele>976.8</ele><time>2026-05-02T12:36:21.619Z</time></trkpt><trkpt lat="42.043374" lon="13.6860494"><ele>972.0</ele><time>2026-05-02T12:36:22.617Z</time></trkpt><trkpt lat="42.0433231" lon="13.6859181"><ele>973.0</ele><time>2026-05-02T12:36:23.617Z</time></trkpt><trkpt lat="42.0432703" lon="13.6858077"><ele>974.0</ele><time>2026-05-02T12:36:24.643Z</time></trkpt><trkpt lat="42.0432135" lon="13.685705"><ele>975.0</ele><time>2026-05-02T12:36:25.622Z</time></trkpt><trkpt lat="42.0431555" lon="13.6856139"><ele>976.0</ele><time>2026-05-02T12:36:26.621Z</time></trkpt><trkpt lat="42.0431069" lon="13.6855342"><ele>977.0</ele><time>2026-05-02T12:36:27.624Z</time></trkpt><trkpt lat="42.0430653" lon="13.6854418"><ele>978.0</ele><time>2026-05-02T12:36:28.621Z</time></trkpt><trkpt lat="42.043013" lon="13.6853564"><ele>978.0</ele><time>2026-05-02T12:36:29.63Z</time></trkpt><trkpt lat="42.0429451" lon="13.6852681"><ele>978.0</ele><time>2026-05-02T12:36:30.625Z</time></trkpt><trkpt lat="42.0428824" lon="13.6851597"><ele>978.0</ele><time>2026-05-02T12:36:31.618Z</time></trkpt><trkpt lat="42.0428207" lon="13.6850191"><ele>978.0</ele><time>2026-05-02T12:36:32.63Z</time></trkpt><trkpt lat="42.0427519" lon="13.6848807"><ele>978.0</ele><time>2026-05-02T12:36:33.621Z</time></trkpt><trkpt lat="42.0426908" lon="13.684763"><ele>972.4</ele><time>2026-05-02T12:36:34.624Z</time></trkpt><trkpt lat="42.0426419" lon="13.6846639"><ele>966.8</ele><time>2026-05-02T12:36:35.617Z</time></trkpt><trkpt lat="42.0425834" lon="13.6845771"><ele>961.2</ele><time>2026-05-02T12:36:36.619Z</time></trkpt><trkpt lat="42.0425073" lon="13.6844743"><ele>955.6</ele><time>2026-05-02T12:36:37.628Z</time></trkpt><trkpt lat="42.0424233" lon="13.684347"><ele>950.0</ele><time>2026-05-02T12:36:38.626Z</time></trkpt><trkpt lat="42.0423523" lon="13.6842205"><ele>948.2</ele><time>2026-05-02T12:36:39.622Z</time></trkpt><trkpt lat="42.0422731" lon="13.6840957"><ele>946.4</ele><time>2026-05-02T12:36:40.628Z</time></trkpt><trkpt lat="42.042193" lon="13.6839942"><ele>944.5999999999999</ele><time>2026-05-02T12:36:41.623Z</time></trkpt><trkpt lat="42.0421222" lon="13.6839024"><ele>942.8</ele><time>2026-05-02T12:36:42.616Z</time></trkpt><trkpt lat="42.0420495" lon="13.6838043"><ele>941.0</ele><time>2026-05-02T12:36:43.624Z</time></trkpt><trkpt lat="42.0419728" lon="13.6836903"><ele>934.5</ele><time>2026-05-02T12:36:44.628Z</time></trkpt><trkpt lat="42.0418963" lon="13.6835757"><ele>928.0</ele><time>2026-05-02T12:36:45.62Z</time></trkpt><trkpt lat="42.0418231" lon="13.683461"><ele>921.5</ele><time>2026-05-02T12:36:46.615Z</time></trkpt><trkpt lat="42.0417501" lon="13.6833425"><ele>915.0</ele><time>2026-05-02T12:36:47.619Z</time></trkpt><trkpt lat="42.0416717" lon="13.6832161"><ele>912.0</ele><time>2026-05-02T12:36:48.624Z</time></trkpt><trkpt lat="42.0415798" lon="13.6830797"><ele>909.0</ele><time>2026-05-02T12:36:49.622Z</time></trkpt><trkpt lat="42.0415007" lon="13.6829357"><ele>906.0</ele><time>2026-05-02T12:36:50.629Z</time></trkpt><trkpt lat="42.0414122" lon="13.6827813"><ele>903.0</ele><time>2026-05-02T12:36:51.619Z</time></trkpt><trkpt lat="42.0413219" lon="13.682622"><ele>903.0</ele><time>2026-05-02T12:36:52.615Z</time></trkpt><trkpt lat="42.0412466" lon="13.6824757"><ele>903.0</ele><time>2026-05-02T12:36:53.629Z</time></trkpt><trkpt lat="42.0411776" lon="13.6823209"><ele>903.0</ele><time>2026-05-02T12:36:54.631Z</time></trkpt><trkpt lat="42.0411072" lon="13.6821692"><ele>903.0</ele><time>2026-05-02T12:36:55.614Z</time></trkpt><trkpt lat="42.0410193" lon="13.6820132"><ele>901.0</ele><time>2026-05-02T12:36:56.622Z</time></trkpt><trkpt lat="42.040904" lon="13.681852"><ele>899.0</ele><time>2026-05-02T12:36:57.616Z</time></trkpt><trkpt lat="42.0407717" lon="13.6816805"><ele>897.0</ele><time>2026-05-02T12:36:58.643Z</time></trkpt><trkpt lat="42.0406511" lon="13.6815174"><ele>897.0</ele><time>2026-05-02T12:36:59.625Z</time></trkpt><trkpt lat="42.0405274" lon="13.6813408"><ele>897.0</ele><time>2026-05-02T12:37:00.618Z</time></trkpt><trkpt lat="42.0404105" lon="13.6811646"><ele>897.0</ele><time>2026-05-02T12:37:01.63Z</time></trkpt><trkpt lat="42.0403001" lon="13.6809998"><ele>891.6666666666667</ele><time>2026-05-02T12:37:02.632Z</time></trkpt><trkpt lat="42.040202" lon="13.6808361"><ele>886.3333333333334</ele><time>2026-05-02T12:37:03.622Z</time></trkpt><trkpt lat="42.0401113" lon="13.6806719"><ele>881.0</ele><time>2026-05-02T12:37:04.619Z</time></trkpt><trkpt lat="42.0400217" lon="13.6804983"><ele>882.25</ele><time>2026-05-02T12:37:05.62Z</time></trkpt><trkpt lat="42.0399331" lon="13.6803278"><ele>883.5</ele><time>2026-05-02T12:37:06.621Z</time></trkpt><trkpt lat="42.0398455" lon="13.6801742"><ele>884.75</ele><time>2026-05-02T12:37:07.614Z</time></trkpt><trkpt lat="42.0397584" lon="13.6800285"><ele>886.0</ele><time>2026-05-02T12:37:08.617Z</time></trkpt><trkpt lat="42.0396734" lon="13.6798786"><ele>886.0</ele><time>2026-05-02T12:37:09.633Z</time></trkpt><trkpt lat="42.0395887" lon="13.6797312"><ele>886.0</ele><time>2026-05-02T12:37:10.618Z</time></trkpt><trkpt lat="42.0395069" lon="13.6795743"><ele>886.0</ele><time>2026-05-02T12:37:11.616Z</time></trkpt><trkpt lat="42.0394233" lon="13.6794207"><ele>886.0</ele><time>2026-05-02T12:37:12.616Z</time></trkpt><trkpt lat="42.0393486" lon="13.6792696"><ele>887.0</ele><time>2026-05-02T12:37:13.615Z</time></trkpt><trkpt lat="42.03928" lon="13.6791228"><ele>888.0</ele><time>2026-05-02T12:37:14.614Z</time></trkpt><trkpt lat="42.0392088" lon="13.6789645"><ele>889.0</ele><time>2026-05-02T12:37:15.621Z</time></trkpt><trkpt lat="42.0391061" lon="13.6787506"><ele>883.3333333333333</ele><time>2026-05-02T12:37:16.622Z</time></trkpt><trkpt lat="42.0389762" lon="13.6785291"><ele>877.6666666666667</ele><time>2026-05-02T12:37:17.621Z</time></trkpt><trkpt lat="42.0388495" lon="13.6783069"><ele>872.0</ele><time>2026-05-02T12:37:18.624Z</time></trkpt><trkpt lat="42.0387141" lon="13.6780907"><ele>872.0</ele><time>2026-05-02T12:37:19.629Z</time></trkpt><trkpt lat="42.0385939" lon="13.677895"><ele>872.0</ele><time>2026-05-02T12:37:20.63Z</time></trkpt><trkpt lat="42.0384799" lon="13.6777133"><ele>872.0</ele><time>2026-05-02T12:37:21.63Z</time></trkpt><trkpt lat="42.0383652" lon="13.6775456"><ele>868.6666666666667</ele><time>2026-05-02T12:37:22.619Z</time></trkpt><trkpt lat="42.0382537" lon="13.6773822"><ele>865.3333333333333</ele><time>2026-05-02T12:37:23.621Z</time></trkpt><trkpt lat="42.0381374" lon="13.6772386"><ele>862.0</ele><time>2026-05-02T12:37:24.622Z</time></trkpt><trkpt lat="42.0380074" lon="13.6770928"><ele>862.0</ele><time>2026-05-02T12:37:25.622Z</time></trkpt><trkpt lat="42.0378789" lon="13.6769423"><ele>862.0</ele><time>2026-05-02T12:37:26.631Z</time></trkpt><trkpt lat="42.037765" lon="13.6767975"><ele>862.0</ele><time>2026-05-02T12:37:27.628Z</time></trkpt><trkpt lat="42.0376593" lon="13.6766553"><ele>858.75</ele><time>2026-05-02T12:37:28.634Z</time></trkpt><trkpt lat="42.0375545" lon="13.6765287"><ele>855.5</ele><time>2026-05-02T12:37:29.624Z</time></trkpt><trkpt lat="42.0374606" lon="13.6764153"><ele>852.25</ele><time>2026-05-02T12:37:30.627Z</time></trkpt><trkpt lat="42.0373789" lon="13.6763"><ele>849.0</ele><time>2026-05-02T12:37:31.625Z</time></trkpt><trkpt lat="42.0372934" lon="13.6761578"><ele>845.0</ele><time>2026-05-02T12:37:32.631Z</time></trkpt><trkpt lat="42.0371876" lon="13.6760211"><ele>841.0</ele><time>2026-05-02T12:37:33.623Z</time></trkpt><trkpt lat="42.0370536" lon="13.6758876"><ele>837.0</ele><time>2026-05-02T12:37:34.636Z</time></trkpt><trkpt lat="42.036904" lon="13.6757447"><ele>837.0</ele><time>2026-05-02T12:37:35.64Z</time></trkpt><trkpt lat="42.0367675" lon="13.6756289"><ele>837.0</ele><time>2026-05-02T12:37:36.624Z</time></trkpt><trkpt lat="42.0366454" lon="13.6755248"><ele>837.0</ele><time>2026-05-02T12:37:37.623Z</time></trkpt><trkpt lat="42.036547" lon="13.6754424"><ele>837.0</ele><time>2026-05-02T12:37:38.609Z</time></trkpt><trkpt lat="42.0364574" lon="13.6753652"><ele>837.2</ele><time>2026-05-02T12:37:39.63Z</time></trkpt><trkpt lat="42.0363744" lon="13.6753034"><ele>837.4000000000001</ele><time>2026-05-02T12:37:40.622Z</time></trkpt><trkpt lat="42.0363072" lon="13.675264"><ele>837.5999999999999</ele><time>2026-05-02T12:37:41.625Z</time></trkpt><trkpt lat="42.036226" lon="13.6752433"><ele>837.8</ele><time>2026-05-02T12:37:42.627Z</time></trkpt><trkpt lat="42.0361162" lon="13.6752341"><ele>838.0</ele><time>2026-05-02T12:37:43.621Z</time></trkpt><trkpt lat="42.0359887" lon="13.6752428"><ele>836.2</ele><time>2026-05-02T12:37:44.62Z</time></trkpt><trkpt lat="42.0358611" lon="13.6752315"><ele>834.4</ele><time>2026-05-02T12:37:45.629Z</time></trkpt><trkpt lat="42.0357582" lon="13.6751961"><ele>832.6</ele><time>2026-05-02T12:37:46.632Z</time></trkpt><trkpt lat="42.0356743" lon="13.675163"><ele>830.8000000000001</ele><time>2026-05-02T12:37:47.63Z</time></trkpt><trkpt lat="42.0356121" lon="13.6751304"><ele>829.0</ele><time>2026-05-02T12:37:48.63Z</time></trkpt><trkpt lat="42.0355542" lon="13.6750846"><ele>828.4999999999999</ele><time>2026-05-02T12:37:49.633Z</time></trkpt><trkpt lat="42.0355054" lon="13.6750179"><ele>828.0</ele><time>2026-05-02T12:37:50.615Z</time></trkpt><trkpt lat="42.0354532" lon="13.6749399"><ele>827.5</ele><time>2026-05-02T12:37:51.628Z</time></trkpt><trkpt lat="42.0354117" lon="13.6748599"><ele>827.0</ele><time>2026-05-02T12:37:52.621Z</time></trkpt><trkpt lat="42.0353662" lon="13.6748001"><ele>826.4999999999999</ele><time>2026-05-02T12:37:53.619Z</time></trkpt><trkpt lat="42.0352733" lon="13.6747292"><ele>826.0</ele><time>2026-05-02T12:37:55.627Z</time></trkpt><trkpt lat="42.0351666" lon="13.6746951"><ele>826.0</ele><time>2026-05-02T12:37:57.628Z</time></trkpt><trkpt lat="42.0350554" lon="13.6746652"><ele>826.0</ele><time>2026-05-02T12:37:59.633Z</time></trkpt><trkpt lat="42.0349444" lon="13.6746245"><ele>826.0</ele><time>2026-05-02T12:38:01.629Z</time></trkpt><trkpt lat="42.0348523" lon="13.6745631"><ele>826.0</ele><time>2026-05-02T12:38:03.642Z</time></trkpt><trkpt lat="42.0347904" lon="13.6744637"><ele>826.0</ele><time>2026-05-02T12:38:05.624Z</time></trkpt><trkpt lat="42.0347326" lon="13.674303"><ele>822.8333333333333</ele><time>2026-05-02T12:38:07.628Z</time></trkpt><trkpt lat="42.034715" lon="13.6742198"><ele>819.6666666666666</ele><time>2026-05-02T12:38:08.623Z</time></trkpt><trkpt lat="42.0347095" lon="13.6741262"><ele>816.5</ele><time>2026-05-02T12:38:09.627Z</time></trkpt><trkpt lat="42.0346987" lon="13.6740207"><ele>813.3333333333333</ele><time>2026-05-02T12:38:10.653Z</time></trkpt><trkpt lat="42.0346878" lon="13.6739004"><ele>810.1666666666666</ele><time>2026-05-02T12:38:11.63Z</time></trkpt><trkpt lat="42.0346871" lon="13.6737858"><ele>807.0</ele><time>2026-05-02T12:38:12.619Z</time></trkpt><trkpt lat="42.0347054" lon="13.6736833"><ele>808.5</ele><time>2026-05-02T12:38:13.637Z</time></trkpt><trkpt lat="42.0347374" lon="13.6735855"><ele>810.0</ele><time>2026-05-02T12:38:14.626Z</time></trkpt><trkpt lat="42.0347724" lon="13.6734813"><ele>811.5</ele><time>2026-05-02T12:38:15.634Z</time></trkpt><trkpt lat="42.0348121" lon="13.6733772"><ele>813.0</ele><time>2026-05-02T12:38:16.637Z</time></trkpt><trkpt lat="42.0348427" lon="13.6732619"><ele>814.5</ele><time>2026-05-02T12:38:17.626Z</time></trkpt><trkpt lat="42.0348783" lon="13.6731417"><ele>816.0</ele><time>2026-05-02T12:38:18.632Z</time></trkpt><trkpt lat="42.0349163" lon="13.6730055"><ele>816.0</ele><time>2026-05-02T12:38:19.629Z</time></trkpt><trkpt lat="42.03496" lon="13.6728775"><ele>816.0</ele><time>2026-05-02T12:38:20.627Z</time></trkpt><trkpt lat="42.0350078" lon="13.6727392"><ele>816.0</ele><time>2026-05-02T12:38:21.624Z</time></trkpt><trkpt lat="42.0350649" lon="13.6726017"><ele>816.0</ele><time>2026-05-02T12:38:22.627Z</time></trkpt><trkpt lat="42.0351191" lon="13.6724534"><ele>819.5</ele><time>2026-05-02T12:38:23.625Z</time></trkpt><trkpt lat="42.035177" lon="13.6723123"><ele>823.0</ele><time>2026-05-02T12:38:24.626Z</time></trkpt><trkpt lat="42.0352323" lon="13.6721587"><ele>826.5</ele><time>2026-05-02T12:38:25.632Z</time></trkpt><trkpt lat="42.0352859" lon="13.6720014"><ele>830.0</ele><time>2026-05-02T12:38:26.638Z</time></trkpt><trkpt lat="42.0353294" lon="13.6718417"><ele>831.25</ele><time>2026-05-02T12:38:27.627Z</time></trkpt><trkpt lat="42.035365" lon="13.6716659"><ele>832.5</ele><time>2026-05-02T12:38:28.634Z</time></trkpt><trkpt lat="42.0354107" lon="13.6714792"><ele>833.75</ele><time>2026-05-02T12:38:29.627Z</time></trkpt><trkpt lat="42.0354625" lon="13.6712886"><ele>835.0</ele><time>2026-05-02T12:38:30.632Z</time></trkpt><trkpt lat="42.0355063" lon="13.6710898"><ele>837.0</ele><time>2026-05-02T12:38:31.631Z</time></trkpt><trkpt lat="42.0355375" lon="13.6708856"><ele>839.0</ele><time>2026-05-02T12:38:32.65Z</time></trkpt><trkpt lat="42.0355672" lon="13.6706738"><ele>841.0</ele><time>2026-05-02T12:38:33.642Z</time></trkpt><trkpt lat="42.0355883" lon="13.6704654"><ele>841.5</ele><time>2026-05-02T12:38:34.637Z</time></trkpt><trkpt lat="42.0356057" lon="13.6702714"><ele>842.0</ele><time>2026-05-02T12:38:35.629Z</time></trkpt><trkpt lat="42.0356112" lon="13.6701001"><ele>842.5</ele><time>2026-05-02T12:38:36.624Z</time></trkpt><trkpt lat="42.0356069" lon="13.6699194"><ele>843.0</ele><time>2026-05-02T12:38:37.63Z</time></trkpt><trkpt lat="42.0355849" lon="13.6697502"><ele>843.0</ele><time>2026-05-02T12:38:38.617Z</time></trkpt><trkpt lat="42.0355671" lon="13.6695928"><ele>843.0</ele><time>2026-05-02T12:38:39.637Z</time></trkpt><trkpt lat="42.0355666" lon="13.669455"><ele>843.0</ele><time>2026-05-02T12:38:40.623Z</time></trkpt><trkpt lat="42.0355817" lon="13.6693488"><ele>843.0</ele><time>2026-05-02T12:38:41.629Z</time></trkpt><trkpt lat="42.0356177" lon="13.6692676"><ele>843.0</ele><time>2026-05-02T12:38:42.647Z</time></trkpt><trkpt lat="42.035671" lon="13.6691934"><ele>843.0</ele><time>2026-05-02T12:38:43.628Z</time></trkpt><trkpt lat="42.0357385" lon="13.6691111"><ele>842.5999999999999</ele><time>2026-05-02T12:38:44.63Z</time></trkpt><trkpt lat="42.0358192" lon="13.6690264"><ele>842.1999999999999</ele><time>2026-05-02T12:38:45.628Z</time></trkpt><trkpt lat="42.0359036" lon="13.6689355"><ele>841.8</ele><time>2026-05-02T12:38:46.621Z</time></trkpt><trkpt lat="42.0359949" lon="13.6688474"><ele>841.4</ele><time>2026-05-02T12:38:47.637Z</time></trkpt><trkpt lat="42.0360832" lon="13.6687736"><ele>841.0</ele><time>2026-05-02T12:38:48.625Z</time></trkpt><trkpt lat="42.0361681" lon="13.6687112"><ele>840.9999999999999</ele><time>2026-05-02T12:38:49.639Z</time></trkpt><trkpt lat="42.0362428" lon="13.6686608"><ele>841.0</ele><time>2026-05-02T12:38:50.642Z</time></trkpt><trkpt lat="42.0363208" lon="13.6685809"><ele>841.0</ele><time>2026-05-02T12:38:52.641Z</time></trkpt><trkpt lat="42.0363835" lon="13.6685702"><ele>841.0</ele><time>2026-05-02T12:38:54.649Z</time></trkpt><trkpt lat="42.0364561" lon="13.6685833"><ele>840.9999999999999</ele><time>2026-05-02T12:38:56.629Z</time></trkpt><trkpt lat="42.0365675" lon="13.6686267"><ele>841.0</ele><time>2026-05-02T12:38:58.627Z</time></trkpt><trkpt lat="42.0366534" lon="13.6686547"><ele>842.8</ele><time>2026-05-02T12:38:59.629Z</time></trkpt><trkpt lat="42.0367499" lon="13.6686863"><ele>844.5999999999999</ele><time>2026-05-02T12:39:00.628Z</time></trkpt><trkpt lat="42.036847" lon="13.6687215"><ele>846.4</ele><time>2026-05-02T12:39:01.637Z</time></trkpt><trkpt lat="42.0369398" lon="13.6687595"><ele>848.2</ele><time>2026-05-02T12:39:02.642Z</time></trkpt><trkpt lat="42.0370378" lon="13.6687954"><ele>850.0</ele><time>2026-05-02T12:39:03.636Z</time></trkpt><trkpt lat="42.0371285" lon="13.6688294"><ele>849.9999999999999</ele><time>2026-05-02T12:39:04.631Z</time></trkpt><trkpt lat="42.0371946" lon="13.6688593"><ele>850.0</ele><time>2026-05-02T12:39:05.631Z</time></trkpt><trkpt lat="42.0372779" lon="13.6688898"><ele>850.0</ele><time>2026-05-02T12:39:07.637Z</time></trkpt><trkpt lat="42.0373103" lon="13.6688097"><ele>850.0</ele><time>2026-05-02T12:39:10.628Z</time></trkpt><trkpt lat="42.0372406" lon="13.6687671"><ele>849.9999999999999</ele><time>2026-05-02T12:45:25.634Z</time></trkpt><trkpt lat="42.0372333" lon="13.6686742"><ele>850.0</ele><time>2026-05-02T12:45:28.647Z</time></trkpt><trkpt lat="42.0372798" lon="13.6685493"><ele>850.25</ele><time>2026-05-02T12:45:30.626Z</time></trkpt><trkpt lat="42.03732" lon="13.6683687"><ele>850.5</ele><time>2026-05-02T12:45:32.638Z</time></trkpt><trkpt lat="42.0373372" lon="13.6682532"><ele>850.75</ele><time>2026-05-02T12:45:33.659Z</time></trkpt><trkpt lat="42.0373592" lon="13.6681186"><ele>851.0</ele><time>2026-05-02T12:45:34.632Z</time></trkpt><trkpt lat="42.0373843" lon="13.6679608"><ele>851.0</ele><time>2026-05-02T12:45:35.642Z</time></trkpt><trkpt lat="42.0374128" lon="13.6678095"><ele>851.0</ele><time>2026-05-02T12:45:36.657Z</time></trkpt><trkpt lat="42.0374385" lon="13.6676563"><ele>851.0</ele><time>2026-05-02T12:45:37.637Z</time></trkpt><trkpt lat="42.0374591" lon="13.6674962"><ele>851.0</ele><time>2026-05-02T12:45:38.641Z</time></trkpt><trkpt lat="42.0374762" lon="13.66734"><ele>851.4</ele><time>2026-05-02T12:45:39.628Z</time></trkpt><trkpt lat="42.0374934" lon="13.6671875"><ele>851.8</ele><time>2026-05-02T12:45:40.646Z</time></trkpt><trkpt lat="42.0375125" lon="13.6670438"><ele>852.1999999999999</ele><time>2026-05-02T12:45:41.628Z</time></trkpt><trkpt lat="42.03755" lon="13.6669118"><ele>852.5999999999999</ele><time>2026-05-02T12:45:42.628Z</time></trkpt><trkpt lat="42.0376143" lon="13.6668015"><ele>853.0</ele><time>2026-05-02T12:45:43.626Z</time></trkpt><trkpt lat="42.0376888" lon="13.6666929"><ele>853.0</ele><time>2026-05-02T12:45:44.634Z</time></trkpt><trkpt lat="42.0377576" lon="13.666568"><ele>853.0</ele><time>2026-05-02T12:45:45.634Z</time></trkpt><trkpt lat="42.0378215" lon="13.6664189"><ele>853.0</ele><time>2026-05-02T12:45:46.645Z</time></trkpt><trkpt lat="42.0378815" lon="13.6662403"><ele>853.0</ele><time>2026-05-02T12:45:47.642Z</time></trkpt><trkpt lat="42.0379313" lon="13.6660395"><ele>853.0</ele><time>2026-05-02T12:45:48.633Z</time></trkpt><trkpt lat="42.0379723" lon="13.6658134"><ele>853.0</ele><time>2026-05-02T12:45:49.634Z</time></trkpt><trkpt lat="42.0380042" lon="13.665573"><ele>853.0</ele><time>2026-05-02T12:45:50.643Z</time></trkpt><trkpt lat="42.038037" lon="13.6653166"><ele>853.3333333333333</ele><time>2026-05-02T12:45:51.625Z</time></trkpt><trkpt lat="42.0380818" lon="13.6650587"><ele>853.6666666666667</ele><time>2026-05-02T12:45:52.64Z</time></trkpt><trkpt lat="42.0381462" lon="13.6647913"><ele>854.0</ele><time>2026-05-02T12:45:53.637Z</time></trkpt><trkpt lat="42.0382119" lon="13.664522"><ele>854.6666666666667</ele><time>2026-05-02T12:45:54.652Z</time></trkpt><trkpt lat="42.038273" lon="13.6642455"><ele>855.3333333333333</ele><time>2026-05-02T12:45:55.647Z</time></trkpt><trkpt lat="42.0383222" lon="13.6639808"><ele>856.0</ele><time>2026-05-02T12:45:56.635Z</time></trkpt><trkpt lat="42.0383624" lon="13.6637235"><ele>856.3333333333333</ele><time>2026-05-02T12:45:57.629Z</time></trkpt><trkpt lat="42.0384009" lon="13.6634901"><ele>856.6666666666667</ele><time>2026-05-02T12:45:58.626Z</time></trkpt><trkpt lat="42.0384393" lon="13.6632576"><ele>857.0</ele><time>2026-05-02T12:45:59.628Z</time></trkpt><trkpt lat="42.0384959" lon="13.6630289"><ele>857.0</ele><time>2026-05-02T12:46:00.63Z</time></trkpt><trkpt lat="42.0385713" lon="13.6627876"><ele>857.0</ele><time>2026-05-02T12:46:01.656Z</time></trkpt><trkpt lat="42.0386571" lon="13.6625413"><ele>857.0</ele><time>2026-05-02T12:46:02.633Z</time></trkpt><trkpt lat="42.0387291" lon="13.6622922"><ele>858.0</ele><time>2026-05-02T12:46:03.633Z</time></trkpt><trkpt lat="42.0387883" lon="13.6620492"><ele>859.0</ele><time>2026-05-02T12:46:04.633Z</time></trkpt><trkpt lat="42.0388546" lon="13.6618256"><ele>860.0</ele><time>2026-05-02T12:46:05.628Z</time></trkpt><trkpt lat="42.0389346" lon="13.6615985"><ele>859.6666666666667</ele><time>2026-05-02T12:46:06.641Z</time></trkpt><trkpt lat="42.0390185" lon="13.6613609"><ele>859.3333333333333</ele><time>2026-05-02T12:46:07.643Z</time></trkpt><trkpt lat="42.03911" lon="13.6611103"><ele>859.0</ele><time>2026-05-02T12:46:08.648Z</time></trkpt><trkpt lat="42.0391948" lon="13.6608597"><ele>859.0</ele><time>2026-05-02T12:46:09.642Z</time></trkpt><trkpt lat="42.0392793" lon="13.6605959"><ele>859.0</ele><time>2026-05-02T12:46:10.647Z</time></trkpt><trkpt lat="42.0393543" lon="13.6603153"><ele>859.0</ele><time>2026-05-02T12:46:11.64Z</time></trkpt><trkpt lat="42.0394304" lon="13.6600418"><ele>859.0</ele><time>2026-05-02T12:46:12.628Z</time></trkpt><trkpt lat="42.0395193" lon="13.6597844"><ele>859.0</ele><time>2026-05-02T12:46:13.643Z</time></trkpt><trkpt lat="42.0396108" lon="13.6595424"><ele>859.0</ele><time>2026-05-02T12:46:14.645Z</time></trkpt><trkpt lat="42.039701" lon="13.659322"><ele>859.3333333333333</ele><time>2026-05-02T12:46:15.636Z</time></trkpt><trkpt lat="42.0397909" lon="13.6591201"><ele>859.6666666666667</ele><time>2026-05-02T12:46:16.635Z</time></trkpt><trkpt lat="42.0398785" lon="13.6589398"><ele>860.0</ele><time>2026-05-02T12:46:17.641Z</time></trkpt><trkpt lat="42.0399637" lon="13.6587912"><ele>859.5</ele><time>2026-05-02T12:46:18.637Z</time></trkpt><trkpt lat="42.0400445" lon="13.6586967"><ele>859.0</ele><time>2026-05-02T12:46:19.634Z</time></trkpt><trkpt lat="42.040128" lon="13.6586046"><ele>858.5</ele><time>2026-05-02T12:46:20.648Z</time></trkpt><trkpt lat="42.040221" lon="13.6585172"><ele>858.0</ele><time>2026-05-02T12:46:21.637Z</time></trkpt><trkpt lat="42.0403388" lon="13.6584252"><ele>857.6666666666667</ele><time>2026-05-02T12:46:22.63Z</time></trkpt><trkpt lat="42.0404853" lon="13.6583273"><ele>857.3333333333334</ele><time>2026-05-02T12:46:23.641Z</time></trkpt><trkpt lat="42.0406453" lon="13.6582195"><ele>857.0</ele><time>2026-05-02T12:46:24.643Z</time></trkpt><trkpt lat="42.0407981" lon="13.6581082"><ele>857.3333333333334</ele><time>2026-05-02T12:46:25.643Z</time></trkpt><trkpt lat="42.0409573" lon="13.657994"><ele>857.6666666666667</ele><time>2026-05-02T12:46:26.639Z</time></trkpt><trkpt lat="42.0411103" lon="13.657884"><ele>858.0</ele><time>2026-05-02T12:46:27.635Z</time></trkpt><trkpt lat="42.0412598" lon="13.6577842"><ele>858.0</ele><time>2026-05-02T12:46:28.642Z</time></trkpt><trkpt lat="42.0414062" lon="13.6576825"><ele>858.0</ele><time>2026-05-02T12:46:29.629Z</time></trkpt><trkpt lat="42.0415482" lon="13.6575899"><ele>858.0</ele><time>2026-05-02T12:46:30.651Z</time></trkpt><trkpt lat="42.0416924" lon="13.6575039"><ele>858.5</ele><time>2026-05-02T12:46:31.645Z</time></trkpt><trkpt lat="42.0418421" lon="13.6574272"><ele>859.0</ele><time>2026-05-02T12:46:32.627Z</time></trkpt><trkpt lat="42.0419888" lon="13.6573505"><ele>859.5</ele><time>2026-05-02T12:46:33.632Z</time></trkpt><trkpt lat="42.0421119" lon="13.6572917"><ele>860.0</ele><time>2026-05-02T12:46:34.634Z</time></trkpt><trkpt lat="42.0422074" lon="13.6572438"><ele>860.0000000000001</ele><time>2026-05-02T12:46:35.645Z</time></trkpt><trkpt lat="42.0422866" lon="13.6572101"><ele>860.0</ele><time>2026-05-02T12:46:36.645Z</time></trkpt><trkpt lat="42.0423509" lon="13.6572034"><ele>860.0</ele><time>2026-05-02T12:46:37.649Z</time></trkpt><trkpt lat="42.0424523" lon="13.657267"><ele>860.0</ele><time>2026-05-02T12:46:39.643Z</time></trkpt><trkpt lat="42.0424997" lon="13.6573462"><ele>860.0000000000001</ele><time>2026-05-02T12:46:40.645Z</time></trkpt><trkpt lat="42.0425257" lon="13.6574278"><ele>860.0</ele><time>2026-05-02T12:46:41.627Z</time></trkpt><trkpt lat="42.0425473" lon="13.6575121"><ele>859.8</ele><time>2026-05-02T12:46:42.636Z</time></trkpt><trkpt lat="42.0425613" lon="13.6576151"><ele>859.6</ele><time>2026-05-02T12:46:43.647Z</time></trkpt><trkpt lat="42.0425872" lon="13.6577381"><ele>859.4000000000001</ele><time>2026-05-02T12:46:44.635Z</time></trkpt><trkpt lat="42.0426159" lon="13.6578868"><ele>859.2</ele><time>2026-05-02T12:46:45.643Z</time></trkpt><trkpt lat="42.0426462" lon="13.6580519"><ele>859.0</ele><time>2026-05-02T12:46:46.636Z</time></trkpt><trkpt lat="42.0426782" lon="13.6582052"><ele>858.9999999999999</ele><time>2026-05-02T12:46:47.639Z</time></trkpt><trkpt lat="42.0427116" lon="13.6583281"><ele>859.0</ele><time>2026-05-02T12:46:48.641Z</time></trkpt><trkpt lat="42.0427314" lon="13.658422"><ele>859.0</ele><time>2026-05-02T12:46:49.629Z</time></trkpt><trkpt lat="42.0427429" lon="13.658537"><ele>859.0</ele><time>2026-05-02T12:46:51.64Z</time></trkpt><trkpt lat="42.0428081" lon="13.6585579"><ele>858.9999999999999</ele><time>2026-05-02T12:46:54.634Z</time></trkpt><trkpt lat="42.0428713" lon="13.6584833"><ele>859.0</ele><time>2026-05-02T12:46:56.632Z</time></trkpt><trkpt lat="42.0429281" lon="13.6584187"><ele>859.0</ele><time>2026-05-02T12:46:57.633Z</time></trkpt><trkpt lat="42.04299" lon="13.6583173"><ele>859.0</ele><time>2026-05-02T12:46:58.644Z</time></trkpt><trkpt lat="42.0430637" lon="13.6582025"><ele>859.0</ele><time>2026-05-02T12:46:59.638Z</time></trkpt><trkpt lat="42.0431498" lon="13.6580798"><ele>859.0</ele><time>2026-05-02T12:47:00.642Z</time></trkpt><trkpt lat="42.0432315" lon="13.6579704"><ele>859.25</ele><time>2026-05-02T12:47:01.637Z</time></trkpt><trkpt lat="42.043325" lon="13.657867"><ele>859.5</ele><time>2026-05-02T12:47:02.631Z</time></trkpt><trkpt lat="42.0434297" lon="13.6577655"><ele>859.75</ele><time>2026-05-02T12:47:03.646Z</time></trkpt><trkpt lat="42.0435409" lon="13.6576707"><ele>860.0</ele><time>2026-05-02T12:47:04.646Z</time></trkpt><trkpt lat="42.0436662" lon="13.6575944"><ele>860.25</ele><time>2026-05-02T12:47:05.643Z</time></trkpt><trkpt lat="42.0438159" lon="13.6575437"><ele>860.5</ele><time>2026-05-02T12:47:06.66Z</time></trkpt><trkpt lat="42.0439522" lon="13.6575021"><ele>860.75</ele><time>2026-05-02T12:47:07.649Z</time></trkpt><trkpt lat="42.04406" lon="13.6575034"><ele>861.0</ele><time>2026-05-02T12:47:08.645Z</time></trkpt><trkpt lat="42.0441686" lon="13.6575295"><ele>861.0</ele><time>2026-05-02T12:47:09.64Z</time></trkpt><trkpt lat="42.044286" lon="13.6575351"><ele>861.0</ele><time>2026-05-02T12:47:10.635Z</time></trkpt><trkpt lat="42.0444386" lon="13.6574838"><ele>861.0</ele><time>2026-05-02T12:47:11.646Z</time></trkpt><trkpt lat="42.0445911" lon="13.657419"><ele>861.0</ele><time>2026-05-02T12:47:12.632Z</time></trkpt><trkpt lat="42.044711" lon="13.657362"><ele>861.0</ele><time>2026-05-02T12:47:13.626Z</time></trkpt><trkpt lat="42.0448206" lon="13.6573132"><ele>861.0</ele><time>2026-05-02T12:47:14.637Z</time></trkpt><trkpt lat="42.0449461" lon="13.6572844"><ele>861.0</ele><time>2026-05-02T12:47:15.631Z</time></trkpt><trkpt lat="42.0450653" lon="13.657257"><ele>861.0</ele><time>2026-05-02T12:47:16.65Z</time></trkpt><trkpt lat="42.0451735" lon="13.657227"><ele>861.6666666666667</ele><time>2026-05-02T12:47:17.642Z</time></trkpt><trkpt lat="42.0452994" lon="13.6572146"><ele>862.3333333333334</ele><time>2026-05-02T12:47:18.645Z</time></trkpt><trkpt lat="42.0454515" lon="13.6571854"><ele>863.0</ele><time>2026-05-02T12:47:19.64Z</time></trkpt><trkpt lat="42.045643" lon="13.6571053"><ele>863.0</ele><time>2026-05-02T12:47:20.637Z</time></trkpt><trkpt lat="42.0458201" lon="13.6570197"><ele>863.0</ele><time>2026-05-02T12:47:21.642Z</time></trkpt><trkpt lat="42.0459621" lon="13.6569322"><ele>863.0</ele><time>2026-05-02T12:47:22.638Z</time></trkpt><trkpt lat="42.0460853" lon="13.6568314"><ele>861.3333333333334</ele><time>2026-05-02T12:47:23.632Z</time></trkpt><trkpt lat="42.0462027" lon="13.6567288"><ele>859.6666666666667</ele><time>2026-05-02T12:47:24.647Z</time></trkpt><trkpt lat="42.0463371" lon="13.6566273"><ele>858.0</ele><time>2026-05-02T12:47:25.643Z</time></trkpt><trkpt lat="42.0464756" lon="13.6565094"><ele>858.0</ele><time>2026-05-02T12:47:26.638Z</time></trkpt><trkpt lat="42.0466076" lon="13.6563875"><ele>858.0</ele><time>2026-05-02T12:47:27.637Z</time></trkpt><trkpt lat="42.0467308" lon="13.6562839"><ele>858.0</ele><time>2026-05-02T12:47:28.64Z</time></trkpt><trkpt lat="42.0468583" lon="13.6562116"><ele>858.0</ele><time>2026-05-02T12:47:29.643Z</time></trkpt><trkpt lat="42.0470052" lon="13.6561197"><ele>857.6666666666667</ele><time>2026-05-02T12:47:30.639Z</time></trkpt><trkpt lat="42.0471748" lon="13.6560115"><ele>857.3333333333334</ele><time>2026-05-02T12:47:31.637Z</time></trkpt><trkpt lat="42.0473439" lon="13.6558709"><ele>857.0</ele><time>2026-05-02T12:47:32.63Z</time></trkpt><trkpt lat="42.0475201" lon="13.6557155"><ele>857.0</ele><time>2026-05-02T12:47:33.635Z</time></trkpt><trkpt lat="42.0476672" lon="13.655558"><ele>857.0</ele><time>2026-05-02T12:47:34.64Z</time></trkpt><trkpt lat="42.0477841" lon="13.6554224"><ele>857.0</ele><time>2026-05-02T12:47:35.633Z</time></trkpt><trkpt lat="42.0479195" lon="13.6552465"><ele>857.0</ele><time>2026-05-02T12:47:36.628Z</time></trkpt><trkpt lat="42.0480684" lon="13.6550209"><ele>857.0</ele><time>2026-05-02T12:47:37.643Z</time></trkpt><trkpt lat="42.0482002" lon="13.6548279"><ele>857.0</ele><time>2026-05-02T12:47:38.625Z</time></trkpt><trkpt lat="42.0482966" lon="13.6546758"><ele>857.5</ele><time>2026-05-02T12:47:39.637Z</time></trkpt><trkpt lat="42.0483833" lon="13.654526"><ele>858.0</ele><time>2026-05-02T12:47:40.633Z</time></trkpt><trkpt lat="42.0484684" lon="13.6543866"><ele>858.5</ele><time>2026-05-02T12:47:41.634Z</time></trkpt><trkpt lat="42.0485734" lon="13.6542678"><ele>859.0</ele><time>2026-05-02T12:47:42.637Z</time></trkpt><trkpt lat="42.0486948" lon="13.6541406"><ele>859.0</ele><time>2026-05-02T12:47:43.63Z</time></trkpt><trkpt lat="42.0488068" lon="13.6540195"><ele>859.0</ele><time>2026-05-02T12:47:44.643Z</time></trkpt><trkpt lat="42.0488912" lon="13.6539126"><ele>859.0</ele><time>2026-05-02T12:47:45.634Z</time></trkpt><trkpt lat="42.0489741" lon="13.6538036"><ele>859.0</ele><time>2026-05-02T12:47:46.631Z</time></trkpt><trkpt lat="42.0490972" lon="13.6536883"><ele>858.3333333333333</ele><time>2026-05-02T12:47:47.646Z</time></trkpt><trkpt lat="42.0492287" lon="13.6535683"><ele>857.6666666666667</ele><time>2026-05-02T12:47:48.635Z</time></trkpt><trkpt lat="42.0493388" lon="13.6534255"><ele>857.0</ele><time>2026-05-02T12:47:49.63Z</time></trkpt><trkpt lat="42.049442" lon="13.6532745"><ele>857.0</ele><time>2026-05-02T12:47:50.642Z</time></trkpt><trkpt lat="42.0495448" lon="13.6531414"><ele>857.0</ele><time>2026-05-02T12:47:51.64Z</time></trkpt><trkpt lat="42.0496361" lon="13.6530198"><ele>857.0</ele><time>2026-05-02T12:47:52.642Z</time></trkpt><trkpt lat="42.0496935" lon="13.652907"><ele>857.0</ele><time>2026-05-02T12:47:53.64Z</time></trkpt><trkpt lat="42.0497381" lon="13.6528011"><ele>857.2</ele><time>2026-05-02T12:47:54.642Z</time></trkpt><trkpt lat="42.0497938" lon="13.6526875"><ele>857.4000000000001</ele><time>2026-05-02T12:47:55.636Z</time></trkpt><trkpt lat="42.0498507" lon="13.6526079"><ele>857.5999999999999</ele><time>2026-05-02T12:47:56.633Z</time></trkpt><trkpt lat="42.0499523" lon="13.6524824"><ele>857.8</ele><time>2026-05-02T12:47:58.643Z</time></trkpt><trkpt lat="42.0500149" lon="13.6523959"><ele>858.0</ele><time>2026-05-02T12:47:59.641Z</time></trkpt><trkpt lat="42.050065" lon="13.6522938"><ele>858.0</ele><time>2026-05-02T12:48:00.649Z</time></trkpt><trkpt lat="42.0501177" lon="13.6522037"><ele>858.0</ele><time>2026-05-02T12:48:01.635Z</time></trkpt><trkpt lat="42.0501655" lon="13.6521172"><ele>858.0</ele><time>2026-05-02T12:48:02.64Z</time></trkpt><trkpt lat="42.0502275" lon="13.6520513"><ele>858.0</ele><time>2026-05-02T12:48:03.644Z</time></trkpt><trkpt lat="42.0503209" lon="13.6519712"><ele>858.0</ele><time>2026-05-02T12:48:04.637Z</time></trkpt><trkpt lat="42.0504157" lon="13.6518924"><ele>857.25</ele><time>2026-05-02T12:48:05.639Z</time></trkpt><trkpt lat="42.0505029" lon="13.6518391"><ele>856.5</ele><time>2026-05-02T12:48:06.641Z</time></trkpt><trkpt lat="42.050621" lon="13.6517772"><ele>855.75</ele><time>2026-05-02T12:48:07.644Z</time></trkpt><trkpt lat="42.0507407" lon="13.6516852"><ele>855.0</ele><time>2026-05-02T12:48:08.628Z</time></trkpt><trkpt lat="42.0508206" lon="13.6516208"><ele>855.6</ele><time>2026-05-02T12:48:09.633Z</time></trkpt><trkpt lat="42.050868" lon="13.6515456"><ele>856.2</ele><time>2026-05-02T12:48:10.63Z</time></trkpt><trkpt lat="42.0508904" lon="13.65142"><ele>856.8</ele><time>2026-05-02T12:48:11.632Z</time></trkpt><trkpt lat="42.0509238" lon="13.6512874"><ele>857.4</ele><time>2026-05-02T12:48:12.659Z</time></trkpt><trkpt lat="42.0509445" lon="13.6511279"><ele>858.0</ele><time>2026-05-02T12:48:13.633Z</time></trkpt><trkpt lat="42.0509398" lon="13.6509523"><ele>858.0</ele><time>2026-05-02T12:48:14.629Z</time></trkpt><trkpt lat="42.050904" lon="13.65076"><ele>858.0</ele><time>2026-05-02T12:48:15.623Z</time></trkpt><trkpt lat="42.0508686" lon="13.650583"><ele>858.0</ele><time>2026-05-02T12:48:16.625Z</time></trkpt><trkpt lat="42.0508461" lon="13.6504529"><ele>858.0</ele><time>2026-05-02T12:48:17.628Z</time></trkpt><trkpt lat="42.0508538" lon="13.6503549"><ele>856.75</ele><time>2026-05-02T12:48:18.642Z</time></trkpt><trkpt lat="42.0508973" lon="13.6502727"><ele>855.5</ele><time>2026-05-02T12:48:19.638Z</time></trkpt><trkpt lat="42.0509616" lon="13.650164"><ele>854.25</ele><time>2026-05-02T12:48:20.64Z</time></trkpt><trkpt lat="42.051049" lon="13.6500321"><ele>853.0</ele><time>2026-05-02T12:48:21.644Z</time></trkpt><trkpt lat="42.05116" lon="13.6498817"><ele>853.0</ele><time>2026-05-02T12:48:22.624Z</time></trkpt><trkpt lat="42.051283" lon="13.6496998"><ele>853.0</ele><time>2026-05-02T12:48:23.638Z</time></trkpt><trkpt lat="42.0514004" lon="13.6495176"><ele>853.0</ele><time>2026-05-02T12:48:24.628Z</time></trkpt><trkpt lat="42.0514896" lon="13.6493345"><ele>852.75</ele><time>2026-05-02T12:48:25.642Z</time></trkpt><trkpt lat="42.0515599" lon="13.6491381"><ele>852.5</ele><time>2026-05-02T12:48:26.627Z</time></trkpt><trkpt lat="42.0516146" lon="13.6489441"><ele>852.25</ele><time>2026-05-02T12:48:27.633Z</time></trkpt><trkpt lat="42.0516688" lon="13.6487947"><ele>852.0</ele><time>2026-05-02T12:48:28.646Z</time></trkpt><trkpt lat="42.0517434" lon="13.6486686"><ele>852.0</ele><time>2026-05-02T12:48:29.634Z</time></trkpt><trkpt lat="42.0518447" lon="13.648517"><ele>852.0</ele><time>2026-05-02T12:48:30.646Z</time></trkpt><trkpt lat="42.0519662" lon="13.6483685"><ele>852.0</ele><time>2026-05-02T12:48:31.637Z</time></trkpt><trkpt lat="42.0520821" lon="13.6482242"><ele>852.0</ele><time>2026-05-02T12:48:32.635Z</time></trkpt><trkpt lat="42.0522091" lon="13.6480779"><ele>852.0</ele><time>2026-05-02T12:48:33.636Z</time></trkpt><trkpt lat="42.0523384" lon="13.647927"><ele>852.0</ele><time>2026-05-02T12:48:34.639Z</time></trkpt><trkpt lat="42.052473" lon="13.6477764"><ele>852.3333333333333</ele><time>2026-05-02T12:48:35.633Z</time></trkpt><trkpt lat="42.0526059" lon="13.6476165"><ele>852.6666666666666</ele><time>2026-05-02T12:48:36.629Z</time></trkpt><trkpt lat="42.0527368" lon="13.6474539"><ele>853.0</ele><time>2026-05-02T12:48:37.643Z</time></trkpt><trkpt lat="42.0528708" lon="13.6472861"><ele>853.0</ele><time>2026-05-02T12:48:38.64Z</time></trkpt><trkpt lat="42.053013" lon="13.6471341"><ele>853.0</ele><time>2026-05-02T12:48:39.64Z</time></trkpt><trkpt lat="42.0531703" lon="13.6469878"><ele>853.0</ele><time>2026-05-02T12:48:40.632Z</time></trkpt><trkpt lat="42.0533263" lon="13.6468494"><ele>853.6666666666666</ele><time>2026-05-02T12:48:41.641Z</time></trkpt><trkpt lat="42.0534827" lon="13.6466864"><ele>854.3333333333333</ele><time>2026-05-02T12:48:42.632Z</time></trkpt><trkpt lat="42.0536471" lon="13.646513"><ele>855.0</ele><time>2026-05-02T12:48:43.642Z</time></trkpt><trkpt lat="42.0538001" lon="13.6463433"><ele>855.0</ele><time>2026-05-02T12:48:44.625Z</time></trkpt><trkpt lat="42.0539355" lon="13.6461785"><ele>855.0</ele><time>2026-05-02T12:48:45.635Z</time></trkpt><trkpt lat="42.054051" lon="13.6460327"><ele>855.0</ele><time>2026-05-02T12:48:46.663Z</time></trkpt><trkpt lat="42.0541723" lon="13.6458946"><ele>854.3333333333333</ele><time>2026-05-02T12:48:47.639Z</time></trkpt><trkpt lat="42.0542998" lon="13.6457555"><ele>853.6666666666666</ele><time>2026-05-02T12:48:48.638Z</time></trkpt><trkpt lat="42.0544354" lon="13.645607"><ele>853.0</ele><time>2026-05-02T12:48:49.641Z</time></trkpt><trkpt lat="42.0545771" lon="13.6454461"><ele>851.6666666666666</ele><time>2026-05-02T12:48:50.65Z</time></trkpt><trkpt lat="42.0547124" lon="13.6452542"><ele>850.3333333333333</ele><time>2026-05-02T12:48:51.642Z</time></trkpt><trkpt lat="42.0548226" lon="13.6450809"><ele>849.0</ele><time>2026-05-02T12:48:52.646Z</time></trkpt><trkpt lat="42.0549039" lon="13.6449109"><ele>849.6666666666667</ele><time>2026-05-02T12:48:53.641Z</time></trkpt><trkpt lat="42.054972" lon="13.6447265"><ele>850.3333333333334</ele><time>2026-05-02T12:48:54.642Z</time></trkpt><trkpt lat="42.0550222" lon="13.6445239"><ele>851.0</ele><time>2026-05-02T12:48:55.65Z</time></trkpt><trkpt lat="42.055055" lon="13.6443295"><ele>851.0</ele><time>2026-05-02T12:48:56.644Z</time></trkpt><trkpt lat="42.0550822" lon="13.6441637"><ele>851.0</ele><time>2026-05-02T12:48:57.62Z</time></trkpt><trkpt lat="42.0551275" lon="13.6439862"><ele>851.0</ele><time>2026-05-02T12:48:58.64Z</time></trkpt><trkpt lat="42.0551877" lon="13.643766"><ele>851.0</ele><time>2026-05-02T12:48:59.634Z</time></trkpt><trkpt lat="42.0552379" lon="13.6435141"><ele>851.3333333333334</ele><time>2026-05-02T12:49:00.642Z</time></trkpt><trkpt lat="42.0552767" lon="13.6432723"><ele>851.6666666666667</ele><time>2026-05-02T12:49:01.628Z</time></trkpt><trkpt lat="42.0553172" lon="13.6430617"><ele>852.0</ele><time>2026-05-02T12:49:02.635Z</time></trkpt><trkpt lat="42.0553783" lon="13.6428481"><ele>851.75</ele><time>2026-05-02T12:49:03.632Z</time></trkpt><trkpt lat="42.0554532" lon="13.6426333"><ele>851.5</ele><time>2026-05-02T12:49:04.635Z</time></trkpt><trkpt lat="42.0555124" lon="13.6424791"><ele>851.25</ele><time>2026-05-02T12:49:05.642Z</time></trkpt><trkpt lat="42.0555541" lon="13.6423782"><ele>851.0</ele><time>2026-05-02T12:49:06.666Z</time></trkpt><trkpt lat="42.0556179" lon="13.642296"><ele>851.0</ele><time>2026-05-02T12:49:07.627Z</time></trkpt><trkpt lat="42.0557217" lon="13.6422152"><ele>851.0</ele><time>2026-05-02T12:49:08.645Z</time></trkpt><trkpt lat="42.0558603" lon="13.6421695"><ele>851.0</ele><time>2026-05-02T12:49:09.634Z</time></trkpt><trkpt lat="42.0560355" lon="13.642102"><ele>851.0</ele><time>2026-05-02T12:49:10.629Z</time></trkpt><trkpt lat="42.0562325" lon="13.642002"><ele>851.6666666666667</ele><time>2026-05-02T12:49:11.644Z</time></trkpt><trkpt lat="42.0564236" lon="13.6419085"><ele>852.3333333333333</ele><time>2026-05-02T12:49:12.642Z</time></trkpt><trkpt lat="42.0566091" lon="13.6418216"><ele>853.0</ele><time>2026-05-02T12:49:13.656Z</time></trkpt><trkpt lat="42.0567796" lon="13.6417568"><ele>853.0</ele><time>2026-05-02T12:49:14.622Z</time></trkpt><trkpt lat="42.0569236" lon="13.6417218"><ele>853.0</ele><time>2026-05-02T12:49:15.632Z</time></trkpt><trkpt lat="42.0570525" lon="13.6417147"><ele>853.0</ele><time>2026-05-02T12:49:16.637Z</time></trkpt><trkpt lat="42.0571827" lon="13.6417328"><ele>853.0</ele><time>2026-05-02T12:49:17.641Z</time></trkpt><trkpt lat="42.057332" lon="13.6417583"><ele>853.5</ele><time>2026-05-02T12:49:18.635Z</time></trkpt><trkpt lat="42.0574801" lon="13.6417609"><ele>854.0</ele><time>2026-05-02T12:49:19.629Z</time></trkpt><trkpt lat="42.0576206" lon="13.641733"><ele>854.5</ele><time>2026-05-02T12:49:20.636Z</time></trkpt><trkpt lat="42.057768" lon="13.6416718"><ele>855.0</ele><time>2026-05-02T12:49:21.631Z</time></trkpt><trkpt lat="42.0579486" lon="13.6415819"><ele>855.0</ele><time>2026-05-02T12:49:22.647Z</time></trkpt><trkpt lat="42.0581265" lon="13.6414923"><ele>855.0</ele><time>2026-05-02T12:49:23.634Z</time></trkpt><trkpt lat="42.0583026" lon="13.6414001"><ele>855.0</ele><time>2026-05-02T12:49:24.643Z</time></trkpt><trkpt lat="42.0584793" lon="13.6413135"><ele>855.6666666666667</ele><time>2026-05-02T12:49:25.636Z</time></trkpt><trkpt lat="42.0586515" lon="13.64125"><ele>856.3333333333334</ele><time>2026-05-02T12:49:26.652Z</time></trkpt><trkpt lat="42.058825" lon="13.6411976"><ele>857.0</ele><time>2026-05-02T12:49:27.632Z</time></trkpt><trkpt lat="42.0589822" lon="13.6411696"><ele>857.6666666666667</ele><time>2026-05-02T12:49:28.63Z</time></trkpt><trkpt lat="42.0591597" lon="13.6411628"><ele>858.3333333333333</ele><time>2026-05-02T12:49:29.635Z</time></trkpt><trkpt lat="42.0593584" lon="13.6411598"><ele>859.0</ele><time>2026-05-02T12:49:30.63Z</time></trkpt><trkpt lat="42.0595669" lon="13.641152"><ele>859.0</ele><time>2026-05-02T12:49:31.629Z</time></trkpt><trkpt lat="42.0597719" lon="13.6411437"><ele>859.0</ele><time>2026-05-02T12:49:32.635Z</time></trkpt><trkpt lat="42.0599677" lon="13.6411489"><ele>859.0</ele><time>2026-05-02T12:49:33.626Z</time></trkpt><trkpt lat="42.0601424" lon="13.641176"><ele>859.3333333333333</ele><time>2026-05-02T12:49:34.635Z</time></trkpt><trkpt lat="42.0603123" lon="13.6412093"><ele>859.6666666666667</ele><time>2026-05-02T12:49:35.634Z</time></trkpt><trkpt lat="42.0604945" lon="13.6412103"><ele>860.0</ele><time>2026-05-02T12:49:36.631Z</time></trkpt><trkpt lat="42.0607064" lon="13.6411919"><ele>860.0</ele><time>2026-05-02T12:49:37.622Z</time></trkpt><trkpt lat="42.0609143" lon="13.641165"><ele>860.0</ele><time>2026-05-02T12:49:38.639Z</time></trkpt><trkpt lat="42.0610929" lon="13.6411266"><ele>860.0</ele><time>2026-05-02T12:49:39.63Z</time></trkpt><trkpt lat="42.0612392" lon="13.6410702"><ele>860.0</ele><time>2026-05-02T12:49:40.641Z</time></trkpt><trkpt lat="42.0613711" lon="13.6410204"><ele>860.0</ele><time>2026-05-02T12:49:41.634Z</time></trkpt><trkpt lat="42.0614995" lon="13.640973"><ele>860.0</ele><time>2026-05-02T12:49:42.638Z</time></trkpt><trkpt lat="42.061631" lon="13.640904"><ele>860.0</ele><time>2026-05-02T12:49:43.63Z</time></trkpt><trkpt lat="42.0617764" lon="13.6408177"><ele>862.3333333333334</ele><time>2026-05-02T12:49:44.641Z</time></trkpt><trkpt lat="42.0619138" lon="13.6407137"><ele>864.6666666666667</ele><time>2026-05-02T12:49:45.632Z</time></trkpt><trkpt lat="42.0620513" lon="13.6405925"><ele>867.0</ele><time>2026-05-02T12:49:46.634Z</time></trkpt><trkpt lat="42.0621868" lon="13.6404509"><ele>867.0</ele><time>2026-05-02T12:49:47.632Z</time></trkpt><trkpt lat="42.0623209" lon="13.6402962"><ele>867.0</ele><time>2026-05-02T12:49:48.642Z</time></trkpt><trkpt lat="42.0624428" lon="13.6401531"><ele>867.0</ele><time>2026-05-02T12:49:49.635Z</time></trkpt><trkpt lat="42.0625531" lon="13.6400207"><ele>867.0</ele><time>2026-05-02T12:49:50.637Z</time></trkpt><trkpt lat="42.0626666" lon="13.6398911"><ele>867.0</ele><time>2026-05-02T12:49:51.632Z</time></trkpt><trkpt lat="42.0627955" lon="13.6397738"><ele>867.0</ele><time>2026-05-02T12:49:52.636Z</time></trkpt><trkpt lat="42.0629309" lon="13.6396712"><ele>867.0</ele><time>2026-05-02T12:49:53.626Z</time></trkpt><trkpt lat="42.0630692" lon="13.6395772"><ele>867.0</ele><time>2026-05-02T12:49:54.648Z</time></trkpt><trkpt lat="42.0632114" lon="13.6394775"><ele>867.0</ele><time>2026-05-02T12:49:55.639Z</time></trkpt><trkpt lat="42.0633515" lon="13.6393672"><ele>866.3333333333333</ele><time>2026-05-02T12:49:56.627Z</time></trkpt><trkpt lat="42.0634957" lon="13.6392492"><ele>865.6666666666666</ele><time>2026-05-02T12:49:57.637Z</time></trkpt><trkpt lat="42.0636424" lon="13.6391168"><ele>865.0</ele><time>2026-05-02T12:49:58.637Z</time></trkpt><trkpt lat="42.0637972" lon="13.6389821"><ele>865.0</ele><time>2026-05-02T12:49:59.64Z</time></trkpt><trkpt lat="42.0639386" lon="13.6388449"><ele>865.0</ele><time>2026-05-02T12:50:00.627Z</time></trkpt><trkpt lat="42.064065" lon="13.6387297"><ele>865.0</ele><time>2026-05-02T12:50:01.647Z</time></trkpt><trkpt lat="42.064163" lon="13.6386524"><ele>865.0</ele><time>2026-05-02T12:50:02.632Z</time></trkpt><trkpt lat="42.0642388" lon="13.638593"><ele>864.8571428571429</ele><time>2026-05-02T12:50:03.638Z</time></trkpt><trkpt lat="42.0642969" lon="13.6385521"><ele>864.7142857142858</ele><time>2026-05-02T12:50:04.634Z</time></trkpt><trkpt lat="42.064347" lon="13.6384908"><ele>864.5714285714286</ele><time>2026-05-02T12:50:05.634Z</time></trkpt><trkpt lat="42.0644004" lon="13.6384412"><ele>864.4285714285714</ele><time>2026-05-02T12:50:06.649Z</time></trkpt><trkpt lat="42.0644562" lon="13.6383873"><ele>864.2857142857142</ele><time>2026-05-02T12:50:07.623Z</time></trkpt><trkpt lat="42.0645244" lon="13.638323"><ele>864.1428571428571</ele><time>2026-05-02T12:50:08.655Z</time></trkpt><trkpt lat="42.0645985" lon="13.6382522"><ele>864.0</ele><time>2026-05-02T12:50:09.625Z</time></trkpt><trkpt lat="42.0646728" lon="13.638165"><ele>864.0</ele><time>2026-05-02T12:50:10.64Z</time></trkpt><trkpt lat="42.0647539" lon="13.6380724"><ele>864.0</ele><time>2026-05-02T12:50:11.633Z</time></trkpt><trkpt lat="42.0648379" lon="13.637981"><ele>864.0</ele><time>2026-05-02T12:50:12.625Z</time></trkpt><trkpt lat="42.0649277" lon="13.6378844"><ele>864.0</ele><time>2026-05-02T12:50:13.637Z</time></trkpt><trkpt lat="42.0650219" lon="13.6377813"><ele>864.25</ele><time>2026-05-02T12:50:14.627Z</time></trkpt><trkpt lat="42.0651333" lon="13.6376656"><ele>864.5</ele><time>2026-05-02T12:50:15.639Z</time></trkpt><trkpt lat="42.0652371" lon="13.6375486"><ele>864.75</ele><time>2026-05-02T12:50:16.642Z</time></trkpt><trkpt lat="42.0653354" lon="13.6374349"><ele>865.0</ele><time>2026-05-02T12:50:17.631Z</time></trkpt><trkpt lat="42.0654345" lon="13.6373179"><ele>865.0</ele><time>2026-05-02T12:50:18.629Z</time></trkpt><trkpt lat="42.0655432" lon="13.6372076"><ele>865.0</ele><time>2026-05-02T12:50:19.629Z</time></trkpt><trkpt lat="42.0656595" lon="13.6371169"><ele>865.0</ele><time>2026-05-02T12:50:20.626Z</time></trkpt><trkpt lat="42.0657985" lon="13.6370134"><ele>865.0</ele><time>2026-05-02T12:50:21.626Z</time></trkpt><trkpt lat="42.0659476" lon="13.6369023"><ele>865.3333333333333</ele><time>2026-05-02T12:50:22.637Z</time></trkpt><trkpt lat="42.0661103" lon="13.6367594"><ele>865.6666666666667</ele><time>2026-05-02T12:50:23.638Z</time></trkpt><trkpt lat="42.0662826" lon="13.6366115"><ele>866.0</ele><time>2026-05-02T12:50:24.628Z</time></trkpt><trkpt lat="42.066437" lon="13.6364935"><ele>866.0</ele><time>2026-05-02T12:50:25.629Z</time></trkpt><trkpt lat="42.0665768" lon="13.6363806"><ele>866.0</ele><time>2026-05-02T12:50:26.639Z</time></trkpt><trkpt lat="42.0667173" lon="13.6362648"><ele>866.0</ele><time>2026-05-02T12:50:27.634Z</time></trkpt><trkpt lat="42.0668405" lon="13.636155"><ele>867.25</ele><time>2026-05-02T12:50:28.642Z</time></trkpt><trkpt lat="42.0669505" lon="13.6360515"><ele>868.5</ele><time>2026-05-02T12:50:29.631Z</time></trkpt><trkpt lat="42.0670588" lon="13.635948"><ele>869.75</ele><time>2026-05-02T12:50:30.637Z</time></trkpt><trkpt lat="42.0671619" lon="13.6358731"><ele>871.0</ele><time>2026-05-02T12:50:31.644Z</time></trkpt><trkpt lat="42.0672668" lon="13.6358248"><ele>871.0</ele><time>2026-05-02T12:50:32.638Z</time></trkpt><trkpt lat="42.0673764" lon="13.6357895"><ele>871.0</ele><time>2026-05-02T12:50:33.633Z</time></trkpt><trkpt lat="42.0674856" lon="13.6357587"><ele>871.0</ele><time>2026-05-02T12:50:34.636Z</time></trkpt><trkpt lat="42.0675877" lon="13.6357116"><ele>871.0</ele><time>2026-05-02T12:50:35.648Z</time></trkpt><trkpt lat="42.0676931" lon="13.6356297"><ele>872.25</ele><time>2026-05-02T12:50:36.644Z</time></trkpt><trkpt lat="42.0677959" lon="13.6355209"><ele>873.5</ele><time>2026-05-02T12:50:37.63Z</time></trkpt><trkpt lat="42.0679054" lon="13.6354096"><ele>874.75</ele><time>2026-05-02T12:50:38.636Z</time></trkpt><trkpt lat="42.06802" lon="13.635295"><ele>876.0</ele><time>2026-05-02T12:50:39.637Z</time></trkpt><trkpt lat="42.0681363" lon="13.6351773"><ele>876.0</ele><time>2026-05-02T12:50:40.635Z</time></trkpt><trkpt lat="42.0682574" lon="13.6350519"><ele>876.0</ele><time>2026-05-02T12:50:41.632Z</time></trkpt><trkpt lat="42.0683814" lon="13.6349191"><ele>876.0</ele><time>2026-05-02T12:50:42.644Z</time></trkpt><trkpt lat="42.0685101" lon="13.6347846"><ele>878.0</ele><time>2026-05-02T12:50:43.639Z</time></trkpt><trkpt lat="42.0686297" lon="13.6346509"><ele>880.0</ele><time>2026-05-02T12:50:44.639Z</time></trkpt><trkpt lat="42.0687548" lon="13.6345176"><ele>882.0</ele><time>2026-05-02T12:50:45.636Z</time></trkpt><trkpt lat="42.0688689" lon="13.6343826"><ele>882.0</ele><time>2026-05-02T12:50:46.638Z</time></trkpt><trkpt lat="42.068971" lon="13.6342632"><ele>882.0</ele><time>2026-05-02T12:50:47.637Z</time></trkpt><trkpt lat="42.0690682" lon="13.6341498"><ele>882.0</ele><time>2026-05-02T12:50:48.629Z</time></trkpt><trkpt lat="42.0691513" lon="13.6340495"><ele>882.0</ele><time>2026-05-02T12:50:49.648Z</time></trkpt><trkpt lat="42.0692132" lon="13.6339526"><ele>883.0</ele><time>2026-05-02T12:50:50.627Z</time></trkpt><trkpt lat="42.069275" lon="13.6338781"><ele>884.0</ele><time>2026-05-02T12:50:51.641Z</time></trkpt><trkpt lat="42.0693415" lon="13.6338318"><ele>885.0</ele><time>2026-05-02T12:50:52.636Z</time></trkpt><trkpt lat="42.0694052" lon="13.6338361"><ele>886.0</ele><time>2026-05-02T12:50:53.637Z</time></trkpt><trkpt lat="42.0695174" lon="13.6338789"><ele>887.0</ele><time>2026-05-02T12:50:55.641Z</time></trkpt><trkpt lat="42.0696011" lon="13.6339485"><ele>888.0</ele><time>2026-05-02T12:50:57.625Z</time></trkpt><trkpt lat="42.0696475" lon="13.6340353"><ele>888.0</ele><time>2026-05-02T12:50:59.624Z</time></trkpt><trkpt lat="42.0696575" lon="13.6341643"><ele>888.0</ele><time>2026-05-02T12:51:01.628Z</time></trkpt><trkpt lat="42.0696711" lon="13.6342665"><ele>888.0</ele><time>2026-05-02T12:51:03.624Z</time></trkpt><trkpt lat="42.0697486" lon="13.6343965"><ele>888.0</ele><time>2026-05-02T12:51:05.618Z</time></trkpt><trkpt lat="42.0698006" lon="13.6344888"><ele>888.0</ele><time>2026-05-02T12:51:06.629Z</time></trkpt><trkpt lat="42.0698634" lon="13.6346133"><ele>888.25</ele><time>2026-05-02T12:51:07.637Z</time></trkpt><trkpt lat="42.0699267" lon="13.6347453"><ele>888.5</ele><time>2026-05-02T12:51:08.628Z</time></trkpt><trkpt lat="42.0700022" lon="13.6348841"><ele>888.75</ele><time>2026-05-02T12:51:09.64Z</time></trkpt><trkpt lat="42.0700867" lon="13.6350184"><ele>889.0</ele><time>2026-05-02T12:51:10.629Z</time></trkpt><trkpt lat="42.0701726" lon="13.6351576"><ele>889.0</ele><time>2026-05-02T12:51:11.648Z</time></trkpt><trkpt lat="42.0702536" lon="13.6352985"><ele>889.0</ele><time>2026-05-02T12:51:12.63Z</time></trkpt><trkpt lat="42.0703339" lon="13.635437"><ele>889.0</ele><time>2026-05-02T12:51:13.626Z</time></trkpt><trkpt lat="42.0704195" lon="13.6355755"><ele>889.0</ele><time>2026-05-02T12:51:14.629Z</time></trkpt><trkpt lat="42.0704997" lon="13.635728"><ele>894.3333333333333</ele><time>2026-05-02T12:51:15.625Z</time></trkpt><trkpt lat="42.0705824" lon="13.635899"><ele>899.6666666666667</ele><time>2026-05-02T12:51:16.627Z</time></trkpt><trkpt lat="42.0706731" lon="13.6360768"><ele>905.0</ele><time>2026-05-02T12:51:17.636Z</time></trkpt><trkpt lat="42.0707774" lon="13.6362671"><ele>905.0</ele><time>2026-05-02T12:51:18.626Z</time></trkpt><trkpt lat="42.0709076" lon="13.6364596"><ele>905.0</ele><time>2026-05-02T12:51:19.636Z</time></trkpt><trkpt lat="42.0710465" lon="13.6366422"><ele>905.0</ele><time>2026-05-02T12:51:20.625Z</time></trkpt><trkpt lat="42.0712171" lon="13.6368216"><ele>915.5</ele><time>2026-05-02T12:51:21.63Z</time></trkpt><trkpt lat="42.0713919" lon="13.6370179"><ele>926.0</ele><time>2026-05-02T12:51:22.631Z</time></trkpt><trkpt lat="42.0715594" lon="13.6372191"><ele>918.3333333333334</ele><time>2026-05-02T12:51:23.64Z</time></trkpt><trkpt lat="42.0717286" lon="13.6374144"><ele>910.6666666666667</ele><time>2026-05-02T12:51:24.629Z</time></trkpt><trkpt lat="42.0719034" lon="13.6375853"><ele>903.0</ele><time>2026-05-02T12:51:25.623Z</time></trkpt><trkpt lat="42.0720895" lon="13.6377283"><ele>905.3333333333333</ele><time>2026-05-02T12:51:26.627Z</time></trkpt><trkpt lat="42.0722824" lon="13.6378664"><ele>907.6666666666666</ele><time>2026-05-02T12:51:27.623Z</time></trkpt><trkpt lat="42.0724712" lon="13.637974"><ele>910.0</ele><time>2026-05-02T12:51:28.62Z</time></trkpt><trkpt lat="42.072643" lon="13.6380623"><ele>910.0</ele><time>2026-05-02T12:51:29.634Z</time></trkpt><trkpt lat="42.0727948" lon="13.6381557"><ele>910.0</ele><time>2026-05-02T12:51:30.616Z</time></trkpt><trkpt lat="42.0729251" lon="13.6382563"><ele>910.0</ele><time>2026-05-02T12:51:31.631Z</time></trkpt><trkpt lat="42.073047" lon="13.6383731"><ele>910.0</ele><time>2026-05-02T12:51:32.628Z</time></trkpt><trkpt lat="42.0731564" lon="13.6385298"><ele>910.0</ele><time>2026-05-02T12:51:33.623Z</time></trkpt><trkpt lat="42.0732715" lon="13.6387287"><ele>910.0</ele><time>2026-05-02T12:51:34.635Z</time></trkpt><trkpt lat="42.0733995" lon="13.6389445"><ele>912.3333333333333</ele><time>2026-05-02T12:51:35.626Z</time></trkpt><trkpt lat="42.0735485" lon="13.6391573"><ele>914.6666666666667</ele><time>2026-05-02T12:51:36.647Z</time></trkpt><trkpt lat="42.073716" lon="13.6393675"><ele>917.0</ele><time>2026-05-02T12:51:37.63Z</time></trkpt><trkpt lat="42.073899" lon="13.63957"><ele>919.5</ele><time>2026-05-02T12:51:38.611Z</time></trkpt><trkpt lat="42.074094" lon="13.6397632"><ele>922.0</ele><time>2026-05-02T12:51:39.625Z</time></trkpt><trkpt lat="42.0742769" lon="13.6399596"><ele>922.0</ele><time>2026-05-02T12:51:40.628Z</time></trkpt><trkpt lat="42.0744441" lon="13.6401614"><ele>922.0</ele><time>2026-05-02T12:51:41.621Z</time></trkpt><trkpt lat="42.0746031" lon="13.6403598"><ele>922.0</ele><time>2026-05-02T12:51:42.625Z</time></trkpt><trkpt lat="42.0747556" lon="13.6405636"><ele>924.0</ele><time>2026-05-02T12:51:43.617Z</time></trkpt><trkpt lat="42.074905" lon="13.6407797"><ele>926.0</ele><time>2026-05-02T12:51:44.619Z</time></trkpt><trkpt lat="42.0750488" lon="13.6410007"><ele>928.0</ele><time>2026-05-02T12:51:45.624Z</time></trkpt><trkpt lat="42.0751827" lon="13.6412188"><ele>930.6666666666666</ele><time>2026-05-02T12:51:46.625Z</time></trkpt><trkpt lat="42.0753039" lon="13.6414149"><ele>933.3333333333333</ele><time>2026-05-02T12:51:47.621Z</time></trkpt><trkpt lat="42.0754254" lon="13.6415927"><ele>936.0</ele><time>2026-05-02T12:51:48.624Z</time></trkpt><trkpt lat="42.0755552" lon="13.6417661"><ele>936.0</ele><time>2026-05-02T12:51:49.627Z</time></trkpt><trkpt lat="42.0757" lon="13.641943"><ele>936.0</ele><time>2026-05-02T12:51:50.627Z</time></trkpt><trkpt lat="42.0758538" lon="13.6421164"><ele>936.0</ele><time>2026-05-02T12:51:51.621Z</time></trkpt><trkpt lat="42.0760222" lon="13.6422829"><ele>936.0</ele><time>2026-05-02T12:51:52.629Z</time></trkpt><trkpt lat="42.076186" lon="13.6424626"><ele>936.0</ele><time>2026-05-02T12:51:53.622Z</time></trkpt><trkpt lat="42.0763408" lon="13.6426516"><ele>936.0</ele><time>2026-05-02T12:51:54.632Z</time></trkpt><trkpt lat="42.0764901" lon="13.6428461"><ele>938.0</ele><time>2026-05-02T12:51:55.624Z</time></trkpt><trkpt lat="42.0766293" lon="13.6430461"><ele>940.0</ele><time>2026-05-02T12:51:56.619Z</time></trkpt><trkpt lat="42.0767628" lon="13.6432555"><ele>942.0</ele><time>2026-05-02T12:51:57.625Z</time></trkpt><trkpt lat="42.0769001" lon="13.6434576"><ele>948.0</ele><time>2026-05-02T12:51:58.626Z</time></trkpt><trkpt lat="42.0770364" lon="13.6436633"><ele>954.0</ele><time>2026-05-02T12:51:59.616Z</time></trkpt><trkpt lat="42.0771828" lon="13.6438575"><ele>960.0</ele><time>2026-05-02T12:52:00.619Z</time></trkpt><trkpt lat="42.0773341" lon="13.6440323"><ele>956.3333333333333</ele><time>2026-05-02T12:52:01.629Z</time></trkpt><trkpt lat="42.077477" lon="13.6441761"><ele>952.6666666666666</ele><time>2026-05-02T12:52:02.607Z</time></trkpt><trkpt lat="42.0776038" lon="13.6443003"><ele>949.0</ele><time>2026-05-02T12:52:03.62Z</time></trkpt><trkpt lat="42.0777196" lon="13.644425"><ele>952.25</ele><time>2026-05-02T12:52:04.624Z</time></trkpt><trkpt lat="42.0778246" lon="13.6445589"><ele>955.5</ele><time>2026-05-02T12:52:05.632Z</time></trkpt><trkpt lat="42.0779157" lon="13.6447064"><ele>958.75</ele><time>2026-05-02T12:52:06.633Z</time></trkpt><trkpt lat="42.0779959" lon="13.6448661"><ele>962.0</ele><time>2026-05-02T12:52:07.635Z</time></trkpt><trkpt lat="42.0780807" lon="13.6450306"><ele>962.0</ele><time>2026-05-02T12:52:08.638Z</time></trkpt><trkpt lat="42.0781721" lon="13.6451947"><ele>962.0</ele><time>2026-05-02T12:52:09.646Z</time></trkpt><trkpt lat="42.0782667" lon="13.6453618"><ele>962.0</ele><time>2026-05-02T12:52:10.626Z</time></trkpt><trkpt lat="42.0783609" lon="13.6455241"><ele>961.5</ele><time>2026-05-02T12:52:11.625Z</time></trkpt><trkpt lat="42.0784514" lon="13.6456605"><ele>961.0</ele><time>2026-05-02T12:52:12.636Z</time></trkpt><trkpt lat="42.0785576" lon="13.6457878"><ele>960.5</ele><time>2026-05-02T12:52:13.625Z</time></trkpt><trkpt lat="42.0786794" lon="13.6459069"><ele>960.0</ele><time>2026-05-02T12:52:14.633Z</time></trkpt><trkpt lat="42.0788208" lon="13.6460328"><ele>960.3333333333333</ele><time>2026-05-02T12:52:15.615Z</time></trkpt><trkpt lat="42.0789594" lon="13.6461834"><ele>960.6666666666666</ele><time>2026-05-02T12:52:16.633Z</time></trkpt><trkpt lat="42.0790834" lon="13.6463612"><ele>961.0</ele><time>2026-05-02T12:52:17.621Z</time></trkpt><trkpt lat="42.0791863" lon="13.6465316"><ele>961.0</ele><time>2026-05-02T12:52:18.634Z</time></trkpt><trkpt lat="42.0792729" lon="13.6467083"><ele>961.0</ele><time>2026-05-02T12:52:19.625Z</time></trkpt><trkpt lat="42.0793526" lon="13.6468771"><ele>961.0</ele><time>2026-05-02T12:52:20.625Z</time></trkpt><trkpt lat="42.0794245" lon="13.6470379"><ele>961.0</ele><time>2026-05-02T12:52:21.628Z</time></trkpt><trkpt lat="42.0794985" lon="13.6471774"><ele>963.75</ele><time>2026-05-02T12:52:22.627Z</time></trkpt><trkpt lat="42.0795759" lon="13.6473038"><ele>966.5</ele><time>2026-05-02T12:52:23.637Z</time></trkpt><trkpt lat="42.0796697" lon="13.6474044"><ele>969.25</ele><time>2026-05-02T12:52:24.634Z</time></trkpt><trkpt lat="42.0797738" lon="13.6475061"><ele>972.0</ele><time>2026-05-02T12:52:25.634Z</time></trkpt><trkpt lat="42.0798968" lon="13.6476012"><ele>968.75</ele><time>2026-05-02T12:52:26.631Z</time></trkpt><trkpt lat="42.080026" lon="13.647683"><ele>965.5</ele><time>2026-05-02T12:52:27.628Z</time></trkpt><trkpt lat="42.0801652" lon="13.6477619"><ele>962.25</ele><time>2026-05-02T12:52:28.636Z</time></trkpt><trkpt lat="42.0803021" lon="13.6478"><ele>959.0</ele><time>2026-05-02T12:52:29.625Z</time></trkpt><trkpt lat="42.0804304" lon="13.6478032"><ele>959.0</ele><time>2026-05-02T12:52:30.629Z</time></trkpt><trkpt lat="42.0805565" lon="13.6477721"><ele>959.0</ele><time>2026-05-02T12:52:31.63Z</time></trkpt><trkpt lat="42.0806877" lon="13.6477214"><ele>959.0</ele><time>2026-05-02T12:52:32.639Z</time></trkpt><trkpt lat="42.0808253" lon="13.6476544"><ele>959.0</ele><time>2026-05-02T12:52:33.625Z</time></trkpt><trkpt lat="42.0809669" lon="13.6475852"><ele>960.6666666666667</ele><time>2026-05-02T12:52:34.627Z</time></trkpt><trkpt lat="42.0811096" lon="13.6475139"><ele>962.3333333333333</ele><time>2026-05-02T12:52:35.629Z</time></trkpt><trkpt lat="42.0812535" lon="13.6474364"><ele>964.0</ele><time>2026-05-02T12:52:36.628Z</time></trkpt><trkpt lat="42.0814004" lon="13.647332"><ele>964.0</ele><time>2026-05-02T12:52:37.634Z</time></trkpt><trkpt lat="42.0815445" lon="13.6472065"><ele>964.0</ele><time>2026-05-02T12:52:38.649Z</time></trkpt><trkpt lat="42.0816672" lon="13.6470459"><ele>964.0</ele><time>2026-05-02T12:52:39.623Z</time></trkpt><trkpt lat="42.0818011" lon="13.6468672"><ele>967.3333333333333</ele><time>2026-05-02T12:52:40.632Z</time></trkpt><trkpt lat="42.0819252" lon="13.6466903"><ele>970.6666666666667</ele><time>2026-05-02T12:52:41.641Z</time></trkpt><trkpt lat="42.0820417" lon="13.6465108"><ele>974.0</ele><time>2026-05-02T12:52:42.632Z</time></trkpt><trkpt lat="42.0821497" lon="13.646359"><ele>974.0</ele><time>2026-05-02T12:52:43.642Z</time></trkpt><trkpt lat="42.0822699" lon="13.6462289"><ele>974.0</ele><time>2026-05-02T12:52:44.633Z</time></trkpt><trkpt lat="42.082399" lon="13.646125"><ele>974.0</ele><time>2026-05-02T12:52:45.621Z</time></trkpt><trkpt lat="42.0825533" lon="13.6460315"><ele>977.0</ele><time>2026-05-02T12:52:46.627Z</time></trkpt><trkpt lat="42.0827233" lon="13.6459627"><ele>980.0</ele><time>2026-05-02T12:52:47.635Z</time></trkpt><trkpt lat="42.0828962" lon="13.6458875"><ele>983.0</ele><time>2026-05-02T12:52:48.657Z</time></trkpt><trkpt lat="42.0830593" lon="13.645786"><ele>983.0</ele><time>2026-05-02T12:52:49.629Z</time></trkpt><trkpt lat="42.0832219" lon="13.6456743"><ele>983.0</ele><time>2026-05-02T12:52:50.646Z</time></trkpt><trkpt lat="42.0833803" lon="13.6455392"><ele>983.0</ele><time>2026-05-02T12:52:51.632Z</time></trkpt><trkpt lat="42.0835468" lon="13.6453892"><ele>987.6666666666667</ele><time>2026-05-02T12:52:52.645Z</time></trkpt><trkpt lat="42.0837021" lon="13.6452272"><ele>992.3333333333333</ele><time>2026-05-02T12:52:53.624Z</time></trkpt><trkpt lat="42.0838338" lon="13.6450674"><ele>997.0</ele><time>2026-05-02T12:52:54.623Z</time></trkpt><trkpt lat="42.0839265" lon="13.6449167"><ele>997.0</ele><time>2026-05-02T12:52:55.628Z</time></trkpt><trkpt lat="42.0840015" lon="13.6447614"><ele>997.0</ele><time>2026-05-02T12:52:56.631Z</time></trkpt><trkpt lat="42.0840475" lon="13.6445859"><ele>997.0</ele><time>2026-05-02T12:52:57.627Z</time></trkpt><trkpt lat="42.0840788" lon="13.6443818"><ele>997.0</ele><time>2026-05-02T12:52:58.661Z</time></trkpt><trkpt lat="42.0841131" lon="13.6441765"><ele>999.6666666666666</ele><time>2026-05-02T12:52:59.626Z</time></trkpt><trkpt lat="42.0841587" lon="13.643974"><ele>1002.3333333333333</ele><time>2026-05-02T12:53:00.634Z</time></trkpt><trkpt lat="42.084229" lon="13.6437823"><ele>1005.0</ele><time>2026-05-02T12:53:01.634Z</time></trkpt><trkpt lat="42.0843026" lon="13.6435932"><ele>1007.0</ele><time>2026-05-02T12:53:02.625Z</time></trkpt><trkpt lat="42.0843746" lon="13.6434095"><ele>1009.0</ele><time>2026-05-02T12:53:03.629Z</time></trkpt><trkpt lat="42.0844415" lon="13.6432222"><ele>1011.0</ele><time>2026-05-02T12:53:04.623Z</time></trkpt><trkpt lat="42.0845129" lon="13.6430428"><ele>1011.0</ele><time>2026-05-02T12:53:05.628Z</time></trkpt><trkpt lat="42.0846009" lon="13.6428676"><ele>1011.0</ele><time>2026-05-02T12:53:06.627Z</time></trkpt><trkpt lat="42.0846953" lon="13.6426925"><ele>1011.0</ele><time>2026-05-02T12:53:07.636Z</time></trkpt><trkpt lat="42.0847813" lon="13.6425196"><ele>1012.0</ele><time>2026-05-02T12:53:08.626Z</time></trkpt><trkpt lat="42.0848431" lon="13.6423616"><ele>1013.0</ele><time>2026-05-02T12:53:09.633Z</time></trkpt><trkpt lat="42.0848859" lon="13.6421947"><ele>1014.0</ele><time>2026-05-02T12:53:10.641Z</time></trkpt><trkpt lat="42.0849166" lon="13.6420269"><ele>1015.0</ele><time>2026-05-02T12:53:11.633Z</time></trkpt><trkpt lat="42.0849345" lon="13.6418496"><ele>1018.5</ele><time>2026-05-02T12:53:12.623Z</time></trkpt><trkpt lat="42.0849613" lon="13.6416623"><ele>1022.0</ele><time>2026-05-02T12:53:13.632Z</time></trkpt><trkpt lat="42.0850009" lon="13.6414747"><ele>1025.5</ele><time>2026-05-02T12:53:14.63Z</time></trkpt><trkpt lat="42.0850497" lon="13.6412874"><ele>1029.0</ele><time>2026-05-02T12:53:15.632Z</time></trkpt><trkpt lat="42.0851039" lon="13.6411238"><ele>1030.75</ele><time>2026-05-02T12:53:16.627Z</time></trkpt><trkpt lat="42.0851535" lon="13.6409561"><ele>1032.5</ele><time>2026-05-02T12:53:17.628Z</time></trkpt><trkpt lat="42.0851916" lon="13.6407885"><ele>1034.25</ele><time>2026-05-02T12:53:18.627Z</time></trkpt><trkpt lat="42.085216" lon="13.6406282"><ele>1036.0</ele><time>2026-05-02T12:53:19.627Z</time></trkpt><trkpt lat="42.0852151" lon="13.6404821"><ele>1036.0</ele><time>2026-05-02T12:53:20.625Z</time></trkpt><trkpt lat="42.0851928" lon="13.6403376"><ele>1036.0</ele><time>2026-05-02T12:53:21.618Z</time></trkpt><trkpt lat="42.0851611" lon="13.6401951"><ele>1036.0</ele><time>2026-05-02T12:53:22.623Z</time></trkpt><trkpt lat="42.0851358" lon="13.6400506"><ele>1036.0</ele><time>2026-05-02T12:53:23.633Z</time></trkpt><trkpt lat="42.0851323" lon="13.6399318"><ele>1036.0</ele><time>2026-05-02T12:53:24.652Z</time></trkpt><trkpt lat="42.085172" lon="13.6398194"><ele>1037.0</ele><time>2026-05-02T12:53:25.621Z</time></trkpt><trkpt lat="42.0852333" lon="13.6397049"><ele>1038.0</ele><time>2026-05-02T12:53:26.62Z</time></trkpt><trkpt lat="42.0853038" lon="13.6395749"><ele>1039.0</ele><time>2026-05-02T12:53:27.63Z</time></trkpt><trkpt lat="42.0853659" lon="13.63944"><ele>1040.0</ele><time>2026-05-02T12:53:28.627Z</time></trkpt><trkpt lat="42.0853947" lon="13.6393213"><ele>1041.0</ele><time>2026-05-02T12:53:29.648Z</time></trkpt><trkpt lat="42.0854007" lon="13.6392162"><ele>1042.3999999999999</ele><time>2026-05-02T12:53:30.627Z</time></trkpt><trkpt lat="42.0853768" lon="13.6391038"><ele>1043.8</ele><time>2026-05-02T12:53:31.622Z</time></trkpt><trkpt lat="42.0853287" lon="13.6389961"><ele>1045.1999999999998</ele><time>2026-05-02T12:53:32.624Z</time></trkpt><trkpt lat="42.085278" lon="13.6388645"><ele>1046.6</ele><time>2026-05-02T12:53:33.629Z</time></trkpt><trkpt lat="42.0852308" lon="13.6387142"><ele>1048.0</ele><time>2026-05-02T12:53:34.627Z</time></trkpt><trkpt lat="42.085206" lon="13.6385566"><ele>1050.25</ele><time>2026-05-02T12:53:35.622Z</time></trkpt><trkpt lat="42.0851797" lon="13.6383991"><ele>1052.5</ele><time>2026-05-02T12:53:36.627Z</time></trkpt><trkpt lat="42.0851562" lon="13.6382436"><ele>1054.75</ele><time>2026-05-02T12:53:37.625Z</time></trkpt><trkpt lat="42.0851245" lon="13.6380817"><ele>1057.0</ele><time>2026-05-02T12:53:38.649Z</time></trkpt><trkpt lat="42.0850932" lon="13.6379128"><ele>1058.5</ele><time>2026-05-02T12:53:39.625Z</time></trkpt><trkpt lat="42.0850583" lon="13.6377334"><ele>1060.0</ele><time>2026-05-02T12:53:40.63Z</time></trkpt><trkpt lat="42.0850403" lon="13.6375466"><ele>1061.5</ele><time>2026-05-02T12:53:41.632Z</time></trkpt><trkpt lat="42.0850362" lon="13.6373619"><ele>1063.0</ele><time>2026-05-02T12:53:42.639Z</time></trkpt><trkpt lat="42.0850346" lon="13.6371808"><ele>1063.0</ele><time>2026-05-02T12:53:43.631Z</time></trkpt><trkpt lat="42.08502" lon="13.6370069"><ele>1063.0</ele><time>2026-05-02T12:53:44.642Z</time></trkpt><trkpt lat="42.0849746" lon="13.6368269"><ele>1063.0</ele><time>2026-05-02T12:53:45.626Z</time></trkpt><trkpt lat="42.0849213" lon="13.6366834"><ele>1063.0</ele><time>2026-05-02T12:53:46.644Z</time></trkpt><trkpt lat="42.0848497" lon="13.636551"><ele>1065.0</ele><time>2026-05-02T12:53:47.626Z</time></trkpt><trkpt lat="42.0847693" lon="13.6364136"><ele>1067.0</ele><time>2026-05-02T12:53:48.631Z</time></trkpt><trkpt lat="42.0846763" lon="13.6362606"><ele>1069.0</ele><time>2026-05-02T12:53:49.617Z</time></trkpt><trkpt lat="42.0845676" lon="13.6360926"><ele>1071.0</ele><time>2026-05-02T12:53:50.627Z</time></trkpt><trkpt lat="42.0844463" lon="13.6359307"><ele>1072.3999999999999</ele><time>2026-05-02T12:53:51.628Z</time></trkpt><trkpt lat="42.0843284" lon="13.6357878"><ele>1073.8</ele><time>2026-05-02T12:53:52.63Z</time></trkpt><trkpt lat="42.0842339" lon="13.635674"><ele>1075.1999999999998</ele><time>2026-05-02T12:53:53.629Z</time></trkpt><trkpt lat="42.0841801" lon="13.635579"><ele>1076.6</ele><time>2026-05-02T12:53:54.647Z</time></trkpt><trkpt lat="42.0841457" lon="13.6354959"><ele>1078.0</ele><time>2026-05-02T12:53:55.623Z</time></trkpt><trkpt lat="42.084118" lon="13.6353617"><ele>1079.5</ele><time>2026-05-02T12:53:56.63Z</time></trkpt><trkpt lat="42.0841051" lon="13.635214"><ele>1081.0</ele><time>2026-05-02T12:53:57.626Z</time></trkpt><trkpt lat="42.0840845" lon="13.6350551"><ele>1082.5</ele><time>2026-05-02T12:53:58.635Z</time></trkpt><trkpt lat="42.0840392" lon="13.6348736"><ele>1084.0</ele><time>2026-05-02T12:53:59.642Z</time></trkpt><trkpt lat="42.0839915" lon="13.6347008"><ele>1084.0</ele><time>2026-05-02T12:54:00.619Z</time></trkpt><trkpt lat="42.0839617" lon="13.6345468"><ele>1084.0</ele><time>2026-05-02T12:54:01.621Z</time></trkpt><trkpt lat="42.0839394" lon="13.6343976"><ele>1084.0</ele><time>2026-05-02T12:54:02.628Z</time></trkpt><trkpt lat="42.0839372" lon="13.6342748"><ele>1084.0</ele><time>2026-05-02T12:54:03.628Z</time></trkpt><trkpt lat="42.0839651" lon="13.6341773"><ele>1084.0</ele><time>2026-05-02T12:54:04.645Z</time></trkpt><trkpt lat="42.0840108" lon="13.6340703"><ele>1084.4</ele><time>2026-05-02T12:54:06.622Z</time></trkpt><trkpt lat="42.0840765" lon="13.6339797"><ele>1084.8000000000002</ele><time>2026-05-02T12:54:08.629Z</time></trkpt><trkpt lat="42.08414" lon="13.6339134"><ele>1085.1999999999998</ele><time>2026-05-02T12:54:09.628Z</time></trkpt><trkpt lat="42.0842229" lon="13.6338525"><ele>1085.6</ele><time>2026-05-02T12:54:10.619Z</time></trkpt><trkpt lat="42.0843134" lon="13.6338051"><ele>1086.0</ele><time>2026-05-02T12:54:11.639Z</time></trkpt><trkpt lat="42.0844069" lon="13.6337555"><ele>1086.0</ele><time>2026-05-02T12:54:12.626Z</time></trkpt><trkpt lat="42.0844849" lon="13.6336781"><ele>1086.0</ele><time>2026-05-02T12:54:13.659Z</time></trkpt><trkpt lat="42.0845627" lon="13.6335626"><ele>1086.0</ele><time>2026-05-02T12:54:14.619Z</time></trkpt><trkpt lat="42.0846415" lon="13.6333976"><ele>1086.0</ele><time>2026-05-02T12:54:15.622Z</time></trkpt><trkpt lat="42.0847248" lon="13.633255"><ele>1085.75</ele><time>2026-05-02T12:54:16.623Z</time></trkpt><trkpt lat="42.084824" lon="13.6331088"><ele>1085.5</ele><time>2026-05-02T12:54:17.626Z</time></trkpt><trkpt lat="42.0849441" lon="13.6329723"><ele>1085.25</ele><time>2026-05-02T12:54:18.632Z</time></trkpt><trkpt lat="42.0850524" lon="13.6328441"><ele>1085.0</ele><time>2026-05-02T12:54:19.64Z</time></trkpt><trkpt lat="42.0851213" lon="13.6327187"><ele>1089.0</ele><time>2026-05-02T12:54:20.629Z</time></trkpt><trkpt lat="42.0851735" lon="13.6325946"><ele>1093.0</ele><time>2026-05-02T12:54:21.624Z</time></trkpt><trkpt lat="42.0851832" lon="13.6324424"><ele>1097.0</ele><time>2026-05-02T12:54:22.625Z</time></trkpt><trkpt lat="42.0851951" lon="13.6322794"><ele>1101.0</ele><time>2026-05-02T12:54:23.623Z</time></trkpt><trkpt lat="42.0851868" lon="13.6320916"><ele>1102.0</ele><time>2026-05-02T12:54:24.638Z</time></trkpt><trkpt lat="42.0851682" lon="13.6318798"><ele>1103.0</ele><time>2026-05-02T12:54:25.645Z</time></trkpt><trkpt lat="42.0851903" lon="13.6317176"><ele>1104.0</ele><time>2026-05-02T12:54:26.621Z</time></trkpt><trkpt lat="42.0852578" lon="13.6315768"><ele>1105.0</ele><time>2026-05-02T12:54:27.636Z</time></trkpt><trkpt lat="42.0853485" lon="13.6314058"><ele>1105.0</ele><time>2026-05-02T12:54:28.619Z</time></trkpt><trkpt lat="42.0854389" lon="13.6312475"><ele>1105.0</ele><time>2026-05-02T12:54:29.653Z</time></trkpt><trkpt lat="42.0854986" lon="13.6311341"><ele>1105.0</ele><time>2026-05-02T12:54:30.624Z</time></trkpt><trkpt lat="42.0855278" lon="13.6310207"><ele>1105.0</ele><time>2026-05-02T12:54:31.631Z</time></trkpt><trkpt lat="42.08553" lon="13.6309241"><ele>1105.0</ele><time>2026-05-02T12:54:32.614Z</time></trkpt><trkpt lat="42.0855122" lon="13.6307819"><ele>1106.6666666666665</ele><time>2026-05-02T12:54:33.615Z</time></trkpt><trkpt lat="42.0854837" lon="13.63061"><ele>1108.3333333333333</ele><time>2026-05-02T12:54:34.616Z</time></trkpt><trkpt lat="42.0854767" lon="13.6303962"><ele>1110.0</ele><time>2026-05-02T12:54:35.615Z</time></trkpt><trkpt lat="42.0854687" lon="13.6301489"><ele>1112.0</ele><time>2026-05-02T12:54:36.618Z</time></trkpt><trkpt lat="42.0854603" lon="13.6299127"><ele>1114.0</ele><time>2026-05-02T12:54:37.627Z</time></trkpt><trkpt lat="42.0854647" lon="13.629709"><ele>1116.0</ele><time>2026-05-02T12:54:38.618Z</time></trkpt><trkpt lat="42.0854942" lon="13.6295216"><ele>1117.0</ele><time>2026-05-02T12:54:39.62Z</time></trkpt><trkpt lat="42.0855481" lon="13.6293192"><ele>1118.0</ele><time>2026-05-02T12:54:40.63Z</time></trkpt><trkpt lat="42.0856058" lon="13.6290919"><ele>1119.0</ele><time>2026-05-02T12:54:41.629Z</time></trkpt><trkpt lat="42.0856478" lon="13.6288545"><ele>1119.0</ele><time>2026-05-02T12:54:42.621Z</time></trkpt><trkpt lat="42.0856919" lon="13.628653"><ele>1119.0</ele><time>2026-05-02T12:54:43.62Z</time></trkpt><trkpt lat="42.0857204" lon="13.628498"><ele>1119.0</ele><time>2026-05-02T12:54:44.631Z</time></trkpt><trkpt lat="42.0857582" lon="13.6283506"><ele>1119.0</ele><time>2026-05-02T12:54:45.623Z</time></trkpt><trkpt lat="42.0858129" lon="13.6282369"><ele>1121.6000000000001</ele><time>2026-05-02T12:54:46.624Z</time></trkpt><trkpt lat="42.0858831" lon="13.6281334"><ele>1124.2</ele><time>2026-05-02T12:54:47.618Z</time></trkpt><trkpt lat="42.0859537" lon="13.6280215"><ele>1126.8000000000002</ele><time>2026-05-02T12:54:48.637Z</time></trkpt><trkpt lat="42.0860111" lon="13.6278806"><ele>1129.4</ele><time>2026-05-02T12:54:49.632Z</time></trkpt><trkpt lat="42.086055" lon="13.6277464"><ele>1132.0</ele><time>2026-05-02T12:54:50.627Z</time></trkpt><trkpt lat="42.0860846" lon="13.6275946"><ele>1133.25</ele><time>2026-05-02T12:54:51.63Z</time></trkpt><trkpt lat="42.0861148" lon="13.627432"><ele>1134.5</ele><time>2026-05-02T12:54:52.635Z</time></trkpt><trkpt lat="42.0861576" lon="13.6272636"><ele>1135.75</ele><time>2026-05-02T12:54:53.638Z</time></trkpt><trkpt lat="42.0862156" lon="13.6271072"><ele>1137.0</ele><time>2026-05-02T12:54:54.633Z</time></trkpt><trkpt lat="42.0862777" lon="13.6269539"><ele>1137.75</ele><time>2026-05-02T12:54:55.626Z</time></trkpt><trkpt lat="42.0863355" lon="13.6267834"><ele>1138.5</ele><time>2026-05-02T12:54:56.636Z</time></trkpt><trkpt lat="42.0863796" lon="13.6266059"><ele>1139.25</ele><time>2026-05-02T12:54:57.633Z</time></trkpt><trkpt lat="42.0864055" lon="13.6264248"><ele>1140.0</ele><time>2026-05-02T12:54:58.638Z</time></trkpt><trkpt lat="42.08641" lon="13.6262403"><ele>1141.25</ele><time>2026-05-02T12:54:59.628Z</time></trkpt><trkpt lat="42.0863981" lon="13.6260553"><ele>1142.5</ele><time>2026-05-02T12:55:00.633Z</time></trkpt><trkpt lat="42.0863687" lon="13.6258577"><ele>1143.75</ele><time>2026-05-02T12:55:01.624Z</time></trkpt><trkpt lat="42.0863275" lon="13.6256484"><ele>1145.0</ele><time>2026-05-02T12:55:02.623Z</time></trkpt><trkpt lat="42.0862768" lon="13.6254143"><ele>1148.3333333333335</ele><time>2026-05-02T12:55:03.622Z</time></trkpt><trkpt lat="42.0862221" lon="13.6251683"><ele>1151.6666666666667</ele><time>2026-05-02T12:55:04.637Z</time></trkpt><trkpt lat="42.0861638" lon="13.6249165"><ele>1155.0</ele><time>2026-05-02T12:55:05.63Z</time></trkpt><trkpt lat="42.0861257" lon="13.6246704"><ele>1156.3333333333333</ele><time>2026-05-02T12:55:06.627Z</time></trkpt><trkpt lat="42.0861034" lon="13.6244224"><ele>1157.6666666666665</ele><time>2026-05-02T12:55:07.635Z</time></trkpt><trkpt lat="42.0860922" lon="13.624178"><ele>1159.0</ele><time>2026-05-02T12:55:08.636Z</time></trkpt><trkpt lat="42.0860773" lon="13.6239421"><ele>1159.0</ele><time>2026-05-02T12:55:09.636Z</time></trkpt><trkpt lat="42.0860484" lon="13.6237285"><ele>1159.0</ele><time>2026-05-02T12:55:10.63Z</time></trkpt><trkpt lat="42.0859988" lon="13.6235384"><ele>1159.0</ele><time>2026-05-02T12:55:11.633Z</time></trkpt><trkpt lat="42.0859273" lon="13.6233683"><ele>1161.0</ele><time>2026-05-02T12:55:12.635Z</time></trkpt><trkpt lat="42.0858543" lon="13.6232477"><ele>1163.0</ele><time>2026-05-02T12:55:13.635Z</time></trkpt><trkpt lat="42.08579" lon="13.6231687"><ele>1165.0</ele><time>2026-05-02T12:55:14.632Z</time></trkpt><trkpt lat="42.0857338" lon="13.6231273"><ele>1167.0</ele><time>2026-05-02T12:55:15.621Z</time></trkpt><trkpt lat="42.0856411" lon="13.6230934"><ele>1169.0</ele><time>2026-05-02T12:55:17.631Z</time></trkpt><trkpt lat="42.0855362" lon="13.623122"><ele>1169.75</ele><time>2026-05-02T12:55:19.627Z</time></trkpt><trkpt lat="42.0854645" lon="13.6231599"><ele>1170.5</ele><time>2026-05-02T12:55:20.633Z</time></trkpt><trkpt lat="42.0853689" lon="13.6232194"><ele>1171.25</ele><time>2026-05-02T12:55:21.627Z</time></trkpt><trkpt lat="42.085255" lon="13.6233012"><ele>1172.0</ele><time>2026-05-02T12:55:22.626Z</time></trkpt><trkpt lat="42.0851296" lon="13.6233986"><ele>1172.0</ele><time>2026-05-02T12:55:23.638Z</time></trkpt><trkpt lat="42.084998" lon="13.6234863"><ele>1172.0</ele><time>2026-05-02T12:55:24.634Z</time></trkpt><trkpt lat="42.0848568" lon="13.6235738"><ele>1172.0</ele><time>2026-05-02T12:55:25.638Z</time></trkpt><trkpt lat="42.0847116" lon="13.6236748"><ele>1171.25</ele><time>2026-05-02T12:55:26.631Z</time></trkpt><trkpt lat="42.0845672" lon="13.6237755"><ele>1170.5</ele><time>2026-05-02T12:55:27.656Z</time></trkpt><trkpt lat="42.0844352" lon="13.6238799"><ele>1169.75</ele><time>2026-05-02T12:55:28.624Z</time></trkpt><trkpt lat="42.0843186" lon="13.6239668"><ele>1169.0</ele><time>2026-05-02T12:55:29.629Z</time></trkpt><trkpt lat="42.0842299" lon="13.6240435"><ele>1169.0</ele><time>2026-05-02T12:55:30.637Z</time></trkpt><trkpt lat="42.084156" lon="13.6241238"><ele>1169.0</ele><time>2026-05-02T12:55:31.639Z</time></trkpt><trkpt lat="42.084097" lon="13.6242234"><ele>1169.0</ele><time>2026-05-02T12:55:32.651Z</time></trkpt><trkpt lat="42.0840456" lon="13.6243483"><ele>1169.0</ele><time>2026-05-02T12:55:33.624Z</time></trkpt><trkpt lat="42.0840113" lon="13.6245009"><ele>1169.0</ele><time>2026-05-02T12:55:34.637Z</time></trkpt><trkpt lat="42.083986" lon="13.6246993"><ele>1167.3333333333335</ele><time>2026-05-02T12:55:35.621Z</time></trkpt><trkpt lat="42.0839657" lon="13.6249203"><ele>1165.6666666666667</ele><time>2026-05-02T12:55:36.647Z</time></trkpt><trkpt lat="42.083935" lon="13.6251579"><ele>1164.0</ele><time>2026-05-02T12:55:37.636Z</time></trkpt><trkpt lat="42.0838977" lon="13.6254161"><ele>1161.0</ele><time>2026-05-02T12:55:38.633Z</time></trkpt><trkpt lat="42.0838613" lon="13.6256844"><ele>1158.0</ele><time>2026-05-02T12:55:39.629Z</time></trkpt><trkpt lat="42.0838256" lon="13.6259564"><ele>1155.0</ele><time>2026-05-02T12:55:40.646Z</time></trkpt><trkpt lat="42.0837858" lon="13.6262151"><ele>1151.3333333333333</ele><time>2026-05-02T12:55:41.639Z</time></trkpt><trkpt lat="42.0837555" lon="13.6264363"><ele>1147.6666666666665</ele><time>2026-05-02T12:55:42.637Z</time></trkpt><trkpt lat="42.0837165" lon="13.6266493"><ele>1144.0</ele><time>2026-05-02T12:55:43.635Z</time></trkpt><trkpt lat="42.0836822" lon="13.6268484"><ele>1142.0</ele><time>2026-05-02T12:55:44.626Z</time></trkpt><trkpt lat="42.0836473" lon="13.6270393"><ele>1140.0</ele><time>2026-05-02T12:55:45.644Z</time></trkpt><trkpt lat="42.083612" lon="13.6272206"><ele>1138.0</ele><time>2026-05-02T12:55:46.626Z</time></trkpt><trkpt lat="42.0835774" lon="13.6273578"><ele>1136.0</ele><time>2026-05-02T12:55:47.629Z</time></trkpt><trkpt lat="42.0835274" lon="13.6274519"><ele>1136.0</ele><time>2026-05-02T12:55:48.632Z</time></trkpt><trkpt lat="42.0834657" lon="13.6275419"><ele>1136.0</ele><time>2026-05-02T12:55:49.631Z</time></trkpt><trkpt lat="42.0833997" lon="13.6276311"><ele>1136.0</ele><time>2026-05-02T12:55:50.635Z</time></trkpt><trkpt lat="42.0832982" lon="13.6277191"><ele>1136.0</ele><time>2026-05-02T12:55:51.639Z</time></trkpt><trkpt lat="42.0831692" lon="13.6278227"><ele>1132.3333333333335</ele><time>2026-05-02T12:55:52.631Z</time></trkpt><trkpt lat="42.0830237" lon="13.6279309"><ele>1128.6666666666667</ele><time>2026-05-02T12:55:53.63Z</time></trkpt><trkpt lat="42.082846" lon="13.6280378"><ele>1125.0</ele><time>2026-05-02T12:55:54.622Z</time></trkpt><trkpt lat="42.0826657" lon="13.6281564"><ele>1125.0</ele><time>2026-05-02T12:55:55.628Z</time></trkpt><trkpt lat="42.0824986" lon="13.6282789"><ele>1125.0</ele><time>2026-05-02T12:55:56.624Z</time></trkpt><trkpt lat="42.0823533" lon="13.6283854"><ele>1125.0</ele><time>2026-05-02T12:55:57.623Z</time></trkpt><trkpt lat="42.0822286" lon="13.6284807"><ele>1123.6</ele><time>2026-05-02T12:55:58.633Z</time></trkpt><trkpt lat="42.0821139" lon="13.6285418"><ele>1122.2</ele><time>2026-05-02T12:55:59.631Z</time></trkpt><trkpt lat="42.0820134" lon="13.6285854"><ele>1120.8</ele><time>2026-05-02T12:56:00.662Z</time></trkpt><trkpt lat="42.0819211" lon="13.6286032"><ele>1119.4</ele><time>2026-05-02T12:56:01.642Z</time></trkpt><trkpt lat="42.0818311" lon="13.6285937"><ele>1118.0</ele><time>2026-05-02T12:56:02.628Z</time></trkpt><trkpt lat="42.0817254" lon="13.6285639"><ele>1118.0</ele><time>2026-05-02T12:56:03.639Z</time></trkpt><trkpt lat="42.0816036" lon="13.6285195"><ele>1118.0</ele><time>2026-05-02T12:56:04.633Z</time></trkpt><trkpt lat="42.0814744" lon="13.6284614"><ele>1118.0</ele><time>2026-05-02T12:56:05.634Z</time></trkpt><trkpt lat="42.0813565" lon="13.6284038"><ele>1118.0</ele><time>2026-05-02T12:56:06.64Z</time></trkpt><trkpt lat="42.0812495" lon="13.6283508"><ele>1114.0</ele><time>2026-05-02T12:56:07.643Z</time></trkpt><trkpt lat="42.081163" lon="13.628298"><ele>1110.0</ele><time>2026-05-02T12:56:08.634Z</time></trkpt><trkpt lat="42.0810691" lon="13.6282057"><ele>1106.0</ele><time>2026-05-02T12:56:09.634Z</time></trkpt><trkpt lat="42.0809728" lon="13.6280897"><ele>1102.0</ele><time>2026-05-02T12:56:10.63Z</time></trkpt><trkpt lat="42.0808566" lon="13.6279344"><ele>1098.6666666666665</ele><time>2026-05-02T12:56:11.64Z</time></trkpt><trkpt lat="42.080735" lon="13.6277564"><ele>1095.3333333333333</ele><time>2026-05-02T12:56:12.653Z</time></trkpt><trkpt lat="42.0806173" lon="13.6275767"><ele>1092.0</ele><time>2026-05-02T12:56:13.639Z</time></trkpt><trkpt lat="42.0805065" lon="13.6274002"><ele>1092.0</ele><time>2026-05-02T12:56:14.643Z</time></trkpt><trkpt lat="42.0804183" lon="13.627229"><ele>1092.0</ele><time>2026-05-02T12:56:15.633Z</time></trkpt><trkpt lat="42.0803615" lon="13.627086"><ele>1092.0</ele><time>2026-05-02T12:56:16.639Z</time></trkpt><trkpt lat="42.0803262" lon="13.6269268"><ele>1092.0</ele><time>2026-05-02T12:56:17.634Z</time></trkpt><trkpt lat="42.0803214" lon="13.6267665"><ele>1092.5</ele><time>2026-05-02T12:56:18.617Z</time></trkpt><trkpt lat="42.0803323" lon="13.6266187"><ele>1093.0</ele><time>2026-05-02T12:56:19.624Z</time></trkpt><trkpt lat="42.0803541" lon="13.6264667"><ele>1093.5</ele><time>2026-05-02T12:56:20.632Z</time></trkpt><trkpt lat="42.0803938" lon="13.626296"><ele>1094.0</ele><time>2026-05-02T12:56:21.644Z</time></trkpt><trkpt lat="42.0804284" lon="13.6261198"><ele>1094.5</ele><time>2026-05-02T12:56:22.639Z</time></trkpt><trkpt lat="42.0804395" lon="13.6259719"><ele>1095.0</ele><time>2026-05-02T12:56:23.641Z</time></trkpt><trkpt lat="42.0804234" lon="13.6258216"><ele>1095.5</ele><time>2026-05-02T12:56:24.62Z</time></trkpt><trkpt lat="42.0803886" lon="13.6256495"><ele>1096.0</ele><time>2026-05-02T12:56:25.623Z</time></trkpt><trkpt lat="42.0803619" lon="13.6254519"><ele>1097.0</ele><time>2026-05-02T12:56:26.631Z</time></trkpt><trkpt lat="42.080349" lon="13.6252477"><ele>1098.0</ele><time>2026-05-02T12:56:27.622Z</time></trkpt><trkpt lat="42.080345" lon="13.6250168"><ele>1099.0</ele><time>2026-05-02T12:56:28.652Z</time></trkpt><trkpt lat="42.0803415" lon="13.6247987"><ele>1099.0</ele><time>2026-05-02T12:56:29.626Z</time></trkpt><trkpt lat="42.0803434" lon="13.6246082"><ele>1099.0</ele><time>2026-05-02T12:56:30.638Z</time></trkpt><trkpt lat="42.0803707" lon="13.6244265"><ele>1099.0</ele><time>2026-05-02T12:56:31.63Z</time></trkpt><trkpt lat="42.080414" lon="13.6242407"><ele>1099.0</ele><time>2026-05-02T12:56:32.633Z</time></trkpt><trkpt lat="42.0804451" lon="13.6240623"><ele>1099.0</ele><time>2026-05-02T12:56:33.62Z</time></trkpt><trkpt lat="42.0804344" lon="13.6238687"><ele>1099.0</ele><time>2026-05-02T12:56:34.634Z</time></trkpt><trkpt lat="42.0804074" lon="13.6236403"><ele>1099.0</ele><time>2026-05-02T12:56:35.623Z</time></trkpt><trkpt lat="42.0803744" lon="13.6234219"><ele>1099.6666666666665</ele><time>2026-05-02T12:56:36.629Z</time></trkpt><trkpt lat="42.0803484" lon="13.6232045"><ele>1100.3333333333333</ele><time>2026-05-02T12:56:37.637Z</time></trkpt><trkpt lat="42.0803523" lon="13.6229927"><ele>1101.0</ele><time>2026-05-02T12:56:38.626Z</time></trkpt><trkpt lat="42.0803883" lon="13.6227973"><ele>1101.0</ele><time>2026-05-02T12:56:39.626Z</time></trkpt><trkpt lat="42.0804169" lon="13.6226096"><ele>1101.0</ele><time>2026-05-02T12:56:40.622Z</time></trkpt><trkpt lat="42.0804506" lon="13.6224451"><ele>1101.0</ele><time>2026-05-02T12:56:41.625Z</time></trkpt><trkpt lat="42.080493" lon="13.6223243"><ele>1101.0</ele><time>2026-05-02T12:56:42.632Z</time></trkpt><trkpt lat="42.0805489" lon="13.6221776"><ele>1101.0</ele><time>2026-05-02T12:56:43.631Z</time></trkpt><trkpt lat="42.0806174" lon="13.6220381"><ele>1101.0</ele><time>2026-05-02T12:56:44.647Z</time></trkpt><trkpt lat="42.0807057" lon="13.6219024"><ele>1101.0</ele><time>2026-05-02T12:56:45.639Z</time></trkpt><trkpt lat="42.0808016" lon="13.6217824"><ele>1101.0</ele><time>2026-05-02T12:56:46.63Z</time></trkpt><trkpt lat="42.0808798" lon="13.6216622"><ele>1103.0</ele><time>2026-05-02T12:56:47.637Z</time></trkpt><trkpt lat="42.0809386" lon="13.6215143"><ele>1105.0</ele><time>2026-05-02T12:56:48.641Z</time></trkpt><trkpt lat="42.0810032" lon="13.6213411"><ele>1107.0</ele><time>2026-05-02T12:56:49.626Z</time></trkpt><trkpt lat="42.0810715" lon="13.6211366"><ele>1109.0</ele><time>2026-05-02T12:56:50.632Z</time></trkpt><trkpt lat="42.0811481" lon="13.6209191"><ele>1109.0</ele><time>2026-05-02T12:56:51.625Z</time></trkpt><trkpt lat="42.0812092" lon="13.620701"><ele>1109.0</ele><time>2026-05-02T12:56:52.648Z</time></trkpt><trkpt lat="42.0812557" lon="13.6204828"><ele>1109.0</ele><time>2026-05-02T12:56:53.626Z</time></trkpt><trkpt lat="42.081315" lon="13.6202539"><ele>1106.6666666666667</ele><time>2026-05-02T12:56:54.633Z</time></trkpt><trkpt lat="42.0813816" lon="13.6200353"><ele>1104.3333333333333</ele><time>2026-05-02T12:56:55.623Z</time></trkpt><trkpt lat="42.0814412" lon="13.6198236"><ele>1102.0</ele><time>2026-05-02T12:56:56.632Z</time></trkpt><trkpt lat="42.0814899" lon="13.6196305"><ele>1104.3333333333333</ele><time>2026-05-02T12:56:57.628Z</time></trkpt><trkpt lat="42.0815455" lon="13.6194482"><ele>1106.6666666666667</ele><time>2026-05-02T12:56:58.629Z</time></trkpt><trkpt lat="42.0815991" lon="13.6192658"><ele>1109.0</ele><time>2026-05-02T12:56:59.622Z</time></trkpt><trkpt lat="42.0816563" lon="13.6190655"><ele>1109.0</ele><time>2026-05-02T12:57:00.633Z</time></trkpt><trkpt lat="42.0817224" lon="13.6188394"><ele>1109.0</ele><time>2026-05-02T12:57:01.652Z</time></trkpt><trkpt lat="42.0817995" lon="13.6186115"><ele>1109.0</ele><time>2026-05-02T12:57:02.63Z</time></trkpt><trkpt lat="42.0818714" lon="13.6183932"><ele>1105.3333333333335</ele><time>2026-05-02T12:57:03.643Z</time></trkpt><trkpt lat="42.0819389" lon="13.6181538"><ele>1101.6666666666667</ele><time>2026-05-02T12:57:04.629Z</time></trkpt><trkpt lat="42.0820096" lon="13.6178974"><ele>1098.0</ele><time>2026-05-02T12:57:05.634Z</time></trkpt><trkpt lat="42.0820694" lon="13.6176468"><ele>1094.3333333333333</ele><time>2026-05-02T12:57:06.64Z</time></trkpt><trkpt lat="42.0821189" lon="13.6174105"><ele>1090.6666666666665</ele><time>2026-05-02T12:57:07.622Z</time></trkpt><trkpt lat="42.0821581" lon="13.6171966"><ele>1087.0</ele><time>2026-05-02T12:57:08.626Z</time></trkpt><trkpt lat="42.0821875" lon="13.6170176"><ele>1085.25</ele><time>2026-05-02T12:57:09.629Z</time></trkpt><trkpt lat="42.0822207" lon="13.6168624"><ele>1083.5</ele><time>2026-05-02T12:57:10.653Z</time></trkpt><trkpt lat="42.0822352" lon="13.6167268"><ele>1081.75</ele><time>2026-05-02T12:57:11.63Z</time></trkpt><trkpt lat="42.0822329" lon="13.6165833"><ele>1080.0</ele><time>2026-05-02T12:57:12.641Z</time></trkpt><trkpt lat="42.0822139" lon="13.6163857"><ele>1080.0</ele><time>2026-05-02T12:57:13.617Z</time></trkpt><trkpt lat="42.082203" lon="13.6161562"><ele>1080.0</ele><time>2026-05-02T12:57:14.642Z</time></trkpt><trkpt lat="42.0821999" lon="13.6159339"><ele>1080.0</ele><time>2026-05-02T12:57:15.622Z</time></trkpt><trkpt lat="42.0821985" lon="13.6157121"><ele>1078.0</ele><time>2026-05-02T12:57:16.633Z</time></trkpt><trkpt lat="42.0822071" lon="13.6155134"><ele>1076.0</ele><time>2026-05-02T12:57:17.635Z</time></trkpt><trkpt lat="42.0822055" lon="13.6153444"><ele>1074.0</ele><time>2026-05-02T12:57:18.622Z</time></trkpt><trkpt lat="42.0822055" lon="13.6152043"><ele>1072.0</ele><time>2026-05-02T12:57:19.625Z</time></trkpt><trkpt lat="42.0821948" lon="13.6150551"><ele>1070.5</ele><time>2026-05-02T12:57:20.634Z</time></trkpt><trkpt lat="42.0821738" lon="13.6148872"><ele>1069.0</ele><time>2026-05-02T12:57:21.627Z</time></trkpt><trkpt lat="42.0821542" lon="13.6147081"><ele>1067.5</ele><time>2026-05-02T12:57:22.628Z</time></trkpt><trkpt lat="42.0821474" lon="13.6145197"><ele>1066.0</ele><time>2026-05-02T12:57:23.637Z</time></trkpt><trkpt lat="42.0821464" lon="13.6143361"><ele>1064.25</ele><time>2026-05-02T12:57:24.636Z</time></trkpt><trkpt lat="42.0821422" lon="13.6141496"><ele>1062.5</ele><time>2026-05-02T12:57:25.622Z</time></trkpt><trkpt lat="42.0821387" lon="13.613958"><ele>1060.75</ele><time>2026-05-02T12:57:26.626Z</time></trkpt><trkpt lat="42.0821262" lon="13.6137337"><ele>1059.0</ele><time>2026-05-02T12:57:27.635Z</time></trkpt><trkpt lat="42.0821062" lon="13.613516"><ele>1057.3333333333333</ele><time>2026-05-02T12:57:28.622Z</time></trkpt><trkpt lat="42.0820965" lon="13.6132914"><ele>1055.6666666666665</ele><time>2026-05-02T12:57:29.623Z</time></trkpt><trkpt lat="42.0820862" lon="13.61308"><ele>1054.0</ele><time>2026-05-02T12:57:30.625Z</time></trkpt><trkpt lat="42.082075" lon="13.6128759"><ele>1052.75</ele><time>2026-05-02T12:57:31.624Z</time></trkpt><trkpt lat="42.082069" lon="13.6126728"><ele>1051.5</ele><time>2026-05-02T12:57:32.632Z</time></trkpt><trkpt lat="42.0820617" lon="13.6124824"><ele>1050.25</ele><time>2026-05-02T12:57:33.619Z</time></trkpt><trkpt lat="42.0820465" lon="13.6123046"><ele>1049.0</ele><time>2026-05-02T12:57:34.643Z</time></trkpt><trkpt lat="42.0820266" lon="13.6121284"><ele>1047.25</ele><time>2026-05-02T12:57:35.619Z</time></trkpt><trkpt lat="42.0820202" lon="13.6119626"><ele>1045.5</ele><time>2026-05-02T12:57:36.627Z</time></trkpt><trkpt lat="42.0820183" lon="13.6117872"><ele>1043.75</ele><time>2026-05-02T12:57:37.619Z</time></trkpt><trkpt lat="42.0820077" lon="13.611596"><ele>1042.0</ele><time>2026-05-02T12:57:38.627Z</time></trkpt><trkpt lat="42.0819976" lon="13.6114036"><ele>1042.0</ele><time>2026-05-02T12:57:39.625Z</time></trkpt><trkpt lat="42.0819906" lon="13.6112376"><ele>1042.0</ele><time>2026-05-02T12:57:40.625Z</time></trkpt><trkpt lat="42.081996" lon="13.6110832"><ele>1042.0</ele><time>2026-05-02T12:57:41.64Z</time></trkpt><trkpt lat="42.0820113" lon="13.6109506"><ele>1042.0</ele><time>2026-05-02T12:57:42.632Z</time></trkpt><trkpt lat="42.0820343" lon="13.6108314"><ele>1042.0</ele><time>2026-05-02T12:57:43.642Z</time></trkpt><trkpt lat="42.0820642" lon="13.6107402"><ele>1031.0</ele><time>2026-05-02T12:57:44.633Z</time></trkpt><trkpt lat="42.082111" lon="13.6106657"><ele>1031.0</ele><time>2026-05-02T12:57:45.633Z</time></trkpt><trkpt lat="42.082161" lon="13.6106018"><ele>1031.0</ele><time>2026-05-02T12:57:46.635Z</time></trkpt><trkpt lat="42.0822081" lon="13.6105411"><ele>1031.0</ele><time>2026-05-02T12:57:47.62Z</time></trkpt><trkpt lat="42.0823166" lon="13.6104706"><ele>1031.0</ele><time>2026-05-02T12:57:49.625Z</time></trkpt></trkseg><trkseg><trkpt lat="42.082208" lon="13.541504"><ele>746.0</ele><time>2026-05-02T13:57:23.882Z</time></trkpt><trkpt lat="42.0822448" lon="13.5415776"><ele>746.0</ele><time>2026-05-02T14:04:37.894Z</time></trkpt><trkpt lat="42.082209" lon="13.5416497"><ele>746.0</ele><time>2026-05-02T14:04:39.895Z</time></trkpt><trkpt lat="42.0821978" lon="13.5417479"><ele>746.0</ele><time>2026-05-02T14:04:51.901Z</time></trkpt><trkpt lat="42.0822344" lon="13.5418885"><ele>746.0</ele><time>2026-05-02T14:04:53.901Z</time></trkpt><trkpt lat="42.0822633" lon="13.5419645"><ele>746.0</ele><time>2026-05-02T14:04:54.895Z</time></trkpt><trkpt lat="42.0823026" lon="13.5420556"><ele>746.1666666666666</ele><time>2026-05-02T14:04:55.899Z</time></trkpt><trkpt lat="42.0823481" lon="13.5421602"><ele>746.3333333333333</ele><time>2026-05-02T14:04:56.898Z</time></trkpt><trkpt lat="42.0823921" lon="13.5422715"><ele>746.5</ele><time>2026-05-02T14:04:57.909Z</time></trkpt><trkpt lat="42.0824349" lon="13.542377"><ele>746.6666666666666</ele><time>2026-05-02T14:04:58.911Z</time></trkpt><trkpt lat="42.0824706" lon="13.5424628"><ele>746.8333333333334</ele><time>2026-05-02T14:04:59.901Z</time></trkpt><trkpt lat="42.0825092" lon="13.5425768"><ele>747.0</ele><time>2026-05-02T14:05:01.898Z</time></trkpt><trkpt lat="42.0824779" lon="13.5426843"><ele>747.0</ele><time>2026-05-02T14:05:05.89Z</time></trkpt><trkpt lat="42.0824185" lon="13.5427249"><ele>747.0</ele><time>2026-05-02T14:05:06.891Z</time></trkpt><trkpt lat="42.0823653" lon="13.5427884"><ele>747.0</ele><time>2026-05-02T14:05:07.899Z</time></trkpt><trkpt lat="42.0823327" lon="13.5428829"><ele>747.0</ele><time>2026-05-02T14:05:08.894Z</time></trkpt><trkpt lat="42.0823163" lon="13.5429777"><ele>747.0</ele><time>2026-05-02T14:05:09.886Z</time></trkpt><trkpt lat="42.0823104" lon="13.5430697"><ele>747.0</ele><time>2026-05-02T14:05:10.895Z</time></trkpt><trkpt lat="42.0823035" lon="13.5432037"><ele>747.6666666666666</ele><time>2026-05-02T14:05:12.898Z</time></trkpt><trkpt lat="42.0823313" lon="13.5433113"><ele>748.3333333333334</ele><time>2026-05-02T14:05:14.887Z</time></trkpt><trkpt lat="42.0823991" lon="13.5433385"><ele>749.0</ele><time>2026-05-02T14:05:17.887Z</time></trkpt><trkpt lat="42.0824325" lon="13.5432635"><ele>749.6666666666667</ele><time>2026-05-02T14:05:18.896Z</time></trkpt><trkpt lat="42.0824808" lon="13.5431694"><ele>750.3333333333334</ele><time>2026-05-02T14:05:19.901Z</time></trkpt><trkpt lat="42.0825397" lon="13.543067"><ele>751.0</ele><time>2026-05-02T14:05:20.909Z</time></trkpt><trkpt lat="42.0826041" lon="13.5429861"><ele>753.0</ele><time>2026-05-02T14:05:21.902Z</time></trkpt><trkpt lat="42.0826745" lon="13.5429382"><ele>755.0</ele><time>2026-05-02T14:05:22.899Z</time></trkpt><trkpt lat="42.0827528" lon="13.5429262"><ele>757.0</ele><time>2026-05-02T14:05:23.899Z</time></trkpt><trkpt lat="42.082858" lon="13.5429619"><ele>759.0</ele><time>2026-05-02T14:05:24.896Z</time></trkpt><trkpt lat="42.0829694" lon="13.5429872"><ele>761.0</ele><time>2026-05-02T14:05:25.901Z</time></trkpt><trkpt lat="42.0830957" lon="13.5430046"><ele>761.0</ele><time>2026-05-02T14:05:26.898Z</time></trkpt><trkpt lat="42.0832335" lon="13.543016"><ele>761.0</ele><time>2026-05-02T14:05:27.89Z</time></trkpt><trkpt lat="42.0833675" lon="13.5430314"><ele>761.0</ele><time>2026-05-02T14:05:28.895Z</time></trkpt><trkpt lat="42.0835069" lon="13.5430549"><ele>761.0</ele><time>2026-05-02T14:05:29.89Z</time></trkpt><trkpt lat="42.083651" lon="13.5430761"><ele>765.0</ele><time>2026-05-02T14:05:30.906Z</time></trkpt><trkpt lat="42.0837848" lon="13.543081"><ele>769.0</ele><time>2026-05-02T14:05:31.903Z</time></trkpt><trkpt lat="42.0839125" lon="13.543056"><ele>773.0</ele><time>2026-05-02T14:05:32.901Z</time></trkpt><trkpt lat="42.0840253" lon="13.5430033"><ele>777.0</ele><time>2026-05-02T14:05:33.902Z</time></trkpt><trkpt lat="42.0841445" lon="13.542958"><ele>779.25</ele><time>2026-05-02T14:05:34.904Z</time></trkpt><trkpt lat="42.0842754" lon="13.5429362"><ele>781.5</ele><time>2026-05-02T14:05:35.895Z</time></trkpt><trkpt lat="42.084415" lon="13.542928"><ele>783.75</ele><time>2026-05-02T14:05:36.891Z</time></trkpt><trkpt lat="42.0845619" lon="13.5429326"><ele>786.0</ele><time>2026-05-02T14:05:37.892Z</time></trkpt><trkpt lat="42.0847077" lon="13.5429505"><ele>786.0</ele><time>2026-05-02T14:05:38.888Z</time></trkpt><trkpt lat="42.0848315" lon="13.5429573"><ele>786.0</ele><time>2026-05-02T14:05:39.891Z</time></trkpt><trkpt lat="42.0849411" lon="13.5429641"><ele>786.0</ele><time>2026-05-02T14:05:40.899Z</time></trkpt><trkpt lat="42.0850411" lon="13.5429689"><ele>786.0</ele><time>2026-05-02T14:05:41.898Z</time></trkpt><trkpt lat="42.0851402" lon="13.5429984"><ele>786.0</ele><time>2026-05-02T14:05:42.909Z</time></trkpt><trkpt lat="42.0852276" lon="13.5430257"><ele>787.8</ele><time>2026-05-02T14:05:43.897Z</time></trkpt><trkpt lat="42.0853091" lon="13.5430663"><ele>789.5999999999999</ele><time>2026-05-02T14:05:44.907Z</time></trkpt><trkpt lat="42.0853913" lon="13.5431144"><ele>791.4</ele><time>2026-05-02T14:05:45.894Z</time></trkpt><trkpt lat="42.0854821" lon="13.5431621"><ele>793.2</ele><time>2026-05-02T14:05:46.887Z</time></trkpt><trkpt lat="42.0855692" lon="13.5432105"><ele>795.0</ele><time>2026-05-02T14:05:47.904Z</time></trkpt><trkpt lat="42.0856532" lon="13.5432445"><ele>795.0</ele><time>2026-05-02T14:05:48.901Z</time></trkpt><trkpt lat="42.0857335" lon="13.5432932"><ele>795.0</ele><time>2026-05-02T14:05:49.901Z</time></trkpt><trkpt lat="42.0858324" lon="13.5433354"><ele>795.0</ele><time>2026-05-02T14:05:50.903Z</time></trkpt><trkpt lat="42.0859298" lon="13.5433851"><ele>795.0</ele><time>2026-05-02T14:05:51.902Z</time></trkpt><trkpt lat="42.0860404" lon="13.5434516"><ele>795.0</ele><time>2026-05-02T14:05:52.885Z</time></trkpt><trkpt lat="42.0861831" lon="13.5435027"><ele>794.6666666666667</ele><time>2026-05-02T14:05:53.902Z</time></trkpt><trkpt lat="42.0863319" lon="13.5435448"><ele>794.3333333333334</ele><time>2026-05-02T14:05:54.888Z</time></trkpt><trkpt lat="42.0864865" lon="13.5435773"><ele>794.0</ele><time>2026-05-02T14:05:55.893Z</time></trkpt><trkpt lat="42.0866429" lon="13.5436074"><ele>793.5</ele><time>2026-05-02T14:05:56.89Z</time></trkpt><trkpt lat="42.086783" lon="13.5436126"><ele>793.0</ele><time>2026-05-02T14:05:57.89Z</time></trkpt><trkpt lat="42.0869066" lon="13.5435967"><ele>792.5</ele><time>2026-05-02T14:05:58.888Z</time></trkpt><trkpt lat="42.0870091" lon="13.5435466"><ele>792.0</ele><time>2026-05-02T14:05:59.904Z</time></trkpt><trkpt lat="42.0871078" lon="13.5434576"><ele>792.0</ele><time>2026-05-02T14:06:00.896Z</time></trkpt><trkpt lat="42.0871918" lon="13.5433503"><ele>792.0</ele><time>2026-05-02T14:06:01.894Z</time></trkpt><trkpt lat="42.0872702" lon="13.5432443"><ele>792.0</ele><time>2026-05-02T14:06:02.892Z</time></trkpt><trkpt lat="42.0873161" lon="13.543153"><ele>792.0</ele><time>2026-05-02T14:06:03.901Z</time></trkpt><trkpt lat="42.0873621" lon="13.5430787"><ele>792.0</ele><time>2026-05-02T14:06:04.898Z</time></trkpt><trkpt lat="42.0874044" lon="13.5430139"><ele>792.0</ele><time>2026-05-02T14:06:05.897Z</time></trkpt><trkpt lat="42.0874962" lon="13.5428776"><ele>792.0</ele><time>2026-05-02T14:06:07.903Z</time></trkpt><trkpt lat="42.0875354" lon="13.5427915"><ele>792.0</ele><time>2026-05-02T14:06:08.902Z</time></trkpt><trkpt lat="42.0875734" lon="13.54271"><ele>792.0</ele><time>2026-05-02T14:06:09.897Z</time></trkpt><trkpt lat="42.0876221" lon="13.5426505"><ele>792.0</ele><time>2026-05-02T14:06:11.883Z</time></trkpt><trkpt lat="42.0876852" lon="13.5425685"><ele>792.0</ele><time>2026-05-02T14:06:18.901Z</time></trkpt><trkpt lat="42.0877319" lon="13.54248"><ele>792.0</ele><time>2026-05-02T14:06:19.898Z</time></trkpt><trkpt lat="42.0877852" lon="13.5423759"><ele>792.0</ele><time>2026-05-02T14:06:20.909Z</time></trkpt><trkpt lat="42.0878605" lon="13.5422806"><ele>792.0</ele><time>2026-05-02T14:06:21.898Z</time></trkpt><trkpt lat="42.087965" lon="13.5421802"><ele>792.0</ele><time>2026-05-02T14:06:22.912Z</time></trkpt><trkpt lat="42.0880759" lon="13.5420745"><ele>792.0</ele><time>2026-05-02T14:06:23.892Z</time></trkpt><trkpt lat="42.0882023" lon="13.5419899"><ele>792.8</ele><time>2026-05-02T14:06:24.902Z</time></trkpt><trkpt lat="42.0883094" lon="13.5419417"><ele>793.6</ele><time>2026-05-02T14:06:25.905Z</time></trkpt><trkpt lat="42.0884089" lon="13.5418868"><ele>794.4</ele><time>2026-05-02T14:06:26.9Z</time></trkpt><trkpt lat="42.0885047" lon="13.5418288"><ele>795.1999999999999</ele><time>2026-05-02T14:06:27.902Z</time></trkpt><trkpt lat="42.0885842" lon="13.5417695"><ele>796.0</ele><time>2026-05-02T14:06:28.896Z</time></trkpt><trkpt lat="42.0886384" lon="13.5416877"><ele>795.9999999999999</ele><time>2026-05-02T14:06:29.899Z</time></trkpt><trkpt lat="42.0886732" lon="13.5415838"><ele>796.0</ele><time>2026-05-02T14:06:30.903Z</time></trkpt><trkpt lat="42.0886778" lon="13.5414775"><ele>796.0</ele><time>2026-05-02T14:06:31.901Z</time></trkpt><trkpt lat="42.0886697" lon="13.5413695"><ele>796.0</ele><time>2026-05-02T14:06:32.902Z</time></trkpt><trkpt lat="42.0886454" lon="13.541254"><ele>795.9999999999999</ele><time>2026-05-02T14:06:33.903Z</time></trkpt><trkpt lat="42.0886075" lon="13.5411371"><ele>796.0</ele><time>2026-05-02T14:06:34.896Z</time></trkpt><trkpt lat="42.0885547" lon="13.5410155"><ele>795.8333333333333</ele><time>2026-05-02T14:06:35.901Z</time></trkpt><trkpt lat="42.0885006" lon="13.5409032"><ele>795.6666666666666</ele><time>2026-05-02T14:06:36.89Z</time></trkpt><trkpt lat="42.088443" lon="13.5407989"><ele>795.5</ele><time>2026-05-02T14:06:37.896Z</time></trkpt><trkpt lat="42.0883951" lon="13.5407078"><ele>795.3333333333333</ele><time>2026-05-02T14:06:38.895Z</time></trkpt><trkpt lat="42.0883547" lon="13.5406068"><ele>795.1666666666666</ele><time>2026-05-02T14:06:39.896Z</time></trkpt><trkpt lat="42.0883239" lon="13.5405011"><ele>795.0</ele><time>2026-05-02T14:06:40.91Z</time></trkpt><trkpt lat="42.0883043" lon="13.5403802"><ele>794.75</ele><time>2026-05-02T14:06:41.89Z</time></trkpt><trkpt lat="42.0882891" lon="13.5402296"><ele>794.5</ele><time>2026-05-02T14:06:42.903Z</time></trkpt><trkpt lat="42.0882859" lon="13.5400706"><ele>794.25</ele><time>2026-05-02T14:06:43.896Z</time></trkpt><trkpt lat="42.0882884" lon="13.5399"><ele>794.0</ele><time>2026-05-02T14:06:44.911Z</time></trkpt><trkpt lat="42.0882893" lon="13.5397338"><ele>794.0</ele><time>2026-05-02T14:06:45.897Z</time></trkpt><trkpt lat="42.0882987" lon="13.5395832"><ele>794.0</ele><time>2026-05-02T14:06:46.901Z</time></trkpt><trkpt lat="42.0883163" lon="13.5394464"><ele>794.0</ele><time>2026-05-02T14:06:47.906Z</time></trkpt><trkpt lat="42.0883341" lon="13.5393267"><ele>794.0</ele><time>2026-05-02T14:06:48.901Z</time></trkpt><trkpt lat="42.0883544" lon="13.5392131"><ele>794.0</ele><time>2026-05-02T14:06:49.903Z</time></trkpt><trkpt lat="42.0883645" lon="13.5391073"><ele>794.0000000000001</ele><time>2026-05-02T14:06:50.902Z</time></trkpt><trkpt lat="42.0883669" lon="13.5390036"><ele>794.0</ele><time>2026-05-02T14:06:51.904Z</time></trkpt><trkpt lat="42.0883586" lon="13.5389134"><ele>794.0</ele><time>2026-05-02T14:06:52.901Z</time></trkpt><trkpt lat="42.0883451" lon="13.5387621"><ele>794.0</ele><time>2026-05-02T14:06:54.9Z</time></trkpt><trkpt lat="42.0883237" lon="13.5386539"><ele>794.0000000000001</ele><time>2026-05-02T14:06:56.884Z</time></trkpt><trkpt lat="42.0883468" lon="13.53857"><ele>794.0</ele><time>2026-05-02T14:06:59.9Z</time></trkpt><trkpt lat="42.088419" lon="13.5385437"><ele>794.0</ele><time>2026-05-02T14:07:01.888Z</time></trkpt><trkpt lat="42.0885067" lon="13.5384804"><ele>794.0</ele><time>2026-05-02T14:07:03.892Z</time></trkpt><trkpt lat="42.0886287" lon="13.5384394"><ele>794.0</ele><time>2026-05-02T14:07:05.895Z</time></trkpt><trkpt lat="42.0886922" lon="13.5384152"><ele>794.0</ele><time>2026-05-02T14:07:06.897Z</time></trkpt><trkpt lat="42.0887549" lon="13.5383896"><ele>794.0</ele><time>2026-05-02T14:07:07.896Z</time></trkpt><trkpt lat="42.0888516" lon="13.5383327"><ele>794.0000000000001</ele><time>2026-05-02T14:07:09.897Z</time></trkpt><trkpt lat="42.0889215" lon="13.5382488"><ele>794.0</ele><time>2026-05-02T14:07:11.892Z</time></trkpt><trkpt lat="42.088979" lon="13.5381457"><ele>794.0</ele><time>2026-05-02T14:07:13.902Z</time></trkpt><trkpt lat="42.0890329" lon="13.5380215"><ele>794.0</ele><time>2026-05-02T14:07:15.899Z</time></trkpt><trkpt lat="42.0890705" lon="13.5379466"><ele>794.0000000000001</ele><time>2026-05-02T14:07:16.897Z</time></trkpt><trkpt lat="42.089107" lon="13.5378687"><ele>794.0</ele><time>2026-05-02T14:07:17.895Z</time></trkpt><trkpt lat="42.0891495" lon="13.5377868"><ele>795.5000000000001</ele><time>2026-05-02T14:07:18.886Z</time></trkpt><trkpt lat="42.0891924" lon="13.5377026"><ele>797.0</ele><time>2026-05-02T14:07:19.891Z</time></trkpt><trkpt lat="42.0892399" lon="13.5376211"><ele>798.5</ele><time>2026-05-02T14:07:20.9Z</time></trkpt><trkpt lat="42.0892975" lon="13.537552"><ele>800.0</ele><time>2026-05-02T14:07:21.89Z</time></trkpt><trkpt lat="42.0893651" lon="13.537479"><ele>801.5000000000001</ele><time>2026-05-02T14:07:22.906Z</time></trkpt><trkpt lat="42.0894314" lon="13.5374116"><ele>803.0</ele><time>2026-05-02T14:07:23.887Z</time></trkpt><trkpt lat="42.0894918" lon="13.537348"><ele>802.9999999999999</ele><time>2026-05-02T14:07:24.885Z</time></trkpt><trkpt lat="42.0895487" lon="13.5372894"><ele>803.0</ele><time>2026-05-02T14:07:25.902Z</time></trkpt><trkpt lat="42.0896052" lon="13.5372299"><ele>803.0</ele><time>2026-05-02T14:07:26.908Z</time></trkpt><trkpt lat="42.0896561" lon="13.5371712"><ele>803.0</ele><time>2026-05-02T14:07:27.894Z</time></trkpt><trkpt lat="42.089709" lon="13.5371077"><ele>803.0</ele><time>2026-05-02T14:07:28.89Z</time></trkpt><trkpt lat="42.0897649" lon="13.5370387"><ele>802.9999999999999</ele><time>2026-05-02T14:07:29.89Z</time></trkpt><trkpt lat="42.0898262" lon="13.5369722"><ele>803.0</ele><time>2026-05-02T14:07:30.887Z</time></trkpt><trkpt lat="42.0898856" lon="13.5369002"><ele>804.2857142857142</ele><time>2026-05-02T14:07:31.888Z</time></trkpt><trkpt lat="42.0899416" lon="13.5368307"><ele>805.5714285714286</ele><time>2026-05-02T14:07:32.893Z</time></trkpt><trkpt lat="42.0899943" lon="13.5367574"><ele>806.8571428571429</ele><time>2026-05-02T14:07:33.893Z</time></trkpt><trkpt lat="42.0900465" lon="13.5366849"><ele>808.1428571428571</ele><time>2026-05-02T14:07:34.912Z</time></trkpt><trkpt lat="42.0900966" lon="13.536615"><ele>809.4285714285714</ele><time>2026-05-02T14:07:35.901Z</time></trkpt><trkpt lat="42.0901469" lon="13.5365461"><ele>810.7142857142857</ele><time>2026-05-02T14:07:36.903Z</time></trkpt><trkpt lat="42.0901955" lon="13.5364885"><ele>812.0</ele><time>2026-05-02T14:07:37.891Z</time></trkpt><trkpt lat="42.0902713" lon="13.536391"><ele>812.0</ele><time>2026-05-02T14:07:39.904Z</time></trkpt><trkpt lat="42.090292" lon="13.5362332"><ele>812.0</ele><time>2026-05-02T14:07:41.901Z</time></trkpt><trkpt lat="42.0902788" lon="13.5361183"><ele>812.0</ele><time>2026-05-02T14:07:42.901Z</time></trkpt><trkpt lat="42.0902553" lon="13.535997"><ele>812.0</ele><time>2026-05-02T14:07:43.901Z</time></trkpt><trkpt lat="42.0902292" lon="13.5358732"><ele>812.0</ele><time>2026-05-02T14:07:44.896Z</time></trkpt><trkpt lat="42.0902148" lon="13.5357769"><ele>811.3333333333334</ele><time>2026-05-02T14:07:45.911Z</time></trkpt><trkpt lat="42.0901997" lon="13.5356884"><ele>810.6666666666667</ele><time>2026-05-02T14:07:46.907Z</time></trkpt><trkpt lat="42.090185" lon="13.535599"><ele>810.0</ele><time>2026-05-02T14:07:47.902Z</time></trkpt><trkpt lat="42.090186" lon="13.5354371"><ele>809.3333333333333</ele><time>2026-05-02T14:07:49.903Z</time></trkpt><trkpt lat="42.0901925" lon="13.5353348"><ele>808.6666666666666</ele><time>2026-05-02T14:07:50.9Z</time></trkpt><trkpt lat="42.0902102" lon="13.5352477"><ele>808.0</ele><time>2026-05-02T14:07:51.905Z</time></trkpt><trkpt lat="42.0902209" lon="13.5351599"><ele>807.9999999999999</ele><time>2026-05-02T14:07:52.895Z</time></trkpt><trkpt lat="42.0902403" lon="13.5350723"><ele>808.0</ele><time>2026-05-02T14:07:53.891Z</time></trkpt><trkpt lat="42.0902603" lon="13.5349145"><ele>808.0</ele><time>2026-05-02T14:07:55.893Z</time></trkpt><trkpt lat="42.0902628" lon="13.5348263"><ele>808.0</ele><time>2026-05-02T14:07:56.896Z</time></trkpt><trkpt lat="42.0902693" lon="13.5347337"><ele>807.9999999999999</ele><time>2026-05-02T14:07:57.913Z</time></trkpt><trkpt lat="42.0902733" lon="13.5346407"><ele>808.0</ele><time>2026-05-02T14:07:58.887Z</time></trkpt><trkpt lat="42.0902964" lon="13.5345489"><ele>808.0</ele><time>2026-05-02T14:07:59.9Z</time></trkpt><trkpt lat="42.0903382" lon="13.53446"><ele>808.0</ele><time>2026-05-02T14:08:00.907Z</time></trkpt><trkpt lat="42.0904008" lon="13.5343544"><ele>808.0</ele><time>2026-05-02T14:08:01.903Z</time></trkpt><trkpt lat="42.0904795" lon="13.5342215"><ele>808.0</ele><time>2026-05-02T14:08:02.91Z</time></trkpt><trkpt lat="42.0905654" lon="13.534089"><ele>808.0</ele><time>2026-05-02T14:08:03.9Z</time></trkpt><trkpt lat="42.0906612" lon="13.5339165"><ele>810.0</ele><time>2026-05-02T14:08:04.922Z</time></trkpt><trkpt lat="42.0907652" lon="13.5337286"><ele>812.0</ele><time>2026-05-02T14:08:05.9Z</time></trkpt><trkpt lat="42.0908728" lon="13.5335379"><ele>814.0</ele><time>2026-05-02T14:08:06.893Z</time></trkpt><trkpt lat="42.0909676" lon="13.5333502"><ele>814.0</ele><time>2026-05-02T14:08:07.899Z</time></trkpt><trkpt lat="42.0910467" lon="13.5331643"><ele>814.0</ele><time>2026-05-02T14:08:08.906Z</time></trkpt><trkpt lat="42.0911193" lon="13.5330049"><ele>814.0</ele><time>2026-05-02T14:08:09.902Z</time></trkpt><trkpt lat="42.0911972" lon="13.532855"><ele>814.0</ele><time>2026-05-02T14:08:10.901Z</time></trkpt><trkpt lat="42.0912978" lon="13.5327082"><ele>814.25</ele><time>2026-05-02T14:08:11.895Z</time></trkpt><trkpt lat="42.0914101" lon="13.532584"><ele>814.5</ele><time>2026-05-02T14:08:12.896Z</time></trkpt><trkpt lat="42.0915116" lon="13.532457"><ele>814.75</ele><time>2026-05-02T14:08:13.886Z</time></trkpt><trkpt lat="42.0916127" lon="13.5323082"><ele>815.0</ele><time>2026-05-02T14:08:14.892Z</time></trkpt><trkpt lat="42.0917159" lon="13.5321584"><ele>816.6666666666667</ele><time>2026-05-02T14:08:15.915Z</time></trkpt><trkpt lat="42.0918158" lon="13.5319854"><ele>818.3333333333333</ele><time>2026-05-02T14:08:16.897Z</time></trkpt><trkpt lat="42.0919004" lon="13.5317878"><ele>820.0</ele><time>2026-05-02T14:08:17.898Z</time></trkpt><trkpt lat="42.0919602" lon="13.5316027"><ele>820.0</ele><time>2026-05-02T14:08:18.904Z</time></trkpt><trkpt lat="42.0920083" lon="13.5314079"><ele>820.0</ele><time>2026-05-02T14:08:19.899Z</time></trkpt><trkpt lat="42.0920536" lon="13.5311964"><ele>820.0</ele><time>2026-05-02T14:08:20.909Z</time></trkpt><trkpt lat="42.0920952" lon="13.5309807"><ele>819.3333333333333</ele><time>2026-05-02T14:08:21.898Z</time></trkpt><trkpt lat="42.0921464" lon="13.530768"><ele>818.6666666666667</ele><time>2026-05-02T14:08:22.896Z</time></trkpt><trkpt lat="42.0922" lon="13.5305589"><ele>818.0</ele><time>2026-05-02T14:08:23.89Z</time></trkpt><trkpt lat="42.0922603" lon="13.5303636"><ele>817.75</ele><time>2026-05-02T14:08:24.882Z</time></trkpt><trkpt lat="42.0923219" lon="13.5301829"><ele>817.5</ele><time>2026-05-02T14:08:25.886Z</time></trkpt><trkpt lat="42.0923926" lon="13.5300098"><ele>817.25</ele><time>2026-05-02T14:08:26.889Z</time></trkpt><trkpt lat="42.0924659" lon="13.5298351"><ele>817.0</ele><time>2026-05-02T14:08:27.904Z</time></trkpt><trkpt lat="42.0925375" lon="13.5296577"><ele>819.6666666666666</ele><time>2026-05-02T14:08:28.908Z</time></trkpt><trkpt lat="42.0926133" lon="13.5294761"><ele>822.3333333333333</ele><time>2026-05-02T14:08:29.895Z</time></trkpt><trkpt lat="42.0926873" lon="13.5292923"><ele>825.0</ele><time>2026-05-02T14:08:30.901Z</time></trkpt><trkpt lat="42.0927579" lon="13.5290928"><ele>825.0</ele><time>2026-05-02T14:08:31.894Z</time></trkpt><trkpt lat="42.0928214" lon="13.5288998"><ele>825.0</ele><time>2026-05-02T14:08:32.896Z</time></trkpt><trkpt lat="42.0928813" lon="13.52872"><ele>825.0</ele><time>2026-05-02T14:08:33.885Z</time></trkpt><trkpt lat="42.0929454" lon="13.5285561"><ele>825.0</ele><time>2026-05-02T14:08:34.899Z</time></trkpt><trkpt lat="42.0930091" lon="13.52841"><ele>824.0</ele><time>2026-05-02T14:08:35.901Z</time></trkpt><trkpt lat="42.0930665" lon="13.5282677"><ele>823.0</ele><time>2026-05-02T14:08:36.891Z</time></trkpt><trkpt lat="42.0931346" lon="13.5281603"><ele>822.0</ele><time>2026-05-02T14:08:37.887Z</time></trkpt><trkpt lat="42.0932199" lon="13.5280471"><ele>821.0</ele><time>2026-05-02T14:08:38.904Z</time></trkpt><trkpt lat="42.0933167" lon="13.5279408"><ele>822.75</ele><time>2026-05-02T14:08:39.888Z</time></trkpt><trkpt lat="42.093412" lon="13.5278311"><ele>824.5</ele><time>2026-05-02T14:08:40.917Z</time></trkpt><trkpt lat="42.0935101" lon="13.5277392"><ele>826.25</ele><time>2026-05-02T14:08:41.9Z</time></trkpt><trkpt lat="42.0936029" lon="13.5276617"><ele>828.0</ele><time>2026-05-02T14:08:42.906Z</time></trkpt><trkpt lat="42.0936967" lon="13.5276004"><ele>828.0</ele><time>2026-05-02T14:08:43.899Z</time></trkpt><trkpt lat="42.0937706" lon="13.5275522"><ele>828.0</ele><time>2026-05-02T14:08:44.893Z</time></trkpt><trkpt lat="42.0938304" lon="13.527442"><ele>828.0</ele><time>2026-05-02T14:08:46.9Z</time></trkpt><trkpt lat="42.0938516" lon="13.5272664"><ele>828.0</ele><time>2026-05-02T14:08:48.899Z</time></trkpt><trkpt lat="42.0938664" lon="13.527139"><ele>828.0</ele><time>2026-05-02T14:08:49.879Z</time></trkpt><trkpt lat="42.0938788" lon="13.5269985"><ele>827.5999999999999</ele><time>2026-05-02T14:08:50.908Z</time></trkpt><trkpt lat="42.0938872" lon="13.5268541"><ele>827.1999999999999</ele><time>2026-05-02T14:08:51.898Z</time></trkpt><trkpt lat="42.093898" lon="13.5267149"><ele>826.8</ele><time>2026-05-02T14:08:52.908Z</time></trkpt><trkpt lat="42.0939261" lon="13.5265603"><ele>826.4</ele><time>2026-05-02T14:08:53.885Z</time></trkpt><trkpt lat="42.0939598" lon="13.5264057"><ele>826.0</ele><time>2026-05-02T14:08:54.895Z</time></trkpt><trkpt lat="42.0939985" lon="13.5262507"><ele>827.0</ele><time>2026-05-02T14:08:55.893Z</time></trkpt><trkpt lat="42.0940237" lon="13.5261023"><ele>828.0</ele><time>2026-05-02T14:08:56.888Z</time></trkpt><trkpt lat="42.0940534" lon="13.5259719"><ele>829.0</ele><time>2026-05-02T14:08:57.905Z</time></trkpt><trkpt lat="42.094088" lon="13.5258541"><ele>830.0</ele><time>2026-05-02T14:08:58.882Z</time></trkpt><trkpt lat="42.0941232" lon="13.5257364"><ele>831.0</ele><time>2026-05-02T14:08:59.902Z</time></trkpt><trkpt lat="42.0941543" lon="13.5256212"><ele>831.0</ele><time>2026-05-02T14:09:00.898Z</time></trkpt><trkpt lat="42.0941902" lon="13.5255229"><ele>831.0</ele><time>2026-05-02T14:09:01.889Z</time></trkpt><trkpt lat="42.0942029" lon="13.5254306"><ele>831.0</ele><time>2026-05-02T14:09:02.907Z</time></trkpt><trkpt lat="42.0942229" lon="13.5253188"><ele>831.0</ele><time>2026-05-02T14:09:03.878Z</time></trkpt><trkpt lat="42.0942748" lon="13.5252161"><ele>831.0</ele><time>2026-05-02T14:09:04.9Z</time></trkpt><trkpt lat="42.0943469" lon="13.5251247"><ele>831.0</ele><time>2026-05-02T14:09:05.886Z</time></trkpt><trkpt lat="42.0944267" lon="13.5250279"><ele>827.5</ele><time>2026-05-02T14:09:06.889Z</time></trkpt><trkpt lat="42.0945136" lon="13.5249241"><ele>824.0</ele><time>2026-05-02T14:09:07.896Z</time></trkpt><trkpt lat="42.0946083" lon="13.5248152"><ele>820.5</ele><time>2026-05-02T14:09:08.891Z</time></trkpt><trkpt lat="42.0946982" lon="13.5247228"><ele>817.0</ele><time>2026-05-02T14:09:09.884Z</time></trkpt><trkpt lat="42.0947862" lon="13.5246299"><ele>817.8</ele><time>2026-05-02T14:09:10.904Z</time></trkpt><trkpt lat="42.09486" lon="13.5245427"><ele>818.6</ele><time>2026-05-02T14:09:11.915Z</time></trkpt><trkpt lat="42.0949309" lon="13.5244683"><ele>819.4</ele><time>2026-05-02T14:09:12.897Z</time></trkpt><trkpt lat="42.0950106" lon="13.5243992"><ele>820.1999999999999</ele><time>2026-05-02T14:09:13.913Z</time></trkpt><trkpt lat="42.0951138" lon="13.5243106"><ele>821.0</ele><time>2026-05-02T14:09:14.887Z</time></trkpt><trkpt lat="42.0952264" lon="13.5242164"><ele>821.0</ele><time>2026-05-02T14:09:15.885Z</time></trkpt><trkpt lat="42.0953333" lon="13.5241009"><ele>821.0</ele><time>2026-05-02T14:09:16.904Z</time></trkpt><trkpt lat="42.0954364" lon="13.5239942"><ele>821.0</ele><time>2026-05-02T14:09:17.886Z</time></trkpt><trkpt lat="42.095543" lon="13.5238932"><ele>821.0</ele><time>2026-05-02T14:09:18.9Z</time></trkpt><trkpt lat="42.0956343" lon="13.5238122"><ele>821.0</ele><time>2026-05-02T14:09:19.898Z</time></trkpt><trkpt lat="42.0957002" lon="13.5237315"><ele>821.0</ele><time>2026-05-02T14:09:20.894Z</time></trkpt><trkpt lat="42.0957479" lon="13.5236564"><ele>821.0</ele><time>2026-05-02T14:09:21.905Z</time></trkpt><trkpt lat="42.0958064" lon="13.5235602"><ele>821.0</ele><time>2026-05-02T14:09:22.906Z</time></trkpt><trkpt lat="42.0958523" lon="13.523451"><ele>821.0</ele><time>2026-05-02T14:09:23.887Z</time></trkpt><trkpt lat="42.0958893" lon="13.5233232"><ele>822.5999999999999</ele><time>2026-05-02T14:09:24.895Z</time></trkpt><trkpt lat="42.0959158" lon="13.5231961"><ele>824.2</ele><time>2026-05-02T14:09:25.889Z</time></trkpt><trkpt lat="42.0959666" lon="13.5230665"><ele>825.8</ele><time>2026-05-02T14:09:26.888Z</time></trkpt><trkpt lat="42.0960082" lon="13.5229215"><ele>827.4000000000001</ele><time>2026-05-02T14:09:27.887Z</time></trkpt><trkpt lat="42.0960337" lon="13.5227785"><ele>829.0</ele><time>2026-05-02T14:09:28.887Z</time></trkpt><trkpt lat="42.0960571" lon="13.5226689"><ele>829.6666666666666</ele><time>2026-05-02T14:09:29.891Z</time></trkpt><trkpt lat="42.0960917" lon="13.5225702"><ele>830.3333333333333</ele><time>2026-05-02T14:09:30.89Z</time></trkpt><trkpt lat="42.0961231" lon="13.5224811"><ele>831.0</ele><time>2026-05-02T14:09:31.879Z</time></trkpt><trkpt lat="42.0961546" lon="13.5223848"><ele>831.6666666666667</ele><time>2026-05-02T14:09:32.883Z</time></trkpt><trkpt lat="42.0961862" lon="13.5222865"><ele>832.3333333333334</ele><time>2026-05-02T14:09:33.894Z</time></trkpt><trkpt lat="42.0962228" lon="13.5221966"><ele>833.0</ele><time>2026-05-02T14:09:34.904Z</time></trkpt><trkpt lat="42.0962722" lon="13.5221003"><ele>833.3333333333334</ele><time>2026-05-02T14:09:35.888Z</time></trkpt><trkpt lat="42.0963248" lon="13.5220011"><ele>833.6666666666667</ele><time>2026-05-02T14:09:36.898Z</time></trkpt><trkpt lat="42.0963613" lon="13.5219256"><ele>834.0</ele><time>2026-05-02T14:09:37.894Z</time></trkpt><trkpt lat="42.0963088" lon="13.5218342"><ele>834.3333333333333</ele><time>2026-05-02T14:09:40.892Z</time></trkpt><trkpt lat="42.0962458" lon="13.5217724"><ele>834.6666666666666</ele><time>2026-05-02T14:09:43.899Z</time></trkpt><trkpt lat="42.0962772" lon="13.5216528"><ele>835.0</ele><time>2026-05-02T14:09:47.895Z</time></trkpt><trkpt lat="42.0963234" lon="13.521558"><ele>834.9999999999999</ele><time>2026-05-02T14:09:49.884Z</time></trkpt><trkpt lat="42.0963334" lon="13.5214569"><ele>835.0</ele><time>2026-05-02T14:09:51.889Z</time></trkpt><trkpt lat="42.0963586" lon="13.5213446"><ele>835.0</ele><time>2026-05-02T14:09:53.892Z</time></trkpt><trkpt lat="42.0963888" lon="13.5212662"><ele>835.0</ele><time>2026-05-02T14:09:55.897Z</time></trkpt><trkpt lat="42.0964244" lon="13.5211735"><ele>834.9999999999999</ele><time>2026-05-02T14:09:58.889Z</time></trkpt><trkpt lat="42.0964562" lon="13.5210875"><ele>835.0</ele><time>2026-05-02T14:10:00.891Z</time></trkpt><trkpt lat="42.0965269" lon="13.5209971"><ele>834.8333333333333</ele><time>2026-05-02T14:10:02.886Z</time></trkpt><trkpt lat="42.096575" lon="13.5209031"><ele>834.6666666666666</ele><time>2026-05-02T14:10:04.516Z</time></trkpt><trkpt lat="42.0966318" lon="13.5208192"><ele>834.5</ele><time>2026-05-02T14:10:05.885Z</time></trkpt><trkpt lat="42.0966845" lon="13.5207313"><ele>834.3333333333333</ele><time>2026-05-02T14:10:07.9Z</time></trkpt><trkpt lat="42.0967337" lon="13.5206536"><ele>834.1666666666666</ele><time>2026-05-02T14:10:09.894Z</time></trkpt><trkpt lat="42.0967767" lon="13.520581"><ele>834.0</ele><time>2026-05-02T14:10:11.888Z</time></trkpt><trkpt lat="42.0968401" lon="13.520487"><ele>835.6</ele><time>2026-05-02T14:10:13.891Z</time></trkpt><trkpt lat="42.0969003" lon="13.5203891"><ele>837.2</ele><time>2026-05-02T14:10:15.897Z</time></trkpt><trkpt lat="42.0969764" lon="13.5202813"><ele>838.8000000000001</ele><time>2026-05-02T14:10:17.894Z</time></trkpt><trkpt lat="42.0970762" lon="13.5202013"><ele>840.4000000000001</ele><time>2026-05-02T14:10:19.897Z</time></trkpt><trkpt lat="42.0971842" lon="13.5201429"><ele>842.0</ele><time>2026-05-02T14:10:21.88Z</time></trkpt><trkpt lat="42.0972781" lon="13.5201135"><ele>842.0000000000001</ele><time>2026-05-02T14:10:23.891Z</time></trkpt><trkpt lat="42.0973517" lon="13.5200819"><ele>842.0</ele><time>2026-05-02T14:10:26.899Z</time></trkpt><trkpt lat="42.0974149" lon="13.520045"><ele>842.0</ele><time>2026-05-02T14:10:29.89Z</time></trkpt><trkpt lat="42.0974233" lon="13.5199589"><ele>842.0</ele><time>2026-05-02T14:10:32.887Z</time></trkpt><trkpt lat="42.0973914" lon="13.5198397"><ele>842.0000000000001</ele><time>2026-05-02T14:10:35.881Z</time></trkpt><trkpt lat="42.0973566" lon="13.5197249"><ele>842.0</ele><time>2026-05-02T14:10:37.882Z</time></trkpt><trkpt lat="42.0973453" lon="13.5196398"><ele>844.1666666666667</ele><time>2026-05-02T14:10:39.885Z</time></trkpt><trkpt lat="42.0973416" lon="13.5195382"><ele>846.3333333333334</ele><time>2026-05-02T14:10:41.888Z</time></trkpt><trkpt lat="42.0973109" lon="13.5194557"><ele>848.5</ele><time>2026-05-02T14:10:43.897Z</time></trkpt><trkpt lat="42.0972874" lon="13.5193466"><ele>850.6666666666667</ele><time>2026-05-02T14:10:45.896Z</time></trkpt><trkpt lat="42.0972642" lon="13.5192484"><ele>852.8333333333334</ele><time>2026-05-02T14:10:47.884Z</time></trkpt><trkpt lat="42.0972075" lon="13.5191616"><ele>855.0</ele><time>2026-05-02T14:10:49.884Z</time></trkpt><trkpt lat="42.0971772" lon="13.5190379"><ele>855.0</ele><time>2026-05-02T14:10:51.885Z</time></trkpt><trkpt lat="42.0972041" lon="13.5189059"><ele>855.0</ele><time>2026-05-02T14:10:53.887Z</time></trkpt><trkpt lat="42.0972458" lon="13.5187359"><ele>855.0</ele><time>2026-05-02T14:10:55.877Z</time></trkpt><trkpt lat="42.0972745" lon="13.5186303"><ele>855.0</ele><time>2026-05-02T14:10:56.898Z</time></trkpt><trkpt lat="42.0973081" lon="13.518514"><ele>855.0</ele><time>2026-05-02T14:10:57.882Z</time></trkpt><trkpt lat="42.097348" lon="13.5183906"><ele>857.8</ele><time>2026-05-02T14:10:58.903Z</time></trkpt><trkpt lat="42.0973967" lon="13.5182641"><ele>860.6</ele><time>2026-05-02T14:10:59.884Z</time></trkpt><trkpt lat="42.0974522" lon="13.5181509"><ele>863.4000000000001</ele><time>2026-05-02T14:11:00.878Z</time></trkpt><trkpt lat="42.0974961" lon="13.5180531"><ele>866.2</ele><time>2026-05-02T14:11:01.883Z</time></trkpt><trkpt lat="42.0975564" lon="13.5179494"><ele>869.0</ele><time>2026-05-02T14:11:02.896Z</time></trkpt><trkpt lat="42.0976179" lon="13.5178261"><ele>870.75</ele><time>2026-05-02T14:11:03.895Z</time></trkpt><trkpt lat="42.0976865" lon="13.5176822"><ele>872.5</ele><time>2026-05-02T14:11:04.894Z</time></trkpt><trkpt lat="42.0977471" lon="13.5175408"><ele>874.25</ele><time>2026-05-02T14:11:05.895Z</time></trkpt><trkpt lat="42.0978125" lon="13.5174048"><ele>876.0</ele><time>2026-05-02T14:11:06.908Z</time></trkpt><trkpt lat="42.0978699" lon="13.5172698"><ele>876.0</ele><time>2026-05-02T14:11:07.896Z</time></trkpt><trkpt lat="42.0979218" lon="13.5171413"><ele>875.9999999999999</ele><time>2026-05-02T14:11:08.9Z</time></trkpt><trkpt lat="42.0979604" lon="13.5170139"><ele>875.9999999999999</ele><time>2026-05-02T14:11:09.884Z</time></trkpt><trkpt lat="42.0979845" lon="13.5168932"><ele>876.0</ele><time>2026-05-02T14:11:10.904Z</time></trkpt><trkpt lat="42.098005" lon="13.5167602"><ele>876.0</ele><time>2026-05-02T14:11:11.882Z</time></trkpt><trkpt lat="42.0980308" lon="13.5166136"><ele>876.0</ele><time>2026-05-02T14:11:12.897Z</time></trkpt><trkpt lat="42.098051" lon="13.5164509"><ele>876.0</ele><time>2026-05-02T14:11:13.896Z</time></trkpt><trkpt lat="42.0980811" lon="13.516291"><ele>876.0</ele><time>2026-05-02T14:11:14.885Z</time></trkpt><trkpt lat="42.0981171" lon="13.5161407"><ele>876.0</ele><time>2026-05-02T14:11:15.888Z</time></trkpt><trkpt lat="42.0981631" lon="13.5159985"><ele>877.5999999999999</ele><time>2026-05-02T14:11:16.89Z</time></trkpt><trkpt lat="42.0982148" lon="13.515885"><ele>879.1999999999999</ele><time>2026-05-02T14:11:17.89Z</time></trkpt><trkpt lat="42.0982735" lon="13.5157853"><ele>880.8000000000001</ele><time>2026-05-02T14:11:18.892Z</time></trkpt><trkpt lat="42.0983446" lon="13.5156866"><ele>882.4000000000001</ele><time>2026-05-02T14:11:19.903Z</time></trkpt><trkpt lat="42.0984217" lon="13.5155856"><ele>884.0</ele><time>2026-05-02T14:11:20.886Z</time></trkpt><trkpt lat="42.0984884" lon="13.5154668"><ele>889.25</ele><time>2026-05-02T14:11:21.903Z</time></trkpt><trkpt lat="42.098551" lon="13.515334"><ele>894.5</ele><time>2026-05-02T14:11:22.895Z</time></trkpt><trkpt lat="42.0986116" lon="13.5151988"><ele>899.75</ele><time>2026-05-02T14:11:23.898Z</time></trkpt><trkpt lat="42.0986842" lon="13.5150527"><ele>905.0</ele><time>2026-05-02T14:11:24.892Z</time></trkpt><trkpt lat="42.0987625" lon="13.5149089"><ele>905.0</ele><time>2026-05-02T14:11:25.9Z</time></trkpt><trkpt lat="42.0988266" lon="13.5147595"><ele>905.0</ele><time>2026-05-02T14:11:26.889Z</time></trkpt><trkpt lat="42.098891" lon="13.5146125"><ele>905.0</ele><time>2026-05-02T14:11:27.888Z</time></trkpt><trkpt lat="42.0989319" lon="13.5144979"><ele>905.0</ele><time>2026-05-02T14:11:28.897Z</time></trkpt><trkpt lat="42.0989484" lon="13.5144017"><ele>905.0</ele><time>2026-05-02T14:11:29.896Z</time></trkpt><trkpt lat="42.0989177" lon="13.5142557"><ele>906.0</ele><time>2026-05-02T14:11:31.878Z</time></trkpt><trkpt lat="42.0988282" lon="13.5141452"><ele>907.0</ele><time>2026-05-02T14:11:33.901Z</time></trkpt><trkpt lat="42.0987764" lon="13.514052"><ele>908.0</ele><time>2026-05-02T14:11:34.899Z</time></trkpt><trkpt lat="42.0987354" lon="13.5139576"><ele>909.0</ele><time>2026-05-02T14:11:35.889Z</time></trkpt><trkpt lat="42.0986884" lon="13.513822"><ele>910.0</ele><time>2026-05-02T14:11:36.913Z</time></trkpt><trkpt lat="42.0986427" lon="13.5136778"><ele>912.75</ele><time>2026-05-02T14:11:37.894Z</time></trkpt><trkpt lat="42.0985973" lon="13.5135263"><ele>915.5</ele><time>2026-05-02T14:11:38.894Z</time></trkpt><trkpt lat="42.0985562" lon="13.5133764"><ele>918.25</ele><time>2026-05-02T14:11:39.893Z</time></trkpt><trkpt lat="42.0985385" lon="13.5132264"><ele>921.0</ele><time>2026-05-02T14:11:40.904Z</time></trkpt><trkpt lat="42.0985367" lon="13.5130807"><ele>921.0</ele><time>2026-05-02T14:11:41.884Z</time></trkpt><trkpt lat="42.0985241" lon="13.5129469"><ele>920.9999999999999</ele><time>2026-05-02T14:11:42.906Z</time></trkpt><trkpt lat="42.0984913" lon="13.5128185"><ele>920.9999999999999</ele><time>2026-05-02T14:11:43.885Z</time></trkpt><trkpt lat="42.0984478" lon="13.5126933"><ele>921.0</ele><time>2026-05-02T14:11:44.887Z</time></trkpt><trkpt lat="42.0984212" lon="13.5125725"><ele>921.0</ele><time>2026-05-02T14:11:45.901Z</time></trkpt><trkpt lat="42.0984045" lon="13.5124365"><ele>922.0</ele><time>2026-05-02T14:11:46.9Z</time></trkpt><trkpt lat="42.0983946" lon="13.5122809"><ele>923.0</ele><time>2026-05-02T14:11:47.904Z</time></trkpt><trkpt lat="42.0983851" lon="13.5121087"><ele>924.0</ele><time>2026-05-02T14:11:48.906Z</time></trkpt><trkpt lat="42.0983974" lon="13.5119339"><ele>925.0</ele><time>2026-05-02T14:11:49.894Z</time></trkpt><trkpt lat="42.0984122" lon="13.5117545"><ele>926.0</ele><time>2026-05-02T14:11:50.893Z</time></trkpt><trkpt lat="42.0984316" lon="13.5115826"><ele>927.0</ele><time>2026-05-02T14:11:51.895Z</time></trkpt><trkpt lat="42.0984323" lon="13.5114358"><ele>928.0</ele><time>2026-05-02T14:11:52.89Z</time></trkpt><trkpt lat="42.0983992" lon="13.5112949"><ele>929.0</ele><time>2026-05-02T14:11:53.896Z</time></trkpt><trkpt lat="42.0983467" lon="13.5111754"><ele>930.75</ele><time>2026-05-02T14:11:54.898Z</time></trkpt><trkpt lat="42.0982723" lon="13.5110611"><ele>932.5</ele><time>2026-05-02T14:11:55.884Z</time></trkpt><trkpt lat="42.0981829" lon="13.5109478"><ele>934.25</ele><time>2026-05-02T14:11:56.894Z</time></trkpt><trkpt lat="42.0981189" lon="13.5108287"><ele>936.0</ele><time>2026-05-02T14:11:57.89Z</time></trkpt><trkpt lat="42.0980631" lon="13.5106841"><ele>930.0</ele><time>2026-05-02T14:11:58.9Z</time></trkpt><trkpt lat="42.0980081" lon="13.5105099"><ele>924.0</ele><time>2026-05-02T14:11:59.896Z</time></trkpt><trkpt lat="42.0979456" lon="13.5103291"><ele>918.0</ele><time>2026-05-02T14:12:00.887Z</time></trkpt><trkpt lat="42.0978731" lon="13.510151"><ele>912.0</ele><time>2026-05-02T14:12:01.881Z</time></trkpt><trkpt lat="42.0977957" lon="13.5099891"><ele>912.0</ele><time>2026-05-02T14:12:02.892Z</time></trkpt><trkpt lat="42.097721" lon="13.5098304"><ele>912.0</ele><time>2026-05-02T14:12:03.896Z</time></trkpt><trkpt lat="42.0976734" lon="13.5096958"><ele>912.0</ele><time>2026-05-02T14:12:04.9Z</time></trkpt><trkpt lat="42.0976325" lon="13.5095709"><ele>912.0</ele><time>2026-05-02T14:12:05.888Z</time></trkpt><trkpt lat="42.0976111" lon="13.5094409"><ele>912.0</ele><time>2026-05-02T14:12:06.885Z</time></trkpt><trkpt lat="42.0976179" lon="13.5093333"><ele>912.0</ele><time>2026-05-02T14:12:07.891Z</time></trkpt><trkpt lat="42.0976458" lon="13.5092183"><ele>912.0</ele><time>2026-05-02T14:12:08.898Z</time></trkpt><trkpt lat="42.0976782" lon="13.5090843"><ele>912.0</ele><time>2026-05-02T14:12:09.883Z</time></trkpt><trkpt lat="42.0977257" lon="13.5089157"><ele>912.0</ele><time>2026-05-02T14:12:10.887Z</time></trkpt><trkpt lat="42.0977569" lon="13.5087423"><ele>912.0</ele><time>2026-05-02T14:12:11.892Z</time></trkpt><trkpt lat="42.0977806" lon="13.5085426"><ele>912.0</ele><time>2026-05-02T14:12:12.88Z</time></trkpt><trkpt lat="42.0977994" lon="13.5083228"><ele>912.0</ele><time>2026-05-02T14:12:13.888Z</time></trkpt><trkpt lat="42.0978198" lon="13.5080845"><ele>912.3333333333333</ele><time>2026-05-02T14:12:14.891Z</time></trkpt><trkpt lat="42.0978516" lon="13.5078478"><ele>912.6666666666666</ele><time>2026-05-02T14:12:15.884Z</time></trkpt><trkpt lat="42.0978928" lon="13.507637"><ele>913.0</ele><time>2026-05-02T14:12:16.893Z</time></trkpt><trkpt lat="42.0979356" lon="13.5074804"><ele>913.0</ele><time>2026-05-02T14:12:17.892Z</time></trkpt><trkpt lat="42.0979765" lon="13.5073715"><ele>913.0</ele><time>2026-05-02T14:12:18.908Z</time></trkpt><trkpt lat="42.0980456" lon="13.5072733"><ele>913.0</ele><time>2026-05-02T14:12:19.902Z</time></trkpt><trkpt lat="42.0981392" lon="13.5071564"><ele>913.0</ele><time>2026-05-02T14:12:20.887Z</time></trkpt><trkpt lat="42.09825" lon="13.5070481"><ele>913.5</ele><time>2026-05-02T14:12:21.89Z</time></trkpt><trkpt lat="42.0983668" lon="13.506934"><ele>914.0</ele><time>2026-05-02T14:12:22.884Z</time></trkpt><trkpt lat="42.0984564" lon="13.5068023"><ele>914.5</ele><time>2026-05-02T14:12:23.896Z</time></trkpt><trkpt lat="42.0985324" lon="13.506698"><ele>915.0</ele><time>2026-05-02T14:12:24.89Z</time></trkpt><trkpt lat="42.0985758" lon="13.5065957"><ele>915.0</ele><time>2026-05-02T14:12:25.894Z</time></trkpt><trkpt lat="42.0986147" lon="13.5064653"><ele>915.0</ele><time>2026-05-02T14:12:26.905Z</time></trkpt><trkpt lat="42.0986532" lon="13.5062892"><ele>915.0</ele><time>2026-05-02T14:12:27.885Z</time></trkpt><trkpt lat="42.0987027" lon="13.5060824"><ele>915.0</ele><time>2026-05-02T14:12:28.892Z</time></trkpt><trkpt lat="42.0987589" lon="13.5058599"><ele>915.0</ele><time>2026-05-02T14:12:29.9Z</time></trkpt><trkpt lat="42.0988225" lon="13.505653"><ele>915.0</ele><time>2026-05-02T14:12:30.892Z</time></trkpt><trkpt lat="42.0988896" lon="13.5054712"><ele>915.0</ele><time>2026-05-02T14:12:31.874Z</time></trkpt><trkpt lat="42.0989724" lon="13.505296"><ele>916.3333333333333</ele><time>2026-05-02T14:12:32.898Z</time></trkpt><trkpt lat="42.0990733" lon="13.5051299"><ele>917.6666666666666</ele><time>2026-05-02T14:12:33.885Z</time></trkpt><trkpt lat="42.0991868" lon="13.5049799"><ele>919.0</ele><time>2026-05-02T14:12:34.906Z</time></trkpt><trkpt lat="42.0992858" lon="13.504849"><ele>921.3333333333333</ele><time>2026-05-02T14:12:35.898Z</time></trkpt><trkpt lat="42.099374" lon="13.5047037"><ele>923.6666666666667</ele><time>2026-05-02T14:12:36.896Z</time></trkpt><trkpt lat="42.0994704" lon="13.5045279"><ele>926.0</ele><time>2026-05-02T14:12:37.895Z</time></trkpt><trkpt lat="42.0995714" lon="13.5043198"><ele>927.6666666666667</ele><time>2026-05-02T14:12:38.892Z</time></trkpt><trkpt lat="42.0996859" lon="13.5041002"><ele>929.3333333333333</ele><time>2026-05-02T14:12:39.897Z</time></trkpt><trkpt lat="42.0997986" lon="13.5038713"><ele>931.0</ele><time>2026-05-02T14:12:40.898Z</time></trkpt><trkpt lat="42.0999102" lon="13.5036358"><ele>932.0</ele><time>2026-05-02T14:12:41.884Z</time></trkpt><trkpt lat="42.1000289" lon="13.5033724"><ele>933.0</ele><time>2026-05-02T14:12:42.899Z</time></trkpt><trkpt lat="42.1001457" lon="13.5031115"><ele>936.3333333333333</ele><time>2026-05-02T14:12:43.886Z</time></trkpt><trkpt lat="42.1002653" lon="13.5028735"><ele>939.6666666666666</ele><time>2026-05-02T14:12:44.897Z</time></trkpt><trkpt lat="42.1003863" lon="13.5026456"><ele>943.0</ele><time>2026-05-02T14:12:45.901Z</time></trkpt><trkpt lat="42.1005056" lon="13.5024405"><ele>943.0</ele><time>2026-05-02T14:12:46.909Z</time></trkpt><trkpt lat="42.1006254" lon="13.5022498"><ele>943.0</ele><time>2026-05-02T14:12:47.891Z</time></trkpt><trkpt lat="42.1007514" lon="13.5020746"><ele>943.0</ele><time>2026-05-02T14:12:48.909Z</time></trkpt><trkpt lat="42.1008827" lon="13.5019211"><ele>944.6666666666666</ele><time>2026-05-02T14:12:49.894Z</time></trkpt><trkpt lat="42.1010094" lon="13.5017742"><ele>946.3333333333333</ele><time>2026-05-02T14:12:50.894Z</time></trkpt><trkpt lat="42.1011173" lon="13.5016258"><ele>948.0</ele><time>2026-05-02T14:12:51.884Z</time></trkpt><trkpt lat="42.1012119" lon="13.5014742"><ele>948.0</ele><time>2026-05-02T14:12:52.9Z</time></trkpt><trkpt lat="42.1013076" lon="13.5013169"><ele>948.0</ele><time>2026-05-02T14:12:53.888Z</time></trkpt><trkpt lat="42.1013896" lon="13.5011801"><ele>948.0</ele><time>2026-05-02T14:12:54.901Z</time></trkpt><trkpt lat="42.1014417" lon="13.5010905"><ele>948.0</ele><time>2026-05-02T14:12:55.894Z</time></trkpt><trkpt lat="42.101519" lon="13.5010553"><ele>948.0</ele><time>2026-05-02T14:12:57.9Z</time></trkpt><trkpt lat="42.1015629" lon="13.5011432"><ele>948.0</ele><time>2026-05-02T14:13:07.903Z</time></trkpt><trkpt lat="42.1015732" lon="13.5012587"><ele>948.0</ele><time>2026-05-02T14:13:08.924Z</time></trkpt><trkpt lat="42.1015917" lon="13.5014031"><ele>948.0</ele><time>2026-05-02T14:13:09.924Z</time></trkpt><trkpt lat="42.101631" lon="13.5015747"><ele>948.0</ele><time>2026-05-02T14:13:10.904Z</time></trkpt><trkpt lat="42.1016685" lon="13.5017536"><ele>947.0</ele><time>2026-05-02T14:13:11.92Z</time></trkpt><trkpt lat="42.1017154" lon="13.5019424"><ele>946.0</ele><time>2026-05-02T14:13:12.909Z</time></trkpt><trkpt lat="42.1017725" lon="13.5021491"><ele>945.0</ele><time>2026-05-02T14:13:13.906Z</time></trkpt><trkpt lat="42.1018285" lon="13.5023325"><ele>945.0</ele><time>2026-05-02T14:13:14.895Z</time></trkpt><trkpt lat="42.1018745" lon="13.5024929"><ele>945.0</ele><time>2026-05-02T14:13:15.912Z</time></trkpt><trkpt lat="42.1019205" lon="13.5026304"><ele>945.0</ele><time>2026-05-02T14:13:16.891Z</time></trkpt><trkpt lat="42.1019784" lon="13.5027525"><ele>945.0</ele><time>2026-05-02T14:13:17.904Z</time></trkpt><trkpt lat="42.1020436" lon="13.5028502"><ele>945.0</ele><time>2026-05-02T14:13:18.915Z</time></trkpt><trkpt lat="42.1021088" lon="13.5029638"><ele>944.1666666666666</ele><time>2026-05-02T14:13:19.912Z</time></trkpt><trkpt lat="42.1021602" lon="13.503062"><ele>943.3333333333333</ele><time>2026-05-02T14:13:20.911Z</time></trkpt><trkpt lat="42.1021846" lon="13.503156"><ele>942.5</ele><time>2026-05-02T14:13:21.898Z</time></trkpt><trkpt lat="42.1021896" lon="13.503245"><ele>941.6666666666666</ele><time>2026-05-02T14:13:22.898Z</time></trkpt><trkpt lat="42.1021807" lon="13.5033375"><ele>940.8333333333333</ele><time>2026-05-02T14:13:23.884Z</time></trkpt><trkpt lat="42.1021565" lon="13.5034312"><ele>940.0</ele><time>2026-05-02T14:13:24.877Z</time></trkpt><trkpt lat="42.1021137" lon="13.5035206"><ele>939.9999999999999</ele><time>2026-05-02T14:13:25.89Z</time></trkpt><trkpt lat="42.1020671" lon="13.5035927"><ele>940.0</ele><time>2026-05-02T14:13:26.882Z</time></trkpt><trkpt lat="42.1020166" lon="13.5036663"><ele>940.0</ele><time>2026-05-02T14:13:27.909Z</time></trkpt><trkpt lat="42.1019733" lon="13.5037572"><ele>940.0</ele><time>2026-05-02T14:13:28.904Z</time></trkpt><trkpt lat="42.1019287" lon="13.5038622"><ele>939.9999999999999</ele><time>2026-05-02T14:13:29.896Z</time></trkpt><trkpt lat="42.101882" lon="13.5039803"><ele>940.0</ele><time>2026-05-02T14:13:30.882Z</time></trkpt><trkpt lat="42.1018309" lon="13.5040899"><ele>938.75</ele><time>2026-05-02T14:13:31.901Z</time></trkpt><trkpt lat="42.1017769" lon="13.5042205"><ele>937.5</ele><time>2026-05-02T14:13:32.896Z</time></trkpt><trkpt lat="42.1017178" lon="13.5043631"><ele>936.25</ele><time>2026-05-02T14:13:33.901Z</time></trkpt><trkpt lat="42.1016634" lon="13.5044991"><ele>935.0</ele><time>2026-05-02T14:13:34.89Z</time></trkpt><trkpt lat="42.101602" lon="13.5046424"><ele>934.0</ele><time>2026-05-02T14:13:35.882Z</time></trkpt><trkpt lat="42.1015367" lon="13.5047902"><ele>933.0</ele><time>2026-05-02T14:13:36.893Z</time></trkpt><trkpt lat="42.1014784" lon="13.5049402"><ele>932.0</ele><time>2026-05-02T14:13:37.899Z</time></trkpt><trkpt lat="42.1014358" lon="13.505098"><ele>931.0</ele><time>2026-05-02T14:13:38.892Z</time></trkpt><trkpt lat="42.1013979" lon="13.5052869"><ele>930.3333333333333</ele><time>2026-05-02T14:13:39.896Z</time></trkpt><trkpt lat="42.1013709" lon="13.5054938"><ele>929.6666666666667</ele><time>2026-05-02T14:13:40.896Z</time></trkpt><trkpt lat="42.1013298" lon="13.505712"><ele>929.0</ele><time>2026-05-02T14:13:41.89Z</time></trkpt><trkpt lat="42.1012873" lon="13.5059339"><ele>929.0</ele><time>2026-05-02T14:13:42.9Z</time></trkpt><trkpt lat="42.1012427" lon="13.5061556"><ele>929.0</ele><time>2026-05-02T14:13:43.89Z</time></trkpt><trkpt lat="42.1012068" lon="13.5063821"><ele>929.0</ele><time>2026-05-02T14:13:44.896Z</time></trkpt><trkpt lat="42.1011815" lon="13.5066057"><ele>929.6666666666667</ele><time>2026-05-02T14:13:45.883Z</time></trkpt><trkpt lat="42.1011676" lon="13.5068273"><ele>930.3333333333333</ele><time>2026-05-02T14:13:46.893Z</time></trkpt><trkpt lat="42.1011617" lon="13.5070325"><ele>931.0</ele><time>2026-05-02T14:13:47.894Z</time></trkpt><trkpt lat="42.1011707" lon="13.5072343"><ele>933.0</ele><time>2026-05-02T14:13:48.895Z</time></trkpt><trkpt lat="42.1011939" lon="13.5074251"><ele>935.0</ele><time>2026-05-02T14:13:49.886Z</time></trkpt><trkpt lat="42.1012055" lon="13.5076138"><ele>937.0</ele><time>2026-05-02T14:13:50.895Z</time></trkpt><trkpt lat="42.1011838" lon="13.5077918"><ele>939.0</ele><time>2026-05-02T14:13:51.909Z</time></trkpt><trkpt lat="42.1011498" lon="13.5079703"><ele>940.75</ele><time>2026-05-02T14:13:52.894Z</time></trkpt><trkpt lat="42.1011163" lon="13.5081536"><ele>942.5</ele><time>2026-05-02T14:13:53.892Z</time></trkpt><trkpt lat="42.101088" lon="13.5083433"><ele>944.25</ele><time>2026-05-02T14:13:54.887Z</time></trkpt><trkpt lat="42.1010608" lon="13.5085487"><ele>946.0</ele><time>2026-05-02T14:13:55.892Z</time></trkpt><trkpt lat="42.101035" lon="13.5087393"><ele>948.5</ele><time>2026-05-02T14:13:56.9Z</time></trkpt><trkpt lat="42.1010023" lon="13.5089105"><ele>951.0</ele><time>2026-05-02T14:13:57.905Z</time></trkpt><trkpt lat="42.1009579" lon="13.5090737"><ele>953.5</ele><time>2026-05-02T14:13:58.902Z</time></trkpt><trkpt lat="42.1009081" lon="13.5092071"><ele>956.0</ele><time>2026-05-02T14:13:59.895Z</time></trkpt><trkpt lat="42.1008536" lon="13.5093244"><ele>956.0</ele><time>2026-05-02T14:14:00.9Z</time></trkpt><trkpt lat="42.1007901" lon="13.5094342"><ele>955.9999999999999</ele><time>2026-05-02T14:14:01.888Z</time></trkpt><trkpt lat="42.1007424" lon="13.5095202"><ele>955.9999999999999</ele><time>2026-05-02T14:14:02.899Z</time></trkpt><trkpt lat="42.1006966" lon="13.5096421"><ele>956.0</ele><time>2026-05-02T14:14:04.892Z</time></trkpt><trkpt lat="42.100757" lon="13.5097032"><ele>956.0</ele><time>2026-05-02T14:14:07.894Z</time></trkpt><trkpt lat="42.1008097" lon="13.5095998"><ele>956.0</ele><time>2026-05-02T14:14:09.893Z</time></trkpt><trkpt lat="42.1008773" lon="13.5094424"><ele>955.9999999999999</ele><time>2026-05-02T14:14:11.903Z</time></trkpt><trkpt lat="42.1009307" lon="13.5093517"><ele>955.9999999999999</ele><time>2026-05-02T14:14:12.903Z</time></trkpt><trkpt lat="42.100995" lon="13.509254"><ele>956.0</ele><time>2026-05-02T14:14:13.901Z</time></trkpt><trkpt lat="42.101066" lon="13.5091482"><ele>956.0</ele><time>2026-05-02T14:14:14.907Z</time></trkpt><trkpt lat="42.101141" lon="13.5090325"><ele>956.0</ele><time>2026-05-02T14:14:15.9Z</time></trkpt><trkpt lat="42.1012329" lon="13.5089038"><ele>956.0</ele><time>2026-05-02T14:14:16.887Z</time></trkpt><trkpt lat="42.1013288" lon="13.5087809"><ele>956.0</ele><time>2026-05-02T14:14:17.901Z</time></trkpt><trkpt lat="42.101436" lon="13.5086432"><ele>956.0</ele><time>2026-05-02T14:14:18.9Z</time></trkpt><trkpt lat="42.1015578" lon="13.5085026"><ele>955.0</ele><time>2026-05-02T14:14:19.889Z</time></trkpt><trkpt lat="42.1016729" lon="13.5083498"><ele>954.0</ele><time>2026-05-02T14:14:20.899Z</time></trkpt><trkpt lat="42.1017931" lon="13.5081924"><ele>953.0</ele><time>2026-05-02T14:14:21.895Z</time></trkpt><trkpt lat="42.1019274" lon="13.5080155"><ele>951.0</ele><time>2026-05-02T14:14:22.9Z</time></trkpt><trkpt lat="42.1020557" lon="13.5078373"><ele>949.0</ele><time>2026-05-02T14:14:23.91Z</time></trkpt><trkpt lat="42.1021714" lon="13.5076534"><ele>947.0</ele><time>2026-05-02T14:14:24.895Z</time></trkpt><trkpt lat="42.1022721" lon="13.5074767"><ele>947.0</ele><time>2026-05-02T14:14:25.902Z</time></trkpt><trkpt lat="42.1023547" lon="13.5073109"><ele>947.0</ele><time>2026-05-02T14:14:26.89Z</time></trkpt><trkpt lat="42.1024231" lon="13.5071558"><ele>947.0</ele><time>2026-05-02T14:14:27.894Z</time></trkpt><trkpt lat="42.1024822" lon="13.5070196"><ele>947.0</ele><time>2026-05-02T14:14:28.891Z</time></trkpt><trkpt lat="42.1025346" lon="13.5068983"><ele>950.0</ele><time>2026-05-02T14:14:29.888Z</time></trkpt><trkpt lat="42.1025811" lon="13.5067761"><ele>953.0</ele><time>2026-05-02T14:14:30.89Z</time></trkpt><trkpt lat="42.1026293" lon="13.5066424"><ele>956.0</ele><time>2026-05-02T14:14:31.889Z</time></trkpt><trkpt lat="42.102676" lon="13.50649"><ele>959.0</ele><time>2026-05-02T14:14:32.902Z</time></trkpt><trkpt lat="42.1027232" lon="13.5063178"><ele>956.3333333333334</ele><time>2026-05-02T14:14:33.894Z</time></trkpt><trkpt lat="42.1027838" lon="13.5061353"><ele>953.6666666666667</ele><time>2026-05-02T14:14:34.903Z</time></trkpt><trkpt lat="42.1028442" lon="13.5059366"><ele>951.0</ele><time>2026-05-02T14:14:35.887Z</time></trkpt><trkpt lat="42.1029058" lon="13.505728"><ele>951.0</ele><time>2026-05-02T14:14:36.886Z</time></trkpt><trkpt lat="42.1029647" lon="13.5055243"><ele>951.0</ele><time>2026-05-02T14:14:37.895Z</time></trkpt><trkpt lat="42.1030214" lon="13.50534"><ele>951.0</ele><time>2026-05-02T14:14:38.906Z</time></trkpt><trkpt lat="42.1030882" lon="13.5051846"><ele>951.0</ele><time>2026-05-02T14:14:39.903Z</time></trkpt><trkpt lat="42.1031644" lon="13.5050593"><ele>955.0</ele><time>2026-05-02T14:14:40.903Z</time></trkpt><trkpt lat="42.1032608" lon="13.5049459"><ele>959.0</ele><time>2026-05-02T14:14:41.906Z</time></trkpt><trkpt lat="42.1033866" lon="13.5048429"><ele>963.0</ele><time>2026-05-02T14:14:42.895Z</time></trkpt><trkpt lat="42.1035331" lon="13.5047561"><ele>967.0</ele><time>2026-05-02T14:14:43.883Z</time></trkpt><trkpt lat="42.1036811" lon="13.5046749"><ele>963.3333333333333</ele><time>2026-05-02T14:14:44.892Z</time></trkpt><trkpt lat="42.1038295" lon="13.504573"><ele>959.6666666666667</ele><time>2026-05-02T14:14:45.909Z</time></trkpt><trkpt lat="42.1039588" lon="13.5044639"><ele>956.0</ele><time>2026-05-02T14:14:46.9Z</time></trkpt><trkpt lat="42.1040638" lon="13.5043595"><ele>959.75</ele><time>2026-05-02T14:14:47.896Z</time></trkpt><trkpt lat="42.1041576" lon="13.5042426"><ele>963.5</ele><time>2026-05-02T14:14:48.893Z</time></trkpt><trkpt lat="42.104246" lon="13.5041197"><ele>967.25</ele><time>2026-05-02T14:14:49.901Z</time></trkpt><trkpt lat="42.1043312" lon="13.503988"><ele>971.0</ele><time>2026-05-02T14:14:50.9Z</time></trkpt><trkpt lat="42.1044086" lon="13.5038465"><ele>970.25</ele><time>2026-05-02T14:14:51.889Z</time></trkpt><trkpt lat="42.1044858" lon="13.5037015"><ele>969.5</ele><time>2026-05-02T14:14:52.886Z</time></trkpt><trkpt lat="42.104556" lon="13.5035508"><ele>968.75</ele><time>2026-05-02T14:14:53.907Z</time></trkpt><trkpt lat="42.1046275" lon="13.5033915"><ele>968.0</ele><time>2026-05-02T14:14:54.904Z</time></trkpt><trkpt lat="42.1046977" lon="13.5032324"><ele>968.0</ele><time>2026-05-02T14:14:55.9Z</time></trkpt><trkpt lat="42.1047666" lon="13.5030816"><ele>968.0</ele><time>2026-05-02T14:14:56.906Z</time></trkpt><trkpt lat="42.1048318" lon="13.5029149"><ele>968.0</ele><time>2026-05-02T14:14:57.901Z</time></trkpt><trkpt lat="42.1048946" lon="13.502709"><ele>968.0</ele><time>2026-05-02T14:14:58.924Z</time></trkpt><trkpt lat="42.1049541" lon="13.5024719"><ele>973.6666666666667</ele><time>2026-05-02T14:14:59.892Z</time></trkpt><trkpt lat="42.1050212" lon="13.502234"><ele>979.3333333333333</ele><time>2026-05-02T14:15:00.896Z</time></trkpt><trkpt lat="42.1050892" lon="13.501987"><ele>985.0</ele><time>2026-05-02T14:15:01.899Z</time></trkpt><trkpt lat="42.1051558" lon="13.5017341"><ele>985.0</ele><time>2026-05-02T14:15:02.904Z</time></trkpt><trkpt lat="42.1052184" lon="13.5014781"><ele>985.0</ele><time>2026-05-02T14:15:03.884Z</time></trkpt><trkpt lat="42.1052782" lon="13.5012252"><ele>985.0</ele><time>2026-05-02T14:15:04.906Z</time></trkpt><trkpt lat="42.1053323" lon="13.5009856"><ele>984.6666666666666</ele><time>2026-05-02T14:15:05.892Z</time></trkpt><trkpt lat="42.1053789" lon="13.5007525"><ele>984.3333333333333</ele><time>2026-05-02T14:15:06.895Z</time></trkpt><trkpt lat="42.1053944" lon="13.50054"><ele>984.0</ele><time>2026-05-02T14:15:07.895Z</time></trkpt><trkpt lat="42.1054041" lon="13.5003557"><ele>986.0</ele><time>2026-05-02T14:15:08.896Z</time></trkpt><trkpt lat="42.1054054" lon="13.5001849"><ele>988.0</ele><time>2026-05-02T14:15:09.91Z</time></trkpt><trkpt lat="42.1053949" lon="13.5000247"><ele>990.0</ele><time>2026-05-02T14:15:10.901Z</time></trkpt><trkpt lat="42.105365" lon="13.4998585"><ele>992.0</ele><time>2026-05-02T14:15:11.903Z</time></trkpt><trkpt lat="42.1053034" lon="13.4997052"><ele>994.75</ele><time>2026-05-02T14:15:12.889Z</time></trkpt><trkpt lat="42.1052255" lon="13.4995748"><ele>997.5</ele><time>2026-05-02T14:15:13.882Z</time></trkpt><trkpt lat="42.1051388" lon="13.4994592"><ele>1000.25</ele><time>2026-05-02T14:15:14.896Z</time></trkpt><trkpt lat="42.1050417" lon="13.4993471"><ele>1003.0</ele><time>2026-05-02T14:15:15.888Z</time></trkpt><trkpt lat="42.1049406" lon="13.499232"><ele>1001.75</ele><time>2026-05-02T14:15:16.901Z</time></trkpt><trkpt lat="42.104837" lon="13.4991149"><ele>1000.5</ele><time>2026-05-02T14:15:17.893Z</time></trkpt><trkpt lat="42.104737" lon="13.4989898"><ele>999.25</ele><time>2026-05-02T14:15:18.898Z</time></trkpt><trkpt lat="42.1046573" lon="13.4988604"><ele>998.0</ele><time>2026-05-02T14:15:19.893Z</time></trkpt><trkpt lat="42.1045922" lon="13.4987192"><ele>998.0</ele><time>2026-05-02T14:15:20.891Z</time></trkpt><trkpt lat="42.1045523" lon="13.4985642"><ele>998.0</ele><time>2026-05-02T14:15:21.888Z</time></trkpt><trkpt lat="42.1045278" lon="13.4983893"><ele>998.0</ele><time>2026-05-02T14:15:22.905Z</time></trkpt><trkpt lat="42.1045137" lon="13.4982092"><ele>998.0</ele><time>2026-05-02T14:15:23.898Z</time></trkpt><trkpt lat="42.104529" lon="13.4980388"><ele>997.0</ele><time>2026-05-02T14:15:24.904Z</time></trkpt><trkpt lat="42.104594" lon="13.4978896"><ele>996.0</ele><time>2026-05-02T14:15:25.89Z</time></trkpt><trkpt lat="42.1046966" lon="13.4977517"><ele>995.0</ele><time>2026-05-02T14:15:26.894Z</time></trkpt><trkpt lat="42.1048221" lon="13.4976185"><ele>994.0</ele><time>2026-05-02T14:15:27.888Z</time></trkpt><trkpt lat="42.104963" lon="13.4974588"><ele>996.3333333333333</ele><time>2026-05-02T14:15:28.902Z</time></trkpt><trkpt lat="42.1051339" lon="13.4972971"><ele>998.6666666666667</ele><time>2026-05-02T14:15:29.897Z</time></trkpt><trkpt lat="42.1053335" lon="13.497142"><ele>1001.0</ele><time>2026-05-02T14:15:30.889Z</time></trkpt><trkpt lat="42.1055361" lon="13.4969971"><ele>1001.0</ele><time>2026-05-02T14:15:31.911Z</time></trkpt><trkpt lat="42.1057359" lon="13.4968509"><ele>1001.0</ele><time>2026-05-02T14:15:32.907Z</time></trkpt><trkpt lat="42.1059232" lon="13.4967016"><ele>1001.0</ele><time>2026-05-02T14:15:33.91Z</time></trkpt><trkpt lat="42.1060939" lon="13.4965431"><ele>1003.0</ele><time>2026-05-02T14:15:34.906Z</time></trkpt><trkpt lat="42.1062506" lon="13.4963893"><ele>1005.0</ele><time>2026-05-02T14:15:35.904Z</time></trkpt><trkpt lat="42.1063825" lon="13.4962324"><ele>1007.0</ele><time>2026-05-02T14:15:36.914Z</time></trkpt><trkpt lat="42.1065003" lon="13.4960387"><ele>1010.6666666666667</ele><time>2026-05-02T14:15:37.894Z</time></trkpt><trkpt lat="42.1065936" lon="13.4958104"><ele>1014.3333333333333</ele><time>2026-05-02T14:15:38.895Z</time></trkpt><trkpt lat="42.1066544" lon="13.4955579"><ele>1018.0</ele><time>2026-05-02T14:15:39.898Z</time></trkpt><trkpt lat="42.1067092" lon="13.4952788"><ele>1018.0</ele><time>2026-05-02T14:15:40.897Z</time></trkpt><trkpt lat="42.1067618" lon="13.4950006"><ele>1018.0</ele><time>2026-05-02T14:15:41.906Z</time></trkpt><trkpt lat="42.106819" lon="13.4947438"><ele>1018.0</ele><time>2026-05-02T14:15:42.889Z</time></trkpt><trkpt lat="42.1068847" lon="13.4945059"><ele>1017.3333333333333</ele><time>2026-05-02T14:15:43.898Z</time></trkpt><trkpt lat="42.1069676" lon="13.4942849"><ele>1016.6666666666667</ele><time>2026-05-02T14:15:44.89Z</time></trkpt><trkpt lat="42.1070796" lon="13.4940793"><ele>1016.0</ele><time>2026-05-02T14:15:45.899Z</time></trkpt><trkpt lat="42.1072273" lon="13.4938694"><ele>1015.0</ele><time>2026-05-02T14:15:46.888Z</time></trkpt><trkpt lat="42.1073856" lon="13.4936745"><ele>1014.0</ele><time>2026-05-02T14:15:47.89Z</time></trkpt><trkpt lat="42.107506" lon="13.4934961"><ele>1013.0</ele><time>2026-05-02T14:15:48.9Z</time></trkpt><trkpt lat="42.1075971" lon="13.4933202"><ele>1018.6666666666667</ele><time>2026-05-02T14:15:49.892Z</time></trkpt><trkpt lat="42.1076609" lon="13.4931251"><ele>1024.3333333333333</ele><time>2026-05-02T14:15:50.893Z</time></trkpt><trkpt lat="42.1076694" lon="13.4929075"><ele>1030.0</ele><time>2026-05-02T14:15:51.884Z</time></trkpt><trkpt lat="42.107643" lon="13.4926883"><ele>1032.0</ele><time>2026-05-02T14:15:52.895Z</time></trkpt><trkpt lat="42.1075853" lon="13.4924468"><ele>1034.0</ele><time>2026-05-02T14:15:53.882Z</time></trkpt><trkpt lat="42.1075215" lon="13.4922062"><ele>1036.0</ele><time>2026-05-02T14:15:54.884Z</time></trkpt><trkpt lat="42.1074548" lon="13.4919629"><ele>1030.6666666666665</ele><time>2026-05-02T14:15:55.887Z</time></trkpt><trkpt lat="42.1073611" lon="13.4917449"><ele>1025.3333333333333</ele><time>2026-05-02T14:15:56.894Z</time></trkpt><trkpt lat="42.1072654" lon="13.491569"><ele>1020.0</ele><time>2026-05-02T14:15:57.881Z</time></trkpt><trkpt lat="42.1071617" lon="13.4914021"><ele>1023.0</ele><time>2026-05-02T14:15:58.888Z</time></trkpt><trkpt lat="42.1070859" lon="13.4912277"><ele>1026.0</ele><time>2026-05-02T14:15:59.895Z</time></trkpt><trkpt lat="42.1070471" lon="13.4910412"><ele>1029.0</ele><time>2026-05-02T14:16:00.902Z</time></trkpt><trkpt lat="42.1070564" lon="13.490812"><ele>1029.0</ele><time>2026-05-02T14:16:01.895Z</time></trkpt><trkpt lat="42.1070891" lon="13.4905712"><ele>1029.0</ele><time>2026-05-02T14:16:02.902Z</time></trkpt><trkpt lat="42.1071397" lon="13.4903041"><ele>1029.0</ele><time>2026-05-02T14:16:03.895Z</time></trkpt><trkpt lat="42.1072029" lon="13.4900163"><ele>1030.3333333333333</ele><time>2026-05-02T14:16:04.902Z</time></trkpt><trkpt lat="42.1072543" lon="13.4897291"><ele>1031.6666666666665</ele><time>2026-05-02T14:16:05.901Z</time></trkpt><trkpt lat="42.1073135" lon="13.4894662"><ele>1033.0</ele><time>2026-05-02T14:16:06.895Z</time></trkpt><trkpt lat="42.1073646" lon="13.4892245"><ele>1037.6666666666665</ele><time>2026-05-02T14:16:07.899Z</time></trkpt><trkpt lat="42.1074269" lon="13.4890105"><ele>1042.3333333333333</ele><time>2026-05-02T14:16:08.899Z</time></trkpt><trkpt lat="42.1075117" lon="13.4888349"><ele>1047.0</ele><time>2026-05-02T14:16:09.884Z</time></trkpt><trkpt lat="42.1076148" lon="13.4886828"><ele>1047.0</ele><time>2026-05-02T14:16:10.894Z</time></trkpt><trkpt lat="42.1077393" lon="13.4885638"><ele>1047.0</ele><time>2026-05-02T14:16:11.887Z</time></trkpt><trkpt lat="42.1078878" lon="13.488482"><ele>1047.0</ele><time>2026-05-02T14:16:12.915Z</time></trkpt><trkpt lat="42.1080516" lon="13.4884316"><ele>1047.0</ele><time>2026-05-02T14:16:13.896Z</time></trkpt><trkpt lat="42.1082228" lon="13.4883633"><ele>1047.0</ele><time>2026-05-02T14:16:14.897Z</time></trkpt><trkpt lat="42.1083985" lon="13.4882651"><ele>1047.0</ele><time>2026-05-02T14:16:15.89Z</time></trkpt><trkpt lat="42.1085653" lon="13.4881369"><ele>1050.3333333333333</ele><time>2026-05-02T14:16:16.902Z</time></trkpt><trkpt lat="42.1087169" lon="13.4879728"><ele>1053.6666666666665</ele><time>2026-05-02T14:16:17.883Z</time></trkpt><trkpt lat="42.1088506" lon="13.4877806"><ele>1057.0</ele><time>2026-05-02T14:16:18.907Z</time></trkpt><trkpt lat="42.1089875" lon="13.4875566"><ele>1063.0</ele><time>2026-05-02T14:16:19.895Z</time></trkpt><trkpt lat="42.1091149" lon="13.4872951"><ele>1069.0</ele><time>2026-05-02T14:16:20.905Z</time></trkpt><trkpt lat="42.1092568" lon="13.4870116"><ele>1069.0</ele><time>2026-05-02T14:16:21.886Z</time></trkpt><trkpt lat="42.109397" lon="13.4867262"><ele>1069.0</ele><time>2026-05-02T14:16:22.904Z</time></trkpt><trkpt lat="42.109536" lon="13.4864451"><ele>1066.5</ele><time>2026-05-02T14:16:23.895Z</time></trkpt><trkpt lat="42.1096685" lon="13.4861812"><ele>1064.0</ele><time>2026-05-02T14:16:24.904Z</time></trkpt><trkpt lat="42.109791" lon="13.4859419"><ele>1064.0</ele><time>2026-05-02T14:16:25.886Z</time></trkpt><trkpt lat="42.1098937" lon="13.4857231"><ele>1064.0</ele><time>2026-05-02T14:16:26.901Z</time></trkpt><trkpt lat="42.1099646" lon="13.4855078"><ele>1064.0</ele><time>2026-05-02T14:16:27.901Z</time></trkpt><trkpt lat="42.1099971" lon="13.4852919"><ele>1070.3333333333335</ele><time>2026-05-02T14:16:28.893Z</time></trkpt><trkpt lat="42.1100029" lon="13.4850481"><ele>1076.6666666666667</ele><time>2026-05-02T14:16:29.892Z</time></trkpt><trkpt lat="42.1099861" lon="13.4848134"><ele>1083.0</ele><time>2026-05-02T14:16:30.894Z</time></trkpt><trkpt lat="42.1099479" lon="13.4845849"><ele>1085.0</ele><time>2026-05-02T14:16:31.895Z</time></trkpt><trkpt lat="42.1099233" lon="13.4843574"><ele>1087.0</ele><time>2026-05-02T14:16:32.891Z</time></trkpt><trkpt lat="42.1099239" lon="13.4841284"><ele>1089.0</ele><time>2026-05-02T14:16:33.894Z</time></trkpt><trkpt lat="42.1099496" lon="13.4838979"><ele>1088.6666666666667</ele><time>2026-05-02T14:16:34.891Z</time></trkpt><trkpt lat="42.1099883" lon="13.4836604"><ele>1088.3333333333335</ele><time>2026-05-02T14:16:35.904Z</time></trkpt><trkpt lat="42.1100525" lon="13.4834218"><ele>1088.0</ele><time>2026-05-02T14:16:36.894Z</time></trkpt><trkpt lat="42.1101424" lon="13.4831963"><ele>1088.0</ele><time>2026-05-02T14:16:37.893Z</time></trkpt><trkpt lat="42.1102582" lon="13.4829724"><ele>1088.0</ele><time>2026-05-02T14:16:38.893Z</time></trkpt><trkpt lat="42.1103928" lon="13.4827653"><ele>1088.0</ele><time>2026-05-02T14:16:39.888Z</time></trkpt><trkpt lat="42.1105547" lon="13.4825764"><ele>1085.6666666666667</ele><time>2026-05-02T14:16:40.896Z</time></trkpt><trkpt lat="42.1107068" lon="13.4823974"><ele>1083.3333333333333</ele><time>2026-05-02T14:16:41.89Z</time></trkpt><trkpt lat="42.1108485" lon="13.482219"><ele>1081.0</ele><time>2026-05-02T14:16:42.903Z</time></trkpt><trkpt lat="42.1109665" lon="13.4820241"><ele>1086.0</ele><time>2026-05-02T14:16:43.884Z</time></trkpt><trkpt lat="42.1110604" lon="13.4817823"><ele>1091.0</ele><time>2026-05-02T14:16:44.894Z</time></trkpt><trkpt lat="42.1111329" lon="13.4815025"><ele>1096.0</ele><time>2026-05-02T14:16:45.888Z</time></trkpt><trkpt lat="42.1111867" lon="13.481191"><ele>1096.5</ele><time>2026-05-02T14:16:46.9Z</time></trkpt><trkpt lat="42.1112405" lon="13.4808641"><ele>1097.0</ele><time>2026-05-02T14:16:47.892Z</time></trkpt><trkpt lat="42.1112908" lon="13.4805486"><ele>1097.6666666666667</ele><time>2026-05-02T14:16:48.894Z</time></trkpt><trkpt lat="42.1113127" lon="13.4802469"><ele>1098.3333333333333</ele><time>2026-05-02T14:16:49.895Z</time></trkpt><trkpt lat="42.111315" lon="13.4799503"><ele>1099.0</ele><time>2026-05-02T14:16:50.901Z</time></trkpt><trkpt lat="42.1112912" lon="13.479637"><ele>1103.5</ele><time>2026-05-02T14:16:51.909Z</time></trkpt><trkpt lat="42.1112272" lon="13.4793157"><ele>1108.0</ele><time>2026-05-02T14:16:52.896Z</time></trkpt><trkpt lat="42.1111388" lon="13.4789983"><ele>1109.5</ele><time>2026-05-02T14:16:53.888Z</time></trkpt><trkpt lat="42.1110539" lon="13.4786913"><ele>1111.0</ele><time>2026-05-02T14:16:54.897Z</time></trkpt><trkpt lat="42.1110017" lon="13.4783852"><ele>1111.0</ele><time>2026-05-02T14:16:55.887Z</time></trkpt><trkpt lat="42.1109696" lon="13.4780946"><ele>1111.0</ele><time>2026-05-02T14:16:56.902Z</time></trkpt><trkpt lat="42.1109608" lon="13.4778103"><ele>1111.0</ele><time>2026-05-02T14:16:57.896Z</time></trkpt><trkpt lat="42.1109284" lon="13.4775444"><ele>1110.6666666666665</ele><time>2026-05-02T14:16:58.902Z</time></trkpt><trkpt lat="42.1108648" lon="13.4772946"><ele>1110.3333333333333</ele><time>2026-05-02T14:16:59.896Z</time></trkpt><trkpt lat="42.1107693" lon="13.4770586"><ele>1110.0</ele><time>2026-05-02T14:17:00.891Z</time></trkpt><trkpt lat="42.1106464" lon="13.476814"><ele>1107.3333333333333</ele><time>2026-05-02T14:17:01.898Z</time></trkpt><trkpt lat="42.1105169" lon="13.4765947"><ele>1104.6666666666665</ele><time>2026-05-02T14:17:02.891Z</time></trkpt><trkpt lat="42.1104048" lon="13.476376"><ele>1102.0</ele><time>2026-05-02T14:17:03.903Z</time></trkpt><trkpt lat="42.1103073" lon="13.4761406"><ele>1102.0</ele><time>2026-05-02T14:17:04.892Z</time></trkpt><trkpt lat="42.1102297" lon="13.4758668"><ele>1102.0</ele><time>2026-05-02T14:17:05.912Z</time></trkpt><trkpt lat="42.1101727" lon="13.4755804"><ele>1102.0</ele><time>2026-05-02T14:17:06.898Z</time></trkpt><trkpt lat="42.1101315" lon="13.4752912"><ele>1101.6666666666665</ele><time>2026-05-02T14:17:07.897Z</time></trkpt><trkpt lat="42.1100794" lon="13.475012"><ele>1101.3333333333333</ele><time>2026-05-02T14:17:08.899Z</time></trkpt><trkpt lat="42.1100097" lon="13.4747288"><ele>1101.0</ele><time>2026-05-02T14:17:09.894Z</time></trkpt><trkpt lat="42.1099077" lon="13.4744397"><ele>1095.0</ele><time>2026-05-02T14:17:10.903Z</time></trkpt><trkpt lat="42.109783" lon="13.4741582"><ele>1089.0</ele><time>2026-05-02T14:17:11.899Z</time></trkpt><trkpt lat="42.1096542" lon="13.4738704"><ele>1091.5</ele><time>2026-05-02T14:17:12.926Z</time></trkpt><trkpt lat="42.1095283" lon="13.4735965"><ele>1094.0</ele><time>2026-05-02T14:17:13.907Z</time></trkpt><trkpt lat="42.1094155" lon="13.4733328"><ele>1094.0</ele><time>2026-05-02T14:17:14.892Z</time></trkpt><trkpt lat="42.1093056" lon="13.4730563"><ele>1094.0</ele><time>2026-05-02T14:17:15.894Z</time></trkpt><trkpt lat="42.1091997" lon="13.4727666"><ele>1095.5</ele><time>2026-05-02T14:17:16.9Z</time></trkpt><trkpt lat="42.1091116" lon="13.4724527"><ele>1097.0</ele><time>2026-05-02T14:17:17.897Z</time></trkpt><trkpt lat="42.1090314" lon="13.4721373"><ele>1094.6666666666667</ele><time>2026-05-02T14:17:18.887Z</time></trkpt><trkpt lat="42.1089606" lon="13.4718403"><ele>1092.3333333333333</ele><time>2026-05-02T14:17:19.906Z</time></trkpt><trkpt lat="42.1089026" lon="13.4715618"><ele>1090.0</ele><time>2026-05-02T14:17:20.905Z</time></trkpt><trkpt lat="42.1088549" lon="13.471299"><ele>1090.3333333333333</ele><time>2026-05-02T14:17:21.914Z</time></trkpt><trkpt lat="42.1088263" lon="13.4710376"><ele>1090.6666666666667</ele><time>2026-05-02T14:17:22.908Z</time></trkpt><trkpt lat="42.1088209" lon="13.4707596"><ele>1091.0</ele><time>2026-05-02T14:17:23.905Z</time></trkpt><trkpt lat="42.1088248" lon="13.4704869"><ele>1089.6666666666667</ele><time>2026-05-02T14:17:24.913Z</time></trkpt><trkpt lat="42.1088331" lon="13.4702344"><ele>1088.3333333333333</ele><time>2026-05-02T14:17:25.9Z</time></trkpt><trkpt lat="42.1088069" lon="13.4699725"><ele>1087.0</ele><time>2026-05-02T14:17:26.905Z</time></trkpt><trkpt lat="42.1087427" lon="13.4696922"><ele>1086.5</ele><time>2026-05-02T14:17:27.908Z</time></trkpt><trkpt lat="42.1086547" lon="13.4694084"><ele>1086.0</ele><time>2026-05-02T14:17:28.908Z</time></trkpt><trkpt lat="42.1085509" lon="13.4691171"><ele>1086.0</ele><time>2026-05-02T14:17:29.903Z</time></trkpt><trkpt lat="42.1084491" lon="13.4688266"><ele>1086.0</ele><time>2026-05-02T14:17:30.912Z</time></trkpt><trkpt lat="42.1083431" lon="13.4685269"><ele>1087.0</ele><time>2026-05-02T14:17:31.904Z</time></trkpt><trkpt lat="42.1082351" lon="13.4682282"><ele>1088.0</ele><time>2026-05-02T14:17:32.901Z</time></trkpt><trkpt lat="42.1081317" lon="13.4679353"><ele>1088.0</ele><time>2026-05-02T14:17:33.894Z</time></trkpt><trkpt lat="42.1080314" lon="13.4676601"><ele>1088.0</ele><time>2026-05-02T14:17:34.892Z</time></trkpt><trkpt lat="42.1079368" lon="13.467395"><ele>1088.0</ele><time>2026-05-02T14:17:35.902Z</time></trkpt><trkpt lat="42.1078469" lon="13.4671457"><ele>1089.6666666666667</ele><time>2026-05-02T14:17:36.901Z</time></trkpt><trkpt lat="42.1077641" lon="13.4669004"><ele>1091.3333333333333</ele><time>2026-05-02T14:17:37.892Z</time></trkpt><trkpt lat="42.1076762" lon="13.4666712"><ele>1093.0</ele><time>2026-05-02T14:17:38.889Z</time></trkpt><trkpt lat="42.1075995" lon="13.4664498"><ele>1095.3333333333333</ele><time>2026-05-02T14:17:39.897Z</time></trkpt><trkpt lat="42.1075195" lon="13.4662327"><ele>1097.6666666666667</ele><time>2026-05-02T14:17:40.888Z</time></trkpt><trkpt lat="42.1074561" lon="13.4660296"><ele>1100.0</ele><time>2026-05-02T14:17:41.884Z</time></trkpt><trkpt lat="42.1074026" lon="13.4658152"><ele>1100.6666666666667</ele><time>2026-05-02T14:17:42.892Z</time></trkpt><trkpt lat="42.1073756" lon="13.4655948"><ele>1101.3333333333333</ele><time>2026-05-02T14:17:43.886Z</time></trkpt><trkpt lat="42.1073793" lon="13.4653785"><ele>1102.0</ele><time>2026-05-02T14:17:44.89Z</time></trkpt><trkpt lat="42.1073895" lon="13.4651575"><ele>1102.6666666666665</ele><time>2026-05-02T14:17:45.893Z</time></trkpt><trkpt lat="42.1074303" lon="13.4649331"><ele>1103.3333333333333</ele><time>2026-05-02T14:17:46.903Z</time></trkpt><trkpt lat="42.1074998" lon="13.4647214"><ele>1104.0</ele><time>2026-05-02T14:17:47.921Z</time></trkpt><trkpt lat="42.1076023" lon="13.4645262"><ele>1102.3333333333333</ele><time>2026-05-02T14:17:48.887Z</time></trkpt><trkpt lat="42.1077115" lon="13.4643265"><ele>1100.6666666666665</ele><time>2026-05-02T14:17:49.899Z</time></trkpt><trkpt lat="42.1078238" lon="13.4641355"><ele>1099.0</ele><time>2026-05-02T14:17:50.909Z</time></trkpt><trkpt lat="42.1079321" lon="13.4639338"><ele>1099.0</ele><time>2026-05-02T14:17:51.893Z</time></trkpt><trkpt lat="42.1080415" lon="13.4637341"><ele>1099.0</ele><time>2026-05-02T14:17:52.907Z</time></trkpt><trkpt lat="42.1081507" lon="13.4635377"><ele>1099.0</ele><time>2026-05-02T14:17:53.898Z</time></trkpt><trkpt lat="42.1082522" lon="13.4633435"><ele>1101.6666666666665</ele><time>2026-05-02T14:17:54.904Z</time></trkpt><trkpt lat="42.1083463" lon="13.4631531"><ele>1104.3333333333333</ele><time>2026-05-02T14:17:55.896Z</time></trkpt><trkpt lat="42.1084282" lon="13.4629695"><ele>1107.0</ele><time>2026-05-02T14:17:56.915Z</time></trkpt><trkpt lat="42.1084987" lon="13.4627897"><ele>1108.0</ele><time>2026-05-02T14:17:57.904Z</time></trkpt><trkpt lat="42.1085545" lon="13.4626169"><ele>1109.0</ele><time>2026-05-02T14:17:58.905Z</time></trkpt><trkpt lat="42.1086017" lon="13.4624474"><ele>1110.0</ele><time>2026-05-02T14:17:59.915Z</time></trkpt><trkpt lat="42.1086405" lon="13.4622821"><ele>1111.0</ele><time>2026-05-02T14:18:00.901Z</time></trkpt><trkpt lat="42.1086855" lon="13.4621142"><ele>1111.25</ele><time>2026-05-02T14:18:01.902Z</time></trkpt><trkpt lat="42.1087278" lon="13.4619488"><ele>1111.5</ele><time>2026-05-02T14:18:02.892Z</time></trkpt><trkpt lat="42.1087696" lon="13.4617693"><ele>1111.75</ele><time>2026-05-02T14:18:03.896Z</time></trkpt><trkpt lat="42.1088139" lon="13.4615821"><ele>1112.0</ele><time>2026-05-02T14:18:04.896Z</time></trkpt><trkpt lat="42.1088599" lon="13.4613976"><ele>1110.6</ele><time>2026-05-02T14:18:05.913Z</time></trkpt><trkpt lat="42.1088963" lon="13.4612463"><ele>1109.2</ele><time>2026-05-02T14:18:06.899Z</time></trkpt><trkpt lat="42.108938" lon="13.4611233"><ele>1107.8</ele><time>2026-05-02T14:18:07.894Z</time></trkpt><trkpt lat="42.1089831" lon="13.4610162"><ele>1106.4</ele><time>2026-05-02T14:18:08.899Z</time></trkpt><trkpt lat="42.1090223" lon="13.4609253"><ele>1105.0</ele><time>2026-05-02T14:18:09.894Z</time></trkpt><trkpt lat="42.1090671" lon="13.4608505"><ele>1105.8333333333333</ele><time>2026-05-02T14:18:10.915Z</time></trkpt><trkpt lat="42.1091126" lon="13.4607842"><ele>1106.6666666666665</ele><time>2026-05-02T14:18:11.896Z</time></trkpt><trkpt lat="42.1091559" lon="13.4607171"><ele>1107.5</ele><time>2026-05-02T14:18:12.899Z</time></trkpt><trkpt lat="42.1092315" lon="13.4606154"><ele>1108.3333333333333</ele><time>2026-05-02T14:18:14.897Z</time></trkpt><trkpt lat="42.1092567" lon="13.4605186"><ele>1109.1666666666667</ele><time>2026-05-02T14:18:16.895Z</time></trkpt><trkpt lat="42.1091822" lon="13.4605892"><ele>1110.0</ele><time>2026-05-02T14:18:20.906Z</time></trkpt><trkpt lat="42.1091372" lon="13.460669"><ele>1108.75</ele><time>2026-05-02T14:18:21.891Z</time></trkpt><trkpt lat="42.1090747" lon="13.460781"><ele>1107.5</ele><time>2026-05-02T14:18:22.908Z</time></trkpt><trkpt lat="42.1089988" lon="13.4609135"><ele>1106.25</ele><time>2026-05-02T14:18:23.896Z</time></trkpt><trkpt lat="42.1089336" lon="13.461066"><ele>1105.0</ele><time>2026-05-02T14:18:24.893Z</time></trkpt><trkpt lat="42.1088828" lon="13.4612299"><ele>1106.4</ele><time>2026-05-02T14:18:25.88Z</time></trkpt><trkpt lat="42.1088421" lon="13.4613847"><ele>1107.8</ele><time>2026-05-02T14:18:26.882Z</time></trkpt><trkpt lat="42.1088145" lon="13.4614939"><ele>1109.2</ele><time>2026-05-02T14:18:27.89Z</time></trkpt><trkpt lat="42.1087657" lon="13.4615848"><ele>1110.6</ele><time>2026-05-02T14:18:29.906Z</time></trkpt><trkpt lat="42.1087034" lon="13.4614916"><ele>1112.0</ele><time>2026-05-02T14:18:32.9Z</time></trkpt><trkpt lat="42.1086923" lon="13.4613774"><ele>1110.6</ele><time>2026-05-02T14:18:33.897Z</time></trkpt><trkpt lat="42.1086693" lon="13.4612474"><ele>1109.2</ele><time>2026-05-02T14:18:34.907Z</time></trkpt><trkpt lat="42.1086307" lon="13.4611151"><ele>1107.8</ele><time>2026-05-02T14:18:35.9Z</time></trkpt><trkpt lat="42.1085949" lon="13.460989"><ele>1106.4</ele><time>2026-05-02T14:18:36.911Z</time></trkpt><trkpt lat="42.1085679" lon="13.4608326"><ele>1105.0</ele><time>2026-05-02T14:18:37.907Z</time></trkpt><trkpt lat="42.1085498" lon="13.4606698"><ele>1105.0</ele><time>2026-05-02T14:18:38.9Z</time></trkpt><trkpt lat="42.1085224" lon="13.4605163"><ele>1105.0</ele><time>2026-05-02T14:18:39.903Z</time></trkpt><trkpt lat="42.1084915" lon="13.4603819"><ele>1105.0</ele><time>2026-05-02T14:18:40.907Z</time></trkpt><trkpt lat="42.1084522" lon="13.4602662"><ele>1105.0</ele><time>2026-05-02T14:18:41.906Z</time></trkpt><trkpt lat="42.1084236" lon="13.4601728"><ele>1105.0</ele><time>2026-05-02T14:18:42.923Z</time></trkpt><trkpt lat="42.1084525" lon="13.4600533"><ele>1103.2857142857142</ele><time>2026-05-02T14:18:44.896Z</time></trkpt><trkpt lat="42.1085054" lon="13.4599732"><ele>1101.5714285714287</ele><time>2026-05-02T14:18:45.919Z</time></trkpt><trkpt lat="42.1085509" lon="13.4598873"><ele>1099.857142857143</ele><time>2026-05-02T14:18:46.891Z</time></trkpt><trkpt lat="42.1085762" lon="13.4597977"><ele>1098.142857142857</ele><time>2026-05-02T14:18:47.907Z</time></trkpt><trkpt lat="42.1085719" lon="13.459711"><ele>1096.4285714285713</ele><time>2026-05-02T14:18:48.908Z</time></trkpt><trkpt lat="42.108556" lon="13.4596228"><ele>1094.7142857142858</ele><time>2026-05-02T14:18:49.886Z</time></trkpt><trkpt lat="42.1085313" lon="13.4595216"><ele>1093.0</ele><time>2026-05-02T14:18:50.902Z</time></trkpt><trkpt lat="42.1085218" lon="13.4594281"><ele>1091.1666666666665</ele><time>2026-05-02T14:18:51.9Z</time></trkpt><trkpt lat="42.1085129" lon="13.4593241"><ele>1089.3333333333333</ele><time>2026-05-02T14:18:52.9Z</time></trkpt><trkpt lat="42.1085072" lon="13.4592192"><ele>1087.5</ele><time>2026-05-02T14:18:53.899Z</time></trkpt><trkpt lat="42.1085017" lon="13.4591017"><ele>1085.6666666666667</ele><time>2026-05-02T14:18:54.915Z</time></trkpt><trkpt lat="42.1084949" lon="13.458981"><ele>1083.8333333333335</ele><time>2026-05-02T14:18:55.892Z</time></trkpt><trkpt lat="42.1084981" lon="13.4588664"><ele>1082.0</ele><time>2026-05-02T14:18:56.915Z</time></trkpt><trkpt lat="42.1085048" lon="13.4587718"><ele>1080.2</ele><time>2026-05-02T14:18:57.895Z</time></trkpt><trkpt lat="42.1085297" lon="13.4586363"><ele>1078.4</ele><time>2026-05-02T14:18:59.887Z</time></trkpt><trkpt lat="42.1085332" lon="13.4585146"><ele>1076.6</ele><time>2026-05-02T14:19:01.907Z</time></trkpt><trkpt lat="42.1085352" lon="13.4584178"><ele>1074.8</ele><time>2026-05-02T14:19:02.897Z</time></trkpt><trkpt lat="42.1085473" lon="13.4582769"><ele>1073.0</ele><time>2026-05-02T14:19:03.897Z</time></trkpt><trkpt lat="42.1085545" lon="13.458121"><ele>1073.0</ele><time>2026-05-02T14:19:04.909Z</time></trkpt><trkpt lat="42.1085578" lon="13.4579812"><ele>1073.0</ele><time>2026-05-02T14:19:05.91Z</time></trkpt><trkpt lat="42.1085749" lon="13.4578329"><ele>1073.0</ele><time>2026-05-02T14:19:06.899Z</time></trkpt><trkpt lat="42.1086105" lon="13.4576818"><ele>1073.0</ele><time>2026-05-02T14:19:07.903Z</time></trkpt><trkpt lat="42.1086475" lon="13.4575589"><ele>1073.0</ele><time>2026-05-02T14:19:08.895Z</time></trkpt><trkpt lat="42.1086571" lon="13.4574473"><ele>1071.2</ele><time>2026-05-02T14:19:09.891Z</time></trkpt><trkpt lat="42.1086464" lon="13.4573239"><ele>1069.4</ele><time>2026-05-02T14:19:10.889Z</time></trkpt><trkpt lat="42.1086439" lon="13.4571951"><ele>1067.6000000000001</ele><time>2026-05-02T14:19:11.897Z</time></trkpt><trkpt lat="42.1086412" lon="13.4570442"><ele>1065.8</ele><time>2026-05-02T14:19:12.89Z</time></trkpt><trkpt lat="42.1086424" lon="13.4569019"><ele>1064.0</ele><time>2026-05-02T14:19:13.914Z</time></trkpt><trkpt lat="42.1086486" lon="13.4567593"><ele>1062.0</ele><time>2026-05-02T14:19:14.891Z</time></trkpt><trkpt lat="42.1086571" lon="13.4566171"><ele>1060.0</ele><time>2026-05-02T14:19:15.908Z</time></trkpt><trkpt lat="42.1086531" lon="13.4564801"><ele>1058.0</ele><time>2026-05-02T14:19:16.9Z</time></trkpt><trkpt lat="42.1086401" lon="13.4563453"><ele>1056.0</ele><time>2026-05-02T14:19:17.899Z</time></trkpt><trkpt lat="42.1086228" lon="13.4562202"><ele>1054.0</ele><time>2026-05-02T14:19:18.901Z</time></trkpt><trkpt lat="42.1085995" lon="13.4560998"><ele>1052.25</ele><time>2026-05-02T14:19:19.903Z</time></trkpt><trkpt lat="42.1085695" lon="13.4559587"><ele>1050.5</ele><time>2026-05-02T14:19:20.895Z</time></trkpt><trkpt lat="42.1085252" lon="13.4558159"><ele>1048.75</ele><time>2026-05-02T14:19:21.907Z</time></trkpt><trkpt lat="42.1084898" lon="13.4556662"><ele>1047.0</ele><time>2026-05-02T14:19:22.892Z</time></trkpt><trkpt lat="42.1084652" lon="13.4555207"><ele>1045.5</ele><time>2026-05-02T14:19:23.894Z</time></trkpt><trkpt lat="42.1084495" lon="13.4553594"><ele>1044.0</ele><time>2026-05-02T14:19:24.896Z</time></trkpt><trkpt lat="42.1084206" lon="13.4552129"><ele>1042.5</ele><time>2026-05-02T14:19:25.885Z</time></trkpt><trkpt lat="42.1083937" lon="13.455071"><ele>1041.0</ele><time>2026-05-02T14:19:26.899Z</time></trkpt><trkpt lat="42.1083647" lon="13.4549229"><ele>1041.0</ele><time>2026-05-02T14:19:27.891Z</time></trkpt><trkpt lat="42.1083297" lon="13.4547699"><ele>1041.0</ele><time>2026-05-02T14:19:28.913Z</time></trkpt><trkpt lat="42.1083019" lon="13.4546067"><ele>1041.0</ele><time>2026-05-02T14:19:29.902Z</time></trkpt><trkpt lat="42.1082836" lon="13.4544265"><ele>1041.0</ele><time>2026-05-02T14:19:30.895Z</time></trkpt><trkpt lat="42.1082695" lon="13.4542259"><ele>1039.3333333333333</ele><time>2026-05-02T14:19:31.913Z</time></trkpt><trkpt lat="42.1082559" lon="13.4540146"><ele>1037.6666666666665</ele><time>2026-05-02T14:19:32.901Z</time></trkpt><trkpt lat="42.1082398" lon="13.4537937"><ele>1036.0</ele><time>2026-05-02T14:19:33.912Z</time></trkpt><trkpt lat="42.1082285" lon="13.4536018"><ele>1032.0</ele><time>2026-05-02T14:19:34.899Z</time></trkpt><trkpt lat="42.1082055" lon="13.45344"><ele>1028.0</ele><time>2026-05-02T14:19:35.904Z</time></trkpt><trkpt lat="42.1081567" lon="13.4532725"><ele>1024.0</ele><time>2026-05-02T14:19:36.905Z</time></trkpt><trkpt lat="42.1080977" lon="13.4530867"><ele>1020.0</ele><time>2026-05-02T14:19:37.896Z</time></trkpt><trkpt lat="42.1080616" lon="13.4529434"><ele>1018.5</ele><time>2026-05-02T14:19:38.891Z</time></trkpt><trkpt lat="42.1080515" lon="13.4527958"><ele>1017.0</ele><time>2026-05-02T14:19:39.892Z</time></trkpt><trkpt lat="42.1080524" lon="13.4526134"><ele>1015.5</ele><time>2026-05-02T14:19:40.896Z</time></trkpt><trkpt lat="42.1080531" lon="13.4524068"><ele>1014.0</ele><time>2026-05-02T14:19:41.885Z</time></trkpt><trkpt lat="42.1080532" lon="13.452213"><ele>1014.0</ele><time>2026-05-02T14:19:42.902Z</time></trkpt><trkpt lat="42.1080432" lon="13.4520464"><ele>1014.0000000000001</ele><time>2026-05-02T14:19:43.888Z</time></trkpt><trkpt lat="42.1080196" lon="13.4519167"><ele>1014.0000000000001</ele><time>2026-05-02T14:19:44.916Z</time></trkpt><trkpt lat="42.1079793" lon="13.4517846"><ele>1014.0</ele><time>2026-05-02T14:19:45.893Z</time></trkpt><trkpt lat="42.1079467" lon="13.4516614"><ele>1014.0</ele><time>2026-05-02T14:19:46.903Z</time></trkpt><trkpt lat="42.1079331" lon="13.4515504"><ele>1014.0</ele><time>2026-05-02T14:19:47.903Z</time></trkpt><trkpt lat="42.1079342" lon="13.4514256"><ele>1014.0000000000001</ele><time>2026-05-02T14:19:49.881Z</time></trkpt><trkpt lat="42.1078914" lon="13.4513298"><ele>1014.0000000000001</ele><time>2026-05-02T14:19:51.882Z</time></trkpt><trkpt lat="42.1078264" lon="13.451163"><ele>1014.0</ele><time>2026-05-02T14:19:53.893Z</time></trkpt><trkpt lat="42.1077895" lon="13.4510428"><ele>1014.0</ele><time>2026-05-02T14:19:54.92Z</time></trkpt><trkpt lat="42.1077415" lon="13.450905"><ele>1013.75</ele><time>2026-05-02T14:19:55.898Z</time></trkpt><trkpt lat="42.1076782" lon="13.4507661"><ele>1013.5</ele><time>2026-05-02T14:19:56.896Z</time></trkpt><trkpt lat="42.1076184" lon="13.4506272"><ele>1013.25</ele><time>2026-05-02T14:19:57.89Z</time></trkpt><trkpt lat="42.1075589" lon="13.450485"><ele>1013.0</ele><time>2026-05-02T14:19:58.888Z</time></trkpt><trkpt lat="42.1075009" lon="13.4503351"><ele>1012.0</ele><time>2026-05-02T14:19:59.895Z</time></trkpt><trkpt lat="42.1074277" lon="13.450191"><ele>1011.0</ele><time>2026-05-02T14:20:00.893Z</time></trkpt><trkpt lat="42.1073592" lon="13.4500478"><ele>1010.0</ele><time>2026-05-02T14:20:01.896Z</time></trkpt><trkpt lat="42.1072927" lon="13.4499155"><ele>1009.0</ele><time>2026-05-02T14:20:02.9Z</time></trkpt><trkpt lat="42.1072191" lon="13.4497729"><ele>1007.25</ele><time>2026-05-02T14:20:03.894Z</time></trkpt><trkpt lat="42.1071328" lon="13.4496235"><ele>1005.5</ele><time>2026-05-02T14:20:04.907Z</time></trkpt><trkpt lat="42.1070547" lon="13.449464"><ele>1003.75</ele><time>2026-05-02T14:20:05.905Z</time></trkpt><trkpt lat="42.1069692" lon="13.4493094"><ele>1002.0</ele><time>2026-05-02T14:20:06.897Z</time></trkpt><trkpt lat="42.106892" lon="13.4491419"><ele>1002.0</ele><time>2026-05-02T14:20:07.9Z</time></trkpt><trkpt lat="42.1068224" lon="13.4489686"><ele>1002.0</ele><time>2026-05-02T14:20:08.9Z</time></trkpt><trkpt lat="42.1067516" lon="13.4487842"><ele>1002.0</ele><time>2026-05-02T14:20:09.91Z</time></trkpt><trkpt lat="42.1066855" lon="13.4485993"><ele>1001.5</ele><time>2026-05-02T14:20:10.899Z</time></trkpt><trkpt lat="42.1066206" lon="13.4484102"><ele>1001.0</ele><time>2026-05-02T14:20:11.903Z</time></trkpt><trkpt lat="42.1065599" lon="13.4482624"><ele>1000.5</ele><time>2026-05-02T14:20:12.9Z</time></trkpt><trkpt lat="42.1065103" lon="13.4481582"><ele>1000.0</ele><time>2026-05-02T14:20:13.882Z</time></trkpt><trkpt lat="42.1064552" lon="13.4480803"><ele>998.8</ele><time>2026-05-02T14:20:14.9Z</time></trkpt><trkpt lat="42.1063494" lon="13.4480508"><ele>997.6</ele><time>2026-05-02T14:20:15.915Z</time></trkpt><trkpt lat="42.1062299" lon="13.4480137"><ele>996.4000000000001</ele><time>2026-05-02T14:20:16.917Z</time></trkpt><trkpt lat="42.1061265" lon="13.4479735"><ele>995.2</ele><time>2026-05-02T14:20:17.888Z</time></trkpt><trkpt lat="42.1060571" lon="13.4479346"><ele>994.0</ele><time>2026-05-02T14:20:18.909Z</time></trkpt><trkpt lat="42.1059861" lon="13.4479014"><ele>993.6666666666666</ele><time>2026-05-02T14:20:19.893Z</time></trkpt><trkpt lat="42.1059343" lon="13.4478496"><ele>993.3333333333333</ele><time>2026-05-02T14:20:20.911Z</time></trkpt><trkpt lat="42.1058977" lon="13.4477769"><ele>993.0</ele><time>2026-05-02T14:20:21.897Z</time></trkpt><trkpt lat="42.1058674" lon="13.4476745"><ele>992.6666666666667</ele><time>2026-05-02T14:20:22.907Z</time></trkpt><trkpt lat="42.1058196" lon="13.4475369"><ele>992.3333333333334</ele><time>2026-05-02T14:20:23.906Z</time></trkpt><trkpt lat="42.1057749" lon="13.4473876"><ele>992.0</ele><time>2026-05-02T14:20:24.897Z</time></trkpt><trkpt lat="42.1057368" lon="13.4472355"><ele>990.8</ele><time>2026-05-02T14:20:25.912Z</time></trkpt><trkpt lat="42.1057107" lon="13.4470901"><ele>989.6</ele><time>2026-05-02T14:20:26.914Z</time></trkpt><trkpt lat="42.1057062" lon="13.4469693"><ele>988.3999999999999</ele><time>2026-05-02T14:20:27.903Z</time></trkpt><trkpt lat="42.1057176" lon="13.4468557"><ele>987.1999999999999</ele><time>2026-05-02T14:20:28.91Z</time></trkpt><trkpt lat="42.1057505" lon="13.4467299"><ele>986.0</ele><time>2026-05-02T14:20:29.898Z</time></trkpt><trkpt lat="42.1057847" lon="13.4466144"><ele>986.0000000000001</ele><time>2026-05-02T14:20:30.899Z</time></trkpt><trkpt lat="42.1058147" lon="13.4465138"><ele>986.0</ele><time>2026-05-02T14:20:31.887Z</time></trkpt><trkpt lat="42.1058251" lon="13.4464201"><ele>986.0</ele><time>2026-05-02T14:20:32.913Z</time></trkpt><trkpt lat="42.1058177" lon="13.4463192"><ele>986.0</ele><time>2026-05-02T14:20:33.898Z</time></trkpt><trkpt lat="42.1057732" lon="13.4462273"><ele>986.0000000000001</ele><time>2026-05-02T14:20:34.898Z</time></trkpt><trkpt lat="42.1057185" lon="13.4461383"><ele>986.0</ele><time>2026-05-02T14:20:35.914Z</time></trkpt><trkpt lat="42.1056709" lon="13.4460496"><ele>984.1999999999999</ele><time>2026-05-02T14:20:36.9Z</time></trkpt><trkpt lat="42.1056242" lon="13.4459555"><ele>982.3999999999999</ele><time>2026-05-02T14:20:37.894Z</time></trkpt><trkpt lat="42.1055814" lon="13.4458504"><ele>980.6</ele><time>2026-05-02T14:20:38.9Z</time></trkpt><trkpt lat="42.1055394" lon="13.4457472"><ele>978.8</ele><time>2026-05-02T14:20:39.902Z</time></trkpt><trkpt lat="42.105494" lon="13.4456379"><ele>977.0</ele><time>2026-05-02T14:20:40.907Z</time></trkpt><trkpt lat="42.1054441" lon="13.4455245"><ele>977.0</ele><time>2026-05-02T14:20:41.899Z</time></trkpt><trkpt lat="42.1053883" lon="13.4453861"><ele>977.0</ele><time>2026-05-02T14:20:42.901Z</time></trkpt><trkpt lat="42.1053335" lon="13.4452236"><ele>977.0</ele><time>2026-05-02T14:20:43.906Z</time></trkpt><trkpt lat="42.1052951" lon="13.4450743"><ele>977.0</ele><time>2026-05-02T14:20:44.903Z</time></trkpt><trkpt lat="42.1052576" lon="13.4449373"><ele>977.0</ele><time>2026-05-02T14:20:45.915Z</time></trkpt><trkpt lat="42.1052062" lon="13.4447921"><ele>977.0</ele><time>2026-05-02T14:20:46.891Z</time></trkpt><trkpt lat="42.1051491" lon="13.4446377"><ele>977.0</ele><time>2026-05-02T14:20:47.904Z</time></trkpt><trkpt lat="42.1050786" lon="13.4444708"><ele>977.0</ele><time>2026-05-02T14:20:48.906Z</time></trkpt><trkpt lat="42.1050222" lon="13.444325"><ele>976.6666666666667</ele><time>2026-05-02T14:20:49.901Z</time></trkpt><trkpt lat="42.1049655" lon="13.4442003"><ele>976.3333333333334</ele><time>2026-05-02T14:20:50.91Z</time></trkpt><trkpt lat="42.104922" lon="13.4440932"><ele>976.0</ele><time>2026-05-02T14:20:51.899Z</time></trkpt><trkpt lat="42.1048944" lon="13.4440139"><ele>975.6666666666667</ele><time>2026-05-02T14:20:52.893Z</time></trkpt><trkpt lat="42.1048266" lon="13.4438931"><ele>975.3333333333334</ele><time>2026-05-02T14:20:54.884Z</time></trkpt><trkpt lat="42.1047773" lon="13.4438337"><ele>975.0</ele><time>2026-05-02T14:20:57.908Z</time></trkpt><trkpt lat="42.1047151" lon="13.4437132"><ele>974.6</ele><time>2026-05-02T14:21:05.92Z</time></trkpt><trkpt lat="42.1046838" lon="13.443637"><ele>974.2</ele><time>2026-05-02T14:21:06.894Z</time></trkpt><trkpt lat="42.1046427" lon="13.4435428"><ele>973.8</ele><time>2026-05-02T14:21:07.907Z</time></trkpt><trkpt lat="42.1045964" lon="13.4434326"><ele>973.4</ele><time>2026-05-02T14:21:08.908Z</time></trkpt><trkpt lat="42.1045518" lon="13.4433001"><ele>973.0</ele><time>2026-05-02T14:21:09.904Z</time></trkpt><trkpt lat="42.1044947" lon="13.4431654"><ele>973.0</ele><time>2026-05-02T14:21:10.913Z</time></trkpt><trkpt lat="42.1044256" lon="13.4430316"><ele>973.0</ele><time>2026-05-02T14:21:11.898Z</time></trkpt><trkpt lat="42.1043415" lon="13.4428975"><ele>973.0</ele><time>2026-05-02T14:21:12.895Z</time></trkpt><trkpt lat="42.1042529" lon="13.4427526"><ele>973.0</ele><time>2026-05-02T14:21:13.907Z</time></trkpt><trkpt lat="42.1041734" lon="13.4426028"><ele>973.0</ele><time>2026-05-02T14:21:14.923Z</time></trkpt><trkpt lat="42.1041021" lon="13.4424471"><ele>973.0</ele><time>2026-05-02T14:21:15.886Z</time></trkpt><trkpt lat="42.1040365" lon="13.44228"><ele>973.0</ele><time>2026-05-02T14:21:16.896Z</time></trkpt><trkpt lat="42.1039714" lon="13.4420967"><ele>973.0</ele><time>2026-05-02T14:21:17.897Z</time></trkpt><trkpt lat="42.1038962" lon="13.4418827"><ele>972.0</ele><time>2026-05-02T14:21:18.905Z</time></trkpt><trkpt lat="42.1038085" lon="13.4416784"><ele>971.0</ele><time>2026-05-02T14:21:19.922Z</time></trkpt><trkpt lat="42.1037015" lon="13.4414913"><ele>970.0</ele><time>2026-05-02T14:21:20.9Z</time></trkpt><trkpt lat="42.1035921" lon="13.4413304"><ele>970.75</ele><time>2026-05-02T14:21:21.889Z</time></trkpt><trkpt lat="42.1034979" lon="13.4411979"><ele>971.5</ele><time>2026-05-02T14:21:22.899Z</time></trkpt><trkpt lat="42.1034111" lon="13.4410713"><ele>972.25</ele><time>2026-05-02T14:21:23.9Z</time></trkpt><trkpt lat="42.103343" lon="13.4409495"><ele>973.0</ele><time>2026-05-02T14:21:24.906Z</time></trkpt><trkpt lat="42.1032892" lon="13.440826"><ele>972.75</ele><time>2026-05-02T14:21:25.908Z</time></trkpt><trkpt lat="42.1032348" lon="13.4406976"><ele>972.5</ele><time>2026-05-02T14:21:26.895Z</time></trkpt><trkpt lat="42.1031581" lon="13.4405654"><ele>972.25</ele><time>2026-05-02T14:21:27.9Z</time></trkpt><trkpt lat="42.1030512" lon="13.4404104"><ele>972.0</ele><time>2026-05-02T14:21:28.931Z</time></trkpt><trkpt lat="42.1029245" lon="13.4402545"><ele>972.0</ele><time>2026-05-02T14:21:29.901Z</time></trkpt><trkpt lat="42.1027957" lon="13.4401395"><ele>972.0</ele><time>2026-05-02T14:21:30.91Z</time></trkpt><trkpt lat="42.102665" lon="13.4400479"><ele>972.0</ele><time>2026-05-02T14:21:31.895Z</time></trkpt><trkpt lat="42.1025275" lon="13.4399961"><ele>972.0</ele><time>2026-05-02T14:21:32.921Z</time></trkpt><trkpt lat="42.1024212" lon="13.4399341"><ele>971.75</ele><time>2026-05-02T14:21:33.922Z</time></trkpt><trkpt lat="42.1023249" lon="13.4398432"><ele>971.5</ele><time>2026-05-02T14:21:34.908Z</time></trkpt><trkpt lat="42.1022186" lon="13.4397086"><ele>971.25</ele><time>2026-05-02T14:21:35.921Z</time></trkpt><trkpt lat="42.1021064" lon="13.439542"><ele>971.0</ele><time>2026-05-02T14:21:36.906Z</time></trkpt><trkpt lat="42.1019948" lon="13.4393718"><ele>972.6666666666667</ele><time>2026-05-02T14:21:37.903Z</time></trkpt><trkpt lat="42.1018828" lon="13.4391969"><ele>974.3333333333333</ele><time>2026-05-02T14:21:38.915Z</time></trkpt><trkpt lat="42.1017617" lon="13.4390276"><ele>976.0</ele><time>2026-05-02T14:21:39.895Z</time></trkpt><trkpt lat="42.1016302" lon="13.438866"><ele>975.75</ele><time>2026-05-02T14:21:40.924Z</time></trkpt><trkpt lat="42.1015207" lon="13.4387102"><ele>975.5</ele><time>2026-05-02T14:21:41.917Z</time></trkpt><trkpt lat="42.1014287" lon="13.4385686"><ele>975.25</ele><time>2026-05-02T14:21:42.9Z</time></trkpt><trkpt lat="42.1013403" lon="13.4384269"><ele>975.0</ele><time>2026-05-02T14:21:43.916Z</time></trkpt><trkpt lat="42.1012502" lon="13.4382594"><ele>975.0</ele><time>2026-05-02T14:21:44.905Z</time></trkpt><trkpt lat="42.1011514" lon="13.4380796"><ele>975.0</ele><time>2026-05-02T14:21:45.905Z</time></trkpt><trkpt lat="42.1010533" lon="13.4379079"><ele>975.0</ele><time>2026-05-02T14:21:46.892Z</time></trkpt><trkpt lat="42.1009602" lon="13.4377408"><ele>975.0</ele><time>2026-05-02T14:21:47.896Z</time></trkpt><trkpt lat="42.1008785" lon="13.4375985"><ele>975.0</ele><time>2026-05-02T14:21:48.9Z</time></trkpt><trkpt lat="42.1008087" lon="13.4374882"><ele>975.0</ele><time>2026-05-02T14:21:49.892Z</time></trkpt><trkpt lat="42.1007562" lon="13.4373993"><ele>975.0</ele><time>2026-05-02T14:21:50.898Z</time></trkpt><trkpt lat="42.1006917" lon="13.4373006"><ele>975.0</ele><time>2026-05-02T14:21:52.909Z</time></trkpt><trkpt lat="42.1006139" lon="13.4371785"><ele>974.25</ele><time>2026-05-02T14:21:54.902Z</time></trkpt><trkpt lat="42.1005613" lon="13.4370827"><ele>973.5</ele><time>2026-05-02T14:21:55.912Z</time></trkpt><trkpt lat="42.1005002" lon="13.4369639"><ele>972.75</ele><time>2026-05-02T14:21:56.904Z</time></trkpt><trkpt lat="42.1004309" lon="13.4368131"><ele>972.0</ele><time>2026-05-02T14:21:57.909Z</time></trkpt><trkpt lat="42.1003546" lon="13.4366503"><ele>972.0</ele><time>2026-05-02T14:21:58.917Z</time></trkpt><trkpt lat="42.1002734" lon="13.4364826"><ele>972.0</ele><time>2026-05-02T14:21:59.915Z</time></trkpt><trkpt lat="42.1001866" lon="13.4363049"><ele>972.0</ele><time>2026-05-02T14:22:00.897Z</time></trkpt><trkpt lat="42.1001111" lon="13.4361196"><ele>972.0</ele><time>2026-05-02T14:22:01.907Z</time></trkpt><trkpt lat="42.1000335" lon="13.4359251"><ele>972.0</ele><time>2026-05-02T14:22:02.897Z</time></trkpt><trkpt lat="42.099957" lon="13.4357305"><ele>972.0</ele><time>2026-05-02T14:22:03.907Z</time></trkpt><trkpt lat="42.09989" lon="13.4355633"><ele>972.5</ele><time>2026-05-02T14:22:04.904Z</time></trkpt><trkpt lat="42.0998382" lon="13.4354004"><ele>973.0</ele><time>2026-05-02T14:22:05.91Z</time></trkpt><trkpt lat="42.0997783" lon="13.43522"><ele>973.5</ele><time>2026-05-02T14:22:06.904Z</time></trkpt><trkpt lat="42.0997153" lon="13.4350235"><ele>974.0</ele><time>2026-05-02T14:22:07.915Z</time></trkpt><trkpt lat="42.0996455" lon="13.4348322"><ele>974.0</ele><time>2026-05-02T14:22:08.915Z</time></trkpt><trkpt lat="42.09957" lon="13.4346473"><ele>974.0</ele><time>2026-05-02T14:22:09.935Z</time></trkpt><trkpt lat="42.0994974" lon="13.4344863"><ele>974.0</ele><time>2026-05-02T14:22:10.907Z</time></trkpt><trkpt lat="42.0994436" lon="13.4343469"><ele>974.0</ele><time>2026-05-02T14:22:11.916Z</time></trkpt><trkpt lat="42.0994026" lon="13.4342301"><ele>974.2</ele><time>2026-05-02T14:22:12.905Z</time></trkpt><trkpt lat="42.0993757" lon="13.4341262"><ele>974.4000000000001</ele><time>2026-05-02T14:22:13.896Z</time></trkpt><trkpt lat="42.0993541" lon="13.4339993"><ele>974.6</ele><time>2026-05-02T14:22:15.917Z</time></trkpt><trkpt lat="42.0993083" lon="13.4338762"><ele>974.8</ele><time>2026-05-02T14:22:17.919Z</time></trkpt><trkpt lat="42.0992451" lon="13.4337888"><ele>975.0</ele><time>2026-05-02T14:22:18.895Z</time></trkpt><trkpt lat="42.0991613" lon="13.4337055"><ele>974.0</ele><time>2026-05-02T14:22:19.912Z</time></trkpt><trkpt lat="42.0990459" lon="13.4335846"><ele>973.0</ele><time>2026-05-02T14:22:20.898Z</time></trkpt><trkpt lat="42.0989193" lon="13.4334553"><ele>972.0</ele><time>2026-05-02T14:22:21.906Z</time></trkpt><trkpt lat="42.0987752" lon="13.433307"><ele>972.0</ele><time>2026-05-02T14:22:22.908Z</time></trkpt><trkpt lat="42.0986367" lon="13.433158"><ele>972.0</ele><time>2026-05-02T14:22:23.904Z</time></trkpt><trkpt lat="42.0984978" lon="13.4330142"><ele>972.0</ele><time>2026-05-02T14:22:24.932Z</time></trkpt><trkpt lat="42.0983651" lon="13.4328846"><ele>971.25</ele><time>2026-05-02T14:22:25.882Z</time></trkpt><trkpt lat="42.0982431" lon="13.4327593"><ele>970.5</ele><time>2026-05-02T14:22:26.893Z</time></trkpt><trkpt lat="42.0981296" lon="13.4326423"><ele>969.75</ele><time>2026-05-02T14:22:27.884Z</time></trkpt><trkpt lat="42.0980368" lon="13.4325364"><ele>969.0</ele><time>2026-05-02T14:22:28.938Z</time></trkpt><trkpt lat="42.0979433" lon="13.4324318"><ele>969.0</ele><time>2026-05-02T14:22:29.903Z</time></trkpt><trkpt lat="42.0978658" lon="13.4323318"><ele>969.0</ele><time>2026-05-02T14:22:30.893Z</time></trkpt><trkpt lat="42.0978078" lon="13.4322538"><ele>969.0</ele><time>2026-05-02T14:22:31.892Z</time></trkpt><trkpt lat="42.0977427" lon="13.4321326"><ele>969.0</ele><time>2026-05-02T14:22:33.896Z</time></trkpt><trkpt lat="42.097698" lon="13.4320514"><ele>969.0</ele><time>2026-05-02T14:22:35.892Z</time></trkpt><trkpt lat="42.0976255" lon="13.4320704"><ele>969.0</ele><time>2026-05-02T14:22:38.899Z</time></trkpt><trkpt lat="42.0976405" lon="13.4321544"><ele>969.0</ele><time>2026-05-02T14:22:40.899Z</time></trkpt><trkpt lat="42.0976953" lon="13.4322004"><ele>969.0</ele><time>2026-05-02T14:22:41.889Z</time></trkpt><trkpt lat="42.0977659" lon="13.4322441"><ele>969.0</ele><time>2026-05-02T14:22:42.886Z</time></trkpt><trkpt lat="42.0978362" lon="13.4322901"><ele>969.0</ele><time>2026-05-02T14:22:43.897Z</time></trkpt><trkpt lat="42.0979302" lon="13.4323159"><ele>969.0</ele><time>2026-05-02T14:22:45.898Z</time></trkpt><trkpt lat="42.0980073" lon="13.4322647"><ele>969.0</ele><time>2026-05-02T14:22:47.891Z</time></trkpt><trkpt lat="42.0980723" lon="13.4322749"><ele>967.0</ele><time>2026-05-02T14:22:48.897Z</time></trkpt><trkpt lat="42.0982532" lon="13.4323865"><ele>965.0</ele><time>2026-05-02T14:22:50.92Z</time></trkpt><trkpt lat="42.0983642" lon="13.4324934"><ele>963.0</ele><time>2026-05-02T14:22:51.902Z</time></trkpt><trkpt lat="42.0984841" lon="13.4326074"><ele>963.0</ele><time>2026-05-02T14:22:52.9Z</time></trkpt><trkpt lat="42.0986059" lon="13.4327209"><ele>963.0</ele><time>2026-05-02T14:22:53.897Z</time></trkpt><trkpt lat="42.0987274" lon="13.4328154"><ele>963.0</ele><time>2026-05-02T14:22:54.894Z</time></trkpt><trkpt lat="42.0988574" lon="13.4328942"><ele>963.0</ele><time>2026-05-02T14:22:55.9Z</time></trkpt><trkpt lat="42.0990011" lon="13.4329552"><ele>964.2</ele><time>2026-05-02T14:22:56.882Z</time></trkpt><trkpt lat="42.0991281" lon="13.4329783"><ele>965.4</ele><time>2026-05-02T14:22:57.895Z</time></trkpt><trkpt lat="42.099225" lon="13.4330026"><ele>966.6000000000001</ele><time>2026-05-02T14:22:58.898Z</time></trkpt><trkpt lat="42.0993038" lon="13.4330543"><ele>967.8000000000001</ele><time>2026-05-02T14:22:59.902Z</time></trkpt><trkpt lat="42.0993728" lon="13.4331"><ele>969.0</ele><time>2026-05-02T14:23:00.891Z</time></trkpt><trkpt lat="42.0994865" lon="13.433058"><ele>969.0</ele><time>2026-05-02T14:23:02.902Z</time></trkpt><trkpt lat="42.0995525" lon="13.4330121"><ele>969.0000000000001</ele><time>2026-05-02T14:23:03.889Z</time></trkpt><trkpt lat="42.0996456" lon="13.4329609"><ele>969.0000000000001</ele><time>2026-05-02T14:23:04.909Z</time></trkpt><trkpt lat="42.0997323" lon="13.432912"><ele>969.0</ele><time>2026-05-02T14:23:05.894Z</time></trkpt><trkpt lat="42.0998203" lon="13.4328624"><ele>969.0</ele><time>2026-05-02T14:23:06.896Z</time></trkpt><trkpt lat="42.0999061" lon="13.4328054"><ele>965.2</ele><time>2026-05-02T14:23:07.901Z</time></trkpt><trkpt lat="42.0999798" lon="13.432739"><ele>961.4000000000001</ele><time>2026-05-02T14:23:08.894Z</time></trkpt><trkpt lat="42.100059" lon="13.4326488"><ele>957.6</ele><time>2026-05-02T14:23:09.895Z</time></trkpt><trkpt lat="42.1001203" lon="13.4325519"><ele>953.8</ele><time>2026-05-02T14:23:10.911Z</time></trkpt><trkpt lat="42.1001607" lon="13.4324767"><ele>950.0</ele><time>2026-05-02T14:23:11.884Z</time></trkpt><trkpt lat="42.1002" lon="13.4323559"><ele>950.0000000000001</ele><time>2026-05-02T14:23:13.9Z</time></trkpt><trkpt lat="42.1002368" lon="13.4322547"><ele>950.0</ele><time>2026-05-02T14:23:15.904Z</time></trkpt><trkpt lat="42.1002818" lon="13.4321588"><ele>950.0</ele><time>2026-05-02T14:23:20.884Z</time></trkpt><trkpt lat="42.1002484" lon="13.4320736"><ele>950.0</ele><time>2026-05-02T14:23:23.895Z</time></trkpt><trkpt lat="42.1001603" lon="13.4320365"><ele>950.0000000000001</ele><time>2026-05-02T14:23:26.88Z</time></trkpt><trkpt lat="42.1000944" lon="13.4319805"><ele>950.0</ele><time>2026-05-02T14:23:28.883Z</time></trkpt><trkpt lat="42.1000408" lon="13.4319183"><ele>949.3333333333334</ele><time>2026-05-02T14:23:31.876Z</time></trkpt><trkpt lat="42.0999786" lon="13.4319357"><ele>948.6666666666667</ele><time>2026-05-02T14:23:33.89Z</time></trkpt><trkpt lat="42.0999024" lon="13.4319601"><ele>948.0</ele><time>2026-05-02T14:23:35.897Z</time></trkpt><trkpt lat="42.0997734" lon="13.4320231"><ele>947.3333333333333</ele><time>2026-05-02T14:23:37.884Z</time></trkpt><trkpt lat="42.0996932" lon="13.4320614"><ele>946.6666666666666</ele><time>2026-05-02T14:23:38.885Z</time></trkpt><trkpt lat="42.099618" lon="13.4320898"><ele>946.0</ele><time>2026-05-02T14:23:39.894Z</time></trkpt><trkpt lat="42.0995546" lon="13.4320888"><ele>944.5999999999999</ele><time>2026-05-02T14:23:40.887Z</time></trkpt><trkpt lat="42.0994539" lon="13.4320659"><ele>943.1999999999999</ele><time>2026-05-02T14:23:42.895Z</time></trkpt><trkpt lat="42.0993933" lon="13.4320248"><ele>941.8000000000001</ele><time>2026-05-02T14:23:43.887Z</time></trkpt><trkpt lat="42.0993034" lon="13.431976"><ele>940.4000000000001</ele><time>2026-05-02T14:23:44.889Z</time></trkpt><trkpt lat="42.0991935" lon="13.4319188"><ele>939.0</ele><time>2026-05-02T14:23:45.876Z</time></trkpt><trkpt lat="42.0990953" lon="13.4318625"><ele>940.5</ele><time>2026-05-02T14:23:46.905Z</time></trkpt><trkpt lat="42.0990077" lon="13.4317827"><ele>942.0</ele><time>2026-05-02T14:23:47.902Z</time></trkpt><trkpt lat="42.0989242" lon="13.431685"><ele>943.5</ele><time>2026-05-02T14:23:48.883Z</time></trkpt><trkpt lat="42.0988225" lon="13.4315563"><ele>945.0</ele><time>2026-05-02T14:23:49.9Z</time></trkpt><trkpt lat="42.0987069" lon="13.4314113"><ele>943.0</ele><time>2026-05-02T14:23:50.892Z</time></trkpt><trkpt lat="42.0985952" lon="13.4312736"><ele>941.0</ele><time>2026-05-02T14:23:51.88Z</time></trkpt><trkpt lat="42.0984975" lon="13.431147"><ele>939.0</ele><time>2026-05-02T14:23:52.895Z</time></trkpt><trkpt lat="42.0983907" lon="13.4310319"><ele>937.0</ele><time>2026-05-02T14:23:53.888Z</time></trkpt><trkpt lat="42.0982983" lon="13.4309295"><ele>937.6</ele><time>2026-05-02T14:23:54.9Z</time></trkpt><trkpt lat="42.0982259" lon="13.4308436"><ele>938.2</ele><time>2026-05-02T14:23:55.89Z</time></trkpt><trkpt lat="42.0981644" lon="13.4307297"><ele>938.8</ele><time>2026-05-02T14:23:56.893Z</time></trkpt><trkpt lat="42.0981012" lon="13.4306292"><ele>939.4</ele><time>2026-05-02T14:23:57.879Z</time></trkpt><trkpt lat="42.0980322" lon="13.430528"><ele>940.0</ele><time>2026-05-02T14:23:58.879Z</time></trkpt><trkpt lat="42.0979651" lon="13.430426"><ele>940.0</ele><time>2026-05-02T14:23:59.882Z</time></trkpt><trkpt lat="42.0978971" lon="13.4302907"><ele>940.0</ele><time>2026-05-02T14:24:00.892Z</time></trkpt><trkpt lat="42.0978258" lon="13.4301277"><ele>940.0</ele><time>2026-05-02T14:24:01.884Z</time></trkpt><trkpt lat="42.0977547" lon="13.4299566"><ele>940.0</ele><time>2026-05-02T14:24:02.896Z</time></trkpt><trkpt lat="42.0976907" lon="13.4297864"><ele>938.25</ele><time>2026-05-02T14:24:03.884Z</time></trkpt><trkpt lat="42.0976316" lon="13.4296118"><ele>936.5</ele><time>2026-05-02T14:24:04.897Z</time></trkpt><trkpt lat="42.0975829" lon="13.4294434"><ele>934.75</ele><time>2026-05-02T14:24:05.891Z</time></trkpt><trkpt lat="42.0975514" lon="13.4292585"><ele>933.0</ele><time>2026-05-02T14:24:06.893Z</time></trkpt><trkpt lat="42.0975141" lon="13.4290397"><ele>933.0</ele><time>2026-05-02T14:24:07.891Z</time></trkpt><trkpt lat="42.0974668" lon="13.4288134"><ele>933.0</ele><time>2026-05-02T14:24:08.899Z</time></trkpt><trkpt lat="42.0974103" lon="13.4285948"><ele>933.0</ele><time>2026-05-02T14:24:09.9Z</time></trkpt><trkpt lat="42.0973531" lon="13.4283979"><ele>933.2</ele><time>2026-05-02T14:24:10.896Z</time></trkpt><trkpt lat="42.0973011" lon="13.4282318"><ele>933.4</ele><time>2026-05-02T14:24:11.894Z</time></trkpt><trkpt lat="42.0972637" lon="13.4281017"><ele>933.6000000000001</ele><time>2026-05-02T14:24:12.89Z</time></trkpt><trkpt lat="42.0972268" lon="13.4279893"><ele>933.8000000000001</ele><time>2026-05-02T14:24:13.891Z</time></trkpt><trkpt lat="42.0971943" lon="13.4278651"><ele>934.0</ele><time>2026-05-02T14:24:14.897Z</time></trkpt><trkpt lat="42.097167" lon="13.4277295"><ele>934.0</ele><time>2026-05-02T14:24:15.888Z</time></trkpt><trkpt lat="42.0971508" lon="13.4275934"><ele>934.0</ele><time>2026-05-02T14:24:16.902Z</time></trkpt><trkpt lat="42.0971363" lon="13.4274534"><ele>934.0</ele><time>2026-05-02T14:24:17.889Z</time></trkpt><trkpt lat="42.0971066" lon="13.4272954"><ele>934.0</ele><time>2026-05-02T14:24:18.887Z</time></trkpt><trkpt lat="42.0970621" lon="13.4270948"><ele>931.6666666666666</ele><time>2026-05-02T14:24:19.898Z</time></trkpt><trkpt lat="42.0970237" lon="13.4268813"><ele>929.3333333333333</ele><time>2026-05-02T14:24:20.896Z</time></trkpt><trkpt lat="42.0969844" lon="13.4266688"><ele>927.0</ele><time>2026-05-02T14:24:21.885Z</time></trkpt><trkpt lat="42.0969522" lon="13.4264674"><ele>926.0</ele><time>2026-05-02T14:24:22.907Z</time></trkpt><trkpt lat="42.0969285" lon="13.4262804"><ele>925.0</ele><time>2026-05-02T14:24:23.894Z</time></trkpt><trkpt lat="42.0969018" lon="13.4261036"><ele>924.0</ele><time>2026-05-02T14:24:24.891Z</time></trkpt><trkpt lat="42.0968674" lon="13.4259223"><ele>923.0</ele><time>2026-05-02T14:24:25.907Z</time></trkpt><trkpt lat="42.0968334" lon="13.4257339"><ele>923.0</ele><time>2026-05-02T14:24:26.884Z</time></trkpt><trkpt lat="42.0968048" lon="13.4255609"><ele>923.0</ele><time>2026-05-02T14:24:27.886Z</time></trkpt><trkpt lat="42.0967616" lon="13.4254029"><ele>923.0</ele><time>2026-05-02T14:24:28.881Z</time></trkpt><trkpt lat="42.096706" lon="13.4252102"><ele>923.0</ele><time>2026-05-02T14:24:29.887Z</time></trkpt><trkpt lat="42.096644" lon="13.424986"><ele>922.3333333333334</ele><time>2026-05-02T14:24:30.875Z</time></trkpt><trkpt lat="42.0965764" lon="13.4247637"><ele>921.6666666666667</ele><time>2026-05-02T14:24:31.88Z</time></trkpt><trkpt lat="42.0964862" lon="13.4245447"><ele>921.0</ele><time>2026-05-02T14:24:32.876Z</time></trkpt><trkpt lat="42.0963974" lon="13.4243525"><ele>921.0</ele><time>2026-05-02T14:24:33.902Z</time></trkpt><trkpt lat="42.0963038" lon="13.424184"><ele>921.0</ele><time>2026-05-02T14:24:34.899Z</time></trkpt><trkpt lat="42.0962045" lon="13.4240233"><ele>921.0</ele><time>2026-05-02T14:24:35.888Z</time></trkpt><trkpt lat="42.0961073" lon="13.4238662"><ele>919.0</ele><time>2026-05-02T14:24:36.904Z</time></trkpt><trkpt lat="42.0960211" lon="13.4237156"><ele>917.0</ele><time>2026-05-02T14:24:37.887Z</time></trkpt><trkpt lat="42.0959449" lon="13.4235649"><ele>915.0</ele><time>2026-05-02T14:24:38.888Z</time></trkpt><trkpt lat="42.0958812" lon="13.4234059"><ele>913.0</ele><time>2026-05-02T14:24:39.883Z</time></trkpt><trkpt lat="42.0958189" lon="13.4232439"><ele>913.0</ele><time>2026-05-02T14:24:40.892Z</time></trkpt><trkpt lat="42.095764" lon="13.4230673"><ele>913.0</ele><time>2026-05-02T14:24:41.879Z</time></trkpt><trkpt lat="42.0957117" lon="13.4228999"><ele>913.0</ele><time>2026-05-02T14:24:42.879Z</time></trkpt><trkpt lat="42.0956698" lon="13.4227589"><ele>913.0</ele><time>2026-05-02T14:24:43.888Z</time></trkpt><trkpt lat="42.0956405" lon="13.4226199"><ele>915.25</ele><time>2026-05-02T14:24:44.905Z</time></trkpt><trkpt lat="42.0956188" lon="13.4224747"><ele>917.5</ele><time>2026-05-02T14:24:45.893Z</time></trkpt><trkpt lat="42.0955999" lon="13.4223192"><ele>919.75</ele><time>2026-05-02T14:24:46.879Z</time></trkpt><trkpt lat="42.0955848" lon="13.4221412"><ele>922.0</ele><time>2026-05-02T14:24:47.884Z</time></trkpt><trkpt lat="42.0955736" lon="13.4219592"><ele>922.0</ele><time>2026-05-02T14:24:48.879Z</time></trkpt><trkpt lat="42.095569" lon="13.4217732"><ele>922.0</ele><time>2026-05-02T14:24:49.886Z</time></trkpt><trkpt lat="42.0955565" lon="13.421569"><ele>922.0</ele><time>2026-05-02T14:24:50.895Z</time></trkpt><trkpt lat="42.0955521" lon="13.4213467"><ele>919.3333333333333</ele><time>2026-05-02T14:24:51.888Z</time></trkpt><trkpt lat="42.0955402" lon="13.4211179"><ele>916.6666666666667</ele><time>2026-05-02T14:24:52.89Z</time></trkpt><trkpt lat="42.0955368" lon="13.4209019"><ele>914.0</ele><time>2026-05-02T14:24:53.887Z</time></trkpt><trkpt lat="42.0955297" lon="13.4206807"><ele>913.75</ele><time>2026-05-02T14:24:54.887Z</time></trkpt><trkpt lat="42.0955412" lon="13.4204566"><ele>913.5</ele><time>2026-05-02T14:24:55.887Z</time></trkpt><trkpt lat="42.0955331" lon="13.4202556"><ele>913.25</ele><time>2026-05-02T14:24:56.902Z</time></trkpt><trkpt lat="42.0955077" lon="13.4200828"><ele>913.0</ele><time>2026-05-02T14:24:57.899Z</time></trkpt><trkpt lat="42.0954802" lon="13.4199299"><ele>913.0</ele><time>2026-05-02T14:24:58.894Z</time></trkpt><trkpt lat="42.0954632" lon="13.4197774"><ele>913.0</ele><time>2026-05-02T14:24:59.893Z</time></trkpt><trkpt lat="42.0954603" lon="13.4196019"><ele>913.0</ele><time>2026-05-02T14:25:00.907Z</time></trkpt><trkpt lat="42.0954669" lon="13.4194175"><ele>913.0</ele><time>2026-05-02T14:25:01.897Z</time></trkpt><trkpt lat="42.0954703" lon="13.4192253"><ele>911.6666666666666</ele><time>2026-05-02T14:25:02.897Z</time></trkpt><trkpt lat="42.0954793" lon="13.4190207"><ele>910.3333333333333</ele><time>2026-05-02T14:25:03.903Z</time></trkpt><trkpt lat="42.095482" lon="13.4188159"><ele>909.0</ele><time>2026-05-02T14:25:04.899Z</time></trkpt><trkpt lat="42.0954811" lon="13.4186055"><ele>907.3333333333333</ele><time>2026-05-02T14:25:05.911Z</time></trkpt><trkpt lat="42.095471" lon="13.4183818"><ele>905.6666666666666</ele><time>2026-05-02T14:25:06.899Z</time></trkpt><trkpt lat="42.0954575" lon="13.418146"><ele>904.0</ele><time>2026-05-02T14:25:07.886Z</time></trkpt><trkpt lat="42.0954616" lon="13.4179533"><ele>902.75</ele><time>2026-05-02T14:25:08.902Z</time></trkpt><trkpt lat="42.0954577" lon="13.4177985"><ele>901.5</ele><time>2026-05-02T14:25:09.904Z</time></trkpt><trkpt lat="42.0954359" lon="13.4176535"><ele>900.25</ele><time>2026-05-02T14:25:10.89Z</time></trkpt><trkpt lat="42.0953915" lon="13.4174838"><ele>899.0</ele><time>2026-05-02T14:25:11.888Z</time></trkpt><trkpt lat="42.0953361" lon="13.4172938"><ele>897.5</ele><time>2026-05-02T14:25:12.907Z</time></trkpt><trkpt lat="42.0952983" lon="13.4170775"><ele>896.0</ele><time>2026-05-02T14:25:13.884Z</time></trkpt><trkpt lat="42.0952582" lon="13.4168682"><ele>894.5</ele><time>2026-05-02T14:25:14.889Z</time></trkpt><trkpt lat="42.095233" lon="13.4167148"><ele>893.0</ele><time>2026-05-02T14:25:15.897Z</time></trkpt><trkpt lat="42.0952091" lon="13.416618"><ele>893.0000000000001</ele><time>2026-05-02T14:25:16.889Z</time></trkpt><trkpt lat="42.0952036" lon="13.4165142"><ele>893.0</ele><time>2026-05-02T14:25:18.887Z</time></trkpt><trkpt lat="42.0952909" lon="13.4164556"><ele>893.0</ele><time>2026-05-02T14:25:21.891Z</time></trkpt><trkpt lat="42.095371" lon="13.4164257"><ele>893.0</ele><time>2026-05-02T14:25:23.898Z</time></trkpt><trkpt lat="42.0954407" lon="13.4163622"><ele>893.0000000000001</ele><time>2026-05-02T14:25:28.897Z</time></trkpt><trkpt lat="42.0954945" lon="13.4162704"><ele>893.0</ele><time>2026-05-02T14:25:30.899Z</time></trkpt><trkpt lat="42.0955516" lon="13.4161785"><ele>892.0</ele><time>2026-05-02T14:25:32.912Z</time></trkpt><trkpt lat="42.095607" lon="13.4160442"><ele>891.0</ele><time>2026-05-02T14:25:34.918Z</time></trkpt><trkpt lat="42.0956241" lon="13.4159344"><ele>890.0</ele><time>2026-05-02T14:25:35.916Z</time></trkpt><trkpt lat="42.0956358" lon="13.4158171"><ele>889.0</ele><time>2026-05-02T14:25:36.902Z</time></trkpt><trkpt lat="42.0956446" lon="13.4156907"><ele>888.0</ele><time>2026-05-02T14:25:37.896Z</time></trkpt><trkpt lat="42.0956566" lon="13.4155723"><ele>887.4</ele><time>2026-05-02T14:25:38.911Z</time></trkpt><trkpt lat="42.0956919" lon="13.4154808"><ele>886.8</ele><time>2026-05-02T14:25:39.909Z</time></trkpt><trkpt lat="42.0957394" lon="13.4153933"><ele>886.2</ele><time>2026-05-02T14:25:40.908Z</time></trkpt><trkpt lat="42.0958036" lon="13.4152977"><ele>885.6</ele><time>2026-05-02T14:25:41.888Z</time></trkpt><trkpt lat="42.0958838" lon="13.4151843"><ele>885.0</ele><time>2026-05-02T14:25:42.904Z</time></trkpt><trkpt lat="42.0959719" lon="13.4150627"><ele>887.5</ele><time>2026-05-02T14:25:43.9Z</time></trkpt><trkpt lat="42.0960604" lon="13.4149582"><ele>890.0</ele><time>2026-05-02T14:25:44.895Z</time></trkpt><trkpt lat="42.0961541" lon="13.4148771"><ele>892.5</ele><time>2026-05-02T14:25:45.909Z</time></trkpt><trkpt lat="42.0962473" lon="13.4148051"><ele>895.0</ele><time>2026-05-02T14:25:46.908Z</time></trkpt><trkpt lat="42.0963645" lon="13.4147192"><ele>896.3333333333333</ele><time>2026-05-02T14:25:47.901Z</time></trkpt><trkpt lat="42.0965009" lon="13.4146194"><ele>897.6666666666667</ele><time>2026-05-02T14:25:48.897Z</time></trkpt><trkpt lat="42.0966434" lon="13.4145352"><ele>899.0</ele><time>2026-05-02T14:25:49.898Z</time></trkpt><trkpt lat="42.0967708" lon="13.4144573"><ele>899.0</ele><time>2026-05-02T14:25:50.903Z</time></trkpt><trkpt lat="42.0968938" lon="13.4144032"><ele>899.0</ele><time>2026-05-02T14:25:51.908Z</time></trkpt><trkpt lat="42.0970256" lon="13.4143429"><ele>899.0</ele><time>2026-05-02T14:25:52.906Z</time></trkpt><trkpt lat="42.097151" lon="13.4142764"><ele>899.0</ele><time>2026-05-02T14:25:53.888Z</time></trkpt><trkpt lat="42.097251" lon="13.4141904"><ele>899.0</ele><time>2026-05-02T14:25:54.894Z</time></trkpt><trkpt lat="42.0973435" lon="13.4140776"><ele>899.0000000000001</ele><time>2026-05-02T14:25:55.897Z</time></trkpt><trkpt lat="42.0974261" lon="13.4139708"><ele>899.0000000000001</ele><time>2026-05-02T14:25:56.915Z</time></trkpt><trkpt lat="42.0975002" lon="13.4138932"><ele>899.0</ele><time>2026-05-02T14:25:57.895Z</time></trkpt><trkpt lat="42.0975795" lon="13.4138462"><ele>899.0</ele><time>2026-05-02T14:25:58.908Z</time></trkpt><trkpt lat="42.0976714" lon="13.4138043"><ele>898.6</ele><time>2026-05-02T14:25:59.893Z</time></trkpt><trkpt lat="42.0977698" lon="13.4137727"><ele>898.2</ele><time>2026-05-02T14:26:00.895Z</time></trkpt><trkpt lat="42.0978653" lon="13.4137474"><ele>897.8000000000001</ele><time>2026-05-02T14:26:01.9Z</time></trkpt><trkpt lat="42.0979419" lon="13.4137208"><ele>897.4000000000001</ele><time>2026-05-02T14:26:02.898Z</time></trkpt><trkpt lat="42.098003" lon="13.4136886"><ele>897.0</ele><time>2026-05-02T14:26:03.898Z</time></trkpt><trkpt lat="42.0981047" lon="13.4136431"><ele>897.0</ele><time>2026-05-02T14:26:05.894Z</time></trkpt><trkpt lat="42.0981737" lon="13.4136058"><ele>897.0</ele><time>2026-05-02T14:26:08.895Z</time></trkpt><trkpt lat="42.0982427" lon="13.4135403"><ele>897.0</ele><time>2026-05-02T14:26:12.901Z</time></trkpt><trkpt lat="42.0983277" lon="13.4134779"><ele>897.0</ele><time>2026-05-02T14:26:14.9Z</time></trkpt><trkpt lat="42.0984007" lon="13.4134267"><ele>897.0</ele><time>2026-05-02T14:26:15.904Z</time></trkpt><trkpt lat="42.0984839" lon="13.4133669"><ele>897.0</ele><time>2026-05-02T14:26:16.911Z</time></trkpt><trkpt lat="42.0985792" lon="13.4132763"><ele>897.25</ele><time>2026-05-02T14:26:17.91Z</time></trkpt><trkpt lat="42.098678" lon="13.4131636"><ele>897.5</ele><time>2026-05-02T14:26:18.912Z</time></trkpt><trkpt lat="42.0987793" lon="13.4130325"><ele>897.75</ele><time>2026-05-02T14:26:19.894Z</time></trkpt><trkpt lat="42.0988828" lon="13.4128917"><ele>898.0</ele><time>2026-05-02T14:26:20.903Z</time></trkpt><trkpt lat="42.0989812" lon="13.4127557"><ele>897.25</ele><time>2026-05-02T14:26:21.898Z</time></trkpt><trkpt lat="42.0990701" lon="13.4126154"><ele>896.5</ele><time>2026-05-02T14:26:22.899Z</time></trkpt><trkpt lat="42.099154" lon="13.4124715"><ele>895.75</ele><time>2026-05-02T14:26:23.907Z</time></trkpt><trkpt lat="42.0992312" lon="13.412319"><ele>895.0</ele><time>2026-05-02T14:26:24.897Z</time></trkpt><trkpt lat="42.0992911" lon="13.4121594"><ele>893.5</ele><time>2026-05-02T14:26:25.901Z</time></trkpt><trkpt lat="42.0993453" lon="13.4120093"><ele>892.0</ele><time>2026-05-02T14:26:26.901Z</time></trkpt><trkpt lat="42.0994064" lon="13.4118854"><ele>890.5</ele><time>2026-05-02T14:26:27.901Z</time></trkpt><trkpt lat="42.0994902" lon="13.4117693"><ele>889.0</ele><time>2026-05-02T14:26:28.902Z</time></trkpt><trkpt lat="42.0995714" lon="13.4116442"><ele>889.0</ele><time>2026-05-02T14:26:29.891Z</time></trkpt><trkpt lat="42.0996326" lon="13.4115345"><ele>889.0000000000001</ele><time>2026-05-02T14:26:30.904Z</time></trkpt><trkpt lat="42.0996895" lon="13.4114664"><ele>889.0000000000001</ele><time>2026-05-02T14:26:31.883Z</time></trkpt><trkpt lat="42.0997682" lon="13.4114187"><ele>889.0</ele><time>2026-05-02T14:26:32.905Z</time></trkpt><trkpt lat="42.0998581" lon="13.4113726"><ele>889.0</ele><time>2026-05-02T14:26:33.903Z</time></trkpt><trkpt lat="42.099942" lon="13.4113065"><ele>888.0</ele><time>2026-05-02T14:26:34.905Z</time></trkpt><trkpt lat="42.1000209" lon="13.4112034"><ele>887.0</ele><time>2026-05-02T14:26:35.894Z</time></trkpt><trkpt lat="42.1001184" lon="13.4110536"><ele>886.0</ele><time>2026-05-02T14:26:36.9Z</time></trkpt><trkpt lat="42.1002257" lon="13.4108939"><ele>885.0</ele><time>2026-05-02T14:26:37.892Z</time></trkpt><trkpt lat="42.1003268" lon="13.4107142"><ele>885.0</ele><time>2026-05-02T14:26:38.91Z</time></trkpt><trkpt lat="42.1004351" lon="13.4105442"><ele>885.0</ele><time>2026-05-02T14:26:39.894Z</time></trkpt><trkpt lat="42.1005331" lon="13.4103776"><ele>885.0</ele><time>2026-05-02T14:26:40.893Z</time></trkpt><trkpt lat="42.1006305" lon="13.4102039"><ele>883.6666666666667</ele><time>2026-05-02T14:26:41.887Z</time></trkpt><trkpt lat="42.1007159" lon="13.4099964"><ele>882.3333333333334</ele><time>2026-05-02T14:26:42.891Z</time></trkpt><trkpt lat="42.1007921" lon="13.4097693"><ele>881.0</ele><time>2026-05-02T14:26:43.891Z</time></trkpt><trkpt lat="42.1008541" lon="13.4095588"><ele>879.0</ele><time>2026-05-02T14:26:44.893Z</time></trkpt><trkpt lat="42.1009304" lon="13.4093409"><ele>877.0</ele><time>2026-05-02T14:26:45.909Z</time></trkpt><trkpt lat="42.1010159" lon="13.4091096"><ele>875.0</ele><time>2026-05-02T14:26:46.893Z</time></trkpt><trkpt lat="42.1011025" lon="13.4088909"><ele>873.3333333333334</ele><time>2026-05-02T14:26:47.899Z</time></trkpt><trkpt lat="42.1011869" lon="13.408695"><ele>871.6666666666667</ele><time>2026-05-02T14:26:48.901Z</time></trkpt><trkpt lat="42.1012521" lon="13.4084939"><ele>870.0</ele><time>2026-05-02T14:26:49.898Z</time></trkpt><trkpt lat="42.1013073" lon="13.408304"><ele>870.0</ele><time>2026-05-02T14:26:50.903Z</time></trkpt><trkpt lat="42.1013588" lon="13.4081339"><ele>870.0</ele><time>2026-05-02T14:26:51.892Z</time></trkpt><trkpt lat="42.1013951" lon="13.4079646"><ele>870.0</ele><time>2026-05-02T14:26:52.899Z</time></trkpt><trkpt lat="42.1014275" lon="13.4078029"><ele>870.0</ele><time>2026-05-02T14:26:53.884Z</time></trkpt><trkpt lat="42.1014751" lon="13.4076445"><ele>869.5</ele><time>2026-05-02T14:26:54.892Z</time></trkpt><trkpt lat="42.1015469" lon="13.4074821"><ele>869.0</ele><time>2026-05-02T14:26:55.882Z</time></trkpt><trkpt lat="42.1016241" lon="13.407301"><ele>868.5</ele><time>2026-05-02T14:26:56.881Z</time></trkpt><trkpt lat="42.1017051" lon="13.4071258"><ele>868.0</ele><time>2026-05-02T14:26:57.897Z</time></trkpt><trkpt lat="42.1017742" lon="13.4069619"><ele>866.0</ele><time>2026-05-02T14:26:58.892Z</time></trkpt><trkpt lat="42.1018302" lon="13.4068199"><ele>864.0</ele><time>2026-05-02T14:26:59.889Z</time></trkpt><trkpt lat="42.1018872" lon="13.4067027"><ele>862.0</ele><time>2026-05-02T14:27:00.893Z</time></trkpt><trkpt lat="42.101968" lon="13.4066001"><ele>860.0</ele><time>2026-05-02T14:27:01.891Z</time></trkpt><trkpt lat="42.10207" lon="13.4064925"><ele>860.0</ele><time>2026-05-02T14:27:02.907Z</time></trkpt><trkpt lat="42.1021899" lon="13.4063825"><ele>860.0</ele><time>2026-05-02T14:27:03.885Z</time></trkpt><trkpt lat="42.1023032" lon="13.4062754"><ele>860.0</ele><time>2026-05-02T14:27:04.883Z</time></trkpt><trkpt lat="42.1023925" lon="13.4061567"><ele>860.0</ele><time>2026-05-02T14:27:05.89Z</time></trkpt><trkpt lat="42.1024707" lon="13.4060239"><ele>858.0</ele><time>2026-05-02T14:27:06.879Z</time></trkpt><trkpt lat="42.1025445" lon="13.4058571"><ele>856.0</ele><time>2026-05-02T14:27:07.9Z</time></trkpt><trkpt lat="42.1026118" lon="13.4056534"><ele>854.0</ele><time>2026-05-02T14:27:08.903Z</time></trkpt><trkpt lat="42.1026684" lon="13.4054378"><ele>853.0</ele><time>2026-05-02T14:27:09.9Z</time></trkpt><trkpt lat="42.1027303" lon="13.4052198"><ele>852.0</ele><time>2026-05-02T14:27:10.902Z</time></trkpt><trkpt lat="42.1028086" lon="13.4049938"><ele>851.0</ele><time>2026-05-02T14:27:11.888Z</time></trkpt><trkpt lat="42.1028878" lon="13.4047702"><ele>850.0</ele><time>2026-05-02T14:27:12.879Z</time></trkpt><trkpt lat="42.1029617" lon="13.4045482"><ele>849.0</ele><time>2026-05-02T14:27:13.891Z</time></trkpt><trkpt lat="42.1030287" lon="13.4043437"><ele>848.0</ele><time>2026-05-02T14:27:14.891Z</time></trkpt><trkpt lat="42.1030904" lon="13.4041557"><ele>848.0</ele><time>2026-05-02T14:27:15.894Z</time></trkpt><trkpt lat="42.1031591" lon="13.4039827"><ele>848.0</ele><time>2026-05-02T14:27:16.9Z</time></trkpt><trkpt lat="42.1032343" lon="13.4038145"><ele>848.0</ele><time>2026-05-02T14:27:17.899Z</time></trkpt><trkpt lat="42.1033216" lon="13.4036412"><ele>848.0</ele><time>2026-05-02T14:27:18.906Z</time></trkpt><trkpt lat="42.1034216" lon="13.4034406"><ele>846.6666666666667</ele><time>2026-05-02T14:27:19.9Z</time></trkpt><trkpt lat="42.103526" lon="13.4032331"><ele>845.3333333333333</ele><time>2026-05-02T14:27:20.887Z</time></trkpt><trkpt lat="42.1036276" lon="13.4030132"><ele>844.0</ele><time>2026-05-02T14:27:21.888Z</time></trkpt><trkpt lat="42.1037218" lon="13.4028166"><ele>842.6666666666666</ele><time>2026-05-02T14:27:22.903Z</time></trkpt><trkpt lat="42.1038105" lon="13.4026466"><ele>841.3333333333333</ele><time>2026-05-02T14:27:23.893Z</time></trkpt><trkpt lat="42.1039122" lon="13.4024778"><ele>840.0</ele><time>2026-05-02T14:27:24.905Z</time></trkpt><trkpt lat="42.1040281" lon="13.402304"><ele>839.6666666666667</ele><time>2026-05-02T14:27:25.884Z</time></trkpt><trkpt lat="42.1041633" lon="13.4021359"><ele>839.3333333333334</ele><time>2026-05-02T14:27:26.895Z</time></trkpt><trkpt lat="42.1042882" lon="13.4019696"><ele>839.0</ele><time>2026-05-02T14:27:27.888Z</time></trkpt><trkpt lat="42.1044002" lon="13.4017682"><ele>839.0</ele><time>2026-05-02T14:27:28.894Z</time></trkpt><trkpt lat="42.1045089" lon="13.4015508"><ele>839.0</ele><time>2026-05-02T14:27:29.9Z</time></trkpt><trkpt lat="42.1046265" lon="13.4013258"><ele>839.0</ele><time>2026-05-02T14:27:30.892Z</time></trkpt><trkpt lat="42.1047457" lon="13.4011012"><ele>838.6666666666667</ele><time>2026-05-02T14:27:31.897Z</time></trkpt><trkpt lat="42.1048679" lon="13.4008809"><ele>838.3333333333333</ele><time>2026-05-02T14:27:32.89Z</time></trkpt><trkpt lat="42.1049785" lon="13.400683"><ele>838.0</ele><time>2026-05-02T14:27:33.891Z</time></trkpt><trkpt lat="42.1050749" lon="13.4005065"><ele>836.6666666666666</ele><time>2026-05-02T14:27:34.886Z</time></trkpt><trkpt lat="42.10517" lon="13.400331"><ele>835.3333333333333</ele><time>2026-05-02T14:27:35.894Z</time></trkpt><trkpt lat="42.1052691" lon="13.4001508"><ele>834.0</ele><time>2026-05-02T14:27:36.887Z</time></trkpt><trkpt lat="42.1053669" lon="13.3999563"><ele>834.0</ele><time>2026-05-02T14:27:37.901Z</time></trkpt><trkpt lat="42.1054503" lon="13.39976"><ele>834.0</ele><time>2026-05-02T14:27:38.889Z</time></trkpt><trkpt lat="42.1055223" lon="13.399588"><ele>834.0</ele><time>2026-05-02T14:27:39.903Z</time></trkpt><trkpt lat="42.1055744" lon="13.3994414"><ele>834.0</ele><time>2026-05-02T14:27:40.892Z</time></trkpt><trkpt lat="42.1056158" lon="13.399307"><ele>833.8000000000001</ele><time>2026-05-02T14:27:41.887Z</time></trkpt><trkpt lat="42.1056276" lon="13.3991424"><ele>833.6</ele><time>2026-05-02T14:27:42.895Z</time></trkpt><trkpt lat="42.1056188" lon="13.3989934"><ele>833.4</ele><time>2026-05-02T14:27:43.904Z</time></trkpt><trkpt lat="42.1056198" lon="13.3988699"><ele>833.2</ele><time>2026-05-02T14:27:44.896Z</time></trkpt><trkpt lat="42.1056482" lon="13.3987673"><ele>833.0</ele><time>2026-05-02T14:27:45.893Z</time></trkpt><trkpt lat="42.1056829" lon="13.3986808"><ele>833.0</ele><time>2026-05-02T14:27:46.903Z</time></trkpt><trkpt lat="42.1057292" lon="13.3985959"><ele>833.0</ele><time>2026-05-02T14:27:47.901Z</time></trkpt><trkpt lat="42.1057854" lon="13.3985249"><ele>833.0</ele><time>2026-05-02T14:27:48.903Z</time></trkpt><trkpt lat="42.1058684" lon="13.3984521"><ele>833.0</ele><time>2026-05-02T14:27:49.902Z</time></trkpt><trkpt lat="42.1059618" lon="13.3983833"><ele>833.0</ele><time>2026-05-02T14:27:50.891Z</time></trkpt><trkpt lat="42.1060672" lon="13.398293"><ele>833.0</ele><time>2026-05-02T14:27:51.894Z</time></trkpt><trkpt lat="42.1061986" lon="13.3981986"><ele>833.0</ele><time>2026-05-02T14:27:52.887Z</time></trkpt><trkpt lat="42.1063339" lon="13.3981089"><ele>833.0</ele><time>2026-05-02T14:27:53.898Z</time></trkpt><trkpt lat="42.1064626" lon="13.3980226"><ele>833.0</ele><time>2026-05-02T14:27:54.899Z</time></trkpt><trkpt lat="42.10658" lon="13.3979218"><ele>834.3333333333334</ele><time>2026-05-02T14:27:55.88Z</time></trkpt><trkpt lat="42.1066871" lon="13.397789"><ele>835.6666666666667</ele><time>2026-05-02T14:27:56.895Z</time></trkpt><trkpt lat="42.1067897" lon="13.3976314"><ele>837.0</ele><time>2026-05-02T14:27:57.892Z</time></trkpt><trkpt lat="42.1068854" lon="13.3974662"><ele>837.0</ele><time>2026-05-02T14:27:58.921Z</time></trkpt><trkpt lat="42.1069744" lon="13.3973055"><ele>837.0</ele><time>2026-05-02T14:27:59.913Z</time></trkpt><trkpt lat="42.1070506" lon="13.397161"><ele>837.0</ele><time>2026-05-02T14:28:00.892Z</time></trkpt><trkpt lat="42.1071106" lon="13.397038"><ele>837.0</ele><time>2026-05-02T14:28:01.903Z</time></trkpt><trkpt lat="42.1071519" lon="13.396929"><ele>837.4000000000001</ele><time>2026-05-02T14:28:02.896Z</time></trkpt><trkpt lat="42.1071825" lon="13.3968377"><ele>837.8000000000001</ele><time>2026-05-02T14:28:03.892Z</time></trkpt><trkpt lat="42.107148" lon="13.3966963"><ele>838.2</ele><time>2026-05-02T14:28:05.888Z</time></trkpt><trkpt lat="42.1071036" lon="13.3966129"><ele>838.6</ele><time>2026-05-02T14:28:06.893Z</time></trkpt><trkpt lat="42.1070476" lon="13.396513"><ele>839.0</ele><time>2026-05-02T14:28:07.887Z</time></trkpt><trkpt lat="42.1069935" lon="13.3963698"><ele>840.0</ele><time>2026-05-02T14:28:08.898Z</time></trkpt><trkpt lat="42.1069328" lon="13.3962244"><ele>841.0</ele><time>2026-05-02T14:28:09.889Z</time></trkpt><trkpt lat="42.1068644" lon="13.3960759"><ele>842.0</ele><time>2026-05-02T14:28:10.897Z</time></trkpt><trkpt lat="42.1067989" lon="13.3959341"><ele>843.0</ele><time>2026-05-02T14:28:11.902Z</time></trkpt><trkpt lat="42.1067268" lon="13.3957897"><ele>843.0</ele><time>2026-05-02T14:28:12.903Z</time></trkpt><trkpt lat="42.1066522" lon="13.3956266"><ele>843.0</ele><time>2026-05-02T14:28:13.885Z</time></trkpt><trkpt lat="42.1065737" lon="13.3954575"><ele>843.0</ele><time>2026-05-02T14:28:14.897Z</time></trkpt><trkpt lat="42.1064923" lon="13.3952864"><ele>843.0</ele><time>2026-05-02T14:28:15.894Z</time></trkpt><trkpt lat="42.1064153" lon="13.3951161"><ele>843.0</ele><time>2026-05-02T14:28:16.902Z</time></trkpt><trkpt lat="42.1063433" lon="13.394954"><ele>843.0</ele><time>2026-05-02T14:28:17.889Z</time></trkpt><trkpt lat="42.1062823" lon="13.3948051"><ele>843.0</ele><time>2026-05-02T14:28:18.906Z</time></trkpt><trkpt lat="42.1062248" lon="13.3946684"><ele>843.0</ele><time>2026-05-02T14:28:19.885Z</time></trkpt><trkpt lat="42.106172" lon="13.3945494"><ele>843.0</ele><time>2026-05-02T14:28:20.904Z</time></trkpt><trkpt lat="42.1061235" lon="13.3944404"><ele>843.0</ele><time>2026-05-02T14:28:21.89Z</time></trkpt><trkpt lat="42.1060816" lon="13.3943568"><ele>843.0</ele><time>2026-05-02T14:28:22.887Z</time></trkpt><trkpt lat="42.1060307" lon="13.3942657"><ele>843.0</ele><time>2026-05-02T14:28:24.893Z</time></trkpt><trkpt lat="42.1059392" lon="13.3941906"><ele>843.0</ele><time>2026-05-02T14:28:26.897Z</time></trkpt><trkpt lat="42.1058634" lon="13.3941489"><ele>843.0</ele><time>2026-05-02T14:28:27.904Z</time></trkpt><trkpt lat="42.1057802" lon="13.3941148"><ele>841.7142857142857</ele><time>2026-05-02T14:28:28.879Z</time></trkpt><trkpt lat="42.1057014" lon="13.3940801"><ele>840.4285714285713</ele><time>2026-05-02T14:28:29.883Z</time></trkpt><trkpt lat="42.1056372" lon="13.3940474"><ele>839.1428571428571</ele><time>2026-05-02T14:28:30.892Z</time></trkpt><trkpt lat="42.1055777" lon="13.3940088"><ele>837.8571428571429</ele><time>2026-05-02T14:28:31.894Z</time></trkpt><trkpt lat="42.1055167" lon="13.3939663"><ele>836.5714285714286</ele><time>2026-05-02T14:28:32.899Z</time></trkpt><trkpt lat="42.1054581" lon="13.3939237"><ele>835.2857142857143</ele><time>2026-05-02T14:28:33.901Z</time></trkpt><trkpt lat="42.1054029" lon="13.3938623"><ele>834.0</ele><time>2026-05-02T14:28:35.894Z</time></trkpt><trkpt lat="42.1053355" lon="13.3938721"><ele>834.0</ele><time>2026-05-02T14:28:39.876Z</time></trkpt><trkpt lat="42.1052815" lon="13.3939576"><ele>834.0</ele><time>2026-05-02T14:28:42.896Z</time></trkpt><trkpt lat="42.1052444" lon="13.3940271"><ele>834.0</ele><time>2026-05-02T14:28:44.893Z</time></trkpt><trkpt lat="42.1053063" lon="13.3940681"><ele>834.0</ele><time>2026-05-02T14:28:47.894Z</time></trkpt><trkpt lat="42.1053599" lon="13.3939683"><ele>834.0</ele><time>2026-05-02T14:28:49.895Z</time></trkpt><trkpt lat="42.1053735" lon="13.3938821"><ele>834.0</ele><time>2026-05-02T14:28:50.882Z</time></trkpt><trkpt lat="42.1054009" lon="13.393804"><ele>834.0</ele><time>2026-05-02T14:28:51.905Z</time></trkpt><trkpt lat="42.10547" lon="13.393718"><ele>833.3333333333334</ele><time>2026-05-02T14:28:53.894Z</time></trkpt><trkpt lat="42.1055128" lon="13.3936452"><ele>832.6666666666667</ele><time>2026-05-02T14:28:56.886Z</time></trkpt><trkpt lat="42.1055649" lon="13.3935532"><ele>832.0</ele><time>2026-05-02T14:28:59.895Z</time></trkpt><trkpt lat="42.1056291" lon="13.3934792"><ele>831.3333333333334</ele><time>2026-05-02T14:29:01.887Z</time></trkpt><trkpt lat="42.1055672" lon="13.3935621"><ele>830.6666666666667</ele><time>2026-05-02T14:29:12.892Z</time></trkpt><trkpt lat="42.105477" lon="13.3936544"><ele>830.0</ele><time>2026-05-02T14:29:14.902Z</time></trkpt><trkpt lat="42.1053919" lon="13.3937626"><ele>830.0</ele><time>2026-05-02T14:29:16.894Z</time></trkpt><trkpt lat="42.105348" lon="13.3938274"><ele>830.0</ele><time>2026-05-02T14:29:17.91Z</time></trkpt><trkpt lat="42.105305" lon="13.3938954"><ele>830.0</ele><time>2026-05-02T14:29:18.895Z</time></trkpt><trkpt lat="42.1052542" lon="13.3939703"><ele>830.0</ele><time>2026-05-02T14:29:19.89Z</time></trkpt><trkpt lat="42.1051977" lon="13.3940522"><ele>830.0</ele><time>2026-05-02T14:29:20.899Z</time></trkpt><trkpt lat="42.1051379" lon="13.3941194"><ele>830.0</ele><time>2026-05-02T14:29:21.889Z</time></trkpt><trkpt lat="42.1050825" lon="13.3941833"><ele>830.0</ele><time>2026-05-02T14:29:22.907Z</time></trkpt><trkpt lat="42.1050147" lon="13.394277"><ele>830.0</ele><time>2026-05-02T14:29:24.902Z</time></trkpt><trkpt lat="42.1049401" lon="13.3942267"><ele>830.0</ele><time>2026-05-02T14:29:27.886Z</time></trkpt><trkpt lat="42.1049292" lon="13.394035"><ele>830.0</ele><time>2026-05-02T14:29:29.899Z</time></trkpt><trkpt lat="42.1049541" lon="13.3938747"><ele>830.0</ele><time>2026-05-02T14:29:30.895Z</time></trkpt><trkpt lat="42.1049882" lon="13.3937024"><ele>830.0</ele><time>2026-05-02T14:29:31.906Z</time></trkpt><trkpt lat="42.1050286" lon="13.3935244"><ele>830.0</ele><time>2026-05-02T14:29:32.901Z</time></trkpt><trkpt lat="42.1050727" lon="13.3933527"><ele>830.0</ele><time>2026-05-02T14:29:33.897Z</time></trkpt><trkpt lat="42.1051362" lon="13.3931811"><ele>830.0</ele><time>2026-05-02T14:29:34.886Z</time></trkpt><trkpt lat="42.105189" lon="13.3930133"><ele>828.25</ele><time>2026-05-02T14:29:35.896Z</time></trkpt><trkpt lat="42.1052164" lon="13.3928436"><ele>826.5</ele><time>2026-05-02T14:29:36.899Z</time></trkpt><trkpt lat="42.1052179" lon="13.3926769"><ele>824.75</ele><time>2026-05-02T14:29:37.897Z</time></trkpt><trkpt lat="42.1051863" lon="13.3925023"><ele>823.0</ele><time>2026-05-02T14:29:38.897Z</time></trkpt><trkpt lat="42.1051268" lon="13.3923147"><ele>822.6666666666666</ele><time>2026-05-02T14:29:39.89Z</time></trkpt><trkpt lat="42.1050397" lon="13.3921218"><ele>822.3333333333333</ele><time>2026-05-02T14:29:40.894Z</time></trkpt><trkpt lat="42.1049541" lon="13.3919168"><ele>822.0</ele><time>2026-05-02T14:29:41.89Z</time></trkpt><trkpt lat="42.1048751" lon="13.391718"><ele>822.0</ele><time>2026-05-02T14:29:42.892Z</time></trkpt><trkpt lat="42.1048127" lon="13.3915129"><ele>822.0</ele><time>2026-05-02T14:29:43.895Z</time></trkpt><trkpt lat="42.1047555" lon="13.3913045"><ele>822.0</ele><time>2026-05-02T14:29:44.891Z</time></trkpt><trkpt lat="42.1047052" lon="13.3910847"><ele>824.0</ele><time>2026-05-02T14:29:45.9Z</time></trkpt><trkpt lat="42.104657" lon="13.3908678"><ele>826.0</ele><time>2026-05-02T14:29:46.892Z</time></trkpt><trkpt lat="42.1046029" lon="13.390652"><ele>828.0</ele><time>2026-05-02T14:29:47.907Z</time></trkpt><trkpt lat="42.1045565" lon="13.3904677"><ele>828.5999999999999</ele><time>2026-05-02T14:29:48.883Z</time></trkpt><trkpt lat="42.1045135" lon="13.3902867"><ele>829.1999999999999</ele><time>2026-05-02T14:29:49.892Z</time></trkpt><trkpt lat="42.1044812" lon="13.3901275"><ele>829.8</ele><time>2026-05-02T14:29:50.895Z</time></trkpt><trkpt lat="42.104455" lon="13.3899962"><ele>830.4</ele><time>2026-05-02T14:29:51.89Z</time></trkpt><trkpt lat="42.1044294" lon="13.3898912"><ele>831.0</ele><time>2026-05-02T14:29:52.917Z</time></trkpt><trkpt lat="42.1044135" lon="13.3897955"><ele>831.1999999999999</ele><time>2026-05-02T14:29:53.903Z</time></trkpt><trkpt lat="42.1043573" lon="13.3896563"><ele>831.4</ele><time>2026-05-02T14:29:55.905Z</time></trkpt><trkpt lat="42.1042618" lon="13.3895513"><ele>831.6</ele><time>2026-05-02T14:29:57.901Z</time></trkpt><trkpt lat="42.1041771" lon="13.3895222"><ele>831.8</ele><time>2026-05-02T14:29:58.892Z</time></trkpt><trkpt lat="42.1040805" lon="13.3895055"><ele>832.0</ele><time>2026-05-02T14:29:59.893Z</time></trkpt><trkpt lat="42.1039725" lon="13.3894841"><ele>831.4000000000001</ele><time>2026-05-02T14:30:00.898Z</time></trkpt><trkpt lat="42.1038606" lon="13.3894607"><ele>830.8000000000001</ele><time>2026-05-02T14:30:01.902Z</time></trkpt><trkpt lat="42.1037647" lon="13.3894411"><ele>830.2</ele><time>2026-05-02T14:30:02.898Z</time></trkpt><trkpt lat="42.1036841" lon="13.3894081"><ele>829.6</ele><time>2026-05-02T14:30:03.903Z</time></trkpt><trkpt lat="42.1036165" lon="13.3893559"><ele>829.0</ele><time>2026-05-02T14:30:04.911Z</time></trkpt><trkpt lat="42.1035534" lon="13.3892588"><ele>829.0</ele><time>2026-05-02T14:30:05.902Z</time></trkpt><trkpt lat="42.1035004" lon="13.3891248"><ele>829.0</ele><time>2026-05-02T14:30:06.899Z</time></trkpt><trkpt lat="42.103438" lon="13.3889733"><ele>829.0</ele><time>2026-05-02T14:30:07.9Z</time></trkpt><trkpt lat="42.1033802" lon="13.3888158"><ele>829.0</ele><time>2026-05-02T14:30:08.905Z</time></trkpt><trkpt lat="42.1033141" lon="13.388648"><ele>827.6</ele><time>2026-05-02T14:30:09.894Z</time></trkpt><trkpt lat="42.1032394" lon="13.3884832"><ele>826.2</ele><time>2026-05-02T14:30:10.904Z</time></trkpt><trkpt lat="42.1031725" lon="13.3883595"><ele>824.8000000000001</ele><time>2026-05-02T14:30:11.888Z</time></trkpt><trkpt lat="42.1031408" lon="13.3882557"><ele>823.4000000000001</ele><time>2026-05-02T14:30:12.898Z</time></trkpt><trkpt lat="42.1031331" lon="13.3881631"><ele>822.0</ele><time>2026-05-02T14:30:13.902Z</time></trkpt><trkpt lat="42.1031536" lon="13.3880793"><ele>822.5</ele><time>2026-05-02T14:30:14.899Z</time></trkpt><trkpt lat="42.1031826" lon="13.3879995"><ele>823.0</ele><time>2026-05-02T14:30:15.892Z</time></trkpt><trkpt lat="42.1032094" lon="13.3879031"><ele>823.5</ele><time>2026-05-02T14:30:16.907Z</time></trkpt><trkpt lat="42.1032076" lon="13.3878073"><ele>824.0</ele><time>2026-05-02T14:30:17.91Z</time></trkpt><trkpt lat="42.1031857" lon="13.3877125"><ele>824.5</ele><time>2026-05-02T14:30:18.88Z</time></trkpt><trkpt lat="42.1031375" lon="13.3876094"><ele>825.0</ele><time>2026-05-02T14:30:19.886Z</time></trkpt><trkpt lat="42.1030822" lon="13.3874854"><ele>825.0</ele><time>2026-05-02T14:30:20.906Z</time></trkpt><trkpt lat="42.1030366" lon="13.3873641"><ele>825.0</ele><time>2026-05-02T14:30:21.895Z</time></trkpt><trkpt lat="42.1030002" lon="13.3872599"><ele>825.0</ele><time>2026-05-02T14:30:22.918Z</time></trkpt><trkpt lat="42.1029672" lon="13.3871715"><ele>825.0</ele><time>2026-05-02T14:30:23.903Z</time></trkpt><trkpt lat="42.102951" lon="13.3870887"><ele>825.0</ele><time>2026-05-02T14:30:24.912Z</time></trkpt><trkpt lat="42.1029805" lon="13.3869313"><ele>825.0</ele><time>2026-05-02T14:30:26.923Z</time></trkpt><trkpt lat="42.1029975" lon="13.3868354"><ele>825.0</ele><time>2026-05-02T14:30:27.902Z</time></trkpt><trkpt lat="42.1029425" lon="13.3866609"><ele>825.0</ele><time>2026-05-02T14:30:29.892Z</time></trkpt><trkpt lat="42.1028873" lon="13.3865457"><ele>825.0</ele><time>2026-05-02T14:30:30.901Z</time></trkpt><trkpt lat="42.1028242" lon="13.3864128"><ele>825.0</ele><time>2026-05-02T14:30:31.903Z</time></trkpt><trkpt lat="42.1027499" lon="13.3862698"><ele>825.25</ele><time>2026-05-02T14:30:32.892Z</time></trkpt><trkpt lat="42.1026736" lon="13.3861163"><ele>825.5</ele><time>2026-05-02T14:30:33.911Z</time></trkpt><trkpt lat="42.1025949" lon="13.3859664"><ele>825.75</ele><time>2026-05-02T14:30:34.905Z</time></trkpt><trkpt lat="42.1025166" lon="13.3858294"><ele>826.0</ele><time>2026-05-02T14:30:35.889Z</time></trkpt><trkpt lat="42.1024363" lon="13.3856846"><ele>825.1999999999999</ele><time>2026-05-02T14:30:36.897Z</time></trkpt><trkpt lat="42.1023571" lon="13.3855534"><ele>824.4</ele><time>2026-05-02T14:30:37.893Z</time></trkpt><trkpt lat="42.1023032" lon="13.3854572"><ele>823.6</ele><time>2026-05-02T14:30:38.9Z</time></trkpt><trkpt lat="42.1022344" lon="13.3853558"><ele>822.8</ele><time>2026-05-02T14:30:40.898Z</time></trkpt><trkpt lat="42.1021843" lon="13.3852412"><ele>822.0</ele><time>2026-05-02T14:30:42.891Z</time></trkpt><trkpt lat="42.1021092" lon="13.3852084"><ele>822.0</ele><time>2026-05-02T14:30:45.9Z</time></trkpt><trkpt lat="42.1020688" lon="13.3853019"><ele>822.0</ele><time>2026-05-02T14:30:48.894Z</time></trkpt><trkpt lat="42.1020389" lon="13.385382"><ele>822.0</ele><time>2026-05-02T14:30:51.895Z</time></trkpt><trkpt lat="42.1019753" lon="13.3853548"><ele>822.0</ele><time>2026-05-02T14:30:54.884Z</time></trkpt><trkpt lat="42.1020119" lon="13.3852519"><ele>822.0</ele><time>2026-05-02T14:30:57.885Z</time></trkpt><trkpt lat="42.1021088" lon="13.3852177"><ele>822.0</ele><time>2026-05-02T14:30:59.884Z</time></trkpt><trkpt lat="42.102181" lon="13.3851953"><ele>822.0</ele><time>2026-05-02T14:31:01.904Z</time></trkpt><trkpt lat="42.1022119" lon="13.385314"><ele>822.0</ele><time>2026-05-02T14:31:04.886Z</time></trkpt><trkpt lat="42.1022583" lon="13.3853969"><ele>822.0</ele><time>2026-05-02T14:31:06.899Z</time></trkpt><trkpt lat="42.1022944" lon="13.3852834"><ele>822.0</ele><time>2026-05-02T14:31:18.893Z</time></trkpt><trkpt lat="42.1023558" lon="13.3851561"><ele>822.0</ele><time>2026-05-02T14:31:20.882Z</time></trkpt><trkpt lat="42.1024099" lon="13.3850824"><ele>823.2</ele><time>2026-05-02T14:31:21.887Z</time></trkpt><trkpt lat="42.1024733" lon="13.3850046"><ele>824.4000000000001</ele><time>2026-05-02T14:31:22.898Z</time></trkpt><trkpt lat="42.102542" lon="13.38491"><ele>825.5999999999999</ele><time>2026-05-02T14:31:23.89Z</time></trkpt><trkpt lat="42.1026239" lon="13.3848067"><ele>826.8</ele><time>2026-05-02T14:31:24.891Z</time></trkpt><trkpt lat="42.1027064" lon="13.3847211"><ele>828.0</ele><time>2026-05-02T14:31:25.884Z</time></trkpt><trkpt lat="42.102792" lon="13.384676"><ele>828.2</ele><time>2026-05-02T14:31:26.907Z</time></trkpt><trkpt lat="42.1028675" lon="13.3846229"><ele>828.4</ele><time>2026-05-02T14:31:27.898Z</time></trkpt><trkpt lat="42.1029394" lon="13.3845547"><ele>828.6</ele><time>2026-05-02T14:31:28.888Z</time></trkpt><trkpt lat="42.1030163" lon="13.3844596"><ele>828.8000000000001</ele><time>2026-05-02T14:31:29.887Z</time></trkpt><trkpt lat="42.1031011" lon="13.3843452"><ele>829.0</ele><time>2026-05-02T14:31:30.893Z</time></trkpt><trkpt lat="42.1031837" lon="13.3842167"><ele>830.5</ele><time>2026-05-02T14:31:31.901Z</time></trkpt><trkpt lat="42.1032686" lon="13.3840682"><ele>832.0</ele><time>2026-05-02T14:31:32.892Z</time></trkpt><trkpt lat="42.103347" lon="13.383912"><ele>833.5</ele><time>2026-05-02T14:31:33.894Z</time></trkpt><trkpt lat="42.1034104" lon="13.3837752"><ele>835.0</ele><time>2026-05-02T14:31:34.899Z</time></trkpt><trkpt lat="42.103472" lon="13.3836891"><ele>835.0</ele><time>2026-05-02T14:31:35.891Z</time></trkpt><trkpt lat="42.1035472" lon="13.3836191"><ele>835.0</ele><time>2026-05-02T14:31:36.899Z</time></trkpt><trkpt lat="42.1036479" lon="13.3835286"><ele>835.0</ele><time>2026-05-02T14:31:37.889Z</time></trkpt><trkpt lat="42.1037599" lon="13.3834231"><ele>835.0</ele><time>2026-05-02T14:31:38.897Z</time></trkpt><trkpt lat="42.1038677" lon="13.3833127"><ele>835.0</ele><time>2026-05-02T14:31:39.895Z</time></trkpt><trkpt lat="42.1039692" lon="13.3832167"><ele>835.0</ele><time>2026-05-02T14:31:40.889Z</time></trkpt><trkpt lat="42.1040581" lon="13.3831492"><ele>835.0</ele><time>2026-05-02T14:31:41.899Z</time></trkpt><trkpt lat="42.1041442" lon="13.3831128"><ele>835.0</ele><time>2026-05-02T14:31:42.899Z</time></trkpt><trkpt lat="42.1042573" lon="13.3830716"><ele>835.0</ele><time>2026-05-02T14:31:43.894Z</time></trkpt><trkpt lat="42.1043927" lon="13.3830071"><ele>837.25</ele><time>2026-05-02T14:31:44.902Z</time></trkpt><trkpt lat="42.1045295" lon="13.3829244"><ele>839.5</ele><time>2026-05-02T14:31:45.891Z</time></trkpt><trkpt lat="42.1046548" lon="13.3828595"><ele>841.75</ele><time>2026-05-02T14:31:46.909Z</time></trkpt><trkpt lat="42.1047598" lon="13.382813"><ele>844.0</ele><time>2026-05-02T14:31:47.901Z</time></trkpt><trkpt lat="42.1048635" lon="13.3827623"><ele>845.2</ele><time>2026-05-02T14:31:48.895Z</time></trkpt><trkpt lat="42.1049691" lon="13.3827126"><ele>846.4000000000001</ele><time>2026-05-02T14:31:49.903Z</time></trkpt><trkpt lat="42.1050683" lon="13.3826963"><ele>847.6</ele><time>2026-05-02T14:31:50.898Z</time></trkpt><trkpt lat="42.1051664" lon="13.3827184"><ele>848.8</ele><time>2026-05-02T14:31:51.893Z</time></trkpt><trkpt lat="42.1052878" lon="13.382753"><ele>850.0</ele><time>2026-05-02T14:31:52.898Z</time></trkpt><trkpt lat="42.1054143" lon="13.3827747"><ele>850.0</ele><time>2026-05-02T14:31:53.891Z</time></trkpt><trkpt lat="42.1055545" lon="13.3827863"><ele>850.0</ele><time>2026-05-02T14:31:54.919Z</time></trkpt><trkpt lat="42.1056961" lon="13.3828055"><ele>850.0</ele><time>2026-05-02T14:31:55.887Z</time></trkpt><trkpt lat="42.1058476" lon="13.3828228"><ele>850.0</ele><time>2026-05-02T14:31:56.899Z</time></trkpt><trkpt lat="42.1060071" lon="13.3828258"><ele>851.75</ele><time>2026-05-02T14:31:57.89Z</time></trkpt><trkpt lat="42.1061671" lon="13.3828232"><ele>853.5</ele><time>2026-05-02T14:31:58.919Z</time></trkpt><trkpt lat="42.1063118" lon="13.3828202"><ele>855.25</ele><time>2026-05-02T14:31:59.901Z</time></trkpt><trkpt lat="42.1064263" lon="13.3828198"><ele>857.0</ele><time>2026-05-02T14:32:00.9Z</time></trkpt><trkpt lat="42.1065137" lon="13.382841"><ele>858.3333333333334</ele><time>2026-05-02T14:32:01.904Z</time></trkpt><trkpt lat="42.1065784" lon="13.3828934"><ele>859.6666666666667</ele><time>2026-05-02T14:32:02.899Z</time></trkpt><trkpt lat="42.1066239" lon="13.3829616"><ele>861.0</ele><time>2026-05-02T14:32:03.902Z</time></trkpt><trkpt lat="42.1066605" lon="13.3830387"><ele>862.3333333333333</ele><time>2026-05-02T14:32:04.881Z</time></trkpt><trkpt lat="42.1066967" lon="13.383113"><ele>863.6666666666666</ele><time>2026-05-02T14:32:05.898Z</time></trkpt><trkpt lat="42.1067893" lon="13.3831726"><ele>865.0</ele><time>2026-05-02T14:32:07.902Z</time></trkpt><trkpt lat="42.1068829" lon="13.3832174"><ele>864.9999999999999</ele><time>2026-05-02T14:32:09.894Z</time></trkpt><trkpt lat="42.1069071" lon="13.383299"><ele>865.0</ele><time>2026-05-02T14:32:10.895Z</time></trkpt><trkpt lat="42.1069285" lon="13.3833959"><ele>865.0</ele><time>2026-05-02T14:32:11.889Z</time></trkpt><trkpt lat="42.1070239" lon="13.3834683"><ele>865.0</ele><time>2026-05-02T14:32:13.893Z</time></trkpt><trkpt lat="42.1070644" lon="13.3833945"><ele>864.9999999999999</ele><time>2026-05-02T14:32:15.887Z</time></trkpt><trkpt lat="42.1071546" lon="13.3832864"><ele>865.0</ele><time>2026-05-02T14:32:17.92Z</time></trkpt><trkpt lat="42.1072285" lon="13.3832205"><ele>865.0</ele><time>2026-05-02T14:32:18.902Z</time></trkpt><trkpt lat="42.1073175" lon="13.3831384"><ele>865.0</ele><time>2026-05-02T14:32:19.909Z</time></trkpt><trkpt lat="42.107421" lon="13.3830504"><ele>865.0</ele><time>2026-05-02T14:32:20.902Z</time></trkpt><trkpt lat="42.1075026" lon="13.382986"><ele>865.0</ele><time>2026-05-02T14:32:21.907Z</time></trkpt><trkpt lat="42.1075788" lon="13.3829285"><ele>865.0</ele><time>2026-05-02T14:32:22.899Z</time></trkpt><trkpt lat="42.107662" lon="13.382879"><ele>867.5</ele><time>2026-05-02T14:32:23.887Z</time></trkpt><trkpt lat="42.1077598" lon="13.3828427"><ele>870.0</ele><time>2026-05-02T14:32:24.897Z</time></trkpt><trkpt lat="42.1078774" lon="13.3828264"><ele>872.5</ele><time>2026-05-02T14:32:25.891Z</time></trkpt><trkpt lat="42.1080029" lon="13.3828023"><ele>875.0</ele><time>2026-05-02T14:32:26.885Z</time></trkpt><trkpt lat="42.1081293" lon="13.3827867"><ele>876.0</ele><time>2026-05-02T14:32:27.894Z</time></trkpt><trkpt lat="42.1082491" lon="13.3827653"><ele>877.0</ele><time>2026-05-02T14:32:28.899Z</time></trkpt><trkpt lat="42.1083727" lon="13.3827508"><ele>878.0</ele><time>2026-05-02T14:32:29.906Z</time></trkpt><trkpt lat="42.1084863" lon="13.3827148"><ele>879.0</ele><time>2026-05-02T14:32:30.9Z</time></trkpt><trkpt lat="42.1085906" lon="13.3826988"><ele>879.0</ele><time>2026-05-02T14:32:31.895Z</time></trkpt><trkpt lat="42.1086706" lon="13.3826707"><ele>879.0000000000001</ele><time>2026-05-02T14:32:32.9Z</time></trkpt><trkpt lat="42.1087574" lon="13.3826218"><ele>879.0000000000001</ele><time>2026-05-02T14:32:33.905Z</time></trkpt><trkpt lat="42.1088555" lon="13.3825708"><ele>879.0</ele><time>2026-05-02T14:32:34.898Z</time></trkpt><trkpt lat="42.1089623" lon="13.3825143"><ele>879.0</ele><time>2026-05-02T14:32:35.901Z</time></trkpt><trkpt lat="42.109071" lon="13.3824516"><ele>880.5</ele><time>2026-05-02T14:32:36.898Z</time></trkpt><trkpt lat="42.1091909" lon="13.3823907"><ele>882.0</ele><time>2026-05-02T14:32:37.885Z</time></trkpt><trkpt lat="42.1093269" lon="13.3823228"><ele>883.5</ele><time>2026-05-02T14:32:38.909Z</time></trkpt><trkpt lat="42.1094659" lon="13.3822514"><ele>885.0</ele><time>2026-05-02T14:32:39.891Z</time></trkpt><trkpt lat="42.1095815" lon="13.3821803"><ele>885.2</ele><time>2026-05-02T14:32:40.888Z</time></trkpt><trkpt lat="42.1096772" lon="13.382105"><ele>885.4</ele><time>2026-05-02T14:32:41.893Z</time></trkpt><trkpt lat="42.1097517" lon="13.3820456"><ele>885.5999999999999</ele><time>2026-05-02T14:32:42.895Z</time></trkpt><trkpt lat="42.1098635" lon="13.3820439"><ele>885.8</ele><time>2026-05-02T14:32:44.897Z</time></trkpt><trkpt lat="42.1099237" lon="13.3820694"><ele>886.0</ele><time>2026-05-02T14:32:45.895Z</time></trkpt><trkpt lat="42.1100109" lon="13.3821045"><ele>887.5</ele><time>2026-05-02T14:32:46.896Z</time></trkpt><trkpt lat="42.1101299" lon="13.382112"><ele>889.0</ele><time>2026-05-02T14:32:47.898Z</time></trkpt><trkpt lat="42.1102506" lon="13.382089"><ele>890.5</ele><time>2026-05-02T14:32:48.895Z</time></trkpt><trkpt lat="42.110373" lon="13.3820414"><ele>892.0</ele><time>2026-05-02T14:32:49.892Z</time></trkpt><trkpt lat="42.110468" lon="13.3820077"><ele>892.0</ele><time>2026-05-02T14:32:50.896Z</time></trkpt><trkpt lat="42.1105305" lon="13.3819733"><ele>892.0</ele><time>2026-05-02T14:32:51.889Z</time></trkpt><trkpt lat="42.1106078" lon="13.3819336"><ele>892.0</ele><time>2026-05-02T14:32:53.887Z</time></trkpt><trkpt lat="42.1106547" lon="13.3817967"><ele>892.0</ele><time>2026-05-02T14:32:55.88Z</time></trkpt><trkpt lat="42.1106437" lon="13.3816661"><ele>892.0</ele><time>2026-05-02T14:32:56.891Z</time></trkpt><trkpt lat="42.1106302" lon="13.3815263"><ele>892.0</ele><time>2026-05-02T14:32:57.887Z</time></trkpt><trkpt lat="42.1106336" lon="13.3813628"><ele>892.0</ele><time>2026-05-02T14:32:58.911Z</time></trkpt><trkpt lat="42.1106442" lon="13.3811869"><ele>892.0</ele><time>2026-05-02T14:32:59.887Z</time></trkpt><trkpt lat="42.1106677" lon="13.3810222"><ele>892.0</ele><time>2026-05-02T14:33:00.888Z</time></trkpt><trkpt lat="42.1107007" lon="13.3808834"><ele>892.3333333333333</ele><time>2026-05-02T14:33:01.895Z</time></trkpt><trkpt lat="42.1107406" lon="13.380803"><ele>892.6666666666666</ele><time>2026-05-02T14:33:02.889Z</time></trkpt><trkpt lat="42.1108023" lon="13.3806831"><ele>893.0</ele><time>2026-05-02T14:33:04.888Z</time></trkpt><trkpt lat="42.1108358" lon="13.3806052"><ele>893.3333333333333</ele><time>2026-05-02T14:33:06.89Z</time></trkpt><trkpt lat="42.1109112" lon="13.3805981"><ele>893.6666666666666</ele><time>2026-05-02T14:33:09.885Z</time></trkpt><trkpt lat="42.1108704" lon="13.3806695"><ele>894.0</ele><time>2026-05-02T14:33:11.888Z</time></trkpt><trkpt lat="42.11077" lon="13.3807561"><ele>894.0</ele><time>2026-05-02T14:33:13.891Z</time></trkpt><trkpt lat="42.1107286" lon="13.3808275"><ele>894.0</ele><time>2026-05-02T14:33:14.88Z</time></trkpt><trkpt lat="42.1107036" lon="13.3809186"><ele>894.0</ele><time>2026-05-02T14:33:15.899Z</time></trkpt><trkpt lat="42.1106794" lon="13.3810348"><ele>894.0</ele><time>2026-05-02T14:33:16.884Z</time></trkpt><trkpt lat="42.1106654" lon="13.3811657"><ele>894.0</ele><time>2026-05-02T14:33:17.882Z</time></trkpt><trkpt lat="42.1106516" lon="13.3813057"><ele>894.0</ele><time>2026-05-02T14:33:18.886Z</time></trkpt><trkpt lat="42.1106458" lon="13.3814628"><ele>893.6</ele><time>2026-05-02T14:33:19.894Z</time></trkpt><trkpt lat="42.1106442" lon="13.3816231"><ele>893.2</ele><time>2026-05-02T14:33:20.892Z</time></trkpt><trkpt lat="42.1106348" lon="13.3817663"><ele>892.8000000000001</ele><time>2026-05-02T14:33:21.895Z</time></trkpt><trkpt lat="42.110623" lon="13.3818678"><ele>892.4000000000001</ele><time>2026-05-02T14:33:22.879Z</time></trkpt><trkpt lat="42.1105714" lon="13.3819618"><ele>892.0</ele><time>2026-05-02T14:33:24.898Z</time></trkpt><trkpt lat="42.1105078" lon="13.3818744"><ele>892.0</ele><time>2026-05-02T14:33:29.884Z</time></trkpt><trkpt lat="42.1105078" lon="13.3817787"><ele>892.0</ele><time>2026-05-02T14:33:30.888Z</time></trkpt><trkpt lat="42.1105032" lon="13.3816414"><ele>892.0</ele><time>2026-05-02T14:33:31.886Z</time></trkpt><trkpt lat="42.1104969" lon="13.3814839"><ele>892.0</ele><time>2026-05-02T14:33:32.878Z</time></trkpt><trkpt lat="42.1104984" lon="13.3813379"><ele>892.0</ele><time>2026-05-02T14:33:33.881Z</time></trkpt><trkpt lat="42.110501" lon="13.3811944"><ele>892.4000000000001</ele><time>2026-05-02T14:33:34.881Z</time></trkpt><trkpt lat="42.1105078" lon="13.3810572"><ele>892.8000000000001</ele><time>2026-05-02T14:33:35.889Z</time></trkpt><trkpt lat="42.1105055" lon="13.3809221"><ele>893.2</ele><time>2026-05-02T14:33:36.894Z</time></trkpt><trkpt lat="42.1105037" lon="13.3807711"><ele>893.6</ele><time>2026-05-02T14:33:37.89Z</time></trkpt><trkpt lat="42.1105079" lon="13.3806132"><ele>894.0</ele><time>2026-05-02T14:33:38.893Z</time></trkpt><trkpt lat="42.1105005" lon="13.3804458"><ele>894.2</ele><time>2026-05-02T14:33:39.892Z</time></trkpt><trkpt lat="42.1104906" lon="13.3803153"><ele>894.4000000000001</ele><time>2026-05-02T14:33:40.887Z</time></trkpt><trkpt lat="42.1104839" lon="13.3802066"><ele>894.6</ele><time>2026-05-02T14:33:41.886Z</time></trkpt><trkpt lat="42.1105023" lon="13.3800575"><ele>894.8</ele><time>2026-05-02T14:33:43.892Z</time></trkpt><trkpt lat="42.1105637" lon="13.3799294"><ele>895.0</ele><time>2026-05-02T14:33:45.891Z</time></trkpt><trkpt lat="42.1105379" lon="13.3797777"><ele>897.0</ele><time>2026-05-02T14:33:47.887Z</time></trkpt><trkpt lat="42.110482" lon="13.3796573"><ele>899.0</ele><time>2026-05-02T14:33:48.896Z</time></trkpt><trkpt lat="42.1104047" lon="13.3795305"><ele>901.0</ele><time>2026-05-02T14:33:49.891Z</time></trkpt><trkpt lat="42.1103113" lon="13.379408"><ele>903.0</ele><time>2026-05-02T14:33:50.891Z</time></trkpt><trkpt lat="42.1102236" lon="13.3793057"><ele>903.0</ele><time>2026-05-02T14:33:51.883Z</time></trkpt><trkpt lat="42.1101265" lon="13.3792637"><ele>903.0</ele><time>2026-05-02T14:33:52.888Z</time></trkpt><trkpt lat="42.1100281" lon="13.3792582"><ele>903.0</ele><time>2026-05-02T14:33:53.889Z</time></trkpt><trkpt lat="42.1099073" lon="13.3792654"><ele>903.0</ele><time>2026-05-02T14:33:54.878Z</time></trkpt><trkpt lat="42.1097757" lon="13.3792609"><ele>901.25</ele><time>2026-05-02T14:33:55.899Z</time></trkpt><trkpt lat="42.1096492" lon="13.3792516"><ele>899.5</ele><time>2026-05-02T14:33:56.896Z</time></trkpt><trkpt lat="42.1095239" lon="13.3792299"><ele>897.75</ele><time>2026-05-02T14:33:57.882Z</time></trkpt><trkpt lat="42.1094136" lon="13.3791925"><ele>896.0</ele><time>2026-05-02T14:33:58.91Z</time></trkpt><trkpt lat="42.1093164" lon="13.379134"><ele>896.0000000000001</ele><time>2026-05-02T14:33:59.884Z</time></trkpt><trkpt lat="42.1092632" lon="13.3790765"><ele>896.0</ele><time>2026-05-02T14:34:00.899Z</time></trkpt><trkpt lat="42.1092172" lon="13.3790001"><ele>896.0</ele><time>2026-05-02T14:34:01.876Z</time></trkpt><trkpt lat="42.1091896" lon="13.3789179"><ele>896.0</ele><time>2026-05-02T14:34:02.89Z</time></trkpt><trkpt lat="42.1091783" lon="13.3788227"><ele>896.0000000000001</ele><time>2026-05-02T14:34:03.893Z</time></trkpt><trkpt lat="42.1091616" lon="13.3786995"><ele>896.0</ele><time>2026-05-02T14:34:04.889Z</time></trkpt><trkpt lat="42.1091221" lon="13.3785618"><ele>896.5999999999999</ele><time>2026-05-02T14:34:05.889Z</time></trkpt><trkpt lat="42.1090637" lon="13.3784318"><ele>897.1999999999999</ele><time>2026-05-02T14:34:06.899Z</time></trkpt><trkpt lat="42.1090092" lon="13.3783225"><ele>897.8000000000001</ele><time>2026-05-02T14:34:07.897Z</time></trkpt><trkpt lat="42.1089689" lon="13.3782316"><ele>898.4000000000001</ele><time>2026-05-02T14:34:08.895Z</time></trkpt><trkpt lat="42.1089256" lon="13.3781495"><ele>899.0</ele><time>2026-05-02T14:34:10.891Z</time></trkpt><trkpt lat="42.1088582" lon="13.3780749"><ele>901.6</ele><time>2026-05-02T14:34:27.885Z</time></trkpt><trkpt lat="42.1088037" lon="13.3779982"><ele>904.2</ele><time>2026-05-02T14:34:28.882Z</time></trkpt><trkpt lat="42.1087348" lon="13.3779098"><ele>906.8000000000001</ele><time>2026-05-02T14:34:29.872Z</time></trkpt><trkpt lat="42.1086466" lon="13.3778303"><ele>909.4000000000001</ele><time>2026-05-02T14:34:30.879Z</time></trkpt><trkpt lat="42.1085421" lon="13.3777528"><ele>912.0</ele><time>2026-05-02T14:34:31.887Z</time></trkpt><trkpt lat="42.1084259" lon="13.3776868"><ele>912.0</ele><time>2026-05-02T14:34:32.897Z</time></trkpt><trkpt lat="42.1083127" lon="13.3776305"><ele>912.0</ele><time>2026-05-02T14:34:33.892Z</time></trkpt><trkpt lat="42.1082012" lon="13.3775827"><ele>912.0</ele><time>2026-05-02T14:34:34.889Z</time></trkpt><trkpt lat="42.1080914" lon="13.3775519"><ele>912.0</ele><time>2026-05-02T14:34:35.894Z</time></trkpt><trkpt lat="42.107995" lon="13.3775268"><ele>912.0</ele><time>2026-05-02T14:34:36.891Z</time></trkpt><trkpt lat="42.1079105" lon="13.3774989"><ele>911.8571428571428</ele><time>2026-05-02T14:34:37.886Z</time></trkpt><trkpt lat="42.1078459" lon="13.3774699"><ele>911.7142857142856</ele><time>2026-05-02T14:34:38.893Z</time></trkpt><trkpt lat="42.1077916" lon="13.377415"><ele>911.5714285714286</ele><time>2026-05-02T14:34:39.902Z</time></trkpt><trkpt lat="42.1077363" lon="13.3773522"><ele>911.4285714285713</ele><time>2026-05-02T14:34:40.907Z</time></trkpt><trkpt lat="42.1076881" lon="13.3772932"><ele>911.2857142857142</ele><time>2026-05-02T14:34:41.89Z</time></trkpt><trkpt lat="42.1076521" lon="13.3772178"><ele>911.1428571428571</ele><time>2026-05-02T14:34:43.89Z</time></trkpt><trkpt lat="42.10758" lon="13.3771424"><ele>911.0</ele><time>2026-05-02T14:34:54.898Z</time></trkpt><trkpt lat="42.1074822" lon="13.377082"><ele>910.3333333333334</ele><time>2026-05-02T14:34:56.89Z</time></trkpt><trkpt lat="42.1073946" lon="13.3770252"><ele>909.6666666666667</ele><time>2026-05-02T14:34:58.913Z</time></trkpt><trkpt lat="42.107329" lon="13.3770357"><ele>909.0</ele><time>2026-05-02T14:35:02.884Z</time></trkpt><trkpt lat="42.1072736" lon="13.3771306"><ele>908.3333333333333</ele><time>2026-05-02T14:35:08.898Z</time></trkpt><trkpt lat="42.1071704" lon="13.3771844"><ele>907.6666666666666</ele><time>2026-05-02T14:35:10.898Z</time></trkpt><trkpt lat="42.1071038" lon="13.3771785"><ele>907.0</ele><time>2026-05-02T14:35:11.885Z</time></trkpt><trkpt lat="42.1070325" lon="13.3771452"><ele>907.0</ele><time>2026-05-02T14:35:12.897Z</time></trkpt><trkpt lat="42.1069569" lon="13.3770824"><ele>907.0</ele><time>2026-05-02T14:35:13.907Z</time></trkpt><trkpt lat="42.1068785" lon="13.3769992"><ele>907.0</ele><time>2026-05-02T14:35:14.898Z</time></trkpt><trkpt lat="42.1067868" lon="13.3769223"><ele>907.0</ele><time>2026-05-02T14:35:15.894Z</time></trkpt><trkpt lat="42.1066958" lon="13.3768388"><ele>907.0</ele><time>2026-05-02T14:35:16.897Z</time></trkpt><trkpt lat="42.1066015" lon="13.3767634"><ele>905.3333333333333</ele><time>2026-05-02T14:35:17.883Z</time></trkpt><trkpt lat="42.1064941" lon="13.3766996"><ele>903.6666666666666</ele><time>2026-05-02T14:35:18.901Z</time></trkpt><trkpt lat="42.1063971" lon="13.3766503"><ele>902.0</ele><time>2026-05-02T14:35:19.887Z</time></trkpt><trkpt lat="42.1063172" lon="13.3766307"><ele>900.3333333333333</ele><time>2026-05-02T14:35:20.901Z</time></trkpt><trkpt lat="42.1062398" lon="13.3766422"><ele>898.6666666666666</ele><time>2026-05-02T14:35:21.888Z</time></trkpt><trkpt lat="42.106179" lon="13.3766763"><ele>897.0</ele><time>2026-05-02T14:35:22.897Z</time></trkpt><trkpt lat="42.1060817" lon="13.3766546"><ele>897.0</ele><time>2026-05-02T14:35:24.891Z</time></trkpt><trkpt lat="42.106032" lon="13.3765964"><ele>897.0</ele><time>2026-05-02T14:35:25.897Z</time></trkpt><trkpt lat="42.1059516" lon="13.3765145"><ele>897.0</ele><time>2026-05-02T14:35:27.89Z</time></trkpt><trkpt lat="42.1058813" lon="13.3764693"><ele>897.0</ele><time>2026-05-02T14:35:31.889Z</time></trkpt><trkpt lat="42.1058004" lon="13.3764899"><ele>897.0</ele><time>2026-05-02T14:35:36.898Z</time></trkpt><trkpt lat="42.1058626" lon="13.3765042"><ele>897.0</ele><time>2026-05-02T14:35:45.914Z</time></trkpt><trkpt lat="42.1059194" lon="13.3764182"><ele>895.8</ele><time>2026-05-02T14:35:47.879Z</time></trkpt><trkpt lat="42.1059605" lon="13.3763412"><ele>894.6</ele><time>2026-05-02T14:35:49.899Z</time></trkpt><trkpt lat="42.1059113" lon="13.376266"><ele>893.3999999999999</ele><time>2026-05-02T14:35:52.883Z</time></trkpt><trkpt lat="42.1058014" lon="13.3761173"><ele>892.1999999999999</ele><time>2026-05-02T14:35:54.891Z</time></trkpt><trkpt lat="42.1057256" lon="13.3760046"><ele>891.0</ele><time>2026-05-02T14:35:55.896Z</time></trkpt><trkpt lat="42.1056528" lon="13.3758962"><ele>889.4</ele><time>2026-05-02T14:35:56.903Z</time></trkpt><trkpt lat="42.1055849" lon="13.3758115"><ele>887.8</ele><time>2026-05-02T14:35:57.891Z</time></trkpt><trkpt lat="42.1055133" lon="13.3757339"><ele>886.1999999999999</ele><time>2026-05-02T14:35:58.896Z</time></trkpt><trkpt lat="42.1054376" lon="13.375656"><ele>884.5999999999999</ele><time>2026-05-02T14:35:59.901Z</time></trkpt><trkpt lat="42.1053736" lon="13.3755691"><ele>883.0</ele><time>2026-05-02T14:36:00.893Z</time></trkpt><trkpt lat="42.1053186" lon="13.3754815"><ele>882.9999999999999</ele><time>2026-05-02T14:36:01.892Z</time></trkpt><trkpt lat="42.1052657" lon="13.375396"><ele>883.0</ele><time>2026-05-02T14:36:02.898Z</time></trkpt><trkpt lat="42.105211" lon="13.3753032"><ele>883.0</ele><time>2026-05-02T14:36:03.885Z</time></trkpt><trkpt lat="42.1051427" lon="13.3752305"><ele>883.0</ele><time>2026-05-02T14:36:04.899Z</time></trkpt><trkpt lat="42.1050851" lon="13.3751646"><ele>882.9999999999999</ele><time>2026-05-02T14:36:05.895Z</time></trkpt><trkpt lat="42.1050382" lon="13.3751075"><ele>883.0</ele><time>2026-05-02T14:36:06.899Z</time></trkpt><trkpt lat="42.1050324" lon="13.374999"><ele>883.0</ele><time>2026-05-02T14:36:08.897Z</time></trkpt><trkpt lat="42.105003" lon="13.3749138"><ele>883.0</ele><time>2026-05-02T14:36:10.898Z</time></trkpt><trkpt lat="42.10491" lon="13.3747637"><ele>883.0</ele><time>2026-05-02T14:36:12.891Z</time></trkpt><trkpt lat="42.1048506" lon="13.374645"><ele>883.0</ele><time>2026-05-02T14:36:13.896Z</time></trkpt><trkpt lat="42.1047944" lon="13.3745049"><ele>883.0</ele><time>2026-05-02T14:36:14.88Z</time></trkpt><trkpt lat="42.1047478" lon="13.3744075"><ele>880.8</ele><time>2026-05-02T14:36:15.901Z</time></trkpt><trkpt lat="42.1046947" lon="13.3743228"><ele>878.5999999999999</ele><time>2026-05-02T14:36:16.888Z</time></trkpt><trkpt lat="42.1046301" lon="13.3743047"><ele>876.4000000000001</ele><time>2026-05-02T14:36:17.897Z</time></trkpt><trkpt lat="42.1045225" lon="13.3742654"><ele>874.2</ele><time>2026-05-02T14:36:19.9Z</time></trkpt><trkpt lat="42.1044431" lon="13.3741262"><ele>872.0</ele><time>2026-05-02T14:36:21.892Z</time></trkpt><trkpt lat="42.1043859" lon="13.3740117"><ele>872.0</ele><time>2026-05-02T14:36:22.891Z</time></trkpt><trkpt lat="42.1043215" lon="13.3738929"><ele>872.0</ele><time>2026-05-02T14:36:23.902Z</time></trkpt><trkpt lat="42.10424" lon="13.373778"><ele>872.0</ele><time>2026-05-02T14:36:24.891Z</time></trkpt><trkpt lat="42.1041531" lon="13.3736619"><ele>872.0</ele><time>2026-05-02T14:36:25.881Z</time></trkpt><trkpt lat="42.1040646" lon="13.3735506"><ele>871.0</ele><time>2026-05-02T14:36:26.895Z</time></trkpt><trkpt lat="42.1039911" lon="13.3734437"><ele>870.0</ele><time>2026-05-02T14:36:27.899Z</time></trkpt><trkpt lat="42.103932" lon="13.3733386"><ele>869.0</ele><time>2026-05-02T14:36:28.893Z</time></trkpt><trkpt lat="42.1038771" lon="13.3732445"><ele>868.0</ele><time>2026-05-02T14:36:29.896Z</time></trkpt><trkpt lat="42.103794" lon="13.3731459"><ele>867.0</ele><time>2026-05-02T14:36:30.898Z</time></trkpt><trkpt lat="42.1036892" lon="13.373029"><ele>869.0</ele><time>2026-05-02T14:36:31.901Z</time></trkpt><trkpt lat="42.1036113" lon="13.3729194"><ele>871.0</ele><time>2026-05-02T14:36:32.895Z</time></trkpt><trkpt lat="42.1035333" lon="13.3728016"><ele>873.0</ele><time>2026-05-02T14:36:33.895Z</time></trkpt><trkpt lat="42.1034793" lon="13.3727042"><ele>875.0</ele><time>2026-05-02T14:36:34.894Z</time></trkpt><trkpt lat="42.1034116" lon="13.3726298"><ele>877.0</ele><time>2026-05-02T14:36:36.889Z</time></trkpt><trkpt lat="42.1033576" lon="13.3725551"><ele>877.0</ele><time>2026-05-02T14:36:37.885Z</time></trkpt><trkpt lat="42.1033081" lon="13.3724275"><ele>877.0</ele><time>2026-05-02T14:36:39.899Z</time></trkpt><trkpt lat="42.1033024" lon="13.3722735"><ele>877.0</ele><time>2026-05-02T14:36:41.899Z</time></trkpt><trkpt lat="42.1032733" lon="13.3721831"><ele>877.0</ele><time>2026-05-02T14:36:42.903Z</time></trkpt><trkpt lat="42.1032237" lon="13.372118"><ele>877.0</ele><time>2026-05-02T14:36:43.899Z</time></trkpt><trkpt lat="42.1031521" lon="13.3720243"><ele>874.8</ele><time>2026-05-02T14:36:44.88Z</time></trkpt><trkpt lat="42.1030907" lon="13.3719409"><ele>872.6</ele><time>2026-05-02T14:36:45.892Z</time></trkpt><trkpt lat="42.103019" lon="13.3718554"><ele>870.3999999999999</ele><time>2026-05-02T14:36:46.902Z</time></trkpt><trkpt lat="42.1029382" lon="13.3717806"><ele>868.1999999999999</ele><time>2026-05-02T14:36:47.88Z</time></trkpt><trkpt lat="42.1028701" lon="13.3717097"><ele>866.0</ele><time>2026-05-02T14:36:48.904Z</time></trkpt><trkpt lat="42.1028017" lon="13.3716329"><ele>866.0</ele><time>2026-05-02T14:36:49.898Z</time></trkpt><trkpt lat="42.1027308" lon="13.3715424"><ele>865.9999999999999</ele><time>2026-05-02T14:36:50.91Z</time></trkpt><trkpt lat="42.1026651" lon="13.3714247"><ele>865.9999999999999</ele><time>2026-05-02T14:36:51.896Z</time></trkpt><trkpt lat="42.1026049" lon="13.3713133"><ele>866.0</ele><time>2026-05-02T14:36:52.904Z</time></trkpt><trkpt lat="42.1025337" lon="13.3712346"><ele>866.0</ele><time>2026-05-02T14:36:53.906Z</time></trkpt><trkpt lat="42.1024552" lon="13.3711759"><ele>862.8</ele><time>2026-05-02T14:36:54.9Z</time></trkpt><trkpt lat="42.1023655" lon="13.3711027"><ele>859.5999999999999</ele><time>2026-05-02T14:36:55.894Z</time></trkpt><trkpt lat="42.1022793" lon="13.3710295"><ele>856.4</ele><time>2026-05-02T14:36:56.89Z</time></trkpt><trkpt lat="42.1021978" lon="13.3709678"><ele>853.2</ele><time>2026-05-02T14:36:57.911Z</time></trkpt><trkpt lat="42.1021047" lon="13.3709021"><ele>850.0</ele><time>2026-05-02T14:36:58.901Z</time></trkpt><trkpt lat="42.1020168" lon="13.3708405"><ele>849.9999999999999</ele><time>2026-05-02T14:36:59.898Z</time></trkpt><trkpt lat="42.1019391" lon="13.3707817"><ele>850.0</ele><time>2026-05-02T14:37:00.901Z</time></trkpt><trkpt lat="42.1018792" lon="13.3707185"><ele>850.0</ele><time>2026-05-02T14:37:01.893Z</time></trkpt><trkpt lat="42.1018199" lon="13.3706611"><ele>850.0</ele><time>2026-05-02T14:37:02.896Z</time></trkpt><trkpt lat="42.1017582" lon="13.3706252"><ele>849.9999999999999</ele><time>2026-05-02T14:37:03.891Z</time></trkpt><trkpt lat="42.1016572" lon="13.3705332"><ele>850.0</ele><time>2026-05-02T14:37:05.906Z</time></trkpt><trkpt lat="42.1016041" lon="13.3704843"><ele>846.1666666666666</ele><time>2026-05-02T14:37:06.89Z</time></trkpt><trkpt lat="42.1015411" lon="13.3704892"><ele>842.3333333333333</ele><time>2026-05-02T14:37:07.905Z</time></trkpt><trkpt lat="42.1014265" lon="13.3705177"><ele>838.5</ele><time>2026-05-02T14:37:09.897Z</time></trkpt><trkpt lat="42.1013582" lon="13.370487"><ele>834.6666666666667</ele><time>2026-05-02T14:37:10.896Z</time></trkpt><trkpt lat="42.1012935" lon="13.3704675"><ele>830.8333333333334</ele><time>2026-05-02T14:37:11.877Z</time></trkpt><trkpt lat="42.1012063" lon="13.3704638"><ele>827.0</ele><time>2026-05-02T14:37:13.879Z</time></trkpt><trkpt lat="42.1011285" lon="13.3705066"><ele>827.1666666666667</ele><time>2026-05-02T14:37:15.893Z</time></trkpt><trkpt lat="42.10107" lon="13.3705434"><ele>827.3333333333334</ele><time>2026-05-02T14:37:16.893Z</time></trkpt><trkpt lat="42.1010043" lon="13.3705884"><ele>827.5</ele><time>2026-05-02T14:37:17.892Z</time></trkpt><trkpt lat="42.1009456" lon="13.370632"><ele>827.6666666666667</ele><time>2026-05-02T14:37:18.906Z</time></trkpt><trkpt lat="42.1008201" lon="13.3705966"><ele>827.8333333333334</ele><time>2026-05-02T14:37:20.895Z</time></trkpt><trkpt lat="42.1007404" lon="13.3705386"><ele>828.0</ele><time>2026-05-02T14:37:21.891Z</time></trkpt><trkpt lat="42.1006574" lon="13.3704828"><ele>825.8</ele><time>2026-05-02T14:37:22.896Z</time></trkpt><trkpt lat="42.1005812" lon="13.3704281"><ele>823.5999999999999</ele><time>2026-05-02T14:37:23.891Z</time></trkpt><trkpt lat="42.1005053" lon="13.3704016"><ele>821.4000000000001</ele><time>2026-05-02T14:37:24.9Z</time></trkpt><trkpt lat="42.1004224" lon="13.3704192"><ele>819.2</ele><time>2026-05-02T14:37:26.892Z</time></trkpt><trkpt lat="42.1003178" lon="13.3704695"><ele>817.0</ele><time>2026-05-02T14:37:28.9Z</time></trkpt><trkpt lat="42.100226" lon="13.3705"><ele>817.0</ele><time>2026-05-02T14:37:30.898Z</time></trkpt><trkpt lat="42.1001126" lon="13.3704343"><ele>817.0</ele><time>2026-05-02T14:37:32.908Z</time></trkpt><trkpt lat="42.1000437" lon="13.3703814"><ele>817.0</ele><time>2026-05-02T14:37:33.881Z</time></trkpt><trkpt lat="42.0999385" lon="13.37029"><ele>817.0</ele><time>2026-05-02T14:37:34.89Z</time></trkpt><trkpt lat="42.0998158" lon="13.3701885"><ele>812.75</ele><time>2026-05-02T14:37:35.904Z</time></trkpt><trkpt lat="42.099703" lon="13.3700716"><ele>808.5</ele><time>2026-05-02T14:37:36.889Z</time></trkpt><trkpt lat="42.0996081" lon="13.3699691"><ele>804.25</ele><time>2026-05-02T14:37:37.88Z</time></trkpt><trkpt lat="42.0995144" lon="13.3698734"><ele>800.0</ele><time>2026-05-02T14:37:38.909Z</time></trkpt><trkpt lat="42.0994248" lon="13.3697624"><ele>800.4</ele><time>2026-05-02T14:37:39.897Z</time></trkpt><trkpt lat="42.0993445" lon="13.369669"><ele>800.8</ele><time>2026-05-02T14:37:40.893Z</time></trkpt><trkpt lat="42.0992811" lon="13.3695837"><ele>801.2</ele><time>2026-05-02T14:37:41.91Z</time></trkpt><trkpt lat="42.0992239" lon="13.3695082"><ele>801.6</ele><time>2026-05-02T14:37:42.891Z</time></trkpt><trkpt lat="42.099165" lon="13.3694555"><ele>802.0</ele><time>2026-05-02T14:37:43.892Z</time></trkpt><trkpt lat="42.0990796" lon="13.3693472"><ele>799.6</ele><time>2026-05-02T14:37:45.898Z</time></trkpt><trkpt lat="42.098999" lon="13.3692532"><ele>797.2</ele><time>2026-05-02T14:37:47.907Z</time></trkpt><trkpt lat="42.0988818" lon="13.3691754"><ele>794.8</ele><time>2026-05-02T14:37:49.894Z</time></trkpt><trkpt lat="42.0988124" lon="13.3690998"><ele>792.4</ele><time>2026-05-02T14:37:50.907Z</time></trkpt><trkpt lat="42.0987412" lon="13.3690131"><ele>790.0</ele><time>2026-05-02T14:37:51.89Z</time></trkpt><trkpt lat="42.0986643" lon="13.368939"><ele>790.0</ele><time>2026-05-02T14:37:52.895Z</time></trkpt><trkpt lat="42.0985757" lon="13.3688807"><ele>790.0</ele><time>2026-05-02T14:37:53.894Z</time></trkpt><trkpt lat="42.0984645" lon="13.368815"><ele>790.0</ele><time>2026-05-02T14:37:54.896Z</time></trkpt><trkpt lat="42.0983397" lon="13.3687393"><ele>790.0</ele><time>2026-05-02T14:37:55.893Z</time></trkpt><trkpt lat="42.0982132" lon="13.3686705"><ele>789.0</ele><time>2026-05-02T14:37:56.893Z</time></trkpt><trkpt lat="42.0980814" lon="13.3686037"><ele>788.0</ele><time>2026-05-02T14:37:57.884Z</time></trkpt><trkpt lat="42.097956" lon="13.3685374"><ele>787.0</ele><time>2026-05-02T14:37:58.882Z</time></trkpt><trkpt lat="42.0978246" lon="13.3684772"><ele>786.0</ele><time>2026-05-02T14:37:59.899Z</time></trkpt><trkpt lat="42.0977083" lon="13.3684192"><ele>786.0</ele><time>2026-05-02T14:38:00.888Z</time></trkpt><trkpt lat="42.0975974" lon="13.3683709"><ele>786.0</ele><time>2026-05-02T14:38:01.889Z</time></trkpt><trkpt lat="42.0974848" lon="13.3683254"><ele>786.0</ele><time>2026-05-02T14:38:02.896Z</time></trkpt><trkpt lat="42.0973808" lon="13.368296"><ele>786.0</ele><time>2026-05-02T14:38:03.909Z</time></trkpt><trkpt lat="42.0972819" lon="13.3682674"><ele>786.0</ele><time>2026-05-02T14:38:04.895Z</time></trkpt><trkpt lat="42.0971895" lon="13.3682431"><ele>782.8</ele><time>2026-05-02T14:38:05.896Z</time></trkpt><trkpt lat="42.0970985" lon="13.3682036"><ele>779.5999999999999</ele><time>2026-05-02T14:38:06.898Z</time></trkpt><trkpt lat="42.0970097" lon="13.3681467"><ele>776.4</ele><time>2026-05-02T14:38:07.879Z</time></trkpt><trkpt lat="42.0969113" lon="13.3680797"><ele>773.2</ele><time>2026-05-02T14:38:08.886Z</time></trkpt><trkpt lat="42.0968077" lon="13.3680083"><ele>770.0</ele><time>2026-05-02T14:38:09.886Z</time></trkpt><trkpt lat="42.0967088" lon="13.3679276"><ele>768.8</ele><time>2026-05-02T14:38:10.891Z</time></trkpt><trkpt lat="42.0966233" lon="13.3678435"><ele>767.6</ele><time>2026-05-02T14:38:11.874Z</time></trkpt><trkpt lat="42.0965558" lon="13.3677615"><ele>766.4000000000001</ele><time>2026-05-02T14:38:12.88Z</time></trkpt><trkpt lat="42.0964893" lon="13.3676955"><ele>765.2</ele><time>2026-05-02T14:38:13.876Z</time></trkpt><trkpt lat="42.0964207" lon="13.3676271"><ele>764.0</ele><time>2026-05-02T14:38:14.871Z</time></trkpt><trkpt lat="42.0963615" lon="13.3675411"><ele>762.1666666666666</ele><time>2026-05-02T14:38:15.889Z</time></trkpt><trkpt lat="42.0963043" lon="13.3674533"><ele>760.3333333333333</ele><time>2026-05-02T14:38:16.893Z</time></trkpt><trkpt lat="42.0962397" lon="13.3673804"><ele>758.5</ele><time>2026-05-02T14:38:17.893Z</time></trkpt><trkpt lat="42.0961777" lon="13.3672972"><ele>756.6666666666666</ele><time>2026-05-02T14:38:18.877Z</time></trkpt><trkpt lat="42.0961114" lon="13.3672283"><ele>754.8333333333334</ele><time>2026-05-02T14:38:19.88Z</time></trkpt><trkpt lat="42.0960414" lon="13.3671729"><ele>753.0</ele><time>2026-05-02T14:38:20.883Z</time></trkpt><trkpt lat="42.0959676" lon="13.3671312"><ele>749.75</ele><time>2026-05-02T14:38:21.886Z</time></trkpt><trkpt lat="42.0958751" lon="13.3670936"><ele>746.5</ele><time>2026-05-02T14:38:22.902Z</time></trkpt><trkpt lat="42.095738" lon="13.3670496"><ele>743.25</ele><time>2026-05-02T14:38:23.888Z</time></trkpt><trkpt lat="42.0955644" lon="13.3669916"><ele>740.0</ele><time>2026-05-02T14:38:24.879Z</time></trkpt><trkpt lat="42.0953793" lon="13.3669109"><ele>738.3333333333333</ele><time>2026-05-02T14:38:25.882Z</time></trkpt><trkpt lat="42.0952032" lon="13.3668276"><ele>736.6666666666666</ele><time>2026-05-02T14:38:26.89Z</time></trkpt><trkpt lat="42.095051" lon="13.3667487"><ele>735.0</ele><time>2026-05-02T14:38:27.898Z</time></trkpt><trkpt lat="42.094922" lon="13.3666946"><ele>734.75</ele><time>2026-05-02T14:38:28.895Z</time></trkpt><trkpt lat="42.0947955" lon="13.3666596"><ele>734.5</ele><time>2026-05-02T14:38:29.881Z</time></trkpt><trkpt lat="42.0946758" lon="13.366634"><ele>734.25</ele><time>2026-05-02T14:38:30.891Z</time></trkpt><trkpt lat="42.0945805" lon="13.3665792"><ele>734.0</ele><time>2026-05-02T14:38:31.884Z</time></trkpt><trkpt lat="42.0944896" lon="13.366501"><ele>734.0</ele><time>2026-05-02T14:38:32.903Z</time></trkpt><trkpt lat="42.0944053" lon="13.3664094"><ele>734.0</ele><time>2026-05-02T14:38:33.907Z</time></trkpt><trkpt lat="42.0943498" lon="13.3663328"><ele>734.0</ele><time>2026-05-02T14:38:34.894Z</time></trkpt><trkpt lat="42.0943192" lon="13.3662501"><ele>734.0</ele><time>2026-05-02T14:38:35.885Z</time></trkpt><trkpt lat="42.0943425" lon="13.3661199"><ele>734.0</ele><time>2026-05-02T14:38:37.884Z</time></trkpt><trkpt lat="42.0944041" lon="13.3660299"><ele>734.0</ele><time>2026-05-02T14:38:39.877Z</time></trkpt><trkpt lat="42.0944571" lon="13.3659485"><ele>734.4000000000001</ele><time>2026-05-02T14:38:42.893Z</time></trkpt><trkpt lat="42.0945224" lon="13.3658201"><ele>734.8</ele><time>2026-05-02T14:38:54.9Z</time></trkpt><trkpt lat="42.0945858" lon="13.3657349"><ele>735.2</ele><time>2026-05-02T14:38:55.904Z</time></trkpt><trkpt lat="42.0946625" lon="13.365637"><ele>735.5999999999999</ele><time>2026-05-02T14:38:56.896Z</time></trkpt><trkpt lat="42.0947524" lon="13.3655135"><ele>736.0</ele><time>2026-05-02T14:38:57.895Z</time></trkpt><trkpt lat="42.0948459" lon="13.3653761"><ele>733.6666666666667</ele><time>2026-05-02T14:38:58.897Z</time></trkpt><trkpt lat="42.0949444" lon="13.3652315"><ele>731.3333333333334</ele><time>2026-05-02T14:38:59.909Z</time></trkpt><trkpt lat="42.095053" lon="13.3650769"><ele>729.0</ele><time>2026-05-02T14:39:00.898Z</time></trkpt><trkpt lat="42.0951561" lon="13.3649132"><ele>729.0</ele><time>2026-05-02T14:39:01.902Z</time></trkpt><trkpt lat="42.0952578" lon="13.3647667"><ele>729.0</ele><time>2026-05-02T14:39:02.909Z</time></trkpt><trkpt lat="42.0953541" lon="13.3646357"><ele>729.0</ele><time>2026-05-02T14:39:03.905Z</time></trkpt><trkpt lat="42.0954465" lon="13.3645341"><ele>729.0</ele><time>2026-05-02T14:39:04.878Z</time></trkpt><trkpt lat="42.095531" lon="13.3644404"><ele>728.8000000000001</ele><time>2026-05-02T14:39:05.887Z</time></trkpt><trkpt lat="42.095611" lon="13.3643428"><ele>728.6</ele><time>2026-05-02T14:39:06.896Z</time></trkpt><trkpt lat="42.0956879" lon="13.3642427"><ele>728.4</ele><time>2026-05-02T14:39:07.908Z</time></trkpt><trkpt lat="42.0957607" lon="13.3641395"><ele>728.2</ele><time>2026-05-02T14:39:08.898Z</time></trkpt><trkpt lat="42.0958273" lon="13.364031"><ele>728.0</ele><time>2026-05-02T14:39:09.911Z</time></trkpt><trkpt lat="42.0959006" lon="13.3639116"><ele>726.5</ele><time>2026-05-02T14:39:10.906Z</time></trkpt><trkpt lat="42.0959911" lon="13.3637783"><ele>725.0</ele><time>2026-05-02T14:39:11.884Z</time></trkpt><trkpt lat="42.0960928" lon="13.3636323"><ele>723.5</ele><time>2026-05-02T14:39:12.909Z</time></trkpt><trkpt lat="42.0961987" lon="13.3634714"><ele>722.0</ele><time>2026-05-02T14:39:13.902Z</time></trkpt><trkpt lat="42.0963203" lon="13.3632892"><ele>722.0</ele><time>2026-05-02T14:39:14.911Z</time></trkpt><trkpt lat="42.0964409" lon="13.3631037"><ele>722.0</ele><time>2026-05-02T14:39:15.906Z</time></trkpt><trkpt lat="42.0965626" lon="13.3629081"><ele>722.0</ele><time>2026-05-02T14:39:16.901Z</time></trkpt><trkpt lat="42.0966911" lon="13.3627086"><ele>720.0</ele><time>2026-05-02T14:39:17.913Z</time></trkpt><trkpt lat="42.0968179" lon="13.3625191"><ele>718.0</ele><time>2026-05-02T14:39:18.901Z</time></trkpt><trkpt lat="42.0969419" lon="13.3623327"><ele>716.0</ele><time>2026-05-02T14:39:19.922Z</time></trkpt><trkpt lat="42.0970634" lon="13.362149"><ele>715.6666666666666</ele><time>2026-05-02T14:39:20.913Z</time></trkpt><trkpt lat="42.0971826" lon="13.3619687"><ele>715.3333333333334</ele><time>2026-05-02T14:39:21.888Z</time></trkpt><trkpt lat="42.0973003" lon="13.3617974"><ele>715.0</ele><time>2026-05-02T14:39:22.904Z</time></trkpt><trkpt lat="42.0974126" lon="13.3616281"><ele>714.6666666666667</ele><time>2026-05-02T14:39:23.895Z</time></trkpt><trkpt lat="42.0975301" lon="13.3614556"><ele>714.3333333333334</ele><time>2026-05-02T14:39:24.908Z</time></trkpt><trkpt lat="42.0976473" lon="13.3612772"><ele>714.0</ele><time>2026-05-02T14:39:25.901Z</time></trkpt><trkpt lat="42.0977604" lon="13.3611013"><ele>714.0</ele><time>2026-05-02T14:39:26.923Z</time></trkpt><trkpt lat="42.0978656" lon="13.3609371"><ele>714.0</ele><time>2026-05-02T14:39:27.908Z</time></trkpt><trkpt lat="42.0979662" lon="13.3607875"><ele>714.0</ele><time>2026-05-02T14:39:28.904Z</time></trkpt><trkpt lat="42.0980807" lon="13.3606333"><ele>712.3333333333334</ele><time>2026-05-02T14:39:29.88Z</time></trkpt><trkpt lat="42.0982049" lon="13.3604662"><ele>710.6666666666667</ele><time>2026-05-02T14:39:30.88Z</time></trkpt><trkpt lat="42.0983309" lon="13.3603065"><ele>709.0</ele><time>2026-05-02T14:39:31.909Z</time></trkpt><trkpt lat="42.0984487" lon="13.3601666"><ele>709.0</ele><time>2026-05-02T14:39:32.912Z</time></trkpt><trkpt lat="42.098558" lon="13.360035"><ele>709.0</ele><time>2026-05-02T14:39:33.904Z</time></trkpt><trkpt lat="42.0986748" lon="13.3598989"><ele>709.0</ele><time>2026-05-02T14:39:34.914Z</time></trkpt><trkpt lat="42.0987936" lon="13.3597647"><ele>708.6666666666667</ele><time>2026-05-02T14:39:35.911Z</time></trkpt><trkpt lat="42.098918" lon="13.3596238"><ele>708.3333333333334</ele><time>2026-05-02T14:39:36.907Z</time></trkpt><trkpt lat="42.0990402" lon="13.3594778"><ele>708.0</ele><time>2026-05-02T14:39:37.925Z</time></trkpt><trkpt lat="42.0991669" lon="13.3593191"><ele>708.0</ele><time>2026-05-02T14:39:38.901Z</time></trkpt><trkpt lat="42.0992912" lon="13.3591655"><ele>708.0</ele><time>2026-05-02T14:39:39.913Z</time></trkpt><trkpt lat="42.099415" lon="13.3590038"><ele>708.0</ele><time>2026-05-02T14:39:40.92Z</time></trkpt><trkpt lat="42.0995379" lon="13.3588376"><ele>708.0</ele><time>2026-05-02T14:39:41.913Z</time></trkpt><trkpt lat="42.099653" lon="13.3586756"><ele>708.0</ele><time>2026-05-02T14:39:42.883Z</time></trkpt><trkpt lat="42.0997698" lon="13.3585148"><ele>708.0</ele><time>2026-05-02T14:39:43.914Z</time></trkpt><trkpt lat="42.0998926" lon="13.3583667"><ele>708.3333333333334</ele><time>2026-05-02T14:39:44.909Z</time></trkpt><trkpt lat="42.1000114" lon="13.3582299"><ele>708.6666666666667</ele><time>2026-05-02T14:39:45.914Z</time></trkpt><trkpt lat="42.1001356" lon="13.3580938"><ele>709.0</ele><time>2026-05-02T14:39:46.92Z</time></trkpt><trkpt lat="42.1002645" lon="13.3579549"><ele>709.0</ele><time>2026-05-02T14:39:47.922Z</time></trkpt><trkpt lat="42.1004031" lon="13.3578158"><ele>709.0</ele><time>2026-05-02T14:39:48.903Z</time></trkpt><trkpt lat="42.100546" lon="13.3576768"><ele>709.0</ele><time>2026-05-02T14:39:49.906Z</time></trkpt><trkpt lat="42.100676" lon="13.3575411"><ele>709.25</ele><time>2026-05-02T14:39:50.887Z</time></trkpt><trkpt lat="42.1007946" lon="13.3574111"><ele>709.5</ele><time>2026-05-02T14:39:51.887Z</time></trkpt><trkpt lat="42.1008998" lon="13.3572841"><ele>709.75</ele><time>2026-05-02T14:39:52.914Z</time></trkpt><trkpt lat="42.1010118" lon="13.3571755"><ele>710.0</ele><time>2026-05-02T14:39:53.914Z</time></trkpt><trkpt lat="42.1011426" lon="13.3570806"><ele>710.0</ele><time>2026-05-02T14:39:54.906Z</time></trkpt><trkpt lat="42.1012892" lon="13.3569756"><ele>710.0</ele><time>2026-05-02T14:39:55.908Z</time></trkpt><trkpt lat="42.1014376" lon="13.356847"><ele>710.0</ele><time>2026-05-02T14:39:56.91Z</time></trkpt><trkpt lat="42.1015858" lon="13.3566927"><ele>711.0</ele><time>2026-05-02T14:39:57.908Z</time></trkpt><trkpt lat="42.1017246" lon="13.3565329"><ele>712.0</ele><time>2026-05-02T14:39:58.91Z</time></trkpt><trkpt lat="42.1018535" lon="13.356374"><ele>713.0</ele><time>2026-05-02T14:39:59.912Z</time></trkpt><trkpt lat="42.1019804" lon="13.3562034"><ele>713.0</ele><time>2026-05-02T14:40:00.907Z</time></trkpt><trkpt lat="42.1021189" lon="13.3560355"><ele>713.0</ele><time>2026-05-02T14:40:01.901Z</time></trkpt><trkpt lat="42.1022574" lon="13.3558531"><ele>713.0</ele><time>2026-05-02T14:40:02.904Z</time></trkpt><trkpt lat="42.1024047" lon="13.3556694"><ele>713.0</ele><time>2026-05-02T14:40:03.899Z</time></trkpt><trkpt lat="42.1025454" lon="13.3554826"><ele>713.0</ele><time>2026-05-02T14:40:04.887Z</time></trkpt><trkpt lat="42.1026904" lon="13.35529"><ele>713.0</ele><time>2026-05-02T14:40:05.903Z</time></trkpt><trkpt lat="42.1028303" lon="13.3551043"><ele>713.0</ele><time>2026-05-02T14:40:06.905Z</time></trkpt><trkpt lat="42.1029678" lon="13.3549245"><ele>713.0</ele><time>2026-05-02T14:40:07.916Z</time></trkpt><trkpt lat="42.1031032" lon="13.3547581"><ele>713.0</ele><time>2026-05-02T14:40:08.9Z</time></trkpt><trkpt lat="42.1032423" lon="13.3545879"><ele>716.3333333333333</ele><time>2026-05-02T14:40:09.904Z</time></trkpt><trkpt lat="42.1033812" lon="13.3544069"><ele>719.6666666666666</ele><time>2026-05-02T14:40:10.903Z</time></trkpt><trkpt lat="42.1035163" lon="13.3542239"><ele>723.0</ele><time>2026-05-02T14:40:11.89Z</time></trkpt><trkpt lat="42.1036502" lon="13.3540348"><ele>724.6666666666666</ele><time>2026-05-02T14:40:12.906Z</time></trkpt><trkpt lat="42.1037865" lon="13.3538471"><ele>726.3333333333333</ele><time>2026-05-02T14:40:13.876Z</time></trkpt><trkpt lat="42.1039188" lon="13.3536647"><ele>728.0</ele><time>2026-05-02T14:40:14.905Z</time></trkpt><trkpt lat="42.1040473" lon="13.3534948"><ele>728.6666666666666</ele><time>2026-05-02T14:40:15.904Z</time></trkpt><trkpt lat="42.1041823" lon="13.3533344"><ele>729.3333333333334</ele><time>2026-05-02T14:40:16.929Z</time></trkpt><trkpt lat="42.1043317" lon="13.3531885"><ele>730.0</ele><time>2026-05-02T14:40:17.899Z</time></trkpt><trkpt lat="42.1044806" lon="13.3530752"><ele>731.0</ele><time>2026-05-02T14:40:18.917Z</time></trkpt><trkpt lat="42.1046236" lon="13.3529703"><ele>732.0</ele><time>2026-05-02T14:40:19.911Z</time></trkpt><trkpt lat="42.1047634" lon="13.3528589"><ele>733.0</ele><time>2026-05-02T14:40:20.902Z</time></trkpt><trkpt lat="42.1048943" lon="13.3527477"><ele>735.3333333333334</ele><time>2026-05-02T14:40:21.886Z</time></trkpt><trkpt lat="42.1050305" lon="13.3526411"><ele>737.6666666666666</ele><time>2026-05-02T14:40:22.9Z</time></trkpt><trkpt lat="42.1051628" lon="13.3525334"><ele>740.0</ele><time>2026-05-02T14:40:23.909Z</time></trkpt><trkpt lat="42.10528" lon="13.3524341"><ele>740.0</ele><time>2026-05-02T14:40:24.904Z</time></trkpt><trkpt lat="42.1053711" lon="13.352362"><ele>740.0</ele><time>2026-05-02T14:40:25.881Z</time></trkpt><trkpt lat="42.1054445" lon="13.352295"><ele>740.0</ele><time>2026-05-02T14:40:26.897Z</time></trkpt><trkpt lat="42.105513" lon="13.35224"><ele>740.0</ele><time>2026-05-02T14:40:27.909Z</time></trkpt><trkpt lat="42.1055962" lon="13.352181"><ele>740.0</ele><time>2026-05-02T14:40:28.906Z</time></trkpt><trkpt lat="42.105687" lon="13.3521115"><ele>741.0</ele><time>2026-05-02T14:40:29.896Z</time></trkpt><trkpt lat="42.1057841" lon="13.3520222"><ele>742.0</ele><time>2026-05-02T14:40:30.91Z</time></trkpt><trkpt lat="42.1058959" lon="13.3519253"><ele>743.0</ele><time>2026-05-02T14:40:31.892Z</time></trkpt><trkpt lat="42.1060036" lon="13.3518292"><ele>744.0</ele><time>2026-05-02T14:40:32.911Z</time></trkpt><trkpt lat="42.1060798" lon="13.3517657"><ele>744.0</ele><time>2026-05-02T14:40:33.909Z</time></trkpt><trkpt lat="42.106148" lon="13.3517025"><ele>744.0</ele><time>2026-05-02T14:40:34.896Z</time></trkpt><trkpt lat="42.1062275" lon="13.3516406"><ele>744.0</ele><time>2026-05-02T14:40:35.901Z</time></trkpt><trkpt lat="42.1063087" lon="13.351574"><ele>744.0</ele><time>2026-05-02T14:40:36.913Z</time></trkpt><trkpt lat="42.1063915" lon="13.3515124"><ele>744.0</ele><time>2026-05-02T14:40:37.917Z</time></trkpt><trkpt lat="42.1064755" lon="13.3514584"><ele>744.0</ele><time>2026-05-02T14:40:38.906Z</time></trkpt><trkpt lat="42.1065628" lon="13.3514084"><ele>744.0</ele><time>2026-05-02T14:40:39.906Z</time></trkpt><trkpt lat="42.1066523" lon="13.3513694"><ele>744.0</ele><time>2026-05-02T14:40:40.907Z</time></trkpt><trkpt lat="42.10674" lon="13.3513301"><ele>744.0</ele><time>2026-05-02T14:40:41.897Z</time></trkpt><trkpt lat="42.1068204" lon="13.3512906"><ele>744.0</ele><time>2026-05-02T14:40:42.903Z</time></trkpt><trkpt lat="42.1068871" lon="13.3512406"><ele>744.0</ele><time>2026-05-02T14:40:43.902Z</time></trkpt><trkpt lat="42.1069314" lon="13.351155"><ele>744.6</ele><time>2026-05-02T14:40:44.906Z</time></trkpt><trkpt lat="42.1069676" lon="13.3510552"><ele>745.2</ele><time>2026-05-02T14:40:45.892Z</time></trkpt><trkpt lat="42.106988" lon="13.3509203"><ele>745.8000000000001</ele><time>2026-05-02T14:40:46.905Z</time></trkpt><trkpt lat="42.1070067" lon="13.3507816"><ele>746.4000000000001</ele><time>2026-05-02T14:40:47.905Z</time></trkpt><trkpt lat="42.1070309" lon="13.3506429"><ele>747.0</ele><time>2026-05-02T14:40:48.894Z</time></trkpt><trkpt lat="42.107059" lon="13.3504904"><ele>747.4000000000001</ele><time>2026-05-02T14:40:49.903Z</time></trkpt><trkpt lat="42.1070854" lon="13.3503329"><ele>747.8000000000001</ele><time>2026-05-02T14:40:50.883Z</time></trkpt><trkpt lat="42.1071114" lon="13.3502012"><ele>748.2</ele><time>2026-05-02T14:40:51.929Z</time></trkpt><trkpt lat="42.1071419" lon="13.3500799"><ele>748.6</ele><time>2026-05-02T14:40:52.879Z</time></trkpt><trkpt lat="42.1071911" lon="13.3499677"><ele>749.0</ele><time>2026-05-02T14:40:53.886Z</time></trkpt><trkpt lat="42.1072628" lon="13.3498489"><ele>749.0</ele><time>2026-05-02T14:40:54.896Z</time></trkpt><trkpt lat="42.1073492" lon="13.3497222"><ele>749.0</ele><time>2026-05-02T14:40:55.913Z</time></trkpt><trkpt lat="42.1074474" lon="13.3495916"><ele>749.0</ele><time>2026-05-02T14:40:56.893Z</time></trkpt><trkpt lat="42.1075356" lon="13.3494704"><ele>749.0</ele><time>2026-05-02T14:40:57.907Z</time></trkpt><trkpt lat="42.1076135" lon="13.3493615"><ele>749.4000000000001</ele><time>2026-05-02T14:40:58.911Z</time></trkpt><trkpt lat="42.1076811" lon="13.3492464"><ele>749.8</ele><time>2026-05-02T14:40:59.911Z</time></trkpt><trkpt lat="42.1077291" lon="13.349124"><ele>750.2</ele><time>2026-05-02T14:41:00.894Z</time></trkpt><trkpt lat="42.1077563" lon="13.3489983"><ele>750.5999999999999</ele><time>2026-05-02T14:41:01.884Z</time></trkpt><trkpt lat="42.107775" lon="13.3488527"><ele>751.0</ele><time>2026-05-02T14:41:02.911Z</time></trkpt><trkpt lat="42.1078043" lon="13.3486855"><ele>751.0</ele><time>2026-05-02T14:41:03.911Z</time></trkpt><trkpt lat="42.1078312" lon="13.3485039"><ele>751.0</ele><time>2026-05-02T14:41:04.894Z</time></trkpt><trkpt lat="42.1078538" lon="13.3483329"><ele>751.0</ele><time>2026-05-02T14:41:05.907Z</time></trkpt><trkpt lat="42.1078689" lon="13.3481686"><ele>751.0</ele><time>2026-05-02T14:41:06.913Z</time></trkpt><trkpt lat="42.1078896" lon="13.3480147"><ele>751.4</ele><time>2026-05-02T14:41:07.908Z</time></trkpt><trkpt lat="42.107907" lon="13.3478936"><ele>751.8</ele><time>2026-05-02T14:41:08.888Z</time></trkpt><trkpt lat="42.1079434" lon="13.3477768"><ele>752.1999999999999</ele><time>2026-05-02T14:41:10.903Z</time></trkpt><trkpt lat="42.108024" lon="13.3477112"><ele>752.5999999999999</ele><time>2026-05-02T14:41:12.914Z</time></trkpt><trkpt lat="42.108128" lon="13.3476618"><ele>753.0</ele><time>2026-05-02T14:41:13.895Z</time></trkpt><trkpt lat="42.1082481" lon="13.3476012"><ele>754.6666666666666</ele><time>2026-05-02T14:41:14.891Z</time></trkpt><trkpt lat="42.108384" lon="13.3475258"><ele>756.3333333333333</ele><time>2026-05-02T14:41:15.898Z</time></trkpt><trkpt lat="42.1085349" lon="13.347456"><ele>758.0</ele><time>2026-05-02T14:41:16.895Z</time></trkpt><trkpt lat="42.1087067" lon="13.3473839"><ele>758.0</ele><time>2026-05-02T14:41:17.89Z</time></trkpt><trkpt lat="42.108909" lon="13.347308"><ele>758.0</ele><time>2026-05-02T14:41:18.888Z</time></trkpt><trkpt lat="42.1091323" lon="13.3472331"><ele>758.0</ele><time>2026-05-02T14:41:19.879Z</time></trkpt><trkpt lat="42.1093621" lon="13.3471712"><ele>761.5</ele><time>2026-05-02T14:41:20.883Z</time></trkpt><trkpt lat="42.1095917" lon="13.3471181"><ele>765.0</ele><time>2026-05-02T14:41:21.88Z</time></trkpt><trkpt lat="42.1098209" lon="13.3470718"><ele>769.0</ele><time>2026-05-02T14:41:22.891Z</time></trkpt><trkpt lat="42.1100634" lon="13.347016"><ele>773.0</ele><time>2026-05-02T14:41:23.896Z</time></trkpt><trkpt lat="42.1103234" lon="13.3469327"><ele>773.0</ele><time>2026-05-02T14:41:24.896Z</time></trkpt><trkpt lat="42.1105925" lon="13.3468206"><ele>773.0</ele><time>2026-05-02T14:41:25.898Z</time></trkpt><trkpt lat="42.1108594" lon="13.3467071"><ele>775.5</ele><time>2026-05-02T14:41:26.902Z</time></trkpt><trkpt lat="42.1111344" lon="13.3465788"><ele>778.0</ele><time>2026-05-02T14:41:27.886Z</time></trkpt><trkpt lat="42.1113992" lon="13.3464571"><ele>781.5</ele><time>2026-05-02T14:41:28.881Z</time></trkpt><trkpt lat="42.1116746" lon="13.3463336"><ele>785.0</ele><time>2026-05-02T14:41:29.9Z</time></trkpt><trkpt lat="42.1119471" lon="13.3462015"><ele>785.0</ele><time>2026-05-02T14:41:30.896Z</time></trkpt><trkpt lat="42.1122177" lon="13.3460624"><ele>785.0</ele><time>2026-05-02T14:41:31.877Z</time></trkpt><trkpt lat="42.1124715" lon="13.3459051"><ele>789.0</ele><time>2026-05-02T14:41:32.891Z</time></trkpt><trkpt lat="42.112709" lon="13.3457329"><ele>793.0</ele><time>2026-05-02T14:41:33.888Z</time></trkpt><trkpt lat="42.112942" lon="13.3455673"><ele>790.5</ele><time>2026-05-02T14:41:34.913Z</time></trkpt><trkpt lat="42.1131699" lon="13.3454062"><ele>788.0</ele><time>2026-05-02T14:41:35.898Z</time></trkpt><trkpt lat="42.1133886" lon="13.3452504"><ele>793.0</ele><time>2026-05-02T14:41:36.884Z</time></trkpt><trkpt lat="42.1136097" lon="13.345095"><ele>798.0</ele><time>2026-05-02T14:41:37.894Z</time></trkpt><trkpt lat="42.1138192" lon="13.3449419"><ele>798.0</ele><time>2026-05-02T14:41:38.909Z</time></trkpt><trkpt lat="42.1140133" lon="13.3448122"><ele>798.0</ele><time>2026-05-02T14:41:39.899Z</time></trkpt><trkpt lat="42.1141858" lon="13.3447209"><ele>798.0</ele><time>2026-05-02T14:41:40.884Z</time></trkpt><trkpt lat="42.1143531" lon="13.3446395"><ele>800.0</ele><time>2026-05-02T14:41:41.873Z</time></trkpt><trkpt lat="42.1145207" lon="13.3445831"><ele>802.0</ele><time>2026-05-02T14:41:42.885Z</time></trkpt><trkpt lat="42.1146994" lon="13.3445358"><ele>804.0</ele><time>2026-05-02T14:41:43.887Z</time></trkpt><trkpt lat="42.1148871" lon="13.3445125"><ele>805.3333333333333</ele><time>2026-05-02T14:41:44.911Z</time></trkpt><trkpt lat="42.1150845" lon="13.3444887"><ele>806.6666666666666</ele><time>2026-05-02T14:41:45.88Z</time></trkpt><trkpt lat="42.1152917" lon="13.344468"><ele>808.0</ele><time>2026-05-02T14:41:46.88Z</time></trkpt><trkpt lat="42.1155066" lon="13.3444509"><ele>808.0</ele><time>2026-05-02T14:41:47.889Z</time></trkpt><trkpt lat="42.1157253" lon="13.3444256"><ele>808.0</ele><time>2026-05-02T14:41:48.89Z</time></trkpt><trkpt lat="42.115938" lon="13.3443989"><ele>808.0</ele><time>2026-05-02T14:41:49.894Z</time></trkpt><trkpt lat="42.1161446" lon="13.3443711"><ele>808.6666666666666</ele><time>2026-05-02T14:41:50.899Z</time></trkpt><trkpt lat="42.1163413" lon="13.3443472"><ele>809.3333333333333</ele><time>2026-05-02T14:41:51.884Z</time></trkpt><trkpt lat="42.1165338" lon="13.3443179"><ele>810.0</ele><time>2026-05-02T14:41:52.894Z</time></trkpt><trkpt lat="42.1167224" lon="13.3442861"><ele>813.0</ele><time>2026-05-02T14:41:53.897Z</time></trkpt><trkpt lat="42.1169108" lon="13.3442589"><ele>816.0</ele><time>2026-05-02T14:41:54.899Z</time></trkpt><trkpt lat="42.1171182" lon="13.3442333"><ele>819.0</ele><time>2026-05-02T14:41:55.887Z</time></trkpt><trkpt lat="42.1173351" lon="13.3441979"><ele>821.3333333333333</ele><time>2026-05-02T14:41:56.9Z</time></trkpt><trkpt lat="42.1175552" lon="13.3441774"><ele>823.6666666666666</ele><time>2026-05-02T14:41:57.883Z</time></trkpt><trkpt lat="42.1177591" lon="13.3441569"><ele>826.0</ele><time>2026-05-02T14:41:58.883Z</time></trkpt><trkpt lat="42.1179614" lon="13.3441452"><ele>826.0</ele><time>2026-05-02T14:41:59.891Z</time></trkpt><trkpt lat="42.1181538" lon="13.3441534"><ele>826.0</ele><time>2026-05-02T14:42:00.892Z</time></trkpt><trkpt lat="42.1183265" lon="13.3441715"><ele>826.0</ele><time>2026-05-02T14:42:01.873Z</time></trkpt><trkpt lat="42.1184803" lon="13.34419"><ele>827.3333333333333</ele><time>2026-05-02T14:42:02.896Z</time></trkpt><trkpt lat="42.1186384" lon="13.3442068"><ele>828.6666666666667</ele><time>2026-05-02T14:42:03.885Z</time></trkpt><trkpt lat="42.1187938" lon="13.3442299"><ele>830.0</ele><time>2026-05-02T14:42:04.893Z</time></trkpt><trkpt lat="42.1189506" lon="13.3442604"><ele>833.0</ele><time>2026-05-02T14:42:05.884Z</time></trkpt><trkpt lat="42.1191118" lon="13.3442805"><ele>836.0</ele><time>2026-05-02T14:42:06.896Z</time></trkpt><trkpt lat="42.1192797" lon="13.3442919"><ele>839.0</ele><time>2026-05-02T14:42:07.884Z</time></trkpt><trkpt lat="42.1194558" lon="13.3442941"><ele>839.0</ele><time>2026-05-02T14:42:08.887Z</time></trkpt><trkpt lat="42.1196357" lon="13.344285"><ele>839.0</ele><time>2026-05-02T14:42:09.899Z</time></trkpt><trkpt lat="42.1198286" lon="13.3442537"><ele>839.0</ele><time>2026-05-02T14:42:10.89Z</time></trkpt><trkpt lat="42.1200255" lon="13.3442086"><ele>841.3333333333334</ele><time>2026-05-02T14:42:11.883Z</time></trkpt><trkpt lat="42.1202296" lon="13.3441445"><ele>843.6666666666667</ele><time>2026-05-02T14:42:12.886Z</time></trkpt><trkpt lat="42.1204382" lon="13.3440662"><ele>846.0</ele><time>2026-05-02T14:42:13.882Z</time></trkpt><trkpt lat="42.1206497" lon="13.3439875"><ele>848.3333333333333</ele><time>2026-05-02T14:42:14.905Z</time></trkpt><trkpt lat="42.120861" lon="13.3439168"><ele>850.6666666666666</ele><time>2026-05-02T14:42:15.89Z</time></trkpt><trkpt lat="42.1210579" lon="13.3438479"><ele>853.0</ele><time>2026-05-02T14:42:16.894Z</time></trkpt><trkpt lat="42.1212329" lon="13.3437782"><ele>853.5</ele><time>2026-05-02T14:42:17.884Z</time></trkpt><trkpt lat="42.1213851" lon="13.3436831"><ele>854.0</ele><time>2026-05-02T14:42:18.889Z</time></trkpt><trkpt lat="42.1215022" lon="13.3435704"><ele>854.5</ele><time>2026-05-02T14:42:19.876Z</time></trkpt><trkpt lat="42.1215875" lon="13.3434452"><ele>855.0</ele><time>2026-05-02T14:42:20.877Z</time></trkpt><trkpt lat="42.1216366" lon="13.3433098"><ele>857.5</ele><time>2026-05-02T14:42:21.878Z</time></trkpt><trkpt lat="42.1216625" lon="13.3431531"><ele>860.0</ele><time>2026-05-02T14:42:22.883Z</time></trkpt><trkpt lat="42.1216675" lon="13.3429868"><ele>862.5</ele><time>2026-05-02T14:42:23.887Z</time></trkpt><trkpt lat="42.1216589" lon="13.3428098"><ele>865.0</ele><time>2026-05-02T14:42:24.887Z</time></trkpt><trkpt lat="42.1216408" lon="13.3426197"><ele>864.25</ele><time>2026-05-02T14:42:25.886Z</time></trkpt><trkpt lat="42.1216239" lon="13.3424308"><ele>863.5</ele><time>2026-05-02T14:42:26.882Z</time></trkpt><trkpt lat="42.1216016" lon="13.3422379"><ele>862.75</ele><time>2026-05-02T14:42:27.886Z</time></trkpt><trkpt lat="42.1215616" lon="13.3420452"><ele>862.0</ele><time>2026-05-02T14:42:28.893Z</time></trkpt><trkpt lat="42.1215166" lon="13.341855"><ele>862.0</ele><time>2026-05-02T14:42:29.885Z</time></trkpt><trkpt lat="42.1214882" lon="13.3416671"><ele>862.0</ele><time>2026-05-02T14:42:30.876Z</time></trkpt><trkpt lat="42.1214683" lon="13.3414771"><ele>862.0</ele><time>2026-05-02T14:42:31.878Z</time></trkpt><trkpt lat="42.1214654" lon="13.3412869"><ele>862.0</ele><time>2026-05-02T14:42:32.876Z</time></trkpt><trkpt lat="42.1214687" lon="13.3410931"><ele>862.75</ele><time>2026-05-02T14:42:33.891Z</time></trkpt><trkpt lat="42.1214726" lon="13.3409011"><ele>863.5</ele><time>2026-05-02T14:42:34.88Z</time></trkpt><trkpt lat="42.1214674" lon="13.3407197"><ele>864.25</ele><time>2026-05-02T14:42:35.889Z</time></trkpt><trkpt lat="42.1214576" lon="13.3405235"><ele>865.0</ele><time>2026-05-02T14:42:36.887Z</time></trkpt><trkpt lat="42.1214409" lon="13.340308"><ele>868.3333333333333</ele><time>2026-05-02T14:42:37.887Z</time></trkpt><trkpt lat="42.1214276" lon="13.3400956"><ele>871.6666666666667</ele><time>2026-05-02T14:42:38.895Z</time></trkpt><trkpt lat="42.1214047" lon="13.3398996"><ele>875.0</ele><time>2026-05-02T14:42:39.889Z</time></trkpt><trkpt lat="42.1213544" lon="13.3396903"><ele>880.0</ele><time>2026-05-02T14:42:40.909Z</time></trkpt><trkpt lat="42.1212808" lon="13.3394707"><ele>885.0</ele><time>2026-05-02T14:42:41.876Z</time></trkpt><trkpt lat="42.1211947" lon="13.339241"><ele>890.0</ele><time>2026-05-02T14:42:42.888Z</time></trkpt><trkpt lat="42.1211108" lon="13.3390279"><ele>893.5</ele><time>2026-05-02T14:42:43.885Z</time></trkpt><trkpt lat="42.1210326" lon="13.3388469"><ele>897.0</ele><time>2026-05-02T14:42:44.882Z</time></trkpt><trkpt lat="42.1209616" lon="13.3386953"><ele>900.5</ele><time>2026-05-02T14:42:45.879Z</time></trkpt><trkpt lat="42.1208899" lon="13.3385956"><ele>904.0</ele><time>2026-05-02T14:42:46.901Z</time></trkpt><trkpt lat="42.1208195" lon="13.3385404"><ele>904.0</ele><time>2026-05-02T14:42:47.892Z</time></trkpt><trkpt lat="42.1207526" lon="13.3385447"><ele>904.0000000000001</ele><time>2026-05-02T14:42:48.89Z</time></trkpt><trkpt lat="42.1206787" lon="13.3386199"><ele>904.0000000000001</ele><time>2026-05-02T14:42:49.877Z</time></trkpt><trkpt lat="42.1206071" lon="13.3387177"><ele>904.0</ele><time>2026-05-02T14:42:50.89Z</time></trkpt><trkpt lat="42.1205135" lon="13.3388555"><ele>904.0</ele><time>2026-05-02T14:42:51.861Z</time></trkpt><trkpt lat="42.1204197" lon="13.3389807"><ele>903.0</ele><time>2026-05-02T14:42:52.889Z</time></trkpt><trkpt lat="42.120313" lon="13.3390977"><ele>902.0000000000001</ele><time>2026-05-02T14:42:53.885Z</time></trkpt><trkpt lat="42.1202257" lon="13.3391936"><ele>901.0000000000001</ele><time>2026-05-02T14:42:54.884Z</time></trkpt><trkpt lat="42.1201468" lon="13.3392514"><ele>900.0</ele><time>2026-05-02T14:42:55.888Z</time></trkpt><trkpt lat="42.1200527" lon="13.3392693"><ele>899.0</ele><time>2026-05-02T14:42:56.883Z</time></trkpt><trkpt lat="42.1199421" lon="13.3392615"><ele>900.0</ele><time>2026-05-02T14:42:57.879Z</time></trkpt><trkpt lat="42.1198283" lon="13.3392406"><ele>901.0</ele><time>2026-05-02T14:42:58.889Z</time></trkpt><trkpt lat="42.1197096" lon="13.339219"><ele>902.0</ele><time>2026-05-02T14:42:59.9Z</time></trkpt><trkpt lat="42.1195722" lon="13.3391957"><ele>903.0</ele><time>2026-05-02T14:43:00.877Z</time></trkpt><trkpt lat="42.1194306" lon="13.3391671"><ele>903.0</ele><time>2026-05-02T14:43:01.883Z</time></trkpt><trkpt lat="42.1192843" lon="13.3391477"><ele>903.0</ele><time>2026-05-02T14:43:02.888Z</time></trkpt><trkpt lat="42.1191388" lon="13.3391309"><ele>903.0</ele><time>2026-05-02T14:43:03.884Z</time></trkpt><trkpt lat="42.1190022" lon="13.3391253"><ele>903.0</ele><time>2026-05-02T14:43:04.896Z</time></trkpt><trkpt lat="42.1188687" lon="13.3391272"><ele>903.5999999999999</ele><time>2026-05-02T14:43:05.885Z</time></trkpt><trkpt lat="42.1187445" lon="13.3391268"><ele>904.1999999999999</ele><time>2026-05-02T14:43:06.892Z</time></trkpt><trkpt lat="42.1186302" lon="13.3391405"><ele>904.8</ele><time>2026-05-02T14:43:07.882Z</time></trkpt><trkpt lat="42.1185388" lon="13.3391589"><ele>905.4</ele><time>2026-05-02T14:43:08.875Z</time></trkpt><trkpt lat="42.118459" lon="13.3391766"><ele>906.0</ele><time>2026-05-02T14:43:09.885Z</time></trkpt><trkpt lat="42.1183885" lon="13.3391852"><ele>905.9999999999999</ele><time>2026-05-02T14:43:10.883Z</time></trkpt><trkpt lat="42.1183205" lon="13.3391832"><ele>906.0</ele><time>2026-05-02T14:43:11.874Z</time></trkpt><trkpt lat="42.1182445" lon="13.3391655"><ele>905.9999999999999</ele><time>2026-05-02T14:43:12.88Z</time></trkpt><trkpt lat="42.1181705" lon="13.3391446"><ele>905.9999999999999</ele><time>2026-05-02T14:43:13.884Z</time></trkpt><trkpt lat="42.1181089" lon="13.3391226"><ele>906.0</ele><time>2026-05-02T14:43:14.894Z</time></trkpt><trkpt lat="42.1180443" lon="13.3390774"><ele>905.9999999999999</ele><time>2026-05-02T14:43:16.887Z</time></trkpt><trkpt lat="42.1180248" lon="13.3389729"><ele>905.9999999999999</ele><time>2026-05-02T14:43:19.896Z</time></trkpt><trkpt lat="42.1180581" lon="13.3388904"><ele>907.5999999999999</ele><time>2026-05-02T14:43:21.881Z</time></trkpt><trkpt lat="42.1181401" lon="13.3388388"><ele>909.1999999999999</ele><time>2026-05-02T14:43:23.89Z</time></trkpt><trkpt lat="42.1182008" lon="13.3387976"><ele>910.8000000000001</ele><time>2026-05-02T14:43:24.895Z</time></trkpt><trkpt lat="42.1183292" lon="13.3387346"><ele>912.4000000000001</ele><time>2026-05-02T14:43:26.887Z</time></trkpt><trkpt lat="42.118402" lon="13.338713"><ele>914.0</ele><time>2026-05-02T14:43:27.883Z</time></trkpt><trkpt lat="42.1184863" lon="13.3386854"><ele>914.0000000000001</ele><time>2026-05-02T14:43:28.875Z</time></trkpt><trkpt lat="42.1185633" lon="13.3386548"><ele>914.0</ele><time>2026-05-02T14:43:29.89Z</time></trkpt><trkpt lat="42.1186345" lon="13.3386192"><ele>914.0000000000001</ele><time>2026-05-02T14:43:30.888Z</time></trkpt><trkpt lat="42.1186955" lon="13.3385716"><ele>914.0000000000001</ele><time>2026-05-02T14:43:31.881Z</time></trkpt><trkpt lat="42.1187529" lon="13.3385322"><ele>914.0</ele><time>2026-05-02T14:43:32.877Z</time></trkpt><trkpt lat="42.1188115" lon="13.3384905"><ele>914.0000000000001</ele><time>2026-05-02T14:43:33.885Z</time></trkpt><trkpt lat="42.118873" lon="13.3384414"><ele>914.0000000000001</ele><time>2026-05-02T14:43:34.887Z</time></trkpt><trkpt lat="42.1189327" lon="13.3383932"><ele>914.0000000000001</ele><time>2026-05-02T14:43:35.883Z</time></trkpt><trkpt lat="42.1189926" lon="13.3383416"><ele>914.0</ele><time>2026-05-02T14:43:36.882Z</time></trkpt><trkpt lat="42.1190317" lon="13.3382478"><ele>914.0</ele><time>2026-05-02T14:43:38.896Z</time></trkpt><trkpt lat="42.1189676" lon="13.3381866"><ele>914.0</ele><time>2026-05-02T14:43:40.886Z</time></trkpt><trkpt lat="42.118903" lon="13.3381314"><ele>914.0000000000001</ele><time>2026-05-02T14:43:42.898Z</time></trkpt><trkpt lat="42.1188332" lon="13.3380709"><ele>914.0</ele><time>2026-05-02T14:43:45.882Z</time></trkpt><trkpt lat="42.1188045" lon="13.3379774"><ele>913.5000000000001</ele><time>2026-05-02T14:43:48.852Z</time></trkpt><trkpt lat="42.1187978" lon="13.3378815"><ele>913.0</ele><time>2026-05-02T14:43:50.883Z</time></trkpt><trkpt lat="42.1188396" lon="13.3378137"><ele>912.5</ele><time>2026-05-02T14:43:52.834Z</time></trkpt><trkpt lat="42.1189044" lon="13.3378086"><ele>912.0</ele><time>2026-05-02T14:43:54.892Z</time></trkpt><trkpt lat="42.1189833" lon="13.3377815"><ele>911.5000000000001</ele><time>2026-05-02T14:43:56.853Z</time></trkpt><trkpt lat="42.1190844" lon="13.3377724"><ele>911.0</ele><time>2026-05-02T14:43:58.888Z</time></trkpt><trkpt lat="42.1191396" lon="13.3378584"><ele>914.3333333333334</ele><time>2026-05-02T14:44:00.883Z</time></trkpt><trkpt lat="42.1191999" lon="13.3378987"><ele>917.6666666666667</ele><time>2026-05-02T14:44:02.886Z</time></trkpt><trkpt lat="42.1192788" lon="13.3378944"><ele>921.0</ele><time>2026-05-02T14:44:05.847Z</time></trkpt><trkpt lat="42.1193327" lon="13.3378416"><ele>924.3333333333333</ele><time>2026-05-02T14:44:07.886Z</time></trkpt><trkpt lat="42.1194087" lon="13.3377401"><ele>927.6666666666666</ele><time>2026-05-02T14:44:09.882Z</time></trkpt><trkpt lat="42.1194616" lon="13.3376769"><ele>931.0</ele><time>2026-05-02T14:44:10.892Z</time></trkpt><trkpt lat="42.1195213" lon="13.3376148"><ele>931.0</ele><time>2026-05-02T14:44:11.885Z</time></trkpt><trkpt lat="42.119578" lon="13.3375655"><ele>930.9999999999999</ele><time>2026-05-02T14:44:12.889Z</time></trkpt><trkpt lat="42.1196652" lon="13.337473"><ele>930.9999999999999</ele><time>2026-05-02T14:44:14.877Z</time></trkpt><trkpt lat="42.1197148" lon="13.3373819"><ele>931.0</ele><time>2026-05-02T14:44:15.887Z</time></trkpt><trkpt lat="42.1197646" lon="13.3372719"><ele>931.0</ele><time>2026-05-02T14:44:16.88Z</time></trkpt><trkpt lat="42.1198219" lon="13.3371562"><ele>932.1999999999999</ele><time>2026-05-02T14:44:17.887Z</time></trkpt><trkpt lat="42.1198802" lon="13.3370395"><ele>933.3999999999999</ele><time>2026-05-02T14:44:18.879Z</time></trkpt><trkpt lat="42.1199305" lon="13.3369225"><ele>934.6</ele><time>2026-05-02T14:44:19.897Z</time></trkpt><trkpt lat="42.1199803" lon="13.3368041"><ele>935.8</ele><time>2026-05-02T14:44:20.888Z</time></trkpt><trkpt lat="42.1200294" lon="13.3366835"><ele>937.0</ele><time>2026-05-02T14:44:21.883Z</time></trkpt><trkpt lat="42.1200826" lon="13.3365552"><ele>937.0</ele><time>2026-05-02T14:44:22.885Z</time></trkpt><trkpt lat="42.1201475" lon="13.3364197"><ele>937.0</ele><time>2026-05-02T14:44:23.908Z</time></trkpt><trkpt lat="42.1202162" lon="13.336287"><ele>937.0</ele><time>2026-05-02T14:44:24.883Z</time></trkpt><trkpt lat="42.1202878" lon="13.3361494"><ele>937.0</ele><time>2026-05-02T14:44:25.896Z</time></trkpt><trkpt lat="42.1203511" lon="13.3360182"><ele>936.4999999999999</ele><time>2026-05-02T14:44:26.886Z</time></trkpt><trkpt lat="42.1204044" lon="13.3358949"><ele>936.0</ele><time>2026-05-02T14:44:27.883Z</time></trkpt><trkpt lat="42.1204547" lon="13.3357887"><ele>935.5</ele><time>2026-05-02T14:44:28.887Z</time></trkpt><trkpt lat="42.120498" lon="13.3356975"><ele>935.0</ele><time>2026-05-02T14:44:29.885Z</time></trkpt><trkpt lat="42.1205337" lon="13.3356207"><ele>934.4999999999999</ele><time>2026-05-02T14:44:30.877Z</time></trkpt><trkpt lat="42.120583" lon="13.335504"><ele>934.0</ele><time>2026-05-02T14:44:32.895Z</time></trkpt><trkpt lat="42.1206167" lon="13.3354226"><ele>931.6</ele><time>2026-05-02T14:44:35.887Z</time></trkpt><trkpt lat="42.1206384" lon="13.3353232"><ele>929.2</ele><time>2026-05-02T14:47:22.89Z</time></trkpt><trkpt lat="42.1207015" lon="13.3351838"><ele>926.8000000000001</ele><time>2026-05-02T14:47:24.891Z</time></trkpt><trkpt lat="42.1207555" lon="13.3350683"><ele>924.4000000000001</ele><time>2026-05-02T14:47:25.899Z</time></trkpt><trkpt lat="42.1208184" lon="13.3349448"><ele>922.0</ele><time>2026-05-02T14:47:26.899Z</time></trkpt><trkpt lat="42.1208913" lon="13.3347865"><ele>929.0</ele><time>2026-05-02T14:47:27.906Z</time></trkpt><trkpt lat="42.1209742" lon="13.3346219"><ele>936.0</ele><time>2026-05-02T14:47:28.887Z</time></trkpt><trkpt lat="42.1210546" lon="13.3344789"><ele>943.0</ele><time>2026-05-02T14:47:29.89Z</time></trkpt><trkpt lat="42.1211048" lon="13.3343579"><ele>950.0</ele><time>2026-05-02T14:47:30.88Z</time></trkpt><trkpt lat="42.1211374" lon="13.3342383"><ele>950.0000000000001</ele><time>2026-05-02T14:47:31.883Z</time></trkpt><trkpt lat="42.121162" lon="13.3341182"><ele>950.0</ele><time>2026-05-02T14:47:32.885Z</time></trkpt><trkpt lat="42.1211645" lon="13.3340123"><ele>950.0</ele><time>2026-05-02T14:47:33.895Z</time></trkpt><trkpt lat="42.1211603" lon="13.3339137"><ele>950.0</ele><time>2026-05-02T14:47:34.891Z</time></trkpt><trkpt lat="42.1211337" lon="13.3338214"><ele>950.0000000000001</ele><time>2026-05-02T14:47:35.896Z</time></trkpt><trkpt lat="42.1210901" lon="13.333738"><ele>950.0</ele><time>2026-05-02T14:47:36.896Z</time></trkpt><trkpt lat="42.1210244" lon="13.3336446"><ele>949.8</ele><time>2026-05-02T14:47:37.888Z</time></trkpt><trkpt lat="42.1209439" lon="13.3335592"><ele>949.6</ele><time>2026-05-02T14:47:38.917Z</time></trkpt><trkpt lat="42.1208542" lon="13.333523"><ele>949.4000000000001</ele><time>2026-05-02T14:47:39.906Z</time></trkpt><trkpt lat="42.1207483" lon="13.333522"><ele>949.2</ele><time>2026-05-02T14:47:40.894Z</time></trkpt><trkpt lat="42.1206443" lon="13.333539"><ele>949.0</ele><time>2026-05-02T14:47:41.893Z</time></trkpt><trkpt lat="42.1205489" lon="13.3335878"><ele>949.0</ele><time>2026-05-02T14:47:42.889Z</time></trkpt><trkpt lat="42.1204424" lon="13.3336358"><ele>949.0000000000001</ele><time>2026-05-02T14:47:43.89Z</time></trkpt><trkpt lat="42.120352" lon="13.3336495"><ele>949.0000000000001</ele><time>2026-05-02T14:47:44.895Z</time></trkpt><trkpt lat="42.1202841" lon="13.3335338"><ele>949.0</ele><time>2026-05-02T14:47:46.922Z</time></trkpt><trkpt lat="42.1202739" lon="13.3334245"><ele>949.0</ele><time>2026-05-02T14:47:47.885Z</time></trkpt><trkpt lat="42.1202845" lon="13.3332874"><ele>949.0</ele><time>2026-05-02T14:47:48.877Z</time></trkpt><trkpt lat="42.1202941" lon="13.3331187"><ele>949.0</ele><time>2026-05-02T14:47:49.897Z</time></trkpt><trkpt lat="42.1203053" lon="13.3329206"><ele>949.0</ele><time>2026-05-02T14:47:50.897Z</time></trkpt><trkpt lat="42.12031" lon="13.3327055"><ele>949.0</ele><time>2026-05-02T14:47:51.9Z</time></trkpt><trkpt lat="42.1203115" lon="13.3324829"><ele>953.0</ele><time>2026-05-02T14:47:52.884Z</time></trkpt><trkpt lat="42.1202955" lon="13.3323"><ele>957.0</ele><time>2026-05-02T14:47:53.928Z</time></trkpt><trkpt lat="42.1202535" lon="13.3321358"><ele>961.0</ele><time>2026-05-02T14:47:54.897Z</time></trkpt><trkpt lat="42.120197" lon="13.3319917"><ele>965.0</ele><time>2026-05-02T14:47:55.892Z</time></trkpt><trkpt lat="42.1201536" lon="13.3318612"><ele>966.5000000000001</ele><time>2026-05-02T14:47:56.88Z</time></trkpt><trkpt lat="42.1201287" lon="13.3317437"><ele>968.0</ele><time>2026-05-02T14:47:57.888Z</time></trkpt><trkpt lat="42.1201235" lon="13.3316406"><ele>969.5</ele><time>2026-05-02T14:47:58.889Z</time></trkpt><trkpt lat="42.1201463" lon="13.3315405"><ele>971.0</ele><time>2026-05-02T14:47:59.894Z</time></trkpt><trkpt lat="42.1201968" lon="13.3314675"><ele>972.5000000000001</ele><time>2026-05-02T14:48:00.894Z</time></trkpt><trkpt lat="42.1202736" lon="13.3314127"><ele>974.0</ele><time>2026-05-02T14:48:01.887Z</time></trkpt><trkpt lat="42.1203871" lon="13.3313727"><ele>974.5</ele><time>2026-05-02T14:48:02.889Z</time></trkpt><trkpt lat="42.1205183" lon="13.3313346"><ele>975.0</ele><time>2026-05-02T14:48:03.908Z</time></trkpt><trkpt lat="42.1206535" lon="13.3312857"><ele>975.5</ele><time>2026-05-02T14:48:04.9Z</time></trkpt><trkpt lat="42.1208038" lon="13.331219"><ele>976.0</ele><time>2026-05-02T14:48:05.89Z</time></trkpt><trkpt lat="42.1209852" lon="13.3311382"><ele>978.0</ele><time>2026-05-02T14:48:06.887Z</time></trkpt><trkpt lat="42.121187" lon="13.331041"><ele>980.0</ele><time>2026-05-02T14:48:07.891Z</time></trkpt><trkpt lat="42.1213955" lon="13.3309482"><ele>982.0</ele><time>2026-05-02T14:48:08.901Z</time></trkpt><trkpt lat="42.1215724" lon="13.330873"><ele>984.6666666666666</ele><time>2026-05-02T14:48:09.893Z</time></trkpt><trkpt lat="42.1217236" lon="13.3308131"><ele>987.3333333333333</ele><time>2026-05-02T14:48:10.895Z</time></trkpt><trkpt lat="42.1218849" lon="13.3307908"><ele>990.0</ele><time>2026-05-02T14:48:11.878Z</time></trkpt><trkpt lat="42.122058" lon="13.330792"><ele>990.0</ele><time>2026-05-02T14:48:12.898Z</time></trkpt><trkpt lat="42.1222087" lon="13.3307848"><ele>990.0</ele><time>2026-05-02T14:48:13.898Z</time></trkpt><trkpt lat="42.1223485" lon="13.3307335"><ele>990.0</ele><time>2026-05-02T14:48:14.897Z</time></trkpt><trkpt lat="42.1224542" lon="13.3306678"><ele>990.0</ele><time>2026-05-02T14:48:15.9Z</time></trkpt><trkpt lat="42.1225531" lon="13.3305888"><ele>993.3333333333333</ele><time>2026-05-02T14:48:16.895Z</time></trkpt><trkpt lat="42.1226512" lon="13.3304792"><ele>996.6666666666666</ele><time>2026-05-02T14:48:17.891Z</time></trkpt><trkpt lat="42.1227754" lon="13.3303574"><ele>1000.0</ele><time>2026-05-02T14:48:18.901Z</time></trkpt><trkpt lat="42.122922" lon="13.3302265"><ele>1000.0</ele><time>2026-05-02T14:48:19.896Z</time></trkpt><trkpt lat="42.123095" lon="13.3300988"><ele>1000.0</ele><time>2026-05-02T14:48:20.889Z</time></trkpt><trkpt lat="42.1232758" lon="13.3299966"><ele>1000.0</ele><time>2026-05-02T14:48:21.887Z</time></trkpt><trkpt lat="42.1234612" lon="13.329924"><ele>1001.0</ele><time>2026-05-02T14:48:22.89Z</time></trkpt><trkpt lat="42.1236367" lon="13.3298616"><ele>1002.0</ele><time>2026-05-02T14:48:23.892Z</time></trkpt><trkpt lat="42.1238088" lon="13.3297854"><ele>1003.0</ele><time>2026-05-02T14:48:24.892Z</time></trkpt><trkpt lat="42.123976" lon="13.3296927"><ele>1007.6666666666666</ele><time>2026-05-02T14:48:25.906Z</time></trkpt><trkpt lat="42.1241102" lon="13.3295798"><ele>1012.3333333333333</ele><time>2026-05-02T14:48:26.896Z</time></trkpt><trkpt lat="42.1242354" lon="13.3294296"><ele>1017.0</ele><time>2026-05-02T14:48:27.894Z</time></trkpt><trkpt lat="42.1243411" lon="13.3292714"><ele>1017.0</ele><time>2026-05-02T14:48:28.889Z</time></trkpt><trkpt lat="42.124431" lon="13.3291627"><ele>1017.0</ele><time>2026-05-02T14:48:29.89Z</time></trkpt><trkpt lat="42.1245178" lon="13.3290841"><ele>1017.0</ele><time>2026-05-02T14:48:30.885Z</time></trkpt><trkpt lat="42.1246219" lon="13.3290299"><ele>1017.0</ele><time>2026-05-02T14:48:31.885Z</time></trkpt><trkpt lat="42.1247262" lon="13.3289984"><ele>1017.0</ele><time>2026-05-02T14:48:32.877Z</time></trkpt><trkpt lat="42.1248295" lon="13.3290118"><ele>1019.8</ele><time>2026-05-02T14:48:33.893Z</time></trkpt><trkpt lat="42.124937" lon="13.3290399"><ele>1022.6</ele><time>2026-05-02T14:48:34.893Z</time></trkpt><trkpt lat="42.1250393" lon="13.3290641"><ele>1025.3999999999999</ele><time>2026-05-02T14:48:35.905Z</time></trkpt><trkpt lat="42.1251302" lon="13.3290807"><ele>1028.2</ele><time>2026-05-02T14:48:36.902Z</time></trkpt><trkpt lat="42.125214" lon="13.3291188"><ele>1031.0</ele><time>2026-05-02T14:48:37.887Z</time></trkpt><trkpt lat="42.1253104" lon="13.3291643"><ele>1031.0</ele><time>2026-05-02T14:48:38.891Z</time></trkpt><trkpt lat="42.1254105" lon="13.3292106"><ele>1031.0</ele><time>2026-05-02T14:48:39.877Z</time></trkpt><trkpt lat="42.1255157" lon="13.3292841"><ele>1031.0</ele><time>2026-05-02T14:48:40.89Z</time></trkpt><trkpt lat="42.1256333" lon="13.3293732"><ele>1031.0</ele><time>2026-05-02T14:48:41.891Z</time></trkpt><trkpt lat="42.1257562" lon="13.3294677"><ele>1034.75</ele><time>2026-05-02T14:48:42.894Z</time></trkpt><trkpt lat="42.1258817" lon="13.3295542"><ele>1038.5</ele><time>2026-05-02T14:48:43.905Z</time></trkpt><trkpt lat="42.1259868" lon="13.329627"><ele>1042.25</ele><time>2026-05-02T14:48:44.887Z</time></trkpt><trkpt lat="42.1260937" lon="13.3296842"><ele>1046.0</ele><time>2026-05-02T14:48:45.888Z</time></trkpt><trkpt lat="42.1262113" lon="13.3297281"><ele>1046.0</ele><time>2026-05-02T14:48:46.892Z</time></trkpt><trkpt lat="42.1263399" lon="13.3297332"><ele>1046.0</ele><time>2026-05-02T14:48:47.894Z</time></trkpt><trkpt lat="42.1264637" lon="13.3297195"><ele>1046.0</ele><time>2026-05-02T14:48:48.873Z</time></trkpt><trkpt lat="42.1265913" lon="13.3297205"><ele>1046.0</ele><time>2026-05-02T14:48:49.884Z</time></trkpt><trkpt lat="42.1267098" lon="13.3297314"><ele>1050.5</ele><time>2026-05-02T14:48:50.894Z</time></trkpt><trkpt lat="42.1268388" lon="13.3297729"><ele>1055.0</ele><time>2026-05-02T14:48:51.888Z</time></trkpt><trkpt lat="42.1269719" lon="13.3298161"><ele>1059.5</ele><time>2026-05-02T14:48:52.887Z</time></trkpt><trkpt lat="42.1271122" lon="13.3298688"><ele>1064.0</ele><time>2026-05-02T14:48:53.894Z</time></trkpt><trkpt lat="42.1272549" lon="13.3299473"><ele>1064.0</ele><time>2026-05-02T14:48:54.884Z</time></trkpt><trkpt lat="42.1273878" lon="13.3300287"><ele>1064.0</ele><time>2026-05-02T14:48:55.892Z</time></trkpt><trkpt lat="42.1274897" lon="13.3300974"><ele>1064.0</ele><time>2026-05-02T14:48:56.889Z</time></trkpt><trkpt lat="42.1275826" lon="13.3301456"><ele>1064.0</ele><time>2026-05-02T14:48:57.899Z</time></trkpt><trkpt lat="42.1276719" lon="13.3301898"><ele>1066.0</ele><time>2026-05-02T14:48:58.893Z</time></trkpt><trkpt lat="42.127759" lon="13.3302132"><ele>1068.0</ele><time>2026-05-02T14:48:59.887Z</time></trkpt><trkpt lat="42.1278651" lon="13.3302196"><ele>1070.0</ele><time>2026-05-02T14:49:00.893Z</time></trkpt><trkpt lat="42.1279889" lon="13.3301975"><ele>1072.0</ele><time>2026-05-02T14:49:01.886Z</time></trkpt><trkpt lat="42.1281457" lon="13.330139"><ele>1070.6666666666665</ele><time>2026-05-02T14:49:02.903Z</time></trkpt><trkpt lat="42.1283158" lon="13.3300502"><ele>1069.3333333333333</ele><time>2026-05-02T14:49:03.876Z</time></trkpt><trkpt lat="42.1284999" lon="13.3299492"><ele>1068.0</ele><time>2026-05-02T14:49:04.895Z</time></trkpt><trkpt lat="42.1286958" lon="13.3298351"><ele>1069.3333333333333</ele><time>2026-05-02T14:49:05.884Z</time></trkpt><trkpt lat="42.1288874" lon="13.3297005"><ele>1070.6666666666665</ele><time>2026-05-02T14:49:06.888Z</time></trkpt><trkpt lat="42.1290681" lon="13.3295639"><ele>1072.0</ele><time>2026-05-02T14:49:07.881Z</time></trkpt><trkpt lat="42.1292274" lon="13.329433"><ele>1069.3333333333333</ele><time>2026-05-02T14:49:08.898Z</time></trkpt><trkpt lat="42.1293747" lon="13.329298"><ele>1066.6666666666667</ele><time>2026-05-02T14:49:09.888Z</time></trkpt><trkpt lat="42.1295183" lon="13.3291478"><ele>1064.0</ele><time>2026-05-02T14:49:10.904Z</time></trkpt><trkpt lat="42.1296518" lon="13.3289883"><ele>1063.3333333333335</ele><time>2026-05-02T14:49:11.879Z</time></trkpt><trkpt lat="42.1297784" lon="13.3288108"><ele>1062.6666666666667</ele><time>2026-05-02T14:49:12.884Z</time></trkpt><trkpt lat="42.1298949" lon="13.3286332"><ele>1062.0</ele><time>2026-05-02T14:49:13.889Z</time></trkpt><trkpt lat="42.1299931" lon="13.3284759"><ele>1062.0</ele><time>2026-05-02T14:49:14.9Z</time></trkpt><trkpt lat="42.1300781" lon="13.3283537"><ele>1062.0</ele><time>2026-05-02T14:49:15.89Z</time></trkpt><trkpt lat="42.1301651" lon="13.3282205"><ele>1062.0</ele><time>2026-05-02T14:49:16.9Z</time></trkpt><trkpt lat="42.1302445" lon="13.3280865"><ele>1062.0</ele><time>2026-05-02T14:49:17.892Z</time></trkpt><trkpt lat="42.1303134" lon="13.3279431"><ele>1062.5</ele><time>2026-05-02T14:49:18.893Z</time></trkpt><trkpt lat="42.1303647" lon="13.3278016"><ele>1063.0</ele><time>2026-05-02T14:49:19.9Z</time></trkpt><trkpt lat="42.1303926" lon="13.3276678"><ele>1063.5</ele><time>2026-05-02T14:49:20.888Z</time></trkpt><trkpt lat="42.1304047" lon="13.3275171"><ele>1064.0</ele><time>2026-05-02T14:49:21.9Z</time></trkpt><trkpt lat="42.130411" lon="13.327359"><ele>1065.5</ele><time>2026-05-02T14:49:22.887Z</time></trkpt><trkpt lat="42.1304124" lon="13.3271889"><ele>1067.0</ele><time>2026-05-02T14:49:23.892Z</time></trkpt><trkpt lat="42.1304182" lon="13.3269914"><ele>1068.5</ele><time>2026-05-02T14:49:24.897Z</time></trkpt><trkpt lat="42.1304446" lon="13.3267825"><ele>1070.0</ele><time>2026-05-02T14:49:25.89Z</time></trkpt><trkpt lat="42.1304846" lon="13.3265509"><ele>1072.0</ele><time>2026-05-02T14:49:26.892Z</time></trkpt><trkpt lat="42.1274897" lon="13.3300974"><ele>1072.0</ele><time>2026-05-02T14:48:56.889Z</time></trkpt><trkpt lat="42.1275826" lon="13.3301456"><ele>1072.0</ele><time>2026-05-02T14:48:57.899Z</time></trkpt><trkpt lat="42.1276719" lon="13.3301898"><ele>1072.0</ele><time>2026-05-02T14:48:58.893Z</time></trkpt><trkpt lat="42.127759" lon="13.3302132"><ele>1072.0</ele><time>2026-05-02T14:48:59.887Z</time></trkpt><trkpt lat="42.1278651" lon="13.3302196"><ele>1072.0</ele><time>2026-05-02T14:49:00.893Z</time></trkpt><trkpt lat="42.1279889" lon="13.3301975"><ele>1072.0</ele><time>2026-05-02T14:49:01.886Z</time></trkpt><trkpt lat="42.1281457" lon="13.330139"><ele>1072.0</ele><time>2026-05-02T14:49:02.903Z</time></trkpt><trkpt lat="42.1283158" lon="13.3300502"><ele>1072.0</ele><time>2026-05-02T14:49:03.876Z</time></trkpt><trkpt lat="42.1284999" lon="13.3299492"><ele>1072.0</ele><time>2026-05-02T14:49:04.895Z</time></trkpt><trkpt lat="42.1286958" lon="13.3298351"><ele>1072.0</ele><time>2026-05-02T14:49:05.884Z</time></trkpt><trkpt lat="42.1288874" lon="13.3297005"><ele>1072.0</ele><time>2026-05-02T14:49:06.888Z</time></trkpt><trkpt lat="42.1290681" lon="13.3295639"><ele>1069.3333333333333</ele><time>2026-05-02T14:49:07.881Z</time></trkpt><trkpt lat="42.1292274" lon="13.329433"><ele>1066.6666666666667</ele><time>2026-05-02T14:49:08.898Z</time></trkpt><trkpt lat="42.1293747" lon="13.329298"><ele>1064.0</ele><time>2026-05-02T14:49:09.888Z</time></trkpt><trkpt lat="42.1295183" lon="13.3291478"><ele>1064.0</ele><time>2026-05-02T14:49:10.904Z</time></trkpt><trkpt lat="42.1296518" lon="13.3289883"><ele>1064.0</ele><time>2026-05-02T14:49:11.879Z</time></trkpt><trkpt lat="42.1297784" lon="13.3288108"><ele>1064.0</ele><time>2026-05-02T14:49:12.884Z</time></trkpt><trkpt lat="42.1298949" lon="13.3286332"><ele>1063.5</ele><time>2026-05-02T14:49:13.889Z</time></trkpt><trkpt lat="42.1299931" lon="13.3284759"><ele>1063.0</ele><time>2026-05-02T14:49:14.9Z</time></trkpt><trkpt lat="42.1300781" lon="13.3283537"><ele>1062.5</ele><time>2026-05-02T14:49:15.89Z</time></trkpt><trkpt lat="42.1301651" lon="13.3282205"><ele>1062.0</ele><time>2026-05-02T14:49:16.9Z</time></trkpt><trkpt lat="42.1302445" lon="13.3280865"><ele>1062.5</ele><time>2026-05-02T14:49:17.892Z</time></trkpt><trkpt lat="42.1303134" lon="13.3279431"><ele>1063.0</ele><time>2026-05-02T14:49:18.893Z</time></trkpt><trkpt lat="42.1303647" lon="13.3278016"><ele>1063.5</ele><time>2026-05-02T14:49:19.9Z</time></trkpt><trkpt lat="42.1303926" lon="13.3276678"><ele>1064.0</ele><time>2026-05-02T14:49:20.888Z</time></trkpt><trkpt lat="42.1304047" lon="13.3275171"><ele>1064.0</ele><time>2026-05-02T14:49:21.9Z</time></trkpt><trkpt lat="42.130411" lon="13.327359"><ele>1064.0</ele><time>2026-05-02T14:49:22.887Z</time></trkpt><trkpt lat="42.1304124" lon="13.3271889"><ele>1064.0</ele><time>2026-05-02T14:49:23.892Z</time></trkpt><trkpt lat="42.1304182" lon="13.3269914"><ele>1064.0</ele><time>2026-05-02T14:49:24.897Z</time></trkpt><trkpt lat="42.1304446" lon="13.3267825"><ele>1066.0</ele><time>2026-05-02T14:49:25.89Z</time></trkpt><trkpt lat="42.1304846" lon="13.3265509"><ele>1068.0</ele><time>2026-05-02T14:49:26.892Z</time></trkpt><trkpt lat="42.1305162" lon="13.3263184"><ele>1070.0</ele><time>2026-05-02T14:49:27.896Z</time></trkpt><trkpt lat="42.1305315" lon="13.3260786"><ele>1072.25</ele><time>2026-05-02T14:49:28.89Z</time></trkpt><trkpt lat="42.1305446" lon="13.3258659"><ele>1074.5</ele><time>2026-05-02T14:49:29.888Z</time></trkpt><trkpt lat="42.1305471" lon="13.3256745"><ele>1076.75</ele><time>2026-05-02T14:49:30.893Z</time></trkpt><trkpt lat="42.1305543" lon="13.3254965"><ele>1079.0</ele><time>2026-05-02T14:49:31.88Z</time></trkpt><trkpt lat="42.1305694" lon="13.3253554"><ele>1080.0</ele><time>2026-05-02T14:49:32.89Z</time></trkpt><trkpt lat="42.130578" lon="13.3252572"><ele>1081.0</ele><time>2026-05-02T14:49:33.882Z</time></trkpt><trkpt lat="42.1305661" lon="13.3251327"><ele>1082.0</ele><time>2026-05-02T14:49:34.905Z</time></trkpt><trkpt lat="42.1305383" lon="13.3249626"><ele>1083.0</ele><time>2026-05-02T14:49:35.889Z</time></trkpt><trkpt lat="42.1305047" lon="13.3247914"><ele>1084.0</ele><time>2026-05-02T14:49:36.88Z</time></trkpt><trkpt lat="42.1304998" lon="13.3246683"><ele>1084.0</ele><time>2026-05-02T14:49:37.888Z</time></trkpt><trkpt lat="42.1305446" lon="13.3245298"><ele>1084.0</ele><time>2026-05-02T14:49:39.889Z</time></trkpt><trkpt lat="42.1306436" lon="13.3244075"><ele>1084.0</ele><time>2026-05-02T14:49:41.887Z</time></trkpt><trkpt lat="42.1306993" lon="13.3243475"><ele>1084.0</ele><time>2026-05-02T14:49:42.882Z</time></trkpt><trkpt lat="42.1307299" lon="13.3241852"><ele>1084.0</ele><time>2026-05-02T14:49:44.886Z</time></trkpt><trkpt lat="42.1307339" lon="13.324055"><ele>1084.0</ele><time>2026-05-02T14:49:45.882Z</time></trkpt><trkpt lat="42.1307183" lon="13.3239225"><ele>1084.0</ele><time>2026-05-02T14:49:46.896Z</time></trkpt><trkpt lat="42.1307024" lon="13.3238012"><ele>1084.0</ele><time>2026-05-02T14:49:47.891Z</time></trkpt><trkpt lat="42.1307126" lon="13.32366"><ele>1084.0</ele><time>2026-05-02T14:49:48.899Z</time></trkpt><trkpt lat="42.1307297" lon="13.3234953"><ele>1084.0</ele><time>2026-05-02T14:49:49.897Z</time></trkpt><trkpt lat="42.1307668" lon="13.3233042"><ele>1082.25</ele><time>2026-05-02T14:49:50.892Z</time></trkpt><trkpt lat="42.1308045" lon="13.3231098"><ele>1080.5</ele><time>2026-05-02T14:49:51.887Z</time></trkpt><trkpt lat="42.1308428" lon="13.3229184"><ele>1078.75</ele><time>2026-05-02T14:49:52.893Z</time></trkpt><trkpt lat="42.1308845" lon="13.3227338"><ele>1077.0</ele><time>2026-05-02T14:49:53.888Z</time></trkpt><trkpt lat="42.1309267" lon="13.3225739"><ele>1077.0</ele><time>2026-05-02T14:49:54.906Z</time></trkpt><trkpt lat="42.1309553" lon="13.3224301"><ele>1077.0</ele><time>2026-05-02T14:49:55.89Z</time></trkpt><trkpt lat="42.1309631" lon="13.3222909"><ele>1077.0</ele><time>2026-05-02T14:49:56.883Z</time></trkpt><trkpt lat="42.1309558" lon="13.3221253"><ele>1077.0</ele><time>2026-05-02T14:49:57.89Z</time></trkpt><trkpt lat="42.1309294" lon="13.3219117"><ele>1077.0</ele><time>2026-05-02T14:49:58.892Z</time></trkpt><trkpt lat="42.1309092" lon="13.3216874"><ele>1077.0</ele><time>2026-05-02T14:49:59.887Z</time></trkpt><trkpt lat="42.1309045" lon="13.3214589"><ele>1077.0</ele><time>2026-05-02T14:50:00.882Z</time></trkpt><trkpt lat="42.1308909" lon="13.3212177"><ele>1076.3333333333333</ele><time>2026-05-02T14:50:01.889Z</time></trkpt><trkpt lat="42.1308809" lon="13.3209685"><ele>1075.6666666666665</ele><time>2026-05-02T14:50:02.891Z</time></trkpt><trkpt lat="42.1308672" lon="13.3207357"><ele>1075.0</ele><time>2026-05-02T14:50:03.887Z</time></trkpt><trkpt lat="42.1308582" lon="13.3205468"><ele>1075.0</ele><time>2026-05-02T14:50:04.887Z</time></trkpt><trkpt lat="42.1308522" lon="13.3204064"><ele>1075.0</ele><time>2026-05-02T14:50:05.888Z</time></trkpt><trkpt lat="42.130868" lon="13.320291"><ele>1075.0</ele><time>2026-05-02T14:50:06.879Z</time></trkpt><trkpt lat="42.1309155" lon="13.3202111"><ele>1075.0</ele><time>2026-05-02T14:50:07.892Z</time></trkpt><trkpt lat="42.1309636" lon="13.3201364"><ele>1075.0</ele><time>2026-05-02T14:50:08.876Z</time></trkpt><trkpt lat="42.1309784" lon="13.3200316"><ele>1075.0</ele><time>2026-05-02T14:50:10.897Z</time></trkpt><trkpt lat="42.1309363" lon="13.3199221"><ele>1075.0</ele><time>2026-05-02T14:50:12.89Z</time></trkpt><trkpt lat="42.1309492" lon="13.319777"><ele>1075.0</ele><time>2026-05-02T14:50:14.894Z</time></trkpt><trkpt lat="42.1309804" lon="13.3196867"><ele>1075.0</ele><time>2026-05-02T14:50:15.883Z</time></trkpt><trkpt lat="42.1310154" lon="13.3196025"><ele>1075.0</ele><time>2026-05-02T14:50:16.878Z</time></trkpt><trkpt lat="42.1310457" lon="13.319522"><ele>1075.0</ele><time>2026-05-02T14:50:17.894Z</time></trkpt><trkpt lat="42.1310911" lon="13.3194391"><ele>1075.0</ele><time>2026-05-02T14:50:18.887Z</time></trkpt><trkpt lat="42.1311494" lon="13.3193543"><ele>1075.5</ele><time>2026-05-02T14:50:19.894Z</time></trkpt><trkpt lat="42.1312135" lon="13.3192597"><ele>1076.0</ele><time>2026-05-02T14:50:20.881Z</time></trkpt><trkpt lat="42.1312763" lon="13.3191231"><ele>1076.5</ele><time>2026-05-02T14:50:21.89Z</time></trkpt><trkpt lat="42.1313379" lon="13.3189565"><ele>1077.0</ele><time>2026-05-02T14:50:22.885Z</time></trkpt><trkpt lat="42.1313855" lon="13.3187753"><ele>1075.8</ele><time>2026-05-02T14:50:23.891Z</time></trkpt><trkpt lat="42.1314231" lon="13.3186161"><ele>1074.6</ele><time>2026-05-02T14:50:24.883Z</time></trkpt><trkpt lat="42.131464" lon="13.3184846"><ele>1073.3999999999999</ele><time>2026-05-02T14:50:25.88Z</time></trkpt><trkpt lat="42.1315116" lon="13.3183924"><ele>1072.2</ele><time>2026-05-02T14:50:26.889Z</time></trkpt><trkpt lat="42.1315718" lon="13.3183054"><ele>1071.0</ele><time>2026-05-02T14:50:27.885Z</time></trkpt><trkpt lat="42.1316585" lon="13.3182318"><ele>1069.2</ele><time>2026-05-02T14:50:28.886Z</time></trkpt><trkpt lat="42.1317544" lon="13.3181311"><ele>1067.3999999999999</ele><time>2026-05-02T14:50:29.889Z</time></trkpt><trkpt lat="42.1318468" lon="13.3180123"><ele>1065.6</ele><time>2026-05-02T14:50:30.886Z</time></trkpt><trkpt lat="42.1318966" lon="13.3178998"><ele>1063.8</ele><time>2026-05-02T14:50:31.899Z</time></trkpt><trkpt lat="42.1319126" lon="13.3177827"><ele>1062.0</ele><time>2026-05-02T14:50:32.904Z</time></trkpt><trkpt lat="42.1319203" lon="13.3176618"><ele>1060.8</ele><time>2026-05-02T14:50:33.889Z</time></trkpt><trkpt lat="42.1319529" lon="13.3175582"><ele>1059.6</ele><time>2026-05-02T14:50:34.893Z</time></trkpt><trkpt lat="42.1320094" lon="13.3174348"><ele>1058.3999999999999</ele><time>2026-05-02T14:50:35.903Z</time></trkpt><trkpt lat="42.1320814" lon="13.3173006"><ele>1057.2</ele><time>2026-05-02T14:50:36.902Z</time></trkpt><trkpt lat="42.132174" lon="13.3171708"><ele>1056.0</ele><time>2026-05-02T14:50:37.901Z</time></trkpt><trkpt lat="42.1322801" lon="13.3170278"><ele>1055.5</ele><time>2026-05-02T14:50:38.884Z</time></trkpt><trkpt lat="42.1323839" lon="13.3168856"><ele>1055.0</ele><time>2026-05-02T14:50:39.891Z</time></trkpt><trkpt lat="42.1324811" lon="13.3167689"><ele>1054.5</ele><time>2026-05-02T14:50:40.895Z</time></trkpt><trkpt lat="42.1325823" lon="13.3166439"><ele>1054.0</ele><time>2026-05-02T14:50:41.89Z</time></trkpt><trkpt lat="42.1326884" lon="13.3164773"><ele>1053.0</ele><time>2026-05-02T14:50:42.892Z</time></trkpt><trkpt lat="42.1328124" lon="13.3163017"><ele>1052.0</ele><time>2026-05-02T14:50:43.892Z</time></trkpt><trkpt lat="42.13291" lon="13.3161632"><ele>1051.0</ele><time>2026-05-02T14:50:44.897Z</time></trkpt><trkpt lat="42.1329682" lon="13.3160503"><ele>1050.0</ele><time>2026-05-02T14:50:45.884Z</time></trkpt><trkpt lat="42.133016" lon="13.3159758"><ele>1050.0</ele><time>2026-05-02T14:50:46.893Z</time></trkpt><trkpt lat="42.1330542" lon="13.3158599"><ele>1050.0</ele><time>2026-05-02T14:50:48.885Z</time></trkpt><trkpt lat="42.1330603" lon="13.3157417"><ele>1050.0</ele><time>2026-05-02T14:50:50.897Z</time></trkpt><trkpt lat="42.1330546" lon="13.3156409"><ele>1050.0</ele><time>2026-05-02T14:50:52.889Z</time></trkpt><trkpt lat="42.1330108" lon="13.3155504"><ele>1050.0</ele><time>2026-05-02T14:50:55.881Z</time></trkpt><trkpt lat="42.1329278" lon="13.3155329"><ele>1050.0</ele><time>2026-05-02T14:50:57.883Z</time></trkpt><trkpt lat="42.1328117" lon="13.3154871"><ele>1049.6666666666667</ele><time>2026-05-02T14:50:59.892Z</time></trkpt><trkpt lat="42.1327426" lon="13.3154269"><ele>1049.3333333333333</ele><time>2026-05-02T14:51:00.883Z</time></trkpt><trkpt lat="42.1326769" lon="13.3153413"><ele>1049.0</ele><time>2026-05-02T14:51:01.887Z</time></trkpt><trkpt lat="42.132625" lon="13.3152507"><ele>1048.6666666666665</ele><time>2026-05-02T14:51:02.881Z</time></trkpt><trkpt lat="42.1325858" lon="13.3151563"><ele>1048.3333333333333</ele><time>2026-05-02T14:51:03.887Z</time></trkpt><trkpt lat="42.1325479" lon="13.3150436"><ele>1048.0</ele><time>2026-05-02T14:51:04.894Z</time></trkpt><trkpt lat="42.1325082" lon="13.3148984"><ele>1048.0</ele><time>2026-05-02T14:51:05.89Z</time></trkpt><trkpt lat="42.1324554" lon="13.314738"><ele>1048.0</ele><time>2026-05-02T14:51:06.896Z</time></trkpt><trkpt lat="42.1324013" lon="13.3146058"><ele>1048.0</ele><time>2026-05-02T14:51:07.879Z</time></trkpt><trkpt lat="42.132329" lon="13.3144907"><ele>1048.0</ele><time>2026-05-02T14:51:08.896Z</time></trkpt><trkpt lat="42.1322271" lon="13.3143614"><ele>1048.3333333333333</ele><time>2026-05-02T14:51:09.892Z</time></trkpt><trkpt lat="42.1320965" lon="13.3142182"><ele>1048.6666666666667</ele><time>2026-05-02T14:51:10.897Z</time></trkpt><trkpt lat="42.1319679" lon="13.3140725"><ele>1049.0</ele><time>2026-05-02T14:51:11.891Z</time></trkpt><trkpt lat="42.1318809" lon="13.3139525"><ele>1049.5</ele><time>2026-05-02T14:51:12.884Z</time></trkpt><trkpt lat="42.1318306" lon="13.3138437"><ele>1050.0</ele><time>2026-05-02T14:51:13.902Z</time></trkpt><trkpt lat="42.1318081" lon="13.3137335"><ele>1050.5</ele><time>2026-05-02T14:51:14.893Z</time></trkpt><trkpt lat="42.131809" lon="13.3136118"><ele>1051.0</ele><time>2026-05-02T14:51:15.884Z</time></trkpt><trkpt lat="42.131811" lon="13.3134941"><ele>1051.5</ele><time>2026-05-02T14:51:16.888Z</time></trkpt><trkpt lat="42.1318136" lon="13.3133721"><ele>1052.0</ele><time>2026-05-02T14:51:17.905Z</time></trkpt><trkpt lat="42.131812" lon="13.313247"><ele>1052.0</ele><time>2026-05-02T14:51:18.901Z</time></trkpt><trkpt lat="42.1318131" lon="13.3131284"><ele>1052.0</ele><time>2026-05-02T14:51:19.886Z</time></trkpt><trkpt lat="42.1318093" lon="13.3130138"><ele>1052.0</ele><time>2026-05-02T14:51:20.898Z</time></trkpt><trkpt lat="42.1318103" lon="13.3128971"><ele>1052.0</ele><time>2026-05-02T14:51:21.884Z</time></trkpt><trkpt lat="42.1318368" lon="13.3127808"><ele>1052.0</ele><time>2026-05-02T14:51:22.903Z</time></trkpt><trkpt lat="42.1318713" lon="13.3126558"><ele>1052.0</ele><time>2026-05-02T14:51:23.89Z</time></trkpt><trkpt lat="42.1319183" lon="13.3125642"><ele>1052.5</ele><time>2026-05-02T14:51:24.885Z</time></trkpt><trkpt lat="42.1319856" lon="13.3124796"><ele>1053.0</ele><time>2026-05-02T14:51:25.879Z</time></trkpt><trkpt lat="42.1320648" lon="13.3123786"><ele>1053.5</ele><time>2026-05-02T14:51:26.891Z</time></trkpt><trkpt lat="42.1321293" lon="13.3122907"><ele>1054.0</ele><time>2026-05-02T14:51:27.898Z</time></trkpt><trkpt lat="42.1321719" lon="13.3122136"><ele>1054.5</ele><time>2026-05-02T14:51:28.886Z</time></trkpt><trkpt lat="42.1321962" lon="13.3121281"><ele>1055.0</ele><time>2026-05-02T14:51:29.902Z</time></trkpt><trkpt lat="42.1322289" lon="13.3120499"><ele>1056.6666666666667</ele><time>2026-05-02T14:51:30.887Z</time></trkpt><trkpt lat="42.13228" lon="13.3119979"><ele>1058.3333333333335</ele><time>2026-05-02T14:51:31.892Z</time></trkpt><trkpt lat="42.1323339" lon="13.311948"><ele>1060.0</ele><time>2026-05-02T14:51:32.881Z</time></trkpt><trkpt lat="42.1323778" lon="13.311873"><ele>1061.6666666666667</ele><time>2026-05-02T14:51:33.888Z</time></trkpt><trkpt lat="42.1324289" lon="13.3118012"><ele>1063.3333333333333</ele><time>2026-05-02T14:51:34.893Z</time></trkpt><trkpt lat="42.1325001" lon="13.3117338"><ele>1065.0</ele><time>2026-05-02T14:51:35.893Z</time></trkpt><trkpt lat="42.1325954" lon="13.311677"><ele>1062.3333333333333</ele><time>2026-05-02T14:51:36.891Z</time></trkpt><trkpt lat="42.1326838" lon="13.3116285"><ele>1059.6666666666667</ele><time>2026-05-02T14:51:37.887Z</time></trkpt><trkpt lat="42.1327545" lon="13.3115593"><ele>1057.0</ele><time>2026-05-02T14:51:38.878Z</time></trkpt><trkpt lat="42.1328127" lon="13.3114738"><ele>1054.3333333333335</ele><time>2026-05-02T14:51:39.881Z</time></trkpt><trkpt lat="42.1328574" lon="13.3113788"><ele>1051.6666666666667</ele><time>2026-05-02T14:51:40.889Z</time></trkpt><trkpt lat="42.1329041" lon="13.3113066"><ele>1049.0</ele><time>2026-05-02T14:51:41.892Z</time></trkpt><trkpt lat="42.1329706" lon="13.3112602"><ele>1049.0</ele><time>2026-05-02T14:51:42.89Z</time></trkpt><trkpt lat="42.1330675" lon="13.3112151"><ele>1049.0</ele><time>2026-05-02T14:51:43.878Z</time></trkpt><trkpt lat="42.1331662" lon="13.3111736"><ele>1049.0</ele><time>2026-05-02T14:51:44.885Z</time></trkpt><trkpt lat="42.1332362" lon="13.3111211"><ele>1049.0</ele><time>2026-05-02T14:51:45.879Z</time></trkpt><trkpt lat="42.1332771" lon="13.310973"><ele>1049.0</ele><time>2026-05-02T14:51:47.893Z</time></trkpt><trkpt lat="42.1332981" lon="13.3107944"><ele>1047.3333333333335</ele><time>2026-05-02T14:51:49.881Z</time></trkpt><trkpt lat="42.1333444" lon="13.3107035"><ele>1045.6666666666667</ele><time>2026-05-02T14:51:50.88Z</time></trkpt><trkpt lat="42.1334304" lon="13.3106264"><ele>1044.0</ele><time>2026-05-02T14:51:51.877Z</time></trkpt><trkpt lat="42.1335084" lon="13.3105332"><ele>1042.3333333333333</ele><time>2026-05-02T14:51:52.884Z</time></trkpt><trkpt lat="42.133557" lon="13.3104665"><ele>1040.6666666666665</ele><time>2026-05-02T14:51:53.878Z</time></trkpt><trkpt lat="42.1336" lon="13.3103771"><ele>1039.0</ele><time>2026-05-02T14:52:22.888Z</time></trkpt><trkpt lat="42.1336512" lon="13.3102663"><ele>1039.0</ele><time>2026-05-02T14:52:24.891Z</time></trkpt><trkpt lat="42.1337146" lon="13.3101363"><ele>1039.0</ele><time>2026-05-02T14:52:26.893Z</time></trkpt><trkpt lat="42.1337942" lon="13.310052"><ele>1039.0</ele><time>2026-05-02T14:52:28.881Z</time></trkpt><trkpt lat="42.1338562" lon="13.3100236"><ele>1039.0</ele><time>2026-05-02T14:52:29.895Z</time></trkpt><trkpt lat="42.1339295" lon="13.3099935"><ele>1039.0</ele><time>2026-05-02T14:52:30.881Z</time></trkpt><trkpt lat="42.1339844" lon="13.3099461"><ele>1039.0</ele><time>2026-05-02T14:52:31.894Z</time></trkpt><trkpt lat="42.1340337" lon="13.3098933"><ele>1036.0</ele><time>2026-05-02T14:52:32.885Z</time></trkpt><trkpt lat="42.1340784" lon="13.3098138"><ele>1033.0</ele><time>2026-05-02T14:52:33.885Z</time></trkpt><trkpt lat="42.1341227" lon="13.3097261"><ele>1030.0</ele><time>2026-05-02T14:52:34.866Z</time></trkpt><trkpt lat="42.1341498" lon="13.3096073"><ele>1027.0</ele><time>2026-05-02T14:52:36.883Z</time></trkpt><trkpt lat="42.1341655" lon="13.309464"><ele>1023.9999999999999</ele><time>2026-05-02T14:52:38.875Z</time></trkpt><trkpt lat="42.1341902" lon="13.3093853"><ele>1021.0</ele><time>2026-05-02T14:52:39.887Z</time></trkpt><trkpt lat="42.1342282" lon="13.3093003"><ele>1020.1999999999999</ele><time>2026-05-02T14:52:40.882Z</time></trkpt><trkpt lat="42.1342724" lon="13.3091999"><ele>1019.3999999999999</ele><time>2026-05-02T14:52:41.897Z</time></trkpt><trkpt lat="42.1343351" lon="13.3090997"><ele>1018.6</ele><time>2026-05-02T14:52:42.888Z</time></trkpt><trkpt lat="42.1343996" lon="13.3090103"><ele>1017.8</ele><time>2026-05-02T14:52:43.881Z</time></trkpt><trkpt lat="42.1344814" lon="13.3089265"><ele>1017.0</ele><time>2026-05-02T14:52:44.88Z</time></trkpt><trkpt lat="42.1345684" lon="13.3088415"><ele>1017.0</ele><time>2026-05-02T14:52:45.878Z</time></trkpt><trkpt lat="42.1346386" lon="13.3087626"><ele>1017.0</ele><time>2026-05-02T14:52:46.889Z</time></trkpt><trkpt lat="42.1346831" lon="13.3086766"><ele>1017.0</ele><time>2026-05-02T14:52:47.881Z</time></trkpt><trkpt lat="42.1346761" lon="13.3085431"><ele>1017.0</ele><time>2026-05-02T14:52:49.882Z</time></trkpt><trkpt lat="42.1346711" lon="13.3084456"><ele>1017.0</ele><time>2026-05-02T14:52:50.887Z</time></trkpt><trkpt lat="42.1346709" lon="13.3082938"><ele>1017.0</ele><time>2026-05-02T14:52:51.886Z</time></trkpt><trkpt lat="42.1346804" lon="13.3081368"><ele>1017.0</ele><time>2026-05-02T14:52:52.893Z</time></trkpt><trkpt lat="42.1346925" lon="13.3079799"><ele>1017.0</ele><time>2026-05-02T14:52:53.875Z</time></trkpt><trkpt lat="42.1347083" lon="13.3078434"><ele>1017.0</ele><time>2026-05-02T14:52:54.877Z</time></trkpt><trkpt lat="42.1347376" lon="13.3077374"><ele>1017.0</ele><time>2026-05-02T14:52:55.872Z</time></trkpt><trkpt lat="42.1347876" lon="13.3076597"><ele>1015.3333333333334</ele><time>2026-05-02T14:52:56.897Z</time></trkpt><trkpt lat="42.134835" lon="13.3076028"><ele>1013.6666666666667</ele><time>2026-05-02T14:52:57.876Z</time></trkpt><trkpt lat="42.1348624" lon="13.3075258"><ele>1012.0</ele><time>2026-05-02T14:52:58.89Z</time></trkpt><trkpt lat="42.1348486" lon="13.3074331"><ele>1010.3333333333334</ele><time>2026-05-02T14:52:59.882Z</time></trkpt><trkpt lat="42.1347964" lon="13.3073316"><ele>1008.6666666666667</ele><time>2026-05-02T14:53:00.879Z</time></trkpt><trkpt lat="42.134722" lon="13.3072051"><ele>1007.0</ele><time>2026-05-02T14:53:01.87Z</time></trkpt><trkpt lat="42.1346573" lon="13.3070904"><ele>1004.5000000000001</ele><time>2026-05-02T14:53:02.884Z</time></trkpt><trkpt lat="42.1346019" lon="13.307003"><ele>1002.0</ele><time>2026-05-02T14:53:03.88Z</time></trkpt><trkpt lat="42.1345673" lon="13.3069151"><ele>999.5</ele><time>2026-05-02T14:53:04.883Z</time></trkpt><trkpt lat="42.1345538" lon="13.3068288"><ele>997.0</ele><time>2026-05-02T14:53:05.893Z</time></trkpt><trkpt lat="42.1345413" lon="13.3066899"><ele>994.5000000000001</ele><time>2026-05-02T14:53:06.885Z</time></trkpt><trkpt lat="42.1345343" lon="13.3065297"><ele>992.0</ele><time>2026-05-02T14:53:07.881Z</time></trkpt><trkpt lat="42.1345342" lon="13.3063979"><ele>989.4000000000001</ele><time>2026-05-02T14:53:08.889Z</time></trkpt><trkpt lat="42.1345384" lon="13.3062709"><ele>986.8000000000001</ele><time>2026-05-02T14:53:09.898Z</time></trkpt><trkpt lat="42.1345173" lon="13.306177"><ele>984.2</ele><time>2026-05-02T14:53:10.883Z</time></trkpt><trkpt lat="42.1344475" lon="13.3060833"><ele>981.6</ele><time>2026-05-02T14:53:12.889Z</time></trkpt><trkpt lat="42.1344064" lon="13.3059432"><ele>979.0</ele><time>2026-05-02T14:53:14.888Z</time></trkpt><trkpt lat="42.134406" lon="13.3058188"><ele>979.0</ele><time>2026-05-02T14:53:15.878Z</time></trkpt><trkpt lat="42.1343889" lon="13.3056621"><ele>979.0</ele><time>2026-05-02T14:53:16.882Z</time></trkpt><trkpt lat="42.1343691" lon="13.3054921"><ele>979.0</ele><time>2026-05-02T14:53:17.879Z</time></trkpt><trkpt lat="42.1343498" lon="13.3053168"><ele>979.0</ele><time>2026-05-02T14:53:18.876Z</time></trkpt><trkpt lat="42.1343221" lon="13.3051428"><ele>977.2</ele><time>2026-05-02T14:53:19.889Z</time></trkpt><trkpt lat="42.134296" lon="13.3049838"><ele>975.4000000000001</ele><time>2026-05-02T14:53:20.879Z</time></trkpt><trkpt lat="42.1342696" lon="13.3048506"><ele>973.6</ele><time>2026-05-02T14:53:21.888Z</time></trkpt><trkpt lat="42.1342421" lon="13.304739"><ele>971.8</ele><time>2026-05-02T14:53:22.881Z</time></trkpt><trkpt lat="42.1342253" lon="13.3046334"><ele>970.0</ele><time>2026-05-02T14:53:23.89Z</time></trkpt><trkpt lat="42.134216" lon="13.3045093"><ele>968.4</ele><time>2026-05-02T14:53:24.888Z</time></trkpt><trkpt lat="42.1342087" lon="13.3043648"><ele>966.8</ele><time>2026-05-02T14:53:25.882Z</time></trkpt><trkpt lat="42.1341945" lon="13.3042247"><ele>965.2</ele><time>2026-05-02T14:53:26.882Z</time></trkpt><trkpt lat="42.1341802" lon="13.3040813"><ele>963.6</ele><time>2026-05-02T14:53:27.88Z</time></trkpt><trkpt lat="42.1341609" lon="13.3039161"><ele>962.0</ele><time>2026-05-02T14:53:28.904Z</time></trkpt><trkpt lat="42.1341364" lon="13.3037347"><ele>961.6</ele><time>2026-05-02T14:53:29.877Z</time></trkpt><trkpt lat="42.1341266" lon="13.3035829"><ele>961.2</ele><time>2026-05-02T14:53:30.873Z</time></trkpt><trkpt lat="42.1341383" lon="13.303462"><ele>960.8</ele><time>2026-05-02T14:53:31.898Z</time></trkpt><trkpt lat="42.1341765" lon="13.3033422"><ele>960.4</ele><time>2026-05-02T14:53:32.884Z</time></trkpt><trkpt lat="42.1342263" lon="13.3031936"><ele>960.0</ele><time>2026-05-02T14:53:33.902Z</time></trkpt><trkpt lat="42.1342917" lon="13.3030318"><ele>961.25</ele><time>2026-05-02T14:53:34.89Z</time></trkpt><trkpt lat="42.1343532" lon="13.3029092"><ele>962.5</ele><time>2026-05-02T14:53:35.89Z</time></trkpt><trkpt lat="42.1344173" lon="13.3027884"><ele>963.75</ele><time>2026-05-02T14:53:36.899Z</time></trkpt><trkpt lat="42.1344746" lon="13.3026512"><ele>965.0</ele><time>2026-05-02T14:53:37.876Z</time></trkpt><trkpt lat="42.1345181" lon="13.3025015"><ele>965.0</ele><time>2026-05-02T14:53:38.895Z</time></trkpt><trkpt lat="42.1345539" lon="13.3023765"><ele>965.0</ele><time>2026-05-02T14:53:39.885Z</time></trkpt><trkpt lat="42.1345632" lon="13.3022779"><ele>965.0</ele><time>2026-05-02T14:53:40.881Z</time></trkpt><trkpt lat="42.1345442" lon="13.3021664"><ele>965.0</ele><time>2026-05-02T14:53:42.888Z</time></trkpt><trkpt lat="42.13462" lon="13.3020659"><ele>965.0</ele><time>2026-05-02T14:53:44.879Z</time></trkpt><trkpt lat="42.1346761" lon="13.3019709"><ele>966.2</ele><time>2026-05-02T14:53:45.883Z</time></trkpt><trkpt lat="42.1347122" lon="13.3018893"><ele>967.4</ele><time>2026-05-02T14:53:46.889Z</time></trkpt><trkpt lat="42.1347456" lon="13.3017674"><ele>968.5999999999999</ele><time>2026-05-02T14:53:47.885Z</time></trkpt><trkpt lat="42.1347824" lon="13.301647"><ele>969.8</ele><time>2026-05-02T14:53:48.881Z</time></trkpt><trkpt lat="42.1348428" lon="13.3015474"><ele>971.0</ele><time>2026-05-02T14:53:49.881Z</time></trkpt><trkpt lat="42.1349339" lon="13.3014549"><ele>962.3333333333334</ele><time>2026-05-02T14:53:50.883Z</time></trkpt><trkpt lat="42.1350507" lon="13.30133"><ele>953.6666666666667</ele><time>2026-05-02T14:53:51.873Z</time></trkpt><trkpt lat="42.1351672" lon="13.3011792"><ele>945.0</ele><time>2026-05-02T14:53:52.884Z</time></trkpt><trkpt lat="42.1352735" lon="13.301047"><ele>945.0</ele><time>2026-05-02T14:53:53.88Z</time></trkpt><trkpt lat="42.1353497" lon="13.3009523"><ele>945.0</ele><time>2026-05-02T14:53:54.875Z</time></trkpt><trkpt lat="42.1354127" lon="13.3009181"><ele>945.0</ele><time>2026-05-02T14:53:55.884Z</time></trkpt><trkpt lat="42.1355035" lon="13.3008843"><ele>945.0</ele><time>2026-05-02T14:53:56.885Z</time></trkpt><trkpt lat="42.1355793" lon="13.3008549"><ele>945.0</ele><time>2026-05-02T14:53:57.884Z</time></trkpt><trkpt lat="42.135638" lon="13.3008085"><ele>945.0</ele><time>2026-05-02T14:53:58.879Z</time></trkpt><trkpt lat="42.1356824" lon="13.3007218"><ele>944.8</ele><time>2026-05-02T14:53:59.872Z</time></trkpt><trkpt lat="42.1357795" lon="13.3006707"><ele>944.6</ele><time>2026-05-02T14:54:01.888Z</time></trkpt><trkpt lat="42.1358768" lon="13.3006732"><ele>944.4000000000001</ele><time>2026-05-02T14:54:02.886Z</time></trkpt><trkpt lat="42.135985" lon="13.3006521"><ele>944.2</ele><time>2026-05-02T14:54:03.872Z</time></trkpt><trkpt lat="42.1360937" lon="13.3006063"><ele>944.0</ele><time>2026-05-02T14:54:04.881Z</time></trkpt><trkpt lat="42.136192" lon="13.3005353"><ele>942.0000000000001</ele><time>2026-05-02T14:54:05.87Z</time></trkpt><trkpt lat="42.1362645" lon="13.3004516"><ele>940.0</ele><time>2026-05-02T14:54:06.883Z</time></trkpt><trkpt lat="42.1363217" lon="13.3003894"><ele>938.0</ele><time>2026-05-02T14:54:07.883Z</time></trkpt><trkpt lat="42.1363614" lon="13.3003086"><ele>936.0</ele><time>2026-05-02T14:54:08.874Z</time></trkpt><trkpt lat="42.1364058" lon="13.3002172"><ele>934.0000000000001</ele><time>2026-05-02T14:54:09.867Z</time></trkpt><trkpt lat="42.1364444" lon="13.3001416"><ele>932.0</ele><time>2026-05-02T14:54:10.877Z</time></trkpt><trkpt lat="42.136489" lon="13.3000596"><ele>932.0</ele><time>2026-05-02T14:54:11.889Z</time></trkpt><trkpt lat="42.1365332" lon="13.2999712"><ele>932.0</ele><time>2026-05-02T14:54:12.891Z</time></trkpt><trkpt lat="42.1365809" lon="13.2998571"><ele>932.0</ele><time>2026-05-02T14:54:13.88Z</time></trkpt><trkpt lat="42.1366316" lon="13.2997295"><ele>932.0</ele><time>2026-05-02T14:54:14.874Z</time></trkpt><trkpt lat="42.1366815" lon="13.2995984"><ele>932.0</ele><time>2026-05-02T14:54:15.882Z</time></trkpt><trkpt lat="42.1367374" lon="13.2994476"><ele>932.0</ele><time>2026-05-02T14:54:16.896Z</time></trkpt><trkpt lat="42.1367817" lon="13.2992749"><ele>932.0</ele><time>2026-05-02T14:54:17.897Z</time></trkpt><trkpt lat="42.1368152" lon="13.299097"><ele>932.0</ele><time>2026-05-02T14:54:18.882Z</time></trkpt><trkpt lat="42.1368445" lon="13.2989225"><ele>932.0</ele><time>2026-05-02T14:54:19.898Z</time></trkpt><trkpt lat="42.1368715" lon="13.2987484"><ele>931.2</ele><time>2026-05-02T14:54:20.879Z</time></trkpt><trkpt lat="42.136916" lon="13.2985672"><ele>930.4000000000001</ele><time>2026-05-02T14:54:21.885Z</time></trkpt><trkpt lat="42.1369519" lon="13.298406"><ele>929.5999999999999</ele><time>2026-05-02T14:54:22.887Z</time></trkpt><trkpt lat="42.1369729" lon="13.2982858"><ele>928.8</ele><time>2026-05-02T14:54:23.885Z</time></trkpt><trkpt lat="42.1369734" lon="13.2981968"><ele>928.0</ele><time>2026-05-02T14:54:24.887Z</time></trkpt><trkpt lat="42.1369029" lon="13.298127"><ele>928.0</ele><time>2026-05-02T14:54:26.907Z</time></trkpt><trkpt lat="42.1367816" lon="13.298138"><ele>928.0</ele><time>2026-05-02T14:54:28.878Z</time></trkpt><trkpt lat="42.1367112" lon="13.2981352"><ele>928.0</ele><time>2026-05-02T14:54:29.889Z</time></trkpt><trkpt lat="42.1366047" lon="13.2980855"><ele>928.0</ele><time>2026-05-02T14:54:31.877Z</time></trkpt><trkpt lat="42.1365416" lon="13.2979774"><ele>928.0</ele><time>2026-05-02T14:54:33.882Z</time></trkpt><trkpt lat="42.1365276" lon="13.2978481"><ele>928.8</ele><time>2026-05-02T14:54:35.884Z</time></trkpt><trkpt lat="42.1365663" lon="13.2976725"><ele>929.5999999999999</ele><time>2026-05-02T14:54:37.893Z</time></trkpt><trkpt lat="42.1366154" lon="13.2975788"><ele>930.4000000000001</ele><time>2026-05-02T14:54:38.878Z</time></trkpt><trkpt lat="42.1366626" lon="13.2974949"><ele>931.2</ele><time>2026-05-02T14:54:39.888Z</time></trkpt><trkpt lat="42.1366705" lon="13.2973872"><ele>932.0</ele><time>2026-05-02T14:54:40.889Z</time></trkpt><trkpt lat="42.1366743" lon="13.2972653"><ele>931.0</ele><time>2026-05-02T14:54:41.881Z</time></trkpt><trkpt lat="42.1366705" lon="13.2971317"><ele>930.0</ele><time>2026-05-02T14:54:42.877Z</time></trkpt><trkpt lat="42.1366653" lon="13.2969891"><ele>929.0</ele><time>2026-05-02T14:54:43.883Z</time></trkpt><trkpt lat="42.1366719" lon="13.2968371"><ele>928.0</ele><time>2026-05-02T14:54:44.884Z</time></trkpt><trkpt lat="42.1366898" lon="13.2966539"><ele>928.0</ele><time>2026-05-02T14:54:45.89Z</time></trkpt><trkpt lat="42.1367047" lon="13.2964808"><ele>928.0</ele><time>2026-05-02T14:54:46.883Z</time></trkpt><trkpt lat="42.1366959" lon="13.2963073"><ele>928.0</ele><time>2026-05-02T14:54:47.891Z</time></trkpt><trkpt lat="42.1366748" lon="13.2961534"><ele>928.0</ele><time>2026-05-02T14:54:48.883Z</time></trkpt><trkpt lat="42.1366578" lon="13.2959963"><ele>926.75</ele><time>2026-05-02T14:54:49.882Z</time></trkpt><trkpt lat="42.1366477" lon="13.2958238"><ele>925.5</ele><time>2026-05-02T14:54:50.889Z</time></trkpt><trkpt lat="42.1366426" lon="13.2956642"><ele>924.25</ele><time>2026-05-02T14:54:51.889Z</time></trkpt><trkpt lat="42.1366512" lon="13.2954948"><ele>923.0</ele><time>2026-05-02T14:54:52.889Z</time></trkpt><trkpt lat="42.136654" lon="13.2953143"><ele>921.75</ele><time>2026-05-02T14:54:53.886Z</time></trkpt><trkpt lat="42.1366496" lon="13.2951372"><ele>920.5</ele><time>2026-05-02T14:54:54.888Z</time></trkpt><trkpt lat="42.1366215" lon="13.2949405"><ele>919.25</ele><time>2026-05-02T14:54:55.89Z</time></trkpt><trkpt lat="42.1365915" lon="13.2947435"><ele>918.0</ele><time>2026-05-02T14:54:56.895Z</time></trkpt><trkpt lat="42.1365557" lon="13.294546"><ele>916.2</ele><time>2026-05-02T14:54:57.883Z</time></trkpt><trkpt lat="42.1365249" lon="13.2943619"><ele>914.4</ele><time>2026-05-02T14:54:58.874Z</time></trkpt><trkpt lat="42.1364972" lon="13.2942029"><ele>912.6000000000001</ele><time>2026-05-02T14:54:59.884Z</time></trkpt><trkpt lat="42.1364814" lon="13.2940914"><ele>910.8000000000001</ele><time>2026-05-02T14:55:00.904Z</time></trkpt><trkpt lat="42.1364928" lon="13.2939791"><ele>909.0</ele><time>2026-05-02T14:55:01.893Z</time></trkpt><trkpt lat="42.1365091" lon="13.2938792"><ele>909.0</ele><time>2026-05-02T14:55:02.899Z</time></trkpt><trkpt lat="42.1364762" lon="13.2938029"><ele>909.0</ele><time>2026-05-02T14:55:03.886Z</time></trkpt><trkpt lat="42.1364169" lon="13.2937294"><ele>909.0</ele><time>2026-05-02T14:55:04.901Z</time></trkpt><trkpt lat="42.1363581" lon="13.2936258"><ele>909.0</ele><time>2026-05-02T14:55:05.891Z</time></trkpt><trkpt lat="42.1363215" lon="13.2935227"><ele>909.0</ele><time>2026-05-02T14:55:06.9Z</time></trkpt><trkpt lat="42.1363263" lon="13.2933972"><ele>909.0</ele><time>2026-05-02T14:55:07.88Z</time></trkpt><trkpt lat="42.1363055" lon="13.2932525"><ele>908.5</ele><time>2026-05-02T14:55:08.871Z</time></trkpt><trkpt lat="42.1362628" lon="13.2930746"><ele>908.0</ele><time>2026-05-02T14:55:09.892Z</time></trkpt><trkpt lat="42.1362235" lon="13.2928977"><ele>907.5</ele><time>2026-05-02T14:55:10.877Z</time></trkpt><trkpt lat="42.1361893" lon="13.2927478"><ele>907.0</ele><time>2026-05-02T14:55:11.884Z</time></trkpt><trkpt lat="42.1361901" lon="13.2926055"><ele>907.0</ele><time>2026-05-02T14:55:12.89Z</time></trkpt><trkpt lat="42.1361913" lon="13.2924271"><ele>907.0</ele><time>2026-05-02T14:55:13.878Z</time></trkpt><trkpt lat="42.136224" lon="13.2922181"><ele>907.0</ele><time>2026-05-02T14:55:14.886Z</time></trkpt><trkpt lat="42.1362443" lon="13.2920279"><ele>907.0</ele><time>2026-05-02T14:55:15.901Z</time></trkpt><trkpt lat="42.1362573" lon="13.2918687"><ele>905.2</ele><time>2026-05-02T14:55:16.879Z</time></trkpt><trkpt lat="42.1362632" lon="13.2917072"><ele>903.4000000000001</ele><time>2026-05-02T14:55:17.883Z</time></trkpt><trkpt lat="42.1362671" lon="13.291601"><ele>901.5999999999999</ele><time>2026-05-02T14:55:18.878Z</time></trkpt><trkpt lat="42.1362951" lon="13.2914678"><ele>899.8</ele><time>2026-05-02T14:55:20.886Z</time></trkpt><trkpt lat="42.13639" lon="13.2913403"><ele>898.0</ele><time>2026-05-02T14:55:22.893Z</time></trkpt><trkpt lat="42.1364336" lon="13.2912279"><ele>896.8</ele><time>2026-05-02T14:55:23.886Z</time></trkpt><trkpt lat="42.1364609" lon="13.2910988"><ele>895.5999999999999</ele><time>2026-05-02T14:55:24.9Z</time></trkpt><trkpt lat="42.1364834" lon="13.2909814"><ele>894.4000000000001</ele><time>2026-05-02T14:55:25.876Z</time></trkpt><trkpt lat="42.1365138" lon="13.2908873"><ele>893.2</ele><time>2026-05-02T14:55:26.886Z</time></trkpt><trkpt lat="42.1365592" lon="13.2908133"><ele>892.0</ele><time>2026-05-02T14:55:27.891Z</time></trkpt><trkpt lat="42.1367001" lon="13.2907456"><ele>892.0</ele><time>2026-05-02T14:55:29.88Z</time></trkpt><trkpt lat="42.136815" lon="13.2907322"><ele>892.0</ele><time>2026-05-02T14:55:30.89Z</time></trkpt><trkpt lat="42.1369336" lon="13.2907321"><ele>892.0</ele><time>2026-05-02T14:55:31.893Z</time></trkpt><trkpt lat="42.1370523" lon="13.2907223"><ele>892.0</ele><time>2026-05-02T14:55:32.89Z</time></trkpt><trkpt lat="42.1371313" lon="13.2907044"><ele>892.0</ele><time>2026-05-02T14:55:33.892Z</time></trkpt><trkpt lat="42.1372282" lon="13.290619"><ele>889.4999999999999</ele><time>2026-05-02T14:55:35.893Z</time></trkpt><trkpt lat="42.1372061" lon="13.2905152"><ele>887.0</ele><time>2026-05-02T14:55:37.886Z</time></trkpt><trkpt lat="42.137085" lon="13.290464"><ele>884.5</ele><time>2026-05-02T14:55:39.881Z</time></trkpt><trkpt lat="42.1369974" lon="13.2904371"><ele>882.0</ele><time>2026-05-02T14:55:40.899Z</time></trkpt><trkpt lat="42.1369221" lon="13.290403"><ele>879.4999999999999</ele><time>2026-05-02T14:55:41.901Z</time></trkpt><trkpt lat="42.1368642" lon="13.2903606"><ele>877.0</ele><time>2026-05-02T14:55:42.899Z</time></trkpt><trkpt lat="42.1368274" lon="13.2902582"><ele>877.0</ele><time>2026-05-02T14:55:44.917Z</time></trkpt><trkpt lat="42.1369341" lon="13.2901197"><ele>877.0</ele><time>2026-05-02T14:55:46.901Z</time></trkpt><trkpt lat="42.1370093" lon="13.2900149"><ele>877.0</ele><time>2026-05-02T14:55:47.894Z</time></trkpt><trkpt lat="42.1370791" lon="13.2899037"><ele>877.0</ele><time>2026-05-02T14:55:48.875Z</time></trkpt><trkpt lat="42.1371213" lon="13.289793"><ele>874.6666666666666</ele><time>2026-05-02T14:55:49.889Z</time></trkpt><trkpt lat="42.137147" lon="13.289662"><ele>872.3333333333333</ele><time>2026-05-02T14:55:50.887Z</time></trkpt><trkpt lat="42.1371633" lon="13.2895513"><ele>870.0</ele><time>2026-05-02T14:55:51.89Z</time></trkpt><trkpt lat="42.1371642" lon="13.2894654"><ele>867.6666666666667</ele><time>2026-05-02T14:55:52.885Z</time></trkpt><trkpt lat="42.1371292" lon="13.2893755"><ele>865.3333333333334</ele><time>2026-05-02T14:55:53.891Z</time></trkpt><trkpt lat="42.1370867" lon="13.2892978"><ele>863.0</ele><time>2026-05-02T14:55:54.89Z</time></trkpt><trkpt lat="42.1370665" lon="13.2892126"><ele>863.0000000000001</ele><time>2026-05-02T14:55:55.887Z</time></trkpt><trkpt lat="42.1370882" lon="13.2891017"><ele>863.0</ele><time>2026-05-02T14:55:57.889Z</time></trkpt><trkpt lat="42.1371398" lon="13.2890492"><ele>863.0</ele><time>2026-05-02T14:55:58.888Z</time></trkpt><trkpt lat="42.1372" lon="13.2890025"><ele>863.0</ele><time>2026-05-02T14:55:59.894Z</time></trkpt><trkpt lat="42.1372168" lon="13.2889123"><ele>863.0000000000001</ele><time>2026-05-02T14:56:00.888Z</time></trkpt><trkpt lat="42.1371966" lon="13.2888048"><ele>863.0</ele><time>2026-05-02T14:56:01.884Z</time></trkpt><trkpt lat="42.1371573" lon="13.2886453"><ele>861.4</ele><time>2026-05-02T14:56:02.883Z</time></trkpt><trkpt lat="42.1371028" lon="13.2884616"><ele>859.8</ele><time>2026-05-02T14:56:03.89Z</time></trkpt><trkpt lat="42.1370536" lon="13.288307"><ele>858.2</ele><time>2026-05-02T14:56:04.884Z</time></trkpt><trkpt lat="42.1370284" lon="13.2882236"><ele>856.6</ele><time>2026-05-02T14:56:05.899Z</time></trkpt><trkpt lat="42.1370459" lon="13.2880808"><ele>855.0</ele><time>2026-05-02T14:56:07.885Z</time></trkpt><trkpt lat="42.1371125" lon="13.2880397"><ele>855.0</ele><time>2026-05-02T14:56:09.881Z</time></trkpt><trkpt lat="42.137199" lon="13.2881123"><ele>855.0</ele><time>2026-05-02T14:56:11.89Z</time></trkpt><trkpt lat="42.1372667" lon="13.2882419"><ele>855.0</ele><time>2026-05-02T14:56:13.894Z</time></trkpt><trkpt lat="42.1373276" lon="13.288309"><ele>855.0</ele><time>2026-05-02T14:56:14.879Z</time></trkpt><trkpt lat="42.1374163" lon="13.2883838"><ele>855.0</ele><time>2026-05-02T14:56:15.899Z</time></trkpt><trkpt lat="42.1375418" lon="13.2884581"><ele>855.4</ele><time>2026-05-02T14:56:16.895Z</time></trkpt><trkpt lat="42.1376667" lon="13.2885388"><ele>855.8</ele><time>2026-05-02T14:56:17.881Z</time></trkpt><trkpt lat="42.1377612" lon="13.2885746"><ele>856.2</ele><time>2026-05-02T14:56:18.875Z</time></trkpt><trkpt lat="42.1378269" lon="13.288556"><ele>856.6</ele><time>2026-05-02T14:56:19.899Z</time></trkpt><trkpt lat="42.1378814" lon="13.2885077"><ele>857.0</ele><time>2026-05-02T14:56:20.879Z</time></trkpt><trkpt lat="42.1379112" lon="13.2884045"><ele>857.0</ele><time>2026-05-02T14:56:21.89Z</time></trkpt><trkpt lat="42.1379163" lon="13.2882928"><ele>857.0</ele><time>2026-05-02T14:56:22.894Z</time></trkpt><trkpt lat="42.1379049" lon="13.2881383"><ele>857.0</ele><time>2026-05-02T14:56:23.884Z</time></trkpt><trkpt lat="42.1378636" lon="13.2879336"><ele>857.0</ele><time>2026-05-02T14:56:24.887Z</time></trkpt><trkpt lat="42.1378059" lon="13.2877034"><ele>854.3333333333334</ele><time>2026-05-02T14:56:25.908Z</time></trkpt><trkpt lat="42.1377568" lon="13.2874846"><ele>851.6666666666667</ele><time>2026-05-02T14:56:26.888Z</time></trkpt><trkpt lat="42.1377198" lon="13.2872881"><ele>849.0</ele><time>2026-05-02T14:56:27.883Z</time></trkpt><trkpt lat="42.1376942" lon="13.2871056"><ele>847.0</ele><time>2026-05-02T14:56:28.886Z</time></trkpt><trkpt lat="42.137692" lon="13.2869417"><ele>845.0</ele><time>2026-05-02T14:56:29.88Z</time></trkpt><trkpt lat="42.1376909" lon="13.2868105"><ele>843.0</ele><time>2026-05-02T14:56:30.892Z</time></trkpt><trkpt lat="42.1376808" lon="13.2866682"><ele>841.0</ele><time>2026-05-02T14:56:31.887Z</time></trkpt><trkpt lat="42.1376633" lon="13.2864792"><ele>840.5999999999999</ele><time>2026-05-02T14:56:32.899Z</time></trkpt><trkpt lat="42.1376401" lon="13.2862855"><ele>840.2</ele><time>2026-05-02T14:56:33.883Z</time></trkpt><trkpt lat="42.1376181" lon="13.2861341"><ele>839.8</ele><time>2026-05-02T14:56:34.895Z</time></trkpt><trkpt lat="42.1375981" lon="13.2860157"><ele>839.4000000000001</ele><time>2026-05-02T14:56:35.893Z</time></trkpt><trkpt lat="42.1375843" lon="13.2859305"><ele>839.0</ele><time>2026-05-02T14:56:36.901Z</time></trkpt><trkpt lat="42.1375815" lon="13.2858402"><ele>839.0</ele><time>2026-05-02T14:56:38.879Z</time></trkpt><trkpt lat="42.1376496" lon="13.2857474"><ele>839.0</ele><time>2026-05-02T14:56:41.887Z</time></trkpt><trkpt lat="42.1377338" lon="13.2857154"><ele>839.0</ele><time>2026-05-02T14:56:42.899Z</time></trkpt><trkpt lat="42.1378272" lon="13.2857234"><ele>839.0</ele><time>2026-05-02T14:56:43.894Z</time></trkpt><trkpt lat="42.1379437" lon="13.2857524"><ele>839.0</ele><time>2026-05-02T14:56:44.87Z</time></trkpt><trkpt lat="42.138078" lon="13.2857964"><ele>839.0000000000001</ele><time>2026-05-02T14:56:45.886Z</time></trkpt><trkpt lat="42.1381896" lon="13.2858547"><ele>839.0</ele><time>2026-05-02T14:56:46.886Z</time></trkpt><trkpt lat="42.1382655" lon="13.2858958"><ele>839.0</ele><time>2026-05-02T14:56:47.891Z</time></trkpt><trkpt lat="42.1383532" lon="13.2859207"><ele>839.0</ele><time>2026-05-02T14:56:49.887Z</time></trkpt><trkpt lat="42.1384142" lon="13.2858918"><ele>839.0000000000001</ele><time>2026-05-02T14:56:50.891Z</time></trkpt><trkpt lat="42.1384818" lon="13.2858822"><ele>839.0</ele><time>2026-05-02T14:56:51.892Z</time></trkpt><trkpt lat="42.1385672" lon="13.2858713"><ele>839.1666666666667</ele><time>2026-05-02T14:56:52.887Z</time></trkpt><trkpt lat="42.1386561" lon="13.2858764"><ele>839.3333333333334</ele><time>2026-05-02T14:56:53.887Z</time></trkpt><trkpt lat="42.1387361" lon="13.2858772"><ele>839.5</ele><time>2026-05-02T14:56:54.891Z</time></trkpt><trkpt lat="42.1388187" lon="13.2858841"><ele>839.6666666666667</ele><time>2026-05-02T14:56:55.879Z</time></trkpt><trkpt lat="42.1389057" lon="13.2858982"><ele>839.8333333333334</ele><time>2026-05-02T14:56:56.886Z</time></trkpt><trkpt lat="42.1390057" lon="13.2859266"><ele>840.0</ele><time>2026-05-02T14:56:57.891Z</time></trkpt><trkpt lat="42.1391285" lon="13.2859295"><ele>839.25</ele><time>2026-05-02T14:56:58.897Z</time></trkpt><trkpt lat="42.1392698" lon="13.28591"><ele>838.5</ele><time>2026-05-02T14:56:59.883Z</time></trkpt><trkpt lat="42.1394169" lon="13.285902"><ele>837.75</ele><time>2026-05-02T14:57:00.884Z</time></trkpt><trkpt lat="42.1395748" lon="13.2859016"><ele>837.0</ele><time>2026-05-02T14:57:01.879Z</time></trkpt><trkpt lat="42.139734" lon="13.2859051"><ele>833.6666666666667</ele><time>2026-05-02T14:57:02.905Z</time></trkpt><trkpt lat="42.1398916" lon="13.2859104"><ele>830.3333333333334</ele><time>2026-05-02T14:57:03.88Z</time></trkpt><trkpt lat="42.1400477" lon="13.2859219"><ele>827.0</ele><time>2026-05-02T14:57:04.883Z</time></trkpt><trkpt lat="42.1401936" lon="13.2859342"><ele>827.0</ele><time>2026-05-02T14:57:05.885Z</time></trkpt><trkpt lat="42.1403342" lon="13.285947"><ele>827.0</ele><time>2026-05-02T14:57:06.893Z</time></trkpt><trkpt lat="42.1404467" lon="13.2859665"><ele>827.0</ele><time>2026-05-02T14:57:07.886Z</time></trkpt><trkpt lat="42.1405307" lon="13.2859853"><ele>827.0</ele><time>2026-05-02T14:57:08.866Z</time></trkpt><trkpt lat="42.1406168" lon="13.286005"><ele>827.0</ele><time>2026-05-02T14:57:09.883Z</time></trkpt><trkpt lat="42.1406969" lon="13.2860085"><ele>825.4000000000001</ele><time>2026-05-02T14:57:10.889Z</time></trkpt><trkpt lat="42.1407759" lon="13.2859981"><ele>823.8000000000001</ele><time>2026-05-02T14:57:11.885Z</time></trkpt><trkpt lat="42.1408494" lon="13.2859842"><ele>822.2</ele><time>2026-05-02T14:57:12.901Z</time></trkpt><trkpt lat="42.1409628" lon="13.2860035"><ele>820.6</ele><time>2026-05-02T14:57:14.899Z</time></trkpt><trkpt lat="42.1410863" lon="13.2860848"><ele>819.0</ele><time>2026-05-02T14:57:16.888Z</time></trkpt><trkpt lat="42.1411676" lon="13.286123"><ele>819.0</ele><time>2026-05-02T14:57:17.874Z</time></trkpt><trkpt lat="42.1412593" lon="13.2861285"><ele>819.0</ele><time>2026-05-02T14:57:18.876Z</time></trkpt><trkpt lat="42.1413671" lon="13.2860861"><ele>819.0</ele><time>2026-05-02T14:57:19.885Z</time></trkpt><trkpt lat="42.1414893" lon="13.2860401"><ele>819.0</ele><time>2026-05-02T14:57:20.893Z</time></trkpt><trkpt lat="42.1416116" lon="13.2859973"><ele>814.0</ele><time>2026-05-02T14:57:21.889Z</time></trkpt><trkpt lat="42.1417503" lon="13.2859841"><ele>809.0</ele><time>2026-05-02T14:57:22.891Z</time></trkpt><trkpt lat="42.1418945" lon="13.2859845"><ele>804.0</ele><time>2026-05-02T14:57:23.883Z</time></trkpt><trkpt lat="42.1420244" lon="13.2859855"><ele>799.0</ele><time>2026-05-02T14:57:24.892Z</time></trkpt><trkpt lat="42.1421218" lon="13.2859806"><ele>798.9999999999999</ele><time>2026-05-02T14:57:25.883Z</time></trkpt><trkpt lat="42.1422094" lon="13.2859727"><ele>799.0</ele><time>2026-05-02T14:57:26.883Z</time></trkpt><trkpt lat="42.1422794" lon="13.2859463"><ele>799.0</ele><time>2026-05-02T14:57:27.882Z</time></trkpt><trkpt lat="42.142353" lon="13.2859266"><ele>799.0</ele><time>2026-05-02T14:57:28.871Z</time></trkpt><trkpt lat="42.142457" lon="13.285939"><ele>798.9999999999999</ele><time>2026-05-02T14:57:30.892Z</time></trkpt><trkpt lat="42.1425119" lon="13.2860315"><ele>799.0</ele><time>2026-05-02T14:57:32.89Z</time></trkpt><trkpt lat="42.1425364" lon="13.2861225"><ele>798.6666666666666</ele><time>2026-05-02T14:57:33.878Z</time></trkpt><trkpt lat="42.1425831" lon="13.2862091"><ele>798.3333333333333</ele><time>2026-05-02T14:57:34.875Z</time></trkpt><trkpt lat="42.1426487" lon="13.2862794"><ele>798.0</ele><time>2026-05-02T14:57:35.892Z</time></trkpt><trkpt lat="42.1427321" lon="13.2863288"><ele>797.6666666666667</ele><time>2026-05-02T14:57:36.887Z</time></trkpt><trkpt lat="42.1428202" lon="13.2863735"><ele>797.3333333333334</ele><time>2026-05-02T14:57:37.88Z</time></trkpt><trkpt lat="42.142909" lon="13.2864292"><ele>797.0</ele><time>2026-05-02T14:57:38.877Z</time></trkpt><trkpt lat="42.1429925" lon="13.2865012"><ele>797.0</ele><time>2026-05-02T14:57:39.873Z</time></trkpt><trkpt lat="42.1430674" lon="13.2865859"><ele>797.0</ele><time>2026-05-02T14:57:40.893Z</time></trkpt><trkpt lat="42.1431369" lon="13.2867096"><ele>797.0</ele><time>2026-05-02T14:57:41.877Z</time></trkpt><trkpt lat="42.1431797" lon="13.2868543"><ele>797.0</ele><time>2026-05-02T14:57:42.895Z</time></trkpt><trkpt lat="42.143214" lon="13.2870086"><ele>797.0</ele><time>2026-05-02T14:57:43.882Z</time></trkpt><trkpt lat="42.1432386" lon="13.2871465"><ele>793.25</ele><time>2026-05-02T14:57:44.889Z</time></trkpt><trkpt lat="42.1432475" lon="13.2872928"><ele>789.5</ele><time>2026-05-02T14:57:45.888Z</time></trkpt><trkpt lat="42.1432386" lon="13.287448"><ele>785.75</ele><time>2026-05-02T14:57:46.878Z</time></trkpt><trkpt lat="42.1432416" lon="13.2875881"><ele>782.0</ele><time>2026-05-02T14:57:47.897Z</time></trkpt><trkpt lat="42.1433038" lon="13.2877314"><ele>782.0000000000001</ele><time>2026-05-02T14:57:49.886Z</time></trkpt><trkpt lat="42.1434041" lon="13.2877723"><ele>782.0</ele><time>2026-05-02T14:57:51.883Z</time></trkpt><trkpt lat="42.1434687" lon="13.2877998"><ele>782.0</ele><time>2026-05-02T14:57:52.891Z</time></trkpt><trkpt lat="42.1435336" lon="13.2878418"><ele>782.0</ele><time>2026-05-02T14:57:53.876Z</time></trkpt><trkpt lat="42.1436092" lon="13.2878609"><ele>782.0000000000001</ele><time>2026-05-02T14:57:54.891Z</time></trkpt><trkpt lat="42.1437113" lon="13.2877913"><ele>782.0</ele><time>2026-05-02T14:57:56.887Z</time></trkpt><trkpt lat="42.1437667" lon="13.2877143"><ele>782.0000000000001</ele><time>2026-05-02T14:57:57.887Z</time></trkpt><trkpt lat="42.1438168" lon="13.2876235"><ele>782.0</ele><time>2026-05-02T14:57:58.876Z</time></trkpt><trkpt lat="42.1438794" lon="13.2875353"><ele>782.0</ele><time>2026-05-02T14:57:59.878Z</time></trkpt><trkpt lat="42.1439385" lon="13.2874774"><ele>782.0</ele><time>2026-05-02T14:58:00.89Z</time></trkpt><trkpt lat="42.1440125" lon="13.2874282"><ele>782.0000000000001</ele><time>2026-05-02T14:58:01.881Z</time></trkpt><trkpt lat="42.1440988" lon="13.2873834"><ele>782.0</ele><time>2026-05-02T14:58:02.888Z</time></trkpt><trkpt lat="42.1441869" lon="13.2873577"><ele>783.5</ele><time>2026-05-02T14:58:03.88Z</time></trkpt><trkpt lat="42.1442853" lon="13.2873495"><ele>785.0</ele><time>2026-05-02T14:58:04.879Z</time></trkpt><trkpt lat="42.1444055" lon="13.2873517"><ele>786.5</ele><time>2026-05-02T14:58:05.9Z</time></trkpt><trkpt lat="42.1445424" lon="13.2873331"><ele>788.0</ele><time>2026-05-02T14:58:06.89Z</time></trkpt><trkpt lat="42.1446762" lon="13.2873243"><ele>788.0</ele><time>2026-05-02T14:58:07.884Z</time></trkpt><trkpt lat="42.144766" lon="13.2873285"><ele>788.0</ele><time>2026-05-02T14:58:08.877Z</time></trkpt><trkpt lat="42.1448302" lon="13.287351"><ele>788.0</ele><time>2026-05-02T14:58:09.889Z</time></trkpt><trkpt lat="42.1448973" lon="13.2874027"><ele>788.0</ele><time>2026-05-02T14:58:10.88Z</time></trkpt><trkpt lat="42.1449522" lon="13.2874632"><ele>788.0</ele><time>2026-05-02T14:58:11.878Z</time></trkpt><trkpt lat="42.1450028" lon="13.2875215"><ele>788.0</ele><time>2026-05-02T14:58:12.893Z</time></trkpt><trkpt lat="42.1450443" lon="13.2875889"><ele>788.0</ele><time>2026-05-02T14:58:13.893Z</time></trkpt><trkpt lat="42.1450672" lon="13.2876729"><ele>789.5999999999999</ele><time>2026-05-02T14:58:14.882Z</time></trkpt><trkpt lat="42.1450637" lon="13.2877802"><ele>791.1999999999999</ele><time>2026-05-02T14:58:15.881Z</time></trkpt><trkpt lat="42.1450418" lon="13.2879052"><ele>792.8</ele><time>2026-05-02T14:58:16.897Z</time></trkpt><trkpt lat="42.1450137" lon="13.2880506"><ele>794.4</ele><time>2026-05-02T14:58:17.891Z</time></trkpt><trkpt lat="42.144987" lon="13.2882167"><ele>796.0</ele><time>2026-05-02T14:58:18.886Z</time></trkpt><trkpt lat="42.1449588" lon="13.2884073"><ele>796.25</ele><time>2026-05-02T14:58:19.899Z</time></trkpt><trkpt lat="42.1449424" lon="13.2886052"><ele>796.5</ele><time>2026-05-02T14:58:20.889Z</time></trkpt><trkpt lat="42.1449227" lon="13.2887969"><ele>796.75</ele><time>2026-05-02T14:58:21.886Z</time></trkpt><trkpt lat="42.1449156" lon="13.2890015"><ele>797.0</ele><time>2026-05-02T14:58:22.893Z</time></trkpt><trkpt lat="42.1449192" lon="13.2892116"><ele>797.25</ele><time>2026-05-02T14:58:23.895Z</time></trkpt><trkpt lat="42.1449261" lon="13.2894019"><ele>797.5</ele><time>2026-05-02T14:58:24.876Z</time></trkpt><trkpt lat="42.1449368" lon="13.2895808"><ele>797.75</ele><time>2026-05-02T14:58:25.892Z</time></trkpt><trkpt lat="42.1449703" lon="13.2897324"><ele>798.0</ele><time>2026-05-02T14:58:26.886Z</time></trkpt><trkpt lat="42.1450349" lon="13.2898686"><ele>798.0</ele><time>2026-05-02T14:58:27.89Z</time></trkpt><trkpt lat="42.1451146" lon="13.2900189"><ele>798.0</ele><time>2026-05-02T14:58:28.88Z</time></trkpt><trkpt lat="42.1451956" lon="13.2901713"><ele>798.0</ele><time>2026-05-02T14:58:29.893Z</time></trkpt><trkpt lat="42.1452793" lon="13.2903103"><ele>798.0</ele><time>2026-05-02T14:58:30.89Z</time></trkpt><trkpt lat="42.1453736" lon="13.290422"><ele>798.0</ele><time>2026-05-02T14:58:31.888Z</time></trkpt><trkpt lat="42.1454617" lon="13.2905331"><ele>798.0</ele><time>2026-05-02T14:58:32.884Z</time></trkpt><trkpt lat="42.145542" lon="13.2906302"><ele>798.0</ele><time>2026-05-02T14:58:33.888Z</time></trkpt><trkpt lat="42.1456366" lon="13.290727"><ele>798.0</ele><time>2026-05-02T14:58:34.886Z</time></trkpt><trkpt lat="42.1457414" lon="13.2908166"><ele>796.0</ele><time>2026-05-02T14:58:35.891Z</time></trkpt><trkpt lat="42.1458405" lon="13.2909062"><ele>794.0</ele><time>2026-05-02T14:58:36.877Z</time></trkpt><trkpt lat="42.1459236" lon="13.2909879"><ele>792.0</ele><time>2026-05-02T14:58:37.887Z</time></trkpt><trkpt lat="42.1459865" lon="13.2910505"><ele>790.0</ele><time>2026-05-02T14:58:38.879Z</time></trkpt><trkpt lat="42.1460442" lon="13.2911364"><ele>788.0</ele><time>2026-05-02T14:58:40.896Z</time></trkpt><trkpt lat="42.1460904" lon="13.2912025"><ele>788.0</ele><time>2026-05-02T14:58:42.895Z</time></trkpt><trkpt lat="42.1461319" lon="13.2912743"><ele>788.0</ele><time>2026-05-02T14:58:43.886Z</time></trkpt><trkpt lat="42.1461891" lon="13.2913473"><ele>788.0</ele><time>2026-05-02T14:58:44.899Z</time></trkpt><trkpt lat="42.1462709" lon="13.2914469"><ele>788.0</ele><time>2026-05-02T14:58:45.889Z</time></trkpt><trkpt lat="42.1463672" lon="13.2915649"><ele>788.0</ele><time>2026-05-02T14:58:46.9Z</time></trkpt><trkpt lat="42.1464636" lon="13.2916836"><ele>786.4</ele><time>2026-05-02T14:58:47.884Z</time></trkpt><trkpt lat="42.1465465" lon="13.291777"><ele>784.8</ele><time>2026-05-02T14:58:48.887Z</time></trkpt><trkpt lat="42.146606" lon="13.2918465"><ele>783.2</ele><time>2026-05-02T14:58:49.901Z</time></trkpt><trkpt lat="42.1466595" lon="13.291893"><ele>781.6</ele><time>2026-05-02T14:58:50.882Z</time></trkpt><trkpt lat="42.1467637" lon="13.2918505"><ele>780.0</ele><time>2026-05-02T14:58:52.896Z</time></trkpt><trkpt lat="42.146834" lon="13.2917674"><ele>780.0</ele><time>2026-05-02T14:58:53.882Z</time></trkpt><trkpt lat="42.1469149" lon="13.2916897"><ele>780.0</ele><time>2026-05-02T14:58:54.879Z</time></trkpt><trkpt lat="42.1469955" lon="13.2916133"><ele>780.0</ele><time>2026-05-02T14:58:55.889Z</time></trkpt><trkpt lat="42.1470682" lon="13.2915533"><ele>780.0</ele><time>2026-05-02T14:58:56.901Z</time></trkpt><trkpt lat="42.1471473" lon="13.291518"><ele>780.0</ele><time>2026-05-02T14:58:57.889Z</time></trkpt><trkpt lat="42.1472371" lon="13.2914922"><ele>780.0</ele><time>2026-05-02T14:58:58.873Z</time></trkpt><trkpt lat="42.1473284" lon="13.2914978"><ele>780.0</ele><time>2026-05-02T14:58:59.89Z</time></trkpt><trkpt lat="42.1474389" lon="13.2915666"><ele>780.0</ele><time>2026-05-02T14:59:01.891Z</time></trkpt><trkpt lat="42.1475377" lon="13.2916123"><ele>780.0</ele><time>2026-05-02T14:59:03.897Z</time></trkpt><trkpt lat="42.1475531" lon="13.2914923"><ele>780.0</ele><time>2026-05-02T14:59:06.889Z</time></trkpt><trkpt lat="42.1475241" lon="13.2913978"><ele>775.1666666666666</ele><time>2026-05-02T14:59:07.895Z</time></trkpt><trkpt lat="42.1474883" lon="13.2913041"><ele>770.3333333333334</ele><time>2026-05-02T14:59:08.881Z</time></trkpt><trkpt lat="42.1474479" lon="13.2912052"><ele>765.5</ele><time>2026-05-02T14:59:09.885Z</time></trkpt><trkpt lat="42.1474222" lon="13.2911195"><ele>760.6666666666667</ele><time>2026-05-02T14:59:10.899Z</time></trkpt><trkpt lat="42.1474366" lon="13.2909722"><ele>755.8333333333334</ele><time>2026-05-02T14:59:12.879Z</time></trkpt><trkpt lat="42.1474872" lon="13.2908847"><ele>751.0</ele><time>2026-05-02T14:59:13.886Z</time></trkpt><trkpt lat="42.1475621" lon="13.2907576"><ele>751.0</ele><time>2026-05-02T14:59:14.887Z</time></trkpt><trkpt lat="42.1476337" lon="13.290612"><ele>751.0</ele><time>2026-05-02T14:59:15.896Z</time></trkpt><trkpt lat="42.1477062" lon="13.2904742"><ele>751.0</ele><time>2026-05-02T14:59:16.901Z</time></trkpt><trkpt lat="42.1477953" lon="13.2903591"><ele>751.0</ele><time>2026-05-02T14:59:17.89Z</time></trkpt><trkpt lat="42.1479295" lon="13.2902644"><ele>751.6666666666667</ele><time>2026-05-02T14:59:18.887Z</time></trkpt><trkpt lat="42.1480868" lon="13.2901827"><ele>752.3333333333334</ele><time>2026-05-02T14:59:19.898Z</time></trkpt><trkpt lat="42.1482475" lon="13.2900906"><ele>753.0</ele><time>2026-05-02T14:59:20.897Z</time></trkpt><trkpt lat="42.1484171" lon="13.2899654"><ele>748.3333333333334</ele><time>2026-05-02T14:59:21.898Z</time></trkpt><trkpt lat="42.1485983" lon="13.289814"><ele>743.6666666666667</ele><time>2026-05-02T14:59:22.886Z</time></trkpt><trkpt lat="42.1487727" lon="13.2896747"><ele>739.0</ele><time>2026-05-02T14:59:23.879Z</time></trkpt><trkpt lat="42.1489013" lon="13.2895555"><ele>739.3333333333334</ele><time>2026-05-02T14:59:24.887Z</time></trkpt><trkpt lat="42.1490188" lon="13.2894425"><ele>739.6666666666666</ele><time>2026-05-02T14:59:25.886Z</time></trkpt><trkpt lat="42.1491293" lon="13.2892988"><ele>740.0</ele><time>2026-05-02T14:59:26.89Z</time></trkpt><trkpt lat="42.1492389" lon="13.2891442"><ele>740.0</ele><time>2026-05-02T14:59:27.891Z</time></trkpt><trkpt lat="42.1493224" lon="13.2889909"><ele>740.0</ele><time>2026-05-02T14:59:28.881Z</time></trkpt><trkpt lat="42.1494162" lon="13.2888584"><ele>740.0</ele><time>2026-05-02T14:59:29.884Z</time></trkpt><trkpt lat="42.1495182" lon="13.2887738"><ele>740.0</ele><time>2026-05-02T14:59:30.889Z</time></trkpt><trkpt lat="42.1496197" lon="13.2886511"><ele>741.0</ele><time>2026-05-02T14:59:31.89Z</time></trkpt><trkpt lat="42.1497544" lon="13.2884915"><ele>742.0</ele><time>2026-05-02T14:59:32.89Z</time></trkpt><trkpt lat="42.1498853" lon="13.2883096"><ele>743.0</ele><time>2026-05-02T14:59:33.881Z</time></trkpt><trkpt lat="42.1500114" lon="13.2881274"><ele>739.6666666666666</ele><time>2026-05-02T14:59:34.885Z</time></trkpt><trkpt lat="42.1501241" lon="13.2879374"><ele>736.3333333333334</ele><time>2026-05-02T14:59:35.886Z</time></trkpt><trkpt lat="42.150215" lon="13.287765"><ele>733.0</ele><time>2026-05-02T14:59:36.887Z</time></trkpt><trkpt lat="42.1502855" lon="13.2876174"><ele>733.0</ele><time>2026-05-02T14:59:37.874Z</time></trkpt><trkpt lat="42.1503519" lon="13.2874836"><ele>733.0</ele><time>2026-05-02T14:59:38.897Z</time></trkpt><trkpt lat="42.150411" lon="13.2873519"><ele>733.0</ele><time>2026-05-02T14:59:39.88Z</time></trkpt><trkpt lat="42.1504799" lon="13.2872212"><ele>733.0</ele><time>2026-05-02T14:59:40.886Z</time></trkpt><trkpt lat="42.1505595" lon="13.2871088"><ele>732.8333333333334</ele><time>2026-05-02T14:59:41.885Z</time></trkpt><trkpt lat="42.1506287" lon="13.287011"><ele>732.6666666666667</ele><time>2026-05-02T14:59:42.883Z</time></trkpt><trkpt lat="42.1506769" lon="13.286934"><ele>732.5</ele><time>2026-05-02T14:59:43.887Z</time></trkpt><trkpt lat="42.150752" lon="13.2868933"><ele>732.3333333333334</ele><time>2026-05-02T14:59:45.877Z</time></trkpt><trkpt lat="42.1508145" lon="13.2868663"><ele>732.1666666666666</ele><time>2026-05-02T14:59:47.897Z</time></trkpt><trkpt lat="42.150874" lon="13.2867882"><ele>732.0</ele><time>2026-05-02T14:59:48.878Z</time></trkpt><trkpt lat="42.1509514" lon="13.2866933"><ele>731.5</ele><time>2026-05-02T14:59:49.882Z</time></trkpt><trkpt lat="42.1510479" lon="13.28658"><ele>731.0</ele><time>2026-05-02T14:59:50.884Z</time></trkpt><trkpt lat="42.1511498" lon="13.2864556"><ele>730.5</ele><time>2026-05-02T14:59:51.887Z</time></trkpt><trkpt lat="42.1512582" lon="13.2863066"><ele>730.0</ele><time>2026-05-02T14:59:52.879Z</time></trkpt><trkpt lat="42.1513701" lon="13.2861317"><ele>729.3333333333334</ele><time>2026-05-02T14:59:53.892Z</time></trkpt><trkpt lat="42.1514846" lon="13.2859513"><ele>728.6666666666666</ele><time>2026-05-02T14:59:54.896Z</time></trkpt><trkpt lat="42.1515929" lon="13.2858111"><ele>728.0</ele><time>2026-05-02T14:59:55.88Z</time></trkpt><trkpt lat="42.1517048" lon="13.2856956"><ele>727.3333333333333</ele><time>2026-05-02T14:59:56.864Z</time></trkpt><trkpt lat="42.1518285" lon="13.2855835"><ele>726.6666666666666</ele><time>2026-05-02T14:59:57.866Z</time></trkpt><trkpt lat="42.151961" lon="13.2854597"><ele>726.0</ele><time>2026-05-02T14:59:58.871Z</time></trkpt><trkpt lat="42.1520935" lon="13.2853112"><ele>726.0</ele><time>2026-05-02T14:59:59.884Z</time></trkpt><trkpt lat="42.1522296" lon="13.2851513"><ele>726.0</ele><time>2026-05-02T15:00:00.88Z</time></trkpt><trkpt lat="42.1523623" lon="13.2850051"><ele>726.0</ele><time>2026-05-02T15:00:01.875Z</time></trkpt><trkpt lat="42.152488" lon="13.2848756"><ele>726.0</ele><time>2026-05-02T15:00:02.888Z</time></trkpt><trkpt lat="42.1526051" lon="13.2847638"><ele>726.0</ele><time>2026-05-02T15:00:03.88Z</time></trkpt><trkpt lat="42.1527273" lon="13.2846197"><ele>726.0</ele><time>2026-05-02T15:00:04.895Z</time></trkpt><trkpt lat="42.152834" lon="13.2844764"><ele>726.25</ele><time>2026-05-02T15:00:05.887Z</time></trkpt><trkpt lat="42.1529334" lon="13.2843393"><ele>726.5</ele><time>2026-05-02T15:00:06.882Z</time></trkpt><trkpt lat="42.153028" lon="13.2842037"><ele>726.75</ele><time>2026-05-02T15:00:07.885Z</time></trkpt><trkpt lat="42.1531253" lon="13.2840657"><ele>727.0</ele><time>2026-05-02T15:00:08.882Z</time></trkpt><trkpt lat="42.1532275" lon="13.2839122"><ele>727.0</ele><time>2026-05-02T15:00:09.891Z</time></trkpt><trkpt lat="42.1533341" lon="13.2837422"><ele>727.0</ele><time>2026-05-02T15:00:10.892Z</time></trkpt><trkpt lat="42.1534422" lon="13.2835624"><ele>727.0</ele><time>2026-05-02T15:00:11.886Z</time></trkpt><trkpt lat="42.1535482" lon="13.2833777"><ele>727.0</ele><time>2026-05-02T15:00:12.89Z</time></trkpt><trkpt lat="42.1536606" lon="13.283192"><ele>727.0</ele><time>2026-05-02T15:00:13.88Z</time></trkpt><trkpt lat="42.1537785" lon="13.2830069"><ele>727.0</ele><time>2026-05-02T15:00:14.887Z</time></trkpt><trkpt lat="42.1539068" lon="13.2828302"><ele>727.0</ele><time>2026-05-02T15:00:15.879Z</time></trkpt><trkpt lat="42.1540308" lon="13.2826547"><ele>727.0</ele><time>2026-05-02T15:00:16.894Z</time></trkpt><trkpt lat="42.1541453" lon="13.2824855"><ele>727.0</ele><time>2026-05-02T15:00:17.882Z</time></trkpt><trkpt lat="42.1542646" lon="13.2823158"><ele>727.6666666666667</ele><time>2026-05-02T15:00:18.879Z</time></trkpt><trkpt lat="42.1543869" lon="13.2821568"><ele>728.3333333333334</ele><time>2026-05-02T15:00:19.88Z</time></trkpt><trkpt lat="42.1545142" lon="13.2820193"><ele>729.0</ele><time>2026-05-02T15:00:20.884Z</time></trkpt><trkpt lat="42.154648" lon="13.2819094"><ele>729.0</ele><time>2026-05-02T15:00:21.898Z</time></trkpt><trkpt lat="42.1547867" lon="13.2818178"><ele>729.0</ele><time>2026-05-02T15:00:22.88Z</time></trkpt><trkpt lat="42.1549339" lon="13.2817351"><ele>729.0</ele><time>2026-05-02T15:00:23.886Z</time></trkpt><trkpt lat="42.1550829" lon="13.2816442"><ele>729.3333333333334</ele><time>2026-05-02T15:00:24.873Z</time></trkpt><trkpt lat="42.1552281" lon="13.2815258"><ele>729.6666666666667</ele><time>2026-05-02T15:00:25.883Z</time></trkpt><trkpt lat="42.1553706" lon="13.2813882"><ele>730.0</ele><time>2026-05-02T15:00:26.877Z</time></trkpt><trkpt lat="42.1555074" lon="13.2812455"><ele>730.0</ele><time>2026-05-02T15:00:27.884Z</time></trkpt><trkpt lat="42.1556462" lon="13.2811045"><ele>730.0</ele><time>2026-05-02T15:00:28.867Z</time></trkpt><trkpt lat="42.1557922" lon="13.2809709"><ele>730.0</ele><time>2026-05-02T15:00:29.874Z</time></trkpt><trkpt lat="42.1559495" lon="13.280842"><ele>731.3333333333334</ele><time>2026-05-02T15:00:30.878Z</time></trkpt><trkpt lat="42.1561108" lon="13.2807215"><ele>732.6666666666666</ele><time>2026-05-02T15:00:31.876Z</time></trkpt><trkpt lat="42.1562771" lon="13.2806015"><ele>734.0</ele><time>2026-05-02T15:00:32.878Z</time></trkpt><trkpt lat="42.1564419" lon="13.2804627"><ele>735.3333333333333</ele><time>2026-05-02T15:00:33.875Z</time></trkpt><trkpt lat="42.1566007" lon="13.2803149"><ele>736.6666666666666</ele><time>2026-05-02T15:00:34.903Z</time></trkpt><trkpt lat="42.1567508" lon="13.2801898"><ele>738.0</ele><time>2026-05-02T15:00:35.879Z</time></trkpt><trkpt lat="42.1569119" lon="13.2800736"><ele>738.0</ele><time>2026-05-02T15:00:36.901Z</time></trkpt><trkpt lat="42.1570773" lon="13.2799698"><ele>738.0</ele><time>2026-05-02T15:00:37.879Z</time></trkpt><trkpt lat="42.1572516" lon="13.2798747"><ele>738.0</ele><time>2026-05-02T15:00:38.875Z</time></trkpt><trkpt lat="42.1574318" lon="13.2797944"><ele>738.3333333333334</ele><time>2026-05-02T15:00:39.883Z</time></trkpt><trkpt lat="42.1576216" lon="13.2797255"><ele>738.6666666666667</ele><time>2026-05-02T15:00:40.884Z</time></trkpt><trkpt lat="42.1578079" lon="13.279662"><ele>739.0</ele><time>2026-05-02T15:00:41.882Z</time></trkpt><trkpt lat="42.1579878" lon="13.2796028"><ele>739.0</ele><time>2026-05-02T15:00:42.884Z</time></trkpt><trkpt lat="42.1581729" lon="13.279552"><ele>739.0</ele><time>2026-05-02T15:00:43.874Z</time></trkpt><trkpt lat="42.1583636" lon="13.279514"><ele>739.0</ele><time>2026-05-02T15:00:44.88Z</time></trkpt><trkpt lat="42.1585605" lon="13.2794831"><ele>740.3333333333334</ele><time>2026-05-02T15:00:45.878Z</time></trkpt><trkpt lat="42.1587525" lon="13.2794521"><ele>741.6666666666666</ele><time>2026-05-02T15:00:46.878Z</time></trkpt><trkpt lat="42.1589386" lon="13.2794217"><ele>743.0</ele><time>2026-05-02T15:00:47.88Z</time></trkpt><trkpt lat="42.1591192" lon="13.2793837"><ele>744.6666666666666</ele><time>2026-05-02T15:00:48.877Z</time></trkpt><trkpt lat="42.1593027" lon="13.2793327"><ele>746.3333333333334</ele><time>2026-05-02T15:00:49.894Z</time></trkpt><trkpt lat="42.1594863" lon="13.2792815"><ele>748.0</ele><time>2026-05-02T15:00:50.881Z</time></trkpt><trkpt lat="42.1596713" lon="13.2792267"><ele>748.0</ele><time>2026-05-02T15:00:51.885Z</time></trkpt><trkpt lat="42.1598657" lon="13.2791876"><ele>748.0</ele><time>2026-05-02T15:00:52.88Z</time></trkpt><trkpt lat="42.1600678" lon="13.2791425"><ele>748.0</ele><time>2026-05-02T15:00:53.879Z</time></trkpt><trkpt lat="42.1602693" lon="13.2790884"><ele>749.0</ele><time>2026-05-02T15:00:54.882Z</time></trkpt><trkpt lat="42.160473" lon="13.2790249"><ele>750.0</ele><time>2026-05-02T15:00:55.885Z</time></trkpt><trkpt lat="42.1606781" lon="13.2789593"><ele>751.0</ele><time>2026-05-02T15:00:56.874Z</time></trkpt><trkpt lat="42.160881" lon="13.2788948"><ele>752.0</ele><time>2026-05-02T15:00:57.884Z</time></trkpt><trkpt lat="42.1610824" lon="13.2788252"><ele>753.0</ele><time>2026-05-02T15:00:58.876Z</time></trkpt><trkpt lat="42.1612858" lon="13.2787537"><ele>754.0</ele><time>2026-05-02T15:00:59.895Z</time></trkpt><trkpt lat="42.161498" lon="13.2786848"><ele>755.0</ele><time>2026-05-02T15:01:00.895Z</time></trkpt><trkpt lat="42.1617127" lon="13.278615"><ele>756.0</ele><time>2026-05-02T15:01:01.893Z</time></trkpt><trkpt lat="42.1619288" lon="13.2785478"><ele>757.0</ele><time>2026-05-02T15:01:02.891Z</time></trkpt><trkpt lat="42.1621387" lon="13.2784761"><ele>757.0</ele><time>2026-05-02T15:01:03.89Z</time></trkpt><trkpt lat="42.16235" lon="13.2783994"><ele>757.0</ele><time>2026-05-02T15:01:04.893Z</time></trkpt><trkpt lat="42.1625499" lon="13.278326"><ele>757.0</ele><time>2026-05-02T15:01:05.877Z</time></trkpt><trkpt lat="42.1627298" lon="13.2782658"><ele>758.3333333333334</ele><time>2026-05-02T15:01:06.906Z</time></trkpt><trkpt lat="42.1628985" lon="13.2782176"><ele>759.6666666666666</ele><time>2026-05-02T15:01:07.897Z</time></trkpt><trkpt lat="42.1630577" lon="13.2781713"><ele>761.0</ele><time>2026-05-02T15:01:08.885Z</time></trkpt><trkpt lat="42.1632048" lon="13.2781324"><ele>762.0</ele><time>2026-05-02T15:01:09.89Z</time></trkpt><trkpt lat="42.1633403" lon="13.2780857"><ele>763.0</ele><time>2026-05-02T15:01:10.893Z</time></trkpt><trkpt lat="42.1634684" lon="13.2780244"><ele>764.0</ele><time>2026-05-02T15:01:11.888Z</time></trkpt><trkpt lat="42.163597" lon="13.2779508"><ele>765.0</ele><time>2026-05-02T15:01:12.873Z</time></trkpt><trkpt lat="42.1637081" lon="13.2778677"><ele>765.0</ele><time>2026-05-02T15:01:13.889Z</time></trkpt><trkpt lat="42.1638088" lon="13.2777781"><ele>765.0</ele><time>2026-05-02T15:01:14.89Z</time></trkpt><trkpt lat="42.1639015" lon="13.2776862"><ele>765.0</ele><time>2026-05-02T15:01:15.879Z</time></trkpt><trkpt lat="42.1639978" lon="13.2776088"><ele>765.0</ele><time>2026-05-02T15:01:16.902Z</time></trkpt><trkpt lat="42.1641007" lon="13.2775382"><ele>765.0</ele><time>2026-05-02T15:01:17.892Z</time></trkpt><trkpt lat="42.1642009" lon="13.2774914"><ele>765.0</ele><time>2026-05-02T15:01:18.876Z</time></trkpt><trkpt lat="42.1643021" lon="13.277467"><ele>765.0</ele><time>2026-05-02T15:01:19.879Z</time></trkpt><trkpt lat="42.164411" lon="13.2774582"><ele>765.0</ele><time>2026-05-02T15:01:20.881Z</time></trkpt><trkpt lat="42.1645308" lon="13.2774551"><ele>765.0</ele><time>2026-05-02T15:01:21.89Z</time></trkpt><trkpt lat="42.1646611" lon="13.2774554"><ele>765.0</ele><time>2026-05-02T15:01:22.892Z</time></trkpt><trkpt lat="42.1647999" lon="13.2774589"><ele>765.0</ele><time>2026-05-02T15:01:23.887Z</time></trkpt><trkpt lat="42.1649347" lon="13.2774646"><ele>765.0</ele><time>2026-05-02T15:01:24.89Z</time></trkpt><trkpt lat="42.1650654" lon="13.2774582"><ele>765.0</ele><time>2026-05-02T15:01:25.894Z</time></trkpt><trkpt lat="42.1651943" lon="13.2774488"><ele>764.5</ele><time>2026-05-02T15:01:26.882Z</time></trkpt><trkpt lat="42.1653179" lon="13.2774366"><ele>764.0</ele><time>2026-05-02T15:01:27.895Z</time></trkpt><trkpt lat="42.1654349" lon="13.2774284"><ele>763.5</ele><time>2026-05-02T15:01:28.882Z</time></trkpt><trkpt lat="42.1655514" lon="13.2774221"><ele>763.0</ele><time>2026-05-02T15:01:29.889Z</time></trkpt><trkpt lat="42.1656741" lon="13.2774251"><ele>762.5</ele><time>2026-05-02T15:01:30.883Z</time></trkpt><trkpt lat="42.1657889" lon="13.277424"><ele>762.0</ele><time>2026-05-02T15:01:31.885Z</time></trkpt><trkpt lat="42.1659075" lon="13.2774061"><ele>761.5</ele><time>2026-05-02T15:01:32.882Z</time></trkpt><trkpt lat="42.1660329" lon="13.2773706"><ele>761.0</ele><time>2026-05-02T15:01:33.886Z</time></trkpt><trkpt lat="42.1661519" lon="13.2773235"><ele>761.0</ele><time>2026-05-02T15:01:34.88Z</time></trkpt><trkpt lat="42.166273" lon="13.2772791"><ele>761.0</ele><time>2026-05-02T15:01:35.88Z</time></trkpt><trkpt lat="42.1663943" lon="13.2772308"><ele>761.0</ele><time>2026-05-02T15:01:36.895Z</time></trkpt><trkpt lat="42.1665036" lon="13.2771785"><ele>761.0</ele><time>2026-05-02T15:01:37.883Z</time></trkpt><trkpt lat="42.166612" lon="13.2771177"><ele>762.0</ele><time>2026-05-02T15:01:38.881Z</time></trkpt><trkpt lat="42.1667106" lon="13.2770639"><ele>763.0</ele><time>2026-05-02T15:01:39.876Z</time></trkpt><trkpt lat="42.1668181" lon="13.2770065"><ele>764.0</ele><time>2026-05-02T15:01:40.896Z</time></trkpt><trkpt lat="42.1669177" lon="13.2769744"><ele>765.0</ele><time>2026-05-02T15:01:41.893Z</time></trkpt><trkpt lat="42.1670087" lon="13.2769459"><ele>766.0</ele><time>2026-05-02T15:01:42.882Z</time></trkpt><trkpt lat="42.1670967" lon="13.2769229"><ele>766.0</ele><time>2026-05-02T15:01:43.886Z</time></trkpt><trkpt lat="42.1671851" lon="13.2769174"><ele>766.0</ele><time>2026-05-02T15:01:44.89Z</time></trkpt><trkpt lat="42.1672732" lon="13.2769281"><ele>766.0</ele><time>2026-05-02T15:01:45.879Z</time></trkpt><trkpt lat="42.167345" lon="13.2769386"><ele>766.0</ele><time>2026-05-02T15:01:46.887Z</time></trkpt><trkpt lat="42.1674359" lon="13.2769149"><ele>766.0</ele><time>2026-05-02T15:01:48.884Z</time></trkpt><trkpt lat="42.167479" lon="13.2768107"><ele>766.0</ele><time>2026-05-02T15:01:50.876Z</time></trkpt><trkpt lat="42.1675294" lon="13.2766722"><ele>767.8333333333334</ele><time>2026-05-02T15:01:52.876Z</time></trkpt><trkpt lat="42.1675844" lon="13.27658"><ele>769.6666666666667</ele><time>2026-05-02T15:01:53.867Z</time></trkpt><trkpt lat="42.1676403" lon="13.2764808"><ele>771.5</ele><time>2026-05-02T15:01:54.873Z</time></trkpt><trkpt lat="42.1676945" lon="13.2764062"><ele>773.3333333333334</ele><time>2026-05-02T15:01:55.889Z</time></trkpt><trkpt lat="42.1677166" lon="13.2763253"><ele>775.1666666666666</ele><time>2026-05-02T15:01:56.89Z</time></trkpt><trkpt lat="42.1677791" lon="13.2762353"><ele>777.0</ele><time>2026-05-02T15:01:58.877Z</time></trkpt><trkpt lat="42.1678894" lon="13.2762085"><ele>777.8333333333334</ele><time>2026-05-02T15:02:00.882Z</time></trkpt><trkpt lat="42.1679656" lon="13.2762321"><ele>778.6666666666667</ele><time>2026-05-02T15:02:01.88Z</time></trkpt><trkpt lat="42.1680473" lon="13.2762679"><ele>779.5</ele><time>2026-05-02T15:02:02.885Z</time></trkpt><trkpt lat="42.168134" lon="13.2762955"><ele>780.3333333333334</ele><time>2026-05-02T15:02:03.882Z</time></trkpt><trkpt lat="42.1682211" lon="13.2763065"><ele>781.1666666666667</ele><time>2026-05-02T15:02:04.904Z</time></trkpt><trkpt lat="42.1683272" lon="13.2762967"><ele>782.0</ele><time>2026-05-02T15:02:05.886Z</time></trkpt><trkpt lat="42.1684312" lon="13.2762692"><ele>782.0</ele><time>2026-05-02T15:02:06.884Z</time></trkpt><trkpt lat="42.1685358" lon="13.2762378"><ele>782.0</ele><time>2026-05-02T15:02:07.886Z</time></trkpt><trkpt lat="42.1686412" lon="13.276201"><ele>782.0</ele><time>2026-05-02T15:02:08.881Z</time></trkpt><trkpt lat="42.1687506" lon="13.2761725"><ele>782.0</ele><time>2026-05-02T15:02:09.905Z</time></trkpt><trkpt lat="42.1688593" lon="13.276143"><ele>782.0</ele><time>2026-05-02T15:02:10.88Z</time></trkpt><trkpt lat="42.1689722" lon="13.276109"><ele>783.75</ele><time>2026-05-02T15:02:11.883Z</time></trkpt><trkpt lat="42.1690851" lon="13.276077"><ele>785.5</ele><time>2026-05-02T15:02:12.899Z</time></trkpt><trkpt lat="42.169199" lon="13.2760386"><ele>787.25</ele><time>2026-05-02T15:02:13.9Z</time></trkpt><trkpt lat="42.1693272" lon="13.2760018"><ele>789.0</ele><time>2026-05-02T15:02:14.882Z</time></trkpt><trkpt lat="42.1694657" lon="13.2759543"><ele>789.0</ele><time>2026-05-02T15:02:15.888Z</time></trkpt><trkpt lat="42.1696056" lon="13.2759123"><ele>789.0</ele><time>2026-05-02T15:02:16.888Z</time></trkpt><trkpt lat="42.1697401" lon="13.2758746"><ele>789.0</ele><time>2026-05-02T15:02:17.89Z</time></trkpt><trkpt lat="42.1698736" lon="13.275833"><ele>789.0</ele><time>2026-05-02T15:02:18.884Z</time></trkpt><trkpt lat="42.1700102" lon="13.2757886"><ele>790.25</ele><time>2026-05-02T15:02:19.882Z</time></trkpt><trkpt lat="42.1701472" lon="13.2757525"><ele>791.5</ele><time>2026-05-02T15:02:20.894Z</time></trkpt><trkpt lat="42.1702745" lon="13.2757237"><ele>792.75</ele><time>2026-05-02T15:02:21.883Z</time></trkpt><trkpt lat="42.1703828" lon="13.2757057"><ele>794.0</ele><time>2026-05-02T15:02:22.889Z</time></trkpt><trkpt lat="42.1704829" lon="13.2756893"><ele>794.0000000000001</ele><time>2026-05-02T15:02:23.892Z</time></trkpt><trkpt lat="42.1705737" lon="13.2756737"><ele>794.0</ele><time>2026-05-02T15:02:24.897Z</time></trkpt><trkpt lat="42.1706554" lon="13.2756607"><ele>794.0</ele><time>2026-05-02T15:02:25.887Z</time></trkpt><trkpt lat="42.1707253" lon="13.2756382"><ele>794.0</ele><time>2026-05-02T15:02:26.887Z</time></trkpt><trkpt lat="42.1708364" lon="13.2756188"><ele>794.0000000000001</ele><time>2026-05-02T15:02:28.876Z</time></trkpt><trkpt lat="42.1708993" lon="13.2756031"><ele>794.0</ele><time>2026-05-02T15:02:29.906Z</time></trkpt><trkpt lat="42.1709751" lon="13.2756053"><ele>794.6</ele><time>2026-05-02T15:02:30.902Z</time></trkpt><trkpt lat="42.1710706" lon="13.2756005"><ele>795.2</ele><time>2026-05-02T15:02:31.88Z</time></trkpt><trkpt lat="42.1711728" lon="13.2756125"><ele>795.8000000000001</ele><time>2026-05-02T15:02:32.873Z</time></trkpt><trkpt lat="42.1712807" lon="13.2756317"><ele>796.4000000000001</ele><time>2026-05-02T15:02:33.875Z</time></trkpt><trkpt lat="42.1713981" lon="13.2756577"><ele>797.0</ele><time>2026-05-02T15:02:34.887Z</time></trkpt><trkpt lat="42.1715214" lon="13.2756989"><ele>798.0</ele><time>2026-05-02T15:02:35.907Z</time></trkpt><trkpt lat="42.1716461" lon="13.2757661"><ele>799.0</ele><time>2026-05-02T15:02:36.886Z</time></trkpt><trkpt lat="42.1717671" lon="13.2758508"><ele>800.0</ele><time>2026-05-02T15:02:37.889Z</time></trkpt><trkpt lat="42.1718964" lon="13.2759223"><ele>801.0</ele><time>2026-05-02T15:02:38.89Z</time></trkpt><trkpt lat="42.1720297" lon="13.2759829"><ele>801.0</ele><time>2026-05-02T15:02:39.893Z</time></trkpt><trkpt lat="42.1721749" lon="13.2760387"><ele>801.0</ele><time>2026-05-02T15:02:40.895Z</time></trkpt><trkpt lat="42.1723191" lon="13.2760968"><ele>801.0</ele><time>2026-05-02T15:02:41.883Z</time></trkpt><trkpt lat="42.1724577" lon="13.2761576"><ele>801.0</ele><time>2026-05-02T15:02:42.906Z</time></trkpt><trkpt lat="42.1725961" lon="13.2762208"><ele>801.25</ele><time>2026-05-02T15:02:43.888Z</time></trkpt><trkpt lat="42.1727201" lon="13.2762768"><ele>801.5</ele><time>2026-05-02T15:02:44.894Z</time></trkpt><trkpt lat="42.1728371" lon="13.2763259"><ele>801.75</ele><time>2026-05-02T15:02:45.895Z</time></trkpt><trkpt lat="42.1729552" lon="13.2763593"><ele>802.0</ele><time>2026-05-02T15:02:46.887Z</time></trkpt><trkpt lat="42.17307" lon="13.2763799"><ele>802.0</ele><time>2026-05-02T15:02:47.88Z</time></trkpt><trkpt lat="42.1731724" lon="13.2763822"><ele>802.0</ele><time>2026-05-02T15:02:48.892Z</time></trkpt><trkpt lat="42.1732507" lon="13.2763528"><ele>802.0</ele><time>2026-05-02T15:02:49.882Z</time></trkpt><trkpt lat="42.1733233" lon="13.2763064"><ele>802.0</ele><time>2026-05-02T15:02:50.869Z</time></trkpt><trkpt lat="42.1734026" lon="13.2762553"><ele>802.0</ele><time>2026-05-02T15:02:51.884Z</time></trkpt><trkpt lat="42.1734964" lon="13.2762108"><ele>804.5</ele><time>2026-05-02T15:02:52.878Z</time></trkpt><trkpt lat="42.1735947" lon="13.2761875"><ele>807.0</ele><time>2026-05-02T15:02:53.888Z</time></trkpt><trkpt lat="42.1737031" lon="13.2761546"><ele>809.5</ele><time>2026-05-02T15:02:54.881Z</time></trkpt><trkpt lat="42.1738224" lon="13.2761316"><ele>812.0</ele><time>2026-05-02T15:02:55.884Z</time></trkpt><trkpt lat="42.1739392" lon="13.2760977"><ele>814.2</ele><time>2026-05-02T15:02:56.873Z</time></trkpt><trkpt lat="42.1740251" lon="13.2760847"><ele>816.4000000000001</ele><time>2026-05-02T15:02:57.885Z</time></trkpt><trkpt lat="42.1741002" lon="13.2760991"><ele>818.5999999999999</ele><time>2026-05-02T15:02:58.897Z</time></trkpt><trkpt lat="42.1741711" lon="13.2761471"><ele>820.8</ele><time>2026-05-02T15:02:59.887Z</time></trkpt><trkpt lat="42.1742597" lon="13.2762312"><ele>823.0</ele><time>2026-05-02T15:03:00.903Z</time></trkpt><trkpt lat="42.1743665" lon="13.276357"><ele>823.6666666666666</ele><time>2026-05-02T15:03:01.9Z</time></trkpt><trkpt lat="42.174491" lon="13.2764717"><ele>824.3333333333333</ele><time>2026-05-02T15:03:02.881Z</time></trkpt><trkpt lat="42.1746453" lon="13.2765574"><ele>825.0</ele><time>2026-05-02T15:03:03.892Z</time></trkpt><trkpt lat="42.1747853" lon="13.2765967"><ele>826.0</ele><time>2026-05-02T15:03:04.883Z</time></trkpt><trkpt lat="42.1749101" lon="13.2765894"><ele>827.0</ele><time>2026-05-02T15:03:05.879Z</time></trkpt><trkpt lat="42.1750133" lon="13.2765424"><ele>828.0</ele><time>2026-05-02T15:03:06.89Z</time></trkpt><trkpt lat="42.1751201" lon="13.2764645"><ele>829.0</ele><time>2026-05-02T15:03:07.904Z</time></trkpt><trkpt lat="42.1751957" lon="13.2763748"><ele>829.1666666666666</ele><time>2026-05-02T15:03:08.88Z</time></trkpt><trkpt lat="42.1752509" lon="13.2762947"><ele>829.3333333333333</ele><time>2026-05-02T15:03:09.893Z</time></trkpt><trkpt lat="42.1753172" lon="13.2761829"><ele>829.5</ele><time>2026-05-02T15:03:11.888Z</time></trkpt><trkpt lat="42.1753613" lon="13.2760752"><ele>829.6666666666667</ele><time>2026-05-02T15:03:13.883Z</time></trkpt><trkpt lat="42.1754056" lon="13.275982"><ele>829.8333333333334</ele><time>2026-05-02T15:03:16.904Z</time></trkpt><trkpt lat="42.1754436" lon="13.2759026"><ele>830.0</ele><time>2026-05-02T15:03:19.9Z</time></trkpt><trkpt lat="42.1754782" lon="13.2758144"><ele>830.0</ele><time>2026-05-02T15:03:21.892Z</time></trkpt><trkpt lat="42.1755143" lon="13.2757278"><ele>830.0</ele><time>2026-05-02T15:03:23.88Z</time></trkpt><trkpt lat="42.1755683" lon="13.2756219"><ele>830.0</ele><time>2026-05-02T15:03:25.876Z</time></trkpt><trkpt lat="42.1756408" lon="13.2754984"><ele>830.0</ele><time>2026-05-02T15:03:27.878Z</time></trkpt><trkpt lat="42.175765" lon="13.2754203"><ele>830.0</ele><time>2026-05-02T15:03:29.888Z</time></trkpt><trkpt lat="42.1758539" lon="13.2753883"><ele>830.0</ele><time>2026-05-02T15:03:30.891Z</time></trkpt><trkpt lat="42.1759598" lon="13.2753612"><ele>830.0</ele><time>2026-05-02T15:03:31.885Z</time></trkpt><trkpt lat="42.1760676" lon="13.2753302"><ele>830.0</ele><time>2026-05-02T15:03:32.888Z</time></trkpt><trkpt lat="42.1761823" lon="13.275294"><ele>830.0</ele><time>2026-05-02T15:03:33.889Z</time></trkpt><trkpt lat="42.1762954" lon="13.2752595"><ele>830.0</ele><time>2026-05-02T15:03:34.88Z</time></trkpt><trkpt lat="42.1764035" lon="13.2752306"><ele>830.0</ele><time>2026-05-02T15:03:35.894Z</time></trkpt><trkpt lat="42.1765099" lon="13.275202"><ele>830.0</ele><time>2026-05-02T15:03:36.893Z</time></trkpt><trkpt lat="42.1766141" lon="13.2751719"><ele>830.0</ele><time>2026-05-02T15:03:37.886Z</time></trkpt><trkpt lat="42.1767168" lon="13.2751365"><ele>830.0</ele><time>2026-05-02T15:03:38.885Z</time></trkpt><trkpt lat="42.1768167" lon="13.275105"><ele>828.6666666666667</ele><time>2026-05-02T15:03:39.889Z</time></trkpt><trkpt lat="42.1769068" lon="13.2750705"><ele>827.3333333333334</ele><time>2026-05-02T15:03:40.89Z</time></trkpt><trkpt lat="42.1769929" lon="13.2750412"><ele>826.0</ele><time>2026-05-02T15:03:41.887Z</time></trkpt><trkpt lat="42.1770668" lon="13.2750168"><ele>824.6666666666667</ele><time>2026-05-02T15:03:42.894Z</time></trkpt><trkpt lat="42.1771305" lon="13.2749989"><ele>823.3333333333334</ele><time>2026-05-02T15:03:43.899Z</time></trkpt><trkpt lat="42.1772159" lon="13.2749968"><ele>822.0</ele><time>2026-05-02T15:03:45.89Z</time></trkpt><trkpt lat="42.1773343" lon="13.2750395"><ele>821.4000000000001</ele><time>2026-05-02T15:03:47.889Z</time></trkpt><trkpt lat="42.1774385" lon="13.2750621"><ele>820.8000000000001</ele><time>2026-05-02T15:03:49.899Z</time></trkpt><trkpt lat="42.1775167" lon="13.2751027"><ele>820.2</ele><time>2026-05-02T15:03:51.883Z</time></trkpt><trkpt lat="42.1775443" lon="13.2752016"><ele>819.6</ele><time>2026-05-02T15:03:53.882Z</time></trkpt><trkpt lat="42.1775277" lon="13.2753184"><ele>819.0</ele><time>2026-05-02T15:03:55.888Z</time></trkpt><trkpt lat="42.1775258" lon="13.2754674"><ele>819.0</ele><time>2026-05-02T15:03:57.907Z</time></trkpt><trkpt lat="42.1775347" lon="13.2755555"><ele>819.0</ele><time>2026-05-02T15:03:58.899Z</time></trkpt><trkpt lat="42.1775453" lon="13.2756462"><ele>819.0</ele><time>2026-05-02T15:03:59.875Z</time></trkpt><trkpt lat="42.1775658" lon="13.2757415"><ele>819.0</ele><time>2026-05-02T15:04:00.89Z</time></trkpt><trkpt lat="42.1776048" lon="13.2758772"><ele>819.0</ele><time>2026-05-02T15:04:02.902Z</time></trkpt><trkpt lat="42.1776407" lon="13.2760222"><ele>819.0</ele><time>2026-05-02T15:04:04.897Z</time></trkpt><trkpt lat="42.1776515" lon="13.2761916"><ele>819.2</ele><time>2026-05-02T15:04:06.896Z</time></trkpt><trkpt lat="42.17765" lon="13.2763098"><ele>819.4000000000001</ele><time>2026-05-02T15:04:07.889Z</time></trkpt><trkpt lat="42.1776437" lon="13.2764393"><ele>819.6</ele><time>2026-05-02T15:04:08.893Z</time></trkpt><trkpt lat="42.1776343" lon="13.276575"><ele>819.8</ele><time>2026-05-02T15:04:09.897Z</time></trkpt><trkpt lat="42.1776135" lon="13.2767174"><ele>820.0</ele><time>2026-05-02T15:04:10.91Z</time></trkpt><trkpt lat="42.1775869" lon="13.2768762"><ele>820.5</ele><time>2026-05-02T15:04:11.882Z</time></trkpt><trkpt lat="42.1775705" lon="13.2770623"><ele>821.0</ele><time>2026-05-02T15:04:12.892Z</time></trkpt><trkpt lat="42.1775664" lon="13.2772603"><ele>821.5</ele><time>2026-05-02T15:04:13.878Z</time></trkpt><trkpt lat="42.1775598" lon="13.2774583"><ele>822.0</ele><time>2026-05-02T15:04:14.879Z</time></trkpt><trkpt lat="42.1775539" lon="13.2776511"><ele>822.5</ele><time>2026-05-02T15:04:15.892Z</time></trkpt><trkpt lat="42.1775371" lon="13.2778252"><ele>823.0</ele><time>2026-05-02T15:04:16.873Z</time></trkpt><trkpt lat="42.1775058" lon="13.2779809"><ele>823.5</ele><time>2026-05-02T15:04:17.885Z</time></trkpt><trkpt lat="42.1774625" lon="13.2781128"><ele>824.0</ele><time>2026-05-02T15:04:18.888Z</time></trkpt><trkpt lat="42.1774041" lon="13.2782285"><ele>825.8000000000001</ele><time>2026-05-02T15:04:19.895Z</time></trkpt><trkpt lat="42.1773268" lon="13.2783414"><ele>827.6</ele><time>2026-05-02T15:04:20.884Z</time></trkpt><trkpt lat="42.177243" lon="13.2784502"><ele>829.4</ele><time>2026-05-02T15:04:21.889Z</time></trkpt><trkpt lat="42.1771661" lon="13.2785621"><ele>831.2</ele><time>2026-05-02T15:04:22.881Z</time></trkpt><trkpt lat="42.1771141" lon="13.2786761"><ele>833.0</ele><time>2026-05-02T15:04:23.875Z</time></trkpt><trkpt lat="42.177066" lon="13.2787624"><ele>833.0</ele><time>2026-05-02T15:04:24.889Z</time></trkpt><trkpt lat="42.1770151" lon="13.2788495"><ele>833.0</ele><time>2026-05-02T15:04:25.891Z</time></trkpt><trkpt lat="42.1769658" lon="13.2789128"><ele>833.0</ele><time>2026-05-02T15:04:26.891Z</time></trkpt><trkpt lat="42.1769133" lon="13.2789832"><ele>833.0</ele><time>2026-05-02T15:04:29.884Z</time></trkpt><trkpt lat="42.1769498" lon="13.2790775"><ele>833.0</ele><time>2026-05-02T15:04:31.888Z</time></trkpt><trkpt lat="42.1769936" lon="13.2791539"><ele>833.0</ele><time>2026-05-02T15:04:32.889Z</time></trkpt><trkpt lat="42.177036" lon="13.2792361"><ele>833.0</ele><time>2026-05-02T15:04:33.883Z</time></trkpt><trkpt lat="42.1770729" lon="13.279327"><ele>833.4</ele><time>2026-05-02T15:04:34.896Z</time></trkpt><trkpt lat="42.1771151" lon="13.2794566"><ele>833.8</ele><time>2026-05-02T15:04:35.883Z</time></trkpt><trkpt lat="42.1771587" lon="13.2795786"><ele>834.2</ele><time>2026-05-02T15:04:36.894Z</time></trkpt><trkpt lat="42.1772236" lon="13.2796998"><ele>834.6</ele><time>2026-05-02T15:04:37.885Z</time></trkpt><trkpt lat="42.1772948" lon="13.2798307"><ele>835.0</ele><time>2026-05-02T15:04:38.883Z</time></trkpt><trkpt lat="42.1773695" lon="13.2799907"><ele>835.25</ele><time>2026-05-02T15:04:39.898Z</time></trkpt><trkpt lat="42.1774494" lon="13.280157"><ele>835.5</ele><time>2026-05-02T15:04:40.886Z</time></trkpt><trkpt lat="42.177532" lon="13.2803204"><ele>835.75</ele><time>2026-05-02T15:04:41.889Z</time></trkpt><trkpt lat="42.177619" lon="13.2804789"><ele>836.0</ele><time>2026-05-02T15:04:42.891Z</time></trkpt><trkpt lat="42.1777018" lon="13.2806327"><ele>836.75</ele><time>2026-05-02T15:04:43.891Z</time></trkpt><trkpt lat="42.1777824" lon="13.280788"><ele>837.5</ele><time>2026-05-02T15:04:44.878Z</time></trkpt><trkpt lat="42.1778588" lon="13.2809439"><ele>838.25</ele><time>2026-05-02T15:04:45.884Z</time></trkpt><trkpt lat="42.17793" lon="13.2810889"><ele>839.0</ele><time>2026-05-02T15:04:46.898Z</time></trkpt><trkpt lat="42.1779961" lon="13.2812258"><ele>839.0</ele><time>2026-05-02T15:04:47.9Z</time></trkpt><trkpt lat="42.1780579" lon="13.2813599"><ele>839.0</ele><time>2026-05-02T15:04:48.899Z</time></trkpt><trkpt lat="42.1781221" lon="13.2814785"><ele>839.0</ele><time>2026-05-02T15:04:49.892Z</time></trkpt><trkpt lat="42.1782132" lon="13.2815739"><ele>839.0</ele><time>2026-05-02T15:04:50.886Z</time></trkpt><trkpt lat="42.1783223" lon="13.2816579"><ele>839.3333333333334</ele><time>2026-05-02T15:04:51.89Z</time></trkpt><trkpt lat="42.1784293" lon="13.2817344"><ele>839.6666666666667</ele><time>2026-05-02T15:04:52.88Z</time></trkpt><trkpt lat="42.1785208" lon="13.2817869"><ele>840.0</ele><time>2026-05-02T15:04:53.89Z</time></trkpt><trkpt lat="42.1786033" lon="13.2818047"><ele>840.3333333333333</ele><time>2026-05-02T15:04:54.881Z</time></trkpt><trkpt lat="42.1786701" lon="13.2818067"><ele>840.6666666666666</ele><time>2026-05-02T15:04:55.891Z</time></trkpt><trkpt lat="42.1787356" lon="13.281789"><ele>841.0</ele><time>2026-05-02T15:04:57.895Z</time></trkpt><trkpt lat="42.1787991" lon="13.2817258"><ele>840.9999999999999</ele><time>2026-05-02T15:04:59.898Z</time></trkpt><trkpt lat="42.1788576" lon="13.2816693"><ele>841.0</ele><time>2026-05-02T15:05:00.885Z</time></trkpt><trkpt lat="42.1789256" lon="13.2816101"><ele>841.0</ele><time>2026-05-02T15:05:01.892Z</time></trkpt><trkpt lat="42.1790029" lon="13.2815697"><ele>841.0</ele><time>2026-05-02T15:05:02.89Z</time></trkpt><trkpt lat="42.1790751" lon="13.2815511"><ele>840.9999999999999</ele><time>2026-05-02T15:05:03.88Z</time></trkpt><trkpt lat="42.1791843" lon="13.2816166"><ele>841.0</ele><time>2026-05-02T15:05:05.872Z</time></trkpt><trkpt lat="42.1792242" lon="13.2816886"><ele>839.8333333333333</ele><time>2026-05-02T15:05:06.878Z</time></trkpt><trkpt lat="42.1792583" lon="13.2817749"><ele>838.6666666666666</ele><time>2026-05-02T15:05:07.883Z</time></trkpt><trkpt lat="42.1793229" lon="13.2818331"><ele>837.5</ele><time>2026-05-02T15:05:09.881Z</time></trkpt><trkpt lat="42.1793739" lon="13.2817484"><ele>836.3333333333333</ele><time>2026-05-02T15:05:11.877Z</time></trkpt><trkpt lat="42.1793987" lon="13.2816626"><ele>835.1666666666666</ele><time>2026-05-02T15:05:12.881Z</time></trkpt><trkpt lat="42.1794371" lon="13.2815721"><ele>834.0</ele><time>2026-05-02T15:05:13.884Z</time></trkpt><trkpt lat="42.1794798" lon="13.2814897"><ele>833.2</ele><time>2026-05-02T15:05:14.882Z</time></trkpt><trkpt lat="42.1795208" lon="13.2814198"><ele>832.4000000000001</ele><time>2026-05-02T15:05:15.888Z</time></trkpt><trkpt lat="42.1795856" lon="13.2813336"><ele>831.6</ele><time>2026-05-02T15:05:16.892Z</time></trkpt><trkpt lat="42.1796549" lon="13.2812011"><ele>830.8</ele><time>2026-05-02T15:05:17.888Z</time></trkpt><trkpt lat="42.1797251" lon="13.2810391"><ele>830.0</ele><time>2026-05-02T15:05:18.884Z</time></trkpt><trkpt lat="42.1798018" lon="13.2808642"><ele>828.3333333333334</ele><time>2026-05-02T15:05:19.886Z</time></trkpt><trkpt lat="42.1798911" lon="13.2806858"><ele>826.6666666666667</ele><time>2026-05-02T15:05:20.888Z</time></trkpt><trkpt lat="42.1799927" lon="13.2804941"><ele>825.0</ele><time>2026-05-02T15:05:21.892Z</time></trkpt><trkpt lat="42.1801028" lon="13.2802979"><ele>825.0</ele><time>2026-05-02T15:05:22.893Z</time></trkpt><trkpt lat="42.1802204" lon="13.2801215"><ele>825.0</ele><time>2026-05-02T15:05:23.886Z</time></trkpt><trkpt lat="42.1803468" lon="13.2799674"><ele>825.0</ele><time>2026-05-02T15:05:24.908Z</time></trkpt><trkpt lat="42.1804704" lon="13.2798322"><ele>824.2</ele><time>2026-05-02T15:05:25.881Z</time></trkpt><trkpt lat="42.1805841" lon="13.2797184"><ele>823.4</ele><time>2026-05-02T15:05:26.882Z</time></trkpt><trkpt lat="42.1806716" lon="13.2796113"><ele>822.5999999999999</ele><time>2026-05-02T15:05:27.906Z</time></trkpt><trkpt lat="42.1807117" lon="13.2795199"><ele>821.8</ele><time>2026-05-02T15:05:28.886Z</time></trkpt><trkpt lat="42.180709" lon="13.2794333"><ele>821.0</ele><time>2026-05-02T15:05:29.879Z</time></trkpt><trkpt lat="42.1806858" lon="13.2793515"><ele>820.8</ele><time>2026-05-02T15:05:30.876Z</time></trkpt><trkpt lat="42.180659" lon="13.279247"><ele>820.5999999999999</ele><time>2026-05-02T15:05:31.881Z</time></trkpt><trkpt lat="42.1806278" lon="13.2791294"><ele>820.4</ele><time>2026-05-02T15:05:32.878Z</time></trkpt><trkpt lat="42.1806003" lon="13.2789962"><ele>820.2</ele><time>2026-05-02T15:05:33.889Z</time></trkpt><trkpt lat="42.1805771" lon="13.2788466"><ele>820.0</ele><time>2026-05-02T15:05:34.882Z</time></trkpt><trkpt lat="42.1805725" lon="13.2786862"><ele>819.75</ele><time>2026-05-02T15:05:35.886Z</time></trkpt><trkpt lat="42.1805926" lon="13.2785012"><ele>819.5</ele><time>2026-05-02T15:05:36.892Z</time></trkpt><trkpt lat="42.1806184" lon="13.278302"><ele>819.25</ele><time>2026-05-02T15:05:37.897Z</time></trkpt><trkpt lat="42.1806499" lon="13.2780926"><ele>819.0</ele><time>2026-05-02T15:05:38.883Z</time></trkpt><trkpt lat="42.1806739" lon="13.2778749"><ele>817.6666666666667</ele><time>2026-05-02T15:05:39.886Z</time></trkpt><trkpt lat="42.180702" lon="13.2776383"><ele>816.3333333333334</ele><time>2026-05-02T15:05:40.901Z</time></trkpt><trkpt lat="42.180736" lon="13.2773836"><ele>815.0</ele><time>2026-05-02T15:05:41.882Z</time></trkpt><trkpt lat="42.1807702" lon="13.2771214"><ele>814.3333333333334</ele><time>2026-05-02T15:05:42.89Z</time></trkpt><trkpt lat="42.1808116" lon="13.2768552"><ele>813.6666666666667</ele><time>2026-05-02T15:05:43.883Z</time></trkpt><trkpt lat="42.1808509" lon="13.2765976"><ele>813.0</ele><time>2026-05-02T15:05:44.895Z</time></trkpt><trkpt lat="42.1808907" lon="13.2763548"><ele>812.3333333333333</ele><time>2026-05-02T15:05:45.887Z</time></trkpt><trkpt lat="42.1809266" lon="13.2761243"><ele>811.6666666666666</ele><time>2026-05-02T15:05:46.905Z</time></trkpt><trkpt lat="42.1809654" lon="13.2759097"><ele>811.0</ele><time>2026-05-02T15:05:47.89Z</time></trkpt><trkpt lat="42.1810027" lon="13.2757025"><ele>810.5</ele><time>2026-05-02T15:05:48.884Z</time></trkpt><trkpt lat="42.1810416" lon="13.2755082"><ele>810.0</ele><time>2026-05-02T15:05:49.889Z</time></trkpt><trkpt lat="42.1810755" lon="13.275325"><ele>809.5</ele><time>2026-05-02T15:05:50.88Z</time></trkpt><trkpt lat="42.181115" lon="13.2751385"><ele>809.0</ele><time>2026-05-02T15:05:51.886Z</time></trkpt><trkpt lat="42.1811531" lon="13.2749641"><ele>809.0</ele><time>2026-05-02T15:05:52.882Z</time></trkpt><trkpt lat="42.1811913" lon="13.2747967"><ele>809.0</ele><time>2026-05-02T15:05:53.882Z</time></trkpt><trkpt lat="42.1812241" lon="13.2746315"><ele>809.0</ele><time>2026-05-02T15:05:54.885Z</time></trkpt><trkpt lat="42.1812639" lon="13.2744773"><ele>809.0</ele><time>2026-05-02T15:05:55.878Z</time></trkpt><trkpt lat="42.1813045" lon="13.2743258"><ele>808.3333333333334</ele><time>2026-05-02T15:05:56.898Z</time></trkpt><trkpt lat="42.1813443" lon="13.2741921"><ele>807.6666666666667</ele><time>2026-05-02T15:05:57.882Z</time></trkpt><trkpt lat="42.1813766" lon="13.2740786"><ele>807.0</ele><time>2026-05-02T15:05:58.888Z</time></trkpt><trkpt lat="42.1814064" lon="13.2740037"><ele>806.3333333333333</ele><time>2026-05-02T15:05:59.881Z</time></trkpt><trkpt lat="42.1814188" lon="13.2738933"><ele>805.6666666666666</ele><time>2026-05-02T15:06:02.894Z</time></trkpt><trkpt lat="42.1814271" lon="13.2737874"><ele>805.0</ele><time>2026-05-02T15:06:11.917Z</time></trkpt><trkpt lat="42.1815248" lon="13.2736891"><ele>804.6</ele><time>2026-05-02T15:06:13.918Z</time></trkpt><trkpt lat="42.1815857" lon="13.2736407"><ele>804.2</ele><time>2026-05-02T15:06:14.885Z</time></trkpt><trkpt lat="42.1816608" lon="13.2735702"><ele>803.8</ele><time>2026-05-02T15:06:15.918Z</time></trkpt><trkpt lat="42.1817294" lon="13.2734936"><ele>803.4</ele><time>2026-05-02T15:06:16.896Z</time></trkpt><trkpt lat="42.1817963" lon="13.273397"><ele>803.0</ele><time>2026-05-02T15:06:17.908Z</time></trkpt><trkpt lat="42.1818677" lon="13.2732899"><ele>803.0</ele><time>2026-05-02T15:06:18.914Z</time></trkpt><trkpt lat="42.1819292" lon="13.2732005"><ele>803.0</ele><time>2026-05-02T15:06:19.895Z</time></trkpt><trkpt lat="42.1819858" lon="13.2731094"><ele>803.0</ele><time>2026-05-02T15:06:20.894Z</time></trkpt><trkpt lat="42.1820441" lon="13.2730045"><ele>803.0</ele><time>2026-05-02T15:06:21.91Z</time></trkpt><trkpt lat="42.182108" lon="13.2729006"><ele>803.0</ele><time>2026-05-02T15:06:22.904Z</time></trkpt><trkpt lat="42.1821843" lon="13.2727982"><ele>802.75</ele><time>2026-05-02T15:06:23.893Z</time></trkpt><trkpt lat="42.1822756" lon="13.2726965"><ele>802.5</ele><time>2026-05-02T15:06:24.911Z</time></trkpt><trkpt lat="42.1823826" lon="13.2725827"><ele>802.25</ele><time>2026-05-02T15:06:25.899Z</time></trkpt><trkpt lat="42.1824972" lon="13.2724708"><ele>802.0</ele><time>2026-05-02T15:06:26.898Z</time></trkpt><trkpt lat="42.1826201" lon="13.272317"><ele>802.0</ele><time>2026-05-02T15:06:27.884Z</time></trkpt><trkpt lat="42.1827323" lon="13.2721471"><ele>802.0</ele><time>2026-05-02T15:06:28.881Z</time></trkpt><trkpt lat="42.1828392" lon="13.2719902"><ele>802.0</ele><time>2026-05-02T15:06:29.886Z</time></trkpt><trkpt lat="42.1829342" lon="13.2718444"><ele>802.0</ele><time>2026-05-02T15:06:30.876Z</time></trkpt><trkpt lat="42.1830149" lon="13.2717006"><ele>802.0</ele><time>2026-05-02T15:06:31.883Z</time></trkpt><trkpt lat="42.1830796" lon="13.2715602"><ele>802.0</ele><time>2026-05-02T15:06:32.894Z</time></trkpt><trkpt lat="42.183134" lon="13.2714037"><ele>802.0</ele><time>2026-05-02T15:06:33.886Z</time></trkpt><trkpt lat="42.1831958" lon="13.2712412"><ele>801.6</ele><time>2026-05-02T15:06:34.895Z</time></trkpt><trkpt lat="42.183273" lon="13.2711052"><ele>801.2</ele><time>2026-05-02T15:06:35.875Z</time></trkpt><trkpt lat="42.1833511" lon="13.2709877"><ele>800.8</ele><time>2026-05-02T15:06:36.887Z</time></trkpt><trkpt lat="42.1834291" lon="13.2709371"><ele>800.4</ele><time>2026-05-02T15:06:37.883Z</time></trkpt><trkpt lat="42.1835217" lon="13.2709256"><ele>800.0</ele><time>2026-05-02T15:06:38.881Z</time></trkpt><trkpt lat="42.1836395" lon="13.2709245"><ele>800.0</ele><time>2026-05-02T15:06:39.892Z</time></trkpt><trkpt lat="42.1837789" lon="13.2709437"><ele>800.0</ele><time>2026-05-02T15:06:40.893Z</time></trkpt><trkpt lat="42.183929" lon="13.2709437"><ele>800.0</ele><time>2026-05-02T15:06:41.879Z</time></trkpt><trkpt lat="42.1840792" lon="13.2709159"><ele>800.0</ele><time>2026-05-02T15:06:42.888Z</time></trkpt><trkpt lat="42.1842291" lon="13.2708909"><ele>800.0</ele><time>2026-05-02T15:06:43.892Z</time></trkpt><trkpt lat="42.1843597" lon="13.27084"><ele>800.0</ele><time>2026-05-02T15:06:44.902Z</time></trkpt><trkpt lat="42.1844769" lon="13.2707669"><ele>800.0</ele><time>2026-05-02T15:06:45.884Z</time></trkpt><trkpt lat="42.1846006" lon="13.2706594"><ele>800.0</ele><time>2026-05-02T15:06:46.884Z</time></trkpt><trkpt lat="42.1847284" lon="13.2705348"><ele>800.6666666666667</ele><time>2026-05-02T15:06:47.885Z</time></trkpt><trkpt lat="42.1848661" lon="13.2703868"><ele>801.3333333333333</ele><time>2026-05-02T15:06:48.879Z</time></trkpt><trkpt lat="42.1850093" lon="13.2702423"><ele>802.0</ele><time>2026-05-02T15:06:49.906Z</time></trkpt><trkpt lat="42.1851619" lon="13.2701063"><ele>802.0</ele><time>2026-05-02T15:06:50.891Z</time></trkpt><trkpt lat="42.1853206" lon="13.2699821"><ele>802.0</ele><time>2026-05-02T15:06:51.899Z</time></trkpt><trkpt lat="42.1854869" lon="13.2698617"><ele>802.0</ele><time>2026-05-02T15:06:52.886Z</time></trkpt><trkpt lat="42.185662" lon="13.2697465"><ele>802.3333333333333</ele><time>2026-05-02T15:06:53.888Z</time></trkpt><trkpt lat="42.1858408" lon="13.2696263"><ele>802.6666666666667</ele><time>2026-05-02T15:06:54.891Z</time></trkpt><trkpt lat="42.1860128" lon="13.2695103"><ele>803.0</ele><time>2026-05-02T15:06:55.882Z</time></trkpt><trkpt lat="42.1861817" lon="13.2694062"><ele>803.0</ele><time>2026-05-02T15:06:56.878Z</time></trkpt><trkpt lat="42.1863506" lon="13.2693007"><ele>803.0</ele><time>2026-05-02T15:06:57.881Z</time></trkpt><trkpt lat="42.1865163" lon="13.2692082"><ele>803.0</ele><time>2026-05-02T15:06:58.879Z</time></trkpt><trkpt lat="42.1866637" lon="13.2691257"><ele>803.0</ele><time>2026-05-02T15:06:59.88Z</time></trkpt><trkpt lat="42.1868073" lon="13.2690316"><ele>803.0</ele><time>2026-05-02T15:07:00.892Z</time></trkpt><trkpt lat="42.1869357" lon="13.268909"><ele>803.0</ele><time>2026-05-02T15:07:01.881Z</time></trkpt><trkpt lat="42.1870714" lon="13.2687715"><ele>802.6666666666667</ele><time>2026-05-02T15:07:02.893Z</time></trkpt><trkpt lat="42.1872086" lon="13.2686469"><ele>802.3333333333333</ele><time>2026-05-02T15:07:03.876Z</time></trkpt><trkpt lat="42.1873593" lon="13.2685215"><ele>802.0</ele><time>2026-05-02T15:07:04.894Z</time></trkpt><trkpt lat="42.1875123" lon="13.2684044"><ele>802.0</ele><time>2026-05-02T15:07:05.88Z</time></trkpt><trkpt lat="42.187662" lon="13.268294"><ele>802.0</ele><time>2026-05-02T15:07:06.877Z</time></trkpt><trkpt lat="42.1877971" lon="13.2681786"><ele>802.0</ele><time>2026-05-02T15:07:07.878Z</time></trkpt><trkpt lat="42.1879119" lon="13.2680885"><ele>801.9999999999999</ele><time>2026-05-02T15:07:08.888Z</time></trkpt><trkpt lat="42.1879924" lon="13.2680195"><ele>802.0</ele><time>2026-05-02T15:07:09.89Z</time></trkpt><trkpt lat="42.1880525" lon="13.2679589"><ele>802.0</ele><time>2026-05-02T15:07:10.893Z</time></trkpt><trkpt lat="42.1881164" lon="13.2679141"><ele>802.0</ele><time>2026-05-02T15:07:11.896Z</time></trkpt><trkpt lat="42.1881843" lon="13.2678902"><ele>801.9999999999999</ele><time>2026-05-02T15:07:12.899Z</time></trkpt><trkpt lat="42.1882676" lon="13.267874"><ele>802.0</ele><time>2026-05-02T15:07:13.879Z</time></trkpt><trkpt lat="42.1883673" lon="13.2678486"><ele>802.75</ele><time>2026-05-02T15:07:14.887Z</time></trkpt><trkpt lat="42.1884644" lon="13.2678089"><ele>803.5</ele><time>2026-05-02T15:07:15.892Z</time></trkpt><trkpt lat="42.1885813" lon="13.2677578"><ele>804.25</ele><time>2026-05-02T15:07:16.893Z</time></trkpt><trkpt lat="42.1887023" lon="13.2676924"><ele>805.0</ele><time>2026-05-02T15:07:17.889Z</time></trkpt><trkpt lat="42.1888242" lon="13.2676066"><ele>805.0</ele><time>2026-05-02T15:07:18.885Z</time></trkpt><trkpt lat="42.1889389" lon="13.2675309"><ele>805.0</ele><time>2026-05-02T15:07:19.877Z</time></trkpt><trkpt lat="42.1890574" lon="13.2674467"><ele>805.0</ele><time>2026-05-02T15:07:20.887Z</time></trkpt><trkpt lat="42.1891694" lon="13.2673652"><ele>805.0</ele><time>2026-05-02T15:07:21.883Z</time></trkpt><trkpt lat="42.1892794" lon="13.2672809"><ele>804.6666666666666</ele><time>2026-05-02T15:07:22.908Z</time></trkpt><trkpt lat="42.1893946" lon="13.2671748"><ele>804.3333333333333</ele><time>2026-05-02T15:07:23.889Z</time></trkpt><trkpt lat="42.189516" lon="13.2670415"><ele>804.0</ele><time>2026-05-02T15:07:24.882Z</time></trkpt><trkpt lat="42.189639" lon="13.266913"><ele>804.0</ele><time>2026-05-02T15:07:25.882Z</time></trkpt><trkpt lat="42.1897703" lon="13.2667923"><ele>804.0</ele><time>2026-05-02T15:07:26.888Z</time></trkpt><trkpt lat="42.1899012" lon="13.2666791"><ele>804.0</ele><time>2026-05-02T15:07:27.895Z</time></trkpt><trkpt lat="42.1900396" lon="13.2665925"><ele>804.5</ele><time>2026-05-02T15:07:28.892Z</time></trkpt><trkpt lat="42.1901895" lon="13.2665133"><ele>805.0</ele><time>2026-05-02T15:07:29.889Z</time></trkpt><trkpt lat="42.190306" lon="13.266442"><ele>805.5</ele><time>2026-05-02T15:07:30.881Z</time></trkpt><trkpt lat="42.1904007" lon="13.2663494"><ele>806.0</ele><time>2026-05-02T15:07:31.885Z</time></trkpt><trkpt lat="42.1905058" lon="13.2662355"><ele>806.0</ele><time>2026-05-02T15:07:32.892Z</time></trkpt><trkpt lat="42.1906332" lon="13.2660972"><ele>806.0</ele><time>2026-05-02T15:07:33.892Z</time></trkpt><trkpt lat="42.1907677" lon="13.2659605"><ele>806.0</ele><time>2026-05-02T15:07:34.885Z</time></trkpt><trkpt lat="42.1908981" lon="13.2658159"><ele>806.3333333333334</ele><time>2026-05-02T15:07:35.884Z</time></trkpt><trkpt lat="42.1910118" lon="13.2656662"><ele>806.6666666666667</ele><time>2026-05-02T15:07:36.893Z</time></trkpt><trkpt lat="42.1911263" lon="13.2655137"><ele>807.0</ele><time>2026-05-02T15:07:37.896Z</time></trkpt><trkpt lat="42.1912496" lon="13.2653639"><ele>807.0</ele><time>2026-05-02T15:07:38.889Z</time></trkpt><trkpt lat="42.1913737" lon="13.2652116"><ele>807.0</ele><time>2026-05-02T15:07:39.897Z</time></trkpt><trkpt lat="42.191484" lon="13.2650383"><ele>807.0</ele><time>2026-05-02T15:07:40.894Z</time></trkpt><trkpt lat="42.1915812" lon="13.2648586"><ele>807.5</ele><time>2026-05-02T15:07:41.881Z</time></trkpt><trkpt lat="42.1916655" lon="13.2647341"><ele>808.0</ele><time>2026-05-02T15:07:42.883Z</time></trkpt><trkpt lat="42.1917643" lon="13.2646482"><ele>808.5</ele><time>2026-05-02T15:07:43.892Z</time></trkpt><trkpt lat="42.1918765" lon="13.2645704"><ele>809.0</ele><time>2026-05-02T15:07:44.883Z</time></trkpt><trkpt lat="42.1920016" lon="13.26448"><ele>809.0</ele><time>2026-05-02T15:07:45.889Z</time></trkpt><trkpt lat="42.1921353" lon="13.2644012"><ele>809.0</ele><time>2026-05-02T15:07:46.884Z</time></trkpt><trkpt lat="42.1922668" lon="13.2643309"><ele>809.0</ele><time>2026-05-02T15:07:47.881Z</time></trkpt><trkpt lat="42.1923905" lon="13.2642776"><ele>809.0</ele><time>2026-05-02T15:07:48.889Z</time></trkpt><trkpt lat="42.192518" lon="13.2642112"><ele>810.0</ele><time>2026-05-02T15:07:49.884Z</time></trkpt><trkpt lat="42.1926473" lon="13.2641385"><ele>811.0</ele><time>2026-05-02T15:07:50.883Z</time></trkpt><trkpt lat="42.1927772" lon="13.2640506"><ele>812.0</ele><time>2026-05-02T15:07:51.882Z</time></trkpt><trkpt lat="42.1929052" lon="13.2639763"><ele>813.0</ele><time>2026-05-02T15:07:52.882Z</time></trkpt><trkpt lat="42.1930329" lon="13.2639035"><ele>813.0</ele><time>2026-05-02T15:07:53.894Z</time></trkpt><trkpt lat="42.1931569" lon="13.2638251"><ele>813.0</ele><time>2026-05-02T15:07:54.888Z</time></trkpt><trkpt lat="42.193276" lon="13.263736"><ele>813.0</ele><time>2026-05-02T15:07:55.885Z</time></trkpt><trkpt lat="42.1933968" lon="13.2636385"><ele>813.0</ele><time>2026-05-02T15:07:56.881Z</time></trkpt><trkpt lat="42.1935226" lon="13.2635374"><ele>813.25</ele><time>2026-05-02T15:07:57.883Z</time></trkpt><trkpt lat="42.1936457" lon="13.2634319"><ele>813.5</ele><time>2026-05-02T15:07:58.885Z</time></trkpt><trkpt lat="42.1937659" lon="13.2633304"><ele>813.75</ele><time>2026-05-02T15:07:59.887Z</time></trkpt><trkpt lat="42.1938863" lon="13.2632398"><ele>814.0</ele><time>2026-05-02T15:08:00.884Z</time></trkpt><trkpt lat="42.1940061" lon="13.2631628"><ele>814.25</ele><time>2026-05-02T15:08:01.891Z</time></trkpt><trkpt lat="42.1941175" lon="13.2630879"><ele>814.5</ele><time>2026-05-02T15:08:02.889Z</time></trkpt><trkpt lat="42.1942288" lon="13.2630186"><ele>814.75</ele><time>2026-05-02T15:08:03.887Z</time></trkpt><trkpt lat="42.1943346" lon="13.2629919"><ele>815.0</ele><time>2026-05-02T15:08:04.89Z</time></trkpt><trkpt lat="42.1944421" lon="13.2629694"><ele>815.0</ele><time>2026-05-02T15:08:05.896Z</time></trkpt><trkpt lat="42.1945511" lon="13.2629393"><ele>815.0</ele><time>2026-05-02T15:08:06.892Z</time></trkpt><trkpt lat="42.1946815" lon="13.2628957"><ele>815.0</ele><time>2026-05-02T15:08:07.896Z</time></trkpt><trkpt lat="42.1947942" lon="13.2628531"><ele>815.0</ele><time>2026-05-02T15:08:08.902Z</time></trkpt><trkpt lat="42.1948993" lon="13.2628363"><ele>815.0</ele><time>2026-05-02T15:08:09.887Z</time></trkpt><trkpt lat="42.1950006" lon="13.262841"><ele>815.0</ele><time>2026-05-02T15:08:10.896Z</time></trkpt><trkpt lat="42.1951076" lon="13.2628726"><ele>815.0</ele><time>2026-05-02T15:08:11.884Z</time></trkpt><trkpt lat="42.1952134" lon="13.262914"><ele>815.0</ele><time>2026-05-02T15:08:12.888Z</time></trkpt><trkpt lat="42.195301" lon="13.2629514"><ele>815.0</ele><time>2026-05-02T15:08:13.883Z</time></trkpt><trkpt lat="42.1953642" lon="13.2629706"><ele>815.0</ele><time>2026-05-02T15:08:14.882Z</time></trkpt><trkpt lat="42.1954683" lon="13.2629228"><ele>815.0</ele><time>2026-05-02T15:08:16.879Z</time></trkpt><trkpt lat="42.1955217" lon="13.2628397"><ele>815.0</ele><time>2026-05-02T15:08:17.885Z</time></trkpt><trkpt lat="42.1955645" lon="13.2627252"><ele>815.0</ele><time>2026-05-02T15:08:18.901Z</time></trkpt><trkpt lat="42.1956135" lon="13.2625741"><ele>815.0</ele><time>2026-05-02T15:08:19.891Z</time></trkpt><trkpt lat="42.1956699" lon="13.2624226"><ele>815.0</ele><time>2026-05-02T15:08:20.892Z</time></trkpt><trkpt lat="42.1957369" lon="13.2622622"><ele>815.0</ele><time>2026-05-02T15:08:21.889Z</time></trkpt><trkpt lat="42.195805" lon="13.2620817"><ele>815.0</ele><time>2026-05-02T15:08:22.885Z</time></trkpt><trkpt lat="42.1958818" lon="13.2618859"><ele>815.0</ele><time>2026-05-02T15:08:23.89Z</time></trkpt><trkpt lat="42.195954" lon="13.2616749"><ele>815.0</ele><time>2026-05-02T15:08:24.888Z</time></trkpt><trkpt lat="42.1960257" lon="13.2614563"><ele>815.0</ele><time>2026-05-02T15:08:25.903Z</time></trkpt><trkpt lat="42.1960852" lon="13.2612496"><ele>814.75</ele><time>2026-05-02T15:08:26.89Z</time></trkpt><trkpt lat="42.1961358" lon="13.2610581"><ele>814.5</ele><time>2026-05-02T15:08:27.894Z</time></trkpt><trkpt lat="42.1961669" lon="13.2608755"><ele>814.25</ele><time>2026-05-02T15:08:28.902Z</time></trkpt><trkpt lat="42.1961964" lon="13.2607228"><ele>814.0</ele><time>2026-05-02T15:08:29.884Z</time></trkpt><trkpt lat="42.1962292" lon="13.2606115"><ele>813.4999999999999</ele><time>2026-05-02T15:08:30.9Z</time></trkpt><trkpt lat="42.196264" lon="13.2605305"><ele>813.0</ele><time>2026-05-02T15:08:31.899Z</time></trkpt><trkpt lat="42.1963063" lon="13.2604592"><ele>812.5</ele><time>2026-05-02T15:08:32.887Z</time></trkpt><trkpt lat="42.1963729" lon="13.2604175"><ele>812.0</ele><time>2026-05-02T15:08:33.893Z</time></trkpt><trkpt lat="42.1964471" lon="13.2603986"><ele>811.4999999999999</ele><time>2026-05-02T15:08:34.892Z</time></trkpt><trkpt lat="42.1965255" lon="13.260381"><ele>811.0</ele><time>2026-05-02T15:08:35.88Z</time></trkpt><trkpt lat="42.1966275" lon="13.2603609"><ele>810.5</ele><time>2026-05-02T15:08:36.895Z</time></trkpt><trkpt lat="42.1967373" lon="13.2603609"><ele>810.0</ele><time>2026-05-02T15:08:37.887Z</time></trkpt><trkpt lat="42.1968679" lon="13.2603415"><ele>809.5</ele><time>2026-05-02T15:08:38.893Z</time></trkpt><trkpt lat="42.197009" lon="13.2603007"><ele>809.0</ele><time>2026-05-02T15:08:39.891Z</time></trkpt><trkpt lat="42.197158" lon="13.2602339"><ele>809.0</ele><time>2026-05-02T15:08:40.886Z</time></trkpt><trkpt lat="42.1973283" lon="13.2601436"><ele>809.0</ele><time>2026-05-02T15:08:41.891Z</time></trkpt><trkpt lat="42.1974836" lon="13.2600494"><ele>809.0</ele><time>2026-05-02T15:08:42.897Z</time></trkpt><trkpt lat="42.1976353" lon="13.2599352"><ele>808.6666666666667</ele><time>2026-05-02T15:08:43.885Z</time></trkpt><trkpt lat="42.1977888" lon="13.2597972"><ele>808.3333333333333</ele><time>2026-05-02T15:08:44.896Z</time></trkpt><trkpt lat="42.1979272" lon="13.2596593"><ele>808.0</ele><time>2026-05-02T15:08:45.886Z</time></trkpt><trkpt lat="42.1980386" lon="13.2595414"><ele>808.0</ele><time>2026-05-02T15:08:46.9Z</time></trkpt><trkpt lat="42.1981448" lon="13.2594478"><ele>808.0</ele><time>2026-05-02T15:08:47.898Z</time></trkpt><trkpt lat="42.1982318" lon="13.2593967"><ele>808.0</ele><time>2026-05-02T15:08:48.889Z</time></trkpt><trkpt lat="42.1983205" lon="13.2593752"><ele>808.0</ele><time>2026-05-02T15:08:49.894Z</time></trkpt><trkpt lat="42.1984293" lon="13.2593958"><ele>808.0</ele><time>2026-05-02T15:08:50.879Z</time></trkpt><trkpt lat="42.1985532" lon="13.2594081"><ele>809.25</ele><time>2026-05-02T15:08:51.879Z</time></trkpt><trkpt lat="42.1986568" lon="13.2593841"><ele>810.5</ele><time>2026-05-02T15:08:52.885Z</time></trkpt><trkpt lat="42.1987766" lon="13.2593159"><ele>811.75</ele><time>2026-05-02T15:08:53.89Z</time></trkpt><trkpt lat="42.1989092" lon="13.2592172"><ele>813.0</ele><time>2026-05-02T15:08:54.896Z</time></trkpt><trkpt lat="42.1990396" lon="13.2591306"><ele>813.75</ele><time>2026-05-02T15:08:55.906Z</time></trkpt><trkpt lat="42.1991627" lon="13.2590552"><ele>814.5</ele><time>2026-05-02T15:08:56.891Z</time></trkpt><trkpt lat="42.1992746" lon="13.2589951"><ele>815.25</ele><time>2026-05-02T15:08:57.889Z</time></trkpt><trkpt lat="42.199377" lon="13.258981"><ele>816.0</ele><time>2026-05-02T15:08:58.87Z</time></trkpt><trkpt lat="42.1994834" lon="13.2590042"><ele>816.0</ele><time>2026-05-02T15:08:59.895Z</time></trkpt><trkpt lat="42.1995953" lon="13.2590517"><ele>816.0</ele><time>2026-05-02T15:09:00.884Z</time></trkpt><trkpt lat="42.1996966" lon="13.2591115"><ele>816.0</ele><time>2026-05-02T15:09:01.882Z</time></trkpt><trkpt lat="42.1997769" lon="13.2591758"><ele>816.0</ele><time>2026-05-02T15:09:02.895Z</time></trkpt><trkpt lat="42.1998325" lon="13.2592175"><ele>816.0</ele><time>2026-05-02T15:09:03.877Z</time></trkpt><trkpt lat="42.1999048" lon="13.2592044"><ele>815.8</ele><time>2026-05-02T15:09:05.889Z</time></trkpt><trkpt lat="42.1998999" lon="13.2590914"><ele>815.5999999999999</ele><time>2026-05-02T15:09:07.885Z</time></trkpt><trkpt lat="42.1998734" lon="13.2589781"><ele>815.4</ele><time>2026-05-02T15:09:08.89Z</time></trkpt><trkpt lat="42.1998393" lon="13.2588435"><ele>815.2</ele><time>2026-05-02T15:09:09.893Z</time></trkpt><trkpt lat="42.1997863" lon="13.2586944"><ele>815.0</ele><time>2026-05-02T15:09:10.888Z</time></trkpt><trkpt lat="42.1997384" lon="13.2585194"><ele>815.0</ele><time>2026-05-02T15:09:11.883Z</time></trkpt><trkpt lat="42.199683" lon="13.2583432"><ele>815.0</ele><time>2026-05-02T15:09:12.885Z</time></trkpt><trkpt lat="42.1996299" lon="13.2581831"><ele>815.0</ele><time>2026-05-02T15:09:13.877Z</time></trkpt><trkpt lat="42.1995848" lon="13.2580544"><ele>815.0</ele><time>2026-05-02T15:09:14.888Z</time></trkpt><trkpt lat="42.1995602" lon="13.2579684"><ele>815.0</ele><time>2026-05-02T15:09:15.881Z</time></trkpt><trkpt lat="42.1995582" lon="13.2578462"><ele>815.4</ele><time>2026-05-02T15:09:17.894Z</time></trkpt><trkpt lat="42.1995942" lon="13.2576806"><ele>815.8</ele><time>2026-05-02T15:09:19.892Z</time></trkpt><trkpt lat="42.1996232" lon="13.2575795"><ele>816.2</ele><time>2026-05-02T15:09:20.906Z</time></trkpt><trkpt lat="42.1996537" lon="13.2574677"><ele>816.6</ele><time>2026-05-02T15:09:21.876Z</time></trkpt><trkpt lat="42.1996888" lon="13.2573509"><ele>817.0</ele><time>2026-05-02T15:09:22.888Z</time></trkpt><trkpt lat="42.1997294" lon="13.2572659"><ele>817.8333333333333</ele><time>2026-05-02T15:09:23.875Z</time></trkpt><trkpt lat="42.1997955" lon="13.2572147"><ele>818.6666666666666</ele><time>2026-05-02T15:09:24.889Z</time></trkpt><trkpt lat="42.199863" lon="13.2571694"><ele>819.5</ele><time>2026-05-02T15:09:26.896Z</time></trkpt><trkpt lat="42.1998475" lon="13.257086"><ele>820.3333333333333</ele><time>2026-05-02T15:09:32.878Z</time></trkpt><trkpt lat="42.1998143" lon="13.2570053"><ele>821.1666666666666</ele><time>2026-05-02T15:09:34.871Z</time></trkpt><trkpt lat="42.1997101" lon="13.2568615"><ele>822.0</ele><time>2026-05-02T15:09:36.877Z</time></trkpt><trkpt lat="42.1996656" lon="13.2567533"><ele>822.0</ele><time>2026-05-02T15:09:38.873Z</time></trkpt><trkpt lat="42.1997072" lon="13.2566795"><ele>822.0</ele><time>2026-05-02T15:09:40.872Z</time></trkpt><trkpt lat="42.1998128" lon="13.2567418"><ele>822.0</ele><time>2026-05-02T15:09:42.88Z</time></trkpt><trkpt lat="42.1998886" lon="13.2568081"><ele>822.0</ele><time>2026-05-02T15:09:43.873Z</time></trkpt><trkpt lat="42.1999689" lon="13.2568575"><ele>822.0</ele><time>2026-05-02T15:09:44.878Z</time></trkpt><trkpt lat="42.2000469" lon="13.2568889"><ele>822.0</ele><time>2026-05-02T15:09:45.873Z</time></trkpt><trkpt lat="42.2001448" lon="13.2568995"><ele>825.75</ele><time>2026-05-02T15:09:46.88Z</time></trkpt><trkpt lat="42.200263" lon="13.2569046"><ele>829.5</ele><time>2026-05-02T15:09:47.881Z</time></trkpt><trkpt lat="42.2003973" lon="13.2569159"><ele>833.25</ele><time>2026-05-02T15:09:48.873Z</time></trkpt><trkpt lat="42.2005278" lon="13.2569507"><ele>837.0</ele><time>2026-05-02T15:09:49.895Z</time></trkpt><trkpt lat="42.2006509" lon="13.2569745"><ele>840.2</ele><time>2026-05-02T15:09:50.887Z</time></trkpt><trkpt lat="42.200761" lon="13.2569954"><ele>843.4000000000001</ele><time>2026-05-02T15:09:51.887Z</time></trkpt><trkpt lat="42.2008498" lon="13.2570111"><ele>846.5999999999999</ele><time>2026-05-02T15:09:52.885Z</time></trkpt><trkpt lat="42.2009298" lon="13.257014"><ele>849.8</ele><time>2026-05-02T15:09:54.883Z</time></trkpt><trkpt lat="42.2009152" lon="13.2568886"><ele>853.0</ele><time>2026-05-02T15:09:58.879Z</time></trkpt><trkpt lat="42.2009984" lon="13.256836"><ele>852.9999999999999</ele><time>2026-05-02T15:10:02.877Z</time></trkpt><trkpt lat="42.2010669" lon="13.2568319"><ele>853.0</ele><time>2026-05-02T15:10:03.879Z</time></trkpt><trkpt lat="42.2011549" lon="13.2568363"><ele>853.0</ele><time>2026-05-02T15:10:04.886Z</time></trkpt><trkpt lat="42.2012416" lon="13.2568406"><ele>853.0</ele><time>2026-05-02T15:10:05.891Z</time></trkpt><trkpt lat="42.2013321" lon="13.2568406"><ele>852.9999999999999</ele><time>2026-05-02T15:10:06.879Z</time></trkpt><trkpt lat="42.201422" lon="13.2568373"><ele>853.0</ele><time>2026-05-02T15:10:07.888Z</time></trkpt><trkpt lat="42.20151" lon="13.2568207"><ele>856.4</ele><time>2026-05-02T15:10:08.891Z</time></trkpt><trkpt lat="42.201607" lon="13.256805"><ele>859.8</ele><time>2026-05-02T15:10:09.894Z</time></trkpt><trkpt lat="42.2017074" lon="13.2568002"><ele>863.2</ele><time>2026-05-02T15:10:10.896Z</time></trkpt><trkpt lat="42.2018179" lon="13.2567971"><ele>866.6</ele><time>2026-05-02T15:10:11.883Z</time></trkpt><trkpt lat="42.2019358" lon="13.2568003"><ele>870.0</ele><time>2026-05-02T15:10:12.881Z</time></trkpt><trkpt lat="42.20206" lon="13.2567993"><ele>870.0</ele><time>2026-05-02T15:10:13.882Z</time></trkpt><trkpt lat="42.2021838" lon="13.256785"><ele>870.0</ele><time>2026-05-02T15:10:14.891Z</time></trkpt><trkpt lat="42.2023027" lon="13.2567617"><ele>870.0</ele><time>2026-05-02T15:10:15.884Z</time></trkpt><trkpt lat="42.2023905" lon="13.2567303"><ele>870.0</ele><time>2026-05-02T15:10:16.874Z</time></trkpt><trkpt lat="42.2024733" lon="13.2567001"><ele>870.0</ele><time>2026-05-02T15:10:17.882Z</time></trkpt><trkpt lat="42.2025562" lon="13.256672"><ele>871.4</ele><time>2026-05-02T15:10:18.887Z</time></trkpt><trkpt lat="42.2026368" lon="13.2566539"><ele>872.8</ele><time>2026-05-02T15:10:19.893Z</time></trkpt><trkpt lat="42.2027104" lon="13.2566303"><ele>874.2</ele><time>2026-05-02T15:10:20.88Z</time></trkpt><trkpt lat="42.2028019" lon="13.2565766"><ele>875.6</ele><time>2026-05-02T15:10:22.907Z</time></trkpt><trkpt lat="42.2028954" lon="13.2564299"><ele>877.0</ele><time>2026-05-02T15:10:24.896Z</time></trkpt><trkpt lat="42.2029578" lon="13.2563252"><ele>878.2</ele><time>2026-05-02T15:10:25.876Z</time></trkpt><trkpt lat="42.2030085" lon="13.2562369"><ele>879.4000000000001</ele><time>2026-05-02T15:10:26.876Z</time></trkpt><trkpt lat="42.2030538" lon="13.2561375"><ele>880.5999999999999</ele><time>2026-05-02T15:10:27.882Z</time></trkpt><trkpt lat="42.2030984" lon="13.2560308"><ele>881.8</ele><time>2026-05-02T15:10:28.877Z</time></trkpt><trkpt lat="42.2031504" lon="13.2559173"><ele>883.0</ele><time>2026-05-02T15:10:29.895Z</time></trkpt><trkpt lat="42.2032036" lon="13.2558154"><ele>883.0</ele><time>2026-05-02T15:10:30.887Z</time></trkpt><trkpt lat="42.2032547" lon="13.2557344"><ele>883.0</ele><time>2026-05-02T15:10:31.886Z</time></trkpt><trkpt lat="42.2032977" lon="13.2556655"><ele>883.0</ele><time>2026-05-02T15:10:32.89Z</time></trkpt><trkpt lat="42.2033282" lon="13.2555748"><ele>883.0</ele><time>2026-05-02T15:10:33.886Z</time></trkpt><trkpt lat="42.2033167" lon="13.2554847"><ele>883.0</ele><time>2026-05-02T15:10:34.897Z</time></trkpt><trkpt lat="42.2032949" lon="13.2553774"><ele>883.0</ele><time>2026-05-02T15:10:35.872Z</time></trkpt><trkpt lat="42.2032814" lon="13.2552742"><ele>883.0</ele><time>2026-05-02T15:10:36.882Z</time></trkpt><trkpt lat="42.2032673" lon="13.255168"><ele>884.8333333333333</ele><time>2026-05-02T15:10:37.883Z</time></trkpt><trkpt lat="42.2032652" lon="13.2550614"><ele>886.6666666666666</ele><time>2026-05-02T15:10:38.884Z</time></trkpt><trkpt lat="42.2032826" lon="13.2549314"><ele>888.5</ele><time>2026-05-02T15:10:40.9Z</time></trkpt><trkpt lat="42.2033512" lon="13.2549267"><ele>890.3333333333333</ele><time>2026-05-02T15:10:43.889Z</time></trkpt><trkpt lat="42.203427" lon="13.2549903"><ele>892.1666666666666</ele><time>2026-05-02T15:10:46.874Z</time></trkpt><trkpt lat="42.2035083" lon="13.2550632"><ele>894.0</ele><time>2026-05-02T15:10:48.875Z</time></trkpt><trkpt lat="42.2035876" lon="13.2551343"><ele>894.0</ele><time>2026-05-02T15:10:49.876Z</time></trkpt><trkpt lat="42.2036891" lon="13.2552205"><ele>894.0</ele><time>2026-05-02T15:10:50.887Z</time></trkpt><trkpt lat="42.2037889" lon="13.255323"><ele>894.0</ele><time>2026-05-02T15:10:51.884Z</time></trkpt><trkpt lat="42.2039" lon="13.2554379"><ele>894.0</ele><time>2026-05-02T15:10:52.876Z</time></trkpt><trkpt lat="42.2040123" lon="13.2555707"><ele>895.5</ele><time>2026-05-02T15:10:53.886Z</time></trkpt><trkpt lat="42.2041149" lon="13.255718"><ele>897.0</ele><time>2026-05-02T15:10:54.886Z</time></trkpt><trkpt lat="42.2042076" lon="13.2558541"><ele>898.5</ele><time>2026-05-02T15:10:55.875Z</time></trkpt><trkpt lat="42.2043225" lon="13.2559647"><ele>900.0</ele><time>2026-05-02T15:10:56.878Z</time></trkpt><trkpt lat="42.2044669" lon="13.2560338"><ele>900.0</ele><time>2026-05-02T15:10:57.88Z</time></trkpt><trkpt lat="42.2046235" lon="13.2561218"><ele>900.0</ele><time>2026-05-02T15:10:58.883Z</time></trkpt><trkpt lat="42.2047747" lon="13.2562286"><ele>900.0</ele><time>2026-05-02T15:10:59.87Z</time></trkpt><trkpt lat="42.2049121" lon="13.2563605"><ele>903.3333333333333</ele><time>2026-05-02T15:11:00.871Z</time></trkpt><trkpt lat="42.2050365" lon="13.2565509"><ele>906.6666666666666</ele><time>2026-05-02T15:11:01.878Z</time></trkpt><trkpt lat="42.2051557" lon="13.2567888"><ele>910.0</ele><time>2026-05-02T15:11:02.873Z</time></trkpt><trkpt lat="42.205268" lon="13.2570535"><ele>906.0</ele><time>2026-05-02T15:11:03.875Z</time></trkpt><trkpt lat="42.2053556" lon="13.2572909"><ele>902.0</ele><time>2026-05-02T15:11:04.877Z</time></trkpt><trkpt lat="42.2054371" lon="13.2574924"><ele>898.0</ele><time>2026-05-02T15:11:05.876Z</time></trkpt><trkpt lat="42.2055202" lon="13.2576602"><ele>898.0</ele><time>2026-05-02T15:11:06.873Z</time></trkpt><trkpt lat="42.2055986" lon="13.2577704"><ele>898.0</ele><time>2026-05-02T15:11:07.901Z</time></trkpt><trkpt lat="42.2056877" lon="13.2578489"><ele>898.0</ele><time>2026-05-02T15:11:08.882Z</time></trkpt><trkpt lat="42.2057709" lon="13.2578831"><ele>898.0</ele><time>2026-05-02T15:11:09.891Z</time></trkpt><trkpt lat="42.2058692" lon="13.2579199"><ele>898.0</ele><time>2026-05-02T15:11:10.896Z</time></trkpt><trkpt lat="42.20597" lon="13.2579815"><ele>901.8</ele><time>2026-05-02T15:11:11.899Z</time></trkpt><trkpt lat="42.2060659" lon="13.2580557"><ele>905.5999999999999</ele><time>2026-05-02T15:11:12.887Z</time></trkpt><trkpt lat="42.2061245" lon="13.2581416"><ele>909.4000000000001</ele><time>2026-05-02T15:11:13.898Z</time></trkpt><trkpt lat="42.2061669" lon="13.2582448"><ele>913.2</ele><time>2026-05-02T15:11:14.879Z</time></trkpt><trkpt lat="42.2061935" lon="13.2583979"><ele>917.0</ele><time>2026-05-02T15:11:15.892Z</time></trkpt><trkpt lat="42.2061969" lon="13.2585845"><ele>917.0</ele><time>2026-05-02T15:11:16.896Z</time></trkpt><trkpt lat="42.2061846" lon="13.258798"><ele>917.0</ele><time>2026-05-02T15:11:17.897Z</time></trkpt><trkpt lat="42.2061649" lon="13.2590221"><ele>917.0</ele><time>2026-05-02T15:11:18.874Z</time></trkpt><trkpt lat="42.2061446" lon="13.2592472"><ele>915.5</ele><time>2026-05-02T15:11:19.884Z</time></trkpt><trkpt lat="42.2061357" lon="13.2594483"><ele>914.0</ele><time>2026-05-02T15:11:20.879Z</time></trkpt><trkpt lat="42.2061551" lon="13.2595983"><ele>912.5</ele><time>2026-05-02T15:11:21.883Z</time></trkpt><trkpt lat="42.206202" lon="13.2597347"><ele>911.0</ele><time>2026-05-02T15:11:22.895Z</time></trkpt><trkpt lat="42.2062705" lon="13.2598648"><ele>909.0</ele><time>2026-05-02T15:11:23.898Z</time></trkpt><trkpt lat="42.2063779" lon="13.260005"><ele>907.0</ele><time>2026-05-02T15:11:24.892Z</time></trkpt><trkpt lat="42.2064968" lon="13.2601686"><ele>905.0</ele><time>2026-05-02T15:11:25.891Z</time></trkpt><trkpt lat="42.2066258" lon="13.2603401"><ele>912.0</ele><time>2026-05-02T15:11:26.889Z</time></trkpt><trkpt lat="42.2067515" lon="13.2605484"><ele>919.0</ele><time>2026-05-02T15:11:27.894Z</time></trkpt><trkpt lat="42.2068788" lon="13.2607551"><ele>926.0</ele><time>2026-05-02T15:11:28.885Z</time></trkpt><trkpt lat="42.2069982" lon="13.2609515"><ele>926.0</ele><time>2026-05-02T15:11:29.899Z</time></trkpt><trkpt lat="42.2071075" lon="13.2611276"><ele>926.0</ele><time>2026-05-02T15:11:30.901Z</time></trkpt><trkpt lat="42.2071987" lon="13.261295"><ele>926.0</ele><time>2026-05-02T15:11:31.886Z</time></trkpt><trkpt lat="42.2072908" lon="13.2614733"><ele>930.25</ele><time>2026-05-02T15:11:32.893Z</time></trkpt><trkpt lat="42.2073714" lon="13.2616451"><ele>934.5</ele><time>2026-05-02T15:11:33.899Z</time></trkpt><trkpt lat="42.2074607" lon="13.2617828"><ele>938.75</ele><time>2026-05-02T15:11:34.888Z</time></trkpt><trkpt lat="42.2075602" lon="13.2618713"><ele>943.0</ele><time>2026-05-02T15:11:35.89Z</time></trkpt><trkpt lat="42.2076679" lon="13.2618948"><ele>942.9999999999999</ele><time>2026-05-02T15:11:36.88Z</time></trkpt><trkpt lat="42.2077303" lon="13.2618663"><ele>943.0</ele><time>2026-05-02T15:11:37.905Z</time></trkpt><trkpt lat="42.2077846" lon="13.2617925"><ele>943.0</ele><time>2026-05-02T15:11:38.876Z</time></trkpt><trkpt lat="42.2078353" lon="13.2617017"><ele>943.0</ele><time>2026-05-02T15:11:39.87Z</time></trkpt><trkpt lat="42.2078792" lon="13.261615"><ele>942.9999999999999</ele><time>2026-05-02T15:11:40.882Z</time></trkpt><trkpt lat="42.2078554" lon="13.2615314"><ele>943.0</ele><time>2026-05-02T15:11:42.88Z</time></trkpt><trkpt lat="42.2077456" lon="13.2615795"><ele>943.0</ele><time>2026-05-02T15:11:44.88Z</time></trkpt><trkpt lat="42.207683" lon="13.261627"><ele>943.0</ele><time>2026-05-02T15:11:45.885Z</time></trkpt><trkpt lat="42.2076159" lon="13.2615284"><ele>943.0</ele><time>2026-05-02T15:11:47.886Z</time></trkpt><trkpt lat="42.2075944" lon="13.2614217"><ele>943.0</ele><time>2026-05-02T15:11:48.881Z</time></trkpt><trkpt lat="42.2075562" lon="13.2613007"><ele>943.0</ele><time>2026-05-02T15:11:49.891Z</time></trkpt><trkpt lat="42.2074951" lon="13.2611523"><ele>943.0</ele><time>2026-05-02T15:11:50.885Z</time></trkpt><trkpt lat="42.2074116" lon="13.2609658"><ele>943.0</ele><time>2026-05-02T15:11:51.886Z</time></trkpt><trkpt lat="42.207319" lon="13.260766"><ele>943.0</ele><time>2026-05-02T15:11:52.892Z</time></trkpt><trkpt lat="42.2072126" lon="13.2605322"><ele>943.0</ele><time>2026-05-02T15:11:53.89Z</time></trkpt><trkpt lat="42.2071182" lon="13.2603006"><ele>943.0</ele><time>2026-05-02T15:11:54.884Z</time></trkpt><trkpt lat="42.2070338" lon="13.260062"><ele>943.0</ele><time>2026-05-02T15:11:55.883Z</time></trkpt><trkpt lat="42.206972" lon="13.2598406"><ele>945.0</ele><time>2026-05-02T15:11:56.898Z</time></trkpt><trkpt lat="42.2069249" lon="13.2596627"><ele>947.0</ele><time>2026-05-02T15:11:57.891Z</time></trkpt><trkpt lat="42.2068903" lon="13.2595148"><ele>949.0</ele><time>2026-05-02T15:11:58.885Z</time></trkpt><trkpt lat="42.2069068" lon="13.2593826"><ele>951.0</ele><time>2026-05-02T15:11:59.895Z</time></trkpt><trkpt lat="42.2069592" lon="13.2592637"><ele>951.0</ele><time>2026-05-02T15:12:00.895Z</time></trkpt><trkpt lat="42.207037" lon="13.2591056"><ele>951.0</ele><time>2026-05-02T15:12:01.878Z</time></trkpt><trkpt lat="42.2071132" lon="13.258931"><ele>951.0</ele><time>2026-05-02T15:12:02.884Z</time></trkpt><trkpt lat="42.2071842" lon="13.2587512"><ele>951.0</ele><time>2026-05-02T15:12:03.894Z</time></trkpt><trkpt lat="42.207245" lon="13.2585344"><ele>951.0</ele><time>2026-05-02T15:12:04.891Z</time></trkpt><trkpt lat="42.2072833" lon="13.2582965"><ele>951.0</ele><time>2026-05-02T15:12:05.877Z</time></trkpt><trkpt lat="42.207301" lon="13.2580665"><ele>951.0</ele><time>2026-05-02T15:12:06.891Z</time></trkpt><trkpt lat="42.2072939" lon="13.2578772"><ele>954.75</ele><time>2026-05-02T15:12:07.879Z</time></trkpt><trkpt lat="42.2072626" lon="13.2577081"><ele>958.5</ele><time>2026-05-02T15:12:08.887Z</time></trkpt><trkpt lat="42.2071979" lon="13.2575723"><ele>962.25</ele><time>2026-05-02T15:12:09.884Z</time></trkpt><trkpt lat="42.2071131" lon="13.2574156"><ele>966.0</ele><time>2026-05-02T15:12:10.875Z</time></trkpt><trkpt lat="42.2069909" lon="13.2572571"><ele>973.0</ele><time>2026-05-02T15:12:11.886Z</time></trkpt><trkpt lat="42.2068634" lon="13.2571014"><ele>980.0</ele><time>2026-05-02T15:12:12.895Z</time></trkpt><trkpt lat="42.2067485" lon="13.2569554"><ele>987.0</ele><time>2026-05-02T15:12:13.884Z</time></trkpt><trkpt lat="42.2066519" lon="13.2567892"><ele>987.0</ele><time>2026-05-02T15:12:14.884Z</time></trkpt><trkpt lat="42.2065726" lon="13.2566222"><ele>987.0</ele><time>2026-05-02T15:12:15.884Z</time></trkpt><trkpt lat="42.2065079" lon="13.2564303"><ele>987.0</ele><time>2026-05-02T15:12:16.887Z</time></trkpt><trkpt lat="42.2064656" lon="13.256215"><ele>984.0</ele><time>2026-05-02T15:12:17.912Z</time></trkpt><trkpt lat="42.2064364" lon="13.2560128"><ele>981.0</ele><time>2026-05-02T15:12:18.88Z</time></trkpt><trkpt lat="42.2064195" lon="13.2558173"><ele>978.0</ele><time>2026-05-02T15:12:19.896Z</time></trkpt><trkpt lat="42.2064198" lon="13.2556133"><ele>975.0</ele><time>2026-05-02T15:12:20.89Z</time></trkpt><trkpt lat="42.206436" lon="13.255405"><ele>975.0</ele><time>2026-05-02T15:12:21.878Z</time></trkpt><trkpt lat="42.2064505" lon="13.2552118"><ele>975.0</ele><time>2026-05-02T15:12:22.893Z</time></trkpt><trkpt lat="42.2064729" lon="13.2550182"><ele>975.0</ele><time>2026-05-02T15:12:23.887Z</time></trkpt><trkpt lat="42.2064621" lon="13.2548084"><ele>975.0</ele><time>2026-05-02T15:12:24.885Z</time></trkpt><trkpt lat="42.2064374" lon="13.2545956"><ele>974.75</ele><time>2026-05-02T15:12:25.885Z</time></trkpt><trkpt lat="42.2064163" lon="13.2543878"><ele>974.5</ele><time>2026-05-02T15:12:26.887Z</time></trkpt><trkpt lat="42.2064044" lon="13.2541904"><ele>974.25</ele><time>2026-05-02T15:12:27.885Z</time></trkpt><trkpt lat="42.206411" lon="13.2540126"><ele>974.0</ele><time>2026-05-02T15:12:28.876Z</time></trkpt><trkpt lat="42.2064421" lon="13.253835"><ele>974.0</ele><time>2026-05-02T15:12:29.894Z</time></trkpt><trkpt lat="42.2064905" lon="13.2536241"><ele>974.0</ele><time>2026-05-02T15:12:30.894Z</time></trkpt><trkpt lat="42.2065647" lon="13.253408"><ele>974.0</ele><time>2026-05-02T15:12:31.892Z</time></trkpt><trkpt lat="42.2066383" lon="13.2531897"><ele>981.25</ele><time>2026-05-02T15:12:32.888Z</time></trkpt><trkpt lat="42.2066992" lon="13.2529839"><ele>988.5</ele><time>2026-05-02T15:12:33.899Z</time></trkpt><trkpt lat="42.2067555" lon="13.2528337"><ele>995.75</ele><time>2026-05-02T15:12:34.882Z</time></trkpt><trkpt lat="42.2067956" lon="13.2527235"><ele>1003.0</ele><time>2026-05-02T15:12:35.898Z</time></trkpt><trkpt lat="42.2068501" lon="13.2526435"><ele>1003.0</ele><time>2026-05-02T15:12:37.892Z</time></trkpt><trkpt lat="42.2068836" lon="13.2527435"><ele>1003.0</ele><time>2026-05-02T15:12:40.884Z</time></trkpt><trkpt lat="42.2068513" lon="13.2529534"><ele>1003.0</ele><time>2026-05-02T15:12:42.883Z</time></trkpt><trkpt lat="42.2068277" lon="13.2530941"><ele>1003.0</ele><time>2026-05-02T15:12:43.895Z</time></trkpt><trkpt lat="42.2068153" lon="13.2532505"><ele>1004.25</ele><time>2026-05-02T15:12:44.883Z</time></trkpt><trkpt lat="42.2068091" lon="13.253407"><ele>1005.5</ele><time>2026-05-02T15:12:45.886Z</time></trkpt><trkpt lat="42.2068207" lon="13.2535738"><ele>1006.75</ele><time>2026-05-02T15:12:46.892Z</time></trkpt><trkpt lat="42.2068435" lon="13.2537316"><ele>1008.0</ele><time>2026-05-02T15:12:47.883Z</time></trkpt><trkpt lat="42.2068717" lon="13.2538653"><ele>1008.5999999999999</ele><time>2026-05-02T15:12:48.897Z</time></trkpt><trkpt lat="42.2068994" lon="13.2539634"><ele>1009.1999999999999</ele><time>2026-05-02T15:12:49.879Z</time></trkpt><trkpt lat="42.2069427" lon="13.2540489"><ele>1009.8</ele><time>2026-05-02T15:12:50.887Z</time></trkpt><trkpt lat="42.2069937" lon="13.2541568"><ele>1010.4</ele><time>2026-05-02T15:12:51.888Z</time></trkpt><trkpt lat="42.2070361" lon="13.2543023"><ele>1011.0</ele><time>2026-05-02T15:12:52.901Z</time></trkpt><trkpt lat="42.207064" lon="13.254471"><ele>1011.0</ele><time>2026-05-02T15:12:53.881Z</time></trkpt><trkpt lat="42.2070947" lon="13.2546414"><ele>1011.0</ele><time>2026-05-02T15:12:54.893Z</time></trkpt><trkpt lat="42.2071451" lon="13.2548263"><ele>1011.0</ele><time>2026-05-02T15:12:55.889Z</time></trkpt><trkpt lat="42.2072002" lon="13.2550246"><ele>1011.0</ele><time>2026-05-02T15:12:56.892Z</time></trkpt><trkpt lat="42.2072414" lon="13.2552325"><ele>1009.3333333333333</ele><time>2026-05-02T15:12:57.892Z</time></trkpt><trkpt lat="42.2072799" lon="13.2554502"><ele>1007.6666666666666</ele><time>2026-05-02T15:12:58.883Z</time></trkpt><trkpt lat="42.2073155" lon="13.2556693"><ele>1006.0</ele><time>2026-05-02T15:12:59.884Z</time></trkpt><trkpt lat="42.2073622" lon="13.2558791"><ele>1013.75</ele><time>2026-05-02T15:13:00.883Z</time></trkpt><trkpt lat="42.2074135" lon="13.256054"><ele>1021.5</ele><time>2026-05-02T15:13:01.897Z</time></trkpt><trkpt lat="42.2074667" lon="13.2561912"><ele>1029.25</ele><time>2026-05-02T15:13:02.889Z</time></trkpt><trkpt lat="42.207529" lon="13.2563138"><ele>1037.0</ele><time>2026-05-02T15:13:03.889Z</time></trkpt><trkpt lat="42.2076186" lon="13.2564258"><ele>1033.25</ele><time>2026-05-02T15:13:04.888Z</time></trkpt><trkpt lat="42.2077298" lon="13.2565386"><ele>1029.5</ele><time>2026-05-02T15:13:05.878Z</time></trkpt><trkpt lat="42.2078413" lon="13.2566476"><ele>1025.75</ele><time>2026-05-02T15:13:06.895Z</time></trkpt><trkpt lat="42.2079482" lon="13.2567794"><ele>1022.0</ele><time>2026-05-02T15:13:07.89Z</time></trkpt><trkpt lat="42.2080535" lon="13.2569244"><ele>1022.0</ele><time>2026-05-02T15:13:08.891Z</time></trkpt><trkpt lat="42.2081495" lon="13.2570928"><ele>1022.0</ele><time>2026-05-02T15:13:09.87Z</time></trkpt><trkpt lat="42.2082361" lon="13.2572726"><ele>1022.0</ele><time>2026-05-02T15:13:10.877Z</time></trkpt><trkpt lat="42.2083061" lon="13.2574459"><ele>1030.0</ele><time>2026-05-02T15:13:11.886Z</time></trkpt><trkpt lat="42.2083434" lon="13.2576092"><ele>1038.0</ele><time>2026-05-02T15:13:12.884Z</time></trkpt><trkpt lat="42.2083916" lon="13.2578113"><ele>1046.0</ele><time>2026-05-02T15:13:13.89Z</time></trkpt><trkpt lat="42.2084071" lon="13.2580431"><ele>1043.6666666666667</ele><time>2026-05-02T15:13:14.88Z</time></trkpt><trkpt lat="42.2084185" lon="13.2582714"><ele>1041.3333333333333</ele><time>2026-05-02T15:13:15.88Z</time></trkpt><trkpt lat="42.2084346" lon="13.2584856"><ele>1039.0</ele><time>2026-05-02T15:13:16.88Z</time></trkpt><trkpt lat="42.2084676" lon="13.2586692"><ele>1039.0</ele><time>2026-05-02T15:13:17.892Z</time></trkpt><trkpt lat="42.2085188" lon="13.2588054"><ele>1039.0</ele><time>2026-05-02T15:13:18.885Z</time></trkpt><trkpt lat="42.2085579" lon="13.2589071"><ele>1039.0</ele><time>2026-05-02T15:13:19.883Z</time></trkpt><trkpt lat="42.2086099" lon="13.2589736"><ele>1039.0</ele><time>2026-05-02T15:13:20.876Z</time></trkpt><trkpt lat="42.2086943" lon="13.259034"><ele>1039.0</ele><time>2026-05-02T15:13:21.894Z</time></trkpt><trkpt lat="42.2087882" lon="13.2590678"><ele>1037.25</ele><time>2026-05-02T15:13:22.88Z</time></trkpt><trkpt lat="42.2089008" lon="13.2590867"><ele>1035.5</ele><time>2026-05-02T15:13:23.887Z</time></trkpt><trkpt lat="42.2090292" lon="13.2591051"><ele>1033.75</ele><time>2026-05-02T15:13:24.893Z</time></trkpt><trkpt lat="42.2091673" lon="13.2591276"><ele>1032.0</ele><time>2026-05-02T15:13:25.872Z</time></trkpt><trkpt lat="42.2093174" lon="13.2591652"><ele>1041.3333333333333</ele><time>2026-05-02T15:13:26.88Z</time></trkpt><trkpt lat="42.2094772" lon="13.2592113"><ele>1050.6666666666665</ele><time>2026-05-02T15:13:27.871Z</time></trkpt><trkpt lat="42.2096383" lon="13.2592533"><ele>1060.0</ele><time>2026-05-02T15:13:28.914Z</time></trkpt><trkpt lat="42.2097861" lon="13.2593127"><ele>1068.3333333333333</ele><time>2026-05-02T15:13:29.874Z</time></trkpt><trkpt lat="42.2099232" lon="13.2593755"><ele>1076.6666666666667</ele><time>2026-05-02T15:13:30.88Z</time></trkpt><trkpt lat="42.2100597" lon="13.2594615"><ele>1085.0</ele><time>2026-05-02T15:13:31.883Z</time></trkpt><trkpt lat="42.2101964" lon="13.2595685"><ele>1085.0</ele><time>2026-05-02T15:13:32.884Z</time></trkpt><trkpt lat="42.210319" lon="13.2596856"><ele>1085.0</ele><time>2026-05-02T15:13:33.885Z</time></trkpt><trkpt lat="42.2104298" lon="13.2598221"><ele>1085.0</ele><time>2026-05-02T15:13:34.895Z</time></trkpt><trkpt lat="42.2105339" lon="13.2599548"><ele>1085.0</ele><time>2026-05-02T15:13:35.894Z</time></trkpt><trkpt lat="42.2106229" lon="13.2600888"><ele>1087.0</ele><time>2026-05-02T15:13:36.87Z</time></trkpt><trkpt lat="42.2106974" lon="13.2602306"><ele>1089.0</ele><time>2026-05-02T15:13:37.881Z</time></trkpt><trkpt lat="42.2107649" lon="13.2603723"><ele>1091.0</ele><time>2026-05-02T15:13:38.877Z</time></trkpt><trkpt lat="42.2108395" lon="13.2605089"><ele>1093.0</ele><time>2026-05-02T15:13:39.888Z</time></trkpt><trkpt lat="42.2109352" lon="13.2606319"><ele>1086.5</ele><time>2026-05-02T15:13:40.899Z</time></trkpt><trkpt lat="42.2110539" lon="13.2607377"><ele>1080.0</ele><time>2026-05-02T15:13:41.876Z</time></trkpt><trkpt lat="42.2111819" lon="13.2608208"><ele>1073.5</ele><time>2026-05-02T15:13:42.895Z</time></trkpt><trkpt lat="42.2113248" lon="13.2608894"><ele>1067.0</ele><time>2026-05-02T15:13:43.888Z</time></trkpt><trkpt lat="42.2114712" lon="13.260941"><ele>1073.8</ele><time>2026-05-02T15:13:44.888Z</time></trkpt><trkpt lat="42.211588" lon="13.2609627"><ele>1080.6</ele><time>2026-05-02T15:13:45.891Z</time></trkpt><trkpt lat="42.2116848" lon="13.2609868"><ele>1087.3999999999999</ele><time>2026-05-02T15:13:46.883Z</time></trkpt><trkpt lat="42.2117713" lon="13.2610324"><ele>1094.2</ele><time>2026-05-02T15:13:47.871Z</time></trkpt><trkpt lat="42.2118693" lon="13.2611059"><ele>1101.0</ele><time>2026-05-02T15:13:48.894Z</time></trkpt><trkpt lat="42.2119546" lon="13.2611707"><ele>1101.0</ele><time>2026-05-02T15:13:49.887Z</time></trkpt><trkpt lat="42.2120353" lon="13.2612025"><ele>1101.0</ele><time>2026-05-02T15:13:50.893Z</time></trkpt><trkpt lat="42.2121172" lon="13.2612171"><ele>1101.0</ele><time>2026-05-02T15:13:51.89Z</time></trkpt><trkpt lat="42.2122192" lon="13.2612161"><ele>1101.0</ele><time>2026-05-02T15:13:52.878Z</time></trkpt><trkpt lat="42.2123293" lon="13.2612029"><ele>1101.0</ele><time>2026-05-02T15:13:53.875Z</time></trkpt><trkpt lat="42.2124279" lon="13.2611863"><ele>1100.6666666666667</ele><time>2026-05-02T15:13:54.886Z</time></trkpt><trkpt lat="42.2125068" lon="13.2611885"><ele>1100.3333333333333</ele><time>2026-05-02T15:13:55.89Z</time></trkpt><trkpt lat="42.2125743" lon="13.2612219"><ele>1100.0</ele><time>2026-05-02T15:13:56.879Z</time></trkpt><trkpt lat="42.2126272" lon="13.2612763"><ele>1099.6666666666665</ele><time>2026-05-02T15:13:57.884Z</time></trkpt><trkpt lat="42.2126805" lon="13.2613843"><ele>1099.3333333333333</ele><time>2026-05-02T15:13:58.895Z</time></trkpt><trkpt lat="42.2127311" lon="13.2615196"><ele>1099.0</ele><time>2026-05-02T15:13:59.88Z</time></trkpt><trkpt lat="42.2127954" lon="13.2616537"><ele>1099.0</ele><time>2026-05-02T15:14:00.88Z</time></trkpt><trkpt lat="42.2128735" lon="13.2617884"><ele>1099.0</ele><time>2026-05-02T15:14:01.878Z</time></trkpt><trkpt lat="42.2129736" lon="13.2619215"><ele>1099.0</ele><time>2026-05-02T15:14:02.889Z</time></trkpt><trkpt lat="42.2130711" lon="13.2620571"><ele>1099.0</ele><time>2026-05-02T15:14:03.884Z</time></trkpt><trkpt lat="42.2131726" lon="13.2621873"><ele>1101.6666666666665</ele><time>2026-05-02T15:14:04.882Z</time></trkpt><trkpt lat="42.2132801" lon="13.2623262"><ele>1104.3333333333333</ele><time>2026-05-02T15:14:05.882Z</time></trkpt><trkpt lat="42.2134023" lon="13.2624699"><ele>1107.0</ele><time>2026-05-02T15:14:06.886Z</time></trkpt><trkpt lat="42.2135361" lon="13.2626123"><ele>1107.0</ele><time>2026-05-02T15:14:07.882Z</time></trkpt><trkpt lat="42.2136603" lon="13.2627355"><ele>1107.0</ele><time>2026-05-02T15:14:08.878Z</time></trkpt><trkpt lat="42.2137671" lon="13.2628492"><ele>1107.0</ele><time>2026-05-02T15:14:09.884Z</time></trkpt><trkpt lat="42.2138791" lon="13.2629466"><ele>1107.0</ele><time>2026-05-02T15:14:10.877Z</time></trkpt><trkpt lat="42.2140011" lon="13.2630137"><ele>1108.25</ele><time>2026-05-02T15:14:11.884Z</time></trkpt><trkpt lat="42.2141282" lon="13.2630537"><ele>1109.5</ele><time>2026-05-02T15:14:12.876Z</time></trkpt><trkpt lat="42.2142514" lon="13.2630794"><ele>1110.75</ele><time>2026-05-02T15:14:13.884Z</time></trkpt><trkpt lat="42.214384" lon="13.2631179"><ele>1112.0</ele><time>2026-05-02T15:14:14.894Z</time></trkpt><trkpt lat="42.2145145" lon="13.2631419"><ele>1109.25</ele><time>2026-05-02T15:14:15.893Z</time></trkpt><trkpt lat="42.2146392" lon="13.2631526"><ele>1106.5</ele><time>2026-05-02T15:14:16.89Z</time></trkpt><trkpt lat="42.2147544" lon="13.2631472"><ele>1103.75</ele><time>2026-05-02T15:14:17.903Z</time></trkpt><trkpt lat="42.2148811" lon="13.2631528"><ele>1101.0</ele><time>2026-05-02T15:14:18.892Z</time></trkpt><trkpt lat="42.2150095" lon="13.2631485"><ele>1100.25</ele><time>2026-05-02T15:14:19.881Z</time></trkpt><trkpt lat="42.215133" lon="13.2631731"><ele>1099.5</ele><time>2026-05-02T15:14:20.881Z</time></trkpt><trkpt lat="42.2152374" lon="13.2632215"><ele>1098.75</ele><time>2026-05-02T15:14:21.889Z</time></trkpt><trkpt lat="42.2153442" lon="13.2632875"><ele>1098.0</ele><time>2026-05-02T15:14:22.885Z</time></trkpt><trkpt lat="42.2154263" lon="13.2633751"><ele>1098.0</ele><time>2026-05-02T15:14:23.879Z</time></trkpt><trkpt lat="42.2154946" lon="13.2634561"><ele>1098.0</ele><time>2026-05-02T15:14:24.879Z</time></trkpt><trkpt lat="42.2155482" lon="13.2635415"><ele>1098.0</ele><time>2026-05-02T15:14:25.892Z</time></trkpt><trkpt lat="42.2155724" lon="13.2636415"><ele>1098.0</ele><time>2026-05-02T15:14:27.886Z</time></trkpt><trkpt lat="42.2155155" lon="13.2637138"><ele>1098.0</ele><time>2026-05-02T15:14:31.883Z</time></trkpt><trkpt lat="42.2154163" lon="13.2637987"><ele>1098.0</ele><time>2026-05-02T15:14:33.89Z</time></trkpt><trkpt lat="42.2153823" lon="13.2638745"><ele>1098.0</ele><time>2026-05-02T15:14:34.874Z</time></trkpt><trkpt lat="42.2154311" lon="13.2640293"><ele>1098.0</ele><time>2026-05-02T15:14:36.883Z</time></trkpt><trkpt lat="42.2154841" lon="13.2640885"><ele>1098.0</ele><time>2026-05-02T15:14:37.878Z</time></trkpt><trkpt lat="42.2155621" lon="13.2641257"><ele>1098.0</ele><time>2026-05-02T15:14:38.881Z</time></trkpt><trkpt lat="42.2156708" lon="13.2641852"><ele>1098.0</ele><time>2026-05-02T15:14:39.904Z</time></trkpt><trkpt lat="42.2157891" lon="13.264224"><ele>1101.0</ele><time>2026-05-02T15:14:40.884Z</time></trkpt><trkpt lat="42.2158986" lon="13.2642586"><ele>1104.0</ele><time>2026-05-02T15:14:41.882Z</time></trkpt><trkpt lat="42.2159926" lon="13.2642978"><ele>1107.0</ele><time>2026-05-02T15:14:42.882Z</time></trkpt><trkpt lat="42.2160718" lon="13.2643528"><ele>1110.0</ele><time>2026-05-02T15:14:43.902Z</time></trkpt><trkpt lat="42.2161162" lon="13.2644478"><ele>1113.0</ele><time>2026-05-02T15:14:44.888Z</time></trkpt><trkpt lat="42.2161448" lon="13.2645877"><ele>1113.0</ele><time>2026-05-02T15:14:45.881Z</time></trkpt><trkpt lat="42.2161528" lon="13.2647272"><ele>1113.0</ele><time>2026-05-02T15:14:46.881Z</time></trkpt><trkpt lat="42.2161371" lon="13.2648627"><ele>1113.0</ele><time>2026-05-02T15:14:47.871Z</time></trkpt><trkpt lat="42.2161091" lon="13.2649887"><ele>1113.0</ele><time>2026-05-02T15:14:48.883Z</time></trkpt><trkpt lat="42.2160858" lon="13.2650995"><ele>1113.0</ele><time>2026-05-02T15:14:49.874Z</time></trkpt><trkpt lat="42.2160823" lon="13.2651939"><ele>1114.8</ele><time>2026-05-02T15:14:50.899Z</time></trkpt><trkpt lat="42.2161649" lon="13.2653452"><ele>1116.6</ele><time>2026-05-02T15:14:52.885Z</time></trkpt><trkpt lat="42.2162125" lon="13.2654327"><ele>1118.4</ele><time>2026-05-02T15:14:53.881Z</time></trkpt><trkpt lat="42.2162727" lon="13.2655177"><ele>1120.2</ele><time>2026-05-02T15:14:54.881Z</time></trkpt><trkpt lat="42.2163509" lon="13.2656014"><ele>1122.0</ele><time>2026-05-02T15:14:55.884Z</time></trkpt><trkpt lat="42.2164218" lon="13.2656854"><ele>1121.3333333333333</ele><time>2026-05-02T15:14:56.882Z</time></trkpt><trkpt lat="42.2165101" lon="13.2657676"><ele>1120.6666666666665</ele><time>2026-05-02T15:14:57.88Z</time></trkpt><trkpt lat="42.2166603" lon="13.2658543"><ele>1120.0</ele><time>2026-05-02T15:14:58.887Z</time></trkpt><trkpt lat="42.2168686" lon="13.265945"><ele>1120.0</ele><time>2026-05-02T15:14:59.881Z</time></trkpt><trkpt lat="42.2170335" lon="13.2659944"><ele>1120.0</ele><time>2026-05-02T15:15:00.871Z</time></trkpt><trkpt lat="42.2171944" lon="13.2660511"><ele>1120.0</ele><time>2026-05-02T15:15:01.883Z</time></trkpt><trkpt lat="42.2173407" lon="13.2660691"><ele>1118.0</ele><time>2026-05-02T15:15:02.9Z</time></trkpt><trkpt lat="42.2174834" lon="13.2660729"><ele>1116.0</ele><time>2026-05-02T15:15:03.885Z</time></trkpt><trkpt lat="42.2175876" lon="13.2660733"><ele>1114.0</ele><time>2026-05-02T15:15:04.893Z</time></trkpt><trkpt lat="42.2176678" lon="13.2661073"><ele>1112.0</ele><time>2026-05-02T15:15:05.868Z</time></trkpt><trkpt lat="42.2177418" lon="13.2661673"><ele>1110.0</ele><time>2026-05-02T15:15:06.893Z</time></trkpt><trkpt lat="42.2178235" lon="13.2662025"><ele>1110.0</ele><time>2026-05-02T15:15:07.888Z</time></trkpt><trkpt lat="42.2178899" lon="13.2662326"><ele>1110.0</ele><time>2026-05-02T15:15:08.879Z</time></trkpt><trkpt lat="42.2179854" lon="13.2662075"><ele>1110.0</ele><time>2026-05-02T15:15:10.879Z</time></trkpt><trkpt lat="42.2180433" lon="13.2661407"><ele>1110.0</ele><time>2026-05-02T15:15:11.889Z</time></trkpt><trkpt lat="42.2180908" lon="13.266072"><ele>1110.0</ele><time>2026-05-02T15:15:12.877Z</time></trkpt><trkpt lat="42.2181927" lon="13.2659391"><ele>1110.6</ele><time>2026-05-02T15:15:14.895Z</time></trkpt><trkpt lat="42.2182669" lon="13.2658893"><ele>1111.2</ele><time>2026-05-02T15:15:15.892Z</time></trkpt><trkpt lat="42.2183655" lon="13.2658713"><ele>1111.8</ele><time>2026-05-02T15:15:16.879Z</time></trkpt><trkpt lat="42.2184754" lon="13.2658665"><ele>1112.4</ele><time>2026-05-02T15:15:17.88Z</time></trkpt><trkpt lat="42.2185831" lon="13.2658553"><ele>1113.0</ele><time>2026-05-02T15:15:18.879Z</time></trkpt><trkpt lat="42.2186993" lon="13.2658258"><ele>1113.0</ele><time>2026-05-02T15:15:19.877Z</time></trkpt><trkpt lat="42.2188178" lon="13.2657656"><ele>1113.0</ele><time>2026-05-02T15:15:20.884Z</time></trkpt><trkpt lat="42.2189568" lon="13.2656956"><ele>1113.0</ele><time>2026-05-02T15:15:21.875Z</time></trkpt><trkpt lat="42.2190763" lon="13.2656061"><ele>1113.0</ele><time>2026-05-02T15:15:22.89Z</time></trkpt><trkpt lat="42.2192005" lon="13.2655227"><ele>1114.0</ele><time>2026-05-02T15:15:23.883Z</time></trkpt><trkpt lat="42.219317" lon="13.2654405"><ele>1115.0</ele><time>2026-05-02T15:15:24.899Z</time></trkpt><trkpt lat="42.2194654" lon="13.2653212"><ele>1116.0</ele><time>2026-05-02T15:15:25.884Z</time></trkpt><trkpt lat="42.2195982" lon="13.2651876"><ele>1116.0</ele><time>2026-05-02T15:15:26.877Z</time></trkpt><trkpt lat="42.2197191" lon="13.265055"><ele>1116.0</ele><time>2026-05-02T15:15:27.874Z</time></trkpt><trkpt lat="42.2198122" lon="13.2649195"><ele>1116.0</ele><time>2026-05-02T15:15:28.894Z</time></trkpt><trkpt lat="42.2198946" lon="13.2647867"><ele>1116.0</ele><time>2026-05-02T15:15:29.89Z</time></trkpt><trkpt lat="42.2199779" lon="13.2646736"><ele>1117.1666666666667</ele><time>2026-05-02T15:15:30.883Z</time></trkpt><trkpt lat="42.2200491" lon="13.2645766"><ele>1118.3333333333333</ele><time>2026-05-02T15:15:31.874Z</time></trkpt><trkpt lat="42.2201205" lon="13.2645235"><ele>1119.5</ele><time>2026-05-02T15:15:32.889Z</time></trkpt><trkpt lat="42.2202023" lon="13.2645473"><ele>1120.6666666666665</ele><time>2026-05-02T15:15:34.884Z</time></trkpt><trkpt lat="42.2202458" lon="13.264616"><ele>1121.8333333333333</ele><time>2026-05-02T15:15:35.881Z</time></trkpt><trkpt lat="42.2202853" lon="13.2646856"><ele>1123.0</ele><time>2026-05-02T15:15:36.887Z</time></trkpt><trkpt lat="42.2203446" lon="13.2647385"><ele>1123.0</ele><time>2026-05-02T15:15:37.877Z</time></trkpt><trkpt lat="42.2204135" lon="13.2647659"><ele>1123.0</ele><time>2026-05-02T15:15:38.892Z</time></trkpt><trkpt lat="42.2204915" lon="13.2647732"><ele>1123.0</ele><time>2026-05-02T15:15:39.876Z</time></trkpt><trkpt lat="42.220576" lon="13.2647892"><ele>1123.0</ele><time>2026-05-02T15:15:40.886Z</time></trkpt><trkpt lat="42.2206816" lon="13.2648143"><ele>1123.0</ele><time>2026-05-02T15:15:41.884Z</time></trkpt><trkpt lat="42.2207972" lon="13.2648369"><ele>1124.0</ele><time>2026-05-02T15:15:42.882Z</time></trkpt><trkpt lat="42.2208798" lon="13.2648632"><ele>1125.0</ele><time>2026-05-02T15:15:43.881Z</time></trkpt><trkpt lat="42.2209518" lon="13.2649005"><ele>1126.0</ele><time>2026-05-02T15:15:44.875Z</time></trkpt><trkpt lat="42.2210199" lon="13.2649119"><ele>1127.0</ele><time>2026-05-02T15:15:46.872Z</time></trkpt><trkpt lat="42.2211118" lon="13.2649669"><ele>1128.0</ele><time>2026-05-02T15:15:49.892Z</time></trkpt><trkpt lat="42.2211659" lon="13.2650405"><ele>1129.0</ele><time>2026-05-02T15:15:50.9Z</time></trkpt><trkpt lat="42.2212251" lon="13.2651191"><ele>1129.0</ele><time>2026-05-02T15:15:51.873Z</time></trkpt><trkpt lat="42.2213047" lon="13.2651759"><ele>1129.0</ele><time>2026-05-02T15:15:52.876Z</time></trkpt><trkpt lat="42.2213817" lon="13.2652067"><ele>1129.0</ele><time>2026-05-02T15:15:53.89Z</time></trkpt><trkpt lat="42.2214903" lon="13.2651632"><ele>1129.0</ele><time>2026-05-02T15:15:55.875Z</time></trkpt><trkpt lat="42.2215611" lon="13.2651125"><ele>1129.0</ele><time>2026-05-02T15:15:56.885Z</time></trkpt><trkpt lat="42.2216396" lon="13.265035"><ele>1127.75</ele><time>2026-05-02T15:15:57.88Z</time></trkpt><trkpt lat="42.2217434" lon="13.2649313"><ele>1126.5</ele><time>2026-05-02T15:15:58.88Z</time></trkpt><trkpt lat="42.2218472" lon="13.2648189"><ele>1125.25</ele><time>2026-05-02T15:15:59.876Z</time></trkpt><trkpt lat="42.2219412" lon="13.2647152"><ele>1124.0</ele><time>2026-05-02T15:16:00.887Z</time></trkpt><trkpt lat="42.2220195" lon="13.2646369"><ele>1124.6000000000001</ele><time>2026-05-02T15:16:01.88Z</time></trkpt><trkpt lat="42.222093" lon="13.2645608"><ele>1125.2</ele><time>2026-05-02T15:16:02.888Z</time></trkpt><trkpt lat="42.2221707" lon="13.2645021"><ele>1125.8000000000002</ele><time>2026-05-02T15:16:03.886Z</time></trkpt><trkpt lat="42.2222642" lon="13.2644554"><ele>1126.4</ele><time>2026-05-02T15:16:04.88Z</time></trkpt><trkpt lat="42.2223491" lon="13.2643969"><ele>1127.0</ele><time>2026-05-02T15:16:05.872Z</time></trkpt><trkpt lat="42.2224249" lon="13.2643152"><ele>1127.0</ele><time>2026-05-02T15:16:06.876Z</time></trkpt><trkpt lat="42.2225014" lon="13.2642182"><ele>1127.0</ele><time>2026-05-02T15:16:07.873Z</time></trkpt><trkpt lat="42.2225941" lon="13.264145"><ele>1127.0</ele><time>2026-05-02T15:16:08.894Z</time></trkpt><trkpt lat="42.2226947" lon="13.2640998"><ele>1127.0</ele><time>2026-05-02T15:16:09.879Z</time></trkpt><trkpt lat="42.2228131" lon="13.2640374"><ele>1127.0</ele><time>2026-05-02T15:16:10.876Z</time></trkpt><trkpt lat="42.2229328" lon="13.2639661"><ele>1127.0</ele><time>2026-05-02T15:16:11.873Z</time></trkpt><trkpt lat="42.2230606" lon="13.2638786"><ele>1127.0</ele><time>2026-05-02T15:16:12.884Z</time></trkpt><trkpt lat="42.2232046" lon="13.2637775"><ele>1127.0</ele><time>2026-05-02T15:16:13.891Z</time></trkpt><trkpt lat="42.2233236" lon="13.2636608"><ele>1127.0</ele><time>2026-05-02T15:16:14.9Z</time></trkpt><trkpt lat="42.2233975" lon="13.2635497"><ele>1127.0</ele><time>2026-05-02T15:16:15.884Z</time></trkpt><trkpt lat="42.2234764" lon="13.26348"><ele>1127.0</ele><time>2026-05-02T15:16:16.894Z</time></trkpt><trkpt lat="42.2235437" lon="13.2634438"><ele>1127.0</ele><time>2026-05-02T15:16:17.895Z</time></trkpt><trkpt lat="42.2236543" lon="13.2634115"><ele>1127.0</ele><time>2026-05-02T15:16:19.874Z</time></trkpt><trkpt lat="42.2237286" lon="13.2634055"><ele>1127.0</ele><time>2026-05-02T15:16:20.877Z</time></trkpt><trkpt lat="42.223851" lon="13.2633953"><ele>1127.0</ele><time>2026-05-02T15:16:21.887Z</time></trkpt><trkpt lat="42.2239947" lon="13.2633895"><ele>1127.0</ele><time>2026-05-02T15:16:22.888Z</time></trkpt><trkpt lat="42.2241403" lon="13.2634066"><ele>1127.0</ele><time>2026-05-02T15:16:23.894Z</time></trkpt><trkpt lat="42.2242887" lon="13.2634301"><ele>1129.5</ele><time>2026-05-02T15:16:24.877Z</time></trkpt><trkpt lat="42.224445" lon="13.2634372"><ele>1132.0</ele><time>2026-05-02T15:16:25.872Z</time></trkpt><trkpt lat="42.2245923" lon="13.2634454"><ele>1134.5</ele><time>2026-05-02T15:16:26.884Z</time></trkpt><trkpt lat="42.2247268" lon="13.2634595"><ele>1137.0</ele><time>2026-05-02T15:16:27.89Z</time></trkpt><trkpt lat="42.224849" lon="13.2634447"><ele>1139.0</ele><time>2026-05-02T15:16:28.878Z</time></trkpt><trkpt lat="42.2249899" lon="13.2634109"><ele>1141.0</ele><time>2026-05-02T15:16:29.893Z</time></trkpt><trkpt lat="42.2251349" lon="13.2633893"><ele>1143.0</ele><time>2026-05-02T15:16:30.88Z</time></trkpt><trkpt lat="42.225287" lon="13.2633824"><ele>1145.0</ele><time>2026-05-02T15:16:31.877Z</time></trkpt><trkpt lat="42.225411" lon="13.2633657"><ele>1145.0</ele><time>2026-05-02T15:16:32.875Z</time></trkpt><trkpt lat="42.2255291" lon="13.2633395"><ele>1145.0</ele><time>2026-05-02T15:16:33.888Z</time></trkpt><trkpt lat="42.2256763" lon="13.263296"><ele>1145.0</ele><time>2026-05-02T15:16:34.875Z</time></trkpt><trkpt lat="42.2258164" lon="13.2632314"><ele>1145.0</ele><time>2026-05-02T15:16:35.898Z</time></trkpt><trkpt lat="42.225952" lon="13.263193"><ele>1146.75</ele><time>2026-05-02T15:16:36.888Z</time></trkpt><trkpt lat="42.2260953" lon="13.2631851"><ele>1148.5</ele><time>2026-05-02T15:16:37.873Z</time></trkpt><trkpt lat="42.2262241" lon="13.2631794"><ele>1150.25</ele><time>2026-05-02T15:16:38.888Z</time></trkpt><trkpt lat="42.2263408" lon="13.2631956"><ele>1152.0</ele><time>2026-05-02T15:16:39.882Z</time></trkpt><trkpt lat="42.2264409" lon="13.2632344"><ele>1152.0</ele><time>2026-05-02T15:16:40.897Z</time></trkpt><trkpt lat="42.2265384" lon="13.2632787"><ele>1152.0</ele><time>2026-05-02T15:16:41.87Z</time></trkpt><trkpt lat="42.2266121" lon="13.2633668"><ele>1152.0</ele><time>2026-05-02T15:16:42.875Z</time></trkpt><trkpt lat="42.2266766" lon="13.263459"><ele>1152.0</ele><time>2026-05-02T15:16:43.893Z</time></trkpt><trkpt lat="42.2267303" lon="13.2635925"><ele>1152.0</ele><time>2026-05-02T15:16:44.872Z</time></trkpt><trkpt lat="42.2267728" lon="13.2637538"><ele>1152.0</ele><time>2026-05-02T15:16:45.884Z</time></trkpt><trkpt lat="42.2268051" lon="13.2638961"><ele>1152.0</ele><time>2026-05-02T15:16:46.883Z</time></trkpt><trkpt lat="42.2268436" lon="13.2640345"><ele>1152.0</ele><time>2026-05-02T15:16:47.87Z</time></trkpt><trkpt lat="42.226892" lon="13.2641526"><ele>1152.0</ele><time>2026-05-02T15:16:48.889Z</time></trkpt><trkpt lat="42.2269483" lon="13.2642534"><ele>1152.0</ele><time>2026-05-02T15:16:49.892Z</time></trkpt><trkpt lat="42.2270006" lon="13.2643547"><ele>1154.0</ele><time>2026-05-02T15:16:50.876Z</time></trkpt><trkpt lat="42.2270475" lon="13.264453"><ele>1156.0</ele><time>2026-05-02T15:16:51.875Z</time></trkpt><trkpt lat="42.2271123" lon="13.2645357"><ele>1158.0</ele><time>2026-05-02T15:16:52.876Z</time></trkpt><trkpt lat="42.2272006" lon="13.264582"><ele>1160.0</ele><time>2026-05-02T15:16:53.881Z</time></trkpt><trkpt lat="42.2272917" lon="13.2646064"><ele>1162.0</ele><time>2026-05-02T15:16:54.885Z</time></trkpt><trkpt lat="42.2273918" lon="13.2645919"><ele>1162.0</ele><time>2026-05-02T15:16:55.869Z</time></trkpt><trkpt lat="42.2275091" lon="13.2645491"><ele>1162.0</ele><time>2026-05-02T15:16:56.877Z</time></trkpt><trkpt lat="42.2276281" lon="13.2645047"><ele>1162.0</ele><time>2026-05-02T15:16:57.879Z</time></trkpt><trkpt lat="42.2277583" lon="13.264474"><ele>1162.0</ele><time>2026-05-02T15:16:58.88Z</time></trkpt><trkpt lat="42.2278834" lon="13.2644306"><ele>1162.0</ele><time>2026-05-02T15:16:59.875Z</time></trkpt><trkpt lat="42.228015" lon="13.264388"><ele>1162.0</ele><time>2026-05-02T15:17:00.889Z</time></trkpt><trkpt lat="42.228146" lon="13.2643201"><ele>1162.0</ele><time>2026-05-02T15:17:01.881Z</time></trkpt><trkpt lat="42.2282584" lon="13.2642472"><ele>1162.0</ele><time>2026-05-02T15:17:02.887Z</time></trkpt><trkpt lat="42.2283383" lon="13.2641668"><ele>1162.25</ele><time>2026-05-02T15:17:03.883Z</time></trkpt><trkpt lat="42.2284166" lon="13.2640626"><ele>1162.5</ele><time>2026-05-02T15:17:04.88Z</time></trkpt><trkpt lat="42.228493" lon="13.2639391"><ele>1162.75</ele><time>2026-05-02T15:17:05.884Z</time></trkpt><trkpt lat="42.2285892" lon="13.2638174"><ele>1163.0</ele><time>2026-05-02T15:17:06.878Z</time></trkpt><trkpt lat="42.2287011" lon="13.2637045"><ele>1163.0</ele><time>2026-05-02T15:17:07.88Z</time></trkpt><trkpt lat="42.228814" lon="13.2635947"><ele>1163.0</ele><time>2026-05-02T15:17:08.876Z</time></trkpt><trkpt lat="42.2289268" lon="13.2634684"><ele>1163.0</ele><time>2026-05-02T15:17:09.891Z</time></trkpt><trkpt lat="42.2290425" lon="13.263351"><ele>1163.0</ele><time>2026-05-02T15:17:10.877Z</time></trkpt><trkpt lat="42.2291624" lon="13.263239"><ele>1166.4</ele><time>2026-05-02T15:17:11.882Z</time></trkpt><trkpt lat="42.2292728" lon="13.2631409"><ele>1169.8</ele><time>2026-05-02T15:17:12.88Z</time></trkpt><trkpt lat="42.2293545" lon="13.2630451"><ele>1173.2</ele><time>2026-05-02T15:17:13.888Z</time></trkpt><trkpt lat="42.2294161" lon="13.2629452"><ele>1176.6</ele><time>2026-05-02T15:17:14.882Z</time></trkpt><trkpt lat="42.2294412" lon="13.2628514"><ele>1180.0</ele><time>2026-05-02T15:17:15.886Z</time></trkpt><trkpt lat="42.2294564" lon="13.2627555"><ele>1180.0</ele><time>2026-05-02T15:17:16.883Z</time></trkpt><trkpt lat="42.2294324" lon="13.2626511"><ele>1180.0</ele><time>2026-05-02T15:17:17.871Z</time></trkpt><trkpt lat="42.2293839" lon="13.2625292"><ele>1180.0</ele><time>2026-05-02T15:17:18.885Z</time></trkpt><trkpt lat="42.2293411" lon="13.2624191"><ele>1180.0</ele><time>2026-05-02T15:17:19.889Z</time></trkpt><trkpt lat="42.2293093" lon="13.2623323"><ele>1180.0</ele><time>2026-05-02T15:17:20.895Z</time></trkpt><trkpt lat="42.2293581" lon="13.2621848"><ele>1179.6</ele><time>2026-05-02T15:17:22.879Z</time></trkpt><trkpt lat="42.2294092" lon="13.2621243"><ele>1179.2</ele><time>2026-05-02T15:17:23.868Z</time></trkpt><trkpt lat="42.2294699" lon="13.2620575"><ele>1178.8</ele><time>2026-05-02T15:17:24.883Z</time></trkpt><trkpt lat="42.2295409" lon="13.2619649"><ele>1178.4</ele><time>2026-05-02T15:17:25.88Z</time></trkpt><trkpt lat="42.2296085" lon="13.2618298"><ele>1178.0</ele><time>2026-05-02T15:17:26.899Z</time></trkpt><trkpt lat="42.2296775" lon="13.2616627"><ele>1178.0</ele><time>2026-05-02T15:17:27.882Z</time></trkpt><trkpt lat="42.2297274" lon="13.261544"><ele>1178.0</ele><time>2026-05-02T15:17:28.889Z</time></trkpt><trkpt lat="42.2297402" lon="13.2613954"><ele>1178.0</ele><time>2026-05-02T15:17:30.879Z</time></trkpt><trkpt lat="42.2297398" lon="13.2612991"><ele>1178.0</ele><time>2026-05-02T15:17:31.883Z</time></trkpt><trkpt lat="42.2297417" lon="13.2611657"><ele>1178.0</ele><time>2026-05-02T15:17:32.879Z</time></trkpt><trkpt lat="42.2297547" lon="13.2610364"><ele>1177.3333333333335</ele><time>2026-05-02T15:17:33.885Z</time></trkpt><trkpt lat="42.2297766" lon="13.2609244"><ele>1176.6666666666667</ele><time>2026-05-02T15:17:34.886Z</time></trkpt><trkpt lat="42.2298224" lon="13.2608381"><ele>1176.0</ele><time>2026-05-02T15:17:35.885Z</time></trkpt><trkpt lat="42.2298893" lon="13.2608092"><ele>1175.3333333333333</ele><time>2026-05-02T15:17:36.88Z</time></trkpt><trkpt lat="42.230014" lon="13.2607957"><ele>1174.6666666666665</ele><time>2026-05-02T15:17:38.89Z</time></trkpt><trkpt lat="42.230094" lon="13.2608171"><ele>1174.0</ele><time>2026-05-02T15:17:39.887Z</time></trkpt><trkpt lat="42.2302016" lon="13.2608705"><ele>1178.6000000000001</ele><time>2026-05-02T15:17:40.874Z</time></trkpt><trkpt lat="42.2303001" lon="13.2609081"><ele>1183.2</ele><time>2026-05-02T15:17:41.883Z</time></trkpt><trkpt lat="42.2303676" lon="13.2609239"><ele>1187.8000000000002</ele><time>2026-05-02T15:17:42.886Z</time></trkpt><trkpt lat="42.2305" lon="13.2608612"><ele>1192.4</ele><time>2026-05-02T15:17:44.873Z</time></trkpt><trkpt lat="42.2305712" lon="13.2607913"><ele>1197.0</ele><time>2026-05-02T15:17:45.885Z</time></trkpt><trkpt lat="42.2306334" lon="13.2607112"><ele>1195.6</ele><time>2026-05-02T15:17:46.878Z</time></trkpt><trkpt lat="42.2306983" lon="13.2606191"><ele>1194.2</ele><time>2026-05-02T15:17:47.877Z</time></trkpt><trkpt lat="42.2307617" lon="13.2605618"><ele>1192.8</ele><time>2026-05-02T15:17:48.876Z</time></trkpt><trkpt lat="42.230852" lon="13.2605215"><ele>1191.4</ele><time>2026-05-02T15:17:49.873Z</time></trkpt><trkpt lat="42.2309529" lon="13.2604908"><ele>1190.0</ele><time>2026-05-02T15:17:50.891Z</time></trkpt><trkpt lat="42.2310636" lon="13.2604746"><ele>1190.0</ele><time>2026-05-02T15:17:51.88Z</time></trkpt><trkpt lat="42.231198" lon="13.2604759"><ele>1190.0</ele><time>2026-05-02T15:17:52.893Z</time></trkpt><trkpt lat="42.231328" lon="13.2604721"><ele>1190.0</ele><time>2026-05-02T15:17:53.882Z</time></trkpt><trkpt lat="42.2314447" lon="13.2604862"><ele>1190.0</ele><time>2026-05-02T15:17:54.889Z</time></trkpt><trkpt lat="42.2315416" lon="13.2605225"><ele>1192.0</ele><time>2026-05-02T15:17:55.893Z</time></trkpt><trkpt lat="42.2316684" lon="13.2605883"><ele>1194.0</ele><time>2026-05-02T15:17:56.889Z</time></trkpt><trkpt lat="42.2317986" lon="13.2606679"><ele>1196.0</ele><time>2026-05-02T15:17:57.887Z</time></trkpt><trkpt lat="42.2319342" lon="13.2607398"><ele>1198.0</ele><time>2026-05-02T15:17:58.882Z</time></trkpt><trkpt lat="42.2320728" lon="13.2607902"><ele>1199.6666666666665</ele><time>2026-05-02T15:17:59.881Z</time></trkpt><trkpt lat="42.2322043" lon="13.2608632"><ele>1201.3333333333333</ele><time>2026-05-02T15:18:00.888Z</time></trkpt><trkpt lat="42.2323435" lon="13.2609613"><ele>1203.0</ele><time>2026-05-02T15:18:01.883Z</time></trkpt><trkpt lat="42.2325009" lon="13.2610668"><ele>1203.0</ele><time>2026-05-02T15:18:02.882Z</time></trkpt><trkpt lat="42.2326464" lon="13.2611612"><ele>1203.0</ele><time>2026-05-02T15:18:03.889Z</time></trkpt><trkpt lat="42.2327811" lon="13.2612725"><ele>1203.0</ele><time>2026-05-02T15:18:04.889Z</time></trkpt><trkpt lat="42.2329054" lon="13.2613767"><ele>1203.75</ele><time>2026-05-02T15:18:05.888Z</time></trkpt><trkpt lat="42.2330114" lon="13.2614926"><ele>1204.5</ele><time>2026-05-02T15:18:06.886Z</time></trkpt><trkpt lat="42.2331064" lon="13.2616072"><ele>1205.25</ele><time>2026-05-02T15:18:07.878Z</time></trkpt><trkpt lat="42.2331846" lon="13.2617159"><ele>1206.0</ele><time>2026-05-02T15:18:08.879Z</time></trkpt><trkpt lat="42.2332676" lon="13.2617857"><ele>1206.0</ele><time>2026-05-02T15:18:09.874Z</time></trkpt><trkpt lat="42.2333765" lon="13.2618335"><ele>1206.0</ele><time>2026-05-02T15:18:10.89Z</time></trkpt><trkpt lat="42.2334847" lon="13.2618922"><ele>1206.0</ele><time>2026-05-02T15:18:11.876Z</time></trkpt><trkpt lat="42.233605" lon="13.2619569"><ele>1206.0</ele><time>2026-05-02T15:18:12.881Z</time></trkpt><trkpt lat="42.2337319" lon="13.2620346"><ele>1206.0</ele><time>2026-05-02T15:18:13.88Z</time></trkpt><trkpt lat="42.2338509" lon="13.2620971"><ele>1206.0</ele><time>2026-05-02T15:18:14.885Z</time></trkpt><trkpt lat="42.2339236" lon="13.2621272"><ele>1206.0</ele><time>2026-05-02T15:18:15.874Z</time></trkpt><trkpt lat="42.2340622" lon="13.262112"><ele>1206.0</ele><time>2026-05-02T15:18:17.878Z</time></trkpt><trkpt lat="42.2341659" lon="13.2620686"><ele>1204.75</ele><time>2026-05-02T15:18:18.872Z</time></trkpt><trkpt lat="42.2342898" lon="13.2620205"><ele>1203.5</ele><time>2026-05-02T15:18:19.888Z</time></trkpt><trkpt lat="42.234431" lon="13.261959"><ele>1202.25</ele><time>2026-05-02T15:18:20.878Z</time></trkpt><trkpt lat="42.2345868" lon="13.2618806"><ele>1201.0</ele><time>2026-05-02T15:18:21.887Z</time></trkpt><trkpt lat="42.2347484" lon="13.2617986"><ele>1204.5</ele><time>2026-05-02T15:18:22.887Z</time></trkpt><trkpt lat="42.2349085" lon="13.2617164"><ele>1208.0</ele><time>2026-05-02T15:18:23.882Z</time></trkpt><trkpt lat="42.2350492" lon="13.2616457"><ele>1211.5</ele><time>2026-05-02T15:18:24.883Z</time></trkpt><trkpt lat="42.2351724" lon="13.2616043"><ele>1215.0</ele><time>2026-05-02T15:18:25.879Z</time></trkpt><trkpt lat="42.2352648" lon="13.2615668"><ele>1215.0</ele><time>2026-05-02T15:18:26.879Z</time></trkpt><trkpt lat="42.2353548" lon="13.2615142"><ele>1215.0</ele><time>2026-05-02T15:18:27.88Z</time></trkpt><trkpt lat="42.2354315" lon="13.2614602"><ele>1215.0</ele><time>2026-05-02T15:18:28.883Z</time></trkpt><trkpt lat="42.2355189" lon="13.2613769"><ele>1215.0</ele><time>2026-05-02T15:18:29.876Z</time></trkpt><trkpt lat="42.235613" lon="13.2612771"><ele>1215.0</ele><time>2026-05-02T15:18:30.881Z</time></trkpt><trkpt lat="42.2357162" lon="13.2611797"><ele>1217.0</ele><time>2026-05-02T15:18:31.88Z</time></trkpt><trkpt lat="42.2358226" lon="13.2610929"><ele>1219.0</ele><time>2026-05-02T15:18:32.897Z</time></trkpt><trkpt lat="42.2359457" lon="13.2610336"><ele>1221.0</ele><time>2026-05-02T15:18:33.893Z</time></trkpt><trkpt lat="42.2360564" lon="13.2609892"><ele>1223.0</ele><time>2026-05-02T15:18:34.889Z</time></trkpt><trkpt lat="42.2361704" lon="13.2609517"><ele>1223.0</ele><time>2026-05-02T15:18:35.877Z</time></trkpt><trkpt lat="42.2362908" lon="13.2609117"><ele>1223.0</ele><time>2026-05-02T15:18:36.897Z</time></trkpt><trkpt lat="42.2364004" lon="13.2608685"><ele>1223.0</ele><time>2026-05-02T15:18:37.873Z</time></trkpt><trkpt lat="42.2365071" lon="13.2608303"><ele>1223.0</ele><time>2026-05-02T15:18:38.896Z</time></trkpt><trkpt lat="42.2366068" lon="13.2607827"><ele>1224.0</ele><time>2026-05-02T15:18:39.88Z</time></trkpt><trkpt lat="42.236713" lon="13.2607211"><ele>1225.0</ele><time>2026-05-02T15:18:40.885Z</time></trkpt><trkpt lat="42.2368324" lon="13.2606491"><ele>1226.0</ele><time>2026-05-02T15:18:41.88Z</time></trkpt><trkpt lat="42.2369524" lon="13.2606063"><ele>1227.0</ele><time>2026-05-02T15:18:42.878Z</time></trkpt><trkpt lat="42.237067" lon="13.2605983"><ele>1226.75</ele><time>2026-05-02T15:18:43.885Z</time></trkpt><trkpt lat="42.2371844" lon="13.2606161"><ele>1226.5</ele><time>2026-05-02T15:18:44.887Z</time></trkpt><trkpt lat="42.2373061" lon="13.2606458"><ele>1226.25</ele><time>2026-05-02T15:18:45.874Z</time></trkpt><trkpt lat="42.2374349" lon="13.2606486"><ele>1226.0</ele><time>2026-05-02T15:18:46.883Z</time></trkpt><trkpt lat="42.2375701" lon="13.2606306"><ele>1223.25</ele><time>2026-05-02T15:18:47.868Z</time></trkpt><trkpt lat="42.2377087" lon="13.260612"><ele>1220.5</ele><time>2026-05-02T15:18:48.884Z</time></trkpt><trkpt lat="42.2378533" lon="13.2605754"><ele>1217.75</ele><time>2026-05-02T15:18:49.879Z</time></trkpt><trkpt lat="42.2379942" lon="13.2605188"><ele>1215.0</ele><time>2026-05-02T15:18:50.872Z</time></trkpt><trkpt lat="42.2381302" lon="13.2604703"><ele>1216.5</ele><time>2026-05-02T15:18:51.883Z</time></trkpt><trkpt lat="42.2382664" lon="13.2604482"><ele>1218.0</ele><time>2026-05-02T15:18:52.871Z</time></trkpt><trkpt lat="42.2383937" lon="13.2604188"><ele>1219.5</ele><time>2026-05-02T15:18:53.866Z</time></trkpt><trkpt lat="42.2385094" lon="13.2603648"><ele>1221.0</ele><time>2026-05-02T15:18:54.867Z</time></trkpt><trkpt lat="42.2386082" lon="13.2602934"><ele>1221.0</ele><time>2026-05-02T15:18:55.88Z</time></trkpt><trkpt lat="42.2387055" lon="13.2602076"><ele>1221.0</ele><time>2026-05-02T15:18:56.884Z</time></trkpt><trkpt lat="42.2387938" lon="13.2601415"><ele>1221.0</ele><time>2026-05-02T15:18:57.881Z</time></trkpt><trkpt lat="42.2388576" lon="13.2601415"><ele>1221.0</ele><time>2026-05-02T15:18:58.878Z</time></trkpt><trkpt lat="42.2389371" lon="13.2601832"><ele>1221.0</ele><time>2026-05-02T15:18:59.867Z</time></trkpt><trkpt lat="42.2390115" lon="13.2602528"><ele>1219.75</ele><time>2026-05-02T15:19:00.871Z</time></trkpt><trkpt lat="42.2390888" lon="13.2603431"><ele>1218.5</ele><time>2026-05-02T15:19:01.867Z</time></trkpt><trkpt lat="42.2391661" lon="13.260436"><ele>1217.25</ele><time>2026-05-02T15:19:02.868Z</time></trkpt><trkpt lat="42.2392725" lon="13.2605218"><ele>1216.0</ele><time>2026-05-02T15:19:03.872Z</time></trkpt><trkpt lat="42.2393919" lon="13.2606203"><ele>1219.25</ele><time>2026-05-02T15:19:04.866Z</time></trkpt><trkpt lat="42.239521" lon="13.2607006"><ele>1222.5</ele><time>2026-05-02T15:19:05.87Z</time></trkpt><trkpt lat="42.2396539" lon="13.2607596"><ele>1225.75</ele><time>2026-05-02T15:19:06.873Z</time></trkpt><trkpt lat="42.2397915" lon="13.260804"><ele>1229.0</ele><time>2026-05-02T15:19:07.871Z</time></trkpt><trkpt lat="42.2399054" lon="13.2608103"><ele>1229.0</ele><time>2026-05-02T15:19:08.873Z</time></trkpt><trkpt lat="42.2400213" lon="13.2607881"><ele>1229.0</ele><time>2026-05-02T15:19:09.893Z</time></trkpt><trkpt lat="42.2401404" lon="13.2607286"><ele>1229.0</ele><time>2026-05-02T15:19:10.886Z</time></trkpt><trkpt lat="42.2402879" lon="13.2606697"><ele>1229.0</ele><time>2026-05-02T15:19:11.88Z</time></trkpt><trkpt lat="42.2404406" lon="13.2606141"><ele>1227.0</ele><time>2026-05-02T15:19:12.884Z</time></trkpt><trkpt lat="42.240593" lon="13.260563"><ele>1225.0</ele><time>2026-05-02T15:19:13.88Z</time></trkpt><trkpt lat="42.2407089" lon="13.2605358"><ele>1223.0</ele><time>2026-05-02T15:19:14.895Z</time></trkpt><trkpt lat="42.2407913" lon="13.260516"><ele>1221.0</ele><time>2026-05-02T15:19:15.877Z</time></trkpt><trkpt lat="42.2408729" lon="13.2604742"><ele>1219.0</ele><time>2026-05-02T15:19:16.88Z</time></trkpt><trkpt lat="42.2409768" lon="13.260441"><ele>1219.0</ele><time>2026-05-02T15:19:17.883Z</time></trkpt><trkpt lat="42.2410909" lon="13.2603946"><ele>1219.0</ele><time>2026-05-02T15:19:18.882Z</time></trkpt><trkpt lat="42.2411994" lon="13.2603247"><ele>1219.0</ele><time>2026-05-02T15:19:19.894Z</time></trkpt><trkpt lat="42.2412701" lon="13.2602408"><ele>1219.0</ele><time>2026-05-02T15:19:20.88Z</time></trkpt><trkpt lat="42.2413514" lon="13.2601442"><ele>1219.0</ele><time>2026-05-02T15:19:21.873Z</time></trkpt><trkpt lat="42.2414217" lon="13.2600572"><ele>1221.8</ele><time>2026-05-02T15:19:22.881Z</time></trkpt><trkpt lat="42.2415053" lon="13.2600182"><ele>1224.6000000000001</ele><time>2026-05-02T15:19:23.892Z</time></trkpt><trkpt lat="42.2415895" lon="13.2600071"><ele>1227.4</ele><time>2026-05-02T15:19:24.883Z</time></trkpt><trkpt lat="42.2416855" lon="13.2600184"><ele>1230.2</ele><time>2026-05-02T15:19:25.863Z</time></trkpt><trkpt lat="42.2418035" lon="13.2600188"><ele>1233.0</ele><time>2026-05-02T15:19:26.877Z</time></trkpt><trkpt lat="42.2419089" lon="13.2600148"><ele>1233.0</ele><time>2026-05-02T15:19:27.873Z</time></trkpt><trkpt lat="42.2419927" lon="13.2599849"><ele>1233.0</ele><time>2026-05-02T15:19:28.886Z</time></trkpt><trkpt lat="42.2420744" lon="13.2599354"><ele>1233.0</ele><time>2026-05-02T15:19:29.878Z</time></trkpt><trkpt lat="42.2421941" lon="13.2598729"><ele>1233.0</ele><time>2026-05-02T15:19:30.877Z</time></trkpt><trkpt lat="42.2423171" lon="13.2598184"><ele>1233.0</ele><time>2026-05-02T15:19:31.872Z</time></trkpt><trkpt lat="42.2424573" lon="13.259777"><ele>1231.5</ele><time>2026-05-02T15:19:32.882Z</time></trkpt><trkpt lat="42.2425758" lon="13.2597316"><ele>1230.0</ele><time>2026-05-02T15:19:33.875Z</time></trkpt><trkpt lat="42.2426928" lon="13.2597066"><ele>1228.5</ele><time>2026-05-02T15:19:34.888Z</time></trkpt><trkpt lat="42.2428259" lon="13.2596804"><ele>1227.0</ele><time>2026-05-02T15:19:35.891Z</time></trkpt><trkpt lat="42.242957" lon="13.2596286"><ele>1227.0</ele><time>2026-05-02T15:19:36.876Z</time></trkpt><trkpt lat="42.2430589" lon="13.2595717"><ele>1227.0</ele><time>2026-05-02T15:19:37.881Z</time></trkpt><trkpt lat="42.2431664" lon="13.2594789"><ele>1227.0</ele><time>2026-05-02T15:19:38.882Z</time></trkpt><trkpt lat="42.2432723" lon="13.2593805"><ele>1227.0</ele><time>2026-05-02T15:19:39.878Z</time></trkpt><trkpt lat="42.2433788" lon="13.259279"><ele>1231.25</ele><time>2026-05-02T15:19:40.875Z</time></trkpt><trkpt lat="42.2434836" lon="13.2591765"><ele>1235.5</ele><time>2026-05-02T15:19:41.874Z</time></trkpt><trkpt lat="42.2436004" lon="13.2590917"><ele>1239.75</ele><time>2026-05-02T15:19:42.883Z</time></trkpt><trkpt lat="42.2437227" lon="13.2590443"><ele>1244.0</ele><time>2026-05-02T15:19:43.882Z</time></trkpt><trkpt lat="42.2438349" lon="13.2589766"><ele>1245.75</ele><time>2026-05-02T15:19:44.878Z</time></trkpt><trkpt lat="42.2439211" lon="13.2588829"><ele>1247.5</ele><time>2026-05-02T15:19:45.877Z</time></trkpt><trkpt lat="42.2440105" lon="13.2587727"><ele>1249.25</ele><time>2026-05-02T15:19:46.875Z</time></trkpt><trkpt lat="42.2440905" lon="13.25867"><ele>1251.0</ele><time>2026-05-02T15:19:47.867Z</time></trkpt><trkpt lat="42.2441816" lon="13.2585819"><ele>1251.0</ele><time>2026-05-02T15:19:48.895Z</time></trkpt><trkpt lat="42.2442804" lon="13.258543"><ele>1251.0</ele><time>2026-05-02T15:19:49.868Z</time></trkpt><trkpt lat="42.2443754" lon="13.2585074"><ele>1251.0</ele><time>2026-05-02T15:19:50.892Z</time></trkpt><trkpt lat="42.2444863" lon="13.2585094"><ele>1251.0</ele><time>2026-05-02T15:19:51.873Z</time></trkpt><trkpt lat="42.2445979" lon="13.2585431"><ele>1251.0</ele><time>2026-05-02T15:19:52.882Z</time></trkpt><trkpt lat="42.2446823" lon="13.2585996"><ele>1251.0</ele><time>2026-05-02T15:19:53.881Z</time></trkpt><trkpt lat="42.2447722" lon="13.2586872"><ele>1251.0</ele><time>2026-05-02T15:19:54.88Z</time></trkpt><trkpt lat="42.2448626" lon="13.2587816"><ele>1251.0</ele><time>2026-05-02T15:19:55.873Z</time></trkpt><trkpt lat="42.2449724" lon="13.2588912"><ele>1251.0</ele><time>2026-05-02T15:19:56.871Z</time></trkpt><trkpt lat="42.2450985" lon="13.2590138"><ele>1252.3333333333333</ele><time>2026-05-02T15:19:57.879Z</time></trkpt><trkpt lat="42.245226" lon="13.2591319"><ele>1253.6666666666665</ele><time>2026-05-02T15:19:58.882Z</time></trkpt><trkpt lat="42.2453519" lon="13.2592011"><ele>1255.0</ele><time>2026-05-02T15:19:59.879Z</time></trkpt><trkpt lat="42.2455303" lon="13.2592584"><ele>1254.6666666666665</ele><time>2026-05-02T15:20:00.89Z</time></trkpt><trkpt lat="42.2457214" lon="13.2593245"><ele>1254.3333333333333</ele><time>2026-05-02T15:20:01.893Z</time></trkpt><trkpt lat="42.2458935" lon="13.2593834"><ele>1254.0</ele><time>2026-05-02T15:20:02.883Z</time></trkpt><trkpt lat="42.2460396" lon="13.2594351"><ele>1254.0</ele><time>2026-05-02T15:20:03.871Z</time></trkpt><trkpt lat="42.2461188" lon="13.2594721"><ele>1254.0</ele><time>2026-05-02T15:20:04.894Z</time></trkpt><trkpt lat="42.2461747" lon="13.2595225"><ele>1254.0</ele><time>2026-05-02T15:20:05.878Z</time></trkpt><trkpt lat="42.2462051" lon="13.2596008"><ele>1254.0</ele><time>2026-05-02T15:20:06.88Z</time></trkpt><trkpt lat="42.2462214" lon="13.2596863"><ele>1254.0</ele><time>2026-05-02T15:20:07.885Z</time></trkpt><trkpt lat="42.2462396" lon="13.2597863"><ele>1254.0</ele><time>2026-05-02T15:20:08.873Z</time></trkpt><trkpt lat="42.2462362" lon="13.2598982"><ele>1254.0</ele><time>2026-05-02T15:20:09.868Z</time></trkpt><trkpt lat="42.2462447" lon="13.2600041"><ele>1258.5</ele><time>2026-05-02T15:20:10.875Z</time></trkpt><trkpt lat="42.2463072" lon="13.260091"><ele>1263.0</ele><time>2026-05-02T15:20:12.87Z</time></trkpt><trkpt lat="42.2464639" lon="13.2601259"><ele>1267.5</ele><time>2026-05-02T15:20:14.91Z</time></trkpt><trkpt lat="42.2465739" lon="13.2601158"><ele>1272.0</ele><time>2026-05-02T15:20:15.886Z</time></trkpt><trkpt lat="42.2466679" lon="13.2600816"><ele>1271.1666666666667</ele><time>2026-05-02T15:20:16.884Z</time></trkpt><trkpt lat="42.2467602" lon="13.2600144"><ele>1270.3333333333333</ele><time>2026-05-02T15:20:17.874Z</time></trkpt><trkpt lat="42.2468464" lon="13.2599326"><ele>1269.5</ele><time>2026-05-02T15:20:18.871Z</time></trkpt><trkpt lat="42.2469115" lon="13.2598391"><ele>1268.6666666666665</ele><time>2026-05-02T15:20:19.887Z</time></trkpt><trkpt lat="42.2469593" lon="13.2597802"><ele>1267.8333333333333</ele><time>2026-05-02T15:20:20.887Z</time></trkpt><trkpt lat="42.2470295" lon="13.2597443"><ele>1267.0</ele><time>2026-05-02T15:20:22.877Z</time></trkpt><trkpt lat="42.2470868" lon="13.2598346"><ele>1268.8333333333333</ele><time>2026-05-02T15:20:24.876Z</time></trkpt><trkpt lat="42.2470946" lon="13.2599203"><ele>1270.6666666666665</ele><time>2026-05-02T15:20:25.879Z</time></trkpt><trkpt lat="42.2470903" lon="13.2600241"><ele>1272.5</ele><time>2026-05-02T15:20:26.867Z</time></trkpt><trkpt lat="42.2470685" lon="13.2601552"><ele>1274.3333333333333</ele><time>2026-05-02T15:20:27.875Z</time></trkpt><trkpt lat="42.2470597" lon="13.2602455"><ele>1276.1666666666667</ele><time>2026-05-02T15:20:28.898Z</time></trkpt><trkpt lat="42.2471254" lon="13.2603166"><ele>1278.0</ele><time>2026-05-02T15:20:30.88Z</time></trkpt><trkpt lat="42.2472193" lon="13.2603167"><ele>1278.0</ele><time>2026-05-02T15:20:32.876Z</time></trkpt><trkpt lat="42.2472875" lon="13.2602729"><ele>1278.0</ele><time>2026-05-02T15:20:34.88Z</time></trkpt><trkpt lat="42.2473354" lon="13.2601798"><ele>1278.0</ele><time>2026-05-02T15:20:35.875Z</time></trkpt><trkpt lat="42.2473483" lon="13.2600525"><ele>1278.0</ele><time>2026-05-02T15:20:36.874Z</time></trkpt><trkpt lat="42.2473908" lon="13.2598584"><ele>1278.0</ele><time>2026-05-02T15:20:37.879Z</time></trkpt><trkpt lat="42.2474428" lon="13.2596753"><ele>1279.6</ele><time>2026-05-02T15:20:38.88Z</time></trkpt><trkpt lat="42.2474942" lon="13.259546"><ele>1281.1999999999998</ele><time>2026-05-02T15:20:39.877Z</time></trkpt><trkpt lat="42.2475602" lon="13.2594541"><ele>1282.8</ele><time>2026-05-02T15:20:40.886Z</time></trkpt><trkpt lat="42.24763" lon="13.2593839"><ele>1284.3999999999999</ele><time>2026-05-02T15:20:41.88Z</time></trkpt><trkpt lat="42.247689" lon="13.2593099"><ele>1286.0</ele><time>2026-05-02T15:20:42.89Z</time></trkpt><trkpt lat="42.2477279" lon="13.2592108"><ele>1286.0</ele><time>2026-05-02T15:20:43.89Z</time></trkpt><trkpt lat="42.2477617" lon="13.2591103"><ele>1286.0</ele><time>2026-05-02T15:20:44.873Z</time></trkpt><trkpt lat="42.2478258" lon="13.2590388"><ele>1286.0</ele><time>2026-05-02T15:20:45.884Z</time></trkpt><trkpt lat="42.2479049" lon="13.2589723"><ele>1286.0</ele><time>2026-05-02T15:20:46.886Z</time></trkpt><trkpt lat="42.247987" lon="13.2588874"><ele>1286.0</ele><time>2026-05-02T15:20:47.881Z</time></trkpt><trkpt lat="42.2480561" lon="13.2587617"><ele>1283.0</ele><time>2026-05-02T15:20:48.875Z</time></trkpt><trkpt lat="42.2481119" lon="13.2586042"><ele>1280.0</ele><time>2026-05-02T15:20:49.883Z</time></trkpt><trkpt lat="42.2481634" lon="13.2584402"><ele>1277.0</ele><time>2026-05-02T15:20:50.869Z</time></trkpt><trkpt lat="42.2482129" lon="13.2582884"><ele>1274.0</ele><time>2026-05-02T15:20:51.867Z</time></trkpt><trkpt lat="42.2482719" lon="13.258148"><ele>1276.5</ele><time>2026-05-02T15:20:52.865Z</time></trkpt><trkpt lat="42.2483633" lon="13.2580137"><ele>1279.0</ele><time>2026-05-02T15:20:53.879Z</time></trkpt><trkpt lat="42.2484514" lon="13.2578744"><ele>1281.5</ele><time>2026-05-02T15:20:54.87Z</time></trkpt><trkpt lat="42.2485094" lon="13.2577037"><ele>1284.0</ele><time>2026-05-02T15:20:55.87Z</time></trkpt><trkpt lat="42.2485664" lon="13.2575446"><ele>1284.0</ele><time>2026-05-02T15:20:56.867Z</time></trkpt><trkpt lat="42.2486173" lon="13.2574166"><ele>1284.0</ele><time>2026-05-02T15:20:57.87Z</time></trkpt><trkpt lat="42.248664" lon="13.2573343"><ele>1284.0</ele><time>2026-05-02T15:20:58.881Z</time></trkpt><trkpt lat="42.2487122" lon="13.2572433"><ele>1284.0</ele><time>2026-05-02T15:21:07.875Z</time></trkpt><trkpt lat="42.2488086" lon="13.2571329"><ele>1284.0</ele><time>2026-05-02T15:21:09.884Z</time></trkpt><trkpt lat="42.2488895" lon="13.2570761"><ele>1285.75</ele><time>2026-05-02T15:21:10.885Z</time></trkpt><trkpt lat="42.2489895" lon="13.2570382"><ele>1287.5</ele><time>2026-05-02T15:21:11.872Z</time></trkpt><trkpt lat="42.2490903" lon="13.2569888"><ele>1289.25</ele><time>2026-05-02T15:21:12.886Z</time></trkpt><trkpt lat="42.2492054" lon="13.2569449"><ele>1291.0</ele><time>2026-05-02T15:21:13.873Z</time></trkpt><trkpt lat="42.249325" lon="13.2569056"><ele>1291.0</ele><time>2026-05-02T15:21:14.884Z</time></trkpt><trkpt lat="42.2494457" lon="13.2568804"><ele>1291.0</ele><time>2026-05-02T15:21:15.882Z</time></trkpt><trkpt lat="42.2495555" lon="13.2568706"><ele>1291.0</ele><time>2026-05-02T15:21:16.9Z</time></trkpt><trkpt lat="42.2496595" lon="13.2568675"><ele>1291.0</ele><time>2026-05-02T15:21:17.878Z</time></trkpt><trkpt lat="42.2497498" lon="13.2568661"><ele>1291.0</ele><time>2026-05-02T15:21:18.884Z</time></trkpt><trkpt lat="42.2498288" lon="13.2568499"><ele>1291.75</ele><time>2026-05-02T15:21:19.875Z</time></trkpt><trkpt lat="42.2499095" lon="13.2568025"><ele>1292.5</ele><time>2026-05-02T15:21:20.88Z</time></trkpt><trkpt lat="42.2500112" lon="13.2567439"><ele>1293.25</ele><time>2026-05-02T15:21:21.887Z</time></trkpt><trkpt lat="42.2501247" lon="13.256658"><ele>1294.0</ele><time>2026-05-02T15:21:22.88Z</time></trkpt><trkpt lat="42.2502541" lon="13.256566"><ele>1294.0</ele><time>2026-05-02T15:21:23.895Z</time></trkpt><trkpt lat="42.2503597" lon="13.2564902"><ele>1294.0</ele><time>2026-05-02T15:21:24.883Z</time></trkpt><trkpt lat="42.2504473" lon="13.2564277"><ele>1294.0</ele><time>2026-05-02T15:21:25.882Z</time></trkpt><trkpt lat="42.2505497" lon="13.2563947"><ele>1294.0</ele><time>2026-05-02T15:21:26.874Z</time></trkpt><trkpt lat="42.2506906" lon="13.2563736"><ele>1289.75</ele><time>2026-05-02T15:21:27.89Z</time></trkpt><trkpt lat="42.2508532" lon="13.2563609"><ele>1285.5</ele><time>2026-05-02T15:21:28.873Z</time></trkpt><trkpt lat="42.2510045" lon="13.2563556"><ele>1281.25</ele><time>2026-05-02T15:21:29.872Z</time></trkpt><trkpt lat="42.2511323" lon="13.2563714"><ele>1277.0</ele><time>2026-05-02T15:21:30.888Z</time></trkpt><trkpt lat="42.2512388" lon="13.2564352"><ele>1281.5</ele><time>2026-05-02T15:21:31.898Z</time></trkpt><trkpt lat="42.2513732" lon="13.2565094"><ele>1286.0</ele><time>2026-05-02T15:21:32.884Z</time></trkpt><trkpt lat="42.251511" lon="13.2565808"><ele>1290.5</ele><time>2026-05-02T15:21:33.881Z</time></trkpt><trkpt lat="42.2516221" lon="13.2566408"><ele>1295.0</ele><time>2026-05-02T15:21:34.886Z</time></trkpt><trkpt lat="42.251696" lon="13.2566788"><ele>1295.5</ele><time>2026-05-02T15:21:35.885Z</time></trkpt><trkpt lat="42.2518039" lon="13.2566653"><ele>1296.0</ele><time>2026-05-02T15:21:37.875Z</time></trkpt><trkpt lat="42.2518563" lon="13.2566178"><ele>1296.5</ele><time>2026-05-02T15:21:39.883Z</time></trkpt><trkpt lat="42.2519117" lon="13.2565123"><ele>1297.0</ele><time>2026-05-02T15:24:11.879Z</time></trkpt><trkpt lat="42.2519588" lon="13.2564277"><ele>1297.5</ele><time>2026-05-02T15:24:12.892Z</time></trkpt><trkpt lat="42.2520186" lon="13.2563373"><ele>1298.0</ele><time>2026-05-02T15:24:13.891Z</time></trkpt><trkpt lat="42.2520821" lon="13.2562103"><ele>1298.75</ele><time>2026-05-02T15:24:14.886Z</time></trkpt><trkpt lat="42.2521404" lon="13.2560771"><ele>1299.5</ele><time>2026-05-02T15:24:15.879Z</time></trkpt><trkpt lat="42.2522031" lon="13.255961"><ele>1300.25</ele><time>2026-05-02T15:24:16.878Z</time></trkpt><trkpt lat="42.2522739" lon="13.2558359"><ele>1301.0</ele><time>2026-05-02T15:24:17.874Z</time></trkpt><trkpt lat="42.252351" lon="13.2557183"><ele>1298.4</ele><time>2026-05-02T15:24:18.886Z</time></trkpt><trkpt lat="42.252418" lon="13.2556147"><ele>1295.8</ele><time>2026-05-02T15:24:19.876Z</time></trkpt><trkpt lat="42.2524859" lon="13.2555237"><ele>1293.2</ele><time>2026-05-02T15:24:20.882Z</time></trkpt><trkpt lat="42.2525685" lon="13.2554314"><ele>1290.6000000000001</ele><time>2026-05-02T15:24:21.884Z</time></trkpt><trkpt lat="42.2526578" lon="13.2553367"><ele>1288.0</ele><time>2026-05-02T15:24:22.889Z</time></trkpt><trkpt lat="42.2527606" lon="13.2552459"><ele>1288.0</ele><time>2026-05-02T15:24:23.882Z</time></trkpt><trkpt lat="42.252863" lon="13.2551868"><ele>1288.0</ele><time>2026-05-02T15:24:24.877Z</time></trkpt><trkpt lat="42.2529714" lon="13.2551314"><ele>1288.0</ele><time>2026-05-02T15:24:25.884Z</time></trkpt><trkpt lat="42.2530711" lon="13.2551014"><ele>1288.0</ele><time>2026-05-02T15:24:26.876Z</time></trkpt><trkpt lat="42.2531842" lon="13.2550623"><ele>1288.0</ele><time>2026-05-02T15:24:27.875Z</time></trkpt><trkpt lat="42.2533074" lon="13.2550184"><ele>1289.5</ele><time>2026-05-02T15:24:28.875Z</time></trkpt><trkpt lat="42.2534152" lon="13.2549736"><ele>1291.0</ele><time>2026-05-02T15:24:29.896Z</time></trkpt><trkpt lat="42.2535247" lon="13.2549057"><ele>1292.5</ele><time>2026-05-02T15:24:30.878Z</time></trkpt><trkpt lat="42.2536485" lon="13.2548248"><ele>1294.0</ele><time>2026-05-02T15:24:31.87Z</time></trkpt><trkpt lat="42.2537788" lon="13.2547299"><ele>1291.5</ele><time>2026-05-02T15:24:32.879Z</time></trkpt><trkpt lat="42.2539078" lon="13.2546472"><ele>1289.0</ele><time>2026-05-02T15:24:33.87Z</time></trkpt><trkpt lat="42.2540336" lon="13.2545712"><ele>1286.5</ele><time>2026-05-02T15:24:34.868Z</time></trkpt><trkpt lat="42.254149" lon="13.2545089"><ele>1284.0</ele><time>2026-05-02T15:24:35.874Z</time></trkpt><trkpt lat="42.2542664" lon="13.2544492"><ele>1284.0</ele><time>2026-05-02T15:24:36.885Z</time></trkpt><trkpt lat="42.2543846" lon="13.2543751"><ele>1284.0</ele><time>2026-05-02T15:24:37.877Z</time></trkpt><trkpt lat="42.2545007" lon="13.2542942"><ele>1284.0</ele><time>2026-05-02T15:24:38.868Z</time></trkpt><trkpt lat="42.2546277" lon="13.2542126"><ele>1284.0</ele><time>2026-05-02T15:24:39.885Z</time></trkpt><trkpt lat="42.2547395" lon="13.2541482"><ele>1281.75</ele><time>2026-05-02T15:24:40.886Z</time></trkpt><trkpt lat="42.2548549" lon="13.2540921"><ele>1279.5</ele><time>2026-05-02T15:24:41.889Z</time></trkpt><trkpt lat="42.2549813" lon="13.2540465"><ele>1277.25</ele><time>2026-05-02T15:24:42.876Z</time></trkpt><trkpt lat="42.2551173" lon="13.2539925"><ele>1275.0</ele><time>2026-05-02T15:24:43.874Z</time></trkpt><trkpt lat="42.2552587" lon="13.2539234"><ele>1275.0</ele><time>2026-05-02T15:24:44.889Z</time></trkpt><trkpt lat="42.2553852" lon="13.2538404"><ele>1275.0</ele><time>2026-05-02T15:24:45.871Z</time></trkpt><trkpt lat="42.2555119" lon="13.2537358"><ele>1275.0</ele><time>2026-05-02T15:24:46.863Z</time></trkpt><trkpt lat="42.2556288" lon="13.2536281"><ele>1275.0</ele><time>2026-05-02T15:24:47.87Z</time></trkpt><trkpt lat="42.2557123" lon="13.2535481"><ele>1277.4</ele><time>2026-05-02T15:24:48.865Z</time></trkpt><trkpt lat="42.2557651" lon="13.2534697"><ele>1279.8</ele><time>2026-05-02T15:24:49.863Z</time></trkpt><trkpt lat="42.2557838" lon="13.2533738"><ele>1282.1999999999998</ele><time>2026-05-02T15:24:50.869Z</time></trkpt><trkpt lat="42.2557965" lon="13.2532474"><ele>1284.6</ele><time>2026-05-02T15:24:51.866Z</time></trkpt><trkpt lat="42.255798" lon="13.2531095"><ele>1287.0</ele><time>2026-05-02T15:24:52.865Z</time></trkpt><trkpt lat="42.2558038" lon="13.2529467"><ele>1287.0</ele><time>2026-05-02T15:24:53.868Z</time></trkpt><trkpt lat="42.2558262" lon="13.2527874"><ele>1287.0</ele><time>2026-05-02T15:24:54.864Z</time></trkpt><trkpt lat="42.2558641" lon="13.2525959"><ele>1287.0</ele><time>2026-05-02T15:24:55.872Z</time></trkpt><trkpt lat="42.2559097" lon="13.2524255"><ele>1287.0</ele><time>2026-05-02T15:24:56.875Z</time></trkpt><trkpt lat="42.2559574" lon="13.2522632"><ele>1286.1999999999998</ele><time>2026-05-02T15:24:57.867Z</time></trkpt><trkpt lat="42.2560079" lon="13.25216"><ele>1285.4</ele><time>2026-05-02T15:24:58.866Z</time></trkpt><trkpt lat="42.2560803" lon="13.2520808"><ele>1284.6</ele><time>2026-05-02T15:24:59.887Z</time></trkpt><trkpt lat="42.2561664" lon="13.2520141"><ele>1283.8000000000002</ele><time>2026-05-02T15:25:00.887Z</time></trkpt><trkpt lat="42.2562511" lon="13.251939"><ele>1283.0</ele><time>2026-05-02T15:25:01.867Z</time></trkpt><trkpt lat="42.2563346" lon="13.2518553"><ele>1283.0</ele><time>2026-05-02T15:25:02.878Z</time></trkpt><trkpt lat="42.2564237" lon="13.2517654"><ele>1283.0</ele><time>2026-05-02T15:25:03.879Z</time></trkpt><trkpt lat="42.2565225" lon="13.2516847"><ele>1283.0</ele><time>2026-05-02T15:25:04.878Z</time></trkpt><trkpt lat="42.2566266" lon="13.2516424"><ele>1283.0</ele><time>2026-05-02T15:25:05.876Z</time></trkpt><trkpt lat="42.25673" lon="13.2515999"><ele>1283.0</ele><time>2026-05-02T15:25:06.883Z</time></trkpt><trkpt lat="42.2568296" lon="13.2515699"><ele>1285.3333333333335</ele><time>2026-05-02T15:25:07.882Z</time></trkpt><trkpt lat="42.2569326" lon="13.251538"><ele>1287.6666666666667</ele><time>2026-05-02T15:25:08.891Z</time></trkpt><trkpt lat="42.2570117" lon="13.2515064"><ele>1290.0</ele><time>2026-05-02T15:25:09.88Z</time></trkpt><trkpt lat="42.2570804" lon="13.251554"><ele>1292.3333333333333</ele><time>2026-05-02T15:25:11.882Z</time></trkpt><trkpt lat="42.2571006" lon="13.2516728"><ele>1294.6666666666665</ele><time>2026-05-02T15:25:13.874Z</time></trkpt><trkpt lat="42.2571261" lon="13.2517945"><ele>1297.0</ele><time>2026-05-02T15:25:14.869Z</time></trkpt><trkpt lat="42.2571517" lon="13.2519431"><ele>1297.0</ele><time>2026-05-02T15:25:15.888Z</time></trkpt><trkpt lat="42.257163" lon="13.2521091"><ele>1297.0</ele><time>2026-05-02T15:25:16.884Z</time></trkpt><trkpt lat="42.2571723" lon="13.2522624"><ele>1297.0</ele><time>2026-05-02T15:25:17.881Z</time></trkpt><trkpt lat="42.2571643" lon="13.2523889"><ele>1297.0</ele><time>2026-05-02T15:25:18.873Z</time></trkpt><trkpt lat="42.2571622" lon="13.2524799"><ele>1297.0</ele><time>2026-05-02T15:25:19.876Z</time></trkpt><trkpt lat="42.2572298" lon="13.252575"><ele>1295.8333333333333</ele><time>2026-05-02T15:25:21.884Z</time></trkpt><trkpt lat="42.2572897" lon="13.2526071"><ele>1294.6666666666665</ele><time>2026-05-02T15:25:22.878Z</time></trkpt><trkpt lat="42.2573623" lon="13.2526154"><ele>1293.5</ele><time>2026-05-02T15:25:23.881Z</time></trkpt><trkpt lat="42.2574351" lon="13.252591"><ele>1292.3333333333333</ele><time>2026-05-02T15:25:24.873Z</time></trkpt><trkpt lat="42.2575132" lon="13.2525586"><ele>1291.1666666666667</ele><time>2026-05-02T15:25:25.888Z</time></trkpt><trkpt lat="42.2575967" lon="13.2525564"><ele>1290.0</ele><time>2026-05-02T15:25:26.87Z</time></trkpt><trkpt lat="42.2576741" lon="13.2525582"><ele>1290.0</ele><time>2026-05-02T15:25:27.881Z</time></trkpt><trkpt lat="42.2577535" lon="13.2525745"><ele>1290.0</ele><time>2026-05-02T15:25:28.879Z</time></trkpt><trkpt lat="42.2578335" lon="13.2525773"><ele>1290.0</ele><time>2026-05-02T15:25:29.866Z</time></trkpt><trkpt lat="42.2579286" lon="13.2525651"><ele>1290.0</ele><time>2026-05-02T15:25:30.882Z</time></trkpt><trkpt lat="42.258074" lon="13.2525364"><ele>1290.0</ele><time>2026-05-02T15:25:31.868Z</time></trkpt><trkpt lat="42.2582094" lon="13.2524746"><ele>1290.0</ele><time>2026-05-02T15:25:32.876Z</time></trkpt><trkpt lat="42.2583501" lon="13.2523843"><ele>1290.0</ele><time>2026-05-02T15:25:33.878Z</time></trkpt><trkpt lat="42.2584632" lon="13.2522817"><ele>1290.0</ele><time>2026-05-02T15:25:34.877Z</time></trkpt><trkpt lat="42.2585406" lon="13.252151"><ele>1290.0</ele><time>2026-05-02T15:25:35.875Z</time></trkpt><trkpt lat="42.2586046" lon="13.2520253"><ele>1289.25</ele><time>2026-05-02T15:25:36.876Z</time></trkpt><trkpt lat="42.2586712" lon="13.2518842"><ele>1288.5</ele><time>2026-05-02T15:25:37.882Z</time></trkpt><trkpt lat="42.2587535" lon="13.2517568"><ele>1287.75</ele><time>2026-05-02T15:25:38.878Z</time></trkpt><trkpt lat="42.2588535" lon="13.2516498"><ele>1287.0</ele><time>2026-05-02T15:25:39.873Z</time></trkpt><trkpt lat="42.2589631" lon="13.2515418"><ele>1282.25</ele><time>2026-05-02T15:25:40.88Z</time></trkpt><trkpt lat="42.2590723" lon="13.2514493"><ele>1277.5</ele><time>2026-05-02T15:25:41.87Z</time></trkpt><trkpt lat="42.259191" lon="13.2513681"><ele>1272.75</ele><time>2026-05-02T15:25:42.889Z</time></trkpt><trkpt lat="42.2593041" lon="13.2513125"><ele>1268.0</ele><time>2026-05-02T15:25:43.871Z</time></trkpt><trkpt lat="42.2594008" lon="13.2512671"><ele>1268.0</ele><time>2026-05-02T15:25:44.885Z</time></trkpt><trkpt lat="42.2594988" lon="13.2512201"><ele>1268.0</ele><time>2026-05-02T15:25:45.871Z</time></trkpt><trkpt lat="42.2595832" lon="13.2511381"><ele>1268.0</ele><time>2026-05-02T15:25:46.882Z</time></trkpt><trkpt lat="42.2596431" lon="13.2510276"><ele>1268.0</ele><time>2026-05-02T15:25:47.882Z</time></trkpt><trkpt lat="42.2597153" lon="13.2508553"><ele>1268.0</ele><time>2026-05-02T15:25:48.877Z</time></trkpt><trkpt lat="42.2597808" lon="13.2506432"><ele>1268.0</ele><time>2026-05-02T15:25:49.873Z</time></trkpt><trkpt lat="42.2598434" lon="13.2504381"><ele>1268.0</ele><time>2026-05-02T15:25:50.869Z</time></trkpt><trkpt lat="42.2598845" lon="13.2502497"><ele>1269.0</ele><time>2026-05-02T15:25:51.87Z</time></trkpt><trkpt lat="42.2599016" lon="13.2500605"><ele>1270.0</ele><time>2026-05-02T15:25:52.879Z</time></trkpt><trkpt lat="42.2599125" lon="13.2498835"><ele>1271.0</ele><time>2026-05-02T15:25:53.873Z</time></trkpt><trkpt lat="42.2599316" lon="13.2497242"><ele>1272.0</ele><time>2026-05-02T15:25:54.881Z</time></trkpt><trkpt lat="42.2599693" lon="13.2495258"><ele>1269.3333333333333</ele><time>2026-05-02T15:25:55.871Z</time></trkpt><trkpt lat="42.2600186" lon="13.2493253"><ele>1266.6666666666665</ele><time>2026-05-02T15:25:56.867Z</time></trkpt><trkpt lat="42.2600735" lon="13.2491053"><ele>1264.0</ele><time>2026-05-02T15:25:57.875Z</time></trkpt><trkpt lat="42.2601174" lon="13.2488645"><ele>1262.3333333333333</ele><time>2026-05-02T15:25:58.881Z</time></trkpt><trkpt lat="42.2601631" lon="13.2486111"><ele>1260.6666666666667</ele><time>2026-05-02T15:25:59.87Z</time></trkpt><trkpt lat="42.2602002" lon="13.2483614"><ele>1259.0</ele><time>2026-05-02T15:26:00.866Z</time></trkpt><trkpt lat="42.2602351" lon="13.2480971"><ele>1257.5</ele><time>2026-05-02T15:26:01.869Z</time></trkpt><trkpt lat="42.2602786" lon="13.2478534"><ele>1256.0</ele><time>2026-05-02T15:26:02.884Z</time></trkpt><trkpt lat="42.2603063" lon="13.2476632"><ele>1254.5</ele><time>2026-05-02T15:26:03.878Z</time></trkpt><trkpt lat="42.2603346" lon="13.2475162"><ele>1253.0</ele><time>2026-05-02T15:26:04.889Z</time></trkpt><trkpt lat="42.2603597" lon="13.247396"><ele>1253.0</ele><time>2026-05-02T15:26:05.876Z</time></trkpt><trkpt lat="42.2603883" lon="13.2473039"><ele>1253.0</ele><time>2026-05-02T15:26:06.869Z</time></trkpt><trkpt lat="42.2604405" lon="13.2472211"><ele>1253.0</ele><time>2026-05-02T15:26:07.882Z</time></trkpt><trkpt lat="42.2605122" lon="13.2471388"><ele>1253.0</ele><time>2026-05-02T15:26:08.882Z</time></trkpt><trkpt lat="42.2606042" lon="13.2470272"><ele>1253.0</ele><time>2026-05-02T15:26:09.87Z</time></trkpt><trkpt lat="42.260698" lon="13.2468935"><ele>1252.3333333333335</ele><time>2026-05-02T15:26:10.883Z</time></trkpt><trkpt lat="42.2607918" lon="13.2467153"><ele>1251.6666666666667</ele><time>2026-05-02T15:26:11.879Z</time></trkpt><trkpt lat="42.2609068" lon="13.2464814"><ele>1251.0</ele><time>2026-05-02T15:26:12.895Z</time></trkpt><trkpt lat="42.2610327" lon="13.246267"><ele>1251.0</ele><time>2026-05-02T15:26:13.895Z</time></trkpt><trkpt lat="42.2611462" lon="13.2460367"><ele>1251.0</ele><time>2026-05-02T15:26:14.895Z</time></trkpt><trkpt lat="42.2612631" lon="13.2457945"><ele>1251.0</ele><time>2026-05-02T15:26:15.89Z</time></trkpt><trkpt lat="42.261373" lon="13.2455712"><ele>1252.3333333333333</ele><time>2026-05-02T15:26:16.892Z</time></trkpt><trkpt lat="42.2614736" lon="13.2453647"><ele>1253.6666666666665</ele><time>2026-05-02T15:26:17.88Z</time></trkpt><trkpt lat="42.2615725" lon="13.2451718"><ele>1255.0</ele><time>2026-05-02T15:26:18.892Z</time></trkpt><trkpt lat="42.261649" lon="13.2449831"><ele>1255.0</ele><time>2026-05-02T15:26:19.878Z</time></trkpt><trkpt lat="42.2617064" lon="13.2448007"><ele>1255.0</ele><time>2026-05-02T15:26:20.893Z</time></trkpt><trkpt lat="42.2617425" lon="13.2446293"><ele>1255.0</ele><time>2026-05-02T15:26:21.877Z</time></trkpt><trkpt lat="42.2617534" lon="13.2444615"><ele>1255.0</ele><time>2026-05-02T15:26:22.888Z</time></trkpt><trkpt lat="42.261733" lon="13.2442878"><ele>1254.5</ele><time>2026-05-02T15:26:23.891Z</time></trkpt><trkpt lat="42.2616907" lon="13.2441109"><ele>1254.0</ele><time>2026-05-02T15:26:24.882Z</time></trkpt><trkpt lat="42.261628" lon="13.2439468"><ele>1253.5</ele><time>2026-05-02T15:26:25.895Z</time></trkpt><trkpt lat="42.2615435" lon="13.2437971"><ele>1253.0</ele><time>2026-05-02T15:26:26.886Z</time></trkpt><trkpt lat="42.2614138" lon="13.2436485"><ele>1253.0</ele><time>2026-05-02T15:26:27.874Z</time></trkpt><trkpt lat="42.261258" lon="13.2435187"><ele>1253.0</ele><time>2026-05-02T15:26:28.886Z</time></trkpt><trkpt lat="42.2610973" lon="13.2433783"><ele>1253.0</ele><time>2026-05-02T15:26:29.889Z</time></trkpt><trkpt lat="42.2609731" lon="13.2432717"><ele>1253.0</ele><time>2026-05-02T15:26:30.884Z</time></trkpt><trkpt lat="42.2608941" lon="13.2431707"><ele>1253.0</ele><time>2026-05-02T15:26:31.884Z</time></trkpt><trkpt lat="42.2608357" lon="13.2430735"><ele>1253.0</ele><time>2026-05-02T15:26:32.896Z</time></trkpt><trkpt lat="42.2608017" lon="13.2429379"><ele>1253.0</ele><time>2026-05-02T15:26:33.875Z</time></trkpt><trkpt lat="42.2607797" lon="13.2427899"><ele>1253.0</ele><time>2026-05-02T15:26:34.898Z</time></trkpt><trkpt lat="42.2607788" lon="13.2426291"><ele>1253.0</ele><time>2026-05-02T15:26:35.886Z</time></trkpt><trkpt lat="42.260764" lon="13.2424559"><ele>1253.0</ele><time>2026-05-02T15:26:36.885Z</time></trkpt><trkpt lat="42.2607199" lon="13.2422599"><ele>1253.0</ele><time>2026-05-02T15:26:37.87Z</time></trkpt><trkpt lat="42.260659" lon="13.2420584"><ele>1253.0</ele><time>2026-05-02T15:26:38.883Z</time></trkpt><trkpt lat="42.2606056" lon="13.2418679"><ele>1249.0</ele><time>2026-05-02T15:26:39.87Z</time></trkpt><trkpt lat="42.2605818" lon="13.2417085"><ele>1245.0</ele><time>2026-05-02T15:26:40.875Z</time></trkpt><trkpt lat="42.2605762" lon="13.2415356"><ele>1241.0</ele><time>2026-05-02T15:26:41.874Z</time></trkpt><trkpt lat="42.2605767" lon="13.2413616"><ele>1237.0</ele><time>2026-05-02T15:26:42.893Z</time></trkpt><trkpt lat="42.2606067" lon="13.2412087"><ele>1238.2</ele><time>2026-05-02T15:26:43.9Z</time></trkpt><trkpt lat="42.2606405" lon="13.2410736"><ele>1239.4</ele><time>2026-05-02T15:26:44.891Z</time></trkpt><trkpt lat="42.2606903" lon="13.2409706"><ele>1240.6</ele><time>2026-05-02T15:26:45.879Z</time></trkpt><trkpt lat="42.2607399" lon="13.2408937"><ele>1241.8</ele><time>2026-05-02T15:26:46.88Z</time></trkpt><trkpt lat="42.2608138" lon="13.2408456"><ele>1243.0</ele><time>2026-05-02T15:26:47.886Z</time></trkpt><trkpt lat="42.2609134" lon="13.240793"><ele>1243.0</ele><time>2026-05-02T15:26:48.875Z</time></trkpt><trkpt lat="42.2610163" lon="13.2407253"><ele>1243.0</ele><time>2026-05-02T15:26:49.882Z</time></trkpt><trkpt lat="42.2611215" lon="13.24066"><ele>1243.0</ele><time>2026-05-02T15:26:50.882Z</time></trkpt><trkpt lat="42.2612234" lon="13.2405912"><ele>1243.0</ele><time>2026-05-02T15:26:51.877Z</time></trkpt><trkpt lat="42.2613332" lon="13.2405085"><ele>1241.25</ele><time>2026-05-02T15:26:52.883Z</time></trkpt><trkpt lat="42.2614395" lon="13.2404335"><ele>1239.5</ele><time>2026-05-02T15:26:53.877Z</time></trkpt><trkpt lat="42.2615451" lon="13.2403552"><ele>1237.75</ele><time>2026-05-02T15:26:54.878Z</time></trkpt><trkpt lat="42.2616402" lon="13.2402516"><ele>1236.0</ele><time>2026-05-02T15:26:55.88Z</time></trkpt><trkpt lat="42.2617385" lon="13.2401532"><ele>1236.0</ele><time>2026-05-02T15:26:56.887Z</time></trkpt><trkpt lat="42.2618413" lon="13.240062"><ele>1236.0</ele><time>2026-05-02T15:26:57.898Z</time></trkpt><trkpt lat="42.2619515" lon="13.2399867"><ele>1236.0</ele><time>2026-05-02T15:26:58.882Z</time></trkpt><trkpt lat="42.262088" lon="13.2399166"><ele>1236.0</ele><time>2026-05-02T15:26:59.885Z</time></trkpt><trkpt lat="42.2622367" lon="13.2398647"><ele>1238.0</ele><time>2026-05-02T15:27:00.88Z</time></trkpt><trkpt lat="42.2623952" lon="13.2398186"><ele>1240.0</ele><time>2026-05-02T15:27:01.878Z</time></trkpt><trkpt lat="42.2625576" lon="13.2397847"><ele>1242.0</ele><time>2026-05-02T15:27:02.891Z</time></trkpt><trkpt lat="42.2627263" lon="13.2397563"><ele>1238.8</ele><time>2026-05-02T15:27:03.896Z</time></trkpt><trkpt lat="42.2628725" lon="13.2397403"><ele>1235.6</ele><time>2026-05-02T15:27:04.889Z</time></trkpt><trkpt lat="42.2630003" lon="13.2397303"><ele>1232.3999999999999</ele><time>2026-05-02T15:27:05.896Z</time></trkpt><trkpt lat="42.2630953" lon="13.2397107"><ele>1229.2</ele><time>2026-05-02T15:27:06.892Z</time></trkpt><trkpt lat="42.263157" lon="13.2396754"><ele>1226.0</ele><time>2026-05-02T15:27:07.897Z</time></trkpt><trkpt lat="42.2632184" lon="13.2395725"><ele>1226.0</ele><time>2026-05-02T15:27:09.889Z</time></trkpt><trkpt lat="42.2632484" lon="13.2394959"><ele>1226.0</ele><time>2026-05-02T15:27:10.888Z</time></trkpt><trkpt lat="42.263264" lon="13.2393876"><ele>1226.0</ele><time>2026-05-02T15:27:11.879Z</time></trkpt><trkpt lat="42.2632756" lon="13.2392"><ele>1226.0</ele><time>2026-05-02T15:27:12.892Z</time></trkpt><trkpt lat="42.2632747" lon="13.2389546"><ele>1223.25</ele><time>2026-05-02T15:27:13.875Z</time></trkpt><trkpt lat="42.2633057" lon="13.2387462"><ele>1220.5</ele><time>2026-05-02T15:27:14.888Z</time></trkpt><trkpt lat="42.2633175" lon="13.2385784"><ele>1217.75</ele><time>2026-05-02T15:27:15.881Z</time></trkpt><trkpt lat="42.2633517" lon="13.2384551"><ele>1215.0</ele><time>2026-05-02T15:27:16.88Z</time></trkpt><trkpt lat="42.2634179" lon="13.2383393"><ele>1215.0</ele><time>2026-05-02T15:27:17.878Z</time></trkpt><trkpt lat="42.2635031" lon="13.2382017"><ele>1215.0</ele><time>2026-05-02T15:27:18.882Z</time></trkpt><trkpt lat="42.2635901" lon="13.2380408"><ele>1215.0</ele><time>2026-05-02T15:27:19.883Z</time></trkpt><trkpt lat="42.2636665" lon="13.2379226"><ele>1215.0</ele><time>2026-05-02T15:27:20.887Z</time></trkpt><trkpt lat="42.2637355" lon="13.2378252"><ele>1214.5</ele><time>2026-05-02T15:27:21.875Z</time></trkpt><trkpt lat="42.263785" lon="13.2377422"><ele>1214.0</ele><time>2026-05-02T15:27:22.892Z</time></trkpt><trkpt lat="42.2638401" lon="13.2376833"><ele>1213.5</ele><time>2026-05-02T15:27:23.887Z</time></trkpt><trkpt lat="42.2639022" lon="13.2376462"><ele>1213.0</ele><time>2026-05-02T15:27:24.88Z</time></trkpt><trkpt lat="42.2639693" lon="13.2376213"><ele>1212.5</ele><time>2026-05-02T15:27:25.874Z</time></trkpt><trkpt lat="42.2640395" lon="13.2375695"><ele>1212.0</ele><time>2026-05-02T15:27:26.879Z</time></trkpt><trkpt lat="42.2641303" lon="13.237507"><ele>1212.0</ele><time>2026-05-02T15:27:27.879Z</time></trkpt><trkpt lat="42.2642323" lon="13.2374426"><ele>1212.0</ele><time>2026-05-02T15:27:28.899Z</time></trkpt><trkpt lat="42.2643476" lon="13.23739"><ele>1212.0</ele><time>2026-05-02T15:27:29.877Z</time></trkpt><trkpt lat="42.2644627" lon="13.2373751"><ele>1212.0</ele><time>2026-05-02T15:27:30.871Z</time></trkpt><trkpt lat="42.2645615" lon="13.2373894"><ele>1212.0</ele><time>2026-05-02T15:27:31.879Z</time></trkpt><trkpt lat="42.2646366" lon="13.2374282"><ele>1212.0</ele><time>2026-05-02T15:27:32.875Z</time></trkpt><trkpt lat="42.2646974" lon="13.237471"><ele>1212.0</ele><time>2026-05-02T15:27:33.878Z</time></trkpt><trkpt lat="42.2647808" lon="13.2375652"><ele>1212.0</ele><time>2026-05-02T15:27:35.882Z</time></trkpt><trkpt lat="42.2648473" lon="13.2376711"><ele>1212.0</ele><time>2026-05-02T15:27:37.874Z</time></trkpt><trkpt lat="42.2649233" lon="13.2377545"><ele>1212.0</ele><time>2026-05-02T15:27:39.877Z</time></trkpt><trkpt lat="42.264978" lon="13.2378088"><ele>1212.0</ele><time>2026-05-02T15:27:40.896Z</time></trkpt><trkpt lat="42.2650466" lon="13.2378755"><ele>1212.6</ele><time>2026-05-02T15:27:41.885Z</time></trkpt><trkpt lat="42.26513" lon="13.2379557"><ele>1213.2</ele><time>2026-05-02T15:27:42.888Z</time></trkpt><trkpt lat="42.2652087" lon="13.2380439"><ele>1213.8</ele><time>2026-05-02T15:27:43.883Z</time></trkpt><trkpt lat="42.2652658" lon="13.2381451"><ele>1214.4</ele><time>2026-05-02T15:27:44.886Z</time></trkpt><trkpt lat="42.2653159" lon="13.2382816"><ele>1215.0</ele><time>2026-05-02T15:27:45.88Z</time></trkpt><trkpt lat="42.2653694" lon="13.2384304"><ele>1215.0</ele><time>2026-05-02T15:27:46.89Z</time></trkpt><trkpt lat="42.2654439" lon="13.2385856"><ele>1215.0</ele><time>2026-05-02T15:27:47.877Z</time></trkpt><trkpt lat="42.2655309" lon="13.2387559"><ele>1215.0</ele><time>2026-05-02T15:27:48.89Z</time></trkpt><trkpt lat="42.2656152" lon="13.2389268"><ele>1215.0</ele><time>2026-05-02T15:27:49.879Z</time></trkpt><trkpt lat="42.2656908" lon="13.2390981"><ele>1212.0</ele><time>2026-05-02T15:27:50.88Z</time></trkpt><trkpt lat="42.2657544" lon="13.2392707"><ele>1209.0</ele><time>2026-05-02T15:27:51.875Z</time></trkpt><trkpt lat="42.2658026" lon="13.2394584"><ele>1206.0</ele><time>2026-05-02T15:27:52.88Z</time></trkpt><trkpt lat="42.2658695" lon="13.2396352"><ele>1203.0</ele><time>2026-05-02T15:27:53.894Z</time></trkpt><trkpt lat="42.2659766" lon="13.2398"><ele>1200.3333333333333</ele><time>2026-05-02T15:27:54.883Z</time></trkpt><trkpt lat="42.2661037" lon="13.2399747"><ele>1197.6666666666665</ele><time>2026-05-02T15:27:55.879Z</time></trkpt><trkpt lat="42.2662357" lon="13.2401412"><ele>1195.0</ele><time>2026-05-02T15:27:56.889Z</time></trkpt><trkpt lat="42.2663572" lon="13.2402967"><ele>1195.6666666666665</ele><time>2026-05-02T15:27:57.875Z</time></trkpt><trkpt lat="42.2664826" lon="13.2404267"><ele>1196.3333333333333</ele><time>2026-05-02T15:27:58.878Z</time></trkpt><trkpt lat="42.2666294" lon="13.2405427"><ele>1197.0</ele><time>2026-05-02T15:27:59.872Z</time></trkpt><trkpt lat="42.2667964" lon="13.2406575"><ele>1193.0</ele><time>2026-05-02T15:28:00.887Z</time></trkpt><trkpt lat="42.2669768" lon="13.2407359"><ele>1189.0</ele><time>2026-05-02T15:28:01.874Z</time></trkpt><trkpt lat="42.2671657" lon="13.2408038"><ele>1185.0</ele><time>2026-05-02T15:28:02.895Z</time></trkpt><trkpt lat="42.2673341" lon="13.2408601"><ele>1184.6666666666667</ele><time>2026-05-02T15:28:03.885Z</time></trkpt><trkpt lat="42.2674871" lon="13.2409191"><ele>1184.3333333333335</ele><time>2026-05-02T15:28:04.887Z</time></trkpt><trkpt lat="42.2676282" lon="13.2409861"><ele>1184.0</ele><time>2026-05-02T15:28:05.887Z</time></trkpt><trkpt lat="42.2677516" lon="13.241078"><ele>1184.0</ele><time>2026-05-02T15:28:06.878Z</time></trkpt><trkpt lat="42.2678505" lon="13.2411619"><ele>1184.0</ele><time>2026-05-02T15:28:07.883Z</time></trkpt><trkpt lat="42.2679094" lon="13.2412669"><ele>1184.0</ele><time>2026-05-02T15:28:08.882Z</time></trkpt><trkpt lat="42.2679384" lon="13.2413985"><ele>1184.0</ele><time>2026-05-02T15:28:09.879Z</time></trkpt><trkpt lat="42.2679444" lon="13.2415585"><ele>1184.0</ele><time>2026-05-02T15:28:10.886Z</time></trkpt><trkpt lat="42.2679415" lon="13.2417617"><ele>1184.25</ele><time>2026-05-02T15:28:11.865Z</time></trkpt><trkpt lat="42.2679381" lon="13.2419644"><ele>1184.5</ele><time>2026-05-02T15:28:12.891Z</time></trkpt><trkpt lat="42.2679485" lon="13.2421619"><ele>1184.75</ele><time>2026-05-02T15:28:13.893Z</time></trkpt><trkpt lat="42.2679872" lon="13.242347"><ele>1185.0</ele><time>2026-05-02T15:28:14.884Z</time></trkpt><trkpt lat="42.2680373" lon="13.2425287"><ele>1185.0</ele><time>2026-05-02T15:28:15.878Z</time></trkpt><trkpt lat="42.2680912" lon="13.2426956"><ele>1185.0</ele><time>2026-05-02T15:28:16.894Z</time></trkpt><trkpt lat="42.2681558" lon="13.2428241"><ele>1185.0</ele><time>2026-05-02T15:28:17.882Z</time></trkpt><trkpt lat="42.26824" lon="13.2429137"><ele>1185.0</ele><time>2026-05-02T15:28:18.88Z</time></trkpt><trkpt lat="42.2683174" lon="13.2429703"><ele>1185.0</ele><time>2026-05-02T15:28:19.874Z</time></trkpt><trkpt lat="42.2684037" lon="13.2429935"><ele>1183.5</ele><time>2026-05-02T15:28:20.873Z</time></trkpt><trkpt lat="42.268505" lon="13.2429971"><ele>1182.0</ele><time>2026-05-02T15:28:21.873Z</time></trkpt><trkpt lat="42.2686236" lon="13.2429904"><ele>1180.5</ele><time>2026-05-02T15:28:22.886Z</time></trkpt><trkpt lat="42.2687424" lon="13.2429961"><ele>1179.0</ele><time>2026-05-02T15:28:23.889Z</time></trkpt><trkpt lat="42.2688637" lon="13.2430288"><ele>1180.25</ele><time>2026-05-02T15:28:24.884Z</time></trkpt><trkpt lat="42.2689878" lon="13.2430784"><ele>1181.5</ele><time>2026-05-02T15:28:25.871Z</time></trkpt><trkpt lat="42.2691094" lon="13.2431317"><ele>1182.75</ele><time>2026-05-02T15:28:26.881Z</time></trkpt><trkpt lat="42.2692208" lon="13.2431898"><ele>1184.0</ele><time>2026-05-02T15:28:27.877Z</time></trkpt><trkpt lat="42.2693306" lon="13.2432515"><ele>1184.75</ele><time>2026-05-02T15:28:28.897Z</time></trkpt><trkpt lat="42.2694374" lon="13.2432962"><ele>1185.5</ele><time>2026-05-02T15:28:29.874Z</time></trkpt><trkpt lat="42.2695481" lon="13.2433397"><ele>1186.25</ele><time>2026-05-02T15:28:30.885Z</time></trkpt><trkpt lat="42.2696673" lon="13.2433726"><ele>1187.0</ele><time>2026-05-02T15:28:31.873Z</time></trkpt><trkpt lat="42.2697795" lon="13.2433848"><ele>1188.2</ele><time>2026-05-02T15:28:32.873Z</time></trkpt><trkpt lat="42.2698862" lon="13.2433726"><ele>1189.4</ele><time>2026-05-02T15:28:33.885Z</time></trkpt><trkpt lat="42.2699966" lon="13.2433415"><ele>1190.6</ele><time>2026-05-02T15:28:34.89Z</time></trkpt><trkpt lat="42.2700985" lon="13.2432726"><ele>1191.8</ele><time>2026-05-02T15:28:35.876Z</time></trkpt><trkpt lat="42.270185" lon="13.2431703"><ele>1193.0</ele><time>2026-05-02T15:28:36.869Z</time></trkpt><trkpt lat="42.2702797" lon="13.2430779"><ele>1193.5</ele><time>2026-05-02T15:28:37.881Z</time></trkpt><trkpt lat="42.2703698" lon="13.242968"><ele>1194.0</ele><time>2026-05-02T15:28:38.884Z</time></trkpt><trkpt lat="42.2704862" lon="13.2428542"><ele>1194.5</ele><time>2026-05-02T15:28:39.869Z</time></trkpt><trkpt lat="42.2706393" lon="13.2427551"><ele>1195.0</ele><time>2026-05-02T15:28:40.877Z</time></trkpt><trkpt lat="42.2708178" lon="13.2426402"><ele>1196.3333333333333</ele><time>2026-05-02T15:28:41.883Z</time></trkpt><trkpt lat="42.2709992" lon="13.2425133"><ele>1197.6666666666667</ele><time>2026-05-02T15:28:42.884Z</time></trkpt><trkpt lat="42.2711727" lon="13.2423884"><ele>1199.0</ele><time>2026-05-02T15:28:43.884Z</time></trkpt><trkpt lat="42.271325" lon="13.2422867"><ele>1196.0</ele><time>2026-05-02T15:28:44.877Z</time></trkpt><trkpt lat="42.2714534" lon="13.2421958"><ele>1193.0</ele><time>2026-05-02T15:28:45.881Z</time></trkpt><trkpt lat="42.2715806" lon="13.2421051"><ele>1190.0</ele><time>2026-05-02T15:28:46.886Z</time></trkpt><trkpt lat="42.2716965" lon="13.2419895"><ele>1187.0</ele><time>2026-05-02T15:28:47.883Z</time></trkpt><trkpt lat="42.2718106" lon="13.2418667"><ele>1187.0</ele><time>2026-05-02T15:28:48.882Z</time></trkpt><trkpt lat="42.2719231" lon="13.2417441"><ele>1187.0</ele><time>2026-05-02T15:28:49.896Z</time></trkpt><trkpt lat="42.2720267" lon="13.241644"><ele>1187.0</ele><time>2026-05-02T15:28:50.886Z</time></trkpt><trkpt lat="42.2721139" lon="13.2415772"><ele>1187.0</ele><time>2026-05-02T15:28:51.871Z</time></trkpt><trkpt lat="42.2722127" lon="13.2415321"><ele>1185.3333333333335</ele><time>2026-05-02T15:28:52.873Z</time></trkpt><trkpt lat="42.2723352" lon="13.2415149"><ele>1183.6666666666667</ele><time>2026-05-02T15:28:53.88Z</time></trkpt><trkpt lat="42.2725015" lon="13.2415459"><ele>1182.0</ele><time>2026-05-02T15:28:54.875Z</time></trkpt><trkpt lat="42.2726826" lon="13.2415856"><ele>1182.0</ele><time>2026-05-02T15:28:55.875Z</time></trkpt><trkpt lat="42.2728784" lon="13.2416191"><ele>1182.0</ele><time>2026-05-02T15:28:56.891Z</time></trkpt><trkpt lat="42.2730706" lon="13.2416421"><ele>1182.0</ele><time>2026-05-02T15:28:57.885Z</time></trkpt><trkpt lat="42.2732264" lon="13.2416576"><ele>1181.25</ele><time>2026-05-02T15:28:58.88Z</time></trkpt><trkpt lat="42.2733594" lon="13.2416781"><ele>1180.5</ele><time>2026-05-02T15:28:59.878Z</time></trkpt><trkpt lat="42.2734757" lon="13.2417002"><ele>1179.75</ele><time>2026-05-02T15:29:00.889Z</time></trkpt><trkpt lat="42.273572" lon="13.2417502"><ele>1179.0</ele><time>2026-05-02T15:29:01.876Z</time></trkpt><trkpt lat="42.2736686" lon="13.2418431"><ele>1179.0</ele><time>2026-05-02T15:29:02.891Z</time></trkpt><trkpt lat="42.2737793" lon="13.2419818"><ele>1179.0</ele><time>2026-05-02T15:29:03.878Z</time></trkpt><trkpt lat="42.2738929" lon="13.2421081"><ele>1179.0</ele><time>2026-05-02T15:29:04.88Z</time></trkpt><trkpt lat="42.274001" lon="13.2422012"><ele>1179.0</ele><time>2026-05-02T15:29:05.884Z</time></trkpt><trkpt lat="42.2740797" lon="13.2422718"><ele>1180.8333333333333</ele><time>2026-05-02T15:29:06.886Z</time></trkpt><trkpt lat="42.2741438" lon="13.2423471"><ele>1182.6666666666667</ele><time>2026-05-02T15:29:07.877Z</time></trkpt><trkpt lat="42.2742016" lon="13.2424365"><ele>1184.5</ele><time>2026-05-02T15:29:08.882Z</time></trkpt><trkpt lat="42.2742468" lon="13.2425434"><ele>1186.3333333333335</ele><time>2026-05-02T15:29:09.873Z</time></trkpt><trkpt lat="42.2742631" lon="13.2426379"><ele>1188.1666666666667</ele><time>2026-05-02T15:29:10.879Z</time></trkpt><trkpt lat="42.2742492" lon="13.242735"><ele>1190.0</ele><time>2026-05-02T15:29:11.873Z</time></trkpt><trkpt lat="42.2742376" lon="13.2428282"><ele>1190.0</ele><time>2026-05-02T15:29:12.887Z</time></trkpt><trkpt lat="42.2742394" lon="13.2429333"><ele>1190.0</ele><time>2026-05-02T15:29:13.883Z</time></trkpt><trkpt lat="42.2742622" lon="13.2430578"><ele>1190.0</ele><time>2026-05-02T15:29:14.878Z</time></trkpt><trkpt lat="42.2743159" lon="13.2431746"><ele>1190.0</ele><time>2026-05-02T15:29:15.891Z</time></trkpt><trkpt lat="42.2743856" lon="13.2432615"><ele>1190.0</ele><time>2026-05-02T15:29:16.872Z</time></trkpt><trkpt lat="42.2744941" lon="13.24335"><ele>1189.5</ele><time>2026-05-02T15:29:17.87Z</time></trkpt><trkpt lat="42.2746119" lon="13.2434501"><ele>1189.0</ele><time>2026-05-02T15:29:18.878Z</time></trkpt><trkpt lat="42.2747268" lon="13.2435364"><ele>1188.5</ele><time>2026-05-02T15:29:19.879Z</time></trkpt><trkpt lat="42.274855" lon="13.2436472"><ele>1188.0</ele><time>2026-05-02T15:29:20.89Z</time></trkpt><trkpt lat="42.2749901" lon="13.2437592"><ele>1192.0</ele><time>2026-05-02T15:29:21.876Z</time></trkpt><trkpt lat="42.275136" lon="13.2438642"><ele>1196.0</ele><time>2026-05-02T15:29:22.871Z</time></trkpt><trkpt lat="42.2752939" lon="13.2439811"><ele>1200.0</ele><time>2026-05-02T15:29:23.887Z</time></trkpt><trkpt lat="42.2754565" lon="13.2440971"><ele>1200.0</ele><time>2026-05-02T15:29:24.876Z</time></trkpt><trkpt lat="42.2756021" lon="13.2442134"><ele>1200.0</ele><time>2026-05-02T15:29:25.869Z</time></trkpt><trkpt lat="42.2757319" lon="13.2443311"><ele>1200.0</ele><time>2026-05-02T15:29:26.875Z</time></trkpt><trkpt lat="42.2758519" lon="13.2444104"><ele>1202.25</ele><time>2026-05-02T15:29:27.869Z</time></trkpt><trkpt lat="42.2759774" lon="13.2444673"><ele>1204.5</ele><time>2026-05-02T15:29:28.886Z</time></trkpt><trkpt lat="42.2760999" lon="13.2445144"><ele>1206.75</ele><time>2026-05-02T15:29:29.875Z</time></trkpt><trkpt lat="42.2762128" lon="13.2445533"><ele>1209.0</ele><time>2026-05-02T15:29:30.877Z</time></trkpt><trkpt lat="42.2762913" lon="13.2445723"><ele>1209.0</ele><time>2026-05-02T15:29:31.875Z</time></trkpt><trkpt lat="42.2764139" lon="13.244683"><ele>1209.0</ele><time>2026-05-02T15:29:33.877Z</time></trkpt><trkpt lat="42.2764844" lon="13.2447725"><ele>1209.0</ele><time>2026-05-02T15:29:34.892Z</time></trkpt><trkpt lat="42.2765641" lon="13.2448611"><ele>1209.0</ele><time>2026-05-02T15:29:35.886Z</time></trkpt><trkpt lat="42.2766497" lon="13.2449507"><ele>1209.6666666666667</ele><time>2026-05-02T15:29:36.88Z</time></trkpt><trkpt lat="42.2767056" lon="13.2450105"><ele>1210.3333333333333</ele><time>2026-05-02T15:29:37.87Z</time></trkpt><trkpt lat="42.276777" lon="13.2450668"><ele>1211.0</ele><time>2026-05-02T15:29:39.881Z</time></trkpt><trkpt lat="42.2768431" lon="13.2451068"><ele>1211.6666666666665</ele><time>2026-05-02T15:29:51.877Z</time></trkpt><trkpt lat="42.2769311" lon="13.2451489"><ele>1212.3333333333333</ele><time>2026-05-02T15:29:53.886Z</time></trkpt><trkpt lat="42.2770184" lon="13.2452007"><ele>1213.0</ele><time>2026-05-02T15:29:54.88Z</time></trkpt><trkpt lat="42.2771129" lon="13.2452777"><ele>1213.0</ele><time>2026-05-02T15:29:55.875Z</time></trkpt><trkpt lat="42.2772102" lon="13.2453837"><ele>1213.0</ele><time>2026-05-02T15:29:56.88Z</time></trkpt><trkpt lat="42.2772841" lon="13.2455144"><ele>1213.0</ele><time>2026-05-02T15:29:57.875Z</time></trkpt><trkpt lat="42.2773329" lon="13.2456227"><ele>1213.0</ele><time>2026-05-02T15:29:58.878Z</time></trkpt><trkpt lat="42.2773861" lon="13.2457133"><ele>1213.0</ele><time>2026-05-02T15:29:59.876Z</time></trkpt><trkpt lat="42.2774516" lon="13.2457818"><ele>1211.0</ele><time>2026-05-02T15:30:00.884Z</time></trkpt><trkpt lat="42.2775284" lon="13.2458217"><ele>1209.0</ele><time>2026-05-02T15:30:01.884Z</time></trkpt><trkpt lat="42.2776166" lon="13.2458492"><ele>1207.0</ele><time>2026-05-02T15:30:02.884Z</time></trkpt><trkpt lat="42.2777555" lon="13.2458737"><ele>1205.0</ele><time>2026-05-02T15:30:03.882Z</time></trkpt><trkpt lat="42.2779283" lon="13.2458933"><ele>1201.0</ele><time>2026-05-02T15:30:04.884Z</time></trkpt><trkpt lat="42.2781112" lon="13.2459126"><ele>1197.0</ele><time>2026-05-02T15:30:05.874Z</time></trkpt><trkpt lat="42.2782734" lon="13.2459166"><ele>1193.0</ele><time>2026-05-02T15:30:06.887Z</time></trkpt><trkpt lat="42.2784241" lon="13.2459036"><ele>1193.0</ele><time>2026-05-02T15:30:07.89Z</time></trkpt><trkpt lat="42.2785923" lon="13.2458549"><ele>1193.0</ele><time>2026-05-02T15:30:08.886Z</time></trkpt><trkpt lat="42.2787825" lon="13.2457622"><ele>1193.0</ele><time>2026-05-02T15:30:09.884Z</time></trkpt><trkpt lat="42.2789833" lon="13.2456641"><ele>1194.6666666666667</ele><time>2026-05-02T15:30:10.87Z</time></trkpt><trkpt lat="42.2791962" lon="13.2455899"><ele>1196.3333333333333</ele><time>2026-05-02T15:30:11.876Z</time></trkpt><trkpt lat="42.2793989" lon="13.2455199"><ele>1198.0</ele><time>2026-05-02T15:30:12.876Z</time></trkpt><trkpt lat="42.2795863" lon="13.2454476"><ele>1198.0</ele><time>2026-05-02T15:30:13.866Z</time></trkpt><trkpt lat="42.2797601" lon="13.2453723"><ele>1198.0</ele><time>2026-05-02T15:30:14.878Z</time></trkpt><trkpt lat="42.2799201" lon="13.2452862"><ele>1198.0</ele><time>2026-05-02T15:30:15.877Z</time></trkpt><trkpt lat="42.2800951" lon="13.2451639"><ele>1196.0</ele><time>2026-05-02T15:30:16.875Z</time></trkpt><trkpt lat="42.2802569" lon="13.2450253"><ele>1194.0</ele><time>2026-05-02T15:30:17.889Z</time></trkpt><trkpt lat="42.2804194" lon="13.2448961"><ele>1192.0</ele><time>2026-05-02T15:30:18.87Z</time></trkpt><trkpt lat="42.2805817" lon="13.244786"><ele>1193.0</ele><time>2026-05-02T15:30:19.892Z</time></trkpt><trkpt lat="42.280755" lon="13.2446832"><ele>1194.0</ele><time>2026-05-02T15:30:20.875Z</time></trkpt><trkpt lat="42.2809114" lon="13.2446101"><ele>1195.0</ele><time>2026-05-02T15:30:21.875Z</time></trkpt><trkpt lat="42.2810619" lon="13.2445537"><ele>1195.0</ele><time>2026-05-02T15:30:22.892Z</time></trkpt><trkpt lat="42.2811902" lon="13.2445162"><ele>1195.0</ele><time>2026-05-02T15:30:23.877Z</time></trkpt><trkpt lat="42.2813028" lon="13.244488"><ele>1195.0</ele><time>2026-05-02T15:30:24.905Z</time></trkpt><trkpt lat="42.2814078" lon="13.2445014"><ele>1195.0</ele><time>2026-05-02T15:30:25.877Z</time></trkpt><trkpt lat="42.2815385" lon="13.2445393"><ele>1193.0</ele><time>2026-05-02T15:30:26.871Z</time></trkpt><trkpt lat="42.2816996" lon="13.2445909"><ele>1191.0</ele><time>2026-05-02T15:30:27.886Z</time></trkpt><trkpt lat="42.2818488" lon="13.2446332"><ele>1189.0</ele><time>2026-05-02T15:30:28.87Z</time></trkpt><trkpt lat="42.2819759" lon="13.2446685"><ele>1187.0</ele><time>2026-05-02T15:30:29.893Z</time></trkpt><trkpt lat="42.2820829" lon="13.2446837"><ele>1187.0</ele><time>2026-05-02T15:30:30.876Z</time></trkpt><trkpt lat="42.2821631" lon="13.2446735"><ele>1187.0</ele><time>2026-05-02T15:30:31.886Z</time></trkpt><trkpt lat="42.282223" lon="13.2446437"><ele>1187.0</ele><time>2026-05-02T15:30:32.878Z</time></trkpt><trkpt lat="42.2822775" lon="13.2445986"><ele>1187.0</ele><time>2026-05-02T15:30:33.879Z</time></trkpt><trkpt lat="42.2823003" lon="13.2445003"><ele>1187.0</ele><time>2026-05-02T15:30:34.88Z</time></trkpt><trkpt lat="42.2823179" lon="13.2443813"><ele>1187.0</ele><time>2026-05-02T15:30:35.876Z</time></trkpt><trkpt lat="42.2823543" lon="13.2442358"><ele>1187.0</ele><time>2026-05-02T15:30:36.877Z</time></trkpt><trkpt lat="42.2824219" lon="13.2441036"><ele>1187.0</ele><time>2026-05-02T15:30:37.879Z</time></trkpt><trkpt lat="42.2825173" lon="13.2439643"><ele>1187.0</ele><time>2026-05-02T15:30:38.887Z</time></trkpt><trkpt lat="42.2826359" lon="13.2438335"><ele>1187.0</ele><time>2026-05-02T15:30:39.884Z</time></trkpt><trkpt lat="42.2827504" lon="13.2436923"><ele>1187.0</ele><time>2026-05-02T15:30:40.906Z</time></trkpt><trkpt lat="42.2828551" lon="13.2435673"><ele>1187.0</ele><time>2026-05-02T15:30:41.879Z</time></trkpt><trkpt lat="42.2829231" lon="13.2434488"><ele>1187.0</ele><time>2026-05-02T15:30:42.878Z</time></trkpt><trkpt lat="42.2829715" lon="13.2433259"><ele>1187.0</ele><time>2026-05-02T15:30:43.879Z</time></trkpt><trkpt lat="42.2829965" lon="13.243191"><ele>1185.75</ele><time>2026-05-02T15:30:44.882Z</time></trkpt><trkpt lat="42.2830013" lon="13.2430458"><ele>1184.5</ele><time>2026-05-02T15:30:45.88Z</time></trkpt><trkpt lat="42.2829886" lon="13.242899"><ele>1183.25</ele><time>2026-05-02T15:30:46.886Z</time></trkpt><trkpt lat="42.282954" lon="13.2427386"><ele>1182.0</ele><time>2026-05-02T15:30:47.89Z</time></trkpt><trkpt lat="42.2829067" lon="13.2425407"><ele>1182.0</ele><time>2026-05-02T15:30:48.881Z</time></trkpt><trkpt lat="42.2828623" lon="13.2423531"><ele>1182.0</ele><time>2026-05-02T15:30:49.87Z</time></trkpt><trkpt lat="42.2828334" lon="13.242191"><ele>1182.0</ele><time>2026-05-02T15:30:50.873Z</time></trkpt><trkpt lat="42.2828237" lon="13.242061"><ele>1182.0</ele><time>2026-05-02T15:30:51.881Z</time></trkpt><trkpt lat="42.282826" lon="13.2419664"><ele>1182.0</ele><time>2026-05-02T15:30:52.878Z</time></trkpt><trkpt lat="42.282889" lon="13.2418367"><ele>1182.6</ele><time>2026-05-02T15:30:54.874Z</time></trkpt><trkpt lat="42.2829963" lon="13.2418138"><ele>1183.2</ele><time>2026-05-02T15:30:56.871Z</time></trkpt><trkpt lat="42.2830662" lon="13.2418178"><ele>1183.8</ele><time>2026-05-02T15:30:57.865Z</time></trkpt><trkpt lat="42.2831577" lon="13.2418326"><ele>1184.4</ele><time>2026-05-02T15:30:58.875Z</time></trkpt><trkpt lat="42.2832735" lon="13.2418533"><ele>1185.0</ele><time>2026-05-02T15:30:59.884Z</time></trkpt><trkpt lat="42.2833979" lon="13.2418683"><ele>1185.0</ele><time>2026-05-02T15:31:00.881Z</time></trkpt><trkpt lat="42.2835157" lon="13.2418792"><ele>1185.0</ele><time>2026-05-02T15:31:01.882Z</time></trkpt><trkpt lat="42.2836243" lon="13.2418868"><ele>1185.0</ele><time>2026-05-02T15:31:02.888Z</time></trkpt><trkpt lat="42.2837109" lon="13.2418858"><ele>1185.0</ele><time>2026-05-02T15:31:03.88Z</time></trkpt><trkpt lat="42.2837967" lon="13.2418717"><ele>1185.0</ele><time>2026-05-02T15:31:04.889Z</time></trkpt><trkpt lat="42.2838727" lon="13.2418341"><ele>1185.8</ele><time>2026-05-02T15:31:05.875Z</time></trkpt><trkpt lat="42.2839404" lon="13.2417769"><ele>1186.6</ele><time>2026-05-02T15:31:06.887Z</time></trkpt><trkpt lat="42.2840092" lon="13.241705"><ele>1187.4</ele><time>2026-05-02T15:31:07.883Z</time></trkpt><trkpt lat="42.2840876" lon="13.2416271"><ele>1188.2</ele><time>2026-05-02T15:31:08.886Z</time></trkpt><trkpt lat="42.2841673" lon="13.2415518"><ele>1189.0</ele><time>2026-05-02T15:31:09.878Z</time></trkpt><trkpt lat="42.2842603" lon="13.2414751"><ele>1192.25</ele><time>2026-05-02T15:31:10.886Z</time></trkpt><trkpt lat="42.2843628" lon="13.2414024"><ele>1195.5</ele><time>2026-05-02T15:31:11.871Z</time></trkpt><trkpt lat="42.2844697" lon="13.2413287"><ele>1198.75</ele><time>2026-05-02T15:31:12.874Z</time></trkpt><trkpt lat="42.2845818" lon="13.2412207"><ele>1202.0</ele><time>2026-05-02T15:31:13.875Z</time></trkpt><trkpt lat="42.2846951" lon="13.2410961"><ele>1198.3333333333335</ele><time>2026-05-02T15:31:14.88Z</time></trkpt><trkpt lat="42.284814" lon="13.2409467"><ele>1194.6666666666667</ele><time>2026-05-02T15:31:15.868Z</time></trkpt><trkpt lat="42.2849378" lon="13.2407813"><ele>1191.0</ele><time>2026-05-02T15:31:16.87Z</time></trkpt><trkpt lat="42.2850662" lon="13.2406264"><ele>1199.3333333333333</ele><time>2026-05-02T15:31:17.88Z</time></trkpt><trkpt lat="42.2852053" lon="13.2404822"><ele>1207.6666666666665</ele><time>2026-05-02T15:31:18.892Z</time></trkpt><trkpt lat="42.2853632" lon="13.2403645"><ele>1216.0</ele><time>2026-05-02T15:31:19.886Z</time></trkpt><trkpt lat="42.2855383" lon="13.2402497"><ele>1213.3333333333333</ele><time>2026-05-02T15:31:20.885Z</time></trkpt><trkpt lat="42.2857144" lon="13.2401558"><ele>1210.6666666666667</ele><time>2026-05-02T15:31:21.876Z</time></trkpt><trkpt lat="42.285876" lon="13.2400589"><ele>1208.0</ele><time>2026-05-02T15:31:22.877Z</time></trkpt><trkpt lat="42.2860232" lon="13.239972"><ele>1208.0</ele><time>2026-05-02T15:31:23.883Z</time></trkpt><trkpt lat="42.2861577" lon="13.2398898"><ele>1208.0</ele><time>2026-05-02T15:31:24.874Z</time></trkpt><trkpt lat="42.2862952" lon="13.239819"><ele>1208.0</ele><time>2026-05-02T15:31:25.885Z</time></trkpt><trkpt lat="42.2864409" lon="13.2397471"><ele>1213.25</ele><time>2026-05-02T15:31:26.887Z</time></trkpt><trkpt lat="42.2865881" lon="13.2396765"><ele>1218.5</ele><time>2026-05-02T15:31:27.879Z</time></trkpt><trkpt lat="42.2867228" lon="13.2396274"><ele>1223.75</ele><time>2026-05-02T15:31:28.873Z</time></trkpt><trkpt lat="42.2868468" lon="13.2396176"><ele>1229.0</ele><time>2026-05-02T15:31:29.889Z</time></trkpt><trkpt lat="42.2869796" lon="13.239638"><ele>1229.0</ele><time>2026-05-02T15:31:30.9Z</time></trkpt><trkpt lat="42.2871087" lon="13.2396466"><ele>1229.0</ele><time>2026-05-02T15:31:31.876Z</time></trkpt><trkpt lat="42.2872418" lon="13.2396302"><ele>1229.0</ele><time>2026-05-02T15:31:32.878Z</time></trkpt><trkpt lat="42.2873713" lon="13.2396227"><ele>1229.0</ele><time>2026-05-02T15:31:33.881Z</time></trkpt><trkpt lat="42.287497" lon="13.2396444"><ele>1228.0</ele><time>2026-05-02T15:31:34.887Z</time></trkpt><trkpt lat="42.2876135" lon="13.2397107"><ele>1227.0</ele><time>2026-05-02T15:31:35.89Z</time></trkpt><trkpt lat="42.2877059" lon="13.2398094"><ele>1226.0</ele><time>2026-05-02T15:31:36.877Z</time></trkpt><trkpt lat="42.2877974" lon="13.2398792"><ele>1225.0</ele><time>2026-05-02T15:31:37.882Z</time></trkpt><trkpt lat="42.2878717" lon="13.239888"><ele>1224.0</ele><time>2026-05-02T15:31:38.889Z</time></trkpt><trkpt lat="42.2879546" lon="13.2398595"><ele>1225.2</ele><time>2026-05-02T15:31:39.875Z</time></trkpt><trkpt lat="42.288049" lon="13.2398115"><ele>1226.4</ele><time>2026-05-02T15:31:40.904Z</time></trkpt><trkpt lat="42.2881359" lon="13.2397486"><ele>1227.6</ele><time>2026-05-02T15:31:41.863Z</time></trkpt><trkpt lat="42.2882227" lon="13.239674"><ele>1228.8</ele><time>2026-05-02T15:31:42.881Z</time></trkpt><trkpt lat="42.2883077" lon="13.239614"><ele>1230.0</ele><time>2026-05-02T15:31:43.876Z</time></trkpt><trkpt lat="42.2884207" lon="13.2395531"><ele>1230.0</ele><time>2026-05-02T15:31:44.883Z</time></trkpt><trkpt lat="42.2885433" lon="13.2395047"><ele>1230.0</ele><time>2026-05-02T15:31:45.881Z</time></trkpt><trkpt lat="42.2886863" lon="13.2394554"><ele>1230.0</ele><time>2026-05-02T15:31:46.878Z</time></trkpt><trkpt lat="42.2888393" lon="13.239387"><ele>1230.0</ele><time>2026-05-02T15:31:47.883Z</time></trkpt><trkpt lat="42.2889983" lon="13.2393192"><ele>1229.3333333333333</ele><time>2026-05-02T15:31:48.87Z</time></trkpt><trkpt lat="42.2891693" lon="13.2392537"><ele>1228.6666666666665</ele><time>2026-05-02T15:31:49.882Z</time></trkpt><trkpt lat="42.2893265" lon="13.2392387"><ele>1228.0</ele><time>2026-05-02T15:31:50.872Z</time></trkpt><trkpt lat="42.2894835" lon="13.23927"><ele>1228.0</ele><time>2026-05-02T15:31:51.873Z</time></trkpt><trkpt lat="42.2896397" lon="13.239285"><ele>1228.0</ele><time>2026-05-02T15:31:52.895Z</time></trkpt><trkpt lat="42.2897771" lon="13.2392493"><ele>1228.0</ele><time>2026-05-02T15:31:53.882Z</time></trkpt><trkpt lat="42.2899297" lon="13.2391708"><ele>1229.0</ele><time>2026-05-02T15:31:54.893Z</time></trkpt><trkpt lat="42.2900672" lon="13.2391147"><ele>1230.0</ele><time>2026-05-02T15:31:55.883Z</time></trkpt><trkpt lat="42.2902144" lon="13.2391174"><ele>1231.0</ele><time>2026-05-02T15:31:56.871Z</time></trkpt><trkpt lat="42.2903597" lon="13.2391642"><ele>1232.0</ele><time>2026-05-02T15:31:57.899Z</time></trkpt><trkpt lat="42.2904915" lon="13.2392274"><ele>1232.25</ele><time>2026-05-02T15:31:58.874Z</time></trkpt><trkpt lat="42.2906153" lon="13.2392631"><ele>1232.5</ele><time>2026-05-02T15:31:59.878Z</time></trkpt><trkpt lat="42.2907275" lon="13.2392579"><ele>1232.75</ele><time>2026-05-02T15:32:00.871Z</time></trkpt><trkpt lat="42.2908579" lon="13.2391955"><ele>1233.0</ele><time>2026-05-02T15:32:01.878Z</time></trkpt><trkpt lat="42.2910019" lon="13.2391094"><ele>1233.0</ele><time>2026-05-02T15:32:02.879Z</time></trkpt><trkpt lat="42.29117" lon="13.2390137"><ele>1233.0</ele><time>2026-05-02T15:32:03.886Z</time></trkpt><trkpt lat="42.2913562" lon="13.23895"><ele>1233.0</ele><time>2026-05-02T15:32:04.88Z</time></trkpt><trkpt lat="42.29157" lon="13.238892"><ele>1243.3333333333333</ele><time>2026-05-02T15:32:05.887Z</time></trkpt><trkpt lat="42.2917878" lon="13.2388451"><ele>1253.6666666666665</ele><time>2026-05-02T15:32:06.874Z</time></trkpt><trkpt lat="42.2920082" lon="13.2387695"><ele>1264.0</ele><time>2026-05-02T15:32:07.868Z</time></trkpt><trkpt lat="42.2922358" lon="13.2386898"><ele>1262.3333333333333</ele><time>2026-05-02T15:32:08.881Z</time></trkpt><trkpt lat="42.2924493" lon="13.2386438"><ele>1260.6666666666667</ele><time>2026-05-02T15:32:09.87Z</time></trkpt><trkpt lat="42.292639" lon="13.238617"><ele>1259.0</ele><time>2026-05-02T15:32:10.891Z</time></trkpt><trkpt lat="42.2928125" lon="13.2385898"><ele>1259.0</ele><time>2026-05-02T15:32:11.886Z</time></trkpt><trkpt lat="42.2929777" lon="13.2385292"><ele>1259.0</ele><time>2026-05-02T15:32:12.873Z</time></trkpt><trkpt lat="42.2931348" lon="13.2384329"><ele>1259.0</ele><time>2026-05-02T15:32:13.879Z</time></trkpt><trkpt lat="42.2933052" lon="13.2383091"><ele>1255.3333333333335</ele><time>2026-05-02T15:32:14.871Z</time></trkpt><trkpt lat="42.2934881" lon="13.2381788"><ele>1251.6666666666667</ele><time>2026-05-02T15:32:15.873Z</time></trkpt><trkpt lat="42.2936798" lon="13.2380555"><ele>1248.0</ele><time>2026-05-02T15:32:16.876Z</time></trkpt><trkpt lat="42.2938679" lon="13.237939"><ele>1254.6666666666667</ele><time>2026-05-02T15:32:17.882Z</time></trkpt><trkpt lat="42.2940577" lon="13.2378346"><ele>1261.3333333333335</ele><time>2026-05-02T15:32:18.872Z</time></trkpt><trkpt lat="42.2942425" lon="13.2377305"><ele>1268.0</ele><time>2026-05-02T15:32:19.881Z</time></trkpt><trkpt lat="42.2944154" lon="13.2376217"><ele>1268.0</ele><time>2026-05-02T15:32:20.876Z</time></trkpt><trkpt lat="42.2945785" lon="13.237519"><ele>1268.0</ele><time>2026-05-02T15:32:21.871Z</time></trkpt><trkpt lat="42.2947472" lon="13.2374345"><ele>1268.0</ele><time>2026-05-02T15:32:22.876Z</time></trkpt><trkpt lat="42.2949288" lon="13.2373707"><ele>1265.0</ele><time>2026-05-02T15:32:23.879Z</time></trkpt><trkpt lat="42.2951368" lon="13.2373249"><ele>1262.0</ele><time>2026-05-02T15:32:24.883Z</time></trkpt><trkpt lat="42.2953518" lon="13.2372886"><ele>1259.0</ele><time>2026-05-02T15:32:25.871Z</time></trkpt><trkpt lat="42.2955691" lon="13.2372458"><ele>1271.0</ele><time>2026-05-02T15:32:26.889Z</time></trkpt><trkpt lat="42.2957869" lon="13.2372044"><ele>1283.0</ele><time>2026-05-02T15:32:27.878Z</time></trkpt><trkpt lat="42.2959918" lon="13.2371478"><ele>1295.0</ele><time>2026-05-02T15:32:28.887Z</time></trkpt><trkpt lat="42.2961881" lon="13.2371114"><ele>1295.0</ele><time>2026-05-02T15:32:29.882Z</time></trkpt><trkpt lat="42.2963739" lon="13.2370726"><ele>1295.0</ele><time>2026-05-02T15:32:30.884Z</time></trkpt><trkpt lat="42.2965465" lon="13.2370517"><ele>1295.0</ele><time>2026-05-02T15:32:31.879Z</time></trkpt><trkpt lat="42.2967203" lon="13.2370503"><ele>1294.6666666666667</ele><time>2026-05-02T15:32:32.88Z</time></trkpt><trkpt lat="42.2969092" lon="13.2370705"><ele>1294.3333333333333</ele><time>2026-05-02T15:32:33.871Z</time></trkpt><trkpt lat="42.2970905" lon="13.2371187"><ele>1294.0</ele><time>2026-05-02T15:32:34.888Z</time></trkpt><trkpt lat="42.2972797" lon="13.2371625"><ele>1294.0</ele><time>2026-05-02T15:32:35.876Z</time></trkpt><trkpt lat="42.2974424" lon="13.237214"><ele>1294.0</ele><time>2026-05-02T15:32:36.896Z</time></trkpt><trkpt lat="42.2975978" lon="13.2372469"><ele>1294.0</ele><time>2026-05-02T15:32:37.872Z</time></trkpt><trkpt lat="42.2977437" lon="13.2372733"><ele>1289.75</ele><time>2026-05-02T15:32:38.884Z</time></trkpt><trkpt lat="42.2978706" lon="13.2373171"><ele>1285.5</ele><time>2026-05-02T15:32:39.886Z</time></trkpt><trkpt lat="42.2979857" lon="13.2373727"><ele>1281.25</ele><time>2026-05-02T15:32:40.884Z</time></trkpt><trkpt lat="42.2981012" lon="13.2374342"><ele>1277.0</ele><time>2026-05-02T15:32:41.883Z</time></trkpt><trkpt lat="42.2982084" lon="13.237505"><ele>1277.0</ele><time>2026-05-02T15:32:42.882Z</time></trkpt><trkpt lat="42.2983044" lon="13.2375938"><ele>1277.0</ele><time>2026-05-02T15:32:43.882Z</time></trkpt><trkpt lat="42.298393" lon="13.2376927"><ele>1277.0</ele><time>2026-05-02T15:32:44.886Z</time></trkpt><trkpt lat="42.2984719" lon="13.2377859"><ele>1277.0</ele><time>2026-05-02T15:32:45.88Z</time></trkpt><trkpt lat="42.2985472" lon="13.2378693"><ele>1277.0</ele><time>2026-05-02T15:32:46.88Z</time></trkpt><trkpt lat="42.2986275" lon="13.2379314"><ele>1277.0</ele><time>2026-05-02T15:32:47.876Z</time></trkpt><trkpt lat="42.2987183" lon="13.2379811"><ele>1277.0</ele><time>2026-05-02T15:32:48.882Z</time></trkpt><trkpt lat="42.2988158" lon="13.237993"><ele>1277.0</ele><time>2026-05-02T15:32:49.883Z</time></trkpt><trkpt lat="42.2989063" lon="13.2379809"><ele>1277.0</ele><time>2026-05-02T15:32:50.889Z</time></trkpt><trkpt lat="42.2990025" lon="13.2379351"><ele>1277.0</ele><time>2026-05-02T15:32:51.87Z</time></trkpt><trkpt lat="42.2991119" lon="13.2378752"><ele>1277.6</ele><time>2026-05-02T15:32:52.878Z</time></trkpt><trkpt lat="42.2992335" lon="13.2378133"><ele>1278.2</ele><time>2026-05-02T15:32:53.882Z</time></trkpt><trkpt lat="42.2993485" lon="13.2377792"><ele>1278.8</ele><time>2026-05-02T15:32:54.901Z</time></trkpt><trkpt lat="42.299448" lon="13.237769"><ele>1279.4</ele><time>2026-05-02T15:32:55.882Z</time></trkpt><trkpt lat="42.2995487" lon="13.2377724"><ele>1280.0</ele><time>2026-05-02T15:32:56.884Z</time></trkpt><trkpt lat="42.299647" lon="13.2377943"><ele>1280.0</ele><time>2026-05-02T15:32:57.887Z</time></trkpt><trkpt lat="42.2997473" lon="13.2378267"><ele>1280.0</ele><time>2026-05-02T15:32:58.878Z</time></trkpt><trkpt lat="42.2998422" lon="13.2378681"><ele>1280.0</ele><time>2026-05-02T15:32:59.88Z</time></trkpt><trkpt lat="42.2999394" lon="13.2379119"><ele>1280.0</ele><time>2026-05-02T15:33:00.891Z</time></trkpt><trkpt lat="42.3000338" lon="13.2379477"><ele>1280.0</ele><time>2026-05-02T15:33:01.875Z</time></trkpt><trkpt lat="42.3001283" lon="13.2379633"><ele>1279.4</ele><time>2026-05-02T15:33:02.891Z</time></trkpt><trkpt lat="42.3002265" lon="13.2379615"><ele>1278.8</ele><time>2026-05-02T15:33:03.877Z</time></trkpt><trkpt lat="42.3003171" lon="13.2379461"><ele>1278.2</ele><time>2026-05-02T15:33:04.871Z</time></trkpt><trkpt lat="42.3004113" lon="13.2379158"><ele>1277.6</ele><time>2026-05-02T15:33:05.882Z</time></trkpt><trkpt lat="42.3004966" lon="13.2378736"><ele>1277.0</ele><time>2026-05-02T15:33:06.874Z</time></trkpt><trkpt lat="42.3005922" lon="13.2378204"><ele>1277.0</ele><time>2026-05-02T15:33:07.881Z</time></trkpt><trkpt lat="42.3006868" lon="13.2377661"><ele>1277.0</ele><time>2026-05-02T15:33:08.877Z</time></trkpt><trkpt lat="42.3007844" lon="13.2377179"><ele>1277.0</ele><time>2026-05-02T15:33:09.882Z</time></trkpt><trkpt lat="42.300892" lon="13.2376852"><ele>1277.0</ele><time>2026-05-02T15:33:10.883Z</time></trkpt><trkpt lat="42.301016" lon="13.2376688"><ele>1277.0</ele><time>2026-05-02T15:33:11.876Z</time></trkpt><trkpt lat="42.3011512" lon="13.2376781"><ele>1277.0</ele><time>2026-05-02T15:33:12.882Z</time></trkpt><trkpt lat="42.3012919" lon="13.2376922"><ele>1277.0</ele><time>2026-05-02T15:33:13.886Z</time></trkpt><trkpt lat="42.3014459" lon="13.2377147"><ele>1277.0</ele><time>2026-05-02T15:33:14.884Z</time></trkpt><trkpt lat="42.3016012" lon="13.2377233"><ele>1275.75</ele><time>2026-05-02T15:33:15.876Z</time></trkpt><trkpt lat="42.3017383" lon="13.2377262"><ele>1274.5</ele><time>2026-05-02T15:33:16.878Z</time></trkpt><trkpt lat="42.3018637" lon="13.2377211"><ele>1273.25</ele><time>2026-05-02T15:33:17.889Z</time></trkpt><trkpt lat="42.3019828" lon="13.2377219"><ele>1272.0</ele><time>2026-05-02T15:33:18.88Z</time></trkpt><trkpt lat="42.3020791" lon="13.2377196"><ele>1272.0</ele><time>2026-05-02T15:33:19.884Z</time></trkpt><trkpt lat="42.3021476" lon="13.2377263"><ele>1272.0</ele><time>2026-05-02T15:33:20.895Z</time></trkpt><trkpt lat="42.3022586" lon="13.2377843"><ele>1272.0</ele><time>2026-05-02T15:33:22.891Z</time></trkpt><trkpt lat="42.3023121" lon="13.2378321"><ele>1272.0</ele><time>2026-05-02T15:33:23.888Z</time></trkpt><trkpt lat="42.3023816" lon="13.237892"><ele>1272.0</ele><time>2026-05-02T15:33:24.89Z</time></trkpt><trkpt lat="42.3024465" lon="13.2379662"><ele>1272.0</ele><time>2026-05-02T15:33:25.882Z</time></trkpt><trkpt lat="42.3024872" lon="13.2380375"><ele>1272.2</ele><time>2026-05-02T15:33:26.89Z</time></trkpt><trkpt lat="42.3025109" lon="13.2381309"><ele>1272.4</ele><time>2026-05-02T15:33:27.898Z</time></trkpt><trkpt lat="42.3025286" lon="13.2382385"><ele>1272.6</ele><time>2026-05-02T15:33:28.883Z</time></trkpt><trkpt lat="42.3025601" lon="13.2383542"><ele>1272.8</ele><time>2026-05-02T15:33:29.88Z</time></trkpt><trkpt lat="42.3026202" lon="13.2384418"><ele>1273.0</ele><time>2026-05-02T15:33:30.874Z</time></trkpt><trkpt lat="42.3027143" lon="13.2385352"><ele>1271.75</ele><time>2026-05-02T15:33:31.877Z</time></trkpt><trkpt lat="42.3028268" lon="13.2386256"><ele>1270.5</ele><time>2026-05-02T15:33:32.877Z</time></trkpt><trkpt lat="42.302954" lon="13.238708"><ele>1269.25</ele><time>2026-05-02T15:33:33.882Z</time></trkpt><trkpt lat="42.3030792" lon="13.2387724"><ele>1268.0</ele><time>2026-05-02T15:33:34.886Z</time></trkpt><trkpt lat="42.3031805" lon="13.2388442"><ele>1268.0</ele><time>2026-05-02T15:33:35.885Z</time></trkpt><trkpt lat="42.3032758" lon="13.2389493"><ele>1268.0</ele><time>2026-05-02T15:33:36.876Z</time></trkpt><trkpt lat="42.3033889" lon="13.2390881"><ele>1268.0</ele><time>2026-05-02T15:33:37.895Z</time></trkpt><trkpt lat="42.3035131" lon="13.239225"><ele>1268.0</ele><time>2026-05-02T15:33:38.884Z</time></trkpt><trkpt lat="42.303631" lon="13.2393257"><ele>1269.4</ele><time>2026-05-02T15:33:39.875Z</time></trkpt><trkpt lat="42.3037212" lon="13.2394038"><ele>1270.8</ele><time>2026-05-02T15:33:40.874Z</time></trkpt><trkpt lat="42.303809" lon="13.239494"><ele>1272.2</ele><time>2026-05-02T15:33:41.89Z</time></trkpt><trkpt lat="42.3038673" lon="13.2395892"><ele>1273.6</ele><time>2026-05-02T15:33:42.894Z</time></trkpt><trkpt lat="42.3039047" lon="13.239702"><ele>1275.0</ele><time>2026-05-02T15:33:43.886Z</time></trkpt><trkpt lat="42.3039229" lon="13.2398326"><ele>1275.0</ele><time>2026-05-02T15:33:44.883Z</time></trkpt><trkpt lat="42.3039334" lon="13.2399788"><ele>1275.0</ele><time>2026-05-02T15:33:45.865Z</time></trkpt><trkpt lat="42.3039557" lon="13.2401366"><ele>1275.0</ele><time>2026-05-02T15:33:46.899Z</time></trkpt><trkpt lat="42.3039898" lon="13.2403048"><ele>1275.0</ele><time>2026-05-02T15:33:47.88Z</time></trkpt><trkpt lat="42.3040269" lon="13.240502"><ele>1275.75</ele><time>2026-05-02T15:33:48.883Z</time></trkpt><trkpt lat="42.3040612" lon="13.2407047"><ele>1276.5</ele><time>2026-05-02T15:33:49.88Z</time></trkpt><trkpt lat="42.3040833" lon="13.2408789"><ele>1277.25</ele><time>2026-05-02T15:33:50.898Z</time></trkpt><trkpt lat="42.3040952" lon="13.2410401"><ele>1278.0</ele><time>2026-05-02T15:33:51.882Z</time></trkpt><trkpt lat="42.3040928" lon="13.2411787"><ele>1278.0</ele><time>2026-05-02T15:33:52.882Z</time></trkpt><trkpt lat="42.3040729" lon="13.2413095"><ele>1278.0</ele><time>2026-05-02T15:33:53.886Z</time></trkpt><trkpt lat="42.3040311" lon="13.2414303"><ele>1278.0</ele><time>2026-05-02T15:33:54.895Z</time></trkpt><trkpt lat="42.3039891" lon="13.2415802"><ele>1278.0</ele><time>2026-05-02T15:33:55.885Z</time></trkpt><trkpt lat="42.3039539" lon="13.2417329"><ele>1278.0</ele><time>2026-05-02T15:33:56.873Z</time></trkpt><trkpt lat="42.3039149" lon="13.2418751"><ele>1283.0</ele><time>2026-05-02T15:33:57.896Z</time></trkpt><trkpt lat="42.3038643" lon="13.2420123"><ele>1288.0</ele><time>2026-05-02T15:33:58.878Z</time></trkpt><trkpt lat="42.3037929" lon="13.2421607"><ele>1293.0</ele><time>2026-05-02T15:33:59.871Z</time></trkpt><trkpt lat="42.3037176" lon="13.2423222"><ele>1298.0</ele><time>2026-05-02T15:34:00.876Z</time></trkpt><trkpt lat="42.3036608" lon="13.2424876"><ele>1298.0</ele><time>2026-05-02T15:34:01.886Z</time></trkpt><trkpt lat="42.3036162" lon="13.242672"><ele>1298.0</ele><time>2026-05-02T15:34:02.875Z</time></trkpt><trkpt lat="42.3035895" lon="13.2428594"><ele>1298.0</ele><time>2026-05-02T15:34:03.883Z</time></trkpt><trkpt lat="42.3035823" lon="13.2430304"><ele>1298.0</ele><time>2026-05-02T15:34:04.87Z</time></trkpt><trkpt lat="42.3035871" lon="13.243196"><ele>1298.0</ele><time>2026-05-02T15:34:05.882Z</time></trkpt><trkpt lat="42.303585" lon="13.2433583"><ele>1298.0</ele><time>2026-05-02T15:34:06.881Z</time></trkpt><trkpt lat="42.303581" lon="13.2435166"><ele>1298.0</ele><time>2026-05-02T15:34:07.882Z</time></trkpt><trkpt lat="42.3035872" lon="13.2436426"><ele>1298.0</ele><time>2026-05-02T15:34:08.872Z</time></trkpt><trkpt lat="42.303596" lon="13.2437642"><ele>1298.0</ele><time>2026-05-02T15:34:09.886Z</time></trkpt><trkpt lat="42.3036118" lon="13.2439042"><ele>1299.2</ele><time>2026-05-02T15:34:10.883Z</time></trkpt><trkpt lat="42.3036231" lon="13.2440651"><ele>1300.4</ele><time>2026-05-02T15:34:11.884Z</time></trkpt><trkpt lat="42.3036167" lon="13.244205"><ele>1301.6000000000001</ele><time>2026-05-02T15:34:12.891Z</time></trkpt><trkpt lat="42.3035889" lon="13.2443302"><ele>1302.8000000000002</ele><time>2026-05-02T15:34:13.863Z</time></trkpt><trkpt lat="42.3035456" lon="13.2444553"><ele>1304.0</ele><time>2026-05-02T15:34:14.878Z</time></trkpt><trkpt lat="42.3034991" lon="13.2445811"><ele>1304.0</ele><time>2026-05-02T15:34:15.867Z</time></trkpt><trkpt lat="42.3034448" lon="13.244715"><ele>1304.0</ele><time>2026-05-02T15:34:16.892Z</time></trkpt><trkpt lat="42.3033847" lon="13.2448567"><ele>1304.0</ele><time>2026-05-02T15:34:17.871Z</time></trkpt><trkpt lat="42.3033218" lon="13.2449996"><ele>1304.0</ele><time>2026-05-02T15:34:18.87Z</time></trkpt><trkpt lat="42.3032579" lon="13.245126"><ele>1305.0</ele><time>2026-05-02T15:34:19.874Z</time></trkpt><trkpt lat="42.3032076" lon="13.2452377"><ele>1306.0</ele><time>2026-05-02T15:34:20.879Z</time></trkpt><trkpt lat="42.3031776" lon="13.2453559"><ele>1307.0</ele><time>2026-05-02T15:34:21.872Z</time></trkpt><trkpt lat="42.3031706" lon="13.2454962"><ele>1308.0</ele><time>2026-05-02T15:34:22.869Z</time></trkpt><trkpt lat="42.3031579" lon="13.2456234"><ele>1309.0</ele><time>2026-05-02T15:34:23.875Z</time></trkpt><trkpt lat="42.3031295" lon="13.2457392"><ele>1310.4</ele><time>2026-05-02T15:34:24.875Z</time></trkpt><trkpt lat="42.3030763" lon="13.2458569"><ele>1311.8000000000002</ele><time>2026-05-02T15:34:25.88Z</time></trkpt><trkpt lat="42.3030221" lon="13.2459877"><ele>1313.1999999999998</ele><time>2026-05-02T15:34:26.865Z</time></trkpt><trkpt lat="42.3029937" lon="13.2461105"><ele>1314.6</ele><time>2026-05-02T15:34:27.876Z</time></trkpt><trkpt lat="42.3029611" lon="13.2462144"><ele>1316.0</ele><time>2026-05-02T15:34:28.877Z</time></trkpt><trkpt lat="42.3028818" lon="13.246345"><ele>1318.25</ele><time>2026-05-02T15:34:30.881Z</time></trkpt><trkpt lat="42.3028287" lon="13.2464661"><ele>1320.5</ele><time>2026-05-02T15:34:31.88Z</time></trkpt><trkpt lat="42.3027712" lon="13.2466177"><ele>1322.75</ele><time>2026-05-02T15:34:32.871Z</time></trkpt><trkpt lat="42.3027123" lon="13.2467688"><ele>1325.0</ele><time>2026-05-02T15:34:33.879Z</time></trkpt><trkpt lat="42.3026519" lon="13.246937"><ele>1325.0</ele><time>2026-05-02T15:34:34.875Z</time></trkpt><trkpt lat="42.3025806" lon="13.2470853"><ele>1325.0</ele><time>2026-05-02T15:34:35.88Z</time></trkpt><trkpt lat="42.3025193" lon="13.2471976"><ele>1325.0</ele><time>2026-05-02T15:34:36.88Z</time></trkpt><trkpt lat="42.3024673" lon="13.2472921"><ele>1325.0</ele><time>2026-05-02T15:34:37.863Z</time></trkpt><trkpt lat="42.302416" lon="13.2473925"><ele>1325.0</ele><time>2026-05-02T15:34:38.894Z</time></trkpt><trkpt lat="42.3023487" lon="13.2475068"><ele>1329.0</ele><time>2026-05-02T15:34:39.875Z</time></trkpt><trkpt lat="42.3022662" lon="13.2476228"><ele>1333.0</ele><time>2026-05-02T15:34:40.884Z</time></trkpt><trkpt lat="42.3021741" lon="13.2477501"><ele>1337.0</ele><time>2026-05-02T15:34:41.87Z</time></trkpt><trkpt lat="42.3020886" lon="13.2478721"><ele>1341.0</ele><time>2026-05-02T15:34:42.894Z</time></trkpt><trkpt lat="42.3020056" lon="13.2480073"><ele>1343.5</ele><time>2026-05-02T15:34:43.86Z</time></trkpt><trkpt lat="42.3019198" lon="13.2481491"><ele>1346.0</ele><time>2026-05-02T15:34:44.882Z</time></trkpt><trkpt lat="42.3018255" lon="13.2482952"><ele>1348.5</ele><time>2026-05-02T15:34:45.87Z</time></trkpt><trkpt lat="42.3017318" lon="13.248424"><ele>1351.0</ele><time>2026-05-02T15:34:46.873Z</time></trkpt><trkpt lat="42.3016736" lon="13.2484888"><ele>1351.0</ele><time>2026-05-02T15:34:47.876Z</time></trkpt><trkpt lat="42.3016201" lon="13.2486142"><ele>1351.0</ele><time>2026-05-02T15:34:49.878Z</time></trkpt><trkpt lat="42.301594" lon="13.2486992"><ele>1351.0</ele><time>2026-05-02T15:34:50.871Z</time></trkpt><trkpt lat="42.3015644" lon="13.2487892"><ele>1351.0</ele><time>2026-05-02T15:34:51.874Z</time></trkpt><trkpt lat="42.3015426" lon="13.2488851"><ele>1351.0</ele><time>2026-05-02T15:34:52.876Z</time></trkpt><trkpt lat="42.3015229" lon="13.2490194"><ele>1351.0</ele><time>2026-05-02T15:34:53.878Z</time></trkpt><trkpt lat="42.3014886" lon="13.2491806"><ele>1352.75</ele><time>2026-05-02T15:34:54.893Z</time></trkpt><trkpt lat="42.3014557" lon="13.2493736"><ele>1354.5</ele><time>2026-05-02T15:34:55.881Z</time></trkpt><trkpt lat="42.3014366" lon="13.2495657"><ele>1356.25</ele><time>2026-05-02T15:34:56.885Z</time></trkpt><trkpt lat="42.3014208" lon="13.2497571"><ele>1358.0</ele><time>2026-05-02T15:34:57.878Z</time></trkpt><trkpt lat="42.3014211" lon="13.2499421"><ele>1358.0</ele><time>2026-05-02T15:34:58.886Z</time></trkpt><trkpt lat="42.3014303" lon="13.2501195"><ele>1358.0</ele><time>2026-05-02T15:34:59.879Z</time></trkpt><trkpt lat="42.3014512" lon="13.2502965"><ele>1358.0</ele><time>2026-05-02T15:35:00.889Z</time></trkpt><trkpt lat="42.3014911" lon="13.2504663"><ele>1358.0</ele><time>2026-05-02T15:35:01.878Z</time></trkpt><trkpt lat="42.301553" lon="13.2506239"><ele>1354.25</ele><time>2026-05-02T15:35:02.889Z</time></trkpt><trkpt lat="42.3016247" lon="13.2507885"><ele>1350.5</ele><time>2026-05-02T15:35:03.879Z</time></trkpt><trkpt lat="42.3017015" lon="13.2509486"><ele>1346.75</ele><time>2026-05-02T15:35:04.884Z</time></trkpt><trkpt lat="42.3017608" lon="13.2510911"><ele>1343.0</ele><time>2026-05-02T15:35:05.875Z</time></trkpt><trkpt lat="42.3018227" lon="13.2512234"><ele>1343.0</ele><time>2026-05-02T15:35:06.885Z</time></trkpt><trkpt lat="42.3018885" lon="13.251354"><ele>1343.0</ele><time>2026-05-02T15:35:07.889Z</time></trkpt><trkpt lat="42.3019713" lon="13.2514839"><ele>1343.0</ele><time>2026-05-02T15:35:08.883Z</time></trkpt><trkpt lat="42.3020706" lon="13.2516098"><ele>1343.0</ele><time>2026-05-02T15:35:09.875Z</time></trkpt><trkpt lat="42.3021834" lon="13.2517129"><ele>1343.25</ele><time>2026-05-02T15:35:10.88Z</time></trkpt><trkpt lat="42.3023009" lon="13.2517958"><ele>1343.5</ele><time>2026-05-02T15:35:11.872Z</time></trkpt><trkpt lat="42.3024232" lon="13.2518578"><ele>1343.75</ele><time>2026-05-02T15:35:12.879Z</time></trkpt><trkpt lat="42.3025303" lon="13.2518725"><ele>1344.0</ele><time>2026-05-02T15:35:13.872Z</time></trkpt><trkpt lat="42.302636" lon="13.2518649"><ele>1344.0</ele><time>2026-05-02T15:35:14.878Z</time></trkpt><trkpt lat="42.3027382" lon="13.2518379"><ele>1344.0</ele><time>2026-05-02T15:35:15.868Z</time></trkpt><trkpt lat="42.3028412" lon="13.2518277"><ele>1344.0</ele><time>2026-05-02T15:35:16.889Z</time></trkpt><trkpt lat="42.3029349" lon="13.2518193"><ele>1344.0</ele><time>2026-05-02T15:35:17.874Z</time></trkpt><trkpt lat="42.3030305" lon="13.2518143"><ele>1344.0</ele><time>2026-05-02T15:35:18.881Z</time></trkpt><trkpt lat="42.3031281" lon="13.2518194"><ele>1345.2</ele><time>2026-05-02T15:35:19.882Z</time></trkpt><trkpt lat="42.3032264" lon="13.2518221"><ele>1346.4</ele><time>2026-05-02T15:35:20.886Z</time></trkpt><trkpt lat="42.30332" lon="13.2518258"><ele>1347.6</ele><time>2026-05-02T15:35:21.883Z</time></trkpt><trkpt lat="42.3034106" lon="13.2518341"><ele>1348.8</ele><time>2026-05-02T15:35:22.883Z</time></trkpt><trkpt lat="42.3034977" lon="13.2518478"><ele>1350.0</ele><time>2026-05-02T15:35:23.885Z</time></trkpt><trkpt lat="42.3035822" lon="13.2518587"><ele>1350.0</ele><time>2026-05-02T15:35:24.875Z</time></trkpt><trkpt lat="42.303672" lon="13.2518864"><ele>1350.0</ele><time>2026-05-02T15:35:25.888Z</time></trkpt><trkpt lat="42.3037642" lon="13.251938"><ele>1350.0</ele><time>2026-05-02T15:35:26.875Z</time></trkpt><trkpt lat="42.3038562" lon="13.252013"><ele>1350.0</ele><time>2026-05-02T15:35:27.885Z</time></trkpt><trkpt lat="42.3039539" lon="13.2521042"><ele>1350.0</ele><time>2026-05-02T15:35:28.878Z</time></trkpt><trkpt lat="42.3040427" lon="13.2522309"><ele>1346.3333333333333</ele><time>2026-05-02T15:35:29.882Z</time></trkpt><trkpt lat="42.3041118" lon="13.2524011"><ele>1342.6666666666665</ele><time>2026-05-02T15:35:30.872Z</time></trkpt><trkpt lat="42.3041714" lon="13.2526059"><ele>1339.0</ele><time>2026-05-02T15:35:31.876Z</time></trkpt><trkpt lat="42.3042222" lon="13.252807"><ele>1339.0</ele><time>2026-05-02T15:35:32.889Z</time></trkpt><trkpt lat="42.3042821" lon="13.2530048"><ele>1339.0</ele><time>2026-05-02T15:35:33.866Z</time></trkpt><trkpt lat="42.3043355" lon="13.253187"><ele>1339.0</ele><time>2026-05-02T15:35:34.882Z</time></trkpt><trkpt lat="42.3043856" lon="13.2533628"><ele>1339.0</ele><time>2026-05-02T15:35:35.89Z</time></trkpt><trkpt lat="42.3044338" lon="13.2535246"><ele>1333.0</ele><time>2026-05-02T15:35:36.88Z</time></trkpt><trkpt lat="42.3044834" lon="13.2536795"><ele>1327.0</ele><time>2026-05-02T15:35:37.887Z</time></trkpt><trkpt lat="42.3045427" lon="13.2538399"><ele>1321.0</ele><time>2026-05-02T15:35:38.875Z</time></trkpt><trkpt lat="42.3046002" lon="13.2539987"><ele>1315.0</ele><time>2026-05-02T15:35:39.905Z</time></trkpt><trkpt lat="42.3046614" lon="13.2541452"><ele>1318.2</ele><time>2026-05-02T15:35:40.894Z</time></trkpt><trkpt lat="42.3047164" lon="13.2542786"><ele>1321.4</ele><time>2026-05-02T15:35:41.88Z</time></trkpt><trkpt lat="42.3047602" lon="13.2544036"><ele>1324.6</ele><time>2026-05-02T15:35:42.887Z</time></trkpt><trkpt lat="42.3048089" lon="13.2545118"><ele>1327.8</ele><time>2026-05-02T15:35:43.877Z</time></trkpt><trkpt lat="42.3048727" lon="13.2545837"><ele>1331.0</ele><time>2026-05-02T15:35:44.866Z</time></trkpt><trkpt lat="42.3049546" lon="13.2546108"><ele>1331.0</ele><time>2026-05-02T15:35:45.882Z</time></trkpt><trkpt lat="42.3050496" lon="13.2546131"><ele>1331.0</ele><time>2026-05-02T15:35:46.878Z</time></trkpt><trkpt lat="42.3051471" lon="13.2545797"><ele>1331.0</ele><time>2026-05-02T15:35:47.881Z</time></trkpt><trkpt lat="42.3052525" lon="13.2545244"><ele>1331.0</ele><time>2026-05-02T15:35:48.871Z</time></trkpt><trkpt lat="42.3053673" lon="13.254464"><ele>1331.0</ele><time>2026-05-02T15:35:49.865Z</time></trkpt><trkpt lat="42.3054944" lon="13.2543923"><ele>1329.0</ele><time>2026-05-02T15:35:50.867Z</time></trkpt><trkpt lat="42.3056266" lon="13.2543128"><ele>1327.0</ele><time>2026-05-02T15:35:51.863Z</time></trkpt><trkpt lat="42.3057448" lon="13.2542336"><ele>1325.0</ele><time>2026-05-02T15:35:52.874Z</time></trkpt><trkpt lat="42.305864" lon="13.2541586"><ele>1323.0</ele><time>2026-05-02T15:35:53.869Z</time></trkpt><trkpt lat="42.3059903" lon="13.2540991"><ele>1323.0</ele><time>2026-05-02T15:35:54.867Z</time></trkpt><trkpt lat="42.3061361" lon="13.2540686"><ele>1323.0</ele><time>2026-05-02T15:35:55.885Z</time></trkpt><trkpt lat="42.3062797" lon="13.2540322"><ele>1323.0</ele><time>2026-05-02T15:35:56.877Z</time></trkpt><trkpt lat="42.3064208" lon="13.2539913"><ele>1323.0</ele><time>2026-05-02T15:35:57.874Z</time></trkpt><trkpt lat="42.3065621" lon="13.2539534"><ele>1331.25</ele><time>2026-05-02T15:35:58.865Z</time></trkpt><trkpt lat="42.3067083" lon="13.2539172"><ele>1339.5</ele><time>2026-05-02T15:35:59.863Z</time></trkpt><trkpt lat="42.3068512" lon="13.2538907"><ele>1347.75</ele><time>2026-05-02T15:36:00.865Z</time></trkpt><trkpt lat="42.3069913" lon="13.2538631"><ele>1356.0</ele><time>2026-05-02T15:36:01.877Z</time></trkpt><trkpt lat="42.3071215" lon="13.2538262"><ele>1351.0</ele><time>2026-05-02T15:36:02.884Z</time></trkpt><trkpt lat="42.3072464" lon="13.2537707"><ele>1346.0</ele><time>2026-05-02T15:36:03.874Z</time></trkpt><trkpt lat="42.3073749" lon="13.2537176"><ele>1341.0</ele><time>2026-05-02T15:36:04.896Z</time></trkpt><trkpt lat="42.3075266" lon="13.2536885"><ele>1336.0</ele><time>2026-05-02T15:36:05.883Z</time></trkpt><trkpt lat="42.3076824" lon="13.25369"><ele>1336.0</ele><time>2026-05-02T15:36:06.891Z</time></trkpt><trkpt lat="42.3078459" lon="13.2537002"><ele>1336.0</ele><time>2026-05-02T15:36:07.872Z</time></trkpt><trkpt lat="42.3080176" lon="13.253716"><ele>1336.0</ele><time>2026-05-02T15:36:08.882Z</time></trkpt><trkpt lat="42.3081816" lon="13.2537411"><ele>1333.5</ele><time>2026-05-02T15:36:09.872Z</time></trkpt><trkpt lat="42.3083202" lon="13.2537517"><ele>1331.0</ele><time>2026-05-02T15:36:10.876Z</time></trkpt><trkpt lat="42.3084596" lon="13.2537769"><ele>1328.5</ele><time>2026-05-02T15:36:11.876Z</time></trkpt><trkpt lat="42.3085903" lon="13.2538183"><ele>1326.0</ele><time>2026-05-02T15:36:12.871Z</time></trkpt><trkpt lat="42.3087323" lon="13.253881"><ele>1326.0</ele><time>2026-05-02T15:36:13.871Z</time></trkpt><trkpt lat="42.3088648" lon="13.2539442"><ele>1326.0</ele><time>2026-05-02T15:36:14.867Z</time></trkpt><trkpt lat="42.3089876" lon="13.2539895"><ele>1326.0</ele><time>2026-05-02T15:36:15.878Z</time></trkpt><trkpt lat="42.3090998" lon="13.254032"><ele>1326.0</ele><time>2026-05-02T15:36:16.865Z</time></trkpt><trkpt lat="42.3092167" lon="13.254055"><ele>1325.25</ele><time>2026-05-02T15:36:17.873Z</time></trkpt><trkpt lat="42.3093257" lon="13.2540261"><ele>1324.5</ele><time>2026-05-02T15:36:18.886Z</time></trkpt><trkpt lat="42.3094469" lon="13.2539504"><ele>1323.75</ele><time>2026-05-02T15:36:19.886Z</time></trkpt><trkpt lat="42.3095626" lon="13.2538605"><ele>1323.0</ele><time>2026-05-02T15:36:20.87Z</time></trkpt><trkpt lat="42.3096699" lon="13.2537607"><ele>1319.0</ele><time>2026-05-02T15:36:21.875Z</time></trkpt><trkpt lat="42.3097782" lon="13.2536754"><ele>1315.0</ele><time>2026-05-02T15:36:22.873Z</time></trkpt><trkpt lat="42.3098885" lon="13.2535876"><ele>1311.0</ele><time>2026-05-02T15:36:23.867Z</time></trkpt><trkpt lat="42.3100125" lon="13.2534974"><ele>1307.0</ele><time>2026-05-02T15:36:24.87Z</time></trkpt><trkpt lat="42.3101508" lon="13.2533906"><ele>1307.0</ele><time>2026-05-02T15:36:25.882Z</time></trkpt><trkpt lat="42.3102923" lon="13.2532816"><ele>1307.0</ele><time>2026-05-02T15:36:26.879Z</time></trkpt><trkpt lat="42.3104261" lon="13.2531749"><ele>1307.0</ele><time>2026-05-02T15:36:27.888Z</time></trkpt><trkpt lat="42.3105476" lon="13.25309"><ele>1309.0</ele><time>2026-05-02T15:36:28.868Z</time></trkpt><trkpt lat="42.3106683" lon="13.2530231"><ele>1311.0</ele><time>2026-05-02T15:36:29.873Z</time></trkpt><trkpt lat="42.3107982" lon="13.2529589"><ele>1313.0</ele><time>2026-05-02T15:36:30.866Z</time></trkpt><trkpt lat="42.3109353" lon="13.2529152"><ele>1315.0</ele><time>2026-05-02T15:36:31.891Z</time></trkpt><trkpt lat="42.3110751" lon="13.2528916"><ele>1315.0</ele><time>2026-05-02T15:36:32.879Z</time></trkpt><trkpt lat="42.3112172" lon="13.2528789"><ele>1315.0</ele><time>2026-05-02T15:36:33.869Z</time></trkpt><trkpt lat="42.3113458" lon="13.252862"><ele>1315.0</ele><time>2026-05-02T15:36:34.893Z</time></trkpt><trkpt lat="42.3114652" lon="13.2528388"><ele>1315.0</ele><time>2026-05-02T15:36:35.911Z</time></trkpt><trkpt lat="42.3115935" lon="13.2528154"><ele>1312.5</ele><time>2026-05-02T15:36:36.891Z</time></trkpt><trkpt lat="42.3117271" lon="13.2527947"><ele>1310.0</ele><time>2026-05-02T15:36:37.89Z</time></trkpt><trkpt lat="42.3118588" lon="13.2527938"><ele>1307.5</ele><time>2026-05-02T15:36:38.865Z</time></trkpt><trkpt lat="42.3119739" lon="13.2528203"><ele>1305.0</ele><time>2026-05-02T15:36:39.872Z</time></trkpt><trkpt lat="42.3120783" lon="13.2528655"><ele>1305.0</ele><time>2026-05-02T15:36:40.875Z</time></trkpt><trkpt lat="42.3121833" lon="13.2529058"><ele>1305.0</ele><time>2026-05-02T15:36:41.874Z</time></trkpt><trkpt lat="42.3122853" lon="13.2528912"><ele>1305.0</ele><time>2026-05-02T15:36:42.873Z</time></trkpt><trkpt lat="42.3123746" lon="13.2528256"><ele>1305.0</ele><time>2026-05-02T15:36:43.87Z</time></trkpt><trkpt lat="42.3124669" lon="13.2527393"><ele>1305.0</ele><time>2026-05-02T15:36:44.879Z</time></trkpt><trkpt lat="42.3125544" lon="13.2526538"><ele>1305.6</ele><time>2026-05-02T15:36:45.878Z</time></trkpt><trkpt lat="42.3126509" lon="13.25259"><ele>1306.2</ele><time>2026-05-02T15:36:46.892Z</time></trkpt><trkpt lat="42.3127398" lon="13.2525316"><ele>1306.8000000000002</ele><time>2026-05-02T15:36:47.878Z</time></trkpt><trkpt lat="42.3128117" lon="13.2524513"><ele>1307.4</ele><time>2026-05-02T15:36:48.9Z</time></trkpt><trkpt lat="42.312868" lon="13.2523463"><ele>1308.0</ele><time>2026-05-02T15:36:49.89Z</time></trkpt><trkpt lat="42.3129221" lon="13.2522091"><ele>1308.0</ele><time>2026-05-02T15:36:50.891Z</time></trkpt><trkpt lat="42.3129726" lon="13.252063"><ele>1308.0</ele><time>2026-05-02T15:36:51.881Z</time></trkpt><trkpt lat="42.3130374" lon="13.2519493"><ele>1308.0</ele><time>2026-05-02T15:36:52.868Z</time></trkpt><trkpt lat="42.3131318" lon="13.251858"><ele>1308.0</ele><time>2026-05-02T15:36:53.901Z</time></trkpt><trkpt lat="42.3132468" lon="13.2518072"><ele>1308.4</ele><time>2026-05-02T15:36:54.881Z</time></trkpt><trkpt lat="42.313351" lon="13.2517606"><ele>1308.8000000000002</ele><time>2026-05-02T15:36:55.891Z</time></trkpt><trkpt lat="42.3134467" lon="13.2516869"><ele>1309.2</ele><time>2026-05-02T15:36:56.875Z</time></trkpt><trkpt lat="42.3135191" lon="13.2516018"><ele>1309.6</ele><time>2026-05-02T15:36:57.876Z</time></trkpt><trkpt lat="42.3135833" lon="13.2514867"><ele>1310.0</ele><time>2026-05-02T15:36:58.886Z</time></trkpt><trkpt lat="42.3136518" lon="13.2513813"><ele>1310.0</ele><time>2026-05-02T15:36:59.879Z</time></trkpt><trkpt lat="42.3137543" lon="13.2513232"><ele>1310.0</ele><time>2026-05-02T15:37:00.875Z</time></trkpt><trkpt lat="42.3138789" lon="13.2512915"><ele>1310.0</ele><time>2026-05-02T15:37:01.868Z</time></trkpt><trkpt lat="42.3140005" lon="13.2512518"><ele>1310.0</ele><time>2026-05-02T15:37:02.866Z</time></trkpt><trkpt lat="42.3141156" lon="13.251204"><ele>1307.2</ele><time>2026-05-02T15:37:03.877Z</time></trkpt><trkpt lat="42.3142242" lon="13.2511469"><ele>1304.4</ele><time>2026-05-02T15:37:04.895Z</time></trkpt><trkpt lat="42.3143316" lon="13.2510964"><ele>1301.6</ele><time>2026-05-02T15:37:05.879Z</time></trkpt><trkpt lat="42.3144265" lon="13.2510694"><ele>1298.8</ele><time>2026-05-02T15:37:06.891Z</time></trkpt><trkpt lat="42.314533" lon="13.2510994"><ele>1296.0</ele><time>2026-05-02T15:37:07.882Z</time></trkpt><trkpt lat="42.3146453" lon="13.2511704"><ele>1297.0</ele><time>2026-05-02T15:37:08.869Z</time></trkpt><trkpt lat="42.3147467" lon="13.2512642"><ele>1298.0</ele><time>2026-05-02T15:37:09.884Z</time></trkpt><trkpt lat="42.3148476" lon="13.2513812"><ele>1299.0</ele><time>2026-05-02T15:37:10.895Z</time></trkpt><trkpt lat="42.3149501" lon="13.2514951"><ele>1300.0</ele><time>2026-05-02T15:37:11.868Z</time></trkpt><trkpt lat="42.3150488" lon="13.2516007"><ele>1294.6</ele><time>2026-05-02T15:37:12.872Z</time></trkpt><trkpt lat="42.3151333" lon="13.251702"><ele>1289.2</ele><time>2026-05-02T15:37:13.882Z</time></trkpt><trkpt lat="42.3152117" lon="13.2518086"><ele>1283.8</ele><time>2026-05-02T15:37:14.878Z</time></trkpt><trkpt lat="42.3152766" lon="13.2519139"><ele>1278.4</ele><time>2026-05-02T15:37:15.886Z</time></trkpt><trkpt lat="42.3153326" lon="13.252017"><ele>1273.0</ele><time>2026-05-02T15:37:16.868Z</time></trkpt><trkpt lat="42.3154038" lon="13.2521068"><ele>1273.0</ele><time>2026-05-02T15:37:17.866Z</time></trkpt><trkpt lat="42.3154942" lon="13.2521666"><ele>1273.0</ele><time>2026-05-02T15:37:18.875Z</time></trkpt><trkpt lat="42.3156043" lon="13.2521916"><ele>1273.0</ele><time>2026-05-02T15:37:19.868Z</time></trkpt><trkpt lat="42.3157285" lon="13.2521986"><ele>1273.0</ele><time>2026-05-02T15:37:20.878Z</time></trkpt><trkpt lat="42.3158582" lon="13.2521829"><ele>1278.5</ele><time>2026-05-02T15:37:21.874Z</time></trkpt><trkpt lat="42.3159958" lon="13.2521487"><ele>1284.0</ele><time>2026-05-02T15:37:22.865Z</time></trkpt><trkpt lat="42.3161246" lon="13.2521037"><ele>1289.5</ele><time>2026-05-02T15:37:23.873Z</time></trkpt><trkpt lat="42.316227" lon="13.2520564"><ele>1295.0</ele><time>2026-05-02T15:37:24.878Z</time></trkpt><trkpt lat="42.3163185" lon="13.2520151"><ele>1294.3333333333335</ele><time>2026-05-02T15:37:25.879Z</time></trkpt><trkpt lat="42.3164084" lon="13.2519854"><ele>1293.6666666666667</ele><time>2026-05-02T15:37:26.901Z</time></trkpt><trkpt lat="42.3164879" lon="13.2519755"><ele>1293.0</ele><time>2026-05-02T15:37:27.877Z</time></trkpt><trkpt lat="42.3165598" lon="13.2520213"><ele>1292.3333333333333</ele><time>2026-05-02T15:37:28.879Z</time></trkpt><trkpt lat="42.3166215" lon="13.252114"><ele>1291.6666666666665</ele><time>2026-05-02T15:37:29.886Z</time></trkpt><trkpt lat="42.3166554" lon="13.2522199"><ele>1291.0</ele><time>2026-05-02T15:37:30.877Z</time></trkpt><trkpt lat="42.3166591" lon="13.2523416"><ele>1287.6</ele><time>2026-05-02T15:37:31.878Z</time></trkpt><trkpt lat="42.3166229" lon="13.2524783"><ele>1284.1999999999998</ele><time>2026-05-02T15:37:32.869Z</time></trkpt><trkpt lat="42.3165444" lon="13.2526058"><ele>1280.8000000000002</ele><time>2026-05-02T15:37:33.888Z</time></trkpt><trkpt lat="42.3164733" lon="13.252718"><ele>1277.4</ele><time>2026-05-02T15:37:34.903Z</time></trkpt><trkpt lat="42.316427" lon="13.252808"><ele>1274.0</ele><time>2026-05-02T15:37:35.874Z</time></trkpt><trkpt lat="42.3164097" lon="13.2528993"><ele>1274.0</ele><time>2026-05-02T15:37:36.876Z</time></trkpt><trkpt lat="42.3164177" lon="13.253011"><ele>1274.0</ele><time>2026-05-02T15:37:37.887Z</time></trkpt><trkpt lat="42.3165237" lon="13.2530922"><ele>1274.0</ele><time>2026-05-02T15:37:39.883Z</time></trkpt><trkpt lat="42.3166228" lon="13.2530767"><ele>1274.0</ele><time>2026-05-02T15:37:40.886Z</time></trkpt><trkpt lat="42.3167327" lon="13.253043"><ele>1274.0</ele><time>2026-05-02T15:37:41.866Z</time></trkpt><trkpt lat="42.3168725" lon="13.2529858"><ele>1274.0</ele><time>2026-05-02T15:37:42.866Z</time></trkpt><trkpt lat="42.3170244" lon="13.2529193"><ele>1274.0</ele><time>2026-05-02T15:37:43.871Z</time></trkpt><trkpt lat="42.3171737" lon="13.2528531"><ele>1274.0</ele><time>2026-05-02T15:37:44.883Z</time></trkpt><trkpt lat="42.3173317" lon="13.2527829"><ele>1274.6666666666667</ele><time>2026-05-02T15:37:45.887Z</time></trkpt><trkpt lat="42.317504" lon="13.2527175"><ele>1275.3333333333333</ele><time>2026-05-02T15:37:46.885Z</time></trkpt><trkpt lat="42.3176896" lon="13.2526596"><ele>1276.0</ele><time>2026-05-02T15:37:47.88Z</time></trkpt><trkpt lat="42.317887" lon="13.2526128"><ele>1274.0</ele><time>2026-05-02T15:37:48.891Z</time></trkpt><trkpt lat="42.3180863" lon="13.2525871"><ele>1272.0</ele><time>2026-05-02T15:37:49.877Z</time></trkpt><trkpt lat="42.3182936" lon="13.2525588"><ele>1270.0</ele><time>2026-05-02T15:37:50.875Z</time></trkpt><trkpt lat="42.3185104" lon="13.2525366"><ele>1270.0</ele><time>2026-05-02T15:37:51.877Z</time></trkpt><trkpt lat="42.318725" lon="13.2525082"><ele>1270.0</ele><time>2026-05-02T15:37:52.867Z</time></trkpt><trkpt lat="42.3189249" lon="13.2524687"><ele>1270.0</ele><time>2026-05-02T15:37:53.877Z</time></trkpt><trkpt lat="42.3191066" lon="13.2524239"><ele>1268.3333333333333</ele><time>2026-05-02T15:37:54.874Z</time></trkpt><trkpt lat="42.3192812" lon="13.2523819"><ele>1266.6666666666667</ele><time>2026-05-02T15:37:55.868Z</time></trkpt><trkpt lat="42.3194421" lon="13.2523561"><ele>1265.0</ele><time>2026-05-02T15:37:56.889Z</time></trkpt><trkpt lat="42.3195931" lon="13.2523274"><ele>1269.0</ele><time>2026-05-02T15:37:57.884Z</time></trkpt><trkpt lat="42.3197252" lon="13.2522786"><ele>1273.0</ele><time>2026-05-02T15:37:58.877Z</time></trkpt><trkpt lat="42.3198408" lon="13.252199"><ele>1277.0</ele><time>2026-05-02T15:37:59.878Z</time></trkpt><trkpt lat="42.3199345" lon="13.2520641"><ele>1281.0</ele><time>2026-05-02T15:38:00.882Z</time></trkpt><trkpt lat="42.3200312" lon="13.2518869"><ele>1281.0</ele><time>2026-05-02T15:38:01.89Z</time></trkpt><trkpt lat="42.320123" lon="13.2517302"><ele>1281.0</ele><time>2026-05-02T15:38:02.869Z</time></trkpt><trkpt lat="42.3202059" lon="13.2515918"><ele>1281.0</ele><time>2026-05-02T15:38:03.88Z</time></trkpt><trkpt lat="42.3202754" lon="13.2514506"><ele>1281.0</ele><time>2026-05-02T15:38:04.88Z</time></trkpt><trkpt lat="42.3203391" lon="13.2513023"><ele>1284.0</ele><time>2026-05-02T15:38:05.879Z</time></trkpt><trkpt lat="42.3204109" lon="13.2511579"><ele>1287.0</ele><time>2026-05-02T15:38:06.868Z</time></trkpt><trkpt lat="42.3204867" lon="13.2510231"><ele>1290.0</ele><time>2026-05-02T15:38:07.874Z</time></trkpt><trkpt lat="42.3205387" lon="13.2508852"><ele>1293.0</ele><time>2026-05-02T15:38:08.868Z</time></trkpt><trkpt lat="42.3205646" lon="13.2507404"><ele>1289.2</ele><time>2026-05-02T15:38:09.886Z</time></trkpt><trkpt lat="42.3205907" lon="13.2506053"><ele>1285.4</ele><time>2026-05-02T15:38:10.869Z</time></trkpt><trkpt lat="42.3206465" lon="13.2504899"><ele>1281.6000000000001</ele><time>2026-05-02T15:38:11.883Z</time></trkpt><trkpt lat="42.3207305" lon="13.2503963"><ele>1277.8000000000002</ele><time>2026-05-02T15:38:12.871Z</time></trkpt><trkpt lat="42.3208206" lon="13.2503424"><ele>1274.0</ele><time>2026-05-02T15:38:13.874Z</time></trkpt><trkpt lat="42.3209147" lon="13.2503396"><ele>1274.0</ele><time>2026-05-02T15:38:14.892Z</time></trkpt><trkpt lat="42.3210267" lon="13.2503762"><ele>1274.0</ele><time>2026-05-02T15:38:15.888Z</time></trkpt><trkpt lat="42.3211336" lon="13.2504273"><ele>1274.0</ele><time>2026-05-02T15:38:16.876Z</time></trkpt><trkpt lat="42.3212223" lon="13.2504963"><ele>1274.0</ele><time>2026-05-02T15:38:17.89Z</time></trkpt><trkpt lat="42.3212955" lon="13.2505497"><ele>1274.0</ele><time>2026-05-02T15:38:18.871Z</time></trkpt><trkpt lat="42.3213563" lon="13.2505878"><ele>1269.0</ele><time>2026-05-02T15:38:19.911Z</time></trkpt><trkpt lat="42.3214265" lon="13.2506299"><ele>1264.0</ele><time>2026-05-02T15:38:21.865Z</time></trkpt><trkpt lat="42.3215274" lon="13.2506644"><ele>1259.0</ele><time>2026-05-02T15:48:05.874Z</time></trkpt><trkpt lat="42.3216168" lon="13.2507025"><ele>1254.0</ele><time>2026-05-02T15:48:06.88Z</time></trkpt><trkpt lat="42.3217146" lon="13.250769"><ele>1249.0</ele><time>2026-05-02T15:48:07.886Z</time></trkpt><trkpt lat="42.3218195" lon="13.2508416"><ele>1249.0</ele><time>2026-05-02T15:48:08.883Z</time></trkpt><trkpt lat="42.3219233" lon="13.2509317"><ele>1249.0</ele><time>2026-05-02T15:48:09.894Z</time></trkpt><trkpt lat="42.3219974" lon="13.2510282"><ele>1249.0</ele><time>2026-05-02T15:48:10.891Z</time></trkpt><trkpt lat="42.322035" lon="13.2511233"><ele>1249.0</ele><time>2026-05-02T15:48:11.884Z</time></trkpt><trkpt lat="42.3220178" lon="13.2512762"><ele>1249.0</ele><time>2026-05-02T15:48:13.883Z</time></trkpt><trkpt lat="42.3219445" lon="13.2513192"><ele>1249.0</ele><time>2026-05-02T15:48:14.883Z</time></trkpt><trkpt lat="42.3218538" lon="13.2513148"><ele>1249.0</ele><time>2026-05-02T15:48:15.893Z</time></trkpt><trkpt lat="42.3217454" lon="13.2513007"><ele>1249.0</ele><time>2026-05-02T15:48:16.876Z</time></trkpt><trkpt lat="42.321631" lon="13.2512635"><ele>1249.0</ele><time>2026-05-02T15:48:17.884Z</time></trkpt><trkpt lat="42.3215203" lon="13.2511899"><ele>1249.0</ele><time>2026-05-02T15:48:18.878Z</time></trkpt><trkpt lat="42.3214154" lon="13.2510589"><ele>1249.5</ele><time>2026-05-02T15:48:19.882Z</time></trkpt><trkpt lat="42.3213144" lon="13.2509216"><ele>1250.0</ele><time>2026-05-02T15:48:20.882Z</time></trkpt><trkpt lat="42.3212151" lon="13.250801"><ele>1250.5</ele><time>2026-05-02T15:48:21.882Z</time></trkpt><trkpt lat="42.3211153" lon="13.2507066"><ele>1251.0</ele><time>2026-05-02T15:48:22.882Z</time></trkpt><trkpt lat="42.3210184" lon="13.2506534"><ele>1251.0</ele><time>2026-05-02T15:48:23.893Z</time></trkpt><trkpt lat="42.3209295" lon="13.2506241"><ele>1251.0</ele><time>2026-05-02T15:48:24.884Z</time></trkpt><trkpt lat="42.3208438" lon="13.250633"><ele>1251.0</ele><time>2026-05-02T15:48:25.892Z</time></trkpt><trkpt lat="42.3207468" lon="13.2507201"><ele>1251.0</ele><time>2026-05-02T15:48:27.876Z</time></trkpt><trkpt lat="42.3207266" lon="13.2508128"><ele>1251.0</ele><time>2026-05-02T15:48:28.879Z</time></trkpt><trkpt lat="42.3207133" lon="13.2509353"><ele>1251.0</ele><time>2026-05-02T15:48:29.875Z</time></trkpt><trkpt lat="42.3206856" lon="13.251084"><ele>1251.0</ele><time>2026-05-02T15:48:30.878Z</time></trkpt><trkpt lat="42.3206444" lon="13.2512568"><ele>1251.0</ele><time>2026-05-02T15:48:31.877Z</time></trkpt><trkpt lat="42.3205737" lon="13.251452"><ele>1251.0</ele><time>2026-05-02T15:48:32.88Z</time></trkpt><trkpt lat="42.32049" lon="13.2516715"><ele>1261.0</ele><time>2026-05-02T15:48:33.87Z</time></trkpt><trkpt lat="42.3204094" lon="13.2518902"><ele>1271.0</ele><time>2026-05-02T15:48:34.872Z</time></trkpt><trkpt lat="42.3203162" lon="13.2520892"><ele>1281.0</ele><time>2026-05-02T15:48:35.884Z</time></trkpt><trkpt lat="42.3202183" lon="13.2522748"><ele>1272.75</ele><time>2026-05-02T15:48:36.899Z</time></trkpt><trkpt lat="42.3201381" lon="13.252453"><ele>1264.5</ele><time>2026-05-02T15:48:37.879Z</time></trkpt><trkpt lat="42.3200611" lon="13.2526187"><ele>1256.25</ele><time>2026-05-02T15:48:38.872Z</time></trkpt><trkpt lat="42.3199709" lon="13.2527647"><ele>1248.0</ele><time>2026-05-02T15:48:39.888Z</time></trkpt><trkpt lat="42.3198458" lon="13.2528594"><ele>1253.6666666666667</ele><time>2026-05-02T15:48:40.883Z</time></trkpt><trkpt lat="42.3196862" lon="13.2529428"><ele>1259.3333333333335</ele><time>2026-05-02T15:48:41.879Z</time></trkpt><trkpt lat="42.3195033" lon="13.2530105"><ele>1265.0</ele><time>2026-05-02T15:48:42.888Z</time></trkpt><trkpt lat="42.3192968" lon="13.2530648"><ele>1254.6666666666667</ele><time>2026-05-02T15:48:43.864Z</time></trkpt><trkpt lat="42.3191061" lon="13.2531241"><ele>1244.3333333333333</ele><time>2026-05-02T15:48:44.879Z</time></trkpt><trkpt lat="42.3189252" lon="13.2531796"><ele>1234.0</ele><time>2026-05-02T15:48:45.871Z</time></trkpt><trkpt lat="42.3187472" lon="13.2532398"><ele>1234.0</ele><time>2026-05-02T15:48:46.866Z</time></trkpt><trkpt lat="42.3185539" lon="13.2532807"><ele>1234.0</ele><time>2026-05-02T15:48:47.878Z</time></trkpt><trkpt lat="42.3183539" lon="13.2533283"><ele>1234.0</ele><time>2026-05-02T15:48:48.869Z</time></trkpt><trkpt lat="42.3181416" lon="13.2533891"><ele>1238.0</ele><time>2026-05-02T15:48:49.882Z</time></trkpt><trkpt lat="42.3179176" lon="13.2534828"><ele>1242.0</ele><time>2026-05-02T15:48:50.882Z</time></trkpt><trkpt lat="42.3176867" lon="13.2535734"><ele>1242.0</ele><time>2026-05-02T15:48:51.877Z</time></trkpt><trkpt lat="42.3174507" lon="13.253666"><ele>1242.0</ele><time>2026-05-02T15:48:52.875Z</time></trkpt><trkpt lat="42.3172323" lon="13.2537584"><ele>1245.3333333333333</ele><time>2026-05-02T15:48:53.873Z</time></trkpt><trkpt lat="42.317019" lon="13.2538604"><ele>1248.6666666666665</ele><time>2026-05-02T15:48:54.882Z</time></trkpt><trkpt lat="42.3168244" lon="13.2539564"><ele>1252.0</ele><time>2026-05-02T15:48:55.87Z</time></trkpt><trkpt lat="42.3166534" lon="13.2540463"><ele>1241.5</ele><time>2026-05-02T15:48:56.877Z</time></trkpt><trkpt lat="42.316506" lon="13.2541229"><ele>1231.0</ele><time>2026-05-02T15:48:57.872Z</time></trkpt><trkpt lat="42.3163725" lon="13.2541702"><ele>1220.5</ele><time>2026-05-02T15:48:58.878Z</time></trkpt><trkpt lat="42.3162477" lon="13.25418"><ele>1210.0</ele><time>2026-05-02T15:48:59.871Z</time></trkpt><trkpt lat="42.3161302" lon="13.2541441"><ele>1208.3333333333333</ele><time>2026-05-02T15:49:00.886Z</time></trkpt><trkpt lat="42.3160019" lon="13.2540624"><ele>1206.6666666666667</ele><time>2026-05-02T15:49:01.885Z</time></trkpt><trkpt lat="42.3158523" lon="13.2539739"><ele>1205.0</ele><time>2026-05-02T15:49:02.884Z</time></trkpt><trkpt lat="42.3156997" lon="13.2538963"><ele>1205.75</ele><time>2026-05-02T15:49:03.894Z</time></trkpt><trkpt lat="42.3155604" lon="13.2538283"><ele>1206.5</ele><time>2026-05-02T15:49:04.893Z</time></trkpt><trkpt lat="42.3154473" lon="13.253758"><ele>1207.25</ele><time>2026-05-02T15:49:05.883Z</time></trkpt><trkpt lat="42.3153666" lon="13.2536862"><ele>1208.0</ele><time>2026-05-02T15:49:06.881Z</time></trkpt><trkpt lat="42.3152933" lon="13.2535375"><ele>1208.0</ele><time>2026-05-02T15:49:07.901Z</time></trkpt><trkpt lat="42.3152145" lon="13.2533889"><ele>1208.0</ele><time>2026-05-02T15:49:08.893Z</time></trkpt><trkpt lat="42.3151135" lon="13.253291"><ele>1208.0</ele><time>2026-05-02T15:49:09.868Z</time></trkpt><trkpt lat="42.3149817" lon="13.253246"><ele>1208.0</ele><time>2026-05-02T15:49:10.877Z</time></trkpt><trkpt lat="42.3148527" lon="13.253178"><ele>1213.5</ele><time>2026-05-02T15:49:11.875Z</time></trkpt><trkpt lat="42.3147475" lon="13.2530848"><ele>1219.0</ele><time>2026-05-02T15:49:12.899Z</time></trkpt><trkpt lat="42.3146421" lon="13.2529921"><ele>1224.5</ele><time>2026-05-02T15:49:13.873Z</time></trkpt><trkpt lat="42.3145399" lon="13.2529343"><ele>1230.0</ele><time>2026-05-02T15:49:14.874Z</time></trkpt><trkpt lat="42.3144367" lon="13.2529332"><ele>1230.0</ele><time>2026-05-02T15:49:15.88Z</time></trkpt><trkpt lat="42.3143147" lon="13.2529945"><ele>1230.0</ele><time>2026-05-02T15:49:16.875Z</time></trkpt><trkpt lat="42.3141812" lon="13.2530875"><ele>1230.0</ele><time>2026-05-02T15:49:17.873Z</time></trkpt><trkpt lat="42.3140682" lon="13.2531977"><ele>1230.0</ele><time>2026-05-02T15:49:18.883Z</time></trkpt><trkpt lat="42.313973" lon="13.2533539"><ele>1234.6666666666667</ele><time>2026-05-02T15:49:19.872Z</time></trkpt><trkpt lat="42.3138895" lon="13.253536"><ele>1239.3333333333335</ele><time>2026-05-02T15:49:20.874Z</time></trkpt><trkpt lat="42.3138005" lon="13.2537188"><ele>1244.0</ele><time>2026-05-02T15:49:21.87Z</time></trkpt><trkpt lat="42.3137153" lon="13.2538774"><ele>1239.75</ele><time>2026-05-02T15:49:22.88Z</time></trkpt><trkpt lat="42.3136362" lon="13.2540349"><ele>1235.5</ele><time>2026-05-02T15:49:23.872Z</time></trkpt><trkpt lat="42.3135756" lon="13.2542009"><ele>1231.25</ele><time>2026-05-02T15:49:24.876Z</time></trkpt><trkpt lat="42.3135336" lon="13.2544012"><ele>1227.0</ele><time>2026-05-02T15:49:25.87Z</time></trkpt><trkpt lat="42.3135017" lon="13.2546266"><ele>1222.5</ele><time>2026-05-02T15:49:26.862Z</time></trkpt><trkpt lat="42.3134708" lon="13.254832"><ele>1218.0</ele><time>2026-05-02T15:49:27.87Z</time></trkpt><trkpt lat="42.313434" lon="13.2550175"><ele>1213.5</ele><time>2026-05-02T15:49:28.879Z</time></trkpt><trkpt lat="42.3133775" lon="13.2551732"><ele>1209.0</ele><time>2026-05-02T15:49:29.866Z</time></trkpt><trkpt lat="42.3133009" lon="13.2552725"><ele>1209.0</ele><time>2026-05-02T15:49:30.874Z</time></trkpt><trkpt lat="42.3132273" lon="13.255314"><ele>1209.0</ele><time>2026-05-02T15:49:31.87Z</time></trkpt><trkpt lat="42.3131436" lon="13.2553237"><ele>1209.0</ele><time>2026-05-02T15:49:32.876Z</time></trkpt><trkpt lat="42.3130284" lon="13.2552856"><ele>1209.0</ele><time>2026-05-02T15:49:33.876Z</time></trkpt><trkpt lat="42.3129073" lon="13.255233"><ele>1209.0</ele><time>2026-05-02T15:49:34.879Z</time></trkpt><trkpt lat="42.3127719" lon="13.255154"><ele>1212.5</ele><time>2026-05-02T15:49:35.879Z</time></trkpt><trkpt lat="42.3126515" lon="13.2551225"><ele>1216.0</ele><time>2026-05-02T15:49:36.879Z</time></trkpt><trkpt lat="42.3125326" lon="13.2551187"><ele>1219.5</ele><time>2026-05-02T15:49:37.874Z</time></trkpt><trkpt lat="42.3124283" lon="13.2551512"><ele>1223.0</ele><time>2026-05-02T15:49:38.867Z</time></trkpt><trkpt lat="42.3123507" lon="13.255244"><ele>1223.0</ele><time>2026-05-02T15:49:39.862Z</time></trkpt><trkpt lat="42.3122889" lon="13.2553674"><ele>1223.0</ele><time>2026-05-02T15:49:40.862Z</time></trkpt><trkpt lat="42.3122528" lon="13.2555165"><ele>1223.0</ele><time>2026-05-02T15:49:41.867Z</time></trkpt><trkpt lat="42.3122203" lon="13.2557061"><ele>1223.0</ele><time>2026-05-02T15:49:42.871Z</time></trkpt><trkpt lat="42.3121988" lon="13.2558816"><ele>1222.0</ele><time>2026-05-02T15:49:43.871Z</time></trkpt><trkpt lat="42.3121944" lon="13.2560655"><ele>1221.0</ele><time>2026-05-02T15:49:44.872Z</time></trkpt><trkpt lat="42.3121922" lon="13.2562233"><ele>1220.0</ele><time>2026-05-02T15:49:45.862Z</time></trkpt><trkpt lat="42.3121672" lon="13.2563684"><ele>1219.0</ele><time>2026-05-02T15:49:46.886Z</time></trkpt><trkpt lat="42.3120962" lon="13.2564975"><ele>1213.8</ele><time>2026-05-02T15:49:47.867Z</time></trkpt><trkpt lat="42.3120044" lon="13.2566008"><ele>1208.6000000000001</ele><time>2026-05-02T15:49:48.884Z</time></trkpt><trkpt lat="42.3119135" lon="13.2566735"><ele>1203.4</ele><time>2026-05-02T15:49:49.883Z</time></trkpt><trkpt lat="42.3118075" lon="13.2566971"><ele>1198.2</ele><time>2026-05-02T15:49:50.875Z</time></trkpt><trkpt lat="42.3116993" lon="13.256672"><ele>1193.0</ele><time>2026-05-02T15:49:51.88Z</time></trkpt><trkpt lat="42.3115783" lon="13.2566021"><ele>1193.0</ele><time>2026-05-02T15:49:52.869Z</time></trkpt><trkpt lat="42.3114625" lon="13.2565381"><ele>1193.0</ele><time>2026-05-02T15:49:53.871Z</time></trkpt><trkpt lat="42.3113465" lon="13.2565249"><ele>1193.0</ele><time>2026-05-02T15:49:54.89Z</time></trkpt><trkpt lat="42.3112433" lon="13.2565642"><ele>1193.0</ele><time>2026-05-02T15:49:55.877Z</time></trkpt><trkpt lat="42.3111516" lon="13.2566552"><ele>1198.6666666666667</ele><time>2026-05-02T15:49:56.893Z</time></trkpt><trkpt lat="42.3110629" lon="13.256817"><ele>1204.3333333333333</ele><time>2026-05-02T15:49:57.877Z</time></trkpt><trkpt lat="42.3109879" lon="13.257033"><ele>1210.0</ele><time>2026-05-02T15:49:58.874Z</time></trkpt><trkpt lat="42.3109224" lon="13.2572457"><ele>1202.0</ele><time>2026-05-02T15:49:59.883Z</time></trkpt><trkpt lat="42.3108475" lon="13.2574568"><ele>1194.0</ele><time>2026-05-02T15:50:00.878Z</time></trkpt><trkpt lat="42.3107618" lon="13.2576465"><ele>1186.0</ele><time>2026-05-02T15:50:01.893Z</time></trkpt><trkpt lat="42.3106628" lon="13.2577919"><ele>1191.25</ele><time>2026-05-02T15:50:02.877Z</time></trkpt><trkpt lat="42.3105526" lon="13.2579004"><ele>1196.5</ele><time>2026-05-02T15:50:03.874Z</time></trkpt><trkpt lat="42.3104279" lon="13.257969"><ele>1201.75</ele><time>2026-05-02T15:50:04.864Z</time></trkpt><trkpt lat="42.3102774" lon="13.2579904"><ele>1207.0</ele><time>2026-05-02T15:50:05.87Z</time></trkpt><trkpt lat="42.3101308" lon="13.2579809"><ele>1207.0</ele><time>2026-05-02T15:50:06.88Z</time></trkpt><trkpt lat="42.3100106" lon="13.2580017"><ele>1207.0</ele><time>2026-05-02T15:50:07.885Z</time></trkpt><trkpt lat="42.3099086" lon="13.2580663"><ele>1207.0</ele><time>2026-05-02T15:50:08.887Z</time></trkpt><trkpt lat="42.3098198" lon="13.2581732"><ele>1207.0</ele><time>2026-05-02T15:50:09.882Z</time></trkpt><trkpt lat="42.3097323" lon="13.2583334"><ele>1203.6666666666665</ele><time>2026-05-02T15:50:10.883Z</time></trkpt><trkpt lat="42.3096461" lon="13.2585182"><ele>1200.3333333333333</ele><time>2026-05-02T15:50:11.884Z</time></trkpt><trkpt lat="42.3095476" lon="13.2586767"><ele>1197.0</ele><time>2026-05-02T15:50:12.86Z</time></trkpt><trkpt lat="42.3094429" lon="13.2588192"><ele>1188.0</ele><time>2026-05-02T15:50:13.866Z</time></trkpt><trkpt lat="42.3093238" lon="13.258952"><ele>1179.0</ele><time>2026-05-02T15:50:14.875Z</time></trkpt><trkpt lat="42.3091946" lon="13.2590443"><ele>1170.0</ele><time>2026-05-02T15:50:15.873Z</time></trkpt><trkpt lat="42.3090368" lon="13.2591174"><ele>1172.6666666666667</ele><time>2026-05-02T15:50:16.879Z</time></trkpt><trkpt lat="42.3088636" lon="13.2591901"><ele>1175.3333333333335</ele><time>2026-05-02T15:50:17.875Z</time></trkpt><trkpt lat="42.3086836" lon="13.2592698"><ele>1178.0</ele><time>2026-05-02T15:50:18.882Z</time></trkpt><trkpt lat="42.3085025" lon="13.2593902"><ele>1178.0</ele><time>2026-05-02T15:50:19.872Z</time></trkpt><trkpt lat="42.3083274" lon="13.2595228"><ele>1178.0</ele><time>2026-05-02T15:50:20.886Z</time></trkpt><trkpt lat="42.3081686" lon="13.25965"><ele>1178.0</ele><time>2026-05-02T15:50:21.862Z</time></trkpt><trkpt lat="42.3080186" lon="13.2597693"><ele>1172.5</ele><time>2026-05-02T15:50:22.879Z</time></trkpt><trkpt lat="42.3078751" lon="13.2598631"><ele>1167.0</ele><time>2026-05-02T15:50:23.879Z</time></trkpt><trkpt lat="42.3077404" lon="13.2599403"><ele>1161.5</ele><time>2026-05-02T15:50:24.892Z</time></trkpt><trkpt lat="42.3076126" lon="13.259985"><ele>1156.0</ele><time>2026-05-02T15:50:25.876Z</time></trkpt><trkpt lat="42.3074971" lon="13.2600006"><ele>1156.0</ele><time>2026-05-02T15:50:26.872Z</time></trkpt><trkpt lat="42.3073938" lon="13.2599611"><ele>1156.0</ele><time>2026-05-02T15:50:27.884Z</time></trkpt><trkpt lat="42.3073035" lon="13.2598931"><ele>1156.0</ele><time>2026-05-02T15:50:28.874Z</time></trkpt><trkpt lat="42.3072217" lon="13.2597976"><ele>1156.0</ele><time>2026-05-02T15:50:29.868Z</time></trkpt><trkpt lat="42.30715" lon="13.2596839"><ele>1156.0</ele><time>2026-05-02T15:50:30.879Z</time></trkpt><trkpt lat="42.3070728" lon="13.2595645"><ele>1153.5</ele><time>2026-05-02T15:50:31.871Z</time></trkpt><trkpt lat="42.3069943" lon="13.2594408"><ele>1151.0</ele><time>2026-05-02T15:50:32.889Z</time></trkpt><trkpt lat="42.3069251" lon="13.2593146"><ele>1148.5</ele><time>2026-05-02T15:50:33.869Z</time></trkpt><trkpt lat="42.3068675" lon="13.2591695"><ele>1146.0</ele><time>2026-05-02T15:50:34.878Z</time></trkpt><trkpt lat="42.3068144" lon="13.2590191"><ele>1148.25</ele><time>2026-05-02T15:50:35.889Z</time></trkpt><trkpt lat="42.3067637" lon="13.2588626"><ele>1150.5</ele><time>2026-05-02T15:50:36.87Z</time></trkpt><trkpt lat="42.3067176" lon="13.2586935"><ele>1152.75</ele><time>2026-05-02T15:50:37.889Z</time></trkpt><trkpt lat="42.3066638" lon="13.258526"><ele>1155.0</ele><time>2026-05-02T15:50:38.877Z</time></trkpt><trkpt lat="42.3065973" lon="13.2583571"><ele>1155.0</ele><time>2026-05-02T15:50:39.883Z</time></trkpt><trkpt lat="42.3065178" lon="13.2582064"><ele>1155.0</ele><time>2026-05-02T15:50:40.883Z</time></trkpt><trkpt lat="42.3064274" lon="13.2580738"><ele>1155.0</ele><time>2026-05-02T15:50:41.881Z</time></trkpt><trkpt lat="42.306328" lon="13.2579506"><ele>1155.0</ele><time>2026-05-02T15:50:42.88Z</time></trkpt><trkpt lat="42.306216" lon="13.2578629"><ele>1157.0</ele><time>2026-05-02T15:50:43.872Z</time></trkpt><trkpt lat="42.3060948" lon="13.2578027"><ele>1159.0</ele><time>2026-05-02T15:50:44.885Z</time></trkpt><trkpt lat="42.3059492" lon="13.2577715"><ele>1161.0</ele><time>2026-05-02T15:50:45.871Z</time></trkpt><trkpt lat="42.3057962" lon="13.2577769"><ele>1163.0</ele><time>2026-05-02T15:50:46.89Z</time></trkpt><trkpt lat="42.3056291" lon="13.2578109"><ele>1161.3333333333335</ele><time>2026-05-02T15:50:47.87Z</time></trkpt><trkpt lat="42.3054579" lon="13.2578602"><ele>1159.6666666666667</ele><time>2026-05-02T15:50:48.881Z</time></trkpt><trkpt lat="42.3052878" lon="13.2579"><ele>1158.0</ele><time>2026-05-02T15:50:49.875Z</time></trkpt><trkpt lat="42.3051259" lon="13.2579016"><ele>1158.0</ele><time>2026-05-02T15:50:50.888Z</time></trkpt><trkpt lat="42.3049731" lon="13.257872"><ele>1158.0</ele><time>2026-05-02T15:50:51.876Z</time></trkpt><trkpt lat="42.3048075" lon="13.2578513"><ele>1158.0</ele><time>2026-05-02T15:50:52.878Z</time></trkpt><trkpt lat="42.3046427" lon="13.2578599"><ele>1160.0</ele><time>2026-05-02T15:50:53.874Z</time></trkpt><trkpt lat="42.3044569" lon="13.2579063"><ele>1162.0</ele><time>2026-05-02T15:50:54.885Z</time></trkpt><trkpt lat="42.3042531" lon="13.2579776"><ele>1164.0</ele><time>2026-05-02T15:50:55.878Z</time></trkpt><trkpt lat="42.3040542" lon="13.2580652"><ele>1152.3333333333333</ele><time>2026-05-02T15:50:56.87Z</time></trkpt><trkpt lat="42.3038633" lon="13.2581477"><ele>1140.6666666666665</ele><time>2026-05-02T15:50:57.865Z</time></trkpt><trkpt lat="42.3036949" lon="13.2582181"><ele>1129.0</ele><time>2026-05-02T15:50:58.864Z</time></trkpt><trkpt lat="42.3035424" lon="13.2582714"><ele>1129.0</ele><time>2026-05-02T15:50:59.864Z</time></trkpt><trkpt lat="42.303408" lon="13.2583099"><ele>1129.0</ele><time>2026-05-02T15:51:00.871Z</time></trkpt><trkpt lat="42.3032787" lon="13.2583273"><ele>1129.0</ele><time>2026-05-02T15:51:01.879Z</time></trkpt><trkpt lat="42.3031651" lon="13.2582983"><ele>1129.0</ele><time>2026-05-02T15:51:02.879Z</time></trkpt><trkpt lat="42.3030508" lon="13.2582293"><ele>1130.3333333333333</ele><time>2026-05-02T15:51:03.876Z</time></trkpt><trkpt lat="42.3029484" lon="13.2581268"><ele>1131.6666666666667</ele><time>2026-05-02T15:51:04.882Z</time></trkpt><trkpt lat="42.3028339" lon="13.2579757"><ele>1133.0</ele><time>2026-05-02T15:51:05.882Z</time></trkpt><trkpt lat="42.3027106" lon="13.2578103"><ele>1133.0</ele><time>2026-05-02T15:51:06.89Z</time></trkpt><trkpt lat="42.302577" lon="13.257638"><ele>1133.0</ele><time>2026-05-02T15:51:07.874Z</time></trkpt><trkpt lat="42.3024416" lon="13.257479"><ele>1133.0</ele><time>2026-05-02T15:51:08.882Z</time></trkpt><trkpt lat="42.3022983" lon="13.2573319"><ele>1132.0</ele><time>2026-05-02T15:51:09.882Z</time></trkpt><trkpt lat="42.3021477" lon="13.2572019"><ele>1131.0</ele><time>2026-05-02T15:51:10.885Z</time></trkpt><trkpt lat="42.3019899" lon="13.2570828"><ele>1130.0</ele><time>2026-05-02T15:51:11.889Z</time></trkpt><trkpt lat="42.3018402" lon="13.256984"><ele>1130.0</ele><time>2026-05-02T15:51:12.89Z</time></trkpt><trkpt lat="42.3017118" lon="13.2568953"><ele>1130.0</ele><time>2026-05-02T15:51:13.877Z</time></trkpt><trkpt lat="42.3016001" lon="13.2568261"><ele>1130.0</ele><time>2026-05-02T15:51:14.878Z</time></trkpt><trkpt lat="42.3014991" lon="13.2567991"><ele>1130.0</ele><time>2026-05-02T15:51:15.877Z</time></trkpt><trkpt lat="42.3014143" lon="13.2568205"><ele>1134.2</ele><time>2026-05-02T15:51:16.869Z</time></trkpt><trkpt lat="42.3013309" lon="13.256878"><ele>1138.4</ele><time>2026-05-02T15:51:17.877Z</time></trkpt><trkpt lat="42.3012726" lon="13.2569569"><ele>1142.6</ele><time>2026-05-02T15:51:18.866Z</time></trkpt><trkpt lat="42.3012179" lon="13.2570953"><ele>1146.8</ele><time>2026-05-02T15:51:19.876Z</time></trkpt><trkpt lat="42.3011757" lon="13.2572787"><ele>1151.0</ele><time>2026-05-02T15:51:20.875Z</time></trkpt><trkpt lat="42.3011418" lon="13.2574899"><ele>1151.0</ele><time>2026-05-02T15:51:21.873Z</time></trkpt><trkpt lat="42.3011093" lon="13.2577285"><ele>1151.0</ele><time>2026-05-02T15:51:22.882Z</time></trkpt><trkpt lat="42.3010823" lon="13.2579571"><ele>1151.0</ele><time>2026-05-02T15:51:23.876Z</time></trkpt><trkpt lat="42.3010488" lon="13.2581977"><ele>1147.0</ele><time>2026-05-02T15:51:24.891Z</time></trkpt><trkpt lat="42.3010216" lon="13.2584327"><ele>1143.0</ele><time>2026-05-02T15:51:25.876Z</time></trkpt><trkpt lat="42.3009908" lon="13.2586622"><ele>1139.0</ele><time>2026-05-02T15:51:26.873Z</time></trkpt><trkpt lat="42.3009635" lon="13.2588904"><ele>1137.6666666666667</ele><time>2026-05-02T15:51:27.874Z</time></trkpt><trkpt lat="42.3009545" lon="13.2591318"><ele>1136.3333333333333</ele><time>2026-05-02T15:51:28.886Z</time></trkpt><trkpt lat="42.3009662" lon="13.2593879"><ele>1135.0</ele><time>2026-05-02T15:51:29.868Z</time></trkpt><trkpt lat="42.3009846" lon="13.2596306"><ele>1134.0</ele><time>2026-05-02T15:51:30.875Z</time></trkpt><trkpt lat="42.3010058" lon="13.259855"><ele>1133.0</ele><time>2026-05-02T15:51:31.864Z</time></trkpt><trkpt lat="42.301048" lon="13.260079"><ele>1132.0</ele><time>2026-05-02T15:51:32.886Z</time></trkpt><trkpt lat="42.3010949" lon="13.2603064"><ele>1132.0</ele><time>2026-05-02T15:51:33.875Z</time></trkpt><trkpt lat="42.3011254" lon="13.260522"><ele>1132.0</ele><time>2026-05-02T15:51:34.87Z</time></trkpt><trkpt lat="42.3011453" lon="13.2607114"><ele>1132.0</ele><time>2026-05-02T15:51:35.869Z</time></trkpt><trkpt lat="42.3011464" lon="13.2608762"><ele>1132.0</ele><time>2026-05-02T15:51:36.868Z</time></trkpt><trkpt lat="42.3011125" lon="13.2610176"><ele>1128.75</ele><time>2026-05-02T15:51:37.891Z</time></trkpt><trkpt lat="42.3010548" lon="13.2611317"><ele>1125.5</ele><time>2026-05-02T15:51:38.884Z</time></trkpt><trkpt lat="42.3009585" lon="13.2612362"><ele>1122.25</ele><time>2026-05-02T15:51:39.87Z</time></trkpt><trkpt lat="42.3008382" lon="13.2613312"><ele>1119.0</ele><time>2026-05-02T15:51:40.881Z</time></trkpt><trkpt lat="42.3007024" lon="13.261417"><ele>1117.25</ele><time>2026-05-02T15:51:41.887Z</time></trkpt><trkpt lat="42.3005652" lon="13.2614813"><ele>1115.5</ele><time>2026-05-02T15:51:42.884Z</time></trkpt><trkpt lat="42.3004354" lon="13.2615435"><ele>1113.75</ele><time>2026-05-02T15:51:43.873Z</time></trkpt><trkpt lat="42.3003177" lon="13.2616251"><ele>1112.0</ele><time>2026-05-02T15:51:44.885Z</time></trkpt><trkpt lat="42.30023" lon="13.2617568"><ele>1112.0</ele><time>2026-05-02T15:51:45.874Z</time></trkpt><trkpt lat="42.3001829" lon="13.2619238"><ele>1112.0</ele><time>2026-05-02T15:51:46.878Z</time></trkpt><trkpt lat="42.300132" lon="13.2620746"><ele>1112.0</ele><time>2026-05-02T15:51:47.881Z</time></trkpt><trkpt lat="42.3000611" lon="13.2622186"><ele>1112.0</ele><time>2026-05-02T15:51:48.876Z</time></trkpt><trkpt lat="42.2999605" lon="13.2623007"><ele>1107.0</ele><time>2026-05-02T15:51:49.886Z</time></trkpt><trkpt lat="42.2998482" lon="13.2623867"><ele>1102.0</ele><time>2026-05-02T15:51:50.884Z</time></trkpt><trkpt lat="42.2997321" lon="13.2624638"><ele>1097.0</ele><time>2026-05-02T15:51:51.875Z</time></trkpt><trkpt lat="42.2996307" lon="13.2625432"><ele>1092.0</ele><time>2026-05-02T15:51:52.877Z</time></trkpt><trkpt lat="42.299546" lon="13.2626128"><ele>1090.0</ele><time>2026-05-02T15:51:53.885Z</time></trkpt><trkpt lat="42.2994642" lon="13.2626604"><ele>1088.0</ele><time>2026-05-02T15:51:54.88Z</time></trkpt><trkpt lat="42.2993875" lon="13.2626623"><ele>1086.0</ele><time>2026-05-02T15:51:55.885Z</time></trkpt><trkpt lat="42.2992975" lon="13.2625897"><ele>1084.0</ele><time>2026-05-02T15:51:56.882Z</time></trkpt><trkpt lat="42.2992202" lon="13.262471"><ele>1082.0</ele><time>2026-05-02T15:51:57.887Z</time></trkpt><trkpt lat="42.2991555" lon="13.262355"><ele>1086.0</ele><time>2026-05-02T15:51:58.871Z</time></trkpt><trkpt lat="42.2991039" lon="13.2621976"><ele>1090.0</ele><time>2026-05-02T15:51:59.883Z</time></trkpt><trkpt lat="42.2990673" lon="13.262021"><ele>1094.0</ele><time>2026-05-02T15:52:00.884Z</time></trkpt><trkpt lat="42.2990303" lon="13.2618479"><ele>1098.0</ele><time>2026-05-02T15:52:01.885Z</time></trkpt><trkpt lat="42.298997" lon="13.2616982"><ele>1098.0</ele><time>2026-05-02T15:52:02.88Z</time></trkpt><trkpt lat="42.2989497" lon="13.2615792"><ele>1098.0</ele><time>2026-05-02T15:52:03.885Z</time></trkpt><trkpt lat="42.2988929" lon="13.2615036"><ele>1098.0</ele><time>2026-05-02T15:52:04.869Z</time></trkpt><trkpt lat="42.2988287" lon="13.2614807"><ele>1098.0</ele><time>2026-05-02T15:52:05.886Z</time></trkpt><trkpt lat="42.2987542" lon="13.2615082"><ele>1098.0</ele><time>2026-05-02T15:52:06.87Z</time></trkpt><trkpt lat="42.2986752" lon="13.2615935"><ele>1098.0</ele><time>2026-05-02T15:52:07.88Z</time></trkpt><trkpt lat="42.298587" lon="13.2617071"><ele>1097.75</ele><time>2026-05-02T15:52:08.876Z</time></trkpt><trkpt lat="42.2984764" lon="13.2618312"><ele>1097.5</ele><time>2026-05-02T15:52:09.874Z</time></trkpt><trkpt lat="42.2983531" lon="13.2619329"><ele>1097.25</ele><time>2026-05-02T15:52:10.874Z</time></trkpt><trkpt lat="42.2982211" lon="13.2620126"><ele>1097.0</ele><time>2026-05-02T15:52:11.867Z</time></trkpt><trkpt lat="42.2981033" lon="13.2620404"><ele>1096.6</ele><time>2026-05-02T15:52:12.878Z</time></trkpt><trkpt lat="42.2980033" lon="13.2620821"><ele>1096.2</ele><time>2026-05-02T15:52:13.878Z</time></trkpt><trkpt lat="42.2979193" lon="13.2621797"><ele>1095.8</ele><time>2026-05-02T15:52:14.876Z</time></trkpt><trkpt lat="42.2978713" lon="13.2623001"><ele>1095.4</ele><time>2026-05-02T15:52:15.87Z</time></trkpt><trkpt lat="42.2978537" lon="13.2624338"><ele>1095.0</ele><time>2026-05-02T15:52:16.879Z</time></trkpt><trkpt lat="42.2978575" lon="13.2625889"><ele>1095.0</ele><time>2026-05-02T15:52:17.871Z</time></trkpt><trkpt lat="42.2978595" lon="13.2627584"><ele>1095.0</ele><time>2026-05-02T15:52:18.873Z</time></trkpt><trkpt lat="42.2978316" lon="13.2629313"><ele>1095.0</ele><time>2026-05-02T15:52:19.871Z</time></trkpt><trkpt lat="42.2977663" lon="13.2630647"><ele>1095.0</ele><time>2026-05-02T15:52:20.864Z</time></trkpt><trkpt lat="42.297673" lon="13.263165"><ele>1093.0</ele><time>2026-05-02T15:52:21.876Z</time></trkpt><trkpt lat="42.297585" lon="13.2632382"><ele>1091.0</ele><time>2026-05-02T15:52:22.884Z</time></trkpt><trkpt lat="42.2974678" lon="13.263253"><ele>1089.0</ele><time>2026-05-02T15:52:23.888Z</time></trkpt><trkpt lat="42.2973373" lon="13.2632295"><ele>1087.0</ele><time>2026-05-02T15:52:24.864Z</time></trkpt><trkpt lat="42.2972168" lon="13.2631894"><ele>1087.0</ele><time>2026-05-02T15:52:25.863Z</time></trkpt><trkpt lat="42.2970988" lon="13.2631602"><ele>1087.0</ele><time>2026-05-02T15:52:26.857Z</time></trkpt><trkpt lat="42.2970027" lon="13.2631802"><ele>1087.0</ele><time>2026-05-02T15:52:27.854Z</time></trkpt><trkpt lat="42.2969161" lon="13.2632584"><ele>1087.0</ele><time>2026-05-02T15:52:28.864Z</time></trkpt><trkpt lat="42.2968329" lon="13.2633701"><ele>1087.0</ele><time>2026-05-02T15:52:29.85Z</time></trkpt><trkpt lat="42.2967825" lon="13.2634968"><ele>1087.0</ele><time>2026-05-02T15:52:30.864Z</time></trkpt><trkpt lat="42.2967572" lon="13.2636554"><ele>1087.0</ele><time>2026-05-02T15:52:31.861Z</time></trkpt><trkpt lat="42.2967656" lon="13.2638181"><ele>1087.0</ele><time>2026-05-02T15:52:32.854Z</time></trkpt><trkpt lat="42.2967767" lon="13.2639806"><ele>1087.0</ele><time>2026-05-02T15:52:33.872Z</time></trkpt><trkpt lat="42.296759" lon="13.2641327"><ele>1083.0</ele><time>2026-05-02T15:52:34.862Z</time></trkpt><trkpt lat="42.2967118" lon="13.2642632"><ele>1079.0</ele><time>2026-05-02T15:52:35.862Z</time></trkpt><trkpt lat="42.2966279" lon="13.2643763"><ele>1075.0</ele><time>2026-05-02T15:52:36.863Z</time></trkpt><trkpt lat="42.2965429" lon="13.264486"><ele>1071.0</ele><time>2026-05-02T15:52:37.865Z</time></trkpt><trkpt lat="42.2964917" lon="13.2646136"><ele>1068.0</ele><time>2026-05-02T15:52:38.882Z</time></trkpt><trkpt lat="42.2964749" lon="13.2647804"><ele>1065.0</ele><time>2026-05-02T15:52:39.859Z</time></trkpt><trkpt lat="42.2964808" lon="13.2649383"><ele>1062.0</ele><time>2026-05-02T15:52:40.865Z</time></trkpt><trkpt lat="42.2964897" lon="13.2650868"><ele>1059.0</ele><time>2026-05-02T15:52:41.859Z</time></trkpt><trkpt lat="42.2964866" lon="13.2652083"><ele>1056.0</ele><time>2026-05-02T15:52:42.86Z</time></trkpt><trkpt lat="42.2964739" lon="13.2653271"><ele>1056.0</ele><time>2026-05-02T15:52:43.867Z</time></trkpt><trkpt lat="42.29646" lon="13.2654502"><ele>1056.0</ele><time>2026-05-02T15:52:44.859Z</time></trkpt><trkpt lat="42.2964287" lon="13.2655844"><ele>1056.0</ele><time>2026-05-02T15:52:45.866Z</time></trkpt><trkpt lat="42.2963949" lon="13.2657278"><ele>1056.0</ele><time>2026-05-02T15:52:46.875Z</time></trkpt><trkpt lat="42.2963574" lon="13.265857"><ele>1056.0</ele><time>2026-05-02T15:52:47.878Z</time></trkpt><trkpt lat="42.2963305" lon="13.2659631"><ele>1054.0</ele><time>2026-05-02T15:52:48.877Z</time></trkpt><trkpt lat="42.2963197" lon="13.2660491"><ele>1052.0</ele><time>2026-05-02T15:52:49.881Z</time></trkpt><trkpt lat="42.296406" lon="13.2661326"><ele>1050.0</ele><time>2026-05-02T15:52:51.869Z</time></trkpt><trkpt lat="42.2964942" lon="13.2660818"><ele>1048.0</ele><time>2026-05-02T15:52:52.881Z</time></trkpt><trkpt lat="42.2965878" lon="13.2660094"><ele>1046.0</ele><time>2026-05-02T15:52:53.869Z</time></trkpt><trkpt lat="42.2967095" lon="13.2659568"><ele>1046.0</ele><time>2026-05-02T15:52:54.871Z</time></trkpt><trkpt lat="42.2968329" lon="13.265915"><ele>1046.0</ele><time>2026-05-02T15:52:55.872Z</time></trkpt><trkpt lat="42.2969457" lon="13.2659194"><ele>1046.0</ele><time>2026-05-02T15:52:56.875Z</time></trkpt><trkpt lat="42.2970479" lon="13.2659685"><ele>1046.0</ele><time>2026-05-02T15:52:57.867Z</time></trkpt><trkpt lat="42.2971329" lon="13.2660177"><ele>1046.0</ele><time>2026-05-02T15:52:58.892Z</time></trkpt><trkpt lat="42.2971849" lon="13.2661288"><ele>1046.0</ele><time>2026-05-02T15:52:59.881Z</time></trkpt><trkpt lat="42.2971964" lon="13.2662412"><ele>1046.0</ele><time>2026-05-02T15:53:00.876Z</time></trkpt><trkpt lat="42.2971784" lon="13.2663261"><ele>1046.0</ele><time>2026-05-02T15:53:01.871Z</time></trkpt><trkpt lat="42.2971181" lon="13.2663937"><ele>1046.0</ele><time>2026-05-02T15:53:02.866Z</time></trkpt><trkpt lat="42.297038" lon="13.266412"><ele>1046.0</ele><time>2026-05-02T15:53:03.874Z</time></trkpt><trkpt lat="42.2969538" lon="13.2664375"><ele>1046.0</ele><time>2026-05-02T15:53:04.883Z</time></trkpt><trkpt lat="42.2968814" lon="13.2664754"><ele>1042.25</ele><time>2026-05-02T15:53:05.875Z</time></trkpt><trkpt lat="42.2968049" lon="13.2665683"><ele>1038.5</ele><time>2026-05-02T15:53:06.867Z</time></trkpt><trkpt lat="42.2967414" lon="13.2666831"><ele>1034.75</ele><time>2026-05-02T15:53:07.877Z</time></trkpt><trkpt lat="42.2966848" lon="13.2668371"><ele>1031.0</ele><time>2026-05-02T15:53:08.878Z</time></trkpt><trkpt lat="42.2966244" lon="13.2669935"><ele>1031.0</ele><time>2026-05-02T15:53:09.889Z</time></trkpt><trkpt lat="42.2965642" lon="13.2671517"><ele>1031.0</ele><time>2026-05-02T15:53:10.875Z</time></trkpt><trkpt lat="42.2965036" lon="13.2673175"><ele>1031.0</ele><time>2026-05-02T15:53:11.859Z</time></trkpt><trkpt lat="42.2964504" lon="13.2674895"><ele>1031.0</ele><time>2026-05-02T15:53:12.87Z</time></trkpt><trkpt lat="42.2964001" lon="13.2676706"><ele>1034.6666666666667</ele><time>2026-05-02T15:53:13.87Z</time></trkpt><trkpt lat="42.2963663" lon="13.2678697"><ele>1038.3333333333333</ele><time>2026-05-02T15:53:14.883Z</time></trkpt><trkpt lat="42.2963384" lon="13.2680724"><ele>1042.0</ele><time>2026-05-02T15:53:15.878Z</time></trkpt><trkpt lat="42.2963155" lon="13.2682781"><ele>1034.3333333333333</ele><time>2026-05-02T15:53:16.884Z</time></trkpt><trkpt lat="42.2962891" lon="13.2684894"><ele>1026.6666666666667</ele><time>2026-05-02T15:53:17.868Z</time></trkpt><trkpt lat="42.2962427" lon="13.2686991"><ele>1019.0</ele><time>2026-05-02T15:53:18.875Z</time></trkpt><trkpt lat="42.2961751" lon="13.2688955"><ele>1015.6</ele><time>2026-05-02T15:53:19.882Z</time></trkpt><trkpt lat="42.2961044" lon="13.269071"><ele>1012.2</ele><time>2026-05-02T15:53:20.875Z</time></trkpt><trkpt lat="42.2960384" lon="13.2692157"><ele>1008.8000000000001</ele><time>2026-05-02T15:53:21.87Z</time></trkpt><trkpt lat="42.2959975" lon="13.2693337"><ele>1005.4000000000001</ele><time>2026-05-02T15:53:22.883Z</time></trkpt><trkpt lat="42.2959811" lon="13.2694324"><ele>1002.0</ele><time>2026-05-02T15:53:23.865Z</time></trkpt><trkpt lat="42.2960439" lon="13.2695538"><ele>1002.0</ele><time>2026-05-02T15:53:25.867Z</time></trkpt><trkpt lat="42.2961127" lon="13.2695534"><ele>1002.0</ele><time>2026-05-02T15:53:26.871Z</time></trkpt><trkpt lat="42.2961869" lon="13.269483"><ele>1002.0</ele><time>2026-05-02T15:53:27.866Z</time></trkpt><trkpt lat="42.2962826" lon="13.2694077"><ele>1002.0</ele><time>2026-05-02T15:53:28.882Z</time></trkpt><trkpt lat="42.2963984" lon="13.2693248"><ele>1002.0</ele><time>2026-05-02T15:53:29.88Z</time></trkpt><trkpt lat="42.2965294" lon="13.2692392"><ele>997.6</ele><time>2026-05-02T15:53:30.879Z</time></trkpt><trkpt lat="42.2966441" lon="13.2691776"><ele>993.2</ele><time>2026-05-02T15:53:31.865Z</time></trkpt><trkpt lat="42.2967433" lon="13.2691524"><ele>988.8</ele><time>2026-05-02T15:53:32.869Z</time></trkpt><trkpt lat="42.296824" lon="13.2691771"><ele>984.4</ele><time>2026-05-02T15:53:33.87Z</time></trkpt><trkpt lat="42.2968716" lon="13.269237"><ele>980.0</ele><time>2026-05-02T15:53:34.875Z</time></trkpt><trkpt lat="42.2969009" lon="13.2693527"><ele>980.0</ele><time>2026-05-02T15:53:35.874Z</time></trkpt><trkpt lat="42.2969102" lon="13.2695273"><ele>980.0</ele><time>2026-05-02T15:53:36.88Z</time></trkpt><trkpt lat="42.296923" lon="13.2697053"><ele>980.0</ele><time>2026-05-02T15:53:37.879Z</time></trkpt><trkpt lat="42.2969446" lon="13.269902"><ele>980.0</ele><time>2026-05-02T15:53:38.882Z</time></trkpt><trkpt lat="42.2969775" lon="13.2701239"><ele>978.3333333333334</ele><time>2026-05-02T15:53:39.869Z</time></trkpt><trkpt lat="42.2970093" lon="13.2703379"><ele>976.6666666666667</ele><time>2026-05-02T15:53:40.887Z</time></trkpt><trkpt lat="42.297044" lon="13.2705555"><ele>975.0</ele><time>2026-05-02T15:53:41.875Z</time></trkpt><trkpt lat="42.2970993" lon="13.2707612"><ele>972.25</ele><time>2026-05-02T15:53:42.861Z</time></trkpt><trkpt lat="42.2971614" lon="13.2709475"><ele>969.5</ele><time>2026-05-02T15:53:43.877Z</time></trkpt><trkpt lat="42.2972244" lon="13.2711143"><ele>966.75</ele><time>2026-05-02T15:53:44.859Z</time></trkpt><trkpt lat="42.297284" lon="13.2712627"><ele>964.0</ele><time>2026-05-02T15:53:45.879Z</time></trkpt><trkpt lat="42.2973417" lon="13.2713884"><ele>960.8000000000001</ele><time>2026-05-02T15:53:46.884Z</time></trkpt><trkpt lat="42.2974241" lon="13.2714898"><ele>957.6000000000001</ele><time>2026-05-02T15:53:47.871Z</time></trkpt><trkpt lat="42.2975034" lon="13.2715896"><ele>954.4</ele><time>2026-05-02T15:53:48.879Z</time></trkpt><trkpt lat="42.2975911" lon="13.271687"><ele>951.2</ele><time>2026-05-02T15:53:49.878Z</time></trkpt><trkpt lat="42.2976755" lon="13.2717845"><ele>948.0</ele><time>2026-05-02T15:53:50.863Z</time></trkpt><trkpt lat="42.2977534" lon="13.2718631"><ele>948.0</ele><time>2026-05-02T15:53:51.885Z</time></trkpt><trkpt lat="42.2978214" lon="13.2718957"><ele>948.0</ele><time>2026-05-02T15:53:52.875Z</time></trkpt><trkpt lat="42.2979423" lon="13.2718361"><ele>948.0</ele><time>2026-05-02T15:53:54.862Z</time></trkpt><trkpt lat="42.2980268" lon="13.2717211"><ele>948.0</ele><time>2026-05-02T15:53:55.875Z</time></trkpt><trkpt lat="42.298087" lon="13.2715689"><ele>948.0</ele><time>2026-05-02T15:53:56.865Z</time></trkpt><trkpt lat="42.2981406" lon="13.271429"><ele>944.4</ele><time>2026-05-02T15:53:57.876Z</time></trkpt><trkpt lat="42.2981886" lon="13.2713203"><ele>940.8</ele><time>2026-05-02T15:53:58.879Z</time></trkpt><trkpt lat="42.2982593" lon="13.271282"><ele>937.2</ele><time>2026-05-02T15:53:59.865Z</time></trkpt><trkpt lat="42.2983984" lon="13.271361"><ele>933.6</ele><time>2026-05-02T15:54:01.862Z</time></trkpt><trkpt lat="42.298489" lon="13.2714766"><ele>930.0</ele><time>2026-05-02T15:54:02.883Z</time></trkpt><trkpt lat="42.2985769" lon="13.2716409"><ele>930.0</ele><time>2026-05-02T15:54:03.869Z</time></trkpt><trkpt lat="42.2986572" lon="13.2718187"><ele>930.0</ele><time>2026-05-02T15:54:04.871Z</time></trkpt><trkpt lat="42.2987304" lon="13.2719763"><ele>930.0</ele><time>2026-05-02T15:54:05.873Z</time></trkpt><trkpt lat="42.2988038" lon="13.2721113"><ele>930.0</ele><time>2026-05-02T15:54:06.865Z</time></trkpt><trkpt lat="42.2988857" lon="13.2722015"><ele>925.75</ele><time>2026-05-02T15:54:07.883Z</time></trkpt><trkpt lat="42.2989793" lon="13.272261"><ele>921.5</ele><time>2026-05-02T15:54:08.873Z</time></trkpt><trkpt lat="42.2990926" lon="13.2722947"><ele>917.25</ele><time>2026-05-02T15:54:09.871Z</time></trkpt><trkpt lat="42.2992239" lon="13.2723122"><ele>913.0</ele><time>2026-05-02T15:54:10.875Z</time></trkpt><trkpt lat="42.2993676" lon="13.2723213"><ele>913.0</ele><time>2026-05-02T15:54:11.876Z</time></trkpt><trkpt lat="42.2995143" lon="13.2723538"><ele>913.0</ele><time>2026-05-02T15:54:12.878Z</time></trkpt><trkpt lat="42.2996688" lon="13.2724077"><ele>913.0</ele><time>2026-05-02T15:54:13.863Z</time></trkpt><trkpt lat="42.2998237" lon="13.2724634"><ele>909.25</ele><time>2026-05-02T15:54:14.875Z</time></trkpt><trkpt lat="42.299969" lon="13.272533"><ele>905.5</ele><time>2026-05-02T15:54:15.885Z</time></trkpt><trkpt lat="42.3001021" lon="13.2726009"><ele>901.75</ele><time>2026-05-02T15:54:16.881Z</time></trkpt><trkpt lat="42.3002116" lon="13.2726599"><ele>898.0</ele><time>2026-05-02T15:54:17.872Z</time></trkpt><trkpt lat="42.3002929" lon="13.2727234"><ele>897.9999999999999</ele><time>2026-05-02T15:54:18.881Z</time></trkpt><trkpt lat="42.3003195" lon="13.2728179"><ele>898.0</ele><time>2026-05-02T15:54:19.888Z</time></trkpt><trkpt lat="42.3003151" lon="13.2729209"><ele>898.0</ele><time>2026-05-02T15:54:20.869Z</time></trkpt><trkpt lat="42.3002829" lon="13.2730248"><ele>898.0</ele><time>2026-05-02T15:54:21.87Z</time></trkpt><trkpt lat="42.3002421" lon="13.2731233"><ele>897.9999999999999</ele><time>2026-05-02T15:54:22.868Z</time></trkpt><trkpt lat="42.300243" lon="13.2732414"><ele>898.0</ele><time>2026-05-02T15:54:23.88Z</time></trkpt><trkpt lat="42.3002861" lon="13.2733823"><ele>896.0</ele><time>2026-05-02T15:54:24.871Z</time></trkpt><trkpt lat="42.3003499" lon="13.2735413"><ele>894.0</ele><time>2026-05-02T15:54:25.88Z</time></trkpt><trkpt lat="42.3004314" lon="13.2737306"><ele>892.0</ele><time>2026-05-02T15:54:26.861Z</time></trkpt><trkpt lat="42.3005149" lon="13.2739345"><ele>889.0</ele><time>2026-05-02T15:54:27.872Z</time></trkpt><trkpt lat="42.3005928" lon="13.2741329"><ele>886.0</ele><time>2026-05-02T15:54:28.884Z</time></trkpt><trkpt lat="42.3006742" lon="13.2743275"><ele>883.0</ele><time>2026-05-02T15:54:29.876Z</time></trkpt><trkpt lat="42.3007466" lon="13.2745129"><ele>883.0</ele><time>2026-05-02T15:54:30.88Z</time></trkpt><trkpt lat="42.300822" lon="13.2746887"><ele>883.0</ele><time>2026-05-02T15:54:31.898Z</time></trkpt><trkpt lat="42.3009043" lon="13.2748382"><ele>883.0</ele><time>2026-05-02T15:54:32.874Z</time></trkpt><trkpt lat="42.3009915" lon="13.2749695"><ele>883.0</ele><time>2026-05-02T15:54:33.867Z</time></trkpt><trkpt lat="42.3010701" lon="13.2751012"><ele>880.0</ele><time>2026-05-02T15:54:34.895Z</time></trkpt><trkpt lat="42.3011479" lon="13.2752402"><ele>877.0</ele><time>2026-05-02T15:54:35.868Z</time></trkpt><trkpt lat="42.3012099" lon="13.2753723"><ele>874.0</ele><time>2026-05-02T15:54:36.888Z</time></trkpt><trkpt lat="42.3012561" lon="13.2754717"><ele>871.0</ele><time>2026-05-02T15:54:37.868Z</time></trkpt><trkpt lat="42.3012957" lon="13.2755522"><ele>868.0</ele><time>2026-05-02T15:54:38.874Z</time></trkpt><trkpt lat="42.301337" lon="13.2756254"><ele>866.1666666666666</ele><time>2026-05-02T15:54:39.871Z</time></trkpt><trkpt lat="42.3014051" lon="13.275733"><ele>864.3333333333333</ele><time>2026-05-02T15:54:41.879Z</time></trkpt><trkpt lat="42.3014584" lon="13.2758016"><ele>862.5</ele><time>2026-05-02T15:54:43.873Z</time></trkpt><trkpt lat="42.3015305" lon="13.2757686"><ele>860.6666666666667</ele><time>2026-05-02T15:54:45.884Z</time></trkpt><trkpt lat="42.301578" lon="13.2757056"><ele>858.8333333333334</ele><time>2026-05-02T15:54:46.875Z</time></trkpt><trkpt lat="42.3016225" lon="13.2756155"><ele>857.0</ele><time>2026-05-02T15:54:47.879Z</time></trkpt><trkpt lat="42.3016622" lon="13.275515"><ele>857.0000000000001</ele><time>2026-05-02T15:54:48.858Z</time></trkpt><trkpt lat="42.3016948" lon="13.2754244"><ele>857.0</ele><time>2026-05-02T15:54:49.888Z</time></trkpt><trkpt lat="42.3017274" lon="13.2753496"><ele>857.0</ele><time>2026-05-02T15:54:50.879Z</time></trkpt><trkpt lat="42.3017732" lon="13.2752361"><ele>857.0</ele><time>2026-05-02T15:54:52.874Z</time></trkpt><trkpt lat="42.3018435" lon="13.2750956"><ele>857.0000000000001</ele><time>2026-05-02T15:54:54.872Z</time></trkpt><trkpt lat="42.3018691" lon="13.274994"><ele>857.0</ele><time>2026-05-02T15:54:55.873Z</time></trkpt><trkpt lat="42.3019045" lon="13.2748499"><ele>858.8</ele><time>2026-05-02T15:54:56.875Z</time></trkpt><trkpt lat="42.3019444" lon="13.2747048"><ele>860.6</ele><time>2026-05-02T15:54:57.866Z</time></trkpt><trkpt lat="42.3019906" lon="13.2745503"><ele>862.3999999999999</ele><time>2026-05-02T15:54:58.864Z</time></trkpt><trkpt lat="42.3020468" lon="13.2744259"><ele>864.1999999999999</ele><time>2026-05-02T15:54:59.881Z</time></trkpt><trkpt lat="42.3020867" lon="13.2743289"><ele>866.0</ele><time>2026-05-02T15:55:00.869Z</time></trkpt><trkpt lat="42.3021574" lon="13.2742731"><ele>866.0</ele><time>2026-05-02T15:55:02.871Z</time></trkpt><trkpt lat="42.3020723" lon="13.2743919"><ele>866.0</ele><time>2026-05-02T15:55:13.875Z</time></trkpt><trkpt lat="42.3020188" lon="13.274523"><ele>866.0</ele><time>2026-05-02T15:55:14.864Z</time></trkpt><trkpt lat="42.3019794" lon="13.274661"><ele>866.0</ele><time>2026-05-02T15:55:15.874Z</time></trkpt><trkpt lat="42.3019476" lon="13.2748045"><ele>864.1999999999999</ele><time>2026-05-02T15:55:16.869Z</time></trkpt><trkpt lat="42.3019131" lon="13.2749067"><ele>862.3999999999999</ele><time>2026-05-02T15:55:17.864Z</time></trkpt><trkpt lat="42.301896" lon="13.2749951"><ele>860.6</ele><time>2026-05-02T15:55:18.868Z</time></trkpt><trkpt lat="42.3018691" lon="13.275131"><ele>858.8</ele><time>2026-05-02T15:55:20.872Z</time></trkpt><trkpt lat="42.3018984" lon="13.2752981"><ele>857.0</ele><time>2026-05-02T15:55:22.873Z</time></trkpt><trkpt lat="42.3019393" lon="13.2754166"><ele>857.0</ele><time>2026-05-02T15:55:23.885Z</time></trkpt><trkpt lat="42.3019767" lon="13.2755312"><ele>857.0</ele><time>2026-05-02T15:55:24.872Z</time></trkpt><trkpt lat="42.3020146" lon="13.2756606"><ele>857.0</ele><time>2026-05-02T15:55:25.871Z</time></trkpt><trkpt lat="42.3020515" lon="13.2757834"><ele>857.0</ele><time>2026-05-02T15:55:26.868Z</time></trkpt><trkpt lat="42.3020893" lon="13.2759096"><ele>857.0</ele><time>2026-05-02T15:55:27.855Z</time></trkpt><trkpt lat="42.3021244" lon="13.2760258"><ele>856.0000000000001</ele><time>2026-05-02T15:55:28.878Z</time></trkpt><trkpt lat="42.302157" lon="13.2761311"><ele>855.0</ele><time>2026-05-02T15:55:29.866Z</time></trkpt><trkpt lat="42.3021844" lon="13.2762233"><ele>854.0</ele><time>2026-05-02T15:55:30.864Z</time></trkpt><trkpt lat="42.3022056" lon="13.2763493"><ele>853.0</ele><time>2026-05-02T15:55:32.864Z</time></trkpt><trkpt lat="42.3022147" lon="13.276461"><ele>852.0000000000001</ele><time>2026-05-02T15:55:35.863Z</time></trkpt><trkpt lat="42.3022207" lon="13.2765645"><ele>851.0</ele><time>2026-05-02T15:55:37.875Z</time></trkpt><trkpt lat="42.3022071" lon="13.2767242"><ele>850.1999999999999</ele><time>2026-05-02T15:55:39.891Z</time></trkpt><trkpt lat="42.3021655" lon="13.276862"><ele>849.4</ele><time>2026-05-02T15:55:41.878Z</time></trkpt><trkpt lat="42.3021056" lon="13.2770222"><ele>848.6</ele><time>2026-05-02T15:55:43.877Z</time></trkpt><trkpt lat="42.3020745" lon="13.2771333"><ele>847.8</ele><time>2026-05-02T15:55:44.863Z</time></trkpt><trkpt lat="42.3020504" lon="13.2772525"><ele>847.0</ele><time>2026-05-02T15:55:45.865Z</time></trkpt><trkpt lat="42.3020383" lon="13.2773659"><ele>845.3333333333333</ele><time>2026-05-02T15:55:46.876Z</time></trkpt><trkpt lat="42.3020455" lon="13.2774691"><ele>843.6666666666666</ele><time>2026-05-02T15:55:47.866Z</time></trkpt><trkpt lat="42.3020564" lon="13.2775669"><ele>842.0</ele><time>2026-05-02T15:55:48.883Z</time></trkpt><trkpt lat="42.3020879" lon="13.2776768"><ele>840.3333333333333</ele><time>2026-05-02T15:55:49.869Z</time></trkpt><trkpt lat="42.3021444" lon="13.2777791"><ele>838.6666666666666</ele><time>2026-05-02T15:55:50.863Z</time></trkpt><trkpt lat="42.3021988" lon="13.2778529"><ele>837.0</ele><time>2026-05-02T15:55:51.888Z</time></trkpt><trkpt lat="42.3022693" lon="13.2779363"><ele>836.8</ele><time>2026-05-02T15:55:53.883Z</time></trkpt><trkpt lat="42.3022548" lon="13.2780659"><ele>836.6</ele><time>2026-05-02T15:55:56.88Z</time></trkpt><trkpt lat="42.3022078" lon="13.278172"><ele>836.4</ele><time>2026-05-02T15:55:57.866Z</time></trkpt><trkpt lat="42.3021339" lon="13.2782561"><ele>836.1999999999999</ele><time>2026-05-02T15:55:58.872Z</time></trkpt><trkpt lat="42.3020682" lon="13.2783126"><ele>836.0</ele><time>2026-05-02T15:55:59.872Z</time></trkpt><trkpt lat="42.3019819" lon="13.2783523"><ele>834.0</ele><time>2026-05-02T15:56:00.873Z</time></trkpt><trkpt lat="42.3018651" lon="13.2783501"><ele>832.0</ele><time>2026-05-02T15:56:01.861Z</time></trkpt><trkpt lat="42.3017477" lon="13.2783322"><ele>830.0</ele><time>2026-05-02T15:56:02.875Z</time></trkpt><trkpt lat="42.3016365" lon="13.2782962"><ele>828.0</ele><time>2026-05-02T15:56:03.876Z</time></trkpt><trkpt lat="42.3015557" lon="13.2781983"><ele>827.25</ele><time>2026-05-02T15:56:04.878Z</time></trkpt><trkpt lat="42.301504" lon="13.2780665"><ele>826.5</ele><time>2026-05-02T15:56:05.876Z</time></trkpt><trkpt lat="42.3014442" lon="13.2779324"><ele>825.75</ele><time>2026-05-02T15:56:06.86Z</time></trkpt><trkpt lat="42.3013748" lon="13.2778121"><ele>825.0</ele><time>2026-05-02T15:56:07.865Z</time></trkpt><trkpt lat="42.3012831" lon="13.2777228"><ele>825.0</ele><time>2026-05-02T15:56:08.864Z</time></trkpt><trkpt lat="42.3011844" lon="13.2776443"><ele>825.0</ele><time>2026-05-02T15:56:09.873Z</time></trkpt><trkpt lat="42.301074" lon="13.2775801"><ele>825.0</ele><time>2026-05-02T15:56:10.864Z</time></trkpt><trkpt lat="42.3009667" lon="13.2775117"><ele>825.0</ele><time>2026-05-02T15:56:11.867Z</time></trkpt><trkpt lat="42.3008587" lon="13.277467"><ele>825.0</ele><time>2026-05-02T15:56:12.883Z</time></trkpt><trkpt lat="42.3007472" lon="13.2774306"><ele>825.0</ele><time>2026-05-02T15:56:13.888Z</time></trkpt><trkpt lat="42.3006362" lon="13.2774479"><ele>825.0</ele><time>2026-05-02T15:56:14.893Z</time></trkpt><trkpt lat="42.3005169" lon="13.2774945"><ele>825.0</ele><time>2026-05-02T15:56:15.865Z</time></trkpt><trkpt lat="42.3004058" lon="13.277547"><ele>826.0</ele><time>2026-05-02T15:56:16.862Z</time></trkpt><trkpt lat="42.3002928" lon="13.2775942"><ele>827.0</ele><time>2026-05-02T15:56:17.87Z</time></trkpt><trkpt lat="42.3001789" lon="13.2776273"><ele>828.0</ele><time>2026-05-02T15:56:18.873Z</time></trkpt><trkpt lat="42.3000573" lon="13.2776411"><ele>829.0</ele><time>2026-05-02T15:56:19.873Z</time></trkpt><trkpt lat="42.2999352" lon="13.2776384"><ele>829.0</ele><time>2026-05-02T15:56:20.882Z</time></trkpt><trkpt lat="42.2998081" lon="13.2776352"><ele>829.0</ele><time>2026-05-02T15:56:21.869Z</time></trkpt><trkpt lat="42.2996846" lon="13.2776291"><ele>829.0</ele><time>2026-05-02T15:56:22.888Z</time></trkpt><trkpt lat="42.2995585" lon="13.2776192"><ele>829.0</ele><time>2026-05-02T15:56:23.872Z</time></trkpt><trkpt lat="42.2994233" lon="13.2776141"><ele>828.5</ele><time>2026-05-02T15:56:24.869Z</time></trkpt><trkpt lat="42.299283" lon="13.2776202"><ele>828.0</ele><time>2026-05-02T15:56:25.875Z</time></trkpt><trkpt lat="42.2991508" lon="13.2776435"><ele>827.5</ele><time>2026-05-02T15:56:26.873Z</time></trkpt><trkpt lat="42.2990423" lon="13.2777181"><ele>827.0</ele><time>2026-05-02T15:56:27.882Z</time></trkpt><trkpt lat="42.2989543" lon="13.2778247"><ele>828.5</ele><time>2026-05-02T15:56:28.871Z</time></trkpt><trkpt lat="42.2989053" lon="13.2779683"><ele>830.0</ele><time>2026-05-02T15:56:29.865Z</time></trkpt><trkpt lat="42.2988507" lon="13.2781172"><ele>831.5</ele><time>2026-05-02T15:56:30.883Z</time></trkpt><trkpt lat="42.2988111" lon="13.2782738"><ele>833.0</ele><time>2026-05-02T15:56:31.87Z</time></trkpt><trkpt lat="42.2987555" lon="13.2784051"><ele>833.0</ele><time>2026-05-02T15:56:32.887Z</time></trkpt><trkpt lat="42.2986693" lon="13.2785135"><ele>833.0</ele><time>2026-05-02T15:56:33.874Z</time></trkpt><trkpt lat="42.298558" lon="13.2785981"><ele>833.0</ele><time>2026-05-02T15:56:34.87Z</time></trkpt><trkpt lat="42.2984261" lon="13.2786564"><ele>833.0</ele><time>2026-05-02T15:56:35.878Z</time></trkpt><trkpt lat="42.298293" lon="13.2787142"><ele>833.0</ele><time>2026-05-02T15:56:36.875Z</time></trkpt><trkpt lat="42.2981554" lon="13.2787816"><ele>833.0</ele><time>2026-05-02T15:56:37.873Z</time></trkpt><trkpt lat="42.2980325" lon="13.2788736"><ele>833.0</ele><time>2026-05-02T15:56:38.872Z</time></trkpt><trkpt lat="42.2979302" lon="13.2790024"><ele>833.0</ele><time>2026-05-02T15:56:39.869Z</time></trkpt><trkpt lat="42.2978319" lon="13.2791709"><ele>833.5</ele><time>2026-05-02T15:56:40.871Z</time></trkpt><trkpt lat="42.297735" lon="13.2793473"><ele>834.0</ele><time>2026-05-02T15:56:41.87Z</time></trkpt><trkpt lat="42.297649" lon="13.2794979"><ele>834.5</ele><time>2026-05-02T15:56:42.868Z</time></trkpt><trkpt lat="42.2975801" lon="13.2796418"><ele>835.0</ele><time>2026-05-02T15:56:43.867Z</time></trkpt><trkpt lat="42.2975521" lon="13.2798068"><ele>835.0</ele><time>2026-05-02T15:56:44.86Z</time></trkpt><trkpt lat="42.2975665" lon="13.2799757"><ele>835.0</ele><time>2026-05-02T15:56:45.864Z</time></trkpt><trkpt lat="42.2976269" lon="13.2801338"><ele>835.0</ele><time>2026-05-02T15:56:46.876Z</time></trkpt><trkpt lat="42.2977175" lon="13.2802917"><ele>835.0</ele><time>2026-05-02T15:56:47.88Z</time></trkpt><trkpt lat="42.2978293" lon="13.2803968"><ele>835.0</ele><time>2026-05-02T15:56:48.871Z</time></trkpt><trkpt lat="42.2979715" lon="13.2804501"><ele>835.0</ele><time>2026-05-02T15:56:49.875Z</time></trkpt><trkpt lat="42.2981234" lon="13.2804575"><ele>835.0</ele><time>2026-05-02T15:56:50.866Z</time></trkpt><trkpt lat="42.2982907" lon="13.2804366"><ele>831.3333333333333</ele><time>2026-05-02T15:56:51.882Z</time></trkpt><trkpt lat="42.2984597" lon="13.2804137"><ele>827.6666666666667</ele><time>2026-05-02T15:56:52.881Z</time></trkpt><trkpt lat="42.2986196" lon="13.2804197"><ele>824.0</ele><time>2026-05-02T15:56:53.876Z</time></trkpt><trkpt lat="42.298759" lon="13.2804673"><ele>824.0</ele><time>2026-05-02T15:56:54.878Z</time></trkpt><trkpt lat="42.2988973" lon="13.2805733"><ele>824.0</ele><time>2026-05-02T15:56:55.899Z</time></trkpt><trkpt lat="42.2990476" lon="13.2807051"><ele>824.0</ele><time>2026-05-02T15:56:56.866Z</time></trkpt><trkpt lat="42.2992122" lon="13.2808447"><ele>821.0</ele><time>2026-05-02T15:56:57.853Z</time></trkpt><trkpt lat="42.2993856" lon="13.28099"><ele>818.0</ele><time>2026-05-02T15:56:58.889Z</time></trkpt><trkpt lat="42.2995699" lon="13.2811414"><ele>815.0</ele><time>2026-05-02T15:56:59.857Z</time></trkpt><trkpt lat="42.2997611" lon="13.281294"><ele>822.6666666666667</ele><time>2026-05-02T15:57:00.897Z</time></trkpt><trkpt lat="42.2999434" lon="13.2814395"><ele>830.3333333333333</ele><time>2026-05-02T15:57:01.856Z</time></trkpt><trkpt lat="42.3001195" lon="13.2815757"><ele>838.0</ele><time>2026-05-02T15:57:02.865Z</time></trkpt><trkpt lat="42.3002664" lon="13.2816991"><ele>838.0</ele><time>2026-05-02T15:57:03.858Z</time></trkpt><trkpt lat="42.3003985" lon="13.2818228"><ele>838.0</ele><time>2026-05-02T15:57:04.868Z</time></trkpt><trkpt lat="42.3004996" lon="13.2819488"><ele>838.0</ele><time>2026-05-02T15:57:05.857Z</time></trkpt><trkpt lat="42.3005552" lon="13.2820975"><ele>838.0</ele><time>2026-05-02T15:57:06.864Z</time></trkpt><trkpt lat="42.3005772" lon="13.2822684"><ele>838.75</ele><time>2026-05-02T15:57:07.856Z</time></trkpt><trkpt lat="42.3005719" lon="13.282445"><ele>839.5</ele><time>2026-05-02T15:57:08.858Z</time></trkpt><trkpt lat="42.3005548" lon="13.2826288"><ele>840.25</ele><time>2026-05-02T15:57:09.874Z</time></trkpt><trkpt lat="42.3005345" lon="13.282829"><ele>841.0</ele><time>2026-05-02T15:57:10.88Z</time></trkpt><trkpt lat="42.3005224" lon="13.2830076"><ele>839.0</ele><time>2026-05-02T15:57:11.868Z</time></trkpt><trkpt lat="42.3005171" lon="13.2831644"><ele>837.0</ele><time>2026-05-02T15:57:12.869Z</time></trkpt><trkpt lat="42.3005018" lon="13.283295"><ele>835.0</ele><time>2026-05-02T15:57:13.881Z</time></trkpt><trkpt lat="42.3004686" lon="13.2833805"><ele>833.0</ele><time>2026-05-02T15:57:14.873Z</time></trkpt><trkpt lat="42.3003311" lon="13.2834241"><ele>831.0</ele><time>2026-05-02T15:57:16.866Z</time></trkpt><trkpt lat="42.3002227" lon="13.2834246"><ele>831.0</ele><time>2026-05-02T15:57:17.88Z</time></trkpt><trkpt lat="42.3000919" lon="13.2834277"><ele>831.0</ele><time>2026-05-02T15:57:18.86Z</time></trkpt><trkpt lat="42.2999439" lon="13.2834487"><ele>831.0</ele><time>2026-05-02T15:57:19.881Z</time></trkpt><trkpt lat="42.299782" lon="13.2835119"><ele>831.0</ele><time>2026-05-02T15:57:20.873Z</time></trkpt><trkpt lat="42.2996321" lon="13.2836324"><ele>831.6666666666667</ele><time>2026-05-02T15:57:21.879Z</time></trkpt><trkpt lat="42.2994842" lon="13.2837778"><ele>832.3333333333334</ele><time>2026-05-02T15:57:22.876Z</time></trkpt><trkpt lat="42.299334" lon="13.2838961"><ele>833.0</ele><time>2026-05-02T15:57:23.88Z</time></trkpt><trkpt lat="42.2991903" lon="13.2839867"><ele>832.5</ele><time>2026-05-02T15:57:24.874Z</time></trkpt><trkpt lat="42.2990538" lon="13.2840174"><ele>832.0</ele><time>2026-05-02T15:57:25.871Z</time></trkpt><trkpt lat="42.298921" lon="13.2839976"><ele>831.5</ele><time>2026-05-02T15:57:26.891Z</time></trkpt><trkpt lat="42.2987975" lon="13.2839505"><ele>831.0</ele><time>2026-05-02T15:57:27.86Z</time></trkpt><trkpt lat="42.2986647" lon="13.2838748"><ele>831.0</ele><time>2026-05-02T15:57:28.872Z</time></trkpt><trkpt lat="42.2985472" lon="13.2837977"><ele>831.0</ele><time>2026-05-02T15:57:29.865Z</time></trkpt><trkpt lat="42.2984335" lon="13.2837349"><ele>831.0</ele><time>2026-05-02T15:57:30.871Z</time></trkpt><trkpt lat="42.2983276" lon="13.2837124"><ele>831.0</ele><time>2026-05-02T15:57:31.882Z</time></trkpt><trkpt lat="42.2982094" lon="13.2837671"><ele>831.0</ele><time>2026-05-02T15:57:32.869Z</time></trkpt><trkpt lat="42.2980888" lon="13.2838454"><ele>831.0</ele><time>2026-05-02T15:57:33.863Z</time></trkpt><trkpt lat="42.2979686" lon="13.2839333"><ele>831.0</ele><time>2026-05-02T15:57:34.861Z</time></trkpt><trkpt lat="42.2978527" lon="13.2840312"><ele>831.0</ele><time>2026-05-02T15:57:35.865Z</time></trkpt><trkpt lat="42.2977416" lon="13.2841184"><ele>829.8333333333334</ele><time>2026-05-02T15:57:36.867Z</time></trkpt><trkpt lat="42.2976587" lon="13.2841954"><ele>828.6666666666667</ele><time>2026-05-02T15:57:37.869Z</time></trkpt><trkpt lat="42.2976175" lon="13.2842678"><ele>827.5</ele><time>2026-05-02T15:57:38.866Z</time></trkpt><trkpt lat="42.2975922" lon="13.2843901"><ele>826.3333333333334</ele><time>2026-05-02T15:57:40.862Z</time></trkpt><trkpt lat="42.2975771" lon="13.284485"><ele>825.1666666666667</ele><time>2026-05-02T15:57:42.863Z</time></trkpt><trkpt lat="42.2975866" lon="13.2845884"><ele>824.0</ele><time>2026-05-02T15:57:44.864Z</time></trkpt><trkpt lat="42.2976292" lon="13.2845031"><ele>824.0000000000001</ele><time>2026-05-02T15:57:48.875Z</time></trkpt><trkpt lat="42.2976136" lon="13.2843858"><ele>824.0</ele><time>2026-05-02T15:57:50.862Z</time></trkpt><trkpt lat="42.2976448" lon="13.2842889"><ele>824.0</ele><time>2026-05-02T15:57:51.858Z</time></trkpt><trkpt lat="42.2976931" lon="13.2842127"><ele>824.0</ele><time>2026-05-02T15:57:52.863Z</time></trkpt><trkpt lat="42.2977684" lon="13.2841548"><ele>824.0000000000001</ele><time>2026-05-02T15:57:53.857Z</time></trkpt><trkpt lat="42.2978411" lon="13.2841568"><ele>824.0</ele><time>2026-05-02T15:57:54.865Z</time></trkpt><trkpt lat="42.2979086" lon="13.2841714"><ele>824.0000000000001</ele><time>2026-05-02T15:57:55.869Z</time></trkpt><trkpt lat="42.2979861" lon="13.28418"><ele>824.0</ele><time>2026-05-02T15:57:56.872Z</time></trkpt><trkpt lat="42.2980604" lon="13.2841872"><ele>824.0</ele><time>2026-05-02T15:57:57.863Z</time></trkpt><trkpt lat="42.2981301" lon="13.2841846"><ele>824.0</ele><time>2026-05-02T15:57:58.874Z</time></trkpt><trkpt lat="42.2982509" lon="13.2842039"><ele>824.0000000000001</ele><time>2026-05-02T15:58:00.878Z</time></trkpt><trkpt lat="42.2983245" lon="13.2842271"><ele>824.0</ele><time>2026-05-02T15:58:01.865Z</time></trkpt><trkpt lat="42.2984156" lon="13.2842574"><ele>822.25</ele><time>2026-05-02T15:58:02.861Z</time></trkpt><trkpt lat="42.2985187" lon="13.2842921"><ele>820.5</ele><time>2026-05-02T15:58:03.859Z</time></trkpt><trkpt lat="42.2986287" lon="13.2843396"><ele>818.75</ele><time>2026-05-02T15:58:04.885Z</time></trkpt><trkpt lat="42.2987393" lon="13.2844254"><ele>817.0</ele><time>2026-05-02T15:58:05.865Z</time></trkpt><trkpt lat="42.2988345" lon="13.2845296"><ele>818.0</ele><time>2026-05-02T15:58:06.894Z</time></trkpt><trkpt lat="42.2989342" lon="13.2846799"><ele>819.0</ele><time>2026-05-02T15:58:07.867Z</time></trkpt><trkpt lat="42.2990329" lon="13.2848367"><ele>820.0</ele><time>2026-05-02T15:58:08.87Z</time></trkpt><trkpt lat="42.299132" lon="13.2850122"><ele>817.0</ele><time>2026-05-02T15:58:09.868Z</time></trkpt><trkpt lat="42.2992268" lon="13.28519"><ele>814.0</ele><time>2026-05-02T15:58:10.874Z</time></trkpt><trkpt lat="42.2992932" lon="13.2853776"><ele>811.0</ele><time>2026-05-02T15:58:11.874Z</time></trkpt><trkpt lat="42.2993372" lon="13.2855749"><ele>809.3333333333333</ele><time>2026-05-02T15:58:12.874Z</time></trkpt><trkpt lat="42.2993763" lon="13.2857813"><ele>807.6666666666667</ele><time>2026-05-02T15:58:13.894Z</time></trkpt><trkpt lat="42.2994111" lon="13.2860024"><ele>806.0</ele><time>2026-05-02T15:58:14.871Z</time></trkpt><trkpt lat="42.2994344" lon="13.2862476"><ele>804.0</ele><time>2026-05-02T15:58:15.882Z</time></trkpt><trkpt lat="42.2994451" lon="13.2864887"><ele>802.0</ele><time>2026-05-02T15:58:16.864Z</time></trkpt><trkpt lat="42.2994506" lon="13.2867191"><ele>800.0</ele><time>2026-05-02T15:58:17.878Z</time></trkpt><trkpt lat="42.2994556" lon="13.2869422"><ele>800.0</ele><time>2026-05-02T15:58:18.876Z</time></trkpt><trkpt lat="42.2994684" lon="13.2871493"><ele>800.0</ele><time>2026-05-02T15:58:19.87Z</time></trkpt><trkpt lat="42.2994989" lon="13.2873433"><ele>800.0</ele><time>2026-05-02T15:58:20.868Z</time></trkpt><trkpt lat="42.2995642" lon="13.2875044"><ele>800.0</ele><time>2026-05-02T15:58:21.872Z</time></trkpt><trkpt lat="42.2996579" lon="13.2876201"><ele>800.5</ele><time>2026-05-02T15:58:22.87Z</time></trkpt><trkpt lat="42.2997664" lon="13.287712"><ele>801.0</ele><time>2026-05-02T15:58:23.88Z</time></trkpt><trkpt lat="42.2998872" lon="13.2877475"><ele>801.5</ele><time>2026-05-02T15:58:24.868Z</time></trkpt><trkpt lat="42.3000126" lon="13.2877301"><ele>802.0</ele><time>2026-05-02T15:58:25.871Z</time></trkpt><trkpt lat="42.3001661" lon="13.2876858"><ele>802.0</ele><time>2026-05-02T15:58:26.871Z</time></trkpt><trkpt lat="42.3003354" lon="13.2876539"><ele>802.0</ele><time>2026-05-02T15:58:27.875Z</time></trkpt><trkpt lat="42.3005108" lon="13.287655"><ele>802.0</ele><time>2026-05-02T15:58:28.877Z</time></trkpt><trkpt lat="42.3006679" lon="13.2876603"><ele>800.75</ele><time>2026-05-02T15:58:29.87Z</time></trkpt><trkpt lat="42.3008079" lon="13.2876497"><ele>799.5</ele><time>2026-05-02T15:58:30.868Z</time></trkpt><trkpt lat="42.3009375" lon="13.2876483"><ele>798.25</ele><time>2026-05-02T15:58:31.861Z</time></trkpt><trkpt lat="42.3010656" lon="13.287649"><ele>797.0</ele><time>2026-05-02T15:58:32.877Z</time></trkpt><trkpt lat="42.3011946" lon="13.2876293"><ele>797.0</ele><time>2026-05-02T15:58:33.87Z</time></trkpt><trkpt lat="42.3013252" lon="13.2875852"><ele>797.0</ele><time>2026-05-02T15:58:34.863Z</time></trkpt><trkpt lat="42.3014475" lon="13.2875053"><ele>797.0</ele><time>2026-05-02T15:58:35.859Z</time></trkpt><trkpt lat="42.3015731" lon="13.287411"><ele>797.0</ele><time>2026-05-02T15:58:36.865Z</time></trkpt><trkpt lat="42.3017033" lon="13.2873315"><ele>793.8</ele><time>2026-05-02T15:58:37.876Z</time></trkpt><trkpt lat="42.301831" lon="13.2872821"><ele>790.6</ele><time>2026-05-02T15:58:38.869Z</time></trkpt><trkpt lat="42.3019491" lon="13.2872721"><ele>787.4</ele><time>2026-05-02T15:58:39.864Z</time></trkpt><trkpt lat="42.3020424" lon="13.2872816"><ele>784.1999999999999</ele><time>2026-05-02T15:58:40.88Z</time></trkpt><trkpt lat="42.302112" lon="13.2873566"><ele>781.0</ele><time>2026-05-02T15:58:42.865Z</time></trkpt><trkpt lat="42.3021224" lon="13.2874479"><ele>781.0</ele><time>2026-05-02T15:58:44.874Z</time></trkpt><trkpt lat="42.3021141" lon="13.2875359"><ele>781.0</ele><time>2026-05-02T15:58:45.867Z</time></trkpt><trkpt lat="42.3020973" lon="13.2876739"><ele>781.0</ele><time>2026-05-02T15:58:46.869Z</time></trkpt><trkpt lat="42.3020728" lon="13.2878453"><ele>781.0</ele><time>2026-05-02T15:58:47.864Z</time></trkpt><trkpt lat="42.3020582" lon="13.2880566"><ele>779.0</ele><time>2026-05-02T15:58:48.861Z</time></trkpt><trkpt lat="42.3020478" lon="13.2882856"><ele>777.0</ele><time>2026-05-02T15:58:49.858Z</time></trkpt><trkpt lat="42.3020419" lon="13.2884763"><ele>775.0</ele><time>2026-05-02T15:58:50.865Z</time></trkpt><trkpt lat="42.3020442" lon="13.2886232"><ele>773.0</ele><time>2026-05-02T15:58:51.868Z</time></trkpt><trkpt lat="42.3020576" lon="13.2887175"><ele>773.0</ele><time>2026-05-02T15:58:52.864Z</time></trkpt><trkpt lat="42.3021315" lon="13.2888363"><ele>773.0</ele><time>2026-05-02T15:58:54.874Z</time></trkpt><trkpt lat="42.3021955" lon="13.2888932"><ele>773.0</ele><time>2026-05-02T15:58:55.856Z</time></trkpt><trkpt lat="42.3022769" lon="13.2889357"><ele>773.0</ele><time>2026-05-02T15:58:56.891Z</time></trkpt><trkpt lat="42.3023628" lon="13.2889692"><ele>773.0</ele><time>2026-05-02T15:58:57.873Z</time></trkpt><trkpt lat="42.3024571" lon="13.2889938"><ele>774.5</ele><time>2026-05-02T15:58:58.879Z</time></trkpt><trkpt lat="42.3025695" lon="13.2889932"><ele>776.0</ele><time>2026-05-02T15:58:59.86Z</time></trkpt><trkpt lat="42.3027001" lon="13.2889821"><ele>777.5</ele><time>2026-05-02T15:59:00.868Z</time></trkpt><trkpt lat="42.3028467" lon="13.2889751"><ele>779.0</ele><time>2026-05-02T15:59:01.862Z</time></trkpt><trkpt lat="42.3030051" lon="13.2889486"><ele>775.6666666666667</ele><time>2026-05-02T15:59:02.865Z</time></trkpt><trkpt lat="42.3031557" lon="13.2889082"><ele>772.3333333333333</ele><time>2026-05-02T15:59:03.863Z</time></trkpt><trkpt lat="42.3033119" lon="13.2888497"><ele>769.0</ele><time>2026-05-02T15:59:04.861Z</time></trkpt><trkpt lat="42.303455" lon="13.2887877"><ele>769.0</ele><time>2026-05-02T15:59:05.867Z</time></trkpt><trkpt lat="42.3035834" lon="13.2887443"><ele>769.0</ele><time>2026-05-02T15:59:06.875Z</time></trkpt><trkpt lat="42.3037064" lon="13.2887214"><ele>769.0</ele><time>2026-05-02T15:59:07.87Z</time></trkpt><trkpt lat="42.303822" lon="13.2887104"><ele>769.0</ele><time>2026-05-02T15:59:08.874Z</time></trkpt><trkpt lat="42.3039377" lon="13.2886958"><ele>769.0</ele><time>2026-05-02T15:59:09.869Z</time></trkpt><trkpt lat="42.3040519" lon="13.2886721"><ele>769.0</ele><time>2026-05-02T15:59:10.862Z</time></trkpt><trkpt lat="42.3041579" lon="13.2886374"><ele>769.0</ele><time>2026-05-02T15:59:11.882Z</time></trkpt><trkpt lat="42.3042612" lon="13.2885996"><ele>769.0</ele><time>2026-05-02T15:59:12.87Z</time></trkpt><trkpt lat="42.3043647" lon="13.2885609"><ele>769.0</ele><time>2026-05-02T15:59:13.884Z</time></trkpt><trkpt lat="42.3044642" lon="13.288522"><ele>769.0</ele><time>2026-05-02T15:59:14.869Z</time></trkpt><trkpt lat="42.3045742" lon="13.288488"><ele>769.0</ele><time>2026-05-02T15:59:15.876Z</time></trkpt><trkpt lat="42.3046855" lon="13.2884478"><ele>769.0</ele><time>2026-05-02T15:59:16.865Z</time></trkpt><trkpt lat="42.304799" lon="13.2884115"><ele>769.0</ele><time>2026-05-02T15:59:17.888Z</time></trkpt><trkpt lat="42.3048924" lon="13.2883666"><ele>769.0</ele><time>2026-05-02T15:59:18.863Z</time></trkpt><trkpt lat="42.304976" lon="13.2883253"><ele>768.8333333333333</ele><time>2026-05-02T15:59:19.885Z</time></trkpt><trkpt lat="42.3050575" lon="13.2882943"><ele>768.6666666666666</ele><time>2026-05-02T15:59:20.874Z</time></trkpt><trkpt lat="42.30514" lon="13.288275"><ele>768.5</ele><time>2026-05-02T15:59:21.869Z</time></trkpt><trkpt lat="42.3052191" lon="13.2882691"><ele>768.3333333333333</ele><time>2026-05-02T15:59:22.877Z</time></trkpt><trkpt lat="42.3053142" lon="13.2882706"><ele>768.1666666666666</ele><time>2026-05-02T15:59:23.871Z</time></trkpt><trkpt lat="42.3054125" lon="13.2882814"><ele>768.0</ele><time>2026-05-02T15:59:24.88Z</time></trkpt><trkpt lat="42.3055113" lon="13.2883017"><ele>767.8571428571428</ele><time>2026-05-02T15:59:25.884Z</time></trkpt><trkpt lat="42.3056083" lon="13.2883097"><ele>767.7142857142857</ele><time>2026-05-02T15:59:26.875Z</time></trkpt><trkpt lat="42.3056858" lon="13.2883083"><ele>767.5714285714286</ele><time>2026-05-02T15:59:27.882Z</time></trkpt><trkpt lat="42.3057586" lon="13.2882874"><ele>767.4285714285713</ele><time>2026-05-02T15:59:28.867Z</time></trkpt><trkpt lat="42.3058201" lon="13.288267"><ele>767.2857142857143</ele><time>2026-05-02T15:59:29.885Z</time></trkpt><trkpt lat="42.3058819" lon="13.2882442"><ele>767.1428571428571</ele><time>2026-05-02T15:59:30.874Z</time></trkpt><trkpt lat="42.305949" lon="13.2882079"><ele>767.0</ele><time>2026-05-02T15:59:31.87Z</time></trkpt><trkpt lat="42.3060136" lon="13.2881761"><ele>767.0</ele><time>2026-05-02T15:59:32.871Z</time></trkpt><trkpt lat="42.3060953" lon="13.288132"><ele>767.0</ele><time>2026-05-02T15:59:33.87Z</time></trkpt><trkpt lat="42.306189" lon="13.2880918"><ele>767.0</ele><time>2026-05-02T15:59:34.875Z</time></trkpt><trkpt lat="42.3062869" lon="13.2880537"><ele>767.0</ele><time>2026-05-02T15:59:35.876Z</time></trkpt><trkpt lat="42.3063904" lon="13.2880121"><ele>767.0</ele><time>2026-05-02T15:59:36.872Z</time></trkpt><trkpt lat="42.3064953" lon="13.2879663"><ele>766.6</ele><time>2026-05-02T15:59:37.867Z</time></trkpt><trkpt lat="42.3065876" lon="13.2879183"><ele>766.2</ele><time>2026-05-02T15:59:38.876Z</time></trkpt><trkpt lat="42.306661" lon="13.2878957"><ele>765.8</ele><time>2026-05-02T15:59:39.87Z</time></trkpt><trkpt lat="42.3067772" lon="13.2878365"><ele>765.4</ele><time>2026-05-02T15:59:41.872Z</time></trkpt><trkpt lat="42.3068949" lon="13.2877856"><ele>765.0</ele><time>2026-05-02T15:59:43.873Z</time></trkpt><trkpt lat="42.3070168" lon="13.2877081"><ele>765.0</ele><time>2026-05-02T15:59:45.871Z</time></trkpt><trkpt lat="42.3070825" lon="13.2876172"><ele>765.0</ele><time>2026-05-02T15:59:46.865Z</time></trkpt><trkpt lat="42.3071617" lon="13.2875208"><ele>765.0</ele><time>2026-05-02T15:59:47.877Z</time></trkpt><trkpt lat="42.3072518" lon="13.2874086"><ele>765.0</ele><time>2026-05-02T15:59:48.878Z</time></trkpt><trkpt lat="42.3073357" lon="13.2872957"><ele>765.0</ele><time>2026-05-02T15:59:49.869Z</time></trkpt><trkpt lat="42.3074224" lon="13.2871676"><ele>764.5</ele><time>2026-05-02T15:59:50.86Z</time></trkpt><trkpt lat="42.3075172" lon="13.2870453"><ele>764.0</ele><time>2026-05-02T15:59:51.864Z</time></trkpt><trkpt lat="42.3076115" lon="13.2869307"><ele>763.5</ele><time>2026-05-02T15:59:52.866Z</time></trkpt><trkpt lat="42.3077205" lon="13.2868141"><ele>763.0</ele><time>2026-05-02T15:59:53.863Z</time></trkpt><trkpt lat="42.3078453" lon="13.2866896"><ele>763.0</ele><time>2026-05-02T15:59:54.88Z</time></trkpt><trkpt lat="42.3079789" lon="13.2865727"><ele>763.0</ele><time>2026-05-02T15:59:55.884Z</time></trkpt><trkpt lat="42.308102" lon="13.2864849"><ele>763.0</ele><time>2026-05-02T15:59:56.876Z</time></trkpt><trkpt lat="42.3082232" lon="13.2864009"><ele>763.0</ele><time>2026-05-02T15:59:57.88Z</time></trkpt><trkpt lat="42.3083481" lon="13.2863294"><ele>761.5</ele><time>2026-05-02T15:59:58.877Z</time></trkpt><trkpt lat="42.3084733" lon="13.2862503"><ele>760.0</ele><time>2026-05-02T15:59:59.883Z</time></trkpt><trkpt lat="42.3086036" lon="13.2861693"><ele>758.5</ele><time>2026-05-02T16:00:00.883Z</time></trkpt><trkpt lat="42.3087543" lon="13.2860767"><ele>757.0</ele><time>2026-05-02T16:00:01.87Z</time></trkpt><trkpt lat="42.3089256" lon="13.2859805"><ele>757.0</ele><time>2026-05-02T16:00:02.887Z</time></trkpt><trkpt lat="42.3090916" lon="13.2858997"><ele>757.0</ele><time>2026-05-02T16:00:03.882Z</time></trkpt><trkpt lat="42.3092505" lon="13.2858785"><ele>757.0</ele><time>2026-05-02T16:00:04.869Z</time></trkpt><trkpt lat="42.3093915" lon="13.2858852"><ele>757.0</ele><time>2026-05-02T16:00:05.871Z</time></trkpt><trkpt lat="42.309508" lon="13.2858719"><ele>757.0</ele><time>2026-05-02T16:00:06.869Z</time></trkpt><trkpt lat="42.3095992" lon="13.2858537"><ele>757.0</ele><time>2026-05-02T16:00:07.879Z</time></trkpt><trkpt lat="42.3096642" lon="13.2858525"><ele>757.0</ele><time>2026-05-02T16:00:08.88Z</time></trkpt><trkpt lat="42.3096773" lon="13.2859389"><ele>757.0</ele><time>2026-05-02T16:00:11.866Z</time></trkpt><trkpt lat="42.3095695" lon="13.285967"><ele>757.0</ele><time>2026-05-02T16:00:13.87Z</time></trkpt><trkpt lat="42.3094627" lon="13.2859568"><ele>757.0</ele><time>2026-05-02T16:00:14.884Z</time></trkpt><trkpt lat="42.3093473" lon="13.2859643"><ele>757.0</ele><time>2026-05-02T16:00:15.878Z</time></trkpt><trkpt lat="42.3092192" lon="13.2859969"><ele>757.0</ele><time>2026-05-02T16:00:16.871Z</time></trkpt><trkpt lat="42.3090892" lon="13.2860527"><ele>757.0</ele><time>2026-05-02T16:00:17.883Z</time></trkpt><trkpt lat="42.3089542" lon="13.286124"><ele>757.0</ele><time>2026-05-02T16:00:18.867Z</time></trkpt><trkpt lat="42.3088278" lon="13.2861877"><ele>757.0</ele><time>2026-05-02T16:00:19.869Z</time></trkpt><trkpt lat="42.3087088" lon="13.2862612"><ele>757.0</ele><time>2026-05-02T16:00:20.874Z</time></trkpt><trkpt lat="42.3086049" lon="13.2863287"><ele>757.0</ele><time>2026-05-02T16:00:21.881Z</time></trkpt><trkpt lat="42.3085271" lon="13.2863881"><ele>759.0</ele><time>2026-05-02T16:00:22.883Z</time></trkpt><trkpt lat="42.3084707" lon="13.2864477"><ele>761.0</ele><time>2026-05-02T16:00:23.888Z</time></trkpt><trkpt lat="42.3084661" lon="13.2865357"><ele>763.0</ele><time>2026-05-02T16:00:24.878Z</time></trkpt><trkpt lat="42.3085714" lon="13.2866281"><ele>765.0</ele><time>2026-05-02T16:00:26.866Z</time></trkpt><trkpt lat="42.3086579" lon="13.2866177"><ele>767.0</ele><time>2026-05-02T16:00:27.878Z</time></trkpt><trkpt lat="42.3087864" lon="13.2865932"><ele>769.0</ele><time>2026-05-02T16:00:28.874Z</time></trkpt><trkpt lat="42.3089321" lon="13.2865763"><ele>771.0</ele><time>2026-05-02T16:00:29.87Z</time></trkpt><trkpt lat="42.3090776" lon="13.2865684"><ele>773.0</ele><time>2026-05-02T16:00:30.868Z</time></trkpt><trkpt lat="42.3092368" lon="13.2865527"><ele>773.0</ele><time>2026-05-02T16:00:31.869Z</time></trkpt><trkpt lat="42.3094079" lon="13.2865296"><ele>773.0</ele><time>2026-05-02T16:00:32.88Z</time></trkpt><trkpt lat="42.3095874" lon="13.2865074"><ele>773.0</ele><time>2026-05-02T16:00:33.865Z</time></trkpt><trkpt lat="42.3097751" lon="13.2864866"><ele>769.6666666666667</ele><time>2026-05-02T16:00:34.859Z</time></trkpt><trkpt lat="42.3099688" lon="13.2864571"><ele>766.3333333333334</ele><time>2026-05-02T16:00:35.881Z</time></trkpt><trkpt lat="42.3101649" lon="13.2864235"><ele>763.0</ele><time>2026-05-02T16:00:36.867Z</time></trkpt><trkpt lat="42.3103614" lon="13.2863919"><ele>763.0</ele><time>2026-05-02T16:00:37.888Z</time></trkpt><trkpt lat="42.310559" lon="13.2863665"><ele>763.0</ele><time>2026-05-02T16:00:38.863Z</time></trkpt><trkpt lat="42.3107548" lon="13.2863586"><ele>763.0</ele><time>2026-05-02T16:00:39.865Z</time></trkpt><trkpt lat="42.3109311" lon="13.2863633"><ele>765.5</ele><time>2026-05-02T16:00:40.878Z</time></trkpt><trkpt lat="42.3110878" lon="13.2863574"><ele>768.0</ele><time>2026-05-02T16:00:41.866Z</time></trkpt><trkpt lat="42.3112212" lon="13.2863096"><ele>770.5</ele><time>2026-05-02T16:00:42.867Z</time></trkpt><trkpt lat="42.311341" lon="13.2862361"><ele>773.0</ele><time>2026-05-02T16:00:43.878Z</time></trkpt><trkpt lat="42.3114464" lon="13.2861338"><ele>775.4</ele><time>2026-05-02T16:00:44.878Z</time></trkpt><trkpt lat="42.3115398" lon="13.2860525"><ele>777.8</ele><time>2026-05-02T16:00:45.868Z</time></trkpt><trkpt lat="42.3116182" lon="13.286029"><ele>780.2</ele><time>2026-05-02T16:00:46.877Z</time></trkpt><trkpt lat="42.3116828" lon="13.2861188"><ele>782.6</ele><time>2026-05-02T16:00:48.878Z</time></trkpt><trkpt lat="42.311623" lon="13.2863118"><ele>785.0</ele><time>2026-05-02T16:00:50.887Z</time></trkpt><trkpt lat="42.3115534" lon="13.2864481"><ele>787.0</ele><time>2026-05-02T16:00:51.877Z</time></trkpt><trkpt lat="42.3114688" lon="13.2866244"><ele>789.0</ele><time>2026-05-02T16:00:52.86Z</time></trkpt><trkpt lat="42.3113819" lon="13.2868078"><ele>791.0</ele><time>2026-05-02T16:00:53.863Z</time></trkpt><trkpt lat="42.3112942" lon="13.287007"><ele>791.0</ele><time>2026-05-02T16:00:54.867Z</time></trkpt><trkpt lat="42.3111916" lon="13.2872045"><ele>791.0</ele><time>2026-05-02T16:00:55.87Z</time></trkpt><trkpt lat="42.3110833" lon="13.2873752"><ele>791.0</ele><time>2026-05-02T16:00:56.882Z</time></trkpt><trkpt lat="42.3109671" lon="13.2875284"><ele>792.6666666666667</ele><time>2026-05-02T16:00:57.878Z</time></trkpt><trkpt lat="42.3108402" lon="13.2876679"><ele>794.3333333333333</ele><time>2026-05-02T16:00:58.888Z</time></trkpt><trkpt lat="42.3107024" lon="13.2877993"><ele>796.0</ele><time>2026-05-02T16:00:59.874Z</time></trkpt><trkpt lat="42.3105652" lon="13.2879312"><ele>796.0</ele><time>2026-05-02T16:01:00.871Z</time></trkpt><trkpt lat="42.3104181" lon="13.2880732"><ele>796.0</ele><time>2026-05-02T16:01:01.877Z</time></trkpt><trkpt lat="42.3102661" lon="13.2882334"><ele>796.0</ele><time>2026-05-02T16:01:02.873Z</time></trkpt><trkpt lat="42.3101156" lon="13.288396"><ele>796.6666666666666</ele><time>2026-05-02T16:01:03.868Z</time></trkpt><trkpt lat="42.3099679" lon="13.288555"><ele>797.3333333333333</ele><time>2026-05-02T16:01:04.869Z</time></trkpt><trkpt lat="42.3098294" lon="13.2887042"><ele>798.0</ele><time>2026-05-02T16:01:05.88Z</time></trkpt><trkpt lat="42.3096987" lon="13.2888468"><ele>798.0</ele><time>2026-05-02T16:01:06.883Z</time></trkpt><trkpt lat="42.3095761" lon="13.2889855"><ele>798.0</ele><time>2026-05-02T16:01:07.874Z</time></trkpt><trkpt lat="42.3094678" lon="13.2891148"><ele>798.0</ele><time>2026-05-02T16:01:08.877Z</time></trkpt><trkpt lat="42.3093593" lon="13.2892358"><ele>798.0</ele><time>2026-05-02T16:01:09.888Z</time></trkpt><trkpt lat="42.3092596" lon="13.2893544"><ele>798.0</ele><time>2026-05-02T16:01:10.878Z</time></trkpt><trkpt lat="42.3091653" lon="13.2894616"><ele>798.0</ele><time>2026-05-02T16:01:11.871Z</time></trkpt><trkpt lat="42.3090718" lon="13.2895622"><ele>798.0</ele><time>2026-05-02T16:01:12.879Z</time></trkpt><trkpt lat="42.3089879" lon="13.289645"><ele>798.0</ele><time>2026-05-02T16:01:13.867Z</time></trkpt><trkpt lat="42.3089072" lon="13.2897262"><ele>798.0</ele><time>2026-05-02T16:01:14.884Z</time></trkpt><trkpt lat="42.3088451" lon="13.2897972"><ele>798.6666666666666</ele><time>2026-05-02T16:01:15.886Z</time></trkpt><trkpt lat="42.3087686" lon="13.2899098"><ele>799.3333333333333</ele><time>2026-05-02T16:01:17.881Z</time></trkpt><trkpt lat="42.3087797" lon="13.2899944"><ele>800.0</ele><time>2026-05-02T16:01:19.87Z</time></trkpt><trkpt lat="42.3088304" lon="13.2901108"><ele>800.6666666666666</ele><time>2026-05-02T16:01:21.873Z</time></trkpt><trkpt lat="42.3088799" lon="13.290183"><ele>801.3333333333333</ele><time>2026-05-02T16:01:22.882Z</time></trkpt><trkpt lat="42.3089414" lon="13.2902853"><ele>802.0</ele><time>2026-05-02T16:01:23.861Z</time></trkpt><trkpt lat="42.3090017" lon="13.2903885"><ele>801.9999999999999</ele><time>2026-05-02T16:01:24.871Z</time></trkpt><trkpt lat="42.3090548" lon="13.2904802"><ele>802.0</ele><time>2026-05-02T16:01:25.885Z</time></trkpt><trkpt lat="42.3091078" lon="13.2905623"><ele>802.0</ele><time>2026-05-02T16:01:26.872Z</time></trkpt><trkpt lat="42.3091456" lon="13.2906326"><ele>802.0</ele><time>2026-05-02T16:01:27.881Z</time></trkpt><trkpt lat="42.3091794" lon="13.2907908"><ele>801.9999999999999</ele><time>2026-05-02T16:01:29.871Z</time></trkpt><trkpt lat="42.3091795" lon="13.2908967"><ele>802.0</ele><time>2026-05-02T16:01:30.878Z</time></trkpt><trkpt lat="42.3091883" lon="13.2910188"><ele>802.0</ele><time>2026-05-02T16:01:31.872Z</time></trkpt><trkpt lat="42.3092101" lon="13.2911508"><ele>802.0</ele><time>2026-05-02T16:01:32.874Z</time></trkpt><trkpt lat="42.3092489" lon="13.2912789"><ele>802.0</ele><time>2026-05-02T16:01:33.871Z</time></trkpt><trkpt lat="42.3092864" lon="13.291421"><ele>802.0</ele><time>2026-05-02T16:01:34.88Z</time></trkpt><trkpt lat="42.3093183" lon="13.2915819"><ele>802.0</ele><time>2026-05-02T16:01:35.878Z</time></trkpt><trkpt lat="42.3093446" lon="13.291731"><ele>801.6666666666666</ele><time>2026-05-02T16:01:36.882Z</time></trkpt><trkpt lat="42.3093628" lon="13.2918521"><ele>801.3333333333333</ele><time>2026-05-02T16:01:37.87Z</time></trkpt><trkpt lat="42.3093758" lon="13.2919592"><ele>801.0</ele><time>2026-05-02T16:01:38.889Z</time></trkpt><trkpt lat="42.3093828" lon="13.2920695"><ele>800.6666666666667</ele><time>2026-05-02T16:01:39.877Z</time></trkpt><trkpt lat="42.3093933" lon="13.2921899"><ele>800.3333333333334</ele><time>2026-05-02T16:01:40.878Z</time></trkpt><trkpt lat="42.3093997" lon="13.2922946"><ele>800.0</ele><time>2026-05-02T16:01:41.874Z</time></trkpt><trkpt lat="42.3094113" lon="13.2923916"><ele>799.6</ele><time>2026-05-02T16:01:42.879Z</time></trkpt><trkpt lat="42.3094281" lon="13.2924861"><ele>799.2</ele><time>2026-05-02T16:01:43.878Z</time></trkpt><trkpt lat="42.3094545" lon="13.2925923"><ele>798.8</ele><time>2026-05-02T16:01:44.898Z</time></trkpt><trkpt lat="42.3094786" lon="13.2927322"><ele>798.4</ele><time>2026-05-02T16:01:45.864Z</time></trkpt><trkpt lat="42.3094964" lon="13.2928921"><ele>798.0</ele><time>2026-05-02T16:01:46.884Z</time></trkpt><trkpt lat="42.3095212" lon="13.2930519"><ele>797.1666666666666</ele><time>2026-05-02T16:01:47.871Z</time></trkpt><trkpt lat="42.3095409" lon="13.2931968"><ele>796.3333333333333</ele><time>2026-05-02T16:01:48.883Z</time></trkpt><trkpt lat="42.3095535" lon="13.293313"><ele>795.5</ele><time>2026-05-02T16:01:49.885Z</time></trkpt><trkpt lat="42.3095559" lon="13.2934051"><ele>794.6666666666666</ele><time>2026-05-02T16:01:50.881Z</time></trkpt><trkpt lat="42.3095551" lon="13.2934928"><ele>793.8333333333333</ele><time>2026-05-02T16:01:51.873Z</time></trkpt><trkpt lat="42.3095959" lon="13.2936194"><ele>793.0</ele><time>2026-05-02T16:01:53.882Z</time></trkpt><trkpt lat="42.3096996" lon="13.2936465"><ele>791.1666666666666</ele><time>2026-05-02T16:01:55.87Z</time></trkpt><trkpt lat="42.3098121" lon="13.2935557"><ele>789.3333333333333</ele><time>2026-05-02T16:01:57.876Z</time></trkpt><trkpt lat="42.3098861" lon="13.2935279"><ele>787.5</ele><time>2026-05-02T16:01:58.877Z</time></trkpt><trkpt lat="42.3099514" lon="13.2935532"><ele>785.6666666666667</ele><time>2026-05-02T16:01:59.868Z</time></trkpt><trkpt lat="42.3100211" lon="13.2935754"><ele>783.8333333333334</ele><time>2026-05-02T16:02:00.886Z</time></trkpt><trkpt lat="42.3100717" lon="13.2936424"><ele>782.0</ele><time>2026-05-02T16:02:01.877Z</time></trkpt><trkpt lat="42.3101043" lon="13.2937333"><ele>782.0</ele><time>2026-05-02T16:02:02.879Z</time></trkpt><trkpt lat="42.3101189" lon="13.2938293"><ele>782.0</ele><time>2026-05-02T16:02:03.868Z</time></trkpt><trkpt lat="42.3100879" lon="13.2939323"><ele>782.0</ele><time>2026-05-02T16:02:04.878Z</time></trkpt><trkpt lat="42.3100427" lon="13.2940133"><ele>782.0</ele><time>2026-05-02T16:02:05.884Z</time></trkpt><trkpt lat="42.3099512" lon="13.2940804"><ele>782.0</ele><time>2026-05-02T16:02:06.877Z</time></trkpt><trkpt lat="42.3098224" lon="13.294118"><ele>782.2</ele><time>2026-05-02T16:02:07.874Z</time></trkpt><trkpt lat="42.3096894" lon="13.2941397"><ele>782.4000000000001</ele><time>2026-05-02T16:02:08.858Z</time></trkpt><trkpt lat="42.30958" lon="13.2941592"><ele>782.5999999999999</ele><time>2026-05-02T16:02:09.878Z</time></trkpt><trkpt lat="42.3095158" lon="13.2941932"><ele>782.8</ele><time>2026-05-02T16:02:10.857Z</time></trkpt><trkpt lat="42.3094377" lon="13.2943158"><ele>783.0</ele><time>2026-05-02T16:02:12.874Z</time></trkpt><trkpt lat="42.309419" lon="13.2944176"><ele>783.0</ele><time>2026-05-02T16:02:13.866Z</time></trkpt><trkpt lat="42.3094389" lon="13.294558"><ele>783.0</ele><time>2026-05-02T16:02:14.863Z</time></trkpt><trkpt lat="42.309453" lon="13.2946763"><ele>783.0</ele><time>2026-05-02T16:02:15.867Z</time></trkpt><trkpt lat="42.3094618" lon="13.2947728"><ele>783.0</ele><time>2026-05-02T16:02:16.852Z</time></trkpt><trkpt lat="42.3094634" lon="13.2948615"><ele>783.0</ele><time>2026-05-02T16:02:17.875Z</time></trkpt><trkpt lat="42.3094441" lon="13.2949488"><ele>783.0</ele><time>2026-05-02T16:02:18.878Z</time></trkpt><trkpt lat="42.3094087" lon="13.2950639"><ele>781.75</ele><time>2026-05-02T16:02:19.872Z</time></trkpt><trkpt lat="42.3093612" lon="13.2952036"><ele>780.5</ele><time>2026-05-02T16:02:20.886Z</time></trkpt><trkpt lat="42.3093143" lon="13.2953473"><ele>779.25</ele><time>2026-05-02T16:02:21.881Z</time></trkpt><trkpt lat="42.309261" lon="13.2954917"><ele>778.0</ele><time>2026-05-02T16:02:22.86Z</time></trkpt><trkpt lat="42.3092098" lon="13.2956321"><ele>776.25</ele><time>2026-05-02T16:02:23.877Z</time></trkpt><trkpt lat="42.3091509" lon="13.2957619"><ele>774.5</ele><time>2026-05-02T16:02:24.88Z</time></trkpt><trkpt lat="42.3090878" lon="13.2958878"><ele>772.75</ele><time>2026-05-02T16:02:25.887Z</time></trkpt><trkpt lat="42.309016" lon="13.2960179"><ele>771.0</ele><time>2026-05-02T16:02:26.881Z</time></trkpt><trkpt lat="42.3089493" lon="13.2961428"><ele>771.5999999999999</ele><time>2026-05-02T16:02:27.883Z</time></trkpt><trkpt lat="42.3088818" lon="13.2962581"><ele>772.2</ele><time>2026-05-02T16:02:28.877Z</time></trkpt><trkpt lat="42.3088191" lon="13.2963814"><ele>772.8</ele><time>2026-05-02T16:02:29.889Z</time></trkpt><trkpt lat="42.3087589" lon="13.2965147"><ele>773.4000000000001</ele><time>2026-05-02T16:02:30.877Z</time></trkpt><trkpt lat="42.3087151" lon="13.2966501"><ele>774.0</ele><time>2026-05-02T16:02:31.881Z</time></trkpt><trkpt lat="42.3086739" lon="13.2967842"><ele>774.0</ele><time>2026-05-02T16:02:32.891Z</time></trkpt><trkpt lat="42.3086281" lon="13.2969078"><ele>774.0</ele><time>2026-05-02T16:02:33.891Z</time></trkpt><trkpt lat="42.308583" lon="13.2970416"><ele>774.0</ele><time>2026-05-02T16:02:34.878Z</time></trkpt><trkpt lat="42.3085321" lon="13.2971575"><ele>774.0</ele><time>2026-05-02T16:02:35.873Z</time></trkpt><trkpt lat="42.3084743" lon="13.2972721"><ele>774.0</ele><time>2026-05-02T16:02:36.896Z</time></trkpt><trkpt lat="42.308411" lon="13.2973734"><ele>773.4000000000001</ele><time>2026-05-02T16:02:37.882Z</time></trkpt><trkpt lat="42.3083587" lon="13.2974709"><ele>772.8</ele><time>2026-05-02T16:02:38.904Z</time></trkpt><trkpt lat="42.3083226" lon="13.2975859"><ele>772.2</ele><time>2026-05-02T16:02:39.869Z</time></trkpt><trkpt lat="42.3083239" lon="13.2977065"><ele>771.5999999999999</ele><time>2026-05-02T16:02:40.879Z</time></trkpt><trkpt lat="42.3083377" lon="13.2978371"><ele>771.0</ele><time>2026-05-02T16:02:41.886Z</time></trkpt><trkpt lat="42.3083487" lon="13.2979564"><ele>771.0</ele><time>2026-05-02T16:02:42.884Z</time></trkpt><trkpt lat="42.3083606" lon="13.2980458"><ele>771.0</ele><time>2026-05-02T16:02:43.877Z</time></trkpt><trkpt lat="42.3083718" lon="13.298181"><ele>771.0</ele><time>2026-05-02T16:02:45.87Z</time></trkpt><trkpt lat="42.3083474" lon="13.2983336"><ele>771.0</ele><time>2026-05-02T16:02:47.869Z</time></trkpt><trkpt lat="42.3083003" lon="13.2983973"><ele>771.0</ele><time>2026-05-02T16:02:48.874Z</time></trkpt><trkpt lat="42.3082234" lon="13.2984602"><ele>771.0</ele><time>2026-05-02T16:02:49.875Z</time></trkpt><trkpt lat="42.3081344" lon="13.2985276"><ele>771.6666666666666</ele><time>2026-05-02T16:02:50.871Z</time></trkpt><trkpt lat="42.3080595" lon="13.2985721"><ele>772.3333333333333</ele><time>2026-05-02T16:02:51.89Z</time></trkpt><trkpt lat="42.3079959" lon="13.2985884"><ele>773.0</ele><time>2026-05-02T16:02:52.876Z</time></trkpt><trkpt lat="42.3079176" lon="13.2986099"><ele>773.6666666666666</ele><time>2026-05-02T16:02:53.88Z</time></trkpt><trkpt lat="42.3078258" lon="13.2986269"><ele>774.3333333333333</ele><time>2026-05-02T16:02:54.877Z</time></trkpt><trkpt lat="42.3077297" lon="13.2986475"><ele>775.0</ele><time>2026-05-02T16:02:55.881Z</time></trkpt><trkpt lat="42.307631" lon="13.2986754"><ele>775.0</ele><time>2026-05-02T16:02:56.883Z</time></trkpt><trkpt lat="42.307568" lon="13.2987396"><ele>775.0</ele><time>2026-05-02T16:02:57.869Z</time></trkpt><trkpt lat="42.3075219" lon="13.2988463"><ele>775.0</ele><time>2026-05-02T16:02:58.879Z</time></trkpt><trkpt lat="42.3075" lon="13.2989819"><ele>775.0</ele><time>2026-05-02T16:02:59.889Z</time></trkpt><trkpt lat="42.3074654" lon="13.2991228"><ele>775.0</ele><time>2026-05-02T16:03:00.875Z</time></trkpt><trkpt lat="42.3074152" lon="13.2992187"><ele>775.1666666666666</ele><time>2026-05-02T16:03:01.876Z</time></trkpt><trkpt lat="42.3073421" lon="13.2992623"><ele>775.3333333333333</ele><time>2026-05-02T16:03:02.884Z</time></trkpt><trkpt lat="42.3072664" lon="13.2992717"><ele>775.5</ele><time>2026-05-02T16:03:03.869Z</time></trkpt><trkpt lat="42.307186" lon="13.2992682"><ele>775.6666666666667</ele><time>2026-05-02T16:03:04.875Z</time></trkpt><trkpt lat="42.3071004" lon="13.2992803"><ele>775.8333333333334</ele><time>2026-05-02T16:03:05.872Z</time></trkpt><trkpt lat="42.3070057" lon="13.2992685"><ele>776.0</ele><time>2026-05-02T16:03:06.881Z</time></trkpt><trkpt lat="42.3069012" lon="13.2993137"><ele>776.0000000000001</ele><time>2026-05-02T16:03:08.882Z</time></trkpt><trkpt lat="42.3068138" lon="13.2994155"><ele>776.0</ele><time>2026-05-02T16:03:10.868Z</time></trkpt><trkpt lat="42.3067107" lon="13.2994451"><ele>776.0</ele><time>2026-05-02T16:03:12.886Z</time></trkpt><trkpt lat="42.3066234" lon="13.2994555"><ele>776.0</ele><time>2026-05-02T16:03:14.875Z</time></trkpt><trkpt lat="42.3065875" lon="13.299534"><ele>776.0000000000001</ele><time>2026-05-02T16:03:16.887Z</time></trkpt><trkpt lat="42.3065592" lon="13.2996187"><ele>776.0</ele><time>2026-05-02T16:03:17.872Z</time></trkpt><trkpt lat="42.306506" lon="13.2997238"><ele>776.1666666666667</ele><time>2026-05-02T16:03:18.866Z</time></trkpt><trkpt lat="42.3064417" lon="13.2997957"><ele>776.3333333333334</ele><time>2026-05-02T16:03:19.871Z</time></trkpt><trkpt lat="42.3063791" lon="13.2998302"><ele>776.5</ele><time>2026-05-02T16:03:20.875Z</time></trkpt><trkpt lat="42.3063026" lon="13.2998715"><ele>776.6666666666667</ele><time>2026-05-02T16:03:21.878Z</time></trkpt><trkpt lat="42.3062362" lon="13.2999308"><ele>776.8333333333334</ele><time>2026-05-02T16:03:22.893Z</time></trkpt><trkpt lat="42.3061713" lon="13.2999911"><ele>777.0</ele><time>2026-05-02T16:03:23.878Z</time></trkpt><trkpt lat="42.3061115" lon="13.3000191"><ele>777.0</ele><time>2026-05-02T16:03:24.877Z</time></trkpt><trkpt lat="42.3060057" lon="13.3000074"><ele>777.0</ele><time>2026-05-02T16:03:26.868Z</time></trkpt><trkpt lat="42.3059053" lon="13.2999884"><ele>777.0</ele><time>2026-05-02T16:03:28.878Z</time></trkpt><trkpt lat="42.3058312" lon="13.3000402"><ele>777.0</ele><time>2026-05-02T16:03:29.865Z</time></trkpt><trkpt lat="42.3057564" lon="13.3000977"><ele>777.0</ele><time>2026-05-02T16:03:30.872Z</time></trkpt><trkpt lat="42.3056617" lon="13.3001719"><ele>778.1666666666666</ele><time>2026-05-02T16:03:31.869Z</time></trkpt><trkpt lat="42.3055654" lon="13.3002497"><ele>779.3333333333333</ele><time>2026-05-02T16:03:32.871Z</time></trkpt><trkpt lat="42.3054871" lon="13.3003319"><ele>780.5</ele><time>2026-05-02T16:03:33.866Z</time></trkpt><trkpt lat="42.3054123" lon="13.3003968"><ele>781.6666666666666</ele><time>2026-05-02T16:03:34.863Z</time></trkpt><trkpt lat="42.3053504" lon="13.3004234"><ele>782.8333333333333</ele><time>2026-05-02T16:03:35.877Z</time></trkpt><trkpt lat="42.3052828" lon="13.300448"><ele>784.0</ele><time>2026-05-02T16:03:36.876Z</time></trkpt><trkpt lat="42.3052179" lon="13.3004809"><ele>784.0</ele><time>2026-05-02T16:03:37.868Z</time></trkpt><trkpt lat="42.3051507" lon="13.3005354"><ele>784.0</ele><time>2026-05-02T16:03:38.875Z</time></trkpt><trkpt lat="42.3050794" lon="13.3005913"><ele>784.0</ele><time>2026-05-02T16:03:39.874Z</time></trkpt><trkpt lat="42.3049822" lon="13.300677"><ele>784.0</ele><time>2026-05-02T16:03:40.884Z</time></trkpt><trkpt lat="42.3048952" lon="13.3007569"><ele>784.0</ele><time>2026-05-02T16:03:41.872Z</time></trkpt><trkpt lat="42.3048011" lon="13.300836"><ele>783.3333333333333</ele><time>2026-05-02T16:03:42.875Z</time></trkpt><trkpt lat="42.3047136" lon="13.3008883"><ele>782.6666666666666</ele><time>2026-05-02T16:03:43.874Z</time></trkpt><trkpt lat="42.3046324" lon="13.3009271"><ele>782.0</ele><time>2026-05-02T16:03:44.867Z</time></trkpt><trkpt lat="42.3045606" lon="13.3009432"><ele>781.3333333333333</ele><time>2026-05-02T16:03:45.866Z</time></trkpt><trkpt lat="42.3044858" lon="13.300941"><ele>780.6666666666666</ele><time>2026-05-02T16:03:46.864Z</time></trkpt><trkpt lat="42.304411" lon="13.3009281"><ele>780.0</ele><time>2026-05-02T16:03:47.879Z</time></trkpt><trkpt lat="42.3043292" lon="13.3009197"><ele>780.0</ele><time>2026-05-02T16:03:48.861Z</time></trkpt><trkpt lat="42.304266" lon="13.3009325"><ele>780.0</ele><time>2026-05-02T16:03:49.875Z</time></trkpt><trkpt lat="42.3041958" lon="13.3009808"><ele>780.0</ele><time>2026-05-02T16:03:50.881Z</time></trkpt><trkpt lat="42.304124" lon="13.3010639"><ele>780.0</ele><time>2026-05-02T16:03:51.872Z</time></trkpt><trkpt lat="42.3040417" lon="13.3011798"><ele>780.0</ele><time>2026-05-02T16:03:52.873Z</time></trkpt><trkpt lat="42.3039502" lon="13.3013069"><ele>780.8333333333334</ele><time>2026-05-02T16:03:53.873Z</time></trkpt><trkpt lat="42.3038715" lon="13.3013855"><ele>781.6666666666667</ele><time>2026-05-02T16:03:54.879Z</time></trkpt><trkpt lat="42.3038035" lon="13.3014265"><ele>782.5</ele><time>2026-05-02T16:03:55.87Z</time></trkpt><trkpt lat="42.3036941" lon="13.3014241"><ele>783.3333333333334</ele><time>2026-05-02T16:03:57.882Z</time></trkpt><trkpt lat="42.3036324" lon="13.3013914"><ele>784.1666666666667</ele><time>2026-05-02T16:03:58.862Z</time></trkpt><trkpt lat="42.3035607" lon="13.3013797"><ele>785.0</ele><time>2026-05-02T16:03:59.881Z</time></trkpt><trkpt lat="42.3034891" lon="13.301424"><ele>785.0</ele><time>2026-05-02T16:04:00.868Z</time></trkpt><trkpt lat="42.3034125" lon="13.3014851"><ele>785.0</ele><time>2026-05-02T16:04:01.864Z</time></trkpt><trkpt lat="42.303326" lon="13.3015465"><ele>785.0</ele><time>2026-05-02T16:04:02.865Z</time></trkpt><trkpt lat="42.3032561" lon="13.3015581"><ele>785.0</ele><time>2026-05-02T16:04:03.87Z</time></trkpt><trkpt lat="42.3031405" lon="13.3015387"><ele>785.0</ele><time>2026-05-02T16:04:05.866Z</time></trkpt><trkpt lat="42.3030618" lon="13.3015215"><ele>785.3333333333334</ele><time>2026-05-02T16:04:06.866Z</time></trkpt><trkpt lat="42.3029673" lon="13.3015432"><ele>785.6666666666667</ele><time>2026-05-02T16:04:07.868Z</time></trkpt><trkpt lat="42.3028669" lon="13.301587"><ele>786.0</ele><time>2026-05-02T16:04:08.884Z</time></trkpt><trkpt lat="42.3027782" lon="13.3016307"><ele>786.3333333333333</ele><time>2026-05-02T16:04:09.868Z</time></trkpt><trkpt lat="42.3027083" lon="13.3016536"><ele>786.6666666666666</ele><time>2026-05-02T16:04:10.863Z</time></trkpt><trkpt lat="42.3026389" lon="13.3016753"><ele>787.0</ele><time>2026-05-02T16:04:11.876Z</time></trkpt><trkpt lat="42.3025675" lon="13.3016795"><ele>787.0</ele><time>2026-05-02T16:04:12.868Z</time></trkpt><trkpt lat="42.3024995" lon="13.3016626"><ele>787.0</ele><time>2026-05-02T16:04:13.866Z</time></trkpt><trkpt lat="42.3024182" lon="13.3016635"><ele>787.0</ele><time>2026-05-02T16:04:14.862Z</time></trkpt><trkpt lat="42.3023506" lon="13.3016795"><ele>787.0</ele><time>2026-05-02T16:04:15.866Z</time></trkpt><trkpt lat="42.3022467" lon="13.3017582"><ele>787.0</ele><time>2026-05-02T16:04:17.876Z</time></trkpt><trkpt lat="42.3021359" lon="13.3018179"><ele>787.0</ele><time>2026-05-02T16:04:19.881Z</time></trkpt><trkpt lat="42.302033" lon="13.3018544"><ele>787.0</ele><time>2026-05-02T16:04:21.866Z</time></trkpt><trkpt lat="42.3019588" lon="13.3019187"><ele>787.0</ele><time>2026-05-02T16:04:23.87Z</time></trkpt><trkpt lat="42.3019124" lon="13.3019811"><ele>787.0</ele><time>2026-05-02T16:04:24.864Z</time></trkpt><trkpt lat="42.3018388" lon="13.3021179"><ele>787.0</ele><time>2026-05-02T16:04:26.858Z</time></trkpt><trkpt lat="42.3017696" lon="13.3022369"><ele>788.6</ele><time>2026-05-02T16:04:28.861Z</time></trkpt><trkpt lat="42.3018126" lon="13.3023088"><ele>790.2</ele><time>2026-05-02T16:04:32.852Z</time></trkpt><trkpt lat="42.3019299" lon="13.302309"><ele>791.8</ele><time>2026-05-02T16:04:34.87Z</time></trkpt><trkpt lat="42.3020397" lon="13.3023898"><ele>793.4</ele><time>2026-05-02T16:04:36.87Z</time></trkpt><trkpt lat="42.3020895" lon="13.3024665"><ele>795.0</ele><time>2026-05-02T16:04:37.87Z</time></trkpt><trkpt lat="42.302125" lon="13.3025667"><ele>795.0</ele><time>2026-05-02T16:04:38.871Z</time></trkpt><trkpt lat="42.3021841" lon="13.302645"><ele>795.0</ele><time>2026-05-02T16:04:39.886Z</time></trkpt><trkpt lat="42.3022428" lon="13.3026862"><ele>795.0</ele><time>2026-05-02T16:04:40.858Z</time></trkpt><trkpt lat="42.3023154" lon="13.3026975"><ele>795.0</ele><time>2026-05-02T16:04:41.907Z</time></trkpt><trkpt lat="42.30239" lon="13.3027115"><ele>795.0</ele><time>2026-05-02T16:04:42.869Z</time></trkpt><trkpt lat="42.3024809" lon="13.302749"><ele>795.0</ele><time>2026-05-02T16:04:43.867Z</time></trkpt><trkpt lat="42.3025912" lon="13.3028087"><ele>794.3333333333333</ele><time>2026-05-02T16:04:44.862Z</time></trkpt><trkpt lat="42.3027009" lon="13.3028557"><ele>793.6666666666666</ele><time>2026-05-02T16:04:45.875Z</time></trkpt><trkpt lat="42.3028317" lon="13.3028733"><ele>793.0</ele><time>2026-05-02T16:04:46.875Z</time></trkpt><trkpt lat="42.3035607" lon="13.3013797"><ele>791.4</ele><time>2026-05-02T16:03:59.881Z</time></trkpt><trkpt lat="42.3034891" lon="13.301424"><ele>789.8</ele><time>2026-05-02T16:04:00.868Z</time></trkpt><trkpt lat="42.3034125" lon="13.3014851"><ele>788.2</ele><time>2026-05-02T16:04:01.864Z</time></trkpt><trkpt lat="42.303326" lon="13.3015465"><ele>786.6</ele><time>2026-05-02T16:04:02.865Z</time></trkpt><trkpt lat="42.3032561" lon="13.3015581"><ele>785.0</ele><time>2026-05-02T16:04:03.87Z</time></trkpt><trkpt lat="42.3031405" lon="13.3015387"><ele>785.3333333333334</ele><time>2026-05-02T16:04:05.866Z</time></trkpt><trkpt lat="42.3030618" lon="13.3015215"><ele>785.6666666666667</ele><time>2026-05-02T16:04:06.866Z</time></trkpt><trkpt lat="42.3029673" lon="13.3015432"><ele>786.0</ele><time>2026-05-02T16:04:07.868Z</time></trkpt><trkpt lat="42.3028669" lon="13.301587"><ele>786.3333333333333</ele><time>2026-05-02T16:04:08.884Z</time></trkpt><trkpt lat="42.3027782" lon="13.3016307"><ele>786.6666666666666</ele><time>2026-05-02T16:04:09.868Z</time></trkpt><trkpt lat="42.3027083" lon="13.3016536"><ele>787.0</ele><time>2026-05-02T16:04:10.863Z</time></trkpt><trkpt lat="42.3026389" lon="13.3016753"><ele>786.9999999999999</ele><time>2026-05-02T16:04:11.876Z</time></trkpt><trkpt lat="42.3025675" lon="13.3016795"><ele>787.0</ele><time>2026-05-02T16:04:12.868Z</time></trkpt><trkpt lat="42.3024995" lon="13.3016626"><ele>787.0</ele><time>2026-05-02T16:04:13.866Z</time></trkpt><trkpt lat="42.3024182" lon="13.3016635"><ele>787.0</ele><time>2026-05-02T16:04:14.862Z</time></trkpt><trkpt lat="42.3023506" lon="13.3016795"><ele>786.9999999999999</ele><time>2026-05-02T16:04:15.866Z</time></trkpt><trkpt lat="42.3022467" lon="13.3017582"><ele>787.0</ele><time>2026-05-02T16:04:17.876Z</time></trkpt><trkpt lat="42.3021359" lon="13.3018179"><ele>787.0</ele><time>2026-05-02T16:04:19.881Z</time></trkpt><trkpt lat="42.302033" lon="13.3018544"><ele>787.0</ele><time>2026-05-02T16:04:21.866Z</time></trkpt><trkpt lat="42.3019588" lon="13.3019187"><ele>787.0</ele><time>2026-05-02T16:04:23.87Z</time></trkpt><trkpt lat="42.3019124" lon="13.3019811"><ele>787.0</ele><time>2026-05-02T16:04:24.864Z</time></trkpt><trkpt lat="42.3018388" lon="13.3021179"><ele>787.0</ele><time>2026-05-02T16:04:26.858Z</time></trkpt><trkpt lat="42.3017696" lon="13.3022369"><ele>788.6</ele><time>2026-05-02T16:04:28.861Z</time></trkpt><trkpt lat="42.3018126" lon="13.3023088"><ele>790.2</ele><time>2026-05-02T16:04:32.852Z</time></trkpt><trkpt lat="42.3019299" lon="13.302309"><ele>791.8</ele><time>2026-05-02T16:04:34.87Z</time></trkpt><trkpt lat="42.3020397" lon="13.3023898"><ele>793.4</ele><time>2026-05-02T16:04:36.87Z</time></trkpt><trkpt lat="42.3020895" lon="13.3024665"><ele>795.0</ele><time>2026-05-02T16:04:37.87Z</time></trkpt><trkpt lat="42.302125" lon="13.3025667"><ele>795.0</ele><time>2026-05-02T16:04:38.871Z</time></trkpt><trkpt lat="42.3021841" lon="13.302645"><ele>795.0</ele><time>2026-05-02T16:04:39.886Z</time></trkpt><trkpt lat="42.3022428" lon="13.3026862"><ele>795.0</ele><time>2026-05-02T16:04:40.858Z</time></trkpt><trkpt lat="42.3023154" lon="13.3026975"><ele>795.0</ele><time>2026-05-02T16:04:41.907Z</time></trkpt><trkpt lat="42.30239" lon="13.3027115"><ele>795.0</ele><time>2026-05-02T16:04:42.869Z</time></trkpt><trkpt lat="42.3024809" lon="13.302749"><ele>795.0</ele><time>2026-05-02T16:04:43.867Z</time></trkpt><trkpt lat="42.3025912" lon="13.3028087"><ele>794.5</ele><time>2026-05-02T16:04:44.862Z</time></trkpt><trkpt lat="42.3027009" lon="13.3028557"><ele>794.0</ele><time>2026-05-02T16:04:45.875Z</time></trkpt><trkpt lat="42.3028317" lon="13.3028733"><ele>793.5</ele><time>2026-05-02T16:04:46.875Z</time></trkpt><trkpt lat="42.3029643" lon="13.3028665"><ele>793.0</ele><time>2026-05-02T16:04:47.865Z</time></trkpt><trkpt lat="42.3030977" lon="13.3028402"><ele>793.0</ele><time>2026-05-02T16:04:48.865Z</time></trkpt><trkpt lat="42.3032371" lon="13.3027972"><ele>793.0</ele><time>2026-05-02T16:04:49.856Z</time></trkpt><trkpt lat="42.303369" lon="13.3027644"><ele>793.0</ele><time>2026-05-02T16:04:50.867Z</time></trkpt><trkpt lat="42.3035042" lon="13.3027356"><ele>793.0</ele><time>2026-05-02T16:04:51.87Z</time></trkpt><trkpt lat="42.3036314" lon="13.3027025"><ele>793.0</ele><time>2026-05-02T16:04:52.873Z</time></trkpt><trkpt lat="42.3037617" lon="13.3026791"><ele>793.0</ele><time>2026-05-02T16:04:53.866Z</time></trkpt><trkpt lat="42.3038901" lon="13.3026861"><ele>793.0</ele><time>2026-05-02T16:04:54.861Z</time></trkpt><trkpt lat="42.3040312" lon="13.3026986"><ele>793.0</ele><time>2026-05-02T16:04:55.875Z</time></trkpt><trkpt lat="42.3041834" lon="13.30273"><ele>794.3333333333333</ele><time>2026-05-02T16:04:56.867Z</time></trkpt><trkpt lat="42.304331" lon="13.3027668"><ele>795.6666666666667</ele><time>2026-05-02T16:04:57.873Z</time></trkpt><trkpt lat="42.304492" lon="13.3027759"><ele>797.0</ele><time>2026-05-02T16:04:58.867Z</time></trkpt><trkpt lat="42.3046449" lon="13.3027654"><ele>799.3333333333334</ele><time>2026-05-02T16:04:59.871Z</time></trkpt><trkpt lat="42.3047938" lon="13.302733"><ele>801.6666666666667</ele><time>2026-05-02T16:05:00.881Z</time></trkpt><trkpt lat="42.3049418" lon="13.3026741"><ele>804.0</ele><time>2026-05-02T16:05:01.875Z</time></trkpt><trkpt lat="42.3050802" lon="13.3026114"><ele>804.0</ele><time>2026-05-02T16:05:02.87Z</time></trkpt><trkpt lat="42.3052018" lon="13.3025625"><ele>804.0</ele><time>2026-05-02T16:05:03.862Z</time></trkpt><trkpt lat="42.3053172" lon="13.3025215"><ele>804.0</ele><time>2026-05-02T16:05:04.874Z</time></trkpt><trkpt lat="42.3054323" lon="13.3024817"><ele>804.0</ele><time>2026-05-02T16:05:05.873Z</time></trkpt><trkpt lat="42.3055552" lon="13.3024336"><ele>804.5</ele><time>2026-05-02T16:05:06.871Z</time></trkpt><trkpt lat="42.3056927" lon="13.3023978"><ele>805.0</ele><time>2026-05-02T16:05:07.869Z</time></trkpt><trkpt lat="42.3058483" lon="13.3023555"><ele>805.5</ele><time>2026-05-02T16:05:08.865Z</time></trkpt><trkpt lat="42.3059935" lon="13.3023212"><ele>806.0</ele><time>2026-05-02T16:05:09.864Z</time></trkpt><trkpt lat="42.3061376" lon="13.3022701"><ele>803.75</ele><time>2026-05-02T16:05:10.867Z</time></trkpt><trkpt lat="42.3062665" lon="13.3022229"><ele>801.5</ele><time>2026-05-02T16:05:11.87Z</time></trkpt><trkpt lat="42.3063895" lon="13.3021652"><ele>799.25</ele><time>2026-05-02T16:05:12.876Z</time></trkpt><trkpt lat="42.3065096" lon="13.302111"><ele>797.0</ele><time>2026-05-02T16:05:13.876Z</time></trkpt><trkpt lat="42.3066325" lon="13.3020528"><ele>797.0</ele><time>2026-05-02T16:05:14.88Z</time></trkpt><trkpt lat="42.3067481" lon="13.3020001"><ele>797.0</ele><time>2026-05-02T16:05:15.882Z</time></trkpt><trkpt lat="42.3068595" lon="13.3019521"><ele>797.0</ele><time>2026-05-02T16:05:16.879Z</time></trkpt><trkpt lat="42.3069734" lon="13.3019003"><ele>797.0</ele><time>2026-05-02T16:05:17.857Z</time></trkpt><trkpt lat="42.307095" lon="13.3018559"><ele>797.0</ele><time>2026-05-02T16:05:18.875Z</time></trkpt><trkpt lat="42.3072159" lon="13.3018188"><ele>797.0</ele><time>2026-05-02T16:05:19.873Z</time></trkpt><trkpt lat="42.3073475" lon="13.3017917"><ele>797.0</ele><time>2026-05-02T16:05:20.863Z</time></trkpt><trkpt lat="42.3074927" lon="13.3017521"><ele>797.0</ele><time>2026-05-02T16:05:21.879Z</time></trkpt><trkpt lat="42.3076558" lon="13.3017035"><ele>798.0</ele><time>2026-05-02T16:05:22.863Z</time></trkpt><trkpt lat="42.3078113" lon="13.3016481"><ele>799.0</ele><time>2026-05-02T16:05:23.881Z</time></trkpt><trkpt lat="42.3079658" lon="13.3015785"><ele>800.0</ele><time>2026-05-02T16:05:24.882Z</time></trkpt><trkpt lat="42.308107" lon="13.3014732"><ele>799.0</ele><time>2026-05-02T16:05:25.86Z</time></trkpt><trkpt lat="42.3082352" lon="13.3013208"><ele>798.0</ele><time>2026-05-02T16:05:26.866Z</time></trkpt><trkpt lat="42.3083601" lon="13.3011401"><ele>797.0</ele><time>2026-05-02T16:05:27.861Z</time></trkpt><trkpt lat="42.3085039" lon="13.3009673"><ele>797.0</ele><time>2026-05-02T16:05:28.865Z</time></trkpt><trkpt lat="42.3086527" lon="13.3008186"><ele>797.0</ele><time>2026-05-02T16:05:29.857Z</time></trkpt><trkpt lat="42.3088087" lon="13.3006809"><ele>797.0</ele><time>2026-05-02T16:05:30.864Z</time></trkpt><trkpt lat="42.3089781" lon="13.300562"><ele>796.3333333333334</ele><time>2026-05-02T16:05:31.869Z</time></trkpt><trkpt lat="42.3091513" lon="13.300462"><ele>795.6666666666667</ele><time>2026-05-02T16:05:32.871Z</time></trkpt><trkpt lat="42.3093296" lon="13.3003832"><ele>795.0</ele><time>2026-05-02T16:05:33.864Z</time></trkpt><trkpt lat="42.3095113" lon="13.300308"><ele>795.0</ele><time>2026-05-02T16:05:34.873Z</time></trkpt><trkpt lat="42.3096867" lon="13.3002495"><ele>795.0</ele><time>2026-05-02T16:05:35.859Z</time></trkpt><trkpt lat="42.3098545" lon="13.3001932"><ele>795.0</ele><time>2026-05-02T16:05:36.883Z</time></trkpt><trkpt lat="42.3099979" lon="13.3001168"><ele>797.25</ele><time>2026-05-02T16:05:37.879Z</time></trkpt><trkpt lat="42.3101123" lon="13.300007"><ele>799.5</ele><time>2026-05-02T16:05:38.875Z</time></trkpt><trkpt lat="42.3102047" lon="13.2998626"><ele>801.75</ele><time>2026-05-02T16:05:39.861Z</time></trkpt><trkpt lat="42.3102837" lon="13.299693"><ele>804.0</ele><time>2026-05-02T16:05:40.877Z</time></trkpt><trkpt lat="42.3103546" lon="13.2995306"><ele>804.0</ele><time>2026-05-02T16:05:41.876Z</time></trkpt><trkpt lat="42.3104573" lon="13.2993764"><ele>804.0</ele><time>2026-05-02T16:05:42.875Z</time></trkpt><trkpt lat="42.3105693" lon="13.2992472"><ele>804.0</ele><time>2026-05-02T16:05:43.882Z</time></trkpt><trkpt lat="42.3106855" lon="13.2991468"><ele>804.0</ele><time>2026-05-02T16:05:44.878Z</time></trkpt><trkpt lat="42.3108094" lon="13.2990421"><ele>806.0</ele><time>2026-05-02T16:05:45.88Z</time></trkpt><trkpt lat="42.31094" lon="13.2989452"><ele>808.0</ele><time>2026-05-02T16:05:46.867Z</time></trkpt><trkpt lat="42.3110746" lon="13.2988393"><ele>810.0</ele><time>2026-05-02T16:05:47.883Z</time></trkpt><trkpt lat="42.3112029" lon="13.2987408"><ele>810.0</ele><time>2026-05-02T16:05:48.864Z</time></trkpt><trkpt lat="42.3113259" lon="13.2986502"><ele>810.0</ele><time>2026-05-02T16:05:49.868Z</time></trkpt><trkpt lat="42.311443" lon="13.2985655"><ele>810.0</ele><time>2026-05-02T16:05:50.868Z</time></trkpt><trkpt lat="42.3115627" lon="13.2984886"><ele>810.0</ele><time>2026-05-02T16:05:51.882Z</time></trkpt><trkpt lat="42.3116893" lon="13.2984162"><ele>810.5</ele><time>2026-05-02T16:05:52.874Z</time></trkpt><trkpt lat="42.3118189" lon="13.2983436"><ele>811.0</ele><time>2026-05-02T16:05:53.861Z</time></trkpt><trkpt lat="42.3119357" lon="13.2982854"><ele>811.5</ele><time>2026-05-02T16:05:54.867Z</time></trkpt><trkpt lat="42.3120405" lon="13.2982468"><ele>812.0</ele><time>2026-05-02T16:05:55.888Z</time></trkpt><trkpt lat="42.3121487" lon="13.2982208"><ele>811.75</ele><time>2026-05-02T16:05:56.869Z</time></trkpt><trkpt lat="42.3122599" lon="13.2981956"><ele>811.5</ele><time>2026-05-02T16:05:57.873Z</time></trkpt><trkpt lat="42.31238" lon="13.2981779"><ele>811.25</ele><time>2026-05-02T16:05:58.886Z</time></trkpt><trkpt lat="42.312505" lon="13.2981607"><ele>811.0</ele><time>2026-05-02T16:05:59.871Z</time></trkpt><trkpt lat="42.3126268" lon="13.2981433"><ele>811.0</ele><time>2026-05-02T16:06:00.881Z</time></trkpt><trkpt lat="42.3127404" lon="13.2981284"><ele>811.0</ele><time>2026-05-02T16:06:01.874Z</time></trkpt><trkpt lat="42.312843" lon="13.2981133"><ele>811.0</ele><time>2026-05-02T16:06:02.876Z</time></trkpt><trkpt lat="42.3129378" lon="13.298119"><ele>811.0</ele><time>2026-05-02T16:06:03.876Z</time></trkpt><trkpt lat="42.3130207" lon="13.2981201"><ele>811.0</ele><time>2026-05-02T16:06:04.866Z</time></trkpt><trkpt lat="42.3131068" lon="13.2981127"><ele>810.4999999999999</ele><time>2026-05-02T16:06:05.875Z</time></trkpt><trkpt lat="42.3131852" lon="13.2980833"><ele>810.0</ele><time>2026-05-02T16:06:06.882Z</time></trkpt><trkpt lat="42.3132629" lon="13.2980495"><ele>809.5</ele><time>2026-05-02T16:06:07.884Z</time></trkpt><trkpt lat="42.313335" lon="13.2980093"><ele>809.0</ele><time>2026-05-02T16:06:08.88Z</time></trkpt><trkpt lat="42.3133986" lon="13.2979662"><ele>808.4999999999999</ele><time>2026-05-02T16:06:09.867Z</time></trkpt><trkpt lat="42.3134658" lon="13.2979252"><ele>808.0</ele><time>2026-05-02T16:06:10.883Z</time></trkpt><trkpt lat="42.3135649" lon="13.2978436"><ele>807.9999999999999</ele><time>2026-05-02T16:06:12.863Z</time></trkpt><trkpt lat="42.3136281" lon="13.2977841"><ele>808.0</ele><time>2026-05-02T16:06:14.867Z</time></trkpt><trkpt lat="42.3137067" lon="13.2977378"><ele>808.0</ele><time>2026-05-02T16:06:17.879Z</time></trkpt><trkpt lat="42.3137719" lon="13.2976881"><ele>808.0</ele><time>2026-05-02T16:06:19.869Z</time></trkpt><trkpt lat="42.3138338" lon="13.2976586"><ele>807.9999999999999</ele><time>2026-05-02T16:06:20.879Z</time></trkpt><trkpt lat="42.3139119" lon="13.2976348"><ele>808.0</ele><time>2026-05-02T16:06:21.872Z</time></trkpt><trkpt lat="42.3139948" lon="13.297622"><ele>807.4</ele><time>2026-05-02T16:06:22.879Z</time></trkpt><trkpt lat="42.3140743" lon="13.2976095"><ele>806.8</ele><time>2026-05-02T16:06:23.88Z</time></trkpt><trkpt lat="42.31416" lon="13.2977209"><ele>806.2</ele><time>2026-05-02T16:06:25.874Z</time></trkpt><trkpt lat="42.3141807" lon="13.2978072"><ele>805.6</ele><time>2026-05-02T16:06:26.882Z</time></trkpt><trkpt lat="42.3141857" lon="13.2979962"><ele>805.0</ele><time>2026-05-02T16:06:27.871Z</time></trkpt><trkpt lat="42.3141901" lon="13.2982286"><ele>805.0</ele><time>2026-05-02T16:06:28.867Z</time></trkpt><trkpt lat="42.3142107" lon="13.2984391"><ele>805.0</ele><time>2026-05-02T16:06:29.864Z</time></trkpt><trkpt lat="42.3142475" lon="13.2986332"><ele>805.0</ele><time>2026-05-02T16:06:30.867Z</time></trkpt><trkpt lat="42.3142749" lon="13.2987873"><ele>805.0</ele><time>2026-05-02T16:06:31.865Z</time></trkpt><trkpt lat="42.3143109" lon="13.2989213"><ele>804.0</ele><time>2026-05-02T16:06:32.867Z</time></trkpt><trkpt lat="42.3143412" lon="13.2990407"><ele>803.0</ele><time>2026-05-02T16:06:33.874Z</time></trkpt><trkpt lat="42.314369" lon="13.2991427"><ele>802.0</ele><time>2026-05-02T16:06:34.874Z</time></trkpt><trkpt lat="42.314409" lon="13.2992462"><ele>801.0</ele><time>2026-05-02T16:06:35.88Z</time></trkpt><trkpt lat="42.3144882" lon="13.2993096"><ele>800.0</ele><time>2026-05-02T16:06:36.881Z</time></trkpt><trkpt lat="42.3145944" lon="13.2993532"><ele>800.0</ele><time>2026-05-02T16:06:37.885Z</time></trkpt><trkpt lat="42.3147269" lon="13.2994001"><ele>800.0</ele><time>2026-05-02T16:06:38.878Z</time></trkpt><trkpt lat="42.3148667" lon="13.2994295"><ele>800.0</ele><time>2026-05-02T16:06:39.872Z</time></trkpt><trkpt lat="42.315014" lon="13.2994456"><ele>800.0</ele><time>2026-05-02T16:06:40.868Z</time></trkpt><trkpt lat="42.3151741" lon="13.2994496"><ele>798.0</ele><time>2026-05-02T16:06:41.883Z</time></trkpt><trkpt lat="42.3153205" lon="13.2994436"><ele>796.0</ele><time>2026-05-02T16:06:42.862Z</time></trkpt><trkpt lat="42.3154497" lon="13.2994462"><ele>794.0</ele><time>2026-05-02T16:06:43.857Z</time></trkpt><trkpt lat="42.3155669" lon="13.2994583"><ele>792.0</ele><time>2026-05-02T16:06:44.865Z</time></trkpt><trkpt lat="42.3156659" lon="13.2994949"><ele>791.0</ele><time>2026-05-02T16:06:45.863Z</time></trkpt><trkpt lat="42.3157707" lon="13.2995783"><ele>790.0</ele><time>2026-05-02T16:06:46.864Z</time></trkpt><trkpt lat="42.3158727" lon="13.2996844"><ele>789.0</ele><time>2026-05-02T16:06:47.861Z</time></trkpt><trkpt lat="42.3159863" lon="13.2997825"><ele>788.0</ele><time>2026-05-02T16:06:48.868Z</time></trkpt><trkpt lat="42.3161305" lon="13.2998694"><ele>788.0</ele><time>2026-05-02T16:06:49.868Z</time></trkpt><trkpt lat="42.3162783" lon="13.2999159"><ele>788.0</ele><time>2026-05-02T16:06:50.856Z</time></trkpt><trkpt lat="42.316444" lon="13.2999371"><ele>788.0</ele><time>2026-05-02T16:06:51.864Z</time></trkpt><trkpt lat="42.3166286" lon="13.2999306"><ele>789.0</ele><time>2026-05-02T16:06:52.864Z</time></trkpt><trkpt lat="42.3168308" lon="13.2999228"><ele>790.0</ele><time>2026-05-02T16:06:53.875Z</time></trkpt><trkpt lat="42.3170411" lon="13.2999209"><ele>791.0</ele><time>2026-05-02T16:06:54.888Z</time></trkpt><trkpt lat="42.3172315" lon="13.2999256"><ele>791.6666666666667</ele><time>2026-05-02T16:06:55.865Z</time></trkpt><trkpt lat="42.3173933" lon="13.2999306"><ele>792.3333333333333</ele><time>2026-05-02T16:06:56.874Z</time></trkpt><trkpt lat="42.3175472" lon="13.2999514"><ele>793.0</ele><time>2026-05-02T16:06:57.86Z</time></trkpt><trkpt lat="42.3176821" lon="13.2999843"><ele>793.0</ele><time>2026-05-02T16:06:58.863Z</time></trkpt><trkpt lat="42.317788" lon="13.3000144"><ele>793.0</ele><time>2026-05-02T16:06:59.875Z</time></trkpt><trkpt lat="42.3178878" lon="13.3000704"><ele>793.0</ele><time>2026-05-02T16:07:00.875Z</time></trkpt><trkpt lat="42.317962" lon="13.3001646"><ele>793.0</ele><time>2026-05-02T16:07:01.866Z</time></trkpt><trkpt lat="42.318032" lon="13.3002965"><ele>793.0</ele><time>2026-05-02T16:07:02.87Z</time></trkpt><trkpt lat="42.31811" lon="13.3004434"><ele>797.0</ele><time>2026-05-02T16:07:03.871Z</time></trkpt><trkpt lat="42.3182146" lon="13.3006096"><ele>801.0</ele><time>2026-05-02T16:07:04.881Z</time></trkpt><trkpt lat="42.3183317" lon="13.300779"><ele>805.0</ele><time>2026-05-02T16:07:05.864Z</time></trkpt><trkpt lat="42.3184525" lon="13.3009147"><ele>805.0</ele><time>2026-05-02T16:07:06.886Z</time></trkpt><trkpt lat="42.3185746" lon="13.3010097"><ele>805.0</ele><time>2026-05-02T16:07:07.862Z</time></trkpt><trkpt lat="42.3186735" lon="13.3010771"><ele>805.0</ele><time>2026-05-02T16:07:08.873Z</time></trkpt><trkpt lat="42.3187697" lon="13.3011247"><ele>805.0</ele><time>2026-05-02T16:07:09.869Z</time></trkpt><trkpt lat="42.3188393" lon="13.3011505"><ele>805.0</ele><time>2026-05-02T16:07:10.882Z</time></trkpt><trkpt lat="42.3189133" lon="13.3012133"><ele>804.3333333333333</ele><time>2026-05-02T16:07:12.875Z</time></trkpt><trkpt lat="42.3189534" lon="13.3012843"><ele>803.6666666666666</ele><time>2026-05-02T16:07:15.859Z</time></trkpt><trkpt lat="42.3189992" lon="13.3013463"><ele>803.0</ele><time>2026-05-02T16:07:17.867Z</time></trkpt><trkpt lat="42.3190072" lon="13.3014452"><ele>802.3333333333333</ele><time>2026-05-02T16:07:20.862Z</time></trkpt><trkpt lat="42.3189805" lon="13.3015543"><ele>801.6666666666666</ele><time>2026-05-02T16:07:23.879Z</time></trkpt><trkpt lat="42.3189599" lon="13.3016678"><ele>801.0</ele><time>2026-05-02T16:07:25.883Z</time></trkpt><trkpt lat="42.3189413" lon="13.3017795"><ele>800.5</ele><time>2026-05-02T16:07:27.87Z</time></trkpt><trkpt lat="42.3189203" lon="13.301872"><ele>800.0</ele><time>2026-05-02T16:07:30.871Z</time></trkpt><trkpt lat="42.3188851" lon="13.3019502"><ele>799.5</ele><time>2026-05-02T16:07:33.88Z</time></trkpt><trkpt lat="42.3188864" lon="13.3020475"><ele>799.0</ele><time>2026-05-02T16:07:35.867Z</time></trkpt><trkpt lat="42.318891" lon="13.3019367"><ele>798.5</ele><time>2026-05-02T16:07:42.87Z</time></trkpt><trkpt lat="42.3189174" lon="13.3018467"><ele>798.0</ele><time>2026-05-02T16:07:43.86Z</time></trkpt><trkpt lat="42.3189476" lon="13.301735"><ele>798.0</ele><time>2026-05-02T16:07:44.865Z</time></trkpt><trkpt lat="42.3189759" lon="13.3016072"><ele>798.0</ele><time>2026-05-02T16:07:45.87Z</time></trkpt><trkpt lat="42.3190014" lon="13.3014751"><ele>798.0</ele><time>2026-05-02T16:07:46.858Z</time></trkpt><trkpt lat="42.3190006" lon="13.3013642"><ele>798.0</ele><time>2026-05-02T16:07:47.879Z</time></trkpt><trkpt lat="42.3189612" lon="13.301291"><ele>798.0</ele><time>2026-05-02T16:07:49.866Z</time></trkpt><trkpt lat="42.3189002" lon="13.3013286"><ele>798.0</ele><time>2026-05-02T16:07:51.864Z</time></trkpt><trkpt lat="42.3188656" lon="13.3014088"><ele>801.5</ele><time>2026-05-02T16:07:52.87Z</time></trkpt><trkpt lat="42.3188197" lon="13.3015206"><ele>805.0</ele><time>2026-05-02T16:07:53.869Z</time></trkpt><trkpt lat="42.3187698" lon="13.3016633"><ele>808.5</ele><time>2026-05-02T16:07:54.878Z</time></trkpt><trkpt lat="42.318697" lon="13.301819"><ele>812.0</ele><time>2026-05-02T16:07:55.863Z</time></trkpt><trkpt lat="42.3186058" lon="13.3020064"><ele>812.0</ele><time>2026-05-02T16:07:56.871Z</time></trkpt><trkpt lat="42.3185098" lon="13.3021966"><ele>812.0</ele><time>2026-05-02T16:07:57.875Z</time></trkpt><trkpt lat="42.3184161" lon="13.302384"><ele>812.0</ele><time>2026-05-02T16:07:58.879Z</time></trkpt><trkpt lat="42.3183219" lon="13.3025832"><ele>810.3333333333334</ele><time>2026-05-02T16:07:59.867Z</time></trkpt><trkpt lat="42.3182342" lon="13.3027788"><ele>808.6666666666667</ele><time>2026-05-02T16:08:00.873Z</time></trkpt><trkpt lat="42.3181611" lon="13.3029883"><ele>807.0</ele><time>2026-05-02T16:08:01.875Z</time></trkpt><trkpt lat="42.3181032" lon="13.3031911"><ele>814.0</ele><time>2026-05-02T16:08:02.873Z</time></trkpt><trkpt lat="42.318059" lon="13.3033909"><ele>821.0</ele><time>2026-05-02T16:08:03.868Z</time></trkpt><trkpt lat="42.3180111" lon="13.3035861"><ele>828.0</ele><time>2026-05-02T16:08:04.863Z</time></trkpt><trkpt lat="42.3179595" lon="13.3037759"><ele>825.0</ele><time>2026-05-02T16:08:05.88Z</time></trkpt><trkpt lat="42.3179006" lon="13.303974"><ele>822.0</ele><time>2026-05-02T16:08:06.876Z</time></trkpt><trkpt lat="42.3178306" lon="13.3041772"><ele>819.0</ele><time>2026-05-02T16:08:07.865Z</time></trkpt><trkpt lat="42.3177595" lon="13.3043852"><ele>819.0</ele><time>2026-05-02T16:08:08.876Z</time></trkpt><trkpt lat="42.3176771" lon="13.3045993"><ele>819.0</ele><time>2026-05-02T16:08:09.863Z</time></trkpt><trkpt lat="42.3175843" lon="13.3048137"><ele>819.0</ele><time>2026-05-02T16:08:10.864Z</time></trkpt><trkpt lat="42.317485" lon="13.3050234"><ele>817.6666666666667</ele><time>2026-05-02T16:08:11.864Z</time></trkpt><trkpt lat="42.3173807" lon="13.3052031"><ele>816.3333333333334</ele><time>2026-05-02T16:08:12.872Z</time></trkpt><trkpt lat="42.3172918" lon="13.3053652"><ele>815.0</ele><time>2026-05-02T16:08:13.863Z</time></trkpt><trkpt lat="42.3172343" lon="13.3055281"><ele>817.0</ele><time>2026-05-02T16:08:14.859Z</time></trkpt><trkpt lat="42.3171895" lon="13.3056923"><ele>819.0</ele><time>2026-05-02T16:08:15.875Z</time></trkpt><trkpt lat="42.3171715" lon="13.3059015"><ele>821.0</ele><time>2026-05-02T16:08:16.86Z</time></trkpt><trkpt lat="42.3171544" lon="13.3061482"><ele>820.6666666666667</ele><time>2026-05-02T16:08:17.88Z</time></trkpt><trkpt lat="42.3171281" lon="13.3064416"><ele>820.3333333333333</ele><time>2026-05-02T16:08:18.879Z</time></trkpt><trkpt lat="42.3171025" lon="13.3067336"><ele>820.0</ele><time>2026-05-02T16:08:19.877Z</time></trkpt><trkpt lat="42.3170833" lon="13.3069945"><ele>820.0</ele><time>2026-05-02T16:08:20.879Z</time></trkpt><trkpt lat="42.317052" lon="13.3072149"><ele>820.0</ele><time>2026-05-02T16:08:21.878Z</time></trkpt><trkpt lat="42.3170113" lon="13.3074499"><ele>820.0</ele><time>2026-05-02T16:08:22.873Z</time></trkpt><trkpt lat="42.3169726" lon="13.3076597"><ele>820.25</ele><time>2026-05-02T16:08:23.868Z</time></trkpt><trkpt lat="42.3169279" lon="13.3078285"><ele>820.5</ele><time>2026-05-02T16:08:24.868Z</time></trkpt><trkpt lat="42.3168798" lon="13.3079853"><ele>820.75</ele><time>2026-05-02T16:08:25.88Z</time></trkpt><trkpt lat="42.316807" lon="13.3081385"><ele>821.0</ele><time>2026-05-02T16:08:26.864Z</time></trkpt><trkpt lat="42.3167021" lon="13.3083121"><ele>821.0</ele><time>2026-05-02T16:08:27.889Z</time></trkpt><trkpt lat="42.3165957" lon="13.3084688"><ele>821.0</ele><time>2026-05-02T16:08:28.874Z</time></trkpt><trkpt lat="42.3165229" lon="13.3086103"><ele>821.0</ele><time>2026-05-02T16:08:29.867Z</time></trkpt><trkpt lat="42.316462" lon="13.3087626"><ele>821.0</ele><time>2026-05-02T16:08:30.869Z</time></trkpt><trkpt lat="42.3164047" lon="13.3089331"><ele>821.5</ele><time>2026-05-02T16:08:31.879Z</time></trkpt><trkpt lat="42.3163391" lon="13.3090952"><ele>822.0</ele><time>2026-05-02T16:08:32.871Z</time></trkpt><trkpt lat="42.3162537" lon="13.3092303"><ele>822.5</ele><time>2026-05-02T16:08:33.875Z</time></trkpt><trkpt lat="42.3161761" lon="13.3093566"><ele>823.0</ele><time>2026-05-02T16:08:34.869Z</time></trkpt><trkpt lat="42.3160929" lon="13.3094818"><ele>823.0</ele><time>2026-05-02T16:08:35.873Z</time></trkpt><trkpt lat="42.3160121" lon="13.3096188"><ele>823.0</ele><time>2026-05-02T16:08:36.868Z</time></trkpt><trkpt lat="42.3159292" lon="13.3097458"><ele>823.0</ele><time>2026-05-02T16:08:37.871Z</time></trkpt><trkpt lat="42.3158437" lon="13.3098863"><ele>823.0</ele><time>2026-05-02T16:08:38.868Z</time></trkpt><trkpt lat="42.3157583" lon="13.3100189"><ele>824.25</ele><time>2026-05-02T16:08:39.866Z</time></trkpt><trkpt lat="42.315686" lon="13.3101474"><ele>825.5</ele><time>2026-05-02T16:08:40.881Z</time></trkpt><trkpt lat="42.3156145" lon="13.3102778"><ele>826.75</ele><time>2026-05-02T16:08:41.878Z</time></trkpt><trkpt lat="42.3155417" lon="13.3103933"><ele>828.0</ele><time>2026-05-02T16:08:42.876Z</time></trkpt><trkpt lat="42.3154642" lon="13.3105179"><ele>829.75</ele><time>2026-05-02T16:08:43.877Z</time></trkpt><trkpt lat="42.3153821" lon="13.3106478"><ele>831.5</ele><time>2026-05-02T16:08:44.866Z</time></trkpt><trkpt lat="42.3153098" lon="13.3107694"><ele>833.25</ele><time>2026-05-02T16:08:45.878Z</time></trkpt><trkpt lat="42.3152374" lon="13.3108738"><ele>835.0</ele><time>2026-05-02T16:08:46.863Z</time></trkpt><trkpt lat="42.3151605" lon="13.3109719"><ele>834.9999999999999</ele><time>2026-05-02T16:08:47.869Z</time></trkpt><trkpt lat="42.315083" lon="13.3110462"><ele>835.0</ele><time>2026-05-02T16:08:48.878Z</time></trkpt><trkpt lat="42.3149944" lon="13.311126"><ele>835.0</ele><time>2026-05-02T16:08:49.87Z</time></trkpt><trkpt lat="42.3149154" lon="13.3112048"><ele>835.0</ele><time>2026-05-02T16:08:50.868Z</time></trkpt><trkpt lat="42.3148511" lon="13.3112532"><ele>834.9999999999999</ele><time>2026-05-02T16:08:51.873Z</time></trkpt><trkpt lat="42.3148168" lon="13.3113381"><ele>835.0</ele><time>2026-05-02T16:08:53.888Z</time></trkpt><trkpt lat="42.3148537" lon="13.3114756"><ele>833.6</ele><time>2026-05-02T16:08:55.875Z</time></trkpt><trkpt lat="42.31492" lon="13.3115883"><ele>832.2</ele><time>2026-05-02T16:08:57.888Z</time></trkpt><trkpt lat="42.3150151" lon="13.3116726"><ele>830.8</ele><time>2026-05-02T16:08:59.873Z</time></trkpt><trkpt lat="42.3150611" lon="13.311733"><ele>829.4</ele><time>2026-05-02T16:09:00.875Z</time></trkpt><trkpt lat="42.3151117" lon="13.3118041"><ele>828.0</ele><time>2026-05-02T16:09:01.866Z</time></trkpt><trkpt lat="42.3151713" lon="13.3119002"><ele>828.0</ele><time>2026-05-02T16:09:02.873Z</time></trkpt><trkpt lat="42.3152246" lon="13.3119814"><ele>828.0</ele><time>2026-05-02T16:09:03.868Z</time></trkpt><trkpt lat="42.3152729" lon="13.3120833"><ele>828.0</ele><time>2026-05-02T16:09:04.872Z</time></trkpt><trkpt lat="42.3153447" lon="13.312185"><ele>828.0</ele><time>2026-05-02T16:09:05.873Z</time></trkpt><trkpt lat="42.3154086" lon="13.3122819"><ele>828.0</ele><time>2026-05-02T16:09:06.88Z</time></trkpt><trkpt lat="42.3154803" lon="13.3123907"><ele>828.3333333333334</ele><time>2026-05-02T16:09:07.864Z</time></trkpt><trkpt lat="42.3155625" lon="13.3124938"><ele>828.6666666666667</ele><time>2026-05-02T16:09:08.872Z</time></trkpt><trkpt lat="42.3156301" lon="13.3125233"><ele>829.0</ele><time>2026-05-02T16:09:09.874Z</time></trkpt><trkpt lat="42.3157559" lon="13.3125233"><ele>829.3333333333334</ele><time>2026-05-02T16:09:11.865Z</time></trkpt><trkpt lat="42.3158209" lon="13.3125384"><ele>829.6666666666667</ele><time>2026-05-02T16:09:12.88Z</time></trkpt><trkpt lat="42.3158895" lon="13.3125684"><ele>830.0</ele><time>2026-05-02T16:09:13.876Z</time></trkpt><trkpt lat="42.3159805" lon="13.3126274"><ele>830.5</ele><time>2026-05-02T16:09:14.867Z</time></trkpt><trkpt lat="42.3160798" lon="13.3126906"><ele>831.0</ele><time>2026-05-02T16:09:15.868Z</time></trkpt><trkpt lat="42.3162122" lon="13.3127752"><ele>831.5</ele><time>2026-05-02T16:09:16.868Z</time></trkpt><trkpt lat="42.3163458" lon="13.3128507"><ele>832.0</ele><time>2026-05-02T16:09:17.866Z</time></trkpt><trkpt lat="42.3164693" lon="13.3129227"><ele>834.5</ele><time>2026-05-02T16:09:18.872Z</time></trkpt><trkpt lat="42.3165941" lon="13.3130005"><ele>837.0</ele><time>2026-05-02T16:09:19.868Z</time></trkpt><trkpt lat="42.3167223" lon="13.3130872"><ele>839.5</ele><time>2026-05-02T16:09:20.88Z</time></trkpt><trkpt lat="42.31685" lon="13.3131518"><ele>842.0</ele><time>2026-05-02T16:09:21.871Z</time></trkpt><trkpt lat="42.3169727" lon="13.3131942"><ele>843.2</ele><time>2026-05-02T16:09:22.875Z</time></trkpt><trkpt lat="42.3170856" lon="13.3131949"><ele>844.4000000000001</ele><time>2026-05-02T16:09:23.869Z</time></trkpt><trkpt lat="42.317186" lon="13.31319"><ele>845.5999999999999</ele><time>2026-05-02T16:09:24.877Z</time></trkpt><trkpt lat="42.3172624" lon="13.3132158"><ele>846.8</ele><time>2026-05-02T16:09:25.863Z</time></trkpt><trkpt lat="42.3173366" lon="13.3132704"><ele>848.0</ele><time>2026-05-02T16:09:26.871Z</time></trkpt><trkpt lat="42.3174237" lon="13.3133495"><ele>849.25</ele><time>2026-05-02T16:09:27.872Z</time></trkpt><trkpt lat="42.3175314" lon="13.3134599"><ele>850.5</ele><time>2026-05-02T16:09:28.879Z</time></trkpt><trkpt lat="42.3176418" lon="13.3135682"><ele>851.75</ele><time>2026-05-02T16:09:29.869Z</time></trkpt><trkpt lat="42.3177561" lon="13.3136792"><ele>853.0</ele><time>2026-05-02T16:09:30.884Z</time></trkpt><trkpt lat="42.317853" lon="13.3137646"><ele>852.9999999999999</ele><time>2026-05-02T16:09:31.864Z</time></trkpt><trkpt lat="42.3179144" lon="13.3138339"><ele>853.0</ele><time>2026-05-02T16:09:32.88Z</time></trkpt><trkpt lat="42.3179754" lon="13.3139014"><ele>853.0</ele><time>2026-05-02T16:09:33.871Z</time></trkpt><trkpt lat="42.3180358" lon="13.3139703"><ele>853.0</ele><time>2026-05-02T16:09:34.871Z</time></trkpt><trkpt lat="42.3180911" lon="13.3140249"><ele>852.9999999999999</ele><time>2026-05-02T16:09:35.874Z</time></trkpt><trkpt lat="42.3181492" lon="13.3140685"><ele>853.0</ele><time>2026-05-02T16:09:36.877Z</time></trkpt><trkpt lat="42.3182325" lon="13.3140898"><ele>852.8</ele><time>2026-05-02T16:09:38.875Z</time></trkpt><trkpt lat="42.3183089" lon="13.314116"><ele>852.5999999999999</ele><time>2026-05-02T16:09:42.874Z</time></trkpt><trkpt lat="42.3183794" lon="13.3140578"><ele>852.4000000000001</ele><time>2026-05-02T16:09:44.88Z</time></trkpt><trkpt lat="42.3184805" lon="13.3139467"><ele>852.2</ele><time>2026-05-02T16:09:46.879Z</time></trkpt><trkpt lat="42.3185402" lon="13.313871"><ele>852.0</ele><time>2026-05-02T16:09:47.874Z</time></trkpt><trkpt lat="42.3185879" lon="13.3137858"><ele>852.0</ele><time>2026-05-02T16:09:48.876Z</time></trkpt><trkpt lat="42.3186437" lon="13.3137379"><ele>852.0</ele><time>2026-05-02T16:09:49.867Z</time></trkpt><trkpt lat="42.3187109" lon="13.3137228"><ele>852.0</ele><time>2026-05-02T16:09:50.887Z</time></trkpt><trkpt lat="42.3188388" lon="13.3137957"><ele>852.0</ele><time>2026-05-02T16:09:52.873Z</time></trkpt><trkpt lat="42.3189234" lon="13.3138712"><ele>852.0</ele><time>2026-05-02T16:09:53.871Z</time></trkpt><trkpt lat="42.3190198" lon="13.3139541"><ele>850.75</ele><time>2026-05-02T16:09:54.87Z</time></trkpt><trkpt lat="42.3191335" lon="13.3140457"><ele>849.5</ele><time>2026-05-02T16:09:55.872Z</time></trkpt><trkpt lat="42.3192638" lon="13.3141494"><ele>848.25</ele><time>2026-05-02T16:09:56.871Z</time></trkpt><trkpt lat="42.3193928" lon="13.3142597"><ele>847.0</ele><time>2026-05-02T16:09:57.873Z</time></trkpt><trkpt lat="42.3195293" lon="13.3143608"><ele>847.0</ele><time>2026-05-02T16:09:58.875Z</time></trkpt><trkpt lat="42.3196703" lon="13.3144672"><ele>847.0</ele><time>2026-05-02T16:09:59.874Z</time></trkpt><trkpt lat="42.3198073" lon="13.3145736"><ele>847.0</ele><time>2026-05-02T16:10:00.868Z</time></trkpt><trkpt lat="42.3199436" lon="13.3146807"><ele>844.75</ele><time>2026-05-02T16:10:01.883Z</time></trkpt><trkpt lat="42.3200711" lon="13.3147878"><ele>842.5</ele><time>2026-05-02T16:10:02.88Z</time></trkpt><trkpt lat="42.3201893" lon="13.3148892"><ele>840.25</ele><time>2026-05-02T16:10:03.871Z</time></trkpt><trkpt lat="42.3202908" lon="13.3149801"><ele>838.0</ele><time>2026-05-02T16:10:04.866Z</time></trkpt><trkpt lat="42.3203708" lon="13.3150506"><ele>837.9999999999999</ele><time>2026-05-02T16:10:05.872Z</time></trkpt><trkpt lat="42.3204271" lon="13.3151268"><ele>838.0</ele><time>2026-05-02T16:10:06.869Z</time></trkpt><trkpt lat="42.3204396" lon="13.3152175"><ele>838.0</ele><time>2026-05-02T16:10:07.886Z</time></trkpt><trkpt lat="42.3204311" lon="13.3153469"><ele>838.0</ele><time>2026-05-02T16:10:08.878Z</time></trkpt><trkpt lat="42.3204007" lon="13.3154738"><ele>837.9999999999999</ele><time>2026-05-02T16:10:09.866Z</time></trkpt><trkpt lat="42.32036" lon="13.3155724"><ele>838.0</ele><time>2026-05-02T16:10:10.885Z</time></trkpt><trkpt lat="42.320289" lon="13.3156915"><ele>837.8333333333333</ele><time>2026-05-02T16:10:12.872Z</time></trkpt><trkpt lat="42.3202684" lon="13.3157806"><ele>837.6666666666666</ele><time>2026-05-02T16:10:15.867Z</time></trkpt><trkpt lat="42.3202553" lon="13.3159139"><ele>837.5</ele><time>2026-05-02T16:10:18.862Z</time></trkpt><trkpt lat="42.3202209" lon="13.315986"><ele>837.3333333333333</ele><time>2026-05-02T16:10:20.862Z</time></trkpt><trkpt lat="42.3202485" lon="13.3158574"><ele>837.1666666666666</ele><time>2026-05-02T16:10:28.861Z</time></trkpt><trkpt lat="42.3202746" lon="13.3157465"><ele>837.0</ele><time>2026-05-02T16:10:29.874Z</time></trkpt><trkpt lat="42.3202998" lon="13.3156421"><ele>837.0</ele><time>2026-05-02T16:10:30.869Z</time></trkpt><trkpt lat="42.320344" lon="13.315562"><ele>837.0</ele><time>2026-05-02T16:10:31.877Z</time></trkpt><trkpt lat="42.3204482" lon="13.3156008"><ele>837.0</ele><time>2026-05-02T16:10:33.867Z</time></trkpt><trkpt lat="42.3205187" lon="13.3156586"><ele>837.0</ele><time>2026-05-02T16:10:34.869Z</time></trkpt><trkpt lat="42.3206005" lon="13.3157331"><ele>837.0</ele><time>2026-05-02T16:10:35.866Z</time></trkpt><trkpt lat="42.3206827" lon="13.3157979"><ele>835.6666666666666</ele><time>2026-05-02T16:10:36.877Z</time></trkpt><trkpt lat="42.3207307" lon="13.315868"><ele>834.3333333333333</ele><time>2026-05-02T16:10:37.869Z</time></trkpt><trkpt lat="42.3207508" lon="13.3159496"><ele>833.0</ele><time>2026-05-02T16:10:38.871Z</time></trkpt><trkpt lat="42.3207851" lon="13.3160305"><ele>831.6666666666666</ele><time>2026-05-02T16:10:39.875Z</time></trkpt><trkpt lat="42.320926" lon="13.316082"><ele>830.3333333333333</ele><time>2026-05-02T16:10:41.87Z</time></trkpt><trkpt lat="42.321014" lon="13.316088"><ele>829.0</ele><time>2026-05-02T16:10:42.866Z</time></trkpt><trkpt lat="42.3211456" lon="13.3160854"><ele>829.0</ele><time>2026-05-02T16:10:43.868Z</time></trkpt><trkpt lat="42.3212933" lon="13.3160997"><ele>829.0</ele><time>2026-05-02T16:10:44.855Z</time></trkpt><trkpt lat="42.3214213" lon="13.3161225"><ele>829.0</ele><time>2026-05-02T16:10:45.876Z</time></trkpt><trkpt lat="42.3215097" lon="13.3161613"><ele>829.0</ele><time>2026-05-02T16:10:46.886Z</time></trkpt><trkpt lat="42.3216116" lon="13.3161854"><ele>827.75</ele><time>2026-05-02T16:10:47.874Z</time></trkpt><trkpt lat="42.321721" lon="13.3162018"><ele>826.5</ele><time>2026-05-02T16:10:48.875Z</time></trkpt><trkpt lat="42.3218421" lon="13.3162121"><ele>825.25</ele><time>2026-05-02T16:10:49.881Z</time></trkpt><trkpt lat="42.3219868" lon="13.3162208"><ele>824.0</ele><time>2026-05-02T16:10:50.872Z</time></trkpt><trkpt lat="42.3221352" lon="13.3162499"><ele>822.75</ele><time>2026-05-02T16:10:51.871Z</time></trkpt><trkpt lat="42.3222737" lon="13.3163136"><ele>821.5</ele><time>2026-05-02T16:10:52.873Z</time></trkpt><trkpt lat="42.3223869" lon="13.3163861"><ele>820.25</ele><time>2026-05-02T16:10:53.876Z</time></trkpt><trkpt lat="42.322477" lon="13.3164395"><ele>819.0</ele><time>2026-05-02T16:10:54.893Z</time></trkpt><trkpt lat="42.3225539" lon="13.3164803"><ele>819.0</ele><time>2026-05-02T16:10:55.877Z</time></trkpt><trkpt lat="42.3226224" lon="13.3165171"><ele>819.0</ele><time>2026-05-02T16:10:56.864Z</time></trkpt><trkpt lat="42.3227146" lon="13.3165727"><ele>819.0</ele><time>2026-05-02T16:10:58.864Z</time></trkpt><trkpt lat="42.322783" lon="13.3165017"><ele>819.0</ele><time>2026-05-02T16:11:00.868Z</time></trkpt><trkpt lat="42.32282" lon="13.3163058"><ele>819.0</ele><time>2026-05-02T16:11:02.875Z</time></trkpt><trkpt lat="42.3228415" lon="13.3161587"><ele>818.0</ele><time>2026-05-02T16:11:03.861Z</time></trkpt><trkpt lat="42.3228822" lon="13.3160924"><ele>817.0</ele><time>2026-05-02T16:11:04.875Z</time></trkpt><trkpt lat="42.3229731" lon="13.3160007"><ele>816.0</ele><time>2026-05-02T16:11:06.877Z</time></trkpt><trkpt lat="42.3230927" lon="13.3160233"><ele>815.0</ele><time>2026-05-02T16:11:08.872Z</time></trkpt><trkpt lat="42.3231733" lon="13.3160624"><ele>814.0</ele><time>2026-05-02T16:11:09.865Z</time></trkpt><trkpt lat="42.3232652" lon="13.3160869"><ele>812.6666666666666</ele><time>2026-05-02T16:11:10.866Z</time></trkpt><trkpt lat="42.3233519" lon="13.3161199"><ele>811.3333333333333</ele><time>2026-05-02T16:11:11.872Z</time></trkpt><trkpt lat="42.3234367" lon="13.3161476"><ele>810.0</ele><time>2026-05-02T16:11:12.885Z</time></trkpt><trkpt lat="42.3235263" lon="13.3161621"><ele>808.6666666666667</ele><time>2026-05-02T16:11:13.873Z</time></trkpt><trkpt lat="42.3236075" lon="13.3161826"><ele>807.3333333333334</ele><time>2026-05-02T16:11:14.868Z</time></trkpt><trkpt lat="42.3236812" lon="13.3161915"><ele>806.0</ele><time>2026-05-02T16:11:15.871Z</time></trkpt><trkpt lat="42.3237537" lon="13.3162051"><ele>806.0000000000001</ele><time>2026-05-02T16:11:16.888Z</time></trkpt><trkpt lat="42.3238172" lon="13.3162319"><ele>806.0</ele><time>2026-05-02T16:11:17.874Z</time></trkpt><trkpt lat="42.3238892" lon="13.3162598"><ele>806.0</ele><time>2026-05-02T16:11:18.883Z</time></trkpt><trkpt lat="42.3239581" lon="13.3162775"><ele>806.0</ele><time>2026-05-02T16:11:19.87Z</time></trkpt><trkpt lat="42.3240393" lon="13.3163075"><ele>806.0000000000001</ele><time>2026-05-02T16:11:20.878Z</time></trkpt><trkpt lat="42.324127" lon="13.3163616"><ele>806.0</ele><time>2026-05-02T16:11:21.88Z</time></trkpt><trkpt lat="42.3242293" lon="13.3164079"><ele>806.8</ele><time>2026-05-02T16:11:22.883Z</time></trkpt><trkpt lat="42.3243226" lon="13.3164457"><ele>807.5999999999999</ele><time>2026-05-02T16:11:23.877Z</time></trkpt><trkpt lat="42.3244147" lon="13.3164844"><ele>808.4</ele><time>2026-05-02T16:11:24.863Z</time></trkpt><trkpt lat="42.3244979" lon="13.3165208"><ele>809.2</ele><time>2026-05-02T16:11:25.866Z</time></trkpt><trkpt lat="42.3245898" lon="13.3165318"><ele>810.0</ele><time>2026-05-02T16:11:26.873Z</time></trkpt><trkpt lat="42.3246717" lon="13.3165362"><ele>809.5</ele><time>2026-05-02T16:11:27.872Z</time></trkpt><trkpt lat="42.3247463" lon="13.3165489"><ele>809.0</ele><time>2026-05-02T16:11:28.872Z</time></trkpt><trkpt lat="42.3248174" lon="13.3165643"><ele>808.5</ele><time>2026-05-02T16:11:29.874Z</time></trkpt><trkpt lat="42.3248939" lon="13.316574"><ele>808.0</ele><time>2026-05-02T16:11:30.886Z</time></trkpt><trkpt lat="42.3249852" lon="13.3165766"><ele>807.5</ele><time>2026-05-02T16:11:31.866Z</time></trkpt><trkpt lat="42.32507" lon="13.3165762"><ele>807.0</ele><time>2026-05-02T16:11:32.888Z</time></trkpt><trkpt lat="42.3251618" lon="13.3165679"><ele>807.0</ele><time>2026-05-02T16:11:33.868Z</time></trkpt><trkpt lat="42.3252503" lon="13.3165616"><ele>807.0</ele><time>2026-05-02T16:11:34.884Z</time></trkpt><trkpt lat="42.3253305" lon="13.3165351"><ele>807.0</ele><time>2026-05-02T16:11:35.902Z</time></trkpt><trkpt lat="42.3254116" lon="13.316484"><ele>807.0</ele><time>2026-05-02T16:11:36.888Z</time></trkpt><trkpt lat="42.3254885" lon="13.3164219"><ele>807.0</ele><time>2026-05-02T16:11:37.875Z</time></trkpt><trkpt lat="42.3255551" lon="13.3163627"><ele>807.0</ele><time>2026-05-02T16:11:38.894Z</time></trkpt><trkpt lat="42.3256228" lon="13.316304"><ele>805.0</ele><time>2026-05-02T16:11:39.864Z</time></trkpt><trkpt lat="42.3256974" lon="13.316253"><ele>803.0</ele><time>2026-05-02T16:11:40.889Z</time></trkpt><trkpt lat="42.3257771" lon="13.3162035"><ele>801.0</ele><time>2026-05-02T16:11:41.875Z</time></trkpt><trkpt lat="42.3258593" lon="13.3161532"><ele>799.0</ele><time>2026-05-02T16:11:42.877Z</time></trkpt><trkpt lat="42.3259419" lon="13.3161077"><ele>797.0</ele><time>2026-05-02T16:11:43.88Z</time></trkpt><trkpt lat="42.3260313" lon="13.3160703"><ele>795.0</ele><time>2026-05-02T16:11:44.891Z</time></trkpt><trkpt lat="42.3261342" lon="13.3160417"><ele>795.0</ele><time>2026-05-02T16:11:45.867Z</time></trkpt><trkpt lat="42.3262356" lon="13.3160371"><ele>795.0</ele><time>2026-05-02T16:11:46.871Z</time></trkpt><trkpt lat="42.3263331" lon="13.3160342"><ele>795.0</ele><time>2026-05-02T16:11:47.859Z</time></trkpt><trkpt lat="42.3264106" lon="13.316022"><ele>795.0</ele><time>2026-05-02T16:11:48.87Z</time></trkpt><trkpt lat="42.326474" lon="13.3159851"><ele>795.0</ele><time>2026-05-02T16:11:49.866Z</time></trkpt><trkpt lat="42.3265473" lon="13.3159378"><ele>795.0</ele><time>2026-05-02T16:11:50.883Z</time></trkpt><trkpt lat="42.3266352" lon="13.3158999"><ele>795.0</ele><time>2026-05-02T16:11:51.877Z</time></trkpt><trkpt lat="42.3267241" lon="13.3158905"><ele>795.0</ele><time>2026-05-02T16:11:52.876Z</time></trkpt><trkpt lat="42.3268205" lon="13.3158982"><ele>795.0</ele><time>2026-05-02T16:11:53.884Z</time></trkpt><trkpt lat="42.3269296" lon="13.3159168"><ele>795.0</ele><time>2026-05-02T16:11:54.876Z</time></trkpt><trkpt lat="42.327043" lon="13.3159265"><ele>795.0</ele><time>2026-05-02T16:11:55.878Z</time></trkpt><trkpt lat="42.3271512" lon="13.3159375"><ele>794.2</ele><time>2026-05-02T16:11:56.869Z</time></trkpt><trkpt lat="42.3272513" lon="13.3159465"><ele>793.4</ele><time>2026-05-02T16:11:57.877Z</time></trkpt><trkpt lat="42.3273474" lon="13.3159644"><ele>792.5999999999999</ele><time>2026-05-02T16:11:58.876Z</time></trkpt><trkpt lat="42.3274524" lon="13.3159843"><ele>791.8</ele><time>2026-05-02T16:11:59.876Z</time></trkpt><trkpt lat="42.3275535" lon="13.3159952"><ele>791.0</ele><time>2026-05-02T16:12:00.895Z</time></trkpt><trkpt lat="42.3276542" lon="13.3160015"><ele>791.0</ele><time>2026-05-02T16:12:01.884Z</time></trkpt><trkpt lat="42.3277501" lon="13.3159983"><ele>791.0</ele><time>2026-05-02T16:12:02.885Z</time></trkpt><trkpt lat="42.3278478" lon="13.3160053"><ele>791.0</ele><time>2026-05-02T16:12:03.874Z</time></trkpt><trkpt lat="42.3279489" lon="13.3160339"><ele>791.0</ele><time>2026-05-02T16:12:04.872Z</time></trkpt><trkpt lat="42.3280576" lon="13.3160728"><ele>791.0</ele><time>2026-05-02T16:12:05.878Z</time></trkpt><trkpt lat="42.3281652" lon="13.3161194"><ele>791.5000000000001</ele><time>2026-05-02T16:12:06.89Z</time></trkpt><trkpt lat="42.3282603" lon="13.3161639"><ele>792.0</ele><time>2026-05-02T16:12:07.884Z</time></trkpt><trkpt lat="42.3283451" lon="13.3162065"><ele>792.5</ele><time>2026-05-02T16:12:08.885Z</time></trkpt><trkpt lat="42.3284231" lon="13.3162563"><ele>793.0</ele><time>2026-05-02T16:12:09.877Z</time></trkpt><trkpt lat="42.3284958" lon="13.316311"><ele>793.5000000000001</ele><time>2026-05-02T16:12:10.873Z</time></trkpt><trkpt lat="42.3285756" lon="13.3163628"><ele>794.0</ele><time>2026-05-02T16:12:11.869Z</time></trkpt><trkpt lat="42.3286538" lon="13.3164151"><ele>794.0</ele><time>2026-05-02T16:12:12.874Z</time></trkpt><trkpt lat="42.3287377" lon="13.3164682"><ele>794.0</ele><time>2026-05-02T16:12:13.878Z</time></trkpt><trkpt lat="42.3288227" lon="13.3165092"><ele>794.0</ele><time>2026-05-02T16:12:14.879Z</time></trkpt><trkpt lat="42.328918" lon="13.3165247"><ele>794.0</ele><time>2026-05-02T16:12:15.875Z</time></trkpt><trkpt lat="42.3290302" lon="13.3165258"><ele>794.0</ele><time>2026-05-02T16:12:16.879Z</time></trkpt><trkpt lat="42.3291274" lon="13.3165265"><ele>793.4000000000001</ele><time>2026-05-02T16:12:17.873Z</time></trkpt><trkpt lat="42.3292239" lon="13.3165293"><ele>792.8</ele><time>2026-05-02T16:12:18.873Z</time></trkpt><trkpt lat="42.3293247" lon="13.3165423"><ele>792.2</ele><time>2026-05-02T16:12:19.863Z</time></trkpt><trkpt lat="42.3294184" lon="13.3165376"><ele>791.5999999999999</ele><time>2026-05-02T16:12:20.879Z</time></trkpt><trkpt lat="42.3295211" lon="13.3165344"><ele>791.0</ele><time>2026-05-02T16:12:21.88Z</time></trkpt><trkpt lat="42.3296192" lon="13.3165321"><ele>791.0000000000001</ele><time>2026-05-02T16:12:22.869Z</time></trkpt><trkpt lat="42.3297073" lon="13.3165357"><ele>791.0</ele><time>2026-05-02T16:12:23.879Z</time></trkpt><trkpt lat="42.3297937" lon="13.3165343"><ele>791.0</ele><time>2026-05-02T16:12:24.882Z</time></trkpt><trkpt lat="42.3298833" lon="13.3165301"><ele>791.0</ele><time>2026-05-02T16:12:25.867Z</time></trkpt><trkpt lat="42.3299679" lon="13.3165271"><ele>791.0000000000001</ele><time>2026-05-02T16:12:26.858Z</time></trkpt><trkpt lat="42.3300525" lon="13.3165279"><ele>791.0</ele><time>2026-05-02T16:12:27.882Z</time></trkpt><trkpt lat="42.3301364" lon="13.3165267"><ele>790.3333333333334</ele><time>2026-05-02T16:12:28.875Z</time></trkpt><trkpt lat="42.3302206" lon="13.3165246"><ele>789.6666666666667</ele><time>2026-05-02T16:12:29.862Z</time></trkpt><trkpt lat="42.3303026" lon="13.3165121"><ele>789.0</ele><time>2026-05-02T16:12:30.876Z</time></trkpt><trkpt lat="42.3303764" lon="13.3165067"><ele>788.3333333333333</ele><time>2026-05-02T16:12:31.884Z</time></trkpt><trkpt lat="42.3304429" lon="13.3164973"><ele>787.6666666666666</ele><time>2026-05-02T16:12:32.886Z</time></trkpt><trkpt lat="42.3305073" lon="13.3164981"><ele>787.0</ele><time>2026-05-02T16:12:33.874Z</time></trkpt><trkpt lat="42.3306353" lon="13.3164844"><ele>786.8333333333333</ele><time>2026-05-02T16:12:35.881Z</time></trkpt><trkpt lat="42.3307088" lon="13.3164706"><ele>786.6666666666666</ele><time>2026-05-02T16:12:36.877Z</time></trkpt><trkpt lat="42.3307858" lon="13.3164596"><ele>786.5</ele><time>2026-05-02T16:12:37.884Z</time></trkpt><trkpt lat="42.3308666" lon="13.3164569"><ele>786.3333333333333</ele><time>2026-05-02T16:12:38.869Z</time></trkpt><trkpt lat="42.3309559" lon="13.3164504"><ele>786.1666666666666</ele><time>2026-05-02T16:12:39.875Z</time></trkpt><trkpt lat="42.3310449" lon="13.3164329"><ele>786.0</ele><time>2026-05-02T16:12:40.87Z</time></trkpt><trkpt lat="42.3311369" lon="13.3164057"><ele>785.0</ele><time>2026-05-02T16:12:41.872Z</time></trkpt><trkpt lat="42.3312418" lon="13.3163666"><ele>784.0</ele><time>2026-05-02T16:12:42.872Z</time></trkpt><trkpt lat="42.3313579" lon="13.3162906"><ele>783.0</ele><time>2026-05-02T16:12:43.873Z</time></trkpt><trkpt lat="42.331471" lon="13.3162249"><ele>782.0</ele><time>2026-05-02T16:12:44.861Z</time></trkpt><trkpt lat="42.3315724" lon="13.3161659"><ele>781.3333333333334</ele><time>2026-05-02T16:12:45.883Z</time></trkpt><trkpt lat="42.3316599" lon="13.3161032"><ele>780.6666666666667</ele><time>2026-05-02T16:12:46.883Z</time></trkpt><trkpt lat="42.3317322" lon="13.3160695"><ele>780.0</ele><time>2026-05-02T16:12:47.863Z</time></trkpt><trkpt lat="42.3318081" lon="13.316051"><ele>779.3333333333333</ele><time>2026-05-02T16:12:48.865Z</time></trkpt><trkpt lat="42.3318818" lon="13.3160572"><ele>778.6666666666666</ele><time>2026-05-02T16:12:49.868Z</time></trkpt><trkpt lat="42.3319696" lon="13.3160935"><ele>778.0</ele><time>2026-05-02T16:12:50.881Z</time></trkpt><trkpt lat="42.332073" lon="13.3161453"><ele>778.0</ele><time>2026-05-02T16:12:51.872Z</time></trkpt><trkpt lat="42.3321788" lon="13.3162024"><ele>778.0</ele><time>2026-05-02T16:12:52.873Z</time></trkpt><trkpt lat="42.3322874" lon="13.316236"><ele>778.0</ele><time>2026-05-02T16:12:53.88Z</time></trkpt><trkpt lat="42.3323837" lon="13.3162509"><ele>778.0</ele><time>2026-05-02T16:12:54.872Z</time></trkpt><trkpt lat="42.3324801" lon="13.3162618"><ele>778.0</ele><time>2026-05-02T16:12:55.886Z</time></trkpt><trkpt lat="42.3325784" lon="13.3162547"><ele>777.3333333333333</ele><time>2026-05-02T16:12:56.87Z</time></trkpt><trkpt lat="42.3326787" lon="13.3162359"><ele>776.6666666666666</ele><time>2026-05-02T16:12:57.871Z</time></trkpt><trkpt lat="42.3327686" lon="13.3162252"><ele>776.0</ele><time>2026-05-02T16:12:58.864Z</time></trkpt><trkpt lat="42.3328504" lon="13.3162302"><ele>775.3333333333333</ele><time>2026-05-02T16:12:59.875Z</time></trkpt><trkpt lat="42.3329289" lon="13.3162375"><ele>774.6666666666666</ele><time>2026-05-02T16:13:00.876Z</time></trkpt><trkpt lat="42.333009" lon="13.3162502"><ele>774.0</ele><time>2026-05-02T16:13:01.894Z</time></trkpt><trkpt lat="42.3331055" lon="13.3162716"><ele>772.75</ele><time>2026-05-02T16:13:02.868Z</time></trkpt><trkpt lat="42.3332209" lon="13.3162964"><ele>771.5</ele><time>2026-05-02T16:13:03.87Z</time></trkpt><trkpt lat="42.3333326" lon="13.3163155"><ele>770.25</ele><time>2026-05-02T16:13:04.875Z</time></trkpt><trkpt lat="42.3334514" lon="13.3163295"><ele>769.0</ele><time>2026-05-02T16:13:05.879Z</time></trkpt><trkpt lat="42.3335741" lon="13.3163359"><ele>769.0</ele><time>2026-05-02T16:13:06.887Z</time></trkpt><trkpt lat="42.3336911" lon="13.3163385"><ele>769.0</ele><time>2026-05-02T16:13:07.875Z</time></trkpt><trkpt lat="42.3337949" lon="13.3163321"><ele>769.0</ele><time>2026-05-02T16:13:08.863Z</time></trkpt><trkpt lat="42.3338988" lon="13.3163279"><ele>769.0</ele><time>2026-05-02T16:13:09.878Z</time></trkpt><trkpt lat="42.3340036" lon="13.3163228"><ele>769.0</ele><time>2026-05-02T16:13:10.877Z</time></trkpt><trkpt lat="42.33411" lon="13.3163241"><ele>766.6</ele><time>2026-05-02T16:13:11.885Z</time></trkpt><trkpt lat="42.3342155" lon="13.3163183"><ele>764.2</ele><time>2026-05-02T16:13:12.866Z</time></trkpt><trkpt lat="42.3343109" lon="13.3163052"><ele>761.8000000000001</ele><time>2026-05-02T16:13:13.874Z</time></trkpt><trkpt lat="42.3344061" lon="13.3162898"><ele>759.4000000000001</ele><time>2026-05-02T16:13:14.883Z</time></trkpt><trkpt lat="42.3345033" lon="13.3162484"><ele>757.0</ele><time>2026-05-02T16:13:15.877Z</time></trkpt><trkpt lat="42.3345986" lon="13.3162145"><ele>757.0</ele><time>2026-05-02T16:13:16.876Z</time></trkpt><trkpt lat="42.3346987" lon="13.316193"><ele>757.0</ele><time>2026-05-02T16:13:17.884Z</time></trkpt><trkpt lat="42.3347838" lon="13.3161588"><ele>757.0</ele><time>2026-05-02T16:13:18.88Z</time></trkpt><trkpt lat="42.3348769" lon="13.3161291"><ele>757.0</ele><time>2026-05-02T16:13:19.861Z</time></trkpt><trkpt lat="42.3349692" lon="13.3161017"><ele>757.0</ele><time>2026-05-02T16:13:20.871Z</time></trkpt><trkpt lat="42.3350663" lon="13.3160768"><ele>757.0</ele><time>2026-05-02T16:13:21.882Z</time></trkpt><trkpt lat="42.3351617" lon="13.3160632"><ele>757.0</ele><time>2026-05-02T16:13:22.887Z</time></trkpt><trkpt lat="42.3352859" lon="13.3160567"><ele>757.0</ele><time>2026-05-02T16:13:23.88Z</time></trkpt><trkpt lat="42.3354093" lon="13.3160477"><ele>757.0</ele><time>2026-05-02T16:13:24.871Z</time></trkpt><trkpt lat="42.3355238" lon="13.3160474"><ele>757.2</ele><time>2026-05-02T16:13:25.866Z</time></trkpt><trkpt lat="42.3356325" lon="13.3160494"><ele>757.4000000000001</ele><time>2026-05-02T16:13:26.879Z</time></trkpt><trkpt lat="42.3357412" lon="13.3160558"><ele>757.5999999999999</ele><time>2026-05-02T16:13:27.891Z</time></trkpt><trkpt lat="42.3358534" lon="13.3160601"><ele>757.8</ele><time>2026-05-02T16:13:28.875Z</time></trkpt><trkpt lat="42.3359726" lon="13.3160593"><ele>758.0</ele><time>2026-05-02T16:13:29.868Z</time></trkpt><trkpt lat="42.3361093" lon="13.3160473"><ele>758.0</ele><time>2026-05-02T16:13:30.886Z</time></trkpt><trkpt lat="42.3362544" lon="13.3160317"><ele>758.0</ele><time>2026-05-02T16:13:31.867Z</time></trkpt><trkpt lat="42.3363812" lon="13.3160191"><ele>758.0</ele><time>2026-05-02T16:13:32.881Z</time></trkpt><trkpt lat="42.3364772" lon="13.3160224"><ele>758.0</ele><time>2026-05-02T16:13:33.867Z</time></trkpt><trkpt lat="42.3365687" lon="13.3160304"><ele>757.8</ele><time>2026-05-02T16:13:34.871Z</time></trkpt><trkpt lat="42.3366583" lon="13.3160456"><ele>757.5999999999999</ele><time>2026-05-02T16:13:35.878Z</time></trkpt><trkpt lat="42.3367593" lon="13.31605"><ele>757.4000000000001</ele><time>2026-05-02T16:13:36.885Z</time></trkpt><trkpt lat="42.3368656" lon="13.3160508"><ele>757.2</ele><time>2026-05-02T16:13:37.879Z</time></trkpt><trkpt lat="42.3369665" lon="13.3160546"><ele>757.0</ele><time>2026-05-02T16:13:38.878Z</time></trkpt><trkpt lat="42.3370634" lon="13.3160496"><ele>757.0</ele><time>2026-05-02T16:13:39.868Z</time></trkpt><trkpt lat="42.3371636" lon="13.3160407"><ele>757.0</ele><time>2026-05-02T16:13:40.884Z</time></trkpt><trkpt lat="42.3372643" lon="13.3160213"><ele>757.0</ele><time>2026-05-02T16:13:41.881Z</time></trkpt><trkpt lat="42.337362" lon="13.3160044"><ele>757.0</ele><time>2026-05-02T16:13:42.901Z</time></trkpt><trkpt lat="42.3374554" lon="13.3159874"><ele>757.0</ele><time>2026-05-02T16:13:43.878Z</time></trkpt><trkpt lat="42.3375523" lon="13.3159693"><ele>757.6</ele><time>2026-05-02T16:13:44.88Z</time></trkpt><trkpt lat="42.3376511" lon="13.3159521"><ele>758.2</ele><time>2026-05-02T16:13:45.891Z</time></trkpt><trkpt lat="42.337744" lon="13.3159352"><ele>758.8</ele><time>2026-05-02T16:13:46.883Z</time></trkpt><trkpt lat="42.3378371" lon="13.3159159"><ele>759.4</ele><time>2026-05-02T16:13:47.886Z</time></trkpt><trkpt lat="42.3379343" lon="13.3158958"><ele>760.0</ele><time>2026-05-02T16:13:48.879Z</time></trkpt><trkpt lat="42.3380351" lon="13.3158717"><ele>760.4</ele><time>2026-05-02T16:13:49.871Z</time></trkpt><trkpt lat="42.3381341" lon="13.3158493"><ele>760.8</ele><time>2026-05-02T16:13:50.881Z</time></trkpt><trkpt lat="42.3382293" lon="13.3158285"><ele>761.2</ele><time>2026-05-02T16:13:51.883Z</time></trkpt><trkpt lat="42.3383153" lon="13.315806"><ele>761.6</ele><time>2026-05-02T16:13:52.892Z</time></trkpt><trkpt lat="42.3384031" lon="13.3157856"><ele>762.0</ele><time>2026-05-02T16:13:53.882Z</time></trkpt><trkpt lat="42.3384896" lon="13.315771"><ele>762.0</ele><time>2026-05-02T16:13:54.883Z</time></trkpt><trkpt lat="42.3385806" lon="13.3157576"><ele>762.0</ele><time>2026-05-02T16:13:55.881Z</time></trkpt><trkpt lat="42.338669" lon="13.3157497"><ele>762.0</ele><time>2026-05-02T16:13:56.894Z</time></trkpt><trkpt lat="42.3387615" lon="13.3157476"><ele>762.0</ele><time>2026-05-02T16:13:57.875Z</time></trkpt><trkpt lat="42.3388592" lon="13.3157462"><ele>762.0</ele><time>2026-05-02T16:13:58.864Z</time></trkpt><trkpt lat="42.3389592" lon="13.315751"><ele>761.4000000000001</ele><time>2026-05-02T16:13:59.867Z</time></trkpt><trkpt lat="42.3390599" lon="13.3157644"><ele>760.8000000000001</ele><time>2026-05-02T16:14:00.887Z</time></trkpt><trkpt lat="42.3391593" lon="13.3157799"><ele>760.2</ele><time>2026-05-02T16:14:01.883Z</time></trkpt><trkpt lat="42.3392579" lon="13.3157959"><ele>759.6</ele><time>2026-05-02T16:14:02.899Z</time></trkpt><trkpt lat="42.3393518" lon="13.3158109"><ele>759.0</ele><time>2026-05-02T16:14:03.866Z</time></trkpt><trkpt lat="42.3394489" lon="13.3158207"><ele>759.0</ele><time>2026-05-02T16:14:04.888Z</time></trkpt><trkpt lat="42.3395481" lon="13.3158258"><ele>759.0</ele><time>2026-05-02T16:14:05.866Z</time></trkpt><trkpt lat="42.3396558" lon="13.3158308"><ele>759.0</ele><time>2026-05-02T16:14:06.885Z</time></trkpt><trkpt lat="42.3397623" lon="13.3158277"><ele>759.0</ele><time>2026-05-02T16:14:07.87Z</time></trkpt><trkpt lat="42.339863" lon="13.3158252"><ele>759.0</ele><time>2026-05-02T16:14:08.881Z</time></trkpt><trkpt lat="42.3399505" lon="13.3158239"><ele>758.1666666666666</ele><time>2026-05-02T16:14:09.875Z</time></trkpt><trkpt lat="42.3400377" lon="13.3158201"><ele>757.3333333333334</ele><time>2026-05-02T16:14:10.883Z</time></trkpt><trkpt lat="42.3401252" lon="13.3158233"><ele>756.5</ele><time>2026-05-02T16:14:11.89Z</time></trkpt><trkpt lat="42.3402011" lon="13.3158276"><ele>755.6666666666667</ele><time>2026-05-02T16:14:12.881Z</time></trkpt><trkpt lat="42.3402736" lon="13.3158284"><ele>754.8333333333334</ele><time>2026-05-02T16:14:13.874Z</time></trkpt><trkpt lat="42.3403453" lon="13.3158343"><ele>754.0</ele><time>2026-05-02T16:14:14.877Z</time></trkpt><trkpt lat="42.3404238" lon="13.3158416"><ele>754.0</ele><time>2026-05-02T16:14:15.868Z</time></trkpt><trkpt lat="42.3404997" lon="13.3158514"><ele>754.0</ele><time>2026-05-02T16:14:16.885Z</time></trkpt><trkpt lat="42.3405719" lon="13.3158697"><ele>754.0</ele><time>2026-05-02T16:14:17.871Z</time></trkpt><trkpt lat="42.3406476" lon="13.3158909"><ele>754.0</ele><time>2026-05-02T16:14:18.869Z</time></trkpt><trkpt lat="42.3407295" lon="13.3159065"><ele>754.0</ele><time>2026-05-02T16:14:19.866Z</time></trkpt><trkpt lat="42.3408129" lon="13.3159245"><ele>754.0</ele><time>2026-05-02T16:14:20.887Z</time></trkpt><trkpt lat="42.3409041" lon="13.3159456"><ele>753.25</ele><time>2026-05-02T16:14:21.869Z</time></trkpt><trkpt lat="42.3410104" lon="13.3159633"><ele>752.5</ele><time>2026-05-02T16:14:22.879Z</time></trkpt><trkpt lat="42.3411165" lon="13.3159726"><ele>751.75</ele><time>2026-05-02T16:14:23.87Z</time></trkpt><trkpt lat="42.3412443" lon="13.3159847"><ele>751.0</ele><time>2026-05-02T16:14:24.879Z</time></trkpt><trkpt lat="42.3413768" lon="13.315995"><ele>748.25</ele><time>2026-05-02T16:14:25.865Z</time></trkpt><trkpt lat="42.3415041" lon="13.3160045"><ele>745.5</ele><time>2026-05-02T16:14:26.873Z</time></trkpt><trkpt lat="42.3416277" lon="13.316001"><ele>742.75</ele><time>2026-05-02T16:14:27.862Z</time></trkpt><trkpt lat="42.3417505" lon="13.3159903"><ele>740.0</ele><time>2026-05-02T16:14:28.866Z</time></trkpt><trkpt lat="42.3418717" lon="13.3159842"><ele>740.0</ele><time>2026-05-02T16:14:29.864Z</time></trkpt><trkpt lat="42.3419703" lon="13.3159881"><ele>740.0</ele><time>2026-05-02T16:14:30.872Z</time></trkpt><trkpt lat="42.3420631" lon="13.3159969"><ele>740.0</ele><time>2026-05-02T16:14:31.861Z</time></trkpt><trkpt lat="42.3421536" lon="13.3160135"><ele>740.0</ele><time>2026-05-02T16:14:32.876Z</time></trkpt><trkpt lat="42.342242" lon="13.316025"><ele>740.0</ele><time>2026-05-02T16:14:33.865Z</time></trkpt><trkpt lat="42.3423163" lon="13.3160247"><ele>740.0</ele><time>2026-05-02T16:14:34.877Z</time></trkpt><trkpt lat="42.3423839" lon="13.3160023"><ele>739.5</ele><time>2026-05-02T16:14:35.873Z</time></trkpt><trkpt lat="42.3424445" lon="13.3159604"><ele>739.0</ele><time>2026-05-02T16:14:36.88Z</time></trkpt><trkpt lat="42.342502" lon="13.3159096"><ele>738.5</ele><time>2026-05-02T16:14:37.879Z</time></trkpt><trkpt lat="42.3425939" lon="13.3158181"><ele>738.0</ele><time>2026-05-02T16:14:39.872Z</time></trkpt><trkpt lat="42.3426643" lon="13.3157272"><ele>737.5</ele><time>2026-05-02T16:14:41.875Z</time></trkpt><trkpt lat="42.3427452" lon="13.3156495"><ele>737.0</ele><time>2026-05-02T16:14:43.87Z</time></trkpt><trkpt lat="42.3428448" lon="13.3155669"><ele>735.4000000000001</ele><time>2026-05-02T16:14:45.899Z</time></trkpt><trkpt lat="42.3429205" lon="13.3155181"><ele>733.8000000000001</ele><time>2026-05-02T16:14:46.887Z</time></trkpt><trkpt lat="42.3430058" lon="13.3154768"><ele>732.2</ele><time>2026-05-02T16:14:47.875Z</time></trkpt><trkpt lat="42.3430922" lon="13.3154496"><ele>730.6</ele><time>2026-05-02T16:14:48.857Z</time></trkpt><trkpt lat="42.3431936" lon="13.3154208"><ele>729.0</ele><time>2026-05-02T16:14:49.869Z</time></trkpt><trkpt lat="42.3432903" lon="13.3154123"><ele>729.0</ele><time>2026-05-02T16:14:50.867Z</time></trkpt><trkpt lat="42.3433904" lon="13.3154128"><ele>729.0</ele><time>2026-05-02T16:14:51.879Z</time></trkpt><trkpt lat="42.3434688" lon="13.3154284"><ele>729.0</ele><time>2026-05-02T16:14:52.876Z</time></trkpt><trkpt lat="42.3435438" lon="13.3154536"><ele>729.0</ele><time>2026-05-02T16:14:53.864Z</time></trkpt><trkpt lat="42.3436239" lon="13.3154719"><ele>729.0</ele><time>2026-05-02T16:14:54.888Z</time></trkpt><trkpt lat="42.3437025" lon="13.3154913"><ele>729.0</ele><time>2026-05-02T16:14:55.875Z</time></trkpt><trkpt lat="42.3437826" lon="13.3155117"><ele>729.0</ele><time>2026-05-02T16:14:56.883Z</time></trkpt><trkpt lat="42.3438599" lon="13.3155348"><ele>729.0</ele><time>2026-05-02T16:14:57.885Z</time></trkpt><trkpt lat="42.343928" lon="13.3155476"><ele>729.0</ele><time>2026-05-02T16:14:58.87Z</time></trkpt><trkpt lat="42.3440391" lon="13.3155536"><ele>729.0</ele><time>2026-05-02T16:15:00.88Z</time></trkpt><trkpt lat="42.344162" lon="13.3155549"><ele>729.0</ele><time>2026-05-02T16:15:02.879Z</time></trkpt><trkpt lat="42.3442864" lon="13.3155461"><ele>727.8333333333334</ele><time>2026-05-02T16:15:04.88Z</time></trkpt><trkpt lat="42.3443669" lon="13.3155417"><ele>726.6666666666666</ele><time>2026-05-02T16:15:05.872Z</time></trkpt><trkpt lat="42.3444521" lon="13.3155433"><ele>725.5</ele><time>2026-05-02T16:15:06.881Z</time></trkpt><trkpt lat="42.3445346" lon="13.315534"><ele>724.3333333333333</ele><time>2026-05-02T16:15:07.872Z</time></trkpt><trkpt lat="42.3446191" lon="13.3155299"><ele>723.1666666666666</ele><time>2026-05-02T16:15:08.875Z</time></trkpt><trkpt lat="42.3447182" lon="13.3155232"><ele>722.0</ele><time>2026-05-02T16:15:09.867Z</time></trkpt><trkpt lat="42.3448189" lon="13.315516"><ele>720.8</ele><time>2026-05-02T16:15:10.879Z</time></trkpt><trkpt lat="42.3449234" lon="13.3154931"><ele>719.6</ele><time>2026-05-02T16:15:11.867Z</time></trkpt><trkpt lat="42.3450356" lon="13.3154615"><ele>718.4</ele><time>2026-05-02T16:15:12.875Z</time></trkpt><trkpt lat="42.3451468" lon="13.3154336"><ele>717.1999999999999</ele><time>2026-05-02T16:15:13.87Z</time></trkpt><trkpt lat="42.345258" lon="13.3154127"><ele>716.0</ele><time>2026-05-02T16:15:14.864Z</time></trkpt><trkpt lat="42.3453441" lon="13.315388"><ele>716.0</ele><time>2026-05-02T16:15:15.861Z</time></trkpt><trkpt lat="42.3454164" lon="13.3153643"><ele>716.0</ele><time>2026-05-02T16:15:16.878Z</time></trkpt><trkpt lat="42.3454808" lon="13.3153668"><ele>716.0</ele><time>2026-05-02T16:15:17.867Z</time></trkpt><trkpt lat="42.3455902" lon="13.315432"><ele>716.0</ele><time>2026-05-02T16:15:19.864Z</time></trkpt><trkpt lat="42.3456704" lon="13.3154724"><ele>716.0</ele><time>2026-05-02T16:15:20.875Z</time></trkpt><trkpt lat="42.3457588" lon="13.315504"><ele>716.0</ele><time>2026-05-02T16:15:21.888Z</time></trkpt><trkpt lat="42.3458376" lon="13.3155378"><ele>716.8</ele><time>2026-05-02T16:15:22.88Z</time></trkpt><trkpt lat="42.3459311" lon="13.3155717"><ele>717.5999999999999</ele><time>2026-05-02T16:15:23.869Z</time></trkpt><trkpt lat="42.346019" lon="13.3156051"><ele>718.4</ele><time>2026-05-02T16:15:24.87Z</time></trkpt><trkpt lat="42.3461224" lon="13.3156263"><ele>719.2</ele><time>2026-05-02T16:15:25.866Z</time></trkpt><trkpt lat="42.3462237" lon="13.3156426"><ele>720.0</ele><time>2026-05-02T16:15:26.867Z</time></trkpt><trkpt lat="42.3463225" lon="13.3156578"><ele>720.4</ele><time>2026-05-02T16:15:27.874Z</time></trkpt><trkpt lat="42.346428" lon="13.3156796"><ele>720.8</ele><time>2026-05-02T16:15:28.882Z</time></trkpt><trkpt lat="42.3465377" lon="13.3157046"><ele>721.2</ele><time>2026-05-02T16:15:29.877Z</time></trkpt><trkpt lat="42.3466455" lon="13.3157241"><ele>721.6</ele><time>2026-05-02T16:15:30.868Z</time></trkpt><trkpt lat="42.3467308" lon="13.3157476"><ele>722.0</ele><time>2026-05-02T16:15:31.873Z</time></trkpt><trkpt lat="42.3468036" lon="13.3157865"><ele>722.0</ele><time>2026-05-02T16:15:32.88Z</time></trkpt><trkpt lat="42.3468792" lon="13.3158419"><ele>722.0</ele><time>2026-05-02T16:15:33.874Z</time></trkpt><trkpt lat="42.3469731" lon="13.3159223"><ele>722.0</ele><time>2026-05-02T16:15:34.878Z</time></trkpt><trkpt lat="42.3470676" lon="13.316002"><ele>722.0</ele><time>2026-05-02T16:15:35.872Z</time></trkpt><trkpt lat="42.3471478" lon="13.3160979"><ele>722.0</ele><time>2026-05-02T16:15:36.867Z</time></trkpt><trkpt lat="42.3472287" lon="13.3161967"><ele>721.4000000000001</ele><time>2026-05-02T16:15:37.878Z</time></trkpt><trkpt lat="42.3473056" lon="13.316292"><ele>720.8000000000001</ele><time>2026-05-02T16:15:38.885Z</time></trkpt><trkpt lat="42.3473807" lon="13.3163723"><ele>720.2</ele><time>2026-05-02T16:15:39.868Z</time></trkpt><trkpt lat="42.3474619" lon="13.3164287"><ele>719.6</ele><time>2026-05-02T16:15:40.877Z</time></trkpt><trkpt lat="42.3475448" lon="13.3164537"><ele>719.0</ele><time>2026-05-02T16:15:41.874Z</time></trkpt><trkpt lat="42.3476264" lon="13.3164756"><ele>719.0</ele><time>2026-05-02T16:15:42.892Z</time></trkpt><trkpt lat="42.3477019" lon="13.3164849"><ele>719.0</ele><time>2026-05-02T16:15:43.873Z</time></trkpt><trkpt lat="42.3477906" lon="13.3165095"><ele>719.0</ele><time>2026-05-02T16:15:44.89Z</time></trkpt><trkpt lat="42.3478745" lon="13.3165497"><ele>719.0</ele><time>2026-05-02T16:15:45.867Z</time></trkpt><trkpt lat="42.3479532" lon="13.3166027"><ele>719.0</ele><time>2026-05-02T16:15:46.867Z</time></trkpt><trkpt lat="42.348023" lon="13.3166656"><ele>719.0</ele><time>2026-05-02T16:15:47.875Z</time></trkpt><trkpt lat="42.348085" lon="13.3167299"><ele>718.6666666666666</ele><time>2026-05-02T16:15:48.886Z</time></trkpt><trkpt lat="42.3481331" lon="13.3168031"><ele>718.3333333333333</ele><time>2026-05-02T16:15:50.881Z</time></trkpt><trkpt lat="42.348202" lon="13.3168074"><ele>718.0</ele><time>2026-05-02T16:22:38.878Z</time></trkpt><trkpt lat="42.3482778" lon="13.3168384"><ele>717.6666666666666</ele><time>2026-05-02T16:22:42.887Z</time></trkpt><trkpt lat="42.3483521" lon="13.3168911"><ele>717.3333333333334</ele><time>2026-05-02T16:22:44.895Z</time></trkpt><trkpt lat="42.3484744" lon="13.3169305"><ele>717.0</ele><time>2026-05-02T16:22:46.882Z</time></trkpt><trkpt lat="42.3485641" lon="13.3169386"><ele>717.0</ele><time>2026-05-02T16:22:47.901Z</time></trkpt><trkpt lat="42.3486545" lon="13.3169489"><ele>717.0</ele><time>2026-05-02T16:22:48.887Z</time></trkpt><trkpt lat="42.3487307" lon="13.3169472"><ele>717.0</ele><time>2026-05-02T16:22:49.896Z</time></trkpt><trkpt lat="42.3487947" lon="13.3169466"><ele>717.0</ele><time>2026-05-02T16:22:50.909Z</time></trkpt><trkpt lat="42.3488955" lon="13.3169644"><ele>717.0</ele><time>2026-05-02T16:22:52.878Z</time></trkpt><trkpt lat="42.3489938" lon="13.3169442"><ele>717.0</ele><time>2026-05-02T16:22:57.895Z</time></trkpt><trkpt lat="42.3490147" lon="13.3168596"><ele>714.6</ele><time>2026-05-02T16:22:59.89Z</time></trkpt><trkpt lat="42.3489635" lon="13.3167"><ele>712.2</ele><time>2026-05-02T16:23:01.889Z</time></trkpt><trkpt lat="42.3489632" lon="13.3165809"><ele>709.8</ele><time>2026-05-02T16:23:03.892Z</time></trkpt><trkpt lat="42.3490534" lon="13.3166224"><ele>707.4</ele><time>2026-05-02T16:23:07.887Z</time></trkpt><trkpt lat="42.3490842" lon="13.316707"><ele>705.0</ele><time>2026-05-02T16:23:09.886Z</time></trkpt><trkpt lat="42.349131" lon="13.3167773"><ele>705.0</ele><time>2026-05-02T16:23:12.873Z</time></trkpt><trkpt lat="42.3491805" lon="13.3168415"><ele>705.0</ele><time>2026-05-02T16:23:14.896Z</time></trkpt><trkpt lat="42.3492337" lon="13.3168951"><ele>705.0</ele><time>2026-05-02T16:23:15.874Z</time></trkpt><trkpt lat="42.349308" lon="13.3169411"><ele>705.0</ele><time>2026-05-02T16:23:16.877Z</time></trkpt><trkpt lat="42.3494027" lon="13.3170062"><ele>705.0</ele><time>2026-05-02T16:23:17.893Z</time></trkpt><trkpt lat="42.3495195" lon="13.3170958"><ele>705.0</ele><time>2026-05-02T16:23:18.881Z</time></trkpt><trkpt lat="42.3496564" lon="13.3172217"><ele>705.0</ele><time>2026-05-02T16:23:19.892Z</time></trkpt><trkpt lat="42.3498287" lon="13.3173838"><ele>705.0</ele><time>2026-05-02T16:23:20.869Z</time></trkpt><trkpt lat="42.3499797" lon="13.3175696"><ele>702.3333333333334</ele><time>2026-05-02T16:23:21.867Z</time></trkpt><trkpt lat="42.3501243" lon="13.3177651"><ele>699.6666666666667</ele><time>2026-05-02T16:23:22.888Z</time></trkpt><trkpt lat="42.3502652" lon="13.317969"><ele>697.0</ele><time>2026-05-02T16:23:23.88Z</time></trkpt><trkpt lat="42.3504229" lon="13.3181876"><ele>691.5</ele><time>2026-05-02T16:23:24.897Z</time></trkpt><trkpt lat="42.3505829" lon="13.3184172"><ele>686.0</ele><time>2026-05-02T16:23:25.886Z</time></trkpt><trkpt lat="42.3507382" lon="13.3186354"><ele>686.0</ele><time>2026-05-02T16:23:26.921Z</time></trkpt><trkpt lat="42.3508853" lon="13.3188333"><ele>686.0</ele><time>2026-05-02T16:23:27.884Z</time></trkpt><trkpt lat="42.3510293" lon="13.3190172"><ele>686.0</ele><time>2026-05-02T16:23:28.899Z</time></trkpt><trkpt lat="42.3511598" lon="13.3191998"><ele>685.0</ele><time>2026-05-02T16:23:29.904Z</time></trkpt><trkpt lat="42.3512801" lon="13.3193744"><ele>684.0</ele><time>2026-05-02T16:23:30.883Z</time></trkpt><trkpt lat="42.351391" lon="13.3195299"><ele>683.0</ele><time>2026-05-02T16:23:31.886Z</time></trkpt><trkpt lat="42.3515342" lon="13.3196739"><ele>683.0</ele><time>2026-05-02T16:23:32.91Z</time></trkpt><trkpt lat="42.3517209" lon="13.3198216"><ele>683.0</ele><time>2026-05-02T16:23:33.892Z</time></trkpt><trkpt lat="42.3519314" lon="13.3199671"><ele>683.0</ele><time>2026-05-02T16:23:34.897Z</time></trkpt><trkpt lat="42.3521166" lon="13.320108"><ele>683.0</ele><time>2026-05-02T16:23:35.864Z</time></trkpt><trkpt lat="42.3522626" lon="13.3202415"><ele>683.0</ele><time>2026-05-02T16:23:36.86Z</time></trkpt><trkpt lat="42.3523777" lon="13.3203698"><ele>681.5999999999999</ele><time>2026-05-02T16:23:37.892Z</time></trkpt><trkpt lat="42.3524859" lon="13.3204758"><ele>680.1999999999999</ele><time>2026-05-02T16:23:38.888Z</time></trkpt><trkpt lat="42.3525817" lon="13.3205598"><ele>678.8</ele><time>2026-05-02T16:23:39.9Z</time></trkpt><trkpt lat="42.3526588" lon="13.3206303"><ele>677.4</ele><time>2026-05-02T16:23:40.919Z</time></trkpt><trkpt lat="42.3527291" lon="13.3206741"><ele>676.0</ele><time>2026-05-02T16:23:41.889Z</time></trkpt><trkpt lat="42.352796" lon="13.3207353"><ele>676.0</ele><time>2026-05-02T16:23:43.917Z</time></trkpt><trkpt lat="42.3528468" lon="13.3207882"><ele>676.0</ele><time>2026-05-02T16:23:46.892Z</time></trkpt><trkpt lat="42.3528712" lon="13.3208822"><ele>676.0</ele><time>2026-05-02T16:23:48.884Z</time></trkpt><trkpt lat="42.3528715" lon="13.3209744"><ele>676.0</ele><time>2026-05-02T16:23:49.896Z</time></trkpt><trkpt lat="42.3528677" lon="13.3210935"><ele>676.0</ele><time>2026-05-02T16:23:50.892Z</time></trkpt><trkpt lat="42.3528687" lon="13.3212254"><ele>676.0</ele><time>2026-05-02T16:23:51.906Z</time></trkpt><trkpt lat="42.352872" lon="13.3213692"><ele>674.5</ele><time>2026-05-02T16:23:52.892Z</time></trkpt><trkpt lat="42.3528833" lon="13.3215229"><ele>673.0</ele><time>2026-05-02T16:23:53.891Z</time></trkpt><trkpt lat="42.3528994" lon="13.3216836"><ele>671.5</ele><time>2026-05-02T16:23:54.896Z</time></trkpt><trkpt lat="42.3529287" lon="13.3218423"><ele>670.0</ele><time>2026-05-02T16:23:55.896Z</time></trkpt><trkpt lat="42.3529742" lon="13.3219988"><ele>670.0</ele><time>2026-05-02T16:23:56.898Z</time></trkpt><trkpt lat="42.3530267" lon="13.3221432"><ele>670.0</ele><time>2026-05-02T16:23:57.883Z</time></trkpt><trkpt lat="42.3530808" lon="13.3222781"><ele>670.0</ele><time>2026-05-02T16:23:58.894Z</time></trkpt><trkpt lat="42.3531234" lon="13.3223947"><ele>670.0</ele><time>2026-05-02T16:23:59.9Z</time></trkpt><trkpt lat="42.3531588" lon="13.3224907"><ele>670.0</ele><time>2026-05-02T16:24:00.88Z</time></trkpt><trkpt lat="42.3531895" lon="13.322582"><ele>669.0</ele><time>2026-05-02T16:24:01.878Z</time></trkpt><trkpt lat="42.3532116" lon="13.3227168"><ele>668.0</ele><time>2026-05-02T16:24:03.897Z</time></trkpt><trkpt lat="42.3532292" lon="13.3228711"><ele>667.0</ele><time>2026-05-02T16:24:05.873Z</time></trkpt><trkpt lat="42.3532878" lon="13.3229833"><ele>666.0</ele><time>2026-05-02T16:24:07.883Z</time></trkpt><trkpt lat="42.3533577" lon="13.3230539"><ele>665.0</ele><time>2026-05-02T16:24:09.877Z</time></trkpt><trkpt lat="42.3534112" lon="13.3231293"><ele>664.4</ele><time>2026-05-02T16:24:11.881Z</time></trkpt><trkpt lat="42.3534531" lon="13.3232456"><ele>663.8</ele><time>2026-05-02T16:24:13.874Z</time></trkpt><trkpt lat="42.3535198" lon="13.3234129"><ele>663.2</ele><time>2026-05-02T16:24:15.879Z</time></trkpt><trkpt lat="42.3535613" lon="13.3235095"><ele>662.6</ele><time>2026-05-02T16:24:16.879Z</time></trkpt><trkpt lat="42.3536053" lon="13.323605"><ele>662.0</ele><time>2026-05-02T16:24:17.873Z</time></trkpt><trkpt lat="42.3536546" lon="13.3237043"><ele>662.0</ele><time>2026-05-02T16:24:18.878Z</time></trkpt><trkpt lat="42.3536994" lon="13.3238003"><ele>662.0</ele><time>2026-05-02T16:24:19.875Z</time></trkpt><trkpt lat="42.3537411" lon="13.3239092"><ele>662.0</ele><time>2026-05-02T16:24:20.887Z</time></trkpt><trkpt lat="42.3537815" lon="13.3240101"><ele>662.0</ele><time>2026-05-02T16:24:21.882Z</time></trkpt><trkpt lat="42.3538284" lon="13.3241042"><ele>662.0</ele><time>2026-05-02T16:24:22.884Z</time></trkpt><trkpt lat="42.3538781" lon="13.3242017"><ele>662.0</ele><time>2026-05-02T16:24:23.883Z</time></trkpt><trkpt lat="42.3539278" lon="13.3243082"><ele>661.8</ele><time>2026-05-02T16:24:24.879Z</time></trkpt><trkpt lat="42.3539802" lon="13.3244262"><ele>661.6</ele><time>2026-05-02T16:24:25.878Z</time></trkpt><trkpt lat="42.3540384" lon="13.3245487"><ele>661.4</ele><time>2026-05-02T16:24:26.872Z</time></trkpt><trkpt lat="42.3541037" lon="13.3246716"><ele>661.1999999999999</ele><time>2026-05-02T16:24:27.885Z</time></trkpt><trkpt lat="42.354165" lon="13.3248071"><ele>661.0</ele><time>2026-05-02T16:24:28.877Z</time></trkpt><trkpt lat="42.3542321" lon="13.3249559"><ele>660.0</ele><time>2026-05-02T16:24:29.881Z</time></trkpt><trkpt lat="42.354304" lon="13.3251063"><ele>659.0</ele><time>2026-05-02T16:24:30.883Z</time></trkpt><trkpt lat="42.3543785" lon="13.325243"><ele>658.0</ele><time>2026-05-02T16:24:31.88Z</time></trkpt><trkpt lat="42.3544502" lon="13.3253826"><ele>657.0</ele><time>2026-05-02T16:24:32.874Z</time></trkpt><trkpt lat="42.354529" lon="13.3255165"><ele>656.5</ele><time>2026-05-02T16:24:33.884Z</time></trkpt><trkpt lat="42.3546098" lon="13.325663"><ele>656.0</ele><time>2026-05-02T16:24:34.875Z</time></trkpt><trkpt lat="42.3546882" lon="13.3258196"><ele>655.5</ele><time>2026-05-02T16:24:35.871Z</time></trkpt><trkpt lat="42.3547695" lon="13.3259865"><ele>655.0</ele><time>2026-05-02T16:24:36.871Z</time></trkpt><trkpt lat="42.3548517" lon="13.3261597"><ele>655.0</ele><time>2026-05-02T16:24:37.871Z</time></trkpt><trkpt lat="42.3549358" lon="13.3263314"><ele>655.0</ele><time>2026-05-02T16:24:38.883Z</time></trkpt><trkpt lat="42.3550337" lon="13.3264999"><ele>655.0</ele><time>2026-05-02T16:24:39.878Z</time></trkpt><trkpt lat="42.355136" lon="13.3266686"><ele>655.0</ele><time>2026-05-02T16:24:40.877Z</time></trkpt><trkpt lat="42.3552445" lon="13.3268332"><ele>655.0</ele><time>2026-05-02T16:24:41.873Z</time></trkpt><trkpt lat="42.3553561" lon="13.3270099"><ele>655.0</ele><time>2026-05-02T16:24:42.889Z</time></trkpt><trkpt lat="42.3554712" lon="13.3271989"><ele>654.3333333333334</ele><time>2026-05-02T16:24:43.877Z</time></trkpt><trkpt lat="42.3555802" lon="13.3273992"><ele>653.6666666666666</ele><time>2026-05-02T16:24:44.861Z</time></trkpt><trkpt lat="42.3556859" lon="13.3276068"><ele>653.0</ele><time>2026-05-02T16:24:45.872Z</time></trkpt><trkpt lat="42.3557942" lon="13.3278019"><ele>653.0</ele><time>2026-05-02T16:24:46.875Z</time></trkpt><trkpt lat="42.3558955" lon="13.3279928"><ele>653.0</ele><time>2026-05-02T16:24:47.891Z</time></trkpt><trkpt lat="42.3559925" lon="13.3281719"><ele>653.0</ele><time>2026-05-02T16:24:48.867Z</time></trkpt><trkpt lat="42.3560853" lon="13.3283453"><ele>652.75</ele><time>2026-05-02T16:24:49.873Z</time></trkpt><trkpt lat="42.356163" lon="13.3285091"><ele>652.5</ele><time>2026-05-02T16:24:50.88Z</time></trkpt><trkpt lat="42.356227" lon="13.3286757"><ele>652.25</ele><time>2026-05-02T16:24:51.883Z</time></trkpt><trkpt lat="42.3562689" lon="13.3288475"><ele>652.0</ele><time>2026-05-02T16:24:52.883Z</time></trkpt><trkpt lat="42.3562734" lon="13.3290255"><ele>652.0</ele><time>2026-05-02T16:24:53.878Z</time></trkpt><trkpt lat="42.3562486" lon="13.3292141"><ele>652.0</ele><time>2026-05-02T16:24:54.896Z</time></trkpt><trkpt lat="42.3562078" lon="13.3293918"><ele>652.0</ele><time>2026-05-02T16:24:55.875Z</time></trkpt><trkpt lat="42.356164" lon="13.3295871"><ele>652.0</ele><time>2026-05-02T16:24:56.884Z</time></trkpt><trkpt lat="42.3561209" lon="13.3297937"><ele>652.0</ele><time>2026-05-02T16:24:57.892Z</time></trkpt><trkpt lat="42.3560826" lon="13.3300173"><ele>652.0</ele><time>2026-05-02T16:24:58.873Z</time></trkpt><trkpt lat="42.3560402" lon="13.3302397"><ele>652.0</ele><time>2026-05-02T16:24:59.89Z</time></trkpt><trkpt lat="42.3559966" lon="13.3304573"><ele>652.3333333333334</ele><time>2026-05-02T16:25:00.882Z</time></trkpt><trkpt lat="42.3559506" lon="13.3306825"><ele>652.6666666666666</ele><time>2026-05-02T16:25:01.872Z</time></trkpt><trkpt lat="42.3559122" lon="13.3309168"><ele>653.0</ele><time>2026-05-02T16:25:02.883Z</time></trkpt><trkpt lat="42.3558856" lon="13.3311564"><ele>652.6666666666666</ele><time>2026-05-02T16:25:03.881Z</time></trkpt><trkpt lat="42.3558643" lon="13.33141"><ele>652.3333333333334</ele><time>2026-05-02T16:25:04.884Z</time></trkpt><trkpt lat="42.3558473" lon="13.3316836"><ele>652.0</ele><time>2026-05-02T16:25:05.886Z</time></trkpt><trkpt lat="42.3558277" lon="13.3319678"><ele>650.0</ele><time>2026-05-02T16:25:06.875Z</time></trkpt><trkpt lat="42.3558091" lon="13.3322763"><ele>648.0</ele><time>2026-05-02T16:25:07.878Z</time></trkpt><trkpt lat="42.3557867" lon="13.3325865"><ele>648.0</ele><time>2026-05-02T16:25:08.892Z</time></trkpt><trkpt lat="42.3557628" lon="13.3328836"><ele>648.0</ele><time>2026-05-02T16:25:09.882Z</time></trkpt><trkpt lat="42.3557464" lon="13.333164"><ele>648.0</ele><time>2026-05-02T16:25:10.877Z</time></trkpt><trkpt lat="42.3557305" lon="13.3334214"><ele>647.6666666666666</ele><time>2026-05-02T16:25:11.887Z</time></trkpt><trkpt lat="42.3557118" lon="13.3336586"><ele>647.3333333333333</ele><time>2026-05-02T16:25:12.883Z</time></trkpt><trkpt lat="42.3556996" lon="13.3338887"><ele>647.0</ele><time>2026-05-02T16:25:13.877Z</time></trkpt><trkpt lat="42.3556865" lon="13.3341054"><ele>646.6666666666666</ele><time>2026-05-02T16:25:14.878Z</time></trkpt><trkpt lat="42.3556771" lon="13.3343202"><ele>646.3333333333334</ele><time>2026-05-02T16:25:15.876Z</time></trkpt><trkpt lat="42.3556745" lon="13.3345307"><ele>646.0</ele><time>2026-05-02T16:25:16.882Z</time></trkpt><trkpt lat="42.3556924" lon="13.3347138"><ele>645.1999999999999</ele><time>2026-05-02T16:25:17.886Z</time></trkpt><trkpt lat="42.3557219" lon="13.3348773"><ele>644.4</ele><time>2026-05-02T16:25:18.885Z</time></trkpt><trkpt lat="42.3557635" lon="13.3350241"><ele>643.6</ele><time>2026-05-02T16:25:19.879Z</time></trkpt><trkpt lat="42.3557975" lon="13.3351384"><ele>642.8</ele><time>2026-05-02T16:25:20.868Z</time></trkpt><trkpt lat="42.355833" lon="13.3352526"><ele>642.0</ele><time>2026-05-02T16:25:21.878Z</time></trkpt><trkpt lat="42.3558774" lon="13.3353477"><ele>642.0</ele><time>2026-05-02T16:25:22.878Z</time></trkpt><trkpt lat="42.3559834" lon="13.3354266"><ele>642.0</ele><time>2026-05-02T16:25:24.877Z</time></trkpt><trkpt lat="42.3561114" lon="13.3354968"><ele>642.0</ele><time>2026-05-02T16:25:26.873Z</time></trkpt><trkpt lat="42.3562027" lon="13.335576"><ele>642.0</ele><time>2026-05-02T16:25:27.867Z</time></trkpt><trkpt lat="42.3562992" lon="13.3356581"><ele>640.6666666666666</ele><time>2026-05-02T16:25:28.869Z</time></trkpt><trkpt lat="42.3564163" lon="13.335767"><ele>639.3333333333333</ele><time>2026-05-02T16:25:29.875Z</time></trkpt><trkpt lat="42.3565561" lon="13.335893"><ele>638.0</ele><time>2026-05-02T16:25:30.868Z</time></trkpt><trkpt lat="42.3567011" lon="13.3360275"><ele>638.0</ele><time>2026-05-02T16:25:31.892Z</time></trkpt><trkpt lat="42.3568357" lon="13.336156"><ele>638.0</ele><time>2026-05-02T16:25:32.872Z</time></trkpt><trkpt lat="42.3569416" lon="13.336269"><ele>638.0</ele><time>2026-05-02T16:25:33.88Z</time></trkpt><trkpt lat="42.3570281" lon="13.3363849"><ele>638.0</ele><time>2026-05-02T16:25:34.87Z</time></trkpt><trkpt lat="42.3570847" lon="13.3364973"><ele>638.5999999999999</ele><time>2026-05-02T16:25:35.879Z</time></trkpt><trkpt lat="42.3570918" lon="13.3366028"><ele>639.1999999999999</ele><time>2026-05-02T16:25:36.876Z</time></trkpt><trkpt lat="42.3570667" lon="13.3367407"><ele>639.8</ele><time>2026-05-02T16:25:37.873Z</time></trkpt><trkpt lat="42.3570247" lon="13.3368956"><ele>640.4</ele><time>2026-05-02T16:25:38.881Z</time></trkpt><trkpt lat="42.3569768" lon="13.3370791"><ele>641.0</ele><time>2026-05-02T16:25:39.873Z</time></trkpt><trkpt lat="42.356934" lon="13.3372949"><ele>641.3333333333333</ele><time>2026-05-02T16:25:40.885Z</time></trkpt><trkpt lat="42.3568946" lon="13.3375301"><ele>641.6666666666666</ele><time>2026-05-02T16:25:41.872Z</time></trkpt><trkpt lat="42.3568494" lon="13.3377804"><ele>642.0</ele><time>2026-05-02T16:25:42.873Z</time></trkpt><trkpt lat="42.356798" lon="13.3380581"><ele>642.3333333333334</ele><time>2026-05-02T16:25:43.873Z</time></trkpt><trkpt lat="42.3567388" lon="13.338344"><ele>642.6666666666667</ele><time>2026-05-02T16:25:44.885Z</time></trkpt><trkpt lat="42.3566791" lon="13.3386398"><ele>643.0</ele><time>2026-05-02T16:25:45.869Z</time></trkpt><trkpt lat="42.3566168" lon="13.3389555"><ele>643.0</ele><time>2026-05-02T16:25:46.877Z</time></trkpt><trkpt lat="42.356554" lon="13.3392776"><ele>643.0</ele><time>2026-05-02T16:25:47.886Z</time></trkpt><trkpt lat="42.3564916" lon="13.3395975"><ele>643.5</ele><time>2026-05-02T16:25:48.884Z</time></trkpt><trkpt lat="42.3564314" lon="13.3399092"><ele>644.0</ele><time>2026-05-02T16:25:49.878Z</time></trkpt><trkpt lat="42.3563713" lon="13.3402202"><ele>641.5</ele><time>2026-05-02T16:25:50.871Z</time></trkpt><trkpt lat="42.3563079" lon="13.3405334"><ele>639.0</ele><time>2026-05-02T16:25:51.875Z</time></trkpt><trkpt lat="42.3562485" lon="13.340845"><ele>639.0</ele><time>2026-05-02T16:25:52.881Z</time></trkpt><trkpt lat="42.3561859" lon="13.3411598"><ele>639.0</ele><time>2026-05-02T16:25:53.867Z</time></trkpt><trkpt lat="42.3561227" lon="13.3414718"><ele>639.0</ele><time>2026-05-02T16:25:54.882Z</time></trkpt><trkpt lat="42.3560656" lon="13.3417821"><ele>639.0</ele><time>2026-05-02T16:25:55.873Z</time></trkpt><trkpt lat="42.3560093" lon="13.3420928"><ele>638.3333333333334</ele><time>2026-05-02T16:25:56.878Z</time></trkpt><trkpt lat="42.3559543" lon="13.3423843"><ele>637.6666666666667</ele><time>2026-05-02T16:25:57.873Z</time></trkpt><trkpt lat="42.3559031" lon="13.3426544"><ele>637.0</ele><time>2026-05-02T16:25:58.87Z</time></trkpt><trkpt lat="42.3558548" lon="13.3429174"><ele>637.3333333333334</ele><time>2026-05-02T16:25:59.867Z</time></trkpt><trkpt lat="42.3558112" lon="13.3431743"><ele>637.6666666666666</ele><time>2026-05-02T16:26:00.876Z</time></trkpt><trkpt lat="42.3557753" lon="13.3434353"><ele>638.0</ele><time>2026-05-02T16:26:01.882Z</time></trkpt><trkpt lat="42.3557655" lon="13.3436965"><ele>637.0</ele><time>2026-05-02T16:26:02.875Z</time></trkpt><trkpt lat="42.3557778" lon="13.3439453"><ele>636.0</ele><time>2026-05-02T16:26:03.878Z</time></trkpt><trkpt lat="42.355818" lon="13.3442361"><ele>635.0</ele><time>2026-05-02T16:26:04.872Z</time></trkpt><trkpt lat="42.3558768" lon="13.3445437"><ele>633.5</ele><time>2026-05-02T16:26:05.874Z</time></trkpt><trkpt lat="42.3559521" lon="13.3448611"><ele>632.0</ele><time>2026-05-02T16:26:06.873Z</time></trkpt><trkpt lat="42.3560329" lon="13.3451879"><ele>632.0</ele><time>2026-05-02T16:26:07.869Z</time></trkpt><trkpt lat="42.3561113" lon="13.3455252"><ele>632.0</ele><time>2026-05-02T16:26:08.875Z</time></trkpt><trkpt lat="42.3561917" lon="13.3458599"><ele>632.0</ele><time>2026-05-02T16:26:09.876Z</time></trkpt><trkpt lat="42.3562709" lon="13.3461842"><ele>632.0</ele><time>2026-05-02T16:26:10.884Z</time></trkpt><trkpt lat="42.3563467" lon="13.3465084"><ele>636.0</ele><time>2026-05-02T16:26:11.866Z</time></trkpt><trkpt lat="42.356417" lon="13.3468255"><ele>640.0</ele><time>2026-05-02T16:26:12.893Z</time></trkpt><trkpt lat="42.3564873" lon="13.3471343"><ele>638.5</ele><time>2026-05-02T16:26:13.867Z</time></trkpt><trkpt lat="42.3565598" lon="13.3474433"><ele>637.0</ele><time>2026-05-02T16:26:14.867Z</time></trkpt><trkpt lat="42.3566309" lon="13.3477315"><ele>637.0</ele><time>2026-05-02T16:26:15.873Z</time></trkpt><trkpt lat="42.3566998" lon="13.3480028"><ele>637.0</ele><time>2026-05-02T16:26:16.882Z</time></trkpt><trkpt lat="42.356763" lon="13.3482494"><ele>637.0</ele><time>2026-05-02T16:26:17.881Z</time></trkpt><trkpt lat="42.3568231" lon="13.3484792"><ele>636.0</ele><time>2026-05-02T16:26:18.882Z</time></trkpt><trkpt lat="42.3568789" lon="13.3486944"><ele>635.0</ele><time>2026-05-02T16:26:19.877Z</time></trkpt><trkpt lat="42.3569264" lon="13.3488955"><ele>634.0</ele><time>2026-05-02T16:26:20.872Z</time></trkpt><trkpt lat="42.3569599" lon="13.3490658"><ele>633.8</ele><time>2026-05-02T16:26:21.879Z</time></trkpt><trkpt lat="42.356982" lon="13.3492216"><ele>633.5999999999999</ele><time>2026-05-02T16:26:22.877Z</time></trkpt><trkpt lat="42.3569873" lon="13.3493301"><ele>633.4</ele><time>2026-05-02T16:26:23.876Z</time></trkpt><trkpt lat="42.3569764" lon="13.3494631"><ele>633.1999999999999</ele><time>2026-05-02T16:26:25.871Z</time></trkpt><trkpt lat="42.3569532" lon="13.3495656"><ele>633.0</ele><time>2026-05-02T16:26:27.871Z</time></trkpt><trkpt lat="42.3569159" lon="13.3497372"><ele>632.6</ele><time>2026-05-02T16:26:29.885Z</time></trkpt><trkpt lat="42.3569068" lon="13.3498284"><ele>632.1999999999999</ele><time>2026-05-02T16:26:30.881Z</time></trkpt><trkpt lat="42.3569039" lon="13.3499184"><ele>631.8</ele><time>2026-05-02T16:26:31.886Z</time></trkpt><trkpt lat="42.3569272" lon="13.3500546"><ele>631.4</ele><time>2026-05-02T16:26:33.891Z</time></trkpt><trkpt lat="42.3569808" lon="13.3501553"><ele>631.0</ele><time>2026-05-02T16:26:35.882Z</time></trkpt><trkpt lat="42.3570849" lon="13.3502574"><ele>631.0</ele><time>2026-05-02T16:26:37.896Z</time></trkpt><trkpt lat="42.3571458" lon="13.3502943"><ele>631.0</ele><time>2026-05-02T16:26:38.881Z</time></trkpt><trkpt lat="42.3572168" lon="13.3503032"><ele>631.0</ele><time>2026-05-02T16:26:39.872Z</time></trkpt><trkpt lat="42.3573339" lon="13.3503104"><ele>631.0</ele><time>2026-05-02T16:26:41.879Z</time></trkpt><trkpt lat="42.357454" lon="13.3503299"><ele>631.0</ele><time>2026-05-02T16:26:43.88Z</time></trkpt><trkpt lat="42.3575226" lon="13.3503584"><ele>631.0</ele><time>2026-05-02T16:26:44.871Z</time></trkpt><trkpt lat="42.3575897" lon="13.3503968"><ele>631.0</ele><time>2026-05-02T16:26:45.878Z</time></trkpt><trkpt lat="42.3576589" lon="13.3504489"><ele>631.0</ele><time>2026-05-02T16:26:46.901Z</time></trkpt><trkpt lat="42.3577284" lon="13.3505239"><ele>631.0</ele><time>2026-05-02T16:26:47.883Z</time></trkpt><trkpt lat="42.357798" lon="13.3506001"><ele>631.0</ele><time>2026-05-02T16:26:48.875Z</time></trkpt><trkpt lat="42.3578651" lon="13.3506717"><ele>631.0</ele><time>2026-05-02T16:26:49.891Z</time></trkpt><trkpt lat="42.3579117" lon="13.3507294"><ele>631.0</ele><time>2026-05-02T16:26:50.887Z</time></trkpt><trkpt lat="42.3579797" lon="13.350822"><ele>630.6666666666667</ele><time>2026-05-02T16:26:52.893Z</time></trkpt><trkpt lat="42.3580643" lon="13.3509001"><ele>630.3333333333334</ele><time>2026-05-02T16:26:54.88Z</time></trkpt><trkpt lat="42.3581161" lon="13.3509556"><ele>630.0</ele><time>2026-05-02T16:26:55.889Z</time></trkpt><trkpt lat="42.3581781" lon="13.3510329"><ele>629.6666666666666</ele><time>2026-05-02T16:26:56.876Z</time></trkpt><trkpt lat="42.3582392" lon="13.3511226"><ele>629.3333333333333</ele><time>2026-05-02T16:26:57.881Z</time></trkpt><trkpt lat="42.3582938" lon="13.351224"><ele>629.0</ele><time>2026-05-02T16:26:58.882Z</time></trkpt><trkpt lat="42.3583518" lon="13.3513374"><ele>628.75</ele><time>2026-05-02T16:26:59.876Z</time></trkpt><trkpt lat="42.3584197" lon="13.351472"><ele>628.5</ele><time>2026-05-02T16:27:00.889Z</time></trkpt><trkpt lat="42.358487" lon="13.3516076"><ele>628.25</ele><time>2026-05-02T16:27:01.879Z</time></trkpt><trkpt lat="42.3585527" lon="13.351739"><ele>628.0</ele><time>2026-05-02T16:27:02.886Z</time></trkpt><trkpt lat="42.358614" lon="13.3518628"><ele>628.0</ele><time>2026-05-02T16:27:03.871Z</time></trkpt><trkpt lat="42.3586653" lon="13.3519773"><ele>628.0</ele><time>2026-05-02T16:27:04.894Z</time></trkpt><trkpt lat="42.3586989" lon="13.3520808"><ele>628.0</ele><time>2026-05-02T16:27:05.876Z</time></trkpt><trkpt lat="42.3587154" lon="13.3521943"><ele>628.0</ele><time>2026-05-02T16:27:07.888Z</time></trkpt><trkpt lat="42.3587172" lon="13.3522972"><ele>628.0</ele><time>2026-05-02T16:27:09.885Z</time></trkpt><trkpt lat="42.3587179" lon="13.3524748"><ele>628.0</ele><time>2026-05-02T16:27:11.884Z</time></trkpt><trkpt lat="42.3587488" lon="13.3525742"><ele>628.0</ele><time>2026-05-02T16:27:12.889Z</time></trkpt><trkpt lat="42.3588028" lon="13.352692"><ele>628.0</ele><time>2026-05-02T16:27:13.883Z</time></trkpt><trkpt lat="42.3588686" lon="13.3528087"><ele>628.0</ele><time>2026-05-02T16:27:14.897Z</time></trkpt><trkpt lat="42.3589389" lon="13.3529533"><ele>628.0</ele><time>2026-05-02T16:27:15.896Z</time></trkpt><trkpt lat="42.358996" lon="13.3531292"><ele>628.0</ele><time>2026-05-02T16:27:16.886Z</time></trkpt><trkpt lat="42.3590444" lon="13.3533123"><ele>628.0</ele><time>2026-05-02T16:27:17.879Z</time></trkpt><trkpt lat="42.3590916" lon="13.3535034"><ele>628.0</ele><time>2026-05-02T16:27:18.892Z</time></trkpt><trkpt lat="42.3591403" lon="13.3536821"><ele>628.0</ele><time>2026-05-02T16:27:19.887Z</time></trkpt><trkpt lat="42.3591965" lon="13.3538804"><ele>628.0</ele><time>2026-05-02T16:27:20.887Z</time></trkpt><trkpt lat="42.3592623" lon="13.3540943"><ele>628.0</ele><time>2026-05-02T16:27:21.888Z</time></trkpt><trkpt lat="42.3593311" lon="13.354336"><ele>628.0</ele><time>2026-05-02T16:27:22.879Z</time></trkpt><trkpt lat="42.3593919" lon="13.3545805"><ele>628.0</ele><time>2026-05-02T16:27:23.878Z</time></trkpt><trkpt lat="42.3594547" lon="13.3548316"><ele>628.0</ele><time>2026-05-02T16:27:24.879Z</time></trkpt><trkpt lat="42.3595149" lon="13.3550729"><ele>628.0</ele><time>2026-05-02T16:27:25.879Z</time></trkpt><trkpt lat="42.3595693" lon="13.3553017"><ele>628.0</ele><time>2026-05-02T16:27:26.893Z</time></trkpt><trkpt lat="42.3596267" lon="13.3555031"><ele>628.0</ele><time>2026-05-02T16:27:27.89Z</time></trkpt><trkpt lat="42.3596783" lon="13.3556943"><ele>628.0</ele><time>2026-05-02T16:27:28.875Z</time></trkpt><trkpt lat="42.3597285" lon="13.35587"><ele>628.0</ele><time>2026-05-02T16:27:29.884Z</time></trkpt><trkpt lat="42.3597735" lon="13.3560403"><ele>627.5</ele><time>2026-05-02T16:27:30.876Z</time></trkpt><trkpt lat="42.3598164" lon="13.3562061"><ele>627.0</ele><time>2026-05-02T16:27:31.879Z</time></trkpt><trkpt lat="42.35986" lon="13.3563806"><ele>626.5</ele><time>2026-05-02T16:27:32.883Z</time></trkpt><trkpt lat="42.3599077" lon="13.3565682"><ele>626.0</ele><time>2026-05-02T16:27:33.887Z</time></trkpt><trkpt lat="42.3599484" lon="13.3567603"><ele>626.0</ele><time>2026-05-02T16:27:34.889Z</time></trkpt><trkpt lat="42.3599878" lon="13.3569615"><ele>626.0</ele><time>2026-05-02T16:27:35.896Z</time></trkpt><trkpt lat="42.3600142" lon="13.3571751"><ele>626.0</ele><time>2026-05-02T16:27:36.89Z</time></trkpt><trkpt lat="42.360035" lon="13.3573905"><ele>626.0</ele><time>2026-05-02T16:27:37.882Z</time></trkpt><trkpt lat="42.3600395" lon="13.3576182"><ele>626.0</ele><time>2026-05-02T16:27:38.881Z</time></trkpt><trkpt lat="42.3600386" lon="13.3578441"><ele>626.0</ele><time>2026-05-02T16:27:39.897Z</time></trkpt><trkpt lat="42.3600248" lon="13.3580625"><ele>626.0</ele><time>2026-05-02T16:27:40.89Z</time></trkpt><trkpt lat="42.3600043" lon="13.3582797"><ele>626.0</ele><time>2026-05-02T16:27:41.888Z</time></trkpt><trkpt lat="42.3599702" lon="13.3584988"><ele>626.0</ele><time>2026-05-02T16:27:42.868Z</time></trkpt><trkpt lat="42.3599222" lon="13.3587173"><ele>624.6666666666666</ele><time>2026-05-02T16:27:43.883Z</time></trkpt><trkpt lat="42.3598559" lon="13.3589601"><ele>623.3333333333334</ele><time>2026-05-02T16:27:44.881Z</time></trkpt><trkpt lat="42.3597819" lon="13.359208"><ele>622.0</ele><time>2026-05-02T16:27:45.884Z</time></trkpt><trkpt lat="42.3597015" lon="13.359451"><ele>622.6666666666667</ele><time>2026-05-02T16:27:46.878Z</time></trkpt><trkpt lat="42.3596186" lon="13.3596925"><ele>623.3333333333334</ele><time>2026-05-02T16:27:47.882Z</time></trkpt><trkpt lat="42.3595454" lon="13.3599394"><ele>624.0</ele><time>2026-05-02T16:27:48.884Z</time></trkpt><trkpt lat="42.3594705" lon="13.3601874"><ele>625.0</ele><time>2026-05-02T16:27:49.884Z</time></trkpt><trkpt lat="42.3594016" lon="13.3604471"><ele>626.0</ele><time>2026-05-02T16:27:50.878Z</time></trkpt><trkpt lat="42.3593305" lon="13.3607089"><ele>627.0</ele><time>2026-05-02T16:27:51.884Z</time></trkpt><trkpt lat="42.3592584" lon="13.3609654"><ele>627.3333333333334</ele><time>2026-05-02T16:27:52.887Z</time></trkpt><trkpt lat="42.3591866" lon="13.3612208"><ele>627.6666666666667</ele><time>2026-05-02T16:27:53.885Z</time></trkpt><trkpt lat="42.3591109" lon="13.3614753"><ele>628.0</ele><time>2026-05-02T16:27:54.889Z</time></trkpt><trkpt lat="42.3590417" lon="13.361721"><ele>627.3333333333334</ele><time>2026-05-02T16:27:55.876Z</time></trkpt><trkpt lat="42.3589613" lon="13.3619372"><ele>626.6666666666666</ele><time>2026-05-02T16:27:56.875Z</time></trkpt><trkpt lat="42.3588912" lon="13.3621635"><ele>626.0</ele><time>2026-05-02T16:27:57.88Z</time></trkpt><trkpt lat="42.3588253" lon="13.3623752"><ele>626.0</ele><time>2026-05-02T16:27:58.882Z</time></trkpt><trkpt lat="42.3587683" lon="13.3625793"><ele>626.0</ele><time>2026-05-02T16:27:59.873Z</time></trkpt><trkpt lat="42.3587171" lon="13.3627938"><ele>626.0</ele><time>2026-05-02T16:28:00.884Z</time></trkpt><trkpt lat="42.3586614" lon="13.3629914"><ele>626.6666666666666</ele><time>2026-05-02T16:28:01.882Z</time></trkpt><trkpt lat="42.3585967" lon="13.3631935"><ele>627.3333333333334</ele><time>2026-05-02T16:28:02.884Z</time></trkpt><trkpt lat="42.3585372" lon="13.3633875"><ele>628.0</ele><time>2026-05-02T16:28:03.881Z</time></trkpt><trkpt lat="42.3584851" lon="13.3635749"><ele>628.0</ele><time>2026-05-02T16:28:04.875Z</time></trkpt><trkpt lat="42.3584428" lon="13.3637481"><ele>628.0</ele><time>2026-05-02T16:28:05.878Z</time></trkpt><trkpt lat="42.3584069" lon="13.3639115"><ele>628.0</ele><time>2026-05-02T16:28:06.886Z</time></trkpt><trkpt lat="42.358372" lon="13.364072"><ele>628.0</ele><time>2026-05-02T16:28:07.875Z</time></trkpt><trkpt lat="42.3583355" lon="13.3642166"><ele>628.25</ele><time>2026-05-02T16:28:08.889Z</time></trkpt><trkpt lat="42.3583016" lon="13.364351"><ele>628.5</ele><time>2026-05-02T16:28:09.876Z</time></trkpt><trkpt lat="42.3582726" lon="13.364492"><ele>628.75</ele><time>2026-05-02T16:28:10.881Z</time></trkpt><trkpt lat="42.358253" lon="13.3646504"><ele>629.0</ele><time>2026-05-02T16:28:11.878Z</time></trkpt><trkpt lat="42.3582354" lon="13.3648228"><ele>629.0</ele><time>2026-05-02T16:28:12.882Z</time></trkpt><trkpt lat="42.3582221" lon="13.3650128"><ele>629.0</ele><time>2026-05-02T16:28:13.882Z</time></trkpt><trkpt lat="42.3582135" lon="13.3652065"><ele>629.0</ele><time>2026-05-02T16:28:14.886Z</time></trkpt><trkpt lat="42.3582107" lon="13.365404"><ele>629.0</ele><time>2026-05-02T16:28:15.889Z</time></trkpt><trkpt lat="42.3582175" lon="13.3656134"><ele>628.3333333333333</ele><time>2026-05-02T16:28:16.878Z</time></trkpt><trkpt lat="42.3582404" lon="13.3658314"><ele>627.6666666666666</ele><time>2026-05-02T16:28:17.883Z</time></trkpt><trkpt lat="42.3582911" lon="13.3660352"><ele>627.0</ele><time>2026-05-02T16:28:18.874Z</time></trkpt><trkpt lat="42.3583526" lon="13.3662225"><ele>627.3333333333334</ele><time>2026-05-02T16:28:19.888Z</time></trkpt><trkpt lat="42.3584119" lon="13.3664113"><ele>627.6666666666667</ele><time>2026-05-02T16:28:20.878Z</time></trkpt><trkpt lat="42.3584865" lon="13.3665839"><ele>628.0</ele><time>2026-05-02T16:28:21.881Z</time></trkpt><trkpt lat="42.3585705" lon="13.3667535"><ele>628.0</ele><time>2026-05-02T16:28:22.88Z</time></trkpt><trkpt lat="42.358642" lon="13.3669139"><ele>628.0</ele><time>2026-05-02T16:28:23.88Z</time></trkpt><trkpt lat="42.3587035" lon="13.3670729"><ele>628.0</ele><time>2026-05-02T16:28:24.892Z</time></trkpt><trkpt lat="42.358767" lon="13.3672226"><ele>628.0</ele><time>2026-05-02T16:28:25.881Z</time></trkpt><trkpt lat="42.3588176" lon="13.3673652"><ele>628.1666666666667</ele><time>2026-05-02T16:28:26.896Z</time></trkpt><trkpt lat="42.3588576" lon="13.3674903"><ele>628.3333333333334</ele><time>2026-05-02T16:28:27.887Z</time></trkpt><trkpt lat="42.3588983" lon="13.3676114"><ele>628.5</ele><time>2026-05-02T16:28:28.888Z</time></trkpt><trkpt lat="42.3589324" lon="13.3677147"><ele>628.6666666666666</ele><time>2026-05-02T16:28:29.876Z</time></trkpt><trkpt lat="42.3589588" lon="13.367813"><ele>628.8333333333333</ele><time>2026-05-02T16:28:30.882Z</time></trkpt><trkpt lat="42.3589779" lon="13.3679238"><ele>629.0</ele><time>2026-05-02T16:28:31.887Z</time></trkpt><trkpt lat="42.358995" lon="13.3680307"><ele>629.0</ele><time>2026-05-02T16:28:32.88Z</time></trkpt><trkpt lat="42.3590248" lon="13.3681287"><ele>629.0</ele><time>2026-05-02T16:28:33.872Z</time></trkpt><trkpt lat="42.359058" lon="13.3682348"><ele>629.0</ele><time>2026-05-02T16:28:34.885Z</time></trkpt><trkpt lat="42.3590866" lon="13.3683374"><ele>629.0</ele><time>2026-05-02T16:28:35.88Z</time></trkpt><trkpt lat="42.3591095" lon="13.3684446"><ele>629.0</ele><time>2026-05-02T16:28:36.88Z</time></trkpt><trkpt lat="42.3591277" lon="13.3685573"><ele>629.0</ele><time>2026-05-02T16:28:37.875Z</time></trkpt><trkpt lat="42.3591481" lon="13.3686644"><ele>629.0</ele><time>2026-05-02T16:28:38.878Z</time></trkpt><trkpt lat="42.3591654" lon="13.3687723"><ele>629.0</ele><time>2026-05-02T16:28:39.885Z</time></trkpt><trkpt lat="42.3591828" lon="13.3688887"><ele>629.0</ele><time>2026-05-02T16:28:40.885Z</time></trkpt><trkpt lat="42.359204" lon="13.3690111"><ele>629.0</ele><time>2026-05-02T16:28:41.892Z</time></trkpt><trkpt lat="42.3592397" lon="13.3691568"><ele>629.0</ele><time>2026-05-02T16:28:42.887Z</time></trkpt><trkpt lat="42.3592763" lon="13.3693273"><ele>629.25</ele><time>2026-05-02T16:28:43.889Z</time></trkpt><trkpt lat="42.359304" lon="13.3695038"><ele>629.5</ele><time>2026-05-02T16:28:44.89Z</time></trkpt><trkpt lat="42.3593233" lon="13.3696857"><ele>629.75</ele><time>2026-05-02T16:28:45.883Z</time></trkpt><trkpt lat="42.3593448" lon="13.369867"><ele>630.0</ele><time>2026-05-02T16:28:46.871Z</time></trkpt><trkpt lat="42.3593652" lon="13.3700374"><ele>630.4</ele><time>2026-05-02T16:28:47.885Z</time></trkpt><trkpt lat="42.3593859" lon="13.3701906"><ele>630.8</ele><time>2026-05-02T16:28:48.875Z</time></trkpt><trkpt lat="42.3594038" lon="13.3703302"><ele>631.2</ele><time>2026-05-02T16:28:49.897Z</time></trkpt><trkpt lat="42.3594222" lon="13.3704599"><ele>631.6</ele><time>2026-05-02T16:28:50.873Z</time></trkpt><trkpt lat="42.359441" lon="13.3705725"><ele>632.0</ele><time>2026-05-02T16:28:51.88Z</time></trkpt><trkpt lat="42.3594595" lon="13.3706619"><ele>632.7142857142858</ele><time>2026-05-02T16:28:52.879Z</time></trkpt><trkpt lat="42.3594769" lon="13.3707551"><ele>633.4285714285714</ele><time>2026-05-02T16:28:53.884Z</time></trkpt><trkpt lat="42.3594923" lon="13.3708536"><ele>634.1428571428571</ele><time>2026-05-02T16:28:54.886Z</time></trkpt><trkpt lat="42.3595039" lon="13.370955"><ele>634.8571428571429</ele><time>2026-05-02T16:28:55.884Z</time></trkpt><trkpt lat="42.3595157" lon="13.3710509"><ele>635.5714285714286</ele><time>2026-05-02T16:28:56.884Z</time></trkpt><trkpt lat="42.3595268" lon="13.3711434"><ele>636.2857142857143</ele><time>2026-05-02T16:28:57.877Z</time></trkpt><trkpt lat="42.3595412" lon="13.3712412"><ele>637.0</ele><time>2026-05-02T16:28:58.882Z</time></trkpt><trkpt lat="42.3595627" lon="13.3713408"><ele>637.1666666666667</ele><time>2026-05-02T16:28:59.878Z</time></trkpt><trkpt lat="42.3595864" lon="13.3714492"><ele>637.3333333333334</ele><time>2026-05-02T16:29:00.886Z</time></trkpt><trkpt lat="42.3596047" lon="13.3715664"><ele>637.5</ele><time>2026-05-02T16:29:01.887Z</time></trkpt><trkpt lat="42.3596212" lon="13.3716822"><ele>637.6666666666666</ele><time>2026-05-02T16:29:02.886Z</time></trkpt><trkpt lat="42.3596365" lon="13.3717981"><ele>637.8333333333333</ele><time>2026-05-02T16:29:03.881Z</time></trkpt><trkpt lat="42.3596511" lon="13.3719127"><ele>638.0</ele><time>2026-05-02T16:29:04.874Z</time></trkpt><trkpt lat="42.3596737" lon="13.3720344"><ele>638.0</ele><time>2026-05-02T16:29:05.892Z</time></trkpt><trkpt lat="42.3596938" lon="13.3721504"><ele>638.0</ele><time>2026-05-02T16:29:06.881Z</time></trkpt><trkpt lat="42.3597075" lon="13.3722525"><ele>638.0</ele><time>2026-05-02T16:29:07.894Z</time></trkpt><trkpt lat="42.3597234" lon="13.3723489"><ele>638.0</ele><time>2026-05-02T16:29:08.868Z</time></trkpt><trkpt lat="42.3597388" lon="13.3724582"><ele>638.0</ele><time>2026-05-02T16:29:09.883Z</time></trkpt><trkpt lat="42.3597612" lon="13.3725908"><ele>638.0</ele><time>2026-05-02T16:29:10.881Z</time></trkpt><trkpt lat="42.3597828" lon="13.3727441"><ele>638.75</ele><time>2026-05-02T16:29:11.879Z</time></trkpt><trkpt lat="42.3598088" lon="13.3729296"><ele>639.5</ele><time>2026-05-02T16:29:12.878Z</time></trkpt><trkpt lat="42.3598425" lon="13.3731214"><ele>640.25</ele><time>2026-05-02T16:29:13.888Z</time></trkpt><trkpt lat="42.359875" lon="13.3733122"><ele>641.0</ele><time>2026-05-02T16:29:14.891Z</time></trkpt><trkpt lat="42.3599025" lon="13.3734879"><ele>641.5</ele><time>2026-05-02T16:29:15.884Z</time></trkpt><trkpt lat="42.3599247" lon="13.3736125"><ele>642.0</ele><time>2026-05-02T16:29:16.887Z</time></trkpt><trkpt lat="42.3599492" lon="13.3737157"><ele>642.5</ele><time>2026-05-02T16:29:17.884Z</time></trkpt><trkpt lat="42.3599869" lon="13.3738001"><ele>643.0</ele><time>2026-05-02T16:29:18.88Z</time></trkpt><trkpt lat="42.3600632" lon="13.3738778"><ele>643.5</ele><time>2026-05-02T16:29:20.894Z</time></trkpt><trkpt lat="42.3601031" lon="13.3739495"><ele>644.0</ele><time>2026-05-02T16:29:26.898Z</time></trkpt><trkpt lat="42.3600718" lon="13.37403"><ele>644.1666666666666</ele><time>2026-05-02T16:31:00.884Z</time></trkpt><trkpt lat="42.3600704" lon="13.3741429"><ele>644.3333333333333</ele><time>2026-05-02T16:34:37.889Z</time></trkpt><trkpt lat="42.3600864" lon="13.374243"><ele>644.5</ele><time>2026-05-02T16:34:39.882Z</time></trkpt><trkpt lat="42.3600836" lon="13.3743476"><ele>644.6666666666666</ele><time>2026-05-02T16:34:41.893Z</time></trkpt><trkpt lat="42.3600723" lon="13.374438"><ele>644.8333333333334</ele><time>2026-05-02T16:34:42.887Z</time></trkpt><trkpt lat="42.3600555" lon="13.374583"><ele>645.0</ele><time>2026-05-02T16:34:43.878Z</time></trkpt><trkpt lat="42.3600748" lon="13.3747659"><ele>645.3333333333334</ele><time>2026-05-02T16:34:44.881Z</time></trkpt><trkpt lat="42.3601065" lon="13.3749955"><ele>645.6666666666667</ele><time>2026-05-02T16:34:45.877Z</time></trkpt><trkpt lat="42.3601364" lon="13.3752419"><ele>646.0</ele><time>2026-05-02T16:34:46.888Z</time></trkpt><trkpt lat="42.3601522" lon="13.3754421"><ele>646.4</ele><time>2026-05-02T16:34:47.874Z</time></trkpt><trkpt lat="42.3601799" lon="13.3755903"><ele>646.8</ele><time>2026-05-02T16:34:48.888Z</time></trkpt><trkpt lat="42.3602076" lon="13.3757198"><ele>647.1999999999999</ele><time>2026-05-02T16:34:49.878Z</time></trkpt><trkpt lat="42.3602248" lon="13.3758475"><ele>647.5999999999999</ele><time>2026-05-02T16:34:50.882Z</time></trkpt><trkpt lat="42.3602451" lon="13.375956"><ele>648.0</ele><time>2026-05-02T16:34:51.88Z</time></trkpt><trkpt lat="42.3602587" lon="13.3760606"><ele>648.0</ele><time>2026-05-02T16:34:52.888Z</time></trkpt><trkpt lat="42.3602773" lon="13.3761964"><ele>648.0</ele><time>2026-05-02T16:34:53.882Z</time></trkpt><trkpt lat="42.3602916" lon="13.3763435"><ele>648.0</ele><time>2026-05-02T16:34:54.887Z</time></trkpt><trkpt lat="42.3603112" lon="13.3764778"><ele>648.0</ele><time>2026-05-02T16:34:55.871Z</time></trkpt><trkpt lat="42.3603242" lon="13.3765903"><ele>648.0</ele><time>2026-05-02T16:34:56.88Z</time></trkpt><trkpt lat="42.3603356" lon="13.3766826"><ele>648.4</ele><time>2026-05-02T16:34:57.881Z</time></trkpt><trkpt lat="42.3603514" lon="13.3767775"><ele>648.8</ele><time>2026-05-02T16:34:58.879Z</time></trkpt><trkpt lat="42.3603716" lon="13.3768856"><ele>649.2</ele><time>2026-05-02T16:34:59.885Z</time></trkpt><trkpt lat="42.3603861" lon="13.376982"><ele>649.6</ele><time>2026-05-02T16:35:00.878Z</time></trkpt><trkpt lat="42.3603928" lon="13.3771462"><ele>650.0</ele><time>2026-05-02T16:35:02.881Z</time></trkpt><trkpt lat="42.3603957" lon="13.3772952"><ele>650.0</ele><time>2026-05-02T16:35:04.888Z</time></trkpt><trkpt lat="42.3603964" lon="13.3774512"><ele>650.0</ele><time>2026-05-02T16:35:06.884Z</time></trkpt><trkpt lat="42.3603972" lon="13.3775409"><ele>650.0</ele><time>2026-05-02T16:35:07.879Z</time></trkpt><trkpt lat="42.3603909" lon="13.377632"><ele>650.0</ele><time>2026-05-02T16:35:08.876Z</time></trkpt><trkpt lat="42.3603833" lon="13.3777677"><ele>650.0</ele><time>2026-05-02T16:35:10.887Z</time></trkpt><trkpt lat="42.3603833" lon="13.3779326"><ele>650.1666666666666</ele><time>2026-05-02T16:35:12.887Z</time></trkpt><trkpt lat="42.3604169" lon="13.37808"><ele>650.3333333333333</ele><time>2026-05-02T16:35:14.877Z</time></trkpt><trkpt lat="42.3604775" lon="13.3781137"><ele>650.5</ele><time>2026-05-02T16:35:15.883Z</time></trkpt><trkpt lat="42.3605779" lon="13.3780674"><ele>650.6666666666666</ele><time>2026-05-02T16:35:17.886Z</time></trkpt><trkpt lat="42.3606202" lon="13.3779959"><ele>650.8333333333334</ele><time>2026-05-02T16:35:18.876Z</time></trkpt><trkpt lat="42.3606648" lon="13.3778907"><ele>651.0</ele><time>2026-05-02T16:35:19.884Z</time></trkpt><trkpt lat="42.3607015" lon="13.3777486"><ele>650.8</ele><time>2026-05-02T16:35:20.871Z</time></trkpt><trkpt lat="42.360748" lon="13.3776077"><ele>650.5999999999999</ele><time>2026-05-02T16:35:21.898Z</time></trkpt><trkpt lat="42.3607969" lon="13.3774663"><ele>650.4</ele><time>2026-05-02T16:35:22.87Z</time></trkpt><trkpt lat="42.3608384" lon="13.37733"><ele>650.2</ele><time>2026-05-02T16:35:23.889Z</time></trkpt><trkpt lat="42.3608797" lon="13.3772124"><ele>650.0</ele><time>2026-05-02T16:35:24.894Z</time></trkpt><trkpt lat="42.3609177" lon="13.3771078"><ele>650.0</ele><time>2026-05-02T16:35:25.89Z</time></trkpt><trkpt lat="42.3609525" lon="13.3769934"><ele>650.0</ele><time>2026-05-02T16:35:26.876Z</time></trkpt><trkpt lat="42.3609906" lon="13.3768675"><ele>650.0</ele><time>2026-05-02T16:35:27.902Z</time></trkpt><trkpt lat="42.3610456" lon="13.3767127"><ele>650.0</ele><time>2026-05-02T16:35:28.876Z</time></trkpt><trkpt lat="42.3611034" lon="13.376547"><ele>650.0</ele><time>2026-05-02T16:35:29.888Z</time></trkpt><trkpt lat="42.3611596" lon="13.3763738"><ele>650.0</ele><time>2026-05-02T16:35:30.878Z</time></trkpt><trkpt lat="42.3612126" lon="13.3762032"><ele>650.0</ele><time>2026-05-02T16:35:31.907Z</time></trkpt><trkpt lat="42.3612571" lon="13.3760545"><ele>650.0</ele><time>2026-05-02T16:35:32.881Z</time></trkpt><trkpt lat="42.3613025" lon="13.3759158"><ele>649.75</ele><time>2026-05-02T16:35:33.877Z</time></trkpt><trkpt lat="42.361352" lon="13.3757652"><ele>649.5</ele><time>2026-05-02T16:35:34.889Z</time></trkpt><trkpt lat="42.3614054" lon="13.3756087"><ele>649.25</ele><time>2026-05-02T16:35:35.869Z</time></trkpt><trkpt lat="42.3614616" lon="13.3754426"><ele>649.0</ele><time>2026-05-02T16:35:36.891Z</time></trkpt><trkpt lat="42.3615115" lon="13.3752892"><ele>648.75</ele><time>2026-05-02T16:35:37.884Z</time></trkpt><trkpt lat="42.3615563" lon="13.3751424"><ele>648.5</ele><time>2026-05-02T16:35:38.871Z</time></trkpt><trkpt lat="42.3616063" lon="13.3749952"><ele>648.25</ele><time>2026-05-02T16:35:39.876Z</time></trkpt><trkpt lat="42.3616571" lon="13.3748488"><ele>648.0</ele><time>2026-05-02T16:35:40.871Z</time></trkpt><trkpt lat="42.3617081" lon="13.374699"><ele>648.0</ele><time>2026-05-02T16:35:41.891Z</time></trkpt><trkpt lat="42.3617569" lon="13.3745628"><ele>648.0</ele><time>2026-05-02T16:35:42.882Z</time></trkpt><trkpt lat="42.3617957" lon="13.3744426"><ele>648.0</ele><time>2026-05-02T16:35:43.874Z</time></trkpt><trkpt lat="42.3618339" lon="13.3743255"><ele>648.0</ele><time>2026-05-02T16:35:44.888Z</time></trkpt><trkpt lat="42.3618793" lon="13.3741691"><ele>648.0</ele><time>2026-05-02T16:35:45.881Z</time></trkpt><trkpt lat="42.3619419" lon="13.3739824"><ele>647.0</ele><time>2026-05-02T16:35:46.888Z</time></trkpt><trkpt lat="42.3620093" lon="13.3737762"><ele>646.0</ele><time>2026-05-02T16:35:47.877Z</time></trkpt><trkpt lat="42.3620784" lon="13.373561"><ele>645.0</ele><time>2026-05-02T16:35:48.877Z</time></trkpt><trkpt lat="42.3621491" lon="13.3733605"><ele>645.25</ele><time>2026-05-02T16:35:49.878Z</time></trkpt><trkpt lat="42.3622151" lon="13.3731642"><ele>645.5</ele><time>2026-05-02T16:35:50.883Z</time></trkpt><trkpt lat="42.3622725" lon="13.3730062"><ele>645.75</ele><time>2026-05-02T16:35:51.865Z</time></trkpt><trkpt lat="42.3622864" lon="13.3728629"><ele>646.0</ele><time>2026-05-02T16:35:52.878Z</time></trkpt><trkpt lat="42.3622664" lon="13.3727264"><ele>645.4</ele><time>2026-05-02T16:35:53.876Z</time></trkpt><trkpt lat="42.3622202" lon="13.3726068"><ele>644.8</ele><time>2026-05-02T16:35:54.884Z</time></trkpt><trkpt lat="42.3621526" lon="13.3725113"><ele>644.1999999999999</ele><time>2026-05-02T16:35:55.899Z</time></trkpt><trkpt lat="42.3620518" lon="13.3724376"><ele>643.5999999999999</ele><time>2026-05-02T16:35:56.875Z</time></trkpt><trkpt lat="42.3619341" lon="13.3723709"><ele>643.0</ele><time>2026-05-02T16:35:57.889Z</time></trkpt><trkpt lat="42.3617974" lon="13.3723256"><ele>643.0</ele><time>2026-05-02T16:35:58.883Z</time></trkpt><trkpt lat="42.3616472" lon="13.3722918"><ele>643.0</ele><time>2026-05-02T16:35:59.882Z</time></trkpt><trkpt lat="42.3614842" lon="13.372279"><ele>643.0</ele><time>2026-05-02T16:36:00.882Z</time></trkpt><trkpt lat="42.3613136" lon="13.3722706"><ele>643.0</ele><time>2026-05-02T16:36:01.882Z</time></trkpt><trkpt lat="42.3611402" lon="13.3722797"><ele>643.0</ele><time>2026-05-02T16:36:02.879Z</time></trkpt><trkpt lat="42.3609643" lon="13.3723063"><ele>643.0</ele><time>2026-05-02T16:36:03.881Z</time></trkpt><trkpt lat="42.3607876" lon="13.3723548"><ele>643.0</ele><time>2026-05-02T16:36:04.879Z</time></trkpt><trkpt lat="42.3606249" lon="13.3724148"><ele>643.0</ele><time>2026-05-02T16:36:05.867Z</time></trkpt><trkpt lat="42.3604726" lon="13.3724968"><ele>643.0</ele><time>2026-05-02T16:36:06.877Z</time></trkpt><trkpt lat="42.3603344" lon="13.3725725"><ele>642.5999999999999</ele><time>2026-05-02T16:36:07.871Z</time></trkpt><trkpt lat="42.3602079" lon="13.3726452"><ele>642.1999999999999</ele><time>2026-05-02T16:36:08.884Z</time></trkpt><trkpt lat="42.3600973" lon="13.3727168"><ele>641.8</ele><time>2026-05-02T16:36:09.891Z</time></trkpt><trkpt lat="42.3600166" lon="13.3727687"><ele>641.4</ele><time>2026-05-02T16:36:10.88Z</time></trkpt><trkpt lat="42.3599579" lon="13.3728195"><ele>641.0</ele><time>2026-05-02T16:36:11.889Z</time></trkpt><trkpt lat="42.3598958" lon="13.3729708"><ele>641.5999999999999</ele><time>2026-05-02T16:36:13.88Z</time></trkpt><trkpt lat="42.3598937" lon="13.3730954"><ele>642.2</ele><time>2026-05-02T16:36:14.873Z</time></trkpt><trkpt lat="42.3599056" lon="13.3732432"><ele>642.8</ele><time>2026-05-02T16:36:15.873Z</time></trkpt><trkpt lat="42.3599166" lon="13.3734128"><ele>643.4000000000001</ele><time>2026-05-02T16:36:16.886Z</time></trkpt><trkpt lat="42.3599448" lon="13.3735722"><ele>644.0</ele><time>2026-05-02T16:36:17.882Z</time></trkpt><trkpt lat="42.3599621" lon="13.3737002"><ele>644.0</ele><time>2026-05-02T16:36:18.882Z</time></trkpt><trkpt lat="42.3599939" lon="13.3738075"><ele>644.0</ele><time>2026-05-02T16:36:19.889Z</time></trkpt><trkpt lat="42.3600316" lon="13.3738982"><ele>644.0</ele><time>2026-05-02T16:36:20.889Z</time></trkpt><trkpt lat="42.360071" lon="13.3740152"><ele>644.0</ele><time>2026-05-02T16:36:22.881Z</time></trkpt><trkpt lat="42.3600535" lon="13.3741292"><ele>644.0</ele><time>2026-05-02T16:37:31.887Z</time></trkpt><trkpt lat="42.3600543" lon="13.3742218"><ele>644.0</ele><time>2026-05-02T16:37:32.873Z</time></trkpt><trkpt lat="42.3600463" lon="13.3743482"><ele>644.3333333333333</ele><time>2026-05-02T16:37:33.883Z</time></trkpt><trkpt lat="42.3600444" lon="13.3745157"><ele>644.6666666666666</ele><time>2026-05-02T16:37:34.884Z</time></trkpt><trkpt lat="42.3600722" lon="13.3747293"><ele>645.0</ele><time>2026-05-02T16:37:35.889Z</time></trkpt><trkpt lat="42.3601065" lon="13.3749579"><ele>645.3333333333334</ele><time>2026-05-02T16:37:36.887Z</time></trkpt><trkpt lat="42.3601481" lon="13.3751949"><ele>645.6666666666667</ele><time>2026-05-02T16:37:37.889Z</time></trkpt><trkpt lat="42.3601935" lon="13.3754134"><ele>646.0</ele><time>2026-05-02T16:37:38.895Z</time></trkpt><trkpt lat="42.360222" lon="13.3756155"><ele>646.5</ele><time>2026-05-02T16:37:39.882Z</time></trkpt><trkpt lat="42.3602406" lon="13.3757934"><ele>647.0</ele><time>2026-05-02T16:37:40.885Z</time></trkpt><trkpt lat="42.3602659" lon="13.3759931"><ele>647.5</ele><time>2026-05-02T16:37:41.885Z</time></trkpt><trkpt lat="42.3602861" lon="13.3762061"><ele>648.0</ele><time>2026-05-02T16:37:42.876Z</time></trkpt><trkpt lat="42.3603129" lon="13.3764488"><ele>648.6666666666666</ele><time>2026-05-02T16:37:43.884Z</time></trkpt><trkpt lat="42.3603452" lon="13.3767002"><ele>649.3333333333333</ele><time>2026-05-02T16:37:44.884Z</time></trkpt><trkpt lat="42.3603677" lon="13.3769514"><ele>650.0</ele><time>2026-05-02T16:37:45.872Z</time></trkpt><trkpt lat="42.3603852" lon="13.3771813"><ele>650.0</ele><time>2026-05-02T16:37:46.885Z</time></trkpt><trkpt lat="42.3603936" lon="13.3773754"><ele>650.0</ele><time>2026-05-02T16:37:47.891Z</time></trkpt><trkpt lat="42.3603933" lon="13.3775654"><ele>650.0</ele><time>2026-05-02T16:37:48.887Z</time></trkpt><trkpt lat="42.3603907" lon="13.3777651"><ele>650.0</ele><time>2026-05-02T16:37:49.886Z</time></trkpt><trkpt lat="42.3603758" lon="13.3779459"><ele>650.2</ele><time>2026-05-02T16:37:50.881Z</time></trkpt><trkpt lat="42.3603616" lon="13.3781086"><ele>650.4</ele><time>2026-05-02T16:37:51.883Z</time></trkpt><trkpt lat="42.3603468" lon="13.3782648"><ele>650.5999999999999</ele><time>2026-05-02T16:37:52.888Z</time></trkpt><trkpt lat="42.360328" lon="13.3784099"><ele>650.8</ele><time>2026-05-02T16:37:53.883Z</time></trkpt><trkpt lat="42.3603033" lon="13.3785432"><ele>651.0</ele><time>2026-05-02T16:37:54.897Z</time></trkpt><trkpt lat="42.3602764" lon="13.3786739"><ele>651.0</ele><time>2026-05-02T16:37:55.891Z</time></trkpt><trkpt lat="42.360249" lon="13.3787918"><ele>651.0</ele><time>2026-05-02T16:37:56.886Z</time></trkpt><trkpt lat="42.3602224" lon="13.3788986"><ele>651.0</ele><time>2026-05-02T16:37:57.888Z</time></trkpt><trkpt lat="42.3601962" lon="13.379001"><ele>651.0</ele><time>2026-05-02T16:37:58.875Z</time></trkpt><trkpt lat="42.3601688" lon="13.3790887"><ele>651.0</ele><time>2026-05-02T16:37:59.887Z</time></trkpt><trkpt lat="42.3601381" lon="13.3791827"><ele>651.0</ele><time>2026-05-02T16:38:00.878Z</time></trkpt><trkpt lat="42.3601001" lon="13.3792712"><ele>651.0</ele><time>2026-05-02T16:38:01.886Z</time></trkpt><trkpt lat="42.3600648" lon="13.3793455"><ele>651.0</ele><time>2026-05-02T16:38:02.88Z</time></trkpt><trkpt lat="42.3600046" lon="13.379463"><ele>651.0</ele><time>2026-05-02T16:38:04.891Z</time></trkpt><trkpt lat="42.359914" lon="13.3795797"><ele>651.0</ele><time>2026-05-02T16:38:06.897Z</time></trkpt><trkpt lat="42.3598723" lon="13.3796727"><ele>651.0</ele><time>2026-05-02T16:38:07.891Z</time></trkpt><trkpt lat="42.3598464" lon="13.3797686"><ele>651.0</ele><time>2026-05-02T16:38:08.883Z</time></trkpt><trkpt lat="42.3598269" lon="13.3798693"><ele>651.0</ele><time>2026-05-02T16:38:09.881Z</time></trkpt><trkpt lat="42.3598258" lon="13.3799807"><ele>651.0</ele><time>2026-05-02T16:38:10.892Z</time></trkpt><trkpt lat="42.3598352" lon="13.3800851"><ele>651.0</ele><time>2026-05-02T16:38:11.89Z</time></trkpt><trkpt lat="42.3598167" lon="13.3802096"><ele>651.0</ele><time>2026-05-02T16:38:12.884Z</time></trkpt><trkpt lat="42.3597735" lon="13.3803505"><ele>651.0</ele><time>2026-05-02T16:38:13.88Z</time></trkpt><trkpt lat="42.3597081" lon="13.3804949"><ele>650.6666666666666</ele><time>2026-05-02T16:38:14.894Z</time></trkpt><trkpt lat="42.3596425" lon="13.3806635"><ele>650.3333333333333</ele><time>2026-05-02T16:38:15.884Z</time></trkpt><trkpt lat="42.3595531" lon="13.3808586"><ele>650.0</ele><time>2026-05-02T16:38:16.886Z</time></trkpt><trkpt lat="42.3594589" lon="13.3810623"><ele>650.0</ele><time>2026-05-02T16:38:17.877Z</time></trkpt><trkpt lat="42.359376" lon="13.3812527"><ele>650.0</ele><time>2026-05-02T16:38:18.877Z</time></trkpt><trkpt lat="42.3592978" lon="13.3814259"><ele>650.0</ele><time>2026-05-02T16:38:19.877Z</time></trkpt><trkpt lat="42.3592209" lon="13.3815911"><ele>649.6666666666666</ele><time>2026-05-02T16:38:20.88Z</time></trkpt><trkpt lat="42.3591469" lon="13.3817677"><ele>649.3333333333334</ele><time>2026-05-02T16:38:21.885Z</time></trkpt><trkpt lat="42.3590655" lon="13.3819555"><ele>649.0</ele><time>2026-05-02T16:38:22.888Z</time></trkpt><trkpt lat="42.3589791" lon="13.3821513"><ele>649.6666666666667</ele><time>2026-05-02T16:38:23.888Z</time></trkpt><trkpt lat="42.3588937" lon="13.3823568"><ele>650.3333333333334</ele><time>2026-05-02T16:38:24.886Z</time></trkpt><trkpt lat="42.3588059" lon="13.3825536"><ele>651.0</ele><time>2026-05-02T16:38:25.891Z</time></trkpt><trkpt lat="42.3587219" lon="13.3827361"><ele>651.0</ele><time>2026-05-02T16:38:26.897Z</time></trkpt><trkpt lat="42.358637" lon="13.38291"><ele>651.0</ele><time>2026-05-02T16:38:27.884Z</time></trkpt><trkpt lat="42.3585479" lon="13.3830899"><ele>651.0</ele><time>2026-05-02T16:38:28.88Z</time></trkpt><trkpt lat="42.3584578" lon="13.3832697"><ele>650.3333333333334</ele><time>2026-05-02T16:38:29.893Z</time></trkpt><trkpt lat="42.3583646" lon="13.383452"><ele>649.6666666666667</ele><time>2026-05-02T16:38:30.886Z</time></trkpt><trkpt lat="42.3582768" lon="13.383645"><ele>649.0</ele><time>2026-05-02T16:38:31.892Z</time></trkpt><trkpt lat="42.35819" lon="13.3838406"><ele>649.3333333333334</ele><time>2026-05-02T16:38:32.9Z</time></trkpt><trkpt lat="42.3581074" lon="13.3840328"><ele>649.6666666666666</ele><time>2026-05-02T16:38:33.881Z</time></trkpt><trkpt lat="42.3580281" lon="13.3842264"><ele>650.0</ele><time>2026-05-02T16:38:34.885Z</time></trkpt><trkpt lat="42.357958" lon="13.3844224"><ele>649.75</ele><time>2026-05-02T16:38:35.889Z</time></trkpt><trkpt lat="42.357895" lon="13.3846059"><ele>649.5</ele><time>2026-05-02T16:38:36.88Z</time></trkpt><trkpt lat="42.3578485" lon="13.3847645"><ele>649.25</ele><time>2026-05-02T16:38:37.884Z</time></trkpt><trkpt lat="42.35781" lon="13.3849005"><ele>649.0</ele><time>2026-05-02T16:38:38.896Z</time></trkpt><trkpt lat="42.357768" lon="13.3850131"><ele>649.0</ele><time>2026-05-02T16:38:39.885Z</time></trkpt><trkpt lat="42.3577138" lon="13.3851244"><ele>649.0</ele><time>2026-05-02T16:38:40.888Z</time></trkpt><trkpt lat="42.3576488" lon="13.385209"><ele>649.0</ele><time>2026-05-02T16:38:41.884Z</time></trkpt><trkpt lat="42.3575874" lon="13.3852769"><ele>649.0</ele><time>2026-05-02T16:38:42.88Z</time></trkpt><trkpt lat="42.3575384" lon="13.3853462"><ele>649.0</ele><time>2026-05-02T16:38:43.884Z</time></trkpt><trkpt lat="42.3574992" lon="13.385427"><ele>649.0</ele><time>2026-05-02T16:38:44.879Z</time></trkpt><trkpt lat="42.357456" lon="13.385526"><ele>649.0</ele><time>2026-05-02T16:38:45.893Z</time></trkpt><trkpt lat="42.3574113" lon="13.3856327"><ele>649.0</ele><time>2026-05-02T16:38:46.877Z</time></trkpt><trkpt lat="42.3573529" lon="13.3857435"><ele>649.0</ele><time>2026-05-02T16:38:47.893Z</time></trkpt><trkpt lat="42.3572673" lon="13.3858724"><ele>649.0</ele><time>2026-05-02T16:38:48.882Z</time></trkpt><trkpt lat="42.3571675" lon="13.3859953"><ele>648.6666666666667</ele><time>2026-05-02T16:38:49.883Z</time></trkpt><trkpt lat="42.3570532" lon="13.3861436"><ele>648.3333333333334</ele><time>2026-05-02T16:38:50.882Z</time></trkpt><trkpt lat="42.3569504" lon="13.3862966"><ele>648.0</ele><time>2026-05-02T16:38:51.88Z</time></trkpt><trkpt lat="42.3568424" lon="13.3864625"><ele>648.0</ele><time>2026-05-02T16:38:52.89Z</time></trkpt><trkpt lat="42.3567295" lon="13.3866521"><ele>648.0</ele><time>2026-05-02T16:38:53.89Z</time></trkpt><trkpt lat="42.3566111" lon="13.3868593"><ele>648.0</ele><time>2026-05-02T16:38:54.882Z</time></trkpt><trkpt lat="42.3564921" lon="13.3870747"><ele>647.3333333333334</ele><time>2026-05-02T16:38:55.878Z</time></trkpt><trkpt lat="42.3563818" lon="13.3872665"><ele>646.6666666666667</ele><time>2026-05-02T16:38:56.872Z</time></trkpt><trkpt lat="42.3562778" lon="13.3874523"><ele>646.0</ele><time>2026-05-02T16:38:57.881Z</time></trkpt><trkpt lat="42.3561845" lon="13.3876121"><ele>646.0</ele><time>2026-05-02T16:38:58.876Z</time></trkpt><trkpt lat="42.3561078" lon="13.3877624"><ele>646.0</ele><time>2026-05-02T16:38:59.872Z</time></trkpt><trkpt lat="42.3560312" lon="13.387882"><ele>646.0</ele><time>2026-05-02T16:39:00.887Z</time></trkpt><trkpt lat="42.3559551" lon="13.3879918"><ele>646.0</ele><time>2026-05-02T16:39:01.887Z</time></trkpt><trkpt lat="42.3558853" lon="13.388077"><ele>646.8333333333334</ele><time>2026-05-02T16:39:02.879Z</time></trkpt><trkpt lat="42.3558102" lon="13.3881339"><ele>647.6666666666667</ele><time>2026-05-02T16:39:03.891Z</time></trkpt><trkpt lat="42.3557349" lon="13.3881816"><ele>648.5</ele><time>2026-05-02T16:39:04.895Z</time></trkpt><trkpt lat="42.3556689" lon="13.3882212"><ele>649.3333333333334</ele><time>2026-05-02T16:39:05.886Z</time></trkpt><trkpt lat="42.3556035" lon="13.3882495"><ele>650.1666666666666</ele><time>2026-05-02T16:39:06.882Z</time></trkpt><trkpt lat="42.3555518" lon="13.3882982"><ele>651.0</ele><time>2026-05-02T16:39:07.886Z</time></trkpt><trkpt lat="42.3555099" lon="13.3884175"><ele>651.0</ele><time>2026-05-02T16:39:09.886Z</time></trkpt><trkpt lat="42.3555242" lon="13.3885382"><ele>651.0</ele><time>2026-05-02T16:39:11.879Z</time></trkpt><trkpt lat="42.3555919" lon="13.3886525"><ele>651.0</ele><time>2026-05-02T16:39:13.895Z</time></trkpt><trkpt lat="42.3556888" lon="13.3887418"><ele>651.0</ele><time>2026-05-02T16:39:15.888Z</time></trkpt><trkpt lat="42.3557416" lon="13.3888281"><ele>651.0</ele><time>2026-05-02T16:39:16.891Z</time></trkpt><trkpt lat="42.3558109" lon="13.3889336"><ele>652.5</ele><time>2026-05-02T16:39:17.875Z</time></trkpt><trkpt lat="42.3558842" lon="13.3890612"><ele>654.0</ele><time>2026-05-02T16:39:18.898Z</time></trkpt><trkpt lat="42.3559709" lon="13.3891881"><ele>655.5</ele><time>2026-05-02T16:39:19.88Z</time></trkpt><trkpt lat="42.3560576" lon="13.3893328"><ele>657.0</ele><time>2026-05-02T16:39:20.892Z</time></trkpt><trkpt lat="42.3561487" lon="13.3894887"><ele>657.0</ele><time>2026-05-02T16:39:21.889Z</time></trkpt><trkpt lat="42.3562366" lon="13.3896473"><ele>657.0</ele><time>2026-05-02T16:39:22.888Z</time></trkpt><trkpt lat="42.3563088" lon="13.389793"><ele>657.0</ele><time>2026-05-02T16:39:23.88Z</time></trkpt><trkpt lat="42.3563634" lon="13.3899101"><ele>657.0</ele><time>2026-05-02T16:39:24.883Z</time></trkpt><trkpt lat="42.3564222" lon="13.3899892"><ele>656.3333333333334</ele><time>2026-05-02T16:39:25.878Z</time></trkpt><trkpt lat="42.3564729" lon="13.3900617"><ele>655.6666666666666</ele><time>2026-05-02T16:39:26.872Z</time></trkpt><trkpt lat="42.356517" lon="13.3901243"><ele>655.0</ele><time>2026-05-02T16:39:27.896Z</time></trkpt><trkpt lat="42.3565637" lon="13.3901882"><ele>654.3333333333333</ele><time>2026-05-02T16:39:28.908Z</time></trkpt><trkpt lat="42.3566469" lon="13.3903158"><ele>653.6666666666666</ele><time>2026-05-02T16:39:30.879Z</time></trkpt><trkpt lat="42.3566889" lon="13.3903863"><ele>653.0</ele><time>2026-05-02T16:39:31.902Z</time></trkpt><trkpt lat="42.3567282" lon="13.3904676"><ele>653.1666666666666</ele><time>2026-05-02T16:39:32.877Z</time></trkpt><trkpt lat="42.3567632" lon="13.3905595"><ele>653.3333333333333</ele><time>2026-05-02T16:39:33.894Z</time></trkpt><trkpt lat="42.3567846" lon="13.3906615"><ele>653.5</ele><time>2026-05-02T16:39:34.883Z</time></trkpt><trkpt lat="42.3568" lon="13.3907682"><ele>653.6666666666666</ele><time>2026-05-02T16:39:35.879Z</time></trkpt><trkpt lat="42.3567976" lon="13.3908786"><ele>653.8333333333334</ele><time>2026-05-02T16:39:36.899Z</time></trkpt><trkpt lat="42.3567724" lon="13.3910225"><ele>654.0</ele><time>2026-05-02T16:39:37.884Z</time></trkpt><trkpt lat="42.3567408" lon="13.3911951"><ele>655.25</ele><time>2026-05-02T16:39:38.878Z</time></trkpt><trkpt lat="42.3567129" lon="13.3913949"><ele>656.5</ele><time>2026-05-02T16:39:39.88Z</time></trkpt><trkpt lat="42.3566868" lon="13.3915839"><ele>657.75</ele><time>2026-05-02T16:39:40.886Z</time></trkpt><trkpt lat="42.3566683" lon="13.3917623"><ele>659.0</ele><time>2026-05-02T16:39:41.888Z</time></trkpt><trkpt lat="42.3566641" lon="13.3919178"><ele>659.0</ele><time>2026-05-02T16:39:42.877Z</time></trkpt><trkpt lat="42.3566564" lon="13.3920555"><ele>659.0</ele><time>2026-05-02T16:39:43.889Z</time></trkpt><trkpt lat="42.3566471" lon="13.3921626"><ele>659.0</ele><time>2026-05-02T16:39:44.879Z</time></trkpt><trkpt lat="42.3566422" lon="13.3922743"><ele>659.0</ele><time>2026-05-02T16:39:45.877Z</time></trkpt><trkpt lat="42.356644" lon="13.3923761"><ele>659.0</ele><time>2026-05-02T16:39:46.881Z</time></trkpt><trkpt lat="42.3566439" lon="13.3924671"><ele>659.0</ele><time>2026-05-02T16:39:47.881Z</time></trkpt><trkpt lat="42.3566407" lon="13.3925656"><ele>660.0</ele><time>2026-05-02T16:39:48.89Z</time></trkpt><trkpt lat="42.3566365" lon="13.3926662"><ele>661.0</ele><time>2026-05-02T16:39:49.885Z</time></trkpt><trkpt lat="42.3566396" lon="13.3927654"><ele>662.0</ele><time>2026-05-02T16:39:50.888Z</time></trkpt><trkpt lat="42.3566357" lon="13.3928589"><ele>663.0</ele><time>2026-05-02T16:39:51.885Z</time></trkpt><trkpt lat="42.3566336" lon="13.3929462"><ele>664.0</ele><time>2026-05-02T16:39:52.888Z</time></trkpt><trkpt lat="42.3566301" lon="13.393037"><ele>665.0</ele><time>2026-05-02T16:39:53.879Z</time></trkpt><trkpt lat="42.3566255" lon="13.3931837"><ele>665.6666666666666</ele><time>2026-05-02T16:39:55.888Z</time></trkpt><trkpt lat="42.3566187" lon="13.3932695"><ele>666.3333333333333</ele><time>2026-05-02T16:39:56.885Z</time></trkpt><trkpt lat="42.3566171" lon="13.3933717"><ele>667.0</ele><time>2026-05-02T16:39:57.879Z</time></trkpt><trkpt lat="42.35662" lon="13.393475"><ele>667.6666666666666</ele><time>2026-05-02T16:39:58.889Z</time></trkpt><trkpt lat="42.356623" lon="13.3935911"><ele>668.3333333333334</ele><time>2026-05-02T16:39:59.886Z</time></trkpt><trkpt lat="42.3566199" lon="13.3937304"><ele>669.0</ele><time>2026-05-02T16:40:00.89Z</time></trkpt><trkpt lat="42.3566173" lon="13.3938959"><ele>670.5</ele><time>2026-05-02T16:40:01.883Z</time></trkpt><trkpt lat="42.3566239" lon="13.3940814"><ele>672.0</ele><time>2026-05-02T16:40:02.88Z</time></trkpt><trkpt lat="42.3566199" lon="13.3942666"><ele>673.5</ele><time>2026-05-02T16:40:03.878Z</time></trkpt><trkpt lat="42.3566045" lon="13.3944268"><ele>675.0</ele><time>2026-05-02T16:40:04.888Z</time></trkpt><trkpt lat="42.3566026" lon="13.3945663"><ele>675.1666666666666</ele><time>2026-05-02T16:40:05.884Z</time></trkpt><trkpt lat="42.3566044" lon="13.394684"><ele>675.3333333333334</ele><time>2026-05-02T16:40:06.879Z</time></trkpt><trkpt lat="42.3566133" lon="13.3947987"><ele>675.5</ele><time>2026-05-02T16:40:07.879Z</time></trkpt><trkpt lat="42.3566149" lon="13.3949176"><ele>675.6666666666667</ele><time>2026-05-02T16:40:08.882Z</time></trkpt><trkpt lat="42.3566209" lon="13.3950294"><ele>675.8333333333334</ele><time>2026-05-02T16:40:09.874Z</time></trkpt><trkpt lat="42.3566163" lon="13.3951203"><ele>676.0</ele><time>2026-05-02T16:40:10.875Z</time></trkpt><trkpt lat="42.3566085" lon="13.3952564"><ele>676.0</ele><time>2026-05-02T16:40:12.883Z</time></trkpt><trkpt lat="42.3565984" lon="13.395358"><ele>676.0</ele><time>2026-05-02T16:40:14.876Z</time></trkpt><trkpt lat="42.3565955" lon="13.3954728"><ele>676.0</ele><time>2026-05-02T16:40:20.873Z</time></trkpt><trkpt lat="42.3565965" lon="13.3955704"><ele>676.0</ele><time>2026-05-02T16:40:21.876Z</time></trkpt><trkpt lat="42.3565984" lon="13.3957199"><ele>676.0</ele><time>2026-05-02T16:40:23.871Z</time></trkpt><trkpt lat="42.3566124" lon="13.3958796"><ele>675.5</ele><time>2026-05-02T16:40:25.884Z</time></trkpt><trkpt lat="42.3565906" lon="13.3960059"><ele>675.0</ele><time>2026-05-02T16:40:26.889Z</time></trkpt><trkpt lat="42.3565841" lon="13.3961574"><ele>674.5</ele><time>2026-05-02T16:40:27.884Z</time></trkpt><trkpt lat="42.3565842" lon="13.3963247"><ele>674.0</ele><time>2026-05-02T16:40:28.882Z</time></trkpt><trkpt lat="42.3565777" lon="13.3964979"><ele>675.25</ele><time>2026-05-02T16:40:29.877Z</time></trkpt><trkpt lat="42.3565665" lon="13.3966794"><ele>676.5</ele><time>2026-05-02T16:40:30.886Z</time></trkpt><trkpt lat="42.3565427" lon="13.3968704"><ele>677.75</ele><time>2026-05-02T16:40:31.876Z</time></trkpt><trkpt lat="42.3565238" lon="13.3970719"><ele>679.0</ele><time>2026-05-02T16:40:32.878Z</time></trkpt><trkpt lat="42.3565088" lon="13.397282"><ele>681.25</ele><time>2026-05-02T16:40:33.876Z</time></trkpt><trkpt lat="42.3565005" lon="13.3974809"><ele>683.5</ele><time>2026-05-02T16:40:34.89Z</time></trkpt><trkpt lat="42.3565164" lon="13.3976801"><ele>685.75</ele><time>2026-05-02T16:40:35.879Z</time></trkpt><trkpt lat="42.3565471" lon="13.3978575"><ele>688.0</ele><time>2026-05-02T16:40:36.881Z</time></trkpt><trkpt lat="42.3566187" lon="13.3980322"><ele>688.3333333333334</ele><time>2026-05-02T16:40:37.874Z</time></trkpt><trkpt lat="42.3567061" lon="13.3981991"><ele>688.6666666666666</ele><time>2026-05-02T16:40:38.885Z</time></trkpt><trkpt lat="42.3568039" lon="13.3983856"><ele>689.0</ele><time>2026-05-02T16:40:39.874Z</time></trkpt><trkpt lat="42.35689" lon="13.3985883"><ele>689.0</ele><time>2026-05-02T16:40:40.876Z</time></trkpt><trkpt lat="42.3569558" lon="13.3988157"><ele>689.0</ele><time>2026-05-02T16:40:41.877Z</time></trkpt><trkpt lat="42.3570063" lon="13.3990393"><ele>689.0</ele><time>2026-05-02T16:40:42.88Z</time></trkpt><trkpt lat="42.3570312" lon="13.3992811"><ele>690.6666666666666</ele><time>2026-05-02T16:40:43.88Z</time></trkpt><trkpt lat="42.3570285" lon="13.3995106"><ele>692.3333333333334</ele><time>2026-05-02T16:40:44.871Z</time></trkpt><trkpt lat="42.357029" lon="13.3997227"><ele>694.0</ele><time>2026-05-02T16:40:45.879Z</time></trkpt><trkpt lat="42.3570259" lon="13.399927"><ele>695.5</ele><time>2026-05-02T16:40:46.883Z</time></trkpt><trkpt lat="42.3570276" lon="13.4001271"><ele>697.0</ele><time>2026-05-02T16:40:47.878Z</time></trkpt><trkpt lat="42.3570323" lon="13.4003242"><ele>698.5</ele><time>2026-05-02T16:40:48.882Z</time></trkpt><trkpt lat="42.3570365" lon="13.4005143"><ele>700.0</ele><time>2026-05-02T16:40:49.886Z</time></trkpt><trkpt lat="42.3570443" lon="13.4006943"><ele>700.75</ele><time>2026-05-02T16:40:50.879Z</time></trkpt><trkpt lat="42.3570434" lon="13.4008751"><ele>701.5</ele><time>2026-05-02T16:40:51.869Z</time></trkpt><trkpt lat="42.3570513" lon="13.4010701"><ele>702.25</ele><time>2026-05-02T16:40:52.882Z</time></trkpt><trkpt lat="42.3570586" lon="13.4012761"><ele>703.0</ele><time>2026-05-02T16:40:53.877Z</time></trkpt><trkpt lat="42.3570613" lon="13.4014807"><ele>703.0</ele><time>2026-05-02T16:40:54.874Z</time></trkpt><trkpt lat="42.3570617" lon="13.4016855"><ele>703.0</ele><time>2026-05-02T16:40:55.869Z</time></trkpt><trkpt lat="42.3570676" lon="13.401877"><ele>703.0</ele><time>2026-05-02T16:40:56.877Z</time></trkpt><trkpt lat="42.3570696" lon="13.4020685"><ele>703.0</ele><time>2026-05-02T16:40:57.891Z</time></trkpt><trkpt lat="42.3570731" lon="13.4022572"><ele>701.75</ele><time>2026-05-02T16:40:58.886Z</time></trkpt><trkpt lat="42.3570751" lon="13.402437"><ele>700.5</ele><time>2026-05-02T16:40:59.871Z</time></trkpt><trkpt lat="42.3570915" lon="13.4026205"><ele>699.25</ele><time>2026-05-02T16:41:00.875Z</time></trkpt><trkpt lat="42.3571094" lon="13.4027969"><ele>698.0</ele><time>2026-05-02T16:41:01.881Z</time></trkpt><trkpt lat="42.3571457" lon="13.4029686"><ele>698.0</ele><time>2026-05-02T16:41:02.879Z</time></trkpt><trkpt lat="42.3571977" lon="13.4031319"><ele>698.0</ele><time>2026-05-02T16:41:03.879Z</time></trkpt><trkpt lat="42.3572546" lon="13.4032818"><ele>698.0</ele><time>2026-05-02T16:41:04.876Z</time></trkpt><trkpt lat="42.3573032" lon="13.4034057"><ele>698.0</ele><time>2026-05-02T16:41:05.876Z</time></trkpt><trkpt lat="42.3573471" lon="13.4035259"><ele>698.8</ele><time>2026-05-02T16:41:06.88Z</time></trkpt><trkpt lat="42.357388" lon="13.4036426"><ele>699.5999999999999</ele><time>2026-05-02T16:41:07.878Z</time></trkpt><trkpt lat="42.3574235" lon="13.4037616"><ele>700.4000000000001</ele><time>2026-05-02T16:41:08.881Z</time></trkpt><trkpt lat="42.3574621" lon="13.403877"><ele>701.2</ele><time>2026-05-02T16:41:09.889Z</time></trkpt><trkpt lat="42.3574981" lon="13.4039733"><ele>702.0</ele><time>2026-05-02T16:41:10.867Z</time></trkpt><trkpt lat="42.357539" lon="13.4040849"><ele>702.0</ele><time>2026-05-02T16:41:11.877Z</time></trkpt><trkpt lat="42.3575818" lon="13.4041955"><ele>702.0</ele><time>2026-05-02T16:41:12.871Z</time></trkpt><trkpt lat="42.3576104" lon="13.4042969"><ele>702.0</ele><time>2026-05-02T16:41:13.867Z</time></trkpt><trkpt lat="42.3576401" lon="13.4043931"><ele>702.0</ele><time>2026-05-02T16:41:14.88Z</time></trkpt><trkpt lat="42.3576563" lon="13.4044983"><ele>702.0</ele><time>2026-05-02T16:41:15.876Z</time></trkpt><trkpt lat="42.3576399" lon="13.4046002"><ele>702.0</ele><time>2026-05-02T16:41:16.872Z</time></trkpt><trkpt lat="42.3576024" lon="13.4047042"><ele>703.2</ele><time>2026-05-02T16:41:17.881Z</time></trkpt><trkpt lat="42.3575502" lon="13.4047925"><ele>704.4000000000001</ele><time>2026-05-02T16:41:18.874Z</time></trkpt><trkpt lat="42.3574829" lon="13.4048557"><ele>705.5999999999999</ele><time>2026-05-02T16:41:19.878Z</time></trkpt><trkpt lat="42.3573949" lon="13.404906"><ele>706.8</ele><time>2026-05-02T16:41:20.882Z</time></trkpt><trkpt lat="42.3573001" lon="13.4049226"><ele>708.0</ele><time>2026-05-02T16:41:21.879Z</time></trkpt><trkpt lat="42.3572002" lon="13.4049326"><ele>708.0</ele><time>2026-05-02T16:41:22.876Z</time></trkpt><trkpt lat="42.3570992" lon="13.4049477"><ele>708.0</ele><time>2026-05-02T16:41:23.877Z</time></trkpt><trkpt lat="42.3570091" lon="13.404959"><ele>708.0</ele><time>2026-05-02T16:41:24.874Z</time></trkpt><trkpt lat="42.3569206" lon="13.404982"><ele>708.0</ele><time>2026-05-02T16:41:25.88Z</time></trkpt><trkpt lat="42.3568355" lon="13.4050037"><ele>708.0</ele><time>2026-05-02T16:41:26.879Z</time></trkpt><trkpt lat="42.3567504" lon="13.4050301"><ele>708.0</ele><time>2026-05-02T16:41:27.881Z</time></trkpt><trkpt lat="42.3566625" lon="13.4050871"><ele>708.0</ele><time>2026-05-02T16:41:28.882Z</time></trkpt><trkpt lat="42.3565903" lon="13.405148"><ele>708.0</ele><time>2026-05-02T16:41:29.885Z</time></trkpt><trkpt lat="42.3565178" lon="13.4052073"><ele>708.0</ele><time>2026-05-02T16:41:30.877Z</time></trkpt><trkpt lat="42.3564487" lon="13.405258"><ele>708.0</ele><time>2026-05-02T16:41:31.889Z</time></trkpt><trkpt lat="42.3563792" lon="13.4053126"><ele>708.0</ele><time>2026-05-02T16:41:32.884Z</time></trkpt><trkpt lat="42.3563102" lon="13.405371"><ele>708.5</ele><time>2026-05-02T16:41:33.886Z</time></trkpt><trkpt lat="42.3562389" lon="13.405431"><ele>709.0</ele><time>2026-05-02T16:41:34.887Z</time></trkpt><trkpt lat="42.3561855" lon="13.4054795"><ele>709.5</ele><time>2026-05-02T16:41:35.876Z</time></trkpt><trkpt lat="42.3561156" lon="13.4055303"><ele>710.0</ele><time>2026-05-02T16:41:37.887Z</time></trkpt><trkpt lat="42.3560483" lon="13.4055722"><ele>710.5</ele><time>2026-05-02T16:41:44.886Z</time></trkpt><trkpt lat="42.3559811" lon="13.4055957"><ele>711.0</ele><time>2026-05-02T16:41:46.883Z</time></trkpt><trkpt lat="42.355875" lon="13.4055766"><ele>711.0</ele><time>2026-05-02T16:41:48.89Z</time></trkpt><trkpt lat="42.3558287" lon="13.4055154"><ele>711.0</ele><time>2026-05-02T16:41:49.875Z</time></trkpt><trkpt lat="42.3557902" lon="13.4054309"><ele>711.0</ele><time>2026-05-02T16:41:50.879Z</time></trkpt><trkpt lat="42.3557652" lon="13.4053284"><ele>711.0</ele><time>2026-05-02T16:41:51.892Z</time></trkpt><trkpt lat="42.3557382" lon="13.4052153"><ele>711.0</ele><time>2026-05-02T16:41:52.877Z</time></trkpt><trkpt lat="42.3557075" lon="13.4051215"><ele>711.0</ele><time>2026-05-02T16:41:53.883Z</time></trkpt><trkpt lat="42.3556877" lon="13.4050404"><ele>711.0</ele><time>2026-05-02T16:41:54.882Z</time></trkpt><trkpt lat="42.3556704" lon="13.4049551"><ele>711.0</ele><time>2026-05-02T16:41:55.871Z</time></trkpt><trkpt lat="42.3556266" lon="13.4047996"><ele>711.0</ele><time>2026-05-02T16:41:57.88Z</time></trkpt><trkpt lat="42.3556051" lon="13.4047071"><ele>711.0</ele><time>2026-05-02T16:41:58.885Z</time></trkpt><trkpt lat="42.3555814" lon="13.4046043"><ele>711.0</ele><time>2026-05-02T16:41:59.893Z</time></trkpt><trkpt lat="42.3555533" lon="13.4044872"><ele>711.0</ele><time>2026-05-02T16:42:00.878Z</time></trkpt><trkpt lat="42.3555227" lon="13.4043666"><ele>713.0</ele><time>2026-05-02T16:42:01.889Z</time></trkpt><trkpt lat="42.355492" lon="13.4042515"><ele>715.0</ele><time>2026-05-02T16:42:02.878Z</time></trkpt><trkpt lat="42.3554656" lon="13.4041477"><ele>717.0</ele><time>2026-05-02T16:42:03.883Z</time></trkpt><trkpt lat="42.3554495" lon="13.4040546"><ele>719.0</ele><time>2026-05-02T16:42:04.877Z</time></trkpt><trkpt lat="42.3554289" lon="13.4039632"><ele>721.0</ele><time>2026-05-02T16:42:05.877Z</time></trkpt><trkpt lat="42.3553994" lon="13.4038217"><ele>723.0</ele><time>2026-05-02T16:42:07.882Z</time></trkpt><trkpt lat="42.3553667" lon="13.4037044"><ele>723.0</ele><time>2026-05-02T16:42:09.875Z</time></trkpt><trkpt lat="42.3553421" lon="13.4036259"><ele>723.0</ele><time>2026-05-02T16:42:12.874Z</time></trkpt><trkpt lat="42.355303" lon="13.4035366"><ele>723.0</ele><time>2026-05-02T16:42:21.872Z</time></trkpt><trkpt lat="42.3552613" lon="13.4033823"><ele>723.0</ele><time>2026-05-02T16:42:23.885Z</time></trkpt><trkpt lat="42.355215" lon="13.403246"><ele>723.0</ele><time>2026-05-02T16:42:25.888Z</time></trkpt><trkpt lat="42.3551762" lon="13.4031431"><ele>723.0</ele><time>2026-05-02T16:42:27.879Z</time></trkpt><trkpt lat="42.3551354" lon="13.403056"><ele>723.0</ele><time>2026-05-02T16:42:29.888Z</time></trkpt><trkpt lat="42.3550887" lon="13.4029498"><ele>723.0</ele><time>2026-05-02T16:42:31.88Z</time></trkpt><trkpt lat="42.3550164" lon="13.4028333"><ele>723.0</ele><time>2026-05-02T16:42:33.879Z</time></trkpt><trkpt lat="42.3549653" lon="13.4027751"><ele>723.0</ele><time>2026-05-02T16:42:34.872Z</time></trkpt><trkpt lat="42.3549158" lon="13.4027181"><ele>723.0</ele><time>2026-05-02T16:42:35.887Z</time></trkpt><trkpt lat="42.3548616" lon="13.4026669"><ele>721.5999999999999</ele><time>2026-05-02T16:42:36.882Z</time></trkpt><trkpt lat="42.3547789" lon="13.4025573"><ele>720.1999999999999</ele><time>2026-05-02T16:42:38.878Z</time></trkpt><trkpt lat="42.3547127" lon="13.4024586"><ele>718.8</ele><time>2026-05-02T16:42:40.878Z</time></trkpt><trkpt lat="42.3546529" lon="13.4023812"><ele>717.4</ele><time>2026-05-02T16:42:43.88Z</time></trkpt><trkpt lat="42.3545794" lon="13.4023178"><ele>716.0</ele><time>2026-05-02T16:42:45.878Z</time></trkpt><trkpt lat="42.3545002" lon="13.4022234"><ele>718.0</ele><time>2026-05-02T16:42:47.875Z</time></trkpt><trkpt lat="42.354452" lon="13.4021593"><ele>720.0</ele><time>2026-05-02T16:42:48.88Z</time></trkpt><trkpt lat="42.3543746" lon="13.4020527"><ele>722.0</ele><time>2026-05-02T16:42:50.881Z</time></trkpt><trkpt lat="42.354319" lon="13.4019625"><ele>724.0</ele><time>2026-05-02T16:42:53.883Z</time></trkpt><trkpt lat="42.3543044" lon="13.4018702"><ele>726.0</ele><time>2026-05-02T16:42:56.883Z</time></trkpt><trkpt lat="42.354297" lon="13.4017442"><ele>728.0</ele><time>2026-05-02T16:42:59.875Z</time></trkpt><trkpt lat="42.3543155" lon="13.4016318"><ele>728.0</ele><time>2026-05-02T16:43:02.883Z</time></trkpt><trkpt lat="42.3543422" lon="13.4015401"><ele>728.0</ele><time>2026-05-02T16:43:06.899Z</time></trkpt><trkpt lat="42.3543243" lon="13.4014521"><ele>728.0</ele><time>2026-05-02T16:43:09.884Z</time></trkpt><trkpt lat="42.354273" lon="13.4014017"><ele>728.0</ele><time>2026-05-02T16:43:11.875Z</time></trkpt><trkpt lat="42.3542089" lon="13.4013807"><ele>728.0</ele><time>2026-05-02T16:43:13.882Z</time></trkpt><trkpt lat="42.354142" lon="13.4013659"><ele>728.0</ele><time>2026-05-02T16:43:17.869Z</time></trkpt><trkpt lat="42.3540567" lon="13.401366"><ele>728.0</ele><time>2026-05-02T16:43:29.879Z</time></trkpt><trkpt lat="42.353993" lon="13.4013076"><ele>728.5</ele><time>2026-05-02T16:43:32.878Z</time></trkpt><trkpt lat="42.3539352" lon="13.4012602"><ele>729.0</ele><time>2026-05-02T16:43:35.89Z</time></trkpt><trkpt lat="42.3538751" lon="13.4012129"><ele>729.5</ele><time>2026-05-02T16:43:38.873Z</time></trkpt><trkpt lat="42.3537914" lon="13.4012302"><ele>730.0</ele><time>2026-05-02T16:43:41.873Z</time></trkpt><trkpt lat="42.3537563" lon="13.4013372"><ele>730.5</ele><time>2026-05-02T16:43:43.881Z</time></trkpt><trkpt lat="42.353796" lon="13.4014855"><ele>731.0</ele><time>2026-05-02T16:43:45.873Z</time></trkpt><trkpt lat="42.3538078" lon="13.4016208"><ele>731.5</ele><time>2026-05-02T16:43:47.878Z</time></trkpt><trkpt lat="42.3537951" lon="13.401723"><ele>732.0</ele><time>2026-05-02T16:43:49.882Z</time></trkpt><trkpt lat="42.3537594" lon="13.40185"><ele>732.5</ele><time>2026-05-02T16:43:51.875Z</time></trkpt><trkpt lat="42.3537393" lon="13.4019863"><ele>733.0</ele><time>2026-05-02T16:43:53.881Z</time></trkpt><trkpt lat="42.3537445" lon="13.4020841"><ele>733.5</ele><time>2026-05-02T16:43:55.889Z</time></trkpt><trkpt lat="42.3537474" lon="13.4021887"><ele>734.0</ele><time>2026-05-02T16:43:57.872Z</time></trkpt><trkpt lat="42.3537473" lon="13.4023046"><ele>735.0</ele><time>2026-05-02T16:44:00.876Z</time></trkpt><trkpt lat="42.3537602" lon="13.4024043"><ele>735.0</ele><time>2026-05-02T16:44:04.872Z</time></trkpt><trkpt lat="42.3537778" lon="13.4025084"><ele>735.0</ele><time>2026-05-02T16:44:08.879Z</time></trkpt><trkpt lat="42.3537778" lon="13.4025084"><ele>735.0</ele><time>2026-05-02T16:44:08.879Z</time></trkpt><trkpt lat="42.3537778" lon="13.4025084"><ele>735.0</ele><time>2026-05-02T16:44:08.879Z</time></trkpt><trkpt lat="42.3537778" lon="13.4025084"><ele>735.0</ele><time>2026-05-02T16:44:08.879Z</time></trkpt><trkpt lat="42.3537778" lon="13.4025084"><ele>735.0</ele><time>2026-05-02T16:44:08.879Z</time></trkpt><trkpt lat="42.3537778" lon="13.4025084"><ele>735.0</ele><time>2026-05-02T16:44:08.879Z</time></trkpt><trkpt lat="42.3537778" lon="13.4025084"><ele>735.0</ele><time>2026-05-02T16:44:08.879Z</time></trkpt><trkpt lat="42.3537778" lon="13.4025084"><ele>735.0</ele><time>2026-05-02T16:44:08.879Z</time></trkpt></trkseg></trk></gpx>